<?xml version='1.0' encoding='UTF-8'?><gpx version="1.1" creator="JPX - https://github.com/jenetics/jpx" xmlns="http://www.topografix.com/GPX/1/1"><trk><trkseg><trkpt lat="41.076544339757" lon="14.542760315516944"><ele>272.0</ele><time>2026-04-05T11:35:54.998Z</time></trkpt><trkpt lat="41.07647968922848" lon="14.542760866114198"><ele>272.0</ele><time>2026-04-05T11:35:55.998Z</time></trkpt><trkpt lat="41.07641286135027" lon="14.54276147214723"><ele>272.0</ele><time>2026-04-05T11:35:56.998Z</time></trkpt><trkpt lat="41.07629931358719" lon="14.542752098031336"><ele>272.0</ele><time>2026-04-05T11:35:58.998Z</time></trkpt><trkpt lat="41.07624593849701" lon="14.542818778065548"><ele>272.0</ele><time>2026-04-05T11:36:01Z</time></trkpt><trkpt lat="41.07627866538691" lon="14.542932930794764"><ele>272.0</ele><time>2026-04-05T11:36:03Z</time></trkpt><trkpt lat="41.076384202680885" lon="14.542942277531669"><ele>272.0</ele><time>2026-04-05T11:36:05Z</time></trkpt><trkpt lat="41.076433111057206" lon="14.542851056620693"><ele>272.0</ele><time>2026-04-05T11:36:07Z</time></trkpt><trkpt lat="41.07651901816948" lon="14.542803409778319"><ele>272.0</ele><time>2026-04-05T11:36:10Z</time></trkpt><trkpt lat="41.07665152047282" lon="14.542810371993939"><ele>272.0</ele><time>2026-04-05T11:36:12Z</time></trkpt><trkpt lat="41.07671940855213" lon="14.542812863286121"><ele>272.0</ele><time>2026-04-05T11:36:13Z</time></trkpt><trkpt lat="41.076793431443726" lon="14.542842291743225"><ele>271.83333333333337</ele><time>2026-04-05T11:36:14Z</time></trkpt><trkpt lat="41.0768738017955" lon="14.542824084816642"><ele>271.6666666666667</ele><time>2026-04-05T11:36:15Z</time></trkpt><trkpt lat="41.07696544233175" lon="14.542830870501104"><ele>271.5</ele><time>2026-04-05T11:36:16Z</time></trkpt><trkpt lat="41.0770594253567" lon="14.54284306851159"><ele>271.3333333333333</ele><time>2026-04-05T11:36:17Z</time></trkpt><trkpt lat="41.07715023153672" lon="14.542854241152686"><ele>271.16666666666663</ele><time>2026-04-05T11:36:18Z</time></trkpt><trkpt lat="41.07722944786444" lon="14.54289410526891"><ele>271.0</ele><time>2026-04-05T11:36:19Z</time></trkpt><trkpt lat="41.077315182422836" lon="14.542933883962952"><ele>271.0</ele><time>2026-04-05T11:36:20Z</time></trkpt><trkpt lat="41.077393419875094" lon="14.542997989091853"><ele>271.0</ele><time>2026-04-05T11:36:21Z</time></trkpt><trkpt lat="41.07747241797866" lon="14.543064701535737"><ele>271.0</ele><time>2026-04-05T11:36:22Z</time></trkpt><trkpt lat="41.077546949243285" lon="14.543130579957412"><ele>271.0</ele><time>2026-04-05T11:36:23Z</time></trkpt><trkpt lat="41.07761994506659" lon="14.54320622066572"><ele>271.0</ele><time>2026-04-05T11:36:24Z</time></trkpt><trkpt lat="41.07770190628247" lon="14.543269559346253"><ele>271.0</ele><time>2026-04-05T11:36:25Z</time></trkpt><trkpt lat="41.07777663548734" lon="14.543346189621513"><ele>271.0</ele><time>2026-04-05T11:36:26Z</time></trkpt><trkpt lat="41.07786318988156" lon="14.543413300409266"><ele>271.0</ele><time>2026-04-05T11:36:27Z</time></trkpt><trkpt lat="41.07796408551412" lon="14.543471315840456"><ele>271.0</ele><time>2026-04-05T11:36:28Z</time></trkpt><trkpt lat="41.07806430139887" lon="14.54351141588049"><ele>271.0</ele><time>2026-04-05T11:36:29Z</time></trkpt><trkpt lat="41.07815893121959" lon="14.543547687640443"><ele>271.0</ele><time>2026-04-05T11:36:30Z</time></trkpt><trkpt lat="41.078241034984764" lon="14.543600391707018"><ele>271.0</ele><time>2026-04-05T11:36:31Z</time></trkpt><trkpt lat="41.07832002131424" lon="14.54360218141067"><ele>271.0</ele><time>2026-04-05T11:36:32Z</time></trkpt><trkpt lat="41.07839395707368" lon="14.543634182438733"><ele>271.0</ele><time>2026-04-05T11:36:33Z</time></trkpt><trkpt lat="41.078456063455334" lon="14.54365909979816"><ele>271.0</ele><time>2026-04-05T11:36:34Z</time></trkpt><trkpt lat="41.07850948175681" lon="14.54374212292166"><ele>271.0</ele><time>2026-04-05T11:36:36Z</time></trkpt><trkpt lat="41.078616522352505" lon="14.543711949787557"><ele>270.8</ele><time>2026-04-05T11:36:40Z</time></trkpt><trkpt lat="41.07871270441057" lon="14.54363437111638"><ele>270.6</ele><time>2026-04-05T11:36:41Z</time></trkpt><trkpt lat="41.07879134884446" lon="14.543570937992158"><ele>270.4</ele><time>2026-04-05T11:36:42Z</time></trkpt><trkpt lat="41.07887053437059" lon="14.543507068421754"><ele>270.2</ele><time>2026-04-05T11:36:43Z</time></trkpt><trkpt lat="41.078950787839325" lon="14.54344233747334"><ele>270.0</ele><time>2026-04-05T11:36:44Z</time></trkpt><trkpt lat="41.07903596277549" lon="14.543373636968818"><ele>269.8333333333333</ele><time>2026-04-05T11:36:45Z</time></trkpt><trkpt lat="41.079124121396845" lon="14.543301316644785"><ele>269.6666666666667</ele><time>2026-04-05T11:36:46Z</time></trkpt><trkpt lat="41.079196022440016" lon="14.543217136432215"><ele>269.5</ele><time>2026-04-05T11:36:47Z</time></trkpt><trkpt lat="41.0792743431166" lon="14.543162307861627"><ele>269.33333333333337</ele><time>2026-04-05T11:36:48Z</time></trkpt><trkpt lat="41.07934562403653" lon="14.543112438988011"><ele>269.1666666666667</ele><time>2026-04-05T11:36:49Z</time></trkpt><trkpt lat="41.0794172598321" lon="14.543074861129446"><ele>269.0</ele><time>2026-04-05T11:36:50Z</time></trkpt><trkpt lat="41.07953988333301" lon="14.543034251581021"><ele>269.0</ele><time>2026-04-05T11:36:52Z</time></trkpt><trkpt lat="41.079638869841126" lon="14.54303453894642"><ele>269.0</ele><time>2026-04-05T11:36:54Z</time></trkpt><trkpt lat="41.0797083619389" lon="14.543034230194714"><ele>269.0</ele><time>2026-04-05T11:36:55.999Z</time></trkpt><trkpt lat="41.07979155053017" lon="14.543030182962315"><ele>269.0</ele><time>2026-04-05T11:39:00Z</time></trkpt><trkpt lat="41.07985550638601" lon="14.54304631517569"><ele>269.0</ele><time>2026-04-05T11:39:01Z</time></trkpt><trkpt lat="41.07993052077158" lon="14.543044775255957"><ele>269.0</ele><time>2026-04-05T11:39:02Z</time></trkpt><trkpt lat="41.08001157887742" lon="14.543036029721186"><ele>268.59999999999997</ele><time>2026-04-05T11:39:02.999Z</time></trkpt><trkpt lat="41.08009576541542" lon="14.543033580049551"><ele>268.2</ele><time>2026-04-05T11:39:03.999Z</time></trkpt><trkpt lat="41.08017914483135" lon="14.543034193911454"><ele>267.79999999999995</ele><time>2026-04-05T11:39:04.999Z</time></trkpt><trkpt lat="41.08026928797011" lon="14.54302966852209"><ele>267.4</ele><time>2026-04-05T11:39:05.999Z</time></trkpt><trkpt lat="41.08035723275996" lon="14.543032778672615"><ele>267.0</ele><time>2026-04-05T11:39:06.999Z</time></trkpt><trkpt lat="41.08046220905042" lon="14.543031907316058"><ele>267.0</ele><time>2026-04-05T11:39:07.999Z</time></trkpt><trkpt lat="41.0805583558772" lon="14.543025473968607"><ele>267.0</ele><time>2026-04-05T11:39:08.999Z</time></trkpt><trkpt lat="41.08065467353391" lon="14.543023331662399"><ele>267.0</ele><time>2026-04-05T11:39:09.999Z</time></trkpt><trkpt lat="41.08073973294897" lon="14.543016719654387"><ele>267.0</ele><time>2026-04-05T11:39:10.999Z</time></trkpt><trkpt lat="41.08082610357471" lon="14.543005871022492"><ele>267.0</ele><time>2026-04-05T11:39:11.999Z</time></trkpt><trkpt lat="41.08092114467574" lon="14.542995586501771"><ele>267.0</ele><time>2026-04-05T11:39:12.999Z</time></trkpt><trkpt lat="41.0810223920246" lon="14.54298783368041"><ele>267.0</ele><time>2026-04-05T11:39:13.999Z</time></trkpt><trkpt lat="41.081130822384175" lon="14.542973196676435"><ele>267.0</ele><time>2026-04-05T11:39:14.999Z</time></trkpt><trkpt lat="41.08123833300431" lon="14.542953065685015"><ele>267.0</ele><time>2026-04-05T11:39:15.999Z</time></trkpt><trkpt lat="41.08134820822015" lon="14.54291510691237"><ele>267.0</ele><time>2026-04-05T11:39:16.999Z</time></trkpt><trkpt lat="41.08145089030211" lon="14.54287083058625"><ele>267.5</ele><time>2026-04-05T11:39:17.999Z</time></trkpt><trkpt lat="41.08155384808664" lon="14.542816829740591"><ele>268.0</ele><time>2026-04-05T11:39:18.999Z</time></trkpt><trkpt lat="41.08166267461828" lon="14.542793504571268"><ele>268.5</ele><time>2026-04-05T11:39:19.999Z</time></trkpt><trkpt lat="41.08177293128162" lon="14.54275095781843"><ele>269.0</ele><time>2026-04-05T11:39:20.999Z</time></trkpt><trkpt lat="41.081885685619184" lon="14.542709449257757"><ele>268.0</ele><time>2026-04-05T11:39:21.999Z</time></trkpt><trkpt lat="41.08199888069621" lon="14.54267533086407"><ele>267.0</ele><time>2026-04-05T11:39:22.999Z</time></trkpt><trkpt lat="41.08211733691303" lon="14.542646014049478"><ele>266.0</ele><time>2026-04-05T11:39:23.999Z</time></trkpt><trkpt lat="41.082239882089084" lon="14.542620635909936"><ele>265.0</ele><time>2026-04-05T11:39:24.999Z</time></trkpt><trkpt lat="41.08235287771443" lon="14.542599898485236"><ele>264.6</ele><time>2026-04-05T11:39:25.999Z</time></trkpt><trkpt lat="41.082461280317794" lon="14.542580003989638"><ele>264.2</ele><time>2026-04-05T11:39:26.999Z</time></trkpt><trkpt lat="41.082557158902695" lon="14.542539797398192"><ele>263.8</ele><time>2026-04-05T11:39:27.999Z</time></trkpt><trkpt lat="41.082653032897724" lon="14.542521652971304"><ele>263.4</ele><time>2026-04-05T11:39:28.999Z</time></trkpt><trkpt lat="41.08274735419919" lon="14.542499819726267"><ele>263.0</ele><time>2026-04-05T11:39:29.999Z</time></trkpt><trkpt lat="41.082835450422664" lon="14.542489471414212"><ele>263.0</ele><time>2026-04-05T11:39:30.999Z</time></trkpt><trkpt lat="41.08291617392066" lon="14.542493103553129"><ele>263.0</ele><time>2026-04-05T11:39:31.999Z</time></trkpt><trkpt lat="41.083031024195854" lon="14.542666077941496"><ele>263.0</ele><time>2026-04-05T11:39:33.999Z</time></trkpt><trkpt lat="41.08303777217035" lon="14.542787575504015"><ele>263.0</ele><time>2026-04-05T11:39:34.999Z</time></trkpt><trkpt lat="41.08305987994478" lon="14.543057904038827"><ele>263.0</ele><time>2026-04-05T11:39:36.999Z</time></trkpt><trkpt lat="41.08306532753028" lon="14.543202689332313"><ele>263.0</ele><time>2026-04-05T11:39:37.999Z</time></trkpt><trkpt lat="41.083067498094266" lon="14.543357972308012"><ele>263.0</ele><time>2026-04-05T11:39:38.999Z</time></trkpt><trkpt lat="41.08306842470319" lon="14.543511897594106"><ele>263.0</ele><time>2026-04-05T11:39:39.999Z</time></trkpt><trkpt lat="41.08307134214055" lon="14.543653145982333"><ele>263.0</ele><time>2026-04-05T11:39:40.999Z</time></trkpt><trkpt lat="41.083074740442235" lon="14.543806881641062"><ele>263.0</ele><time>2026-04-05T11:39:41.999Z</time></trkpt><trkpt lat="41.083078770102524" lon="14.543961909322094"><ele>263.0</ele><time>2026-04-05T11:39:42.999Z</time></trkpt><trkpt lat="41.08308038004" lon="14.544120115666239"><ele>263.0</ele><time>2026-04-05T11:39:43.999Z</time></trkpt><trkpt lat="41.08308615362472" lon="14.544284041654308"><ele>263.0</ele><time>2026-04-05T11:39:44.999Z</time></trkpt><trkpt lat="41.083091750196516" lon="14.544452501949626"><ele>263.0</ele><time>2026-04-05T11:39:45.999Z</time></trkpt><trkpt lat="41.08309764839201" lon="14.544624243240273"><ele>263.0</ele><time>2026-04-05T11:39:46.999Z</time></trkpt><trkpt lat="41.08309985412601" lon="14.544798359822021"><ele>263.0</ele><time>2026-04-05T11:39:47.999Z</time></trkpt><trkpt lat="41.08309261625466" lon="14.544988644564041"><ele>263.0</ele><time>2026-04-05T11:39:48.999Z</time></trkpt><trkpt lat="41.08307823185587" lon="14.545158399840366"><ele>263.0</ele><time>2026-04-05T11:39:49.999Z</time></trkpt><trkpt lat="41.08305832373499" lon="14.545333823089425"><ele>263.0</ele><time>2026-04-05T11:39:50.999Z</time></trkpt><trkpt lat="41.08302867231368" lon="14.545509349177346"><ele>263.0</ele><time>2026-04-05T11:39:51.999Z</time></trkpt><trkpt lat="41.082988734745605" lon="14.545669603882198"><ele>263.0</ele><time>2026-04-05T11:39:52.999Z</time></trkpt><trkpt lat="41.082949364339456" lon="14.545824615077754"><ele>262.6</ele><time>2026-04-05T11:39:53.999Z</time></trkpt><trkpt lat="41.08290640932292" lon="14.545971163684332"><ele>262.20000000000005</ele><time>2026-04-05T11:39:54.999Z</time></trkpt><trkpt lat="41.08286125125139" lon="14.546108742172754"><ele>261.8</ele><time>2026-04-05T11:39:55.999Z</time></trkpt><trkpt lat="41.08281110392827" lon="14.546237331613023"><ele>261.40000000000003</ele><time>2026-04-05T11:39:56.999Z</time></trkpt><trkpt lat="41.0827491307515" lon="14.546332832060266"><ele>261.0</ele><time>2026-04-05T11:39:57.999Z</time></trkpt><trkpt lat="41.0826922172494" lon="14.546407355642776"><ele>260.8333333333333</ele><time>2026-04-05T11:39:58.999Z</time></trkpt><trkpt lat="41.08266487202865" lon="14.54649538942"><ele>260.6666666666667</ele><time>2026-04-05T11:39:59.999Z</time></trkpt><trkpt lat="41.08267985657099" lon="14.546587072529755"><ele>260.5</ele><time>2026-04-05T11:40:00.999Z</time></trkpt><trkpt lat="41.08270875446846" lon="14.546680949280963"><ele>260.33333333333337</ele><time>2026-04-05T11:40:01.999Z</time></trkpt><trkpt lat="41.08280785584801" lon="14.546736206203722"><ele>260.1666666666667</ele><time>2026-04-05T11:40:02.999Z</time></trkpt><trkpt lat="41.082922167699884" lon="14.54670356541456"><ele>260.0</ele><time>2026-04-05T11:40:03.999Z</time></trkpt><trkpt lat="41.08301439485373" lon="14.546791225626052"><ele>260.0</ele><time>2026-04-05T11:40:04.999Z</time></trkpt><trkpt lat="41.08312110810014" lon="14.54682180399784"><ele>260.0</ele><time>2026-04-05T11:40:05.999Z</time></trkpt><trkpt lat="41.08322810621942" lon="14.546880438024202"><ele>260.0</ele><time>2026-04-05T11:40:06.999Z</time></trkpt><trkpt lat="41.083338514087586" lon="14.546935477360407"><ele>260.0</ele><time>2026-04-05T11:40:07.999Z</time></trkpt><trkpt lat="41.08345156949281" lon="14.54698041124487"><ele>259.5</ele><time>2026-04-05T11:40:08.999Z</time></trkpt><trkpt lat="41.08355408680179" lon="14.547051810949572"><ele>259.0</ele><time>2026-04-05T11:40:09.999Z</time></trkpt><trkpt lat="41.08366718306379" lon="14.547149863642888"><ele>258.5</ele><time>2026-04-05T11:40:10.999Z</time></trkpt><trkpt lat="41.08376923030442" lon="14.547272860072471"><ele>258.0</ele><time>2026-04-05T11:40:11.999Z</time></trkpt><trkpt lat="41.0838702075767" lon="14.547395719967042"><ele>258.0</ele><time>2026-04-05T11:40:13Z</time></trkpt><trkpt lat="41.08397675846047" lon="14.547515863689153"><ele>258.0</ele><time>2026-04-05T11:40:14Z</time></trkpt><trkpt lat="41.0840681970828" lon="14.54763186648684"><ele>258.0</ele><time>2026-04-05T11:40:15Z</time></trkpt><trkpt lat="41.084154766895686" lon="14.547750109278857"><ele>258.0</ele><time>2026-04-05T11:40:16Z</time></trkpt><trkpt lat="41.08424515551223" lon="14.54785772807947"><ele>255.75</ele><time>2026-04-05T11:40:17Z</time></trkpt><trkpt lat="41.08434074294547" lon="14.547941368645297"><ele>253.5</ele><time>2026-04-05T11:40:18Z</time></trkpt><trkpt lat="41.08446533383518" lon="14.547998536479593"><ele>251.25</ele><time>2026-04-05T11:40:19Z</time></trkpt><trkpt lat="41.0845947095163" lon="14.548021260951444"><ele>249.0</ele><time>2026-04-05T11:40:20Z</time></trkpt><trkpt lat="41.084732933621666" lon="14.548028876188866"><ele>249.0</ele><time>2026-04-05T11:40:21Z</time></trkpt><trkpt lat="41.08485621349641" lon="14.548045805906781"><ele>249.0</ele><time>2026-04-05T11:40:22Z</time></trkpt><trkpt lat="41.08498420868738" lon="14.548062151222513"><ele>249.0</ele><time>2026-04-05T11:40:23Z</time></trkpt><trkpt lat="41.08510785060335" lon="14.548074243046546"><ele>249.0</ele><time>2026-04-05T11:40:24Z</time></trkpt><trkpt lat="41.08523397171766" lon="14.54809248294099"><ele>247.5</ele><time>2026-04-05T11:40:25Z</time></trkpt><trkpt lat="41.08535704481282" lon="14.54812136726305"><ele>246.0</ele><time>2026-04-05T11:40:26Z</time></trkpt><trkpt lat="41.08547014319734" lon="14.548165889864991"><ele>244.5</ele><time>2026-04-05T11:40:27Z</time></trkpt><trkpt lat="41.08558263508631" lon="14.548232289159923"><ele>243.0</ele><time>2026-04-05T11:40:28Z</time></trkpt><trkpt lat="41.08568792231548" lon="14.548306297806619"><ele>242.2</ele><time>2026-04-05T11:40:29Z</time></trkpt><trkpt lat="41.08578307465585" lon="14.548370716931608"><ele>241.4</ele><time>2026-04-05T11:40:30Z</time></trkpt><trkpt lat="41.085871506105626" lon="14.548433411114116"><ele>240.59999999999997</ele><time>2026-04-05T11:40:31Z</time></trkpt><trkpt lat="41.08596383950021" lon="14.548498695960633"><ele>239.79999999999998</ele><time>2026-04-05T11:40:32Z</time></trkpt><trkpt lat="41.08604907265329" lon="14.548562215590275"><ele>239.0</ele><time>2026-04-05T11:40:33Z</time></trkpt><trkpt lat="41.08613053544138" lon="14.548624341195266"><ele>239.0</ele><time>2026-04-05T11:40:34Z</time></trkpt><trkpt lat="41.0862077337822" lon="14.548710474509308"><ele>238.99999999999997</ele><time>2026-04-05T11:40:35Z</time></trkpt><trkpt lat="41.086266398342666" lon="14.548826944152257"><ele>238.99999999999997</ele><time>2026-04-05T11:40:36Z</time></trkpt><trkpt lat="41.08631277369482" lon="14.548959138503712"><ele>239.0</ele><time>2026-04-05T11:40:37Z</time></trkpt><trkpt lat="41.08634594858617" lon="14.549094988435419"><ele>239.0</ele><time>2026-04-05T11:40:38Z</time></trkpt><trkpt lat="41.086368480836505" lon="14.549232262779036"><ele>239.0</ele><time>2026-04-05T11:40:39Z</time></trkpt><trkpt lat="41.0863787229157" lon="14.549371261815622"><ele>238.99999999999997</ele><time>2026-04-05T11:40:40Z</time></trkpt><trkpt lat="41.08637726085917" lon="14.549511524368052"><ele>238.99999999999997</ele><time>2026-04-05T11:40:41Z</time></trkpt><trkpt lat="41.08636247996954" lon="14.549650709595811"><ele>239.0</ele><time>2026-04-05T11:40:42Z</time></trkpt><trkpt lat="41.08633010263337" lon="14.54978851225816"><ele>239.0</ele><time>2026-04-05T11:40:43Z</time></trkpt><trkpt lat="41.08628988491856" lon="14.549927083624883"><ele>240.0</ele><time>2026-04-05T11:40:44Z</time></trkpt><trkpt lat="41.0862440608851" lon="14.550066786620485"><ele>241.0</ele><time>2026-04-05T11:40:45Z</time></trkpt><trkpt lat="41.08619455214529" lon="14.550207971831306"><ele>242.0</ele><time>2026-04-05T11:40:45.999Z</time></trkpt><trkpt lat="41.08615129540265" lon="14.550348132593982"><ele>243.0</ele><time>2026-04-05T11:40:46.999Z</time></trkpt><trkpt lat="41.086108214695834" lon="14.550493295872386"><ele>244.5</ele><time>2026-04-05T11:40:47.999Z</time></trkpt><trkpt lat="41.08606415487032" lon="14.550641754650703"><ele>246.0</ele><time>2026-04-05T11:40:48.999Z</time></trkpt><trkpt lat="41.08601978114141" lon="14.550791895202266"><ele>247.5</ele><time>2026-04-05T11:40:49.999Z</time></trkpt><trkpt lat="41.08597755852378" lon="14.550947498167238"><ele>249.0</ele><time>2026-04-05T11:40:50.999Z</time></trkpt><trkpt lat="41.085941549238186" lon="14.551108402293089"><ele>249.0</ele><time>2026-04-05T11:40:51.999Z</time></trkpt><trkpt lat="41.08591916515038" lon="14.551274343836281"><ele>249.0</ele><time>2026-04-05T11:40:52.999Z</time></trkpt><trkpt lat="41.08591675760292" lon="14.551447860307642"><ele>249.0</ele><time>2026-04-05T11:40:53.999Z</time></trkpt><trkpt lat="41.0859227328084" lon="14.551629183645575"><ele>249.0</ele><time>2026-04-05T11:40:54.999Z</time></trkpt><trkpt lat="41.08593121089702" lon="14.551815379164648"><ele>249.0</ele><time>2026-04-05T11:40:55.999Z</time></trkpt><trkpt lat="41.085943298975344" lon="14.552000681146572"><ele>249.0</ele><time>2026-04-05T11:40:56.999Z</time></trkpt><trkpt lat="41.085953240527616" lon="14.552189746709757"><ele>249.0</ele><time>2026-04-05T11:40:57.999Z</time></trkpt><trkpt lat="41.08595176863446" lon="14.552378359500732"><ele>249.0</ele><time>2026-04-05T11:40:58.999Z</time></trkpt><trkpt lat="41.08596497350217" lon="14.552568813551174"><ele>249.0</ele><time>2026-04-05T11:40:59.999Z</time></trkpt><trkpt lat="41.08597120192296" lon="14.552762647591747"><ele>249.0</ele><time>2026-04-05T11:41:00.999Z</time></trkpt><trkpt lat="41.08597889376978" lon="14.552958843258141"><ele>249.0</ele><time>2026-04-05T11:41:01.999Z</time></trkpt><trkpt lat="41.085980594891744" lon="14.553144129228592"><ele>249.0</ele><time>2026-04-05T11:41:02.999Z</time></trkpt><trkpt lat="41.0859840973744" lon="14.553326551856374"><ele>249.0</ele><time>2026-04-05T11:41:03.999Z</time></trkpt><trkpt lat="41.08599260155299" lon="14.553509993104484"><ele>249.0</ele><time>2026-04-05T11:41:04.999Z</time></trkpt><trkpt lat="41.086037303941296" lon="14.553672068170357"><ele>249.0</ele><time>2026-04-05T11:41:05.999Z</time></trkpt><trkpt lat="41.086114230875" lon="14.553832471129708"><ele>249.0</ele><time>2026-04-05T11:41:06.999Z</time></trkpt><trkpt lat="41.08620545133498" lon="14.553962686508427"><ele>249.25</ele><time>2026-04-05T11:41:07.999Z</time></trkpt><trkpt lat="41.08630404818932" lon="14.554097403265471"><ele>249.5</ele><time>2026-04-05T11:41:08.999Z</time></trkpt><trkpt lat="41.086421782640905" lon="14.554213700355954"><ele>249.75</ele><time>2026-04-05T11:41:09.999Z</time></trkpt><trkpt lat="41.0865329228323" lon="14.554324206621667"><ele>250.0</ele><time>2026-04-05T11:41:10.999Z</time></trkpt><trkpt lat="41.086640105800576" lon="14.55443654868556"><ele>251.5</ele><time>2026-04-05T11:41:11.999Z</time></trkpt><trkpt lat="41.08675007280372" lon="14.554552288472856"><ele>253.0</ele><time>2026-04-05T11:41:12.999Z</time></trkpt><trkpt lat="41.086863124272256" lon="14.554671274647148"><ele>254.5</ele><time>2026-04-05T11:41:13.999Z</time></trkpt><trkpt lat="41.086978710172616" lon="14.554791450417532"><ele>256.0</ele><time>2026-04-05T11:41:14.999Z</time></trkpt><trkpt lat="41.08710111829999" lon="14.55488997987924"><ele>256.0</ele><time>2026-04-05T11:41:15.999Z</time></trkpt><trkpt lat="41.08722305188274" lon="14.555003891404507"><ele>256.0</ele><time>2026-04-05T11:41:16.999Z</time></trkpt><trkpt lat="41.08734040242661" lon="14.555116076349478"><ele>256.0</ele><time>2026-04-05T11:41:17.999Z</time></trkpt><trkpt lat="41.08744371726437" lon="14.555216196646445"><ele>256.0</ele><time>2026-04-05T11:41:18.999Z</time></trkpt><trkpt lat="41.08754052353367" lon="14.555304954132755"><ele>258.0</ele><time>2026-04-05T11:41:19.999Z</time></trkpt><trkpt lat="41.08762676358987" lon="14.555376728803177"><ele>260.0</ele><time>2026-04-05T11:41:20.999Z</time></trkpt><trkpt lat="41.08768985531278" lon="14.555470564914621"><ele>262.0</ele><time>2026-04-05T11:41:21.999Z</time></trkpt><trkpt lat="41.08773965506473" lon="14.555528077251429"><ele>264.0</ele><time>2026-04-05T11:41:22.999Z</time></trkpt><trkpt lat="41.0877904598809" lon="14.55559781011466"><ele>266.0</ele><time>2026-04-05T11:41:25.999Z</time></trkpt><trkpt lat="41.08795343455436" lon="14.555491500331902"><ele>266.0</ele><time>2026-04-05T11:41:27.999Z</time></trkpt><trkpt lat="41.08802256632777" lon="14.555425435788909"><ele>266.0</ele><time>2026-04-05T11:41:28.999Z</time></trkpt><trkpt lat="41.08807869282563" lon="14.555368108520964"><ele>266.0</ele><time>2026-04-05T11:41:29.999Z</time></trkpt><trkpt lat="41.088157095665196" lon="14.555328532300184"><ele>266.0</ele><time>2026-04-05T11:41:30.999Z</time></trkpt><trkpt lat="41.088235106575155" lon="14.55526901859899"><ele>266.0</ele><time>2026-04-05T11:41:31.999Z</time></trkpt><trkpt lat="41.0883213550166" lon="14.55520873374757"><ele>266.0</ele><time>2026-04-05T11:41:32.999Z</time></trkpt><trkpt lat="41.088412626095376" lon="14.555147648566818"><ele>266.8</ele><time>2026-04-05T11:41:33.999Z</time></trkpt><trkpt lat="41.08850909431226" lon="14.555084822152361"><ele>267.6</ele><time>2026-04-05T11:41:34.999Z</time></trkpt><trkpt lat="41.08860959914062" lon="14.555020599410252"><ele>268.4</ele><time>2026-04-05T11:41:35.999Z</time></trkpt><trkpt lat="41.0887120176034" lon="14.554959648591828"><ele>269.2</ele><time>2026-04-05T11:41:36.999Z</time></trkpt><trkpt lat="41.088812275491165" lon="14.554876849571734"><ele>270.0</ele><time>2026-04-05T11:41:37.999Z</time></trkpt><trkpt lat="41.08892465253394" lon="14.554813793121289"><ele>270.0</ele><time>2026-04-05T11:41:38.999Z</time></trkpt><trkpt lat="41.089041286319436" lon="14.554760637892178"><ele>270.0</ele><time>2026-04-05T11:41:39.999Z</time></trkpt><trkpt lat="41.089154890485766" lon="14.554686627835636"><ele>270.0</ele><time>2026-04-05T11:41:40.999Z</time></trkpt><trkpt lat="41.08926975767999" lon="14.554618446547522"><ele>270.0</ele><time>2026-04-05T11:41:41.999Z</time></trkpt><trkpt lat="41.089391685440205" lon="14.554569581739637"><ele>270.5</ele><time>2026-04-05T11:41:42.999Z</time></trkpt><trkpt lat="41.08950965753883" lon="14.554501567709917"><ele>271.0</ele><time>2026-04-05T11:41:43.999Z</time></trkpt><trkpt lat="41.089632154025374" lon="14.554428240625269"><ele>271.5</ele><time>2026-04-05T11:41:44.999Z</time></trkpt><trkpt lat="41.0897535190662" lon="14.55434424998457"><ele>272.0</ele><time>2026-04-05T11:41:45.999Z</time></trkpt><trkpt lat="41.08986633831089" lon="14.554251516208792"><ele>273.75</ele><time>2026-04-05T11:41:46.999Z</time></trkpt><trkpt lat="41.08996212651823" lon="14.554131354473089"><ele>275.5</ele><time>2026-04-05T11:41:47.999Z</time></trkpt><trkpt lat="41.09007042312087" lon="14.55403024795837"><ele>277.25</ele><time>2026-04-05T11:41:48.999Z</time></trkpt><trkpt lat="41.090160070651066" lon="14.553911187750268"><ele>279.0</ele><time>2026-04-05T11:41:49.999Z</time></trkpt><trkpt lat="41.090247090532976" lon="14.553791516486493"><ele>279.5</ele><time>2026-04-05T11:41:50.999Z</time></trkpt><trkpt lat="41.09032382504037" lon="14.553654145459298"><ele>280.0</ele><time>2026-04-05T11:41:51.999Z</time></trkpt><trkpt lat="41.09041319510963" lon="14.55353393992659"><ele>280.5</ele><time>2026-04-05T11:41:52.999Z</time></trkpt><trkpt lat="41.090500204037255" lon="14.553411340931849"><ele>281.0</ele><time>2026-04-05T11:41:53.999Z</time></trkpt><trkpt lat="41.090587224134126" lon="14.55328749957907"><ele>281.0</ele><time>2026-04-05T11:41:54.999Z</time></trkpt><trkpt lat="41.09067022897182" lon="14.553156623999886"><ele>281.0</ele><time>2026-04-05T11:41:55.999Z</time></trkpt><trkpt lat="41.09074977866363" lon="14.553025907811811"><ele>281.0</ele><time>2026-04-05T11:41:56.999Z</time></trkpt><trkpt lat="41.090817623357204" lon="14.552922276132794"><ele>281.0</ele><time>2026-04-05T11:41:57.999Z</time></trkpt><trkpt lat="41.090879494239694" lon="14.552827634005066"><ele>282.6</ele><time>2026-04-05T11:41:58.999Z</time></trkpt><trkpt lat="41.090941375277545" lon="14.552754448279702"><ele>284.20000000000005</ele><time>2026-04-05T11:41:59.999Z</time></trkpt><trkpt lat="41.09098188346121" lon="14.552661739156724"><ele>285.79999999999995</ele><time>2026-04-05T11:42:00.999Z</time></trkpt><trkpt lat="41.09109309474859" lon="14.552639146557688"><ele>287.4</ele><time>2026-04-05T11:42:01.999Z</time></trkpt><trkpt lat="41.09113491735024" lon="14.552534660267579"><ele>289.0</ele><time>2026-04-05T11:42:02.999Z</time></trkpt><trkpt lat="41.09119356880914" lon="14.552446890336814"><ele>289.0</ele><time>2026-04-05T11:42:03.999Z</time></trkpt><trkpt lat="41.09126234507545" lon="14.552366747244612"><ele>289.0</ele><time>2026-04-05T11:42:04.999Z</time></trkpt><trkpt lat="41.0913412339248" lon="14.552301880409226"><ele>289.0</ele><time>2026-04-05T11:42:05.999Z</time></trkpt><trkpt lat="41.09143261231506" lon="14.552265537450284"><ele>289.0</ele><time>2026-04-05T11:42:06.999Z</time></trkpt><trkpt lat="41.091528994210094" lon="14.552278761948223"><ele>289.0</ele><time>2026-04-05T11:42:07.999Z</time></trkpt><trkpt lat="41.09161567959504" lon="14.552335411794864"><ele>291.0</ele><time>2026-04-05T11:42:08.999Z</time></trkpt><trkpt lat="41.091720110816375" lon="14.552395686144385"><ele>293.0</ele><time>2026-04-05T11:42:09.999Z</time></trkpt><trkpt lat="41.09183327969307" lon="14.552446441773426"><ele>295.0</ele><time>2026-04-05T11:42:10.999Z</time></trkpt><trkpt lat="41.09193543436753" lon="14.552512120747368"><ele>297.0</ele><time>2026-04-05T11:42:11.999Z</time></trkpt><trkpt lat="41.09204125333939" lon="14.55257233204126"><ele>297.0</ele><time>2026-04-05T11:42:12.999Z</time></trkpt><trkpt lat="41.09214402940199" lon="14.552641007084278"><ele>297.0</ele><time>2026-04-05T11:42:13.998Z</time></trkpt><trkpt lat="41.09224104839366" lon="14.552736199937138"><ele>297.0</ele><time>2026-04-05T11:42:14.998Z</time></trkpt><trkpt lat="41.09233429081265" lon="14.552840874101625"><ele>297.0</ele><time>2026-04-05T11:42:15.998Z</time></trkpt><trkpt lat="41.092425385525274" lon="14.552943160675303"><ele>301.5</ele><time>2026-04-05T11:42:16.998Z</time></trkpt><trkpt lat="41.09252000033267" lon="14.55304891753689"><ele>306.0</ele><time>2026-04-05T11:42:17.998Z</time></trkpt><trkpt lat="41.09262347425898" lon="14.5531388076328"><ele>310.5</ele><time>2026-04-05T11:42:18.999Z</time></trkpt><trkpt lat="41.092728014800976" lon="14.553214973950658"><ele>315.0</ele><time>2026-04-05T11:42:19.999Z</time></trkpt><trkpt lat="41.09283705671408" lon="14.553276333295617"><ele>315.0</ele><time>2026-04-05T11:42:20.999Z</time></trkpt><trkpt lat="41.092945620998776" lon="14.553342945440795"><ele>315.0</ele><time>2026-04-05T11:42:21.999Z</time></trkpt><trkpt lat="41.09306795797924" lon="14.553382328215093"><ele>315.0</ele><time>2026-04-05T11:42:22.999Z</time></trkpt><trkpt lat="41.0931937206145" lon="14.553408977374028"><ele>315.0</ele><time>2026-04-05T11:42:23.999Z</time></trkpt><trkpt lat="41.09331848415971" lon="14.5534578330933"><ele>317.4</ele><time>2026-04-05T11:42:24.999Z</time></trkpt><trkpt lat="41.09344319251622" lon="14.553489800645403"><ele>319.8</ele><time>2026-04-05T11:42:25.999Z</time></trkpt><trkpt lat="41.093565327822766" lon="14.55350018581302"><ele>322.20000000000005</ele><time>2026-04-05T11:42:26.999Z</time></trkpt><trkpt lat="41.09366589946083" lon="14.553509739898287"><ele>324.6</ele><time>2026-04-05T11:42:27.999Z</time></trkpt><trkpt lat="41.09375593892655" lon="14.553542425083817"><ele>327.0</ele><time>2026-04-05T11:42:28.999Z</time></trkpt><trkpt lat="41.09383326566381" lon="14.553615681374076"><ele>327.0</ele><time>2026-04-05T11:42:29.999Z</time></trkpt><trkpt lat="41.09392445519762" lon="14.553677396105932"><ele>327.0</ele><time>2026-04-05T11:42:30.999Z</time></trkpt><trkpt lat="41.09400206966033" lon="14.5537749439819"><ele>327.0</ele><time>2026-04-05T11:42:31.999Z</time></trkpt><trkpt lat="41.09408144770742" lon="14.55386881988552"><ele>327.0</ele><time>2026-04-05T11:42:32.999Z</time></trkpt><trkpt lat="41.09416726160123" lon="14.553949478778545"><ele>327.0</ele><time>2026-04-05T11:42:33.999Z</time></trkpt><trkpt lat="41.09425399582486" lon="14.5540221917864"><ele>331.0</ele><time>2026-04-05T11:42:34.999Z</time></trkpt><trkpt lat="41.09434716439625" lon="14.554095117343529"><ele>335.0</ele><time>2026-04-05T11:42:35.999Z</time></trkpt><trkpt lat="41.09444432016819" lon="14.554165951199648"><ele>339.0</ele><time>2026-04-05T11:42:36.999Z</time></trkpt><trkpt lat="41.09455155284978" lon="14.55423280926226"><ele>343.0</ele><time>2026-04-05T11:42:37.999Z</time></trkpt><trkpt lat="41.09464822284301" lon="14.554313221048659"><ele>343.0</ele><time>2026-04-05T11:42:38.999Z</time></trkpt><trkpt lat="41.09474275986266" lon="14.554421185203818"><ele>343.0</ele><time>2026-04-05T11:42:39.999Z</time></trkpt><trkpt lat="41.094844332341225" lon="14.554538177679731"><ele>343.0</ele><time>2026-04-05T11:42:40.999Z</time></trkpt><trkpt lat="41.0949393579654" lon="14.55465068098288"><ele>343.0</ele><time>2026-04-05T11:42:41.999Z</time></trkpt><trkpt lat="41.09501139360088" lon="14.55477119685652"><ele>346.59999999999997</ele><time>2026-04-05T11:42:42.999Z</time></trkpt><trkpt lat="41.09506863231741" lon="14.554867884648244"><ele>350.2</ele><time>2026-04-05T11:42:43.999Z</time></trkpt><trkpt lat="41.095110199519084" lon="14.554975822640554"><ele>353.8</ele><time>2026-04-05T11:42:44.999Z</time></trkpt><trkpt lat="41.09514747579669" lon="14.555072778452235"><ele>357.4</ele><time>2026-04-05T11:42:45.999Z</time></trkpt><trkpt lat="41.09517744178756" lon="14.555157628606693"><ele>361.0</ele><time>2026-04-05T11:42:46.999Z</time></trkpt><trkpt lat="41.09528100730768" lon="14.555223208147648"><ele>361.0</ele><time>2026-04-05T11:42:48.999Z</time></trkpt><trkpt lat="41.09534659333976" lon="14.555164678852446"><ele>361.0</ele><time>2026-04-05T11:42:49.999Z</time></trkpt><trkpt lat="41.09532123766184" lon="14.555035834289072"><ele>361.0</ele><time>2026-04-05T11:42:50.999Z</time></trkpt><trkpt lat="41.095349593814255" lon="14.55491489907945"><ele>361.0</ele><time>2026-04-05T11:42:52.999Z</time></trkpt><trkpt lat="41.09542417008532" lon="14.554953046154111"><ele>361.0</ele><time>2026-04-05T11:42:53.999Z</time></trkpt><trkpt lat="41.09553462197171" lon="14.555018592707011"><ele>361.0</ele><time>2026-04-05T11:42:55.999Z</time></trkpt><trkpt lat="41.09559938580524" lon="14.5550148801762"><ele>361.0</ele><time>2026-04-05T11:42:56.999Z</time></trkpt><trkpt lat="41.095677367667534" lon="14.555043970378382"><ele>361.0</ele><time>2026-04-05T11:42:57.999Z</time></trkpt><trkpt lat="41.09575178307448" lon="14.555097039106764"><ele>361.0</ele><time>2026-04-05T11:42:58.999Z</time></trkpt><trkpt lat="41.095837009892186" lon="14.55513836302078"><ele>361.0</ele><time>2026-04-05T11:42:59.999Z</time></trkpt><trkpt lat="41.095890822148135" lon="14.55523653786033"><ele>361.0</ele><time>2026-04-05T11:43:00.999Z</time></trkpt><trkpt lat="41.09595529662978" lon="14.555335450114626"><ele>364.8333333333333</ele><time>2026-04-05T11:43:01.999Z</time></trkpt><trkpt lat="41.09601801660911" lon="14.55543197797206"><ele>368.66666666666663</ele><time>2026-04-05T11:43:02.999Z</time></trkpt><trkpt lat="41.09608548491344" lon="14.555515936521916"><ele>372.5</ele><time>2026-04-05T11:43:03.999Z</time></trkpt><trkpt lat="41.096147097020385" lon="14.55558964797948"><ele>376.3333333333333</ele><time>2026-04-05T11:43:04.999Z</time></trkpt><trkpt lat="41.096207630981255" lon="14.555653597632407"><ele>380.1666666666667</ele><time>2026-04-05T11:43:05.999Z</time></trkpt><trkpt lat="41.09627877125525" lon="14.555661657558066"><ele>384.0</ele><time>2026-04-05T11:43:06.999Z</time></trkpt><trkpt lat="41.09634298142618" lon="14.555679659631931"><ele>384.0</ele><time>2026-04-05T11:43:08.999Z</time></trkpt><trkpt lat="41.096382856324006" lon="14.555467404619126"><ele>384.0</ele><time>2026-04-05T11:43:12.999Z</time></trkpt><trkpt lat="41.09640513466104" lon="14.555378949720508"><ele>384.0</ele><time>2026-04-05T11:43:13.999Z</time></trkpt><trkpt lat="41.09642757596662" lon="14.555276385806547"><ele>384.0</ele><time>2026-04-05T11:43:14.999Z</time></trkpt><trkpt lat="41.096466011836064" lon="14.555179210321768"><ele>384.0</ele><time>2026-04-05T11:43:15.999Z</time></trkpt><trkpt lat="41.096503005580466" lon="14.555084637363203"><ele>385.0</ele><time>2026-04-05T11:43:16.999Z</time></trkpt><trkpt lat="41.09656799357945" lon="14.554993729840412"><ele>386.0</ele><time>2026-04-05T11:43:17.999Z</time></trkpt><trkpt lat="41.09665344685756" lon="14.554905711044796"><ele>387.0</ele><time>2026-04-05T11:43:18.999Z</time></trkpt><trkpt lat="41.096753254774754" lon="14.554873949111828"><ele>388.0</ele><time>2026-04-05T11:43:19.999Z</time></trkpt><trkpt lat="41.09683597457141" lon="14.55482094100069"><ele>389.0</ele><time>2026-04-05T11:43:20.999Z</time></trkpt><trkpt lat="41.096917915888795" lon="14.554761172416706"><ele>389.0</ele><time>2026-04-05T11:43:21.999Z</time></trkpt><trkpt lat="41.09699195175582" lon="14.55469758149937"><ele>389.0</ele><time>2026-04-05T11:43:22.999Z</time></trkpt><trkpt lat="41.09706365955808" lon="14.554613270340749"><ele>389.0</ele><time>2026-04-05T11:43:23.999Z</time></trkpt><trkpt lat="41.09712405656052" lon="14.554518989154818"><ele>389.0</ele><time>2026-04-05T11:43:24.999Z</time></trkpt><trkpt lat="41.09717584009609" lon="14.554418588531757"><ele>389.0</ele><time>2026-04-05T11:43:25.999Z</time></trkpt><trkpt lat="41.09722523943481" lon="14.554311083168813"><ele>389.6</ele><time>2026-04-05T11:43:26.999Z</time></trkpt><trkpt lat="41.09727377888786" lon="14.554196281894942"><ele>390.2</ele><time>2026-04-05T11:43:27.999Z</time></trkpt><trkpt lat="41.09732232209742" lon="14.554078108050705"><ele>390.8</ele><time>2026-04-05T11:43:28.999Z</time></trkpt><trkpt lat="41.09737312515931" lon="14.553953704491505"><ele>391.40000000000003</ele><time>2026-04-05T11:43:29.999Z</time></trkpt><trkpt lat="41.09743054821523" lon="14.553817145401556"><ele>392.0</ele><time>2026-04-05T11:43:30.999Z</time></trkpt><trkpt lat="41.09749162609297" lon="14.553686265030755"><ele>388.25</ele><time>2026-04-05T11:43:31.999Z</time></trkpt><trkpt lat="41.09756274803108" lon="14.553550865699862"><ele>384.5</ele><time>2026-04-05T11:43:32.999Z</time></trkpt><trkpt lat="41.09764184085134" lon="14.553412108082922"><ele>380.75</ele><time>2026-04-05T11:43:33.999Z</time></trkpt><trkpt lat="41.09772752457666" lon="14.553271947382804"><ele>377.0</ele><time>2026-04-05T11:43:34.999Z</time></trkpt><trkpt lat="41.09781753839797" lon="14.553129471867265"><ele>377.0</ele><time>2026-04-05T11:43:35.999Z</time></trkpt><trkpt lat="41.09790969712547" lon="14.552986798363865"><ele>377.0</ele><time>2026-04-05T11:43:36.999Z</time></trkpt><trkpt lat="41.0980015323316" lon="14.55283967992778"><ele>377.0</ele><time>2026-04-05T11:43:37.999Z</time></trkpt><trkpt lat="41.0981021915675" lon="14.552707864397659"><ele>377.0</ele><time>2026-04-05T11:43:38.999Z</time></trkpt><trkpt lat="41.09820864241778" lon="14.552582682840455"><ele>377.5</ele><time>2026-04-05T11:43:39.999Z</time></trkpt><trkpt lat="41.098308626795856" lon="14.55246104820472"><ele>378.0</ele><time>2026-04-05T11:43:40.999Z</time></trkpt><trkpt lat="41.09838864735034" lon="14.552314747225237"><ele>378.5</ele><time>2026-04-05T11:43:41.999Z</time></trkpt><trkpt lat="41.098464790763366" lon="14.552167481587489"><ele>379.0</ele><time>2026-04-05T11:43:42.999Z</time></trkpt><trkpt lat="41.098549094940346" lon="14.552038184047351"><ele>375.75</ele><time>2026-04-05T11:43:43.999Z</time></trkpt><trkpt lat="41.09863335774566" lon="14.551893823965383"><ele>372.5</ele><time>2026-04-05T11:43:44.999Z</time></trkpt><trkpt lat="41.09871816424483" lon="14.551748095669035"><ele>369.25</ele><time>2026-04-05T11:43:45.999Z</time></trkpt><trkpt lat="41.0987901159398" lon="14.551589511253253"><ele>366.0</ele><time>2026-04-05T11:43:46.999Z</time></trkpt><trkpt lat="41.09887456260849" lon="14.551469539762154"><ele>366.0</ele><time>2026-04-05T11:43:47.999Z</time></trkpt><trkpt lat="41.09895034474953" lon="14.551332825322524"><ele>366.0</ele><time>2026-04-05T11:43:48.999Z</time></trkpt><trkpt lat="41.099019673580344" lon="14.551185134843857"><ele>366.0</ele><time>2026-04-05T11:43:49.999Z</time></trkpt><trkpt lat="41.099083492430836" lon="14.551022342053937"><ele>366.0</ele><time>2026-04-05T11:43:50.999Z</time></trkpt><trkpt lat="41.09915601223931" lon="14.550856790054734"><ele>367.25</ele><time>2026-04-05T11:43:51.999Z</time></trkpt><trkpt lat="41.09921613535689" lon="14.550676394293394"><ele>368.5</ele><time>2026-04-05T11:43:52.999Z</time></trkpt><trkpt lat="41.09926589028847" lon="14.550508465433929"><ele>369.75</ele><time>2026-04-05T11:43:53.999Z</time></trkpt><trkpt lat="41.099304141166655" lon="14.550336745561559"><ele>371.0</ele><time>2026-04-05T11:43:54.999Z</time></trkpt><trkpt lat="41.099360390623225" lon="14.550178365589575"><ele>367.5</ele><time>2026-04-05T11:43:55.999Z</time></trkpt><trkpt lat="41.09942154699737" lon="14.55001244469818"><ele>364.0</ele><time>2026-04-05T11:43:56.999Z</time></trkpt><trkpt lat="41.099508774161684" lon="14.54986084417335"><ele>360.5</ele><time>2026-04-05T11:43:57.999Z</time></trkpt><trkpt lat="41.099592973187626" lon="14.549699450374002"><ele>357.0</ele><time>2026-04-05T11:43:58.999Z</time></trkpt><trkpt lat="41.099680407829084" lon="14.549538290437047"><ele>358.5</ele><time>2026-04-05T11:43:59.999Z</time></trkpt><trkpt lat="41.09977403868362" lon="14.54938250233876"><ele>360.0</ele><time>2026-04-05T11:44:00.999Z</time></trkpt><trkpt lat="41.099867234243185" lon="14.549233896484264"><ele>361.5</ele><time>2026-04-05T11:44:01.999Z</time></trkpt><trkpt lat="41.099954967117284" lon="14.549075623364487"><ele>363.0</ele><time>2026-04-05T11:44:02.999Z</time></trkpt><trkpt lat="41.100043121392694" lon="14.548916589969506"><ele>363.0</ele><time>2026-04-05T11:44:03.999Z</time></trkpt><trkpt lat="41.10012958284452" lon="14.548762173960345"><ele>363.0</ele><time>2026-04-05T11:44:04.999Z</time></trkpt><trkpt lat="41.10020576610404" lon="14.548620573669304"><ele>363.0</ele><time>2026-04-05T11:44:05.999Z</time></trkpt><trkpt lat="41.10026825933504" lon="14.548461015423454"><ele>363.0</ele><time>2026-04-05T11:44:06.999Z</time></trkpt><trkpt lat="41.1003568061498" lon="14.548322854239967"><ele>359.75</ele><time>2026-04-05T11:44:07.999Z</time></trkpt><trkpt lat="41.100438402624015" lon="14.54818348828664"><ele>356.5</ele><time>2026-04-05T11:44:08.999Z</time></trkpt><trkpt lat="41.1005133697048" lon="14.548055445152292"><ele>353.25</ele><time>2026-04-05T11:44:09.999Z</time></trkpt><trkpt lat="41.100570358819645" lon="14.547945643646777"><ele>350.0</ele><time>2026-04-05T11:44:10.999Z</time></trkpt><trkpt lat="41.10063428502872" lon="14.547847445380368"><ele>348.2</ele><time>2026-04-05T11:44:11.999Z</time></trkpt><trkpt lat="41.10069115933291" lon="14.547721513473288"><ele>346.4</ele><time>2026-04-05T11:44:12.999Z</time></trkpt><trkpt lat="41.10076353491399" lon="14.547612337797739"><ele>344.6</ele><time>2026-04-05T11:44:13.999Z</time></trkpt><trkpt lat="41.10081899626443" lon="14.547502301216943"><ele>342.8</ele><time>2026-04-05T11:44:14.999Z</time></trkpt><trkpt lat="41.100871894826234" lon="14.547381536489576"><ele>341.0</ele><time>2026-04-05T11:44:15.999Z</time></trkpt><trkpt lat="41.100927171144534" lon="14.547241540709202"><ele>344.25</ele><time>2026-04-05T11:44:16.999Z</time></trkpt><trkpt lat="41.10098045180289" lon="14.547101005056742"><ele>347.5</ele><time>2026-04-05T11:44:17.999Z</time></trkpt><trkpt lat="41.10103337940028" lon="14.546964624194967"><ele>350.75</ele><time>2026-04-05T11:44:18.999Z</time></trkpt><trkpt lat="41.101097687998895" lon="14.546825181026167"><ele>354.0</ele><time>2026-04-05T11:44:19.999Z</time></trkpt><trkpt lat="41.10117145564518" lon="14.546690422315939"><ele>354.0</ele><time>2026-04-05T11:44:20.999Z</time></trkpt><trkpt lat="41.10125336857378" lon="14.54656976824993"><ele>354.0</ele><time>2026-04-05T11:44:21.999Z</time></trkpt><trkpt lat="41.101331949598695" lon="14.546466251948766"><ele>354.0</ele><time>2026-04-05T11:44:22.999Z</time></trkpt><trkpt lat="41.101413642167515" lon="14.546366404603463"><ele>354.0</ele><time>2026-04-05T11:44:23.999Z</time></trkpt><trkpt lat="41.101493836314766" lon="14.546273071491978"><ele>353.0</ele><time>2026-04-05T11:44:25Z</time></trkpt><trkpt lat="41.10157005925989" lon="14.546181530410118"><ele>352.0</ele><time>2026-04-05T11:44:26Z</time></trkpt><trkpt lat="41.101633386660986" lon="14.546080122140463"><ele>351.0</ele><time>2026-04-05T11:44:27Z</time></trkpt><trkpt lat="41.101712744049664" lon="14.546013194764008"><ele>350.0</ele><time>2026-04-05T11:44:28Z</time></trkpt><trkpt lat="41.10178217732276" lon="14.545947236697844"><ele>349.0</ele><time>2026-04-05T11:44:29Z</time></trkpt><trkpt lat="41.10185042052159" lon="14.545878322615838"><ele>350.79999999999995</ele><time>2026-04-05T11:44:30Z</time></trkpt><trkpt lat="41.10193900871369" lon="14.545774160843072"><ele>352.59999999999997</ele><time>2026-04-05T11:44:31Z</time></trkpt><trkpt lat="41.10198418561968" lon="14.545680111636264"><ele>354.4</ele><time>2026-04-05T11:44:32Z</time></trkpt><trkpt lat="41.102028936273285" lon="14.545576919931943"><ele>356.2</ele><time>2026-04-05T11:44:34Z</time></trkpt><trkpt lat="41.10202974820706" lon="14.545486604916647"><ele>358.0</ele><time>2026-04-05T11:44:50Z</time></trkpt><trkpt lat="41.10199714459598" lon="14.545357829622205"><ele>358.0</ele><time>2026-04-05T11:44:52Z</time></trkpt><trkpt lat="41.10198127763464" lon="14.545231215744657"><ele>358.0</ele><time>2026-04-05T11:44:53Z</time></trkpt><trkpt lat="41.101939963428464" lon="14.54508984467339"><ele>358.0</ele><time>2026-04-05T11:44:54Z</time></trkpt><trkpt lat="41.10188289353887" lon="14.544942166688292"><ele>358.0</ele><time>2026-04-05T11:44:55Z</time></trkpt><trkpt lat="41.101851427758106" lon="14.544794866391882"><ele>358.0</ele><time>2026-04-05T11:44:56Z</time></trkpt><trkpt lat="41.10182415828364" lon="14.5446573831792"><ele>358.0</ele><time>2026-04-05T11:44:57Z</time></trkpt><trkpt lat="41.101799689502016" lon="14.544528063959188"><ele>358.0</ele><time>2026-04-05T11:44:58Z</time></trkpt><trkpt lat="41.10177836029504" lon="14.544427207212808"><ele>358.0</ele><time>2026-04-05T11:44:59Z</time></trkpt><trkpt lat="41.101767726289445" lon="14.544342746381293"><ele>358.0</ele><time>2026-04-05T11:45:00Z</time></trkpt><trkpt lat="41.10177385423273" lon="14.54425900163027"><ele>358.0</ele><time>2026-04-05T11:45:03Z</time></trkpt><trkpt lat="41.10189323634477" lon="14.54429410704388"><ele>356.79999999999995</ele><time>2026-04-05T11:45:04Z</time></trkpt><trkpt lat="41.10196947282322" lon="14.544298261273838"><ele>355.6</ele><time>2026-04-05T11:45:05Z</time></trkpt><trkpt lat="41.102075743992486" lon="14.544277416511514"><ele>354.4</ele><time>2026-04-05T11:45:07Z</time></trkpt><trkpt lat="41.102140011520504" lon="14.544169675887293"><ele>353.20000000000005</ele><time>2026-04-05T11:45:08Z</time></trkpt><trkpt lat="41.10217907043142" lon="14.544054119078718"><ele>352.0</ele><time>2026-04-05T11:45:09Z</time></trkpt><trkpt lat="41.10218345225295" lon="14.54390699604525"><ele>352.0</ele><time>2026-04-05T11:45:10Z</time></trkpt><trkpt lat="41.10220824074902" lon="14.543727470665152"><ele>352.0</ele><time>2026-04-05T11:45:11Z</time></trkpt><trkpt lat="41.10223149950772" lon="14.543550140804577"><ele>352.0</ele><time>2026-04-05T11:45:12Z</time></trkpt><trkpt lat="41.10225717997484" lon="14.543362381616134"><ele>352.0</ele><time>2026-04-05T11:45:13Z</time></trkpt><trkpt lat="41.10227125589098" lon="14.543136110326627"><ele>349.75</ele><time>2026-04-05T11:45:14Z</time></trkpt><trkpt lat="41.10226977758374" lon="14.54292449683914"><ele>347.5</ele><time>2026-04-05T11:45:15Z</time></trkpt><trkpt lat="41.10225217073075" lon="14.54274315554385"><ele>345.25</ele><time>2026-04-05T11:45:16Z</time></trkpt><trkpt lat="41.10223244261626" lon="14.542570472113063"><ele>343.0</ele><time>2026-04-05T11:45:17Z</time></trkpt><trkpt lat="41.10220638517838" lon="14.54242002991187"><ele>341.4</ele><time>2026-04-05T11:45:18Z</time></trkpt><trkpt lat="41.10218116029844" lon="14.542269388525506"><ele>339.79999999999995</ele><time>2026-04-05T11:45:19Z</time></trkpt><trkpt lat="41.1021771392889" lon="14.542123993247273"><ele>338.2</ele><time>2026-04-05T11:45:20Z</time></trkpt><trkpt lat="41.10223695946251" lon="14.542013074434367"><ele>336.6</ele><time>2026-04-05T11:45:21Z</time></trkpt><trkpt lat="41.102297287962166" lon="14.541930696759005"><ele>335.0</ele><time>2026-04-05T11:45:22Z</time></trkpt><trkpt lat="41.10238674078484" lon="14.541877008536604"><ele>335.75</ele><time>2026-04-05T11:45:22.999Z</time></trkpt><trkpt lat="41.10250446025683" lon="14.541820025730146"><ele>336.5</ele><time>2026-04-05T11:45:23.999Z</time></trkpt><trkpt lat="41.102629855276405" lon="14.5417437382669"><ele>337.25</ele><time>2026-04-05T11:45:24.999Z</time></trkpt><trkpt lat="41.10274792913352" lon="14.541631217817752"><ele>338.0</ele><time>2026-04-05T11:45:25.999Z</time></trkpt><trkpt lat="41.10285293683895" lon="14.541514195303312"><ele>338.0</ele><time>2026-04-05T11:45:26.999Z</time></trkpt><trkpt lat="41.102968083571625" lon="14.54139310739135"><ele>338.0</ele><time>2026-04-05T11:45:27.999Z</time></trkpt><trkpt lat="41.10307387354819" lon="14.541296309451269"><ele>338.0</ele><time>2026-04-05T11:45:28.999Z</time></trkpt><trkpt lat="41.10317481636625" lon="14.541211223109931"><ele>338.0</ele><time>2026-04-05T11:45:29.999Z</time></trkpt><trkpt lat="41.10327020492018" lon="14.541127640963461"><ele>335.75</ele><time>2026-04-05T11:45:30.999Z</time></trkpt><trkpt lat="41.103353953356454" lon="14.541024560609223"><ele>333.5</ele><time>2026-04-05T11:45:31.999Z</time></trkpt><trkpt lat="41.1034321841627" lon="14.54091004527233"><ele>331.25</ele><time>2026-04-05T11:45:32.999Z</time></trkpt><trkpt lat="41.103507041753446" lon="14.54077087844312"><ele>329.0</ele><time>2026-04-05T11:45:33.999Z</time></trkpt><trkpt lat="41.10359685790995" lon="14.540654558521487"><ele>329.0</ele><time>2026-04-05T11:45:34.999Z</time></trkpt><trkpt lat="41.103686126054335" lon="14.540533567853679"><ele>329.0</ele><time>2026-04-05T11:45:35.999Z</time></trkpt><trkpt lat="41.10378104717205" lon="14.540414623341514"><ele>329.0</ele><time>2026-04-05T11:45:36.999Z</time></trkpt><trkpt lat="41.10387328218709" lon="14.540294093871687"><ele>329.0</ele><time>2026-04-05T11:45:37.999Z</time></trkpt><trkpt lat="41.103982919253596" lon="14.540198880129656"><ele>327.5</ele><time>2026-04-05T11:45:38.999Z</time></trkpt><trkpt lat="41.10408651101936" lon="14.540101565471558"><ele>326.0</ele><time>2026-04-05T11:45:39.999Z</time></trkpt><trkpt lat="41.104187359974624" lon="14.54001771907994"><ele>324.5</ele><time>2026-04-05T11:45:40.999Z</time></trkpt><trkpt lat="41.104287060616336" lon="14.539943057400157"><ele>323.0</ele><time>2026-04-05T11:45:41.999Z</time></trkpt><trkpt lat="41.1043822556643" lon="14.539863895626649"><ele>323.0</ele><time>2026-04-05T11:45:42.999Z</time></trkpt><trkpt lat="41.10447927559754" lon="14.539813438157182"><ele>323.0</ele><time>2026-04-05T11:45:43.999Z</time></trkpt><trkpt lat="41.10457357052959" lon="14.539790995182075"><ele>323.0</ele><time>2026-04-05T11:45:44.999Z</time></trkpt><trkpt lat="41.10464475203547" lon="14.539752358776521"><ele>323.0</ele><time>2026-04-05T11:45:45.999Z</time></trkpt><trkpt lat="41.104703947083074" lon="14.539670613811392"><ele>323.0</ele><time>2026-04-05T11:45:46.999Z</time></trkpt><trkpt lat="41.10473789177618" lon="14.539567722776422"><ele>323.0</ele><time>2026-04-05T11:45:47.999Z</time></trkpt><trkpt lat="41.10473910201807" lon="14.539432652636986"><ele>321.2</ele><time>2026-04-05T11:45:48.999Z</time></trkpt><trkpt lat="41.104713085237975" lon="14.539283040246044"><ele>319.4</ele><time>2026-04-05T11:45:49.999Z</time></trkpt><trkpt lat="41.10467675743944" lon="14.539139035333024"><ele>317.59999999999997</ele><time>2026-04-05T11:45:50.999Z</time></trkpt><trkpt lat="41.104635603905884" lon="14.539024641459456"><ele>315.79999999999995</ele><time>2026-04-05T11:45:51.999Z</time></trkpt><trkpt lat="41.104580196336464" lon="14.538958180034392"><ele>314.0</ele><time>2026-04-05T11:45:54.999Z</time></trkpt><trkpt lat="41.10451042384615" lon="14.538816580479564"><ele>314.0</ele><time>2026-04-05T11:45:56.999Z</time></trkpt><trkpt lat="41.104464830846176" lon="14.538730613541306"><ele>314.0</ele><time>2026-04-05T11:45:57.999Z</time></trkpt><trkpt lat="41.104420969468705" lon="14.538649121970264"><ele>314.0</ele><time>2026-04-05T11:45:58.999Z</time></trkpt><trkpt lat="41.10438482555431" lon="14.538550733344568"><ele>314.0</ele><time>2026-04-05T11:45:59.999Z</time></trkpt><trkpt lat="41.10436781997886" lon="14.53844354648877"><ele>314.0</ele><time>2026-04-05T11:46:00.999Z</time></trkpt><trkpt lat="41.10437154688755" lon="14.538347642554905"><ele>314.0</ele><time>2026-04-05T11:46:01.999Z</time></trkpt><trkpt lat="41.104405045613596" lon="14.53825842375062"><ele>312.8</ele><time>2026-04-05T11:46:02.999Z</time></trkpt><trkpt lat="41.10443446180312" lon="14.53815126808179"><ele>311.59999999999997</ele><time>2026-04-05T11:46:03.999Z</time></trkpt><trkpt lat="41.10445267699899" lon="14.538030930263767"><ele>310.4</ele><time>2026-04-05T11:46:04.999Z</time></trkpt><trkpt lat="41.10444115052067" lon="14.537905269114114"><ele>309.2</ele><time>2026-04-05T11:46:05.999Z</time></trkpt><trkpt lat="41.10444371719447" lon="14.537778101511611"><ele>308.0</ele><time>2026-04-05T11:46:06.999Z</time></trkpt><trkpt lat="41.104436017729" lon="14.537629707548021"><ele>306.8</ele><time>2026-04-05T11:46:07.999Z</time></trkpt><trkpt lat="41.10441854836127" lon="14.53747440361094"><ele>305.6</ele><time>2026-04-05T11:46:08.999Z</time></trkpt><trkpt lat="41.104399197037594" lon="14.53733058159011"><ele>304.4</ele><time>2026-04-05T11:46:09.999Z</time></trkpt><trkpt lat="41.10438726877251" lon="14.53719247579109"><ele>303.2</ele><time>2026-04-05T11:46:10.999Z</time></trkpt><trkpt lat="41.10437345273271" lon="14.537054893196956"><ele>302.0</ele><time>2026-04-05T11:46:11.999Z</time></trkpt><trkpt lat="41.104383070248446" lon="14.536923413224299"><ele>300.6</ele><time>2026-04-05T11:46:12.999Z</time></trkpt><trkpt lat="41.1043923785981" lon="14.536797151582103"><ele>299.2</ele><time>2026-04-05T11:46:13.999Z</time></trkpt><trkpt lat="41.10441104279845" lon="14.536667951297687"><ele>297.8</ele><time>2026-04-05T11:46:14.999Z</time></trkpt><trkpt lat="41.104439299361836" lon="14.536537765331346"><ele>296.4</ele><time>2026-04-05T11:46:15.999Z</time></trkpt><trkpt lat="41.104464720345995" lon="14.53640943111963"><ele>295.0</ele><time>2026-04-05T11:46:16.999Z</time></trkpt><trkpt lat="41.104487157069855" lon="14.53630915107662"><ele>293.0</ele><time>2026-04-05T11:46:17.999Z</time></trkpt><trkpt lat="41.104516185385485" lon="14.536219264045386"><ele>291.0</ele><time>2026-04-05T11:46:18.999Z</time></trkpt><trkpt lat="41.104538022720284" lon="14.5361277231493"><ele>289.0</ele><time>2026-04-05T11:46:19.999Z</time></trkpt><trkpt lat="41.10460342177879" lon="14.536070863816686"><ele>287.0</ele><time>2026-04-05T11:46:20.999Z</time></trkpt><trkpt lat="41.10463878472518" lon="14.535980416786263"><ele>285.0</ele><time>2026-04-05T11:46:21.999Z</time></trkpt><trkpt lat="41.1048866275488" lon="14.535975395787423"><ele>284.4</ele><time>2026-04-05T11:46:23.999Z</time></trkpt><trkpt lat="41.10498816473233" lon="14.535936826366932"><ele>283.8</ele><time>2026-04-05T11:46:24.999Z</time></trkpt><trkpt lat="41.10508187604764" lon="14.53591382906552"><ele>283.2</ele><time>2026-04-05T11:46:25.999Z</time></trkpt><trkpt lat="41.105162845605186" lon="14.53585826120524"><ele>282.6</ele><time>2026-04-05T11:46:26.999Z</time></trkpt><trkpt lat="41.105230193828596" lon="14.535784957041662"><ele>282.0</ele><time>2026-04-05T11:46:27.999Z</time></trkpt><trkpt lat="41.10526941761748" lon="14.535692398292028"><ele>282.0</ele><time>2026-04-05T11:46:28.999Z</time></trkpt><trkpt lat="41.10529009214526" lon="14.535590121762333"><ele>282.0</ele><time>2026-04-05T11:46:29.999Z</time></trkpt><trkpt lat="41.10530792802017" lon="14.535467570020543"><ele>282.0</ele><time>2026-04-05T11:46:31Z</time></trkpt><trkpt lat="41.10533667589848" lon="14.535362830516663"><ele>282.0</ele><time>2026-04-05T11:46:32Z</time></trkpt><trkpt lat="41.10537771183549" lon="14.535270887759593"><ele>282.0</ele><time>2026-04-05T11:46:33Z</time></trkpt><trkpt lat="41.10544631157517" lon="14.53518503184431"><ele>282.0</ele><time>2026-04-05T11:46:34Z</time></trkpt><trkpt lat="41.10552930085796" lon="14.535103707600511"><ele>282.25</ele><time>2026-04-05T11:46:35Z</time></trkpt><trkpt lat="41.10562366521237" lon="14.535020060073006"><ele>282.5</ele><time>2026-04-05T11:46:36Z</time></trkpt><trkpt lat="41.10573851335912" lon="14.534960486862587"><ele>282.75</ele><time>2026-04-05T11:46:37Z</time></trkpt><trkpt lat="41.10587698075069" lon="14.534881687580143"><ele>283.0</ele><time>2026-04-05T11:46:38Z</time></trkpt><trkpt lat="41.106058992442655" lon="14.534765200194208"><ele>283.0</ele><time>2026-04-05T11:46:39Z</time></trkpt><trkpt lat="41.10624908127239" lon="14.534654645094625"><ele>283.0</ele><time>2026-04-05T11:46:40Z</time></trkpt><trkpt lat="41.10645629265079" lon="14.534548004966299"><ele>283.0</ele><time>2026-04-05T11:46:41Z</time></trkpt><trkpt lat="41.106643362956014" lon="14.534446247193152"><ele>282.3333333333333</ele><time>2026-04-05T11:46:42Z</time></trkpt><trkpt lat="41.10680122309096" lon="14.534359008600878"><ele>281.6666666666667</ele><time>2026-04-05T11:46:43Z</time></trkpt><trkpt lat="41.10693369065651" lon="14.534299622956295"><ele>281.0</ele><time>2026-04-05T11:46:44Z</time></trkpt><trkpt lat="41.107324169938536" lon="14.53404234782306"><ele>279.33333333333337</ele><time>2026-04-05T11:46:45Z</time></trkpt><trkpt lat="41.10749115402088" lon="14.533909715560618"><ele>277.6666666666667</ele><time>2026-04-05T11:46:46Z</time></trkpt><trkpt lat="41.10763828715158" lon="14.533726955556494"><ele>276.0</ele><time>2026-04-05T11:46:47Z</time></trkpt><trkpt lat="41.107778718050795" lon="14.533507256147274"><ele>276.0</ele><time>2026-04-05T11:46:48Z</time></trkpt><trkpt lat="41.107903970913355" lon="14.533262521950206"><ele>276.0</ele><time>2026-04-05T11:46:49Z</time></trkpt><trkpt lat="41.10804432994509" lon="14.533019677212533"><ele>279.0</ele><time>2026-04-05T11:46:50Z</time></trkpt><trkpt lat="41.10819411277929" lon="14.532777370979037"><ele>282.0</ele><time>2026-04-05T11:46:51Z</time></trkpt><trkpt lat="41.108335725534346" lon="14.532552454106469"><ele>282.0</ele><time>2026-04-05T11:46:52Z</time></trkpt><trkpt lat="41.1084578531294" lon="14.532342827431584"><ele>282.0</ele><time>2026-04-05T11:46:53Z</time></trkpt><trkpt lat="41.10858763980009" lon="14.532165102717707"><ele>282.0</ele><time>2026-04-05T11:46:54Z</time></trkpt><trkpt lat="41.108750663959654" lon="14.532013689510654"><ele>282.5</ele><time>2026-04-05T11:46:55Z</time></trkpt><trkpt lat="41.108952269048636" lon="14.53189423591885"><ele>283.0</ele><time>2026-04-05T11:46:56Z</time></trkpt><trkpt lat="41.109186386717525" lon="14.531802215029428"><ele>283.0</ele><time>2026-04-05T11:46:57Z</time></trkpt><trkpt lat="41.109451680598866" lon="14.53174968297558"><ele>283.0</ele><time>2026-04-05T11:46:58Z</time></trkpt><trkpt lat="41.10969921918666" lon="14.531634139356377"><ele>287.0</ele><time>2026-04-05T11:46:59Z</time></trkpt><trkpt lat="41.10995021065658" lon="14.531515993755912"><ele>291.0</ele><time>2026-04-05T11:47:00Z</time></trkpt><trkpt lat="41.110210398640966" lon="14.531392426214408"><ele>291.0</ele><time>2026-04-05T11:47:01Z</time></trkpt><trkpt lat="41.11044416703232" lon="14.531279269005402"><ele>291.0</ele><time>2026-04-05T11:47:02Z</time></trkpt><trkpt lat="41.110658374194415" lon="14.53117456487997"><ele>287.0</ele><time>2026-04-05T11:47:03Z</time></trkpt><trkpt lat="41.11086391667383" lon="14.531076711251988"><ele>283.0</ele><time>2026-04-05T11:47:04Z</time></trkpt><trkpt lat="41.111052961883686" lon="14.53099328430208"><ele>279.0</ele><time>2026-04-05T11:47:05Z</time></trkpt><trkpt lat="41.111229531964945" lon="14.530916594959093"><ele>279.0</ele><time>2026-04-05T11:47:06Z</time></trkpt><trkpt lat="41.11137119439961" lon="14.530821419420702"><ele>279.0</ele><time>2026-04-05T11:47:07Z</time></trkpt><trkpt lat="41.11146976946634" lon="14.5307205522588"><ele>279.0</ele><time>2026-04-05T11:47:08Z</time></trkpt><trkpt lat="41.111567234917175" lon="14.530556764287919"><ele>279.0</ele><time>2026-04-05T11:47:09Z</time></trkpt><trkpt lat="41.111657121168854" lon="14.530338053596726"><ele>278.3333333333333</ele><time>2026-04-05T11:47:10Z</time></trkpt><trkpt lat="41.11175895553298" lon="14.530099913083427"><ele>277.66666666666663</ele><time>2026-04-05T11:47:11Z</time></trkpt><trkpt lat="41.11189340846206" lon="14.529895528548336"><ele>277.0</ele><time>2026-04-05T11:47:12Z</time></trkpt><trkpt lat="41.1120270818393" lon="14.529716142557142"><ele>276.0</ele><time>2026-04-05T11:47:13Z</time></trkpt><trkpt lat="41.11217244485688" lon="14.529551621650606"><ele>275.0</ele><time>2026-04-05T11:47:14Z</time></trkpt><trkpt lat="41.11232708842288" lon="14.529403837751797"><ele>274.0</ele><time>2026-04-05T11:47:15Z</time></trkpt><trkpt lat="41.11246867463306" lon="14.52930220384447"><ele>274.0</ele><time>2026-04-05T11:47:16Z</time></trkpt><trkpt lat="41.11260193344759" lon="14.529230840650909"><ele>274.0</ele><time>2026-04-05T11:47:17Z</time></trkpt><trkpt lat="41.11273706681081" lon="14.529225724442256"><ele>274.0</ele><time>2026-04-05T11:47:18Z</time></trkpt><trkpt lat="41.11289462433378" lon="14.529247365360755"><ele>274.0</ele><time>2026-04-05T11:47:19Z</time></trkpt><trkpt lat="41.1131008321485" lon="14.529305457578609"><ele>274.0</ele><time>2026-04-05T11:47:20Z</time></trkpt><trkpt lat="41.113303530836454" lon="14.529351066915096"><ele>274.0</ele><time>2026-04-05T11:47:21Z</time></trkpt><trkpt lat="41.113481258474856" lon="14.529348464936694"><ele>274.0</ele><time>2026-04-05T11:47:22Z</time></trkpt><trkpt lat="41.11365277463244" lon="14.529328423731053"><ele>274.0</ele><time>2026-04-05T11:47:23Z</time></trkpt><trkpt lat="41.11382109731819" lon="14.529280806490362"><ele>274.0</ele><time>2026-04-05T11:47:24Z</time></trkpt><trkpt lat="41.113974410220194" lon="14.529228887126324"><ele>274.0</ele><time>2026-04-05T11:47:25Z</time></trkpt><trkpt lat="41.114115543998295" lon="14.529210395895221"><ele>275.4</ele><time>2026-04-05T11:47:26Z</time></trkpt><trkpt lat="41.11424149068041" lon="14.529178917008851"><ele>276.79999999999995</ele><time>2026-04-05T11:47:27Z</time></trkpt><trkpt lat="41.114350206722335" lon="14.52914770976775"><ele>278.20000000000005</ele><time>2026-04-05T11:47:28Z</time></trkpt><trkpt lat="41.114429260389926" lon="14.529114726201643"><ele>279.6</ele><time>2026-04-05T11:47:29Z</time></trkpt><trkpt lat="41.1144817443021" lon="14.529047974039933"><ele>281.0</ele><time>2026-04-05T11:47:30Z</time></trkpt><trkpt lat="41.114471791086075" lon="14.528887670172452"><ele>281.0</ele><time>2026-04-05T11:47:31Z</time></trkpt><trkpt lat="41.114461736251656" lon="14.528733650734699"><ele>281.0</ele><time>2026-04-05T11:47:32Z</time></trkpt><trkpt lat="41.11444943673397" lon="14.528575417427673"><ele>281.0</ele><time>2026-04-05T11:47:33Z</time></trkpt><trkpt lat="41.114404229905205" lon="14.528431480219933"><ele>281.0</ele><time>2026-04-05T11:47:34Z</time></trkpt><trkpt lat="41.11432385078754" lon="14.528311353443742"><ele>279.75</ele><time>2026-04-05T11:47:35Z</time></trkpt><trkpt lat="41.11422427363193" lon="14.528182094553355"><ele>278.5</ele><time>2026-04-05T11:47:36Z</time></trkpt><trkpt lat="41.11413668169647" lon="14.528080593659993"><ele>277.25</ele><time>2026-04-05T11:47:37Z</time></trkpt><trkpt lat="41.11406215824279" lon="14.527969071166256"><ele>276.0</ele><time>2026-04-05T11:47:38Z</time></trkpt><trkpt lat="41.11402769791156" lon="14.527831740190713"><ele>276.6</ele><time>2026-04-05T11:47:39Z</time></trkpt><trkpt lat="41.114042536945426" lon="14.5276890910395"><ele>277.20000000000005</ele><time>2026-04-05T11:47:40Z</time></trkpt><trkpt lat="41.114107841843484" lon="14.52756075053924"><ele>277.79999999999995</ele><time>2026-04-05T11:47:41Z</time></trkpt><trkpt lat="41.11419086544816" lon="14.527483034735962"><ele>278.4</ele><time>2026-04-05T11:47:41.999Z</time></trkpt><trkpt lat="41.114239239934825" lon="14.527420551836004"><ele>279.0</ele><time>2026-04-05T11:47:42.999Z</time></trkpt><trkpt lat="41.11430589748994" lon="14.527384309842727"><ele>279.0</ele><time>2026-04-05T11:47:44.999Z</time></trkpt><trkpt lat="41.11436497013578" lon="14.527335341222145"><ele>279.0</ele><time>2026-04-05T11:47:45.999Z</time></trkpt><trkpt lat="41.11441903542677" lon="14.527265627864187"><ele>279.0</ele><time>2026-04-05T11:47:46.999Z</time></trkpt><trkpt lat="41.11447736366796" lon="14.527218701988843"><ele>279.0</ele><time>2026-04-05T11:47:48.999Z</time></trkpt><trkpt lat="41.114560923759065" lon="14.52712675497086"><ele>279.0</ele><time>2026-04-05T11:47:50.999Z</time></trkpt><trkpt lat="41.11460859130697" lon="14.527059701556231"><ele>279.0</ele><time>2026-04-05T11:47:51.999Z</time></trkpt><trkpt lat="41.11464033314529" lon="14.526983647276952"><ele>279.0</ele><time>2026-04-05T11:47:52.999Z</time></trkpt><trkpt lat="41.11490289899408" lon="14.52722623960378"><ele>279.0</ele><time>2026-04-05T11:47:53.999Z</time></trkpt><trkpt lat="41.1149799151616" lon="14.5271945382026"><ele>279.0</ele><time>2026-04-05T11:47:54.999Z</time></trkpt><trkpt lat="41.11504336791081" lon="14.527162888844277"><ele>281.0</ele><time>2026-04-05T11:47:55.999Z</time></trkpt><trkpt lat="41.115106331964036" lon="14.527126132207487"><ele>283.0</ele><time>2026-04-05T11:47:56.999Z</time></trkpt><trkpt lat="41.11516956405878" lon="14.527085859843861"><ele>285.0</ele><time>2026-04-05T11:47:57.999Z</time></trkpt><trkpt lat="41.11527905276348" lon="14.527035129124412"><ele>287.0</ele><time>2026-04-05T11:47:59.999Z</time></trkpt><trkpt lat="41.11534742494313" lon="14.527018095490622"><ele>289.0</ele><time>2026-04-05T11:48:00.999Z</time></trkpt><trkpt lat="41.11541501808998" lon="14.526987599411346"><ele>291.0</ele><time>2026-04-05T11:48:01.999Z</time></trkpt><trkpt lat="41.11547881831663" lon="14.526952444225978"><ele>291.0</ele><time>2026-04-05T11:48:02.999Z</time></trkpt><trkpt lat="41.1155542705478" lon="14.526919915093947"><ele>291.0</ele><time>2026-04-05T11:48:03.999Z</time></trkpt><trkpt lat="41.11561787252748" lon="14.526901827951347"><ele>291.0</ele><time>2026-04-05T11:48:04.999Z</time></trkpt><trkpt lat="41.11570260978938" lon="14.52688414363827"><ele>291.0</ele><time>2026-04-05T11:48:05.999Z</time></trkpt><trkpt lat="41.11577076779144" lon="14.52686588386693"><ele>291.0</ele><time>2026-04-05T11:48:06.999Z</time></trkpt><trkpt lat="41.11584562138639" lon="14.526841891031083"><ele>291.0</ele><time>2026-04-05T11:48:07.999Z</time></trkpt><trkpt lat="41.11592411352571" lon="14.526805757503048"><ele>294.5</ele><time>2026-04-05T11:48:08.999Z</time></trkpt><trkpt lat="41.11598738958252" lon="14.526776848538077"><ele>298.0</ele><time>2026-04-05T11:48:09.999Z</time></trkpt><trkpt lat="41.116059463070904" lon="14.526746476745378"><ele>301.5</ele><time>2026-04-05T11:48:10.999Z</time></trkpt><trkpt lat="41.11613461433654" lon="14.52671185803122"><ele>305.0</ele><time>2026-04-05T11:48:11.999Z</time></trkpt><trkpt lat="41.1162094474222" lon="14.526651163891605"><ele>308.5</ele><time>2026-04-05T11:48:12.999Z</time></trkpt><trkpt lat="41.11628314711851" lon="14.526595651373054"><ele>312.0</ele><time>2026-04-05T11:48:13.999Z</time></trkpt><trkpt lat="41.11636762545905" lon="14.526572981211782"><ele>312.0</ele><time>2026-04-05T11:48:14.999Z</time></trkpt><trkpt lat="41.11645397907398" lon="14.526556588324658"><ele>312.0</ele><time>2026-04-05T11:48:15.999Z</time></trkpt><trkpt lat="41.11654003415319" lon="14.526535158229402"><ele>312.0</ele><time>2026-04-05T11:48:16.999Z</time></trkpt><trkpt lat="41.11661539088401" lon="14.526526136380019"><ele>312.0</ele><time>2026-04-05T11:48:17.999Z</time></trkpt><trkpt lat="41.11669891267475" lon="14.526517839852529"><ele>312.0</ele><time>2026-04-05T11:48:18.999Z</time></trkpt><trkpt lat="41.116777213935656" lon="14.526493839598745"><ele>312.0</ele><time>2026-04-05T11:48:19.999Z</time></trkpt><trkpt lat="41.116856147651404" lon="14.526467146485167"><ele>315.0</ele><time>2026-04-05T11:48:20.999Z</time></trkpt><trkpt lat="41.116926091607695" lon="14.526428332763238"><ele>318.0</ele><time>2026-04-05T11:48:22.999Z</time></trkpt><trkpt lat="41.11703340638647" lon="14.526423423075107"><ele>321.0</ele><time>2026-04-05T11:48:30.999Z</time></trkpt><trkpt lat="41.117100829412664" lon="14.526389497248585"><ele>324.0</ele><time>2026-04-05T11:48:32.999Z</time></trkpt><trkpt lat="41.117186418001786" lon="14.526323604144668"><ele>327.0</ele><time>2026-04-05T11:48:34.999Z</time></trkpt><trkpt lat="41.11725460700678" lon="14.526247619552803"><ele>330.0</ele><time>2026-04-05T11:48:38.001Z</time></trkpt><trkpt lat="41.11720708716602" lon="14.526302511543674"><ele>330.0</ele><time>2026-04-05T11:49:21Z</time></trkpt><trkpt lat="41.11714526931287" lon="14.526353121790661"><ele>330.0</ele><time>2026-04-05T11:49:25Z</time></trkpt><trkpt lat="41.117080252575" lon="14.526401313234246"><ele>330.0</ele><time>2026-04-05T11:49:28Z</time></trkpt><trkpt lat="41.11699506535687" lon="14.526438885626344"><ele>330.0</ele><time>2026-04-05T11:49:30Z</time></trkpt><trkpt lat="41.116921074024496" lon="14.526460188056697"><ele>330.0</ele><time>2026-04-05T11:49:31Z</time></trkpt><trkpt lat="41.11683007408943" lon="14.526470695657126"><ele>330.0</ele><time>2026-04-05T11:49:32Z</time></trkpt><trkpt lat="41.11675823214618" lon="14.526499332891866"><ele>330.0</ele><time>2026-04-05T11:49:33Z</time></trkpt><trkpt lat="41.11667678924887" lon="14.526533297273536"><ele>330.0</ele><time>2026-04-05T11:49:34Z</time></trkpt><trkpt lat="41.116584788974585" lon="14.526567478461935"><ele>330.0</ele><time>2026-04-05T11:49:35Z</time></trkpt><trkpt lat="41.11650328287653" lon="14.526579619355328"><ele>330.0</ele><time>2026-04-05T11:49:36Z</time></trkpt><trkpt lat="41.11642080122668" lon="14.526587619625419"><ele>330.0</ele><time>2026-04-05T11:49:37Z</time></trkpt><trkpt lat="41.11633760684615" lon="14.526604286047952"><ele>330.0</ele><time>2026-04-05T11:49:38Z</time></trkpt><trkpt lat="41.11626127493873" lon="14.526632580899296"><ele>326.4</ele><time>2026-04-05T11:49:39Z</time></trkpt><trkpt lat="41.11615752528893" lon="14.526691970053628"><ele>322.8</ele><time>2026-04-05T11:49:41Z</time></trkpt><trkpt lat="41.116087126624976" lon="14.526741888142311"><ele>319.2</ele><time>2026-04-05T11:49:43Z</time></trkpt><trkpt lat="41.1160247691694" lon="14.526783574910215"><ele>315.6</ele><time>2026-04-05T11:49:45Z</time></trkpt><trkpt lat="41.11595179118111" lon="14.526815229210749"><ele>312.0</ele><time>2026-04-05T11:49:47Z</time></trkpt><trkpt lat="41.1158078810014" lon="14.526855800805905"><ele>307.8</ele><time>2026-04-05T11:50:09Z</time></trkpt><trkpt lat="41.11571220078581" lon="14.526900642092691"><ele>303.6</ele><time>2026-04-05T11:50:10.999Z</time></trkpt><trkpt lat="41.11564050415016" lon="14.52691726541896"><ele>299.40000000000003</ele><time>2026-04-05T11:50:11.999Z</time></trkpt><trkpt lat="41.11551691247865" lon="14.526950204848399"><ele>295.2</ele><time>2026-04-05T11:50:13.999Z</time></trkpt><trkpt lat="41.11544948233323" lon="14.526973191150159"><ele>291.0</ele><time>2026-04-05T11:50:14.999Z</time></trkpt><trkpt lat="41.1153344311796" lon="14.527032017567388"><ele>291.0</ele><time>2026-04-05T11:50:16.999Z</time></trkpt><trkpt lat="41.11526644991905" lon="14.527050395074522"><ele>291.0</ele><time>2026-04-05T11:50:17.999Z</time></trkpt><trkpt lat="41.115150741493345" lon="14.52710798166931"><ele>291.0</ele><time>2026-04-05T11:50:19.999Z</time></trkpt><trkpt lat="41.115090880127276" lon="14.527141140516825"><ele>291.0</ele><time>2026-04-05T11:50:20.999Z</time></trkpt><trkpt lat="41.11496747367832" lon="14.527210510946974"><ele>291.0</ele><time>2026-04-05T11:50:22.999Z</time></trkpt><trkpt lat="41.114903385419034" lon="14.527243212912422"><ele>289.0</ele><time>2026-04-05T11:50:23.999Z</time></trkpt><trkpt lat="41.114835524181736" lon="14.527271064362186"><ele>287.0</ele><time>2026-04-05T11:50:24.999Z</time></trkpt><trkpt lat="41.11477309908516" lon="14.527296117259052"><ele>285.0</ele><time>2026-04-05T11:50:25.999Z</time></trkpt><trkpt lat="41.11471246424581" lon="14.527320433691687"><ele>283.0</ele><time>2026-04-05T11:50:26.999Z</time></trkpt><trkpt lat="41.11463371599963" lon="14.52735546290326"><ele>281.0</ele><time>2026-04-05T11:50:28.999Z</time></trkpt><trkpt lat="41.11454421133752" lon="14.527386053806882"><ele>279.0</ele><time>2026-04-05T11:50:30.999Z</time></trkpt><trkpt lat="41.11442413981486" lon="14.527354840846128"><ele>279.0</ele><time>2026-04-05T11:50:32.999Z</time></trkpt><trkpt lat="41.11435213384268" lon="14.527387545277893"><ele>279.0</ele><time>2026-04-05T11:50:34.999Z</time></trkpt><trkpt lat="41.1142872553775" lon="14.527426038234182"><ele>279.0</ele><time>2026-04-05T11:50:35.999Z</time></trkpt><trkpt lat="41.11425291775682" lon="14.527355792196017"><ele>279.0</ele><time>2026-04-05T11:50:43.001Z</time></trkpt><trkpt lat="41.114295625380834" lon="14.527294260400442"><ele>279.0</ele><time>2026-04-05T11:50:44.001Z</time></trkpt><trkpt lat="41.1143784368096" lon="14.527208185727854"><ele>279.0</ele><time>2026-04-05T11:50:45.001Z</time></trkpt><trkpt lat="41.11445046247031" lon="14.527129619048319"><ele>274.6666666666667</ele><time>2026-04-05T11:50:46.001Z</time></trkpt><trkpt lat="41.11454633859311" lon="14.527009206186154"><ele>270.33333333333337</ele><time>2026-04-05T11:50:47.001Z</time></trkpt><trkpt lat="41.11466443571255" lon="14.526849732784799"><ele>266.0</ele><time>2026-04-05T11:50:48.001Z</time></trkpt><trkpt lat="41.11477699020453" lon="14.526705423069211"><ele>266.0</ele><time>2026-04-05T11:50:49.001Z</time></trkpt><trkpt lat="41.114902045594874" lon="14.526570749083595"><ele>266.0</ele><time>2026-04-05T11:50:50.001Z</time></trkpt><trkpt lat="41.11505524090028" lon="14.526445229605955"><ele>266.0</ele><time>2026-04-05T11:50:51.001Z</time></trkpt><trkpt lat="41.115221219011566" lon="14.526341834931328"><ele>266.6666666666667</ele><time>2026-04-05T11:50:52.001Z</time></trkpt><trkpt lat="41.11540762235295" lon="14.526256190286487"><ele>267.3333333333333</ele><time>2026-04-05T11:50:53.001Z</time></trkpt><trkpt lat="41.11559028977414" lon="14.526168230881346"><ele>268.0</ele><time>2026-04-05T11:50:54.001Z</time></trkpt><trkpt lat="41.11578637852408" lon="14.526103528138709"><ele>273.3333333333333</ele><time>2026-04-05T11:50:55.001Z</time></trkpt><trkpt lat="41.115977192022584" lon="14.526017842604837"><ele>278.6666666666667</ele><time>2026-04-05T11:50:56.001Z</time></trkpt><trkpt lat="41.11615569877617" lon="14.525914867145802"><ele>284.0</ele><time>2026-04-05T11:50:57.001Z</time></trkpt><trkpt lat="41.11633298439308" lon="14.525815779634843"><ele>284.0</ele><time>2026-04-05T11:50:58.001Z</time></trkpt><trkpt lat="41.116506336684736" lon="14.525690039739663"><ele>284.0</ele><time>2026-04-05T11:50:59Z</time></trkpt><trkpt lat="41.11667381762179" lon="14.525532733462374"><ele>284.0</ele><time>2026-04-05T11:51:00Z</time></trkpt><trkpt lat="41.116839618901395" lon="14.525399984960858"><ele>283.0</ele><time>2026-04-05T11:51:01Z</time></trkpt><trkpt lat="41.11699066575703" lon="14.525311460304968"><ele>282.0</ele><time>2026-04-05T11:51:02Z</time></trkpt><trkpt lat="41.117132536207315" lon="14.52522639697157"><ele>281.0</ele><time>2026-04-05T11:51:03Z</time></trkpt><trkpt lat="41.11725920654437" lon="14.52512022626869"><ele>281.0</ele><time>2026-04-05T11:51:04Z</time></trkpt><trkpt lat="41.11735798548282" lon="14.525000623271241"><ele>281.0</ele><time>2026-04-05T11:51:05Z</time></trkpt><trkpt lat="41.11742000573494" lon="14.524822304865976"><ele>281.0</ele><time>2026-04-05T11:51:06Z</time></trkpt><trkpt lat="41.11745559574438" lon="14.524617839360587"><ele>281.0</ele><time>2026-04-05T11:51:07Z</time></trkpt><trkpt lat="41.11751740712461" lon="14.524437735644364"><ele>284.0</ele><time>2026-04-05T11:51:08Z</time></trkpt><trkpt lat="41.11761277053891" lon="14.524316429329158"><ele>287.0</ele><time>2026-04-05T11:51:09Z</time></trkpt><trkpt lat="41.11773586997681" lon="14.524199106314004"><ele>290.0</ele><time>2026-04-05T11:51:10Z</time></trkpt><trkpt lat="41.11788309317104" lon="14.524092879317193"><ele>290.0</ele><time>2026-04-05T11:51:11Z</time></trkpt><trkpt lat="41.11803877626628" lon="14.5240007256117"><ele>290.0</ele><time>2026-04-05T11:51:12Z</time></trkpt><trkpt lat="41.118202916629556" lon="14.523929049317744"><ele>290.0</ele><time>2026-04-05T11:51:13Z</time></trkpt><trkpt lat="41.118363106598096" lon="14.523839026608945"><ele>289.33333333333337</ele><time>2026-04-05T11:51:14Z</time></trkpt><trkpt lat="41.11849456869925" lon="14.523696418904162"><ele>288.6666666666667</ele><time>2026-04-05T11:51:15Z</time></trkpt><trkpt lat="41.11860871344657" lon="14.523539419908058"><ele>288.0</ele><time>2026-04-05T11:51:16Z</time></trkpt><trkpt lat="41.11871496349317" lon="14.52334747336762"><ele>288.0</ele><time>2026-04-05T11:51:17Z</time></trkpt><trkpt lat="41.11883894067054" lon="14.523155830647706"><ele>288.0</ele><time>2026-04-05T11:51:18Z</time></trkpt><trkpt lat="41.1189984089378" lon="14.522994057241677"><ele>288.0</ele><time>2026-04-05T11:51:19Z</time></trkpt><trkpt lat="41.11915875777337" lon="14.522815423567124"><ele>290.3333333333333</ele><time>2026-04-05T11:51:20Z</time></trkpt><trkpt lat="41.119303120419175" lon="14.52265358374912"><ele>292.66666666666663</ele><time>2026-04-05T11:51:21Z</time></trkpt><trkpt lat="41.119429996789876" lon="14.522464830387483"><ele>295.0</ele><time>2026-04-05T11:51:22Z</time></trkpt><trkpt lat="41.11956151891404" lon="14.522300000618015"><ele>295.0</ele><time>2026-04-05T11:51:23Z</time></trkpt><trkpt lat="41.11970267352341" lon="14.522183823082248"><ele>295.0</ele><time>2026-04-05T11:51:24Z</time></trkpt><trkpt lat="41.11984594396687" lon="14.522091916000855"><ele>295.0</ele><time>2026-04-05T11:51:25Z</time></trkpt><trkpt lat="41.120000451165666" lon="14.521998096200043"><ele>296.25</ele><time>2026-04-05T11:51:26Z</time></trkpt><trkpt lat="41.1201107788577" lon="14.521876894142574"><ele>297.5</ele><time>2026-04-05T11:51:27Z</time></trkpt><trkpt lat="41.120212394716226" lon="14.521739495122121"><ele>298.75</ele><time>2026-04-05T11:51:28Z</time></trkpt><trkpt lat="41.1202750056749" lon="14.521567532683214"><ele>300.0</ele><time>2026-04-05T11:51:29Z</time></trkpt><trkpt lat="41.12033381982457" lon="14.521376962515044"><ele>299.5</ele><time>2026-04-05T11:51:30Z</time></trkpt><trkpt lat="41.12035813917689" lon="14.521210041174523"><ele>299.0</ele><time>2026-04-05T11:51:31Z</time></trkpt><trkpt lat="41.12039724632666" lon="14.521057830348346"><ele>298.5</ele><time>2026-04-05T11:51:32Z</time></trkpt><trkpt lat="41.12044098992317" lon="14.520928356447532"><ele>298.0</ele><time>2026-04-05T11:51:33Z</time></trkpt><trkpt lat="41.12047359570215" lon="14.520790962050718"><ele>298.0</ele><time>2026-04-05T11:51:34Z</time></trkpt><trkpt lat="41.12054390937306" lon="14.520677382370105"><ele>298.0</ele><time>2026-04-05T11:51:35Z</time></trkpt><trkpt lat="41.12061248750627" lon="14.520566592034717"><ele>298.0</ele><time>2026-04-05T11:51:36Z</time></trkpt><trkpt lat="41.1208031915322" lon="14.520644372958932"><ele>298.0</ele><time>2026-04-05T11:51:37Z</time></trkpt><trkpt lat="41.12093905039335" lon="14.520677327420794"><ele>300.3333333333333</ele><time>2026-04-05T11:51:38Z</time></trkpt><trkpt lat="41.12109886563752" lon="14.520729775102355"><ele>302.6666666666667</ele><time>2026-04-05T11:51:39Z</time></trkpt><trkpt lat="41.12127876045034" lon="14.520800917254403"><ele>305.0</ele><time>2026-04-05T11:51:40Z</time></trkpt><trkpt lat="41.12145547514348" lon="14.520887347695599"><ele>305.0</ele><time>2026-04-05T11:51:41Z</time></trkpt><trkpt lat="41.12162630748265" lon="14.520971748758306"><ele>305.0</ele><time>2026-04-05T11:51:42Z</time></trkpt><trkpt lat="41.121776086654336" lon="14.521033332356252"><ele>305.0</ele><time>2026-04-05T11:51:43Z</time></trkpt><trkpt lat="41.12192161922922" lon="14.521061463635213"><ele>305.0</ele><time>2026-04-05T11:51:44Z</time></trkpt><trkpt lat="41.12207945813927" lon="14.521036581124767"><ele>305.0</ele><time>2026-04-05T11:51:45Z</time></trkpt><trkpt lat="41.12224506393961" lon="14.520964487562935"><ele>305.0</ele><time>2026-04-05T11:51:46Z</time></trkpt><trkpt lat="41.12242144691406" lon="14.520907162904647"><ele>306.0</ele><time>2026-04-05T11:51:47Z</time></trkpt><trkpt lat="41.12260826608965" lon="14.520846446682144"><ele>307.0</ele><time>2026-04-05T11:51:48Z</time></trkpt><trkpt lat="41.12279496723999" lon="14.520783393818903"><ele>308.0</ele><time>2026-04-05T11:51:49Z</time></trkpt><trkpt lat="41.122954658621" lon="14.520726572243168"><ele>308.0</ele><time>2026-04-05T11:51:50Z</time></trkpt><trkpt lat="41.1231155412031" lon="14.52066310639981"><ele>308.0</ele><time>2026-04-05T11:51:51Z</time></trkpt><trkpt lat="41.123273369767624" lon="14.520608174509157"><ele>308.0</ele><time>2026-04-05T11:51:52Z</time></trkpt><trkpt lat="41.123409968506664" lon="14.520564181867519"><ele>309.0</ele><time>2026-04-05T11:51:53Z</time></trkpt><trkpt lat="41.123526033745776" lon="14.520530240587902"><ele>310.0</ele><time>2026-04-05T11:51:54Z</time></trkpt><trkpt lat="41.12361831978331" lon="14.520450164430153"><ele>311.0</ele><time>2026-04-05T11:51:55Z</time></trkpt><trkpt lat="41.12370810821496" lon="14.520434070974238"><ele>312.0</ele><time>2026-04-05T11:51:56Z</time></trkpt><trkpt lat="41.1237933081908" lon="14.520424571448482"><ele>313.0</ele><time>2026-04-05T11:51:57Z</time></trkpt><trkpt lat="41.123883412072864" lon="14.520431396417557"><ele>313.0</ele><time>2026-04-05T11:51:58Z</time></trkpt><trkpt lat="41.123974541166014" lon="14.52046246406185"><ele>313.0</ele><time>2026-04-05T11:51:59Z</time></trkpt><trkpt lat="41.12405575761333" lon="14.520547278375632"><ele>313.0</ele><time>2026-04-05T11:52:00Z</time></trkpt><trkpt lat="41.12413264572564" lon="14.520574435191547"><ele>313.0</ele><time>2026-04-05T11:52:01Z</time></trkpt><trkpt lat="41.12418271815102" lon="14.520638923357025"><ele>313.0</ele><time>2026-04-05T11:52:02Z</time></trkpt><trkpt lat="41.124287548895005" lon="14.52073895810244"><ele>314.0</ele><time>2026-04-05T11:52:04Z</time></trkpt><trkpt lat="41.12438734037391" lon="14.5208363636781"><ele>315.0</ele><time>2026-04-05T11:52:05.999Z</time></trkpt><trkpt lat="41.124448343921095" lon="14.520937446516625"><ele>316.0</ele><time>2026-04-05T11:52:06.999Z</time></trkpt><trkpt lat="41.12452852752912" lon="14.52107314679824"><ele>317.0</ele><time>2026-04-05T11:52:07.999Z</time></trkpt><trkpt lat="41.124619349420385" lon="14.521213111916325"><ele>318.33333333333337</ele><time>2026-04-05T11:52:08.999Z</time></trkpt><trkpt lat="41.124735087709695" lon="14.521336906273476"><ele>319.6666666666667</ele><time>2026-04-05T11:52:09.999Z</time></trkpt><trkpt lat="41.12488431364857" lon="14.521444173881825"><ele>321.0</ele><time>2026-04-05T11:52:10.999Z</time></trkpt><trkpt lat="41.125043666776016" lon="14.521577493697178"><ele>321.0</ele><time>2026-04-05T11:52:11.999Z</time></trkpt><trkpt lat="41.12520708630114" lon="14.521688246752486"><ele>321.0</ele><time>2026-04-05T11:52:12.999Z</time></trkpt><trkpt lat="41.12534510841612" lon="14.521780842379007"><ele>321.0</ele><time>2026-04-05T11:52:13.999Z</time></trkpt><trkpt lat="41.12547803085192" lon="14.521862213230056"><ele>321.0</ele><time>2026-04-05T11:52:14.999Z</time></trkpt><trkpt lat="41.12559386481914" lon="14.521948159615258"><ele>321.0</ele><time>2026-04-05T11:52:15.999Z</time></trkpt><trkpt lat="41.125710875312265" lon="14.522010828330373"><ele>321.0</ele><time>2026-04-05T11:52:16.999Z</time></trkpt><trkpt lat="41.12582449815667" lon="14.522047403851365"><ele>321.0</ele><time>2026-04-05T11:52:17.999Z</time></trkpt><trkpt lat="41.12592943292346" lon="14.522052497890318"><ele>320.0</ele><time>2026-04-05T11:52:18.999Z</time></trkpt><trkpt lat="41.12603806465264" lon="14.522027575616951"><ele>319.0</ele><time>2026-04-05T11:52:19.999Z</time></trkpt><trkpt lat="41.126135728880726" lon="14.521996586949752"><ele>318.0</ele><time>2026-04-05T11:52:20.999Z</time></trkpt><trkpt lat="41.1261808174889" lon="14.521846961006435"><ele>317.0</ele><time>2026-04-05T11:52:21.999Z</time></trkpt><trkpt lat="41.12620285411001" lon="14.521688353416138"><ele>317.0</ele><time>2026-04-05T11:52:22.999Z</time></trkpt><trkpt lat="41.12620921469862" lon="14.52150782961169"><ele>317.0</ele><time>2026-04-05T11:52:23.999Z</time></trkpt><trkpt lat="41.12626040865784" lon="14.521331556426883"><ele>317.0</ele><time>2026-04-05T11:52:24.999Z</time></trkpt><trkpt lat="41.12632422945522" lon="14.521164468198842"><ele>317.0</ele><time>2026-04-05T11:52:25.999Z</time></trkpt><trkpt lat="41.12640856528505" lon="14.52101211609882"><ele>318.0</ele><time>2026-04-05T11:52:26.999Z</time></trkpt><trkpt lat="41.12651612473098" lon="14.520931607137177"><ele>319.0</ele><time>2026-04-05T11:52:27.999Z</time></trkpt><trkpt lat="41.126650360076155" lon="14.520854452505509"><ele>320.0</ele><time>2026-04-05T11:52:28.999Z</time></trkpt><trkpt lat="41.12679361206866" lon="14.520779669484718"><ele>321.0</ele><time>2026-04-05T11:52:29.999Z</time></trkpt><trkpt lat="41.12693452417553" lon="14.520706048026765"><ele>321.0</ele><time>2026-04-05T11:52:30.999Z</time></trkpt><trkpt lat="41.12707679747958" lon="14.520631714072456"><ele>321.0</ele><time>2026-04-05T11:52:31.999Z</time></trkpt><trkpt lat="41.127227698199476" lon="14.5205526835839"><ele>321.0</ele><time>2026-04-05T11:52:32.999Z</time></trkpt><trkpt lat="41.12739739054299" lon="14.520463236300662"><ele>318.6666666666667</ele><time>2026-04-05T11:52:33.999Z</time></trkpt><trkpt lat="41.12756621520939" lon="14.52034967656343"><ele>316.33333333333337</ele><time>2026-04-05T11:52:34.999Z</time></trkpt><trkpt lat="41.127713501900594" lon="14.520268648932749"><ele>314.0</ele><time>2026-04-05T11:52:35.999Z</time></trkpt><trkpt lat="41.127847374331694" lon="14.520189975026101"><ele>314.0</ele><time>2026-04-05T11:52:36.999Z</time></trkpt><trkpt lat="41.12797870016334" lon="14.52015706138926"><ele>314.0</ele><time>2026-04-05T11:52:37.999Z</time></trkpt><trkpt lat="41.12811978138847" lon="14.520130212276142"><ele>314.0</ele><time>2026-04-05T11:52:38.999Z</time></trkpt><trkpt lat="41.12825298265335" lon="14.520148744780897"><ele>314.0</ele><time>2026-04-05T11:52:39.999Z</time></trkpt><trkpt lat="41.12838478326134" lon="14.520199322551495"><ele>314.2</ele><time>2026-04-05T11:52:40.999Z</time></trkpt><trkpt lat="41.12850148610802" lon="14.52025003357647"><ele>314.4</ele><time>2026-04-05T11:52:41.999Z</time></trkpt><trkpt lat="41.128609654500295" lon="14.520280612528753"><ele>314.6</ele><time>2026-04-05T11:52:42.999Z</time></trkpt><trkpt lat="41.12872496386396" lon="14.52031168454646"><ele>314.8</ele><time>2026-04-05T11:52:43.999Z</time></trkpt><trkpt lat="41.128811952660136" lon="14.520294760432831"><ele>315.0</ele><time>2026-04-05T11:52:44.999Z</time></trkpt><trkpt lat="41.12889989232675" lon="14.52023389738517"><ele>315.0</ele><time>2026-04-05T11:52:45.999Z</time></trkpt><trkpt lat="41.12895187818994" lon="14.520101538090161"><ele>315.0</ele><time>2026-04-05T11:52:46.999Z</time></trkpt><trkpt lat="41.12897035446675" lon="14.519974554205577"><ele>315.0</ele><time>2026-04-05T11:52:47.999Z</time></trkpt><trkpt lat="41.12893460363616" lon="14.519840861550485"><ele>315.0</ele><time>2026-04-05T11:52:49Z</time></trkpt><trkpt lat="41.128917791871906" lon="14.519733951060793"><ele>315.0</ele><time>2026-04-05T11:52:50Z</time></trkpt><trkpt lat="41.12891704445258" lon="14.51964139894005"><ele>315.4</ele><time>2026-04-05T11:52:51Z</time></trkpt><trkpt lat="41.12893169589834" lon="14.519556775778021"><ele>315.8</ele><time>2026-04-05T11:52:52Z</time></trkpt><trkpt lat="41.12903468259274" lon="14.51941164851984"><ele>316.2</ele><time>2026-04-05T11:52:54Z</time></trkpt><trkpt lat="41.129107343808556" lon="14.519316001280156"><ele>316.6</ele><time>2026-04-05T11:52:55Z</time></trkpt><trkpt lat="41.12917264461361" lon="14.519252735603493"><ele>317.0</ele><time>2026-04-05T11:52:56Z</time></trkpt><trkpt lat="41.12924422397911" lon="14.519228117131245"><ele>317.0</ele><time>2026-04-05T11:52:57Z</time></trkpt><trkpt lat="41.129334474960736" lon="14.519221961034388"><ele>317.0</ele><time>2026-04-05T11:52:58Z</time></trkpt><trkpt lat="41.129463513385865" lon="14.519277778665401"><ele>317.0</ele><time>2026-04-05T11:52:59Z</time></trkpt><trkpt lat="41.12958121024479" lon="14.519269376204486"><ele>317.0</ele><time>2026-04-05T11:53:00Z</time></trkpt><trkpt lat="41.1296887489046" lon="14.519244471556696"><ele>317.0</ele><time>2026-04-05T11:53:01Z</time></trkpt><trkpt lat="41.12977670592807" lon="14.51920330530939"><ele>317.0</ele><time>2026-04-05T11:53:02Z</time></trkpt><trkpt lat="41.12983321643391" lon="14.519083258811357"><ele>317.0</ele><time>2026-04-05T11:53:03Z</time></trkpt><trkpt lat="41.12988450110361" lon="14.518985274887417"><ele>317.0</ele><time>2026-04-05T11:53:04Z</time></trkpt><trkpt lat="41.129952714978664" lon="14.518922683913107"><ele>317.0</ele><time>2026-04-05T11:53:05Z</time></trkpt><trkpt lat="41.13005495370216" lon="14.518924729165104"><ele>320.0</ele><time>2026-04-05T11:53:07Z</time></trkpt><trkpt lat="41.130122460960074" lon="14.518979515786675"><ele>323.0</ele><time>2026-04-05T11:53:08Z</time></trkpt><trkpt lat="41.13023388188218" lon="14.519009303648692"><ele>326.0</ele><time>2026-04-05T11:53:09Z</time></trkpt><trkpt lat="41.1303714549966" lon="14.519022052141358"><ele>329.0</ele><time>2026-04-05T11:53:10Z</time></trkpt><trkpt lat="41.13047924081268" lon="14.519030551339547"><ele>332.0</ele><time>2026-04-05T11:53:11Z</time></trkpt><trkpt lat="41.13057809435813" lon="14.51907592997979"><ele>332.0</ele><time>2026-04-05T11:53:12Z</time></trkpt><trkpt lat="41.13067269646924" lon="14.519143687749239"><ele>332.0</ele><time>2026-04-05T11:53:13Z</time></trkpt><trkpt lat="41.130774854402155" lon="14.519234604677498"><ele>332.0</ele><time>2026-04-05T11:53:14Z</time></trkpt><trkpt lat="41.130880473369224" lon="14.519332706551904"><ele>332.0</ele><time>2026-04-05T11:53:15Z</time></trkpt><trkpt lat="41.13098494564953" lon="14.519460325253055"><ele>336.0</ele><time>2026-04-05T11:53:16Z</time></trkpt><trkpt lat="41.1310900989523" lon="14.519601748336047"><ele>340.0</ele><time>2026-04-05T11:53:17Z</time></trkpt><trkpt lat="41.13117388456985" lon="14.519697860214317"><ele>344.0</ele><time>2026-04-05T11:53:18Z</time></trkpt><trkpt lat="41.13126894809114" lon="14.519755542711055"><ele>348.0</ele><time>2026-04-05T11:53:19Z</time></trkpt><trkpt lat="41.131369648839296" lon="14.519768719375556"><ele>348.0</ele><time>2026-04-05T11:53:20Z</time></trkpt><trkpt lat="41.13146558728618" lon="14.519712396710108"><ele>348.0</ele><time>2026-04-05T11:53:21Z</time></trkpt><trkpt lat="41.13155440902536" lon="14.51969991810534"><ele>348.0</ele><time>2026-04-05T11:53:22Z</time></trkpt><trkpt lat="41.131637405828904" lon="14.51964633731471"><ele>348.0</ele><time>2026-04-05T11:53:23Z</time></trkpt><trkpt lat="41.13172980619885" lon="14.519697092325979"><ele>348.0</ele><time>2026-04-05T11:53:24Z</time></trkpt><trkpt lat="41.131840801265284" lon="14.519737319922916"><ele>350.0</ele><time>2026-04-05T11:53:25Z</time></trkpt><trkpt lat="41.131922810389845" lon="14.519795060865835"><ele>352.0</ele><time>2026-04-05T11:53:26Z</time></trkpt><trkpt lat="41.13200479406034" lon="14.519859729171221"><ele>354.0</ele><time>2026-04-05T11:53:27Z</time></trkpt><trkpt lat="41.13208717459798" lon="14.519993159858908"><ele>356.0</ele><time>2026-04-05T11:53:28Z</time></trkpt><trkpt lat="41.13217217992856" lon="14.520065198752231"><ele>358.0</ele><time>2026-04-05T11:53:29Z</time></trkpt><trkpt lat="41.13223694547377" lon="14.520132831147597"><ele>358.0</ele><time>2026-04-05T11:53:30Z</time></trkpt><trkpt lat="41.13234983785568" lon="14.520151245850126"><ele>358.0</ele><time>2026-04-05T11:53:31Z</time></trkpt><trkpt lat="41.132482474087865" lon="14.520176926248423"><ele>358.0</ele><time>2026-04-05T11:53:32Z</time></trkpt><trkpt lat="41.132608861032146" lon="14.520207460286628"><ele>358.0</ele><time>2026-04-05T11:53:33Z</time></trkpt><trkpt lat="41.132736294810556" lon="14.520263805288545"><ele>358.0</ele><time>2026-04-05T11:53:34Z</time></trkpt><trkpt lat="41.13282349519993" lon="14.520329441702215"><ele>358.0</ele><time>2026-04-05T11:53:35Z</time></trkpt><trkpt lat="41.13291607753867" lon="14.520375873805062"><ele>358.0</ele><time>2026-04-05T11:53:36Z</time></trkpt><trkpt lat="41.133019154511906" lon="14.520390970829924"><ele>358.0</ele><time>2026-04-05T11:53:37Z</time></trkpt><trkpt lat="41.13312703749254" lon="14.520381692769009"><ele>358.0</ele><time>2026-04-05T11:53:38Z</time></trkpt><trkpt lat="41.13322772416461" lon="14.520334811724055"><ele>358.0</ele><time>2026-04-05T11:53:39Z</time></trkpt><trkpt lat="41.13330222276262" lon="14.520230269676754"><ele>358.0</ele><time>2026-04-05T11:53:40Z</time></trkpt><trkpt lat="41.133370746665605" lon="14.520190281247693"><ele>358.0</ele><time>2026-04-05T11:53:41Z</time></trkpt><trkpt lat="41.13349482070498" lon="14.520279571577985"><ele>358.0</ele><time>2026-04-05T11:53:43Z</time></trkpt><trkpt lat="41.13354883247702" lon="14.520325685248585"><ele>358.0</ele><time>2026-04-05T11:53:44Z</time></trkpt><trkpt lat="41.133632317106645" lon="14.520361241988546"><ele>358.0</ele><time>2026-04-05T11:53:45Z</time></trkpt><trkpt lat="41.13372554486791" lon="14.520329245559"><ele>358.0</ele><time>2026-04-05T11:53:46Z</time></trkpt><trkpt lat="41.133797030928335" lon="14.520219568040469"><ele>358.0</ele><time>2026-04-05T11:53:46.999Z</time></trkpt><trkpt lat="41.13385455338874" lon="14.520134772348989"><ele>358.0</ele><time>2026-04-05T11:53:47.999Z</time></trkpt><trkpt lat="41.133906393102286" lon="14.520086038798327"><ele>358.0</ele><time>2026-04-05T11:53:48.999Z</time></trkpt><trkpt lat="41.13399835859809" lon="14.52005617942562"><ele>357.79999999999995</ele><time>2026-04-05T11:53:49.999Z</time></trkpt><trkpt lat="41.13409509981351" lon="14.52003993105444"><ele>357.6</ele><time>2026-04-05T11:53:50.999Z</time></trkpt><trkpt lat="41.13419936070807" lon="14.52005318513112"><ele>357.4</ele><time>2026-04-05T11:53:51.999Z</time></trkpt><trkpt lat="41.13429548720879" lon="14.520076137541706"><ele>357.20000000000005</ele><time>2026-04-05T11:53:52.999Z</time></trkpt><trkpt lat="41.13437949821316" lon="14.520096015150543"><ele>357.0</ele><time>2026-04-05T11:53:53.999Z</time></trkpt><trkpt lat="41.134452580182845" lon="14.520113833534399"><ele>357.0</ele><time>2026-04-05T11:53:54.999Z</time></trkpt><trkpt lat="41.13456237846904" lon="14.520135975624651"><ele>357.0</ele><time>2026-04-05T11:53:56.999Z</time></trkpt><trkpt lat="41.13464223388035" lon="14.520143146897594"><ele>357.0</ele><time>2026-04-05T11:53:58.999Z</time></trkpt><trkpt lat="41.13472617614836" lon="14.520128715469383"><ele>357.0</ele><time>2026-04-05T11:54:00.999Z</time></trkpt><trkpt lat="41.13481674513134" lon="14.520056395540513"><ele>357.0</ele><time>2026-04-05T11:54:02.999Z</time></trkpt><trkpt lat="41.13487044309868" lon="14.520001242345936"><ele>357.0</ele><time>2026-04-05T11:54:03.999Z</time></trkpt><trkpt lat="41.134944188253236" lon="14.519919973822315"><ele>357.0</ele><time>2026-04-05T11:54:04.999Z</time></trkpt><trkpt lat="41.13501684328476" lon="14.519816060585915"><ele>357.0</ele><time>2026-04-05T11:54:05.999Z</time></trkpt><trkpt lat="41.13507040042812" lon="14.519683170852804"><ele>357.0</ele><time>2026-04-05T11:54:06.999Z</time></trkpt><trkpt lat="41.135131932648235" lon="14.519553460318596"><ele>357.0</ele><time>2026-04-05T11:54:07.999Z</time></trkpt><trkpt lat="41.13519146237001" lon="14.519449774233122"><ele>357.0</ele><time>2026-04-05T11:54:08.999Z</time></trkpt><trkpt lat="41.13525213767013" lon="14.519364053295384"><ele>354.8</ele><time>2026-04-05T11:54:09.999Z</time></trkpt><trkpt lat="41.13531728621251" lon="14.519279417408002"><ele>352.6</ele><time>2026-04-05T11:54:10.999Z</time></trkpt><trkpt lat="41.135385522514284" lon="14.519215273616942"><ele>350.40000000000003</ele><time>2026-04-05T11:54:11.999Z</time></trkpt><trkpt lat="41.135466747933755" lon="14.519163137374173"><ele>348.20000000000005</ele><time>2026-04-05T11:54:12.999Z</time></trkpt><trkpt lat="41.13557458780047" lon="14.519110770726629"><ele>346.0</ele><time>2026-04-05T11:54:13.999Z</time></trkpt><trkpt lat="41.13567231664308" lon="14.519031428262506"><ele>347.0</ele><time>2026-04-05T11:54:14.999Z</time></trkpt><trkpt lat="41.13578691767835" lon="14.51894721867621"><ele>348.0</ele><time>2026-04-05T11:54:15.999Z</time></trkpt><trkpt lat="41.13589008544361" lon="14.518880043210903"><ele>349.0</ele><time>2026-04-05T11:54:16.999Z</time></trkpt><trkpt lat="41.13598523009461" lon="14.51882946703427"><ele>350.0</ele><time>2026-04-05T11:54:17.999Z</time></trkpt><trkpt lat="41.136084541955945" lon="14.518789147177944"><ele>350.0</ele><time>2026-04-05T11:54:18.999Z</time></trkpt><trkpt lat="41.13619121720141" lon="14.518751549257244"><ele>350.0</ele><time>2026-04-05T11:54:19.999Z</time></trkpt><trkpt lat="41.13630808041701" lon="14.518709375152847"><ele>350.0</ele><time>2026-04-05T11:54:20.999Z</time></trkpt><trkpt lat="41.13641326019901" lon="14.518673887397895"><ele>350.0</ele><time>2026-04-05T11:54:21.999Z</time></trkpt><trkpt lat="41.13650987150846" lon="14.518621610961278"><ele>350.0</ele><time>2026-04-05T11:54:22.999Z</time></trkpt><trkpt lat="41.13661902996942" lon="14.51858558896045"><ele>347.8</ele><time>2026-04-05T11:54:23.999Z</time></trkpt><trkpt lat="41.13672030193052" lon="14.51854190464392"><ele>345.6</ele><time>2026-04-05T11:54:24.999Z</time></trkpt><trkpt lat="41.136811836121474" lon="14.518487871600707"><ele>343.4</ele><time>2026-04-05T11:54:25.999Z</time></trkpt><trkpt lat="41.13690638806789" lon="14.518418822519921"><ele>341.2</ele><time>2026-04-05T11:54:26.999Z</time></trkpt><trkpt lat="41.13699885985884" lon="14.518396658799809"><ele>339.0</ele><time>2026-04-05T11:54:27.999Z</time></trkpt><trkpt lat="41.1370845744121" lon="14.518374820259597"><ele>339.0</ele><time>2026-04-05T11:54:28.999Z</time></trkpt><trkpt lat="41.13715511501145" lon="14.51835194844277"><ele>339.0</ele><time>2026-04-05T11:54:29.999Z</time></trkpt><trkpt lat="41.13721738574766" lon="14.518366693684586"><ele>339.0</ele><time>2026-04-05T11:54:30.999Z</time></trkpt><trkpt lat="41.13729814327814" lon="14.518089567211396"><ele>339.0</ele><time>2026-04-05T11:54:34.999Z</time></trkpt><trkpt lat="41.137303450430714" lon="14.517925195539847"><ele>336.79999999999995</ele><time>2026-04-05T11:54:36.999Z</time></trkpt><trkpt lat="41.137267329835375" lon="14.517816342901856"><ele>334.59999999999997</ele><time>2026-04-05T11:54:37.999Z</time></trkpt><trkpt lat="41.13725446453263" lon="14.517701306070137"><ele>332.4</ele><time>2026-04-05T11:54:38.999Z</time></trkpt><trkpt lat="41.13723814385957" lon="14.517577172767384"><ele>330.2</ele><time>2026-04-05T11:54:39.999Z</time></trkpt><trkpt lat="41.137208366195914" lon="14.517462425090187"><ele>328.0</ele><time>2026-04-05T11:54:40.999Z</time></trkpt><trkpt lat="41.1371568640761" lon="14.517344065892328"><ele>328.0</ele><time>2026-04-05T11:54:41.999Z</time></trkpt><trkpt lat="41.13708330338972" lon="14.517216472513843"><ele>328.0</ele><time>2026-04-05T11:54:42.999Z</time></trkpt><trkpt lat="41.1370140555769" lon="14.517112494632453"><ele>328.0</ele><time>2026-04-05T11:54:43.999Z</time></trkpt><trkpt lat="41.13695237428898" lon="14.517010992943355"><ele>328.0</ele><time>2026-04-05T11:54:44.999Z</time></trkpt><trkpt lat="41.13688060224657" lon="14.516919194421188"><ele>328.0</ele><time>2026-04-05T11:54:45.999Z</time></trkpt><trkpt lat="41.13680098319049" lon="14.516841472526892"><ele>325.4</ele><time>2026-04-05T11:54:46.999Z</time></trkpt><trkpt lat="41.136751903052215" lon="14.51677012429218"><ele>322.79999999999995</ele><time>2026-04-05T11:54:47.999Z</time></trkpt><trkpt lat="41.136724070213894" lon="14.516679691720096"><ele>320.2</ele><time>2026-04-05T11:54:49.999Z</time></trkpt><trkpt lat="41.13682881416541" lon="14.516687284900602"><ele>317.6</ele><time>2026-04-05T11:54:53.999Z</time></trkpt><trkpt lat="41.136973058791334" lon="14.51670234285473"><ele>315.0</ele><time>2026-04-05T11:54:55Z</time></trkpt><trkpt lat="41.137082004357254" lon="14.51669132521021"><ele>315.0</ele><time>2026-04-05T11:54:56Z</time></trkpt><trkpt lat="41.13720370132951" lon="14.5166750450994"><ele>315.0</ele><time>2026-04-05T11:54:57Z</time></trkpt><trkpt lat="41.137333127000055" lon="14.516623885557724"><ele>315.0</ele><time>2026-04-05T11:54:58Z</time></trkpt><trkpt lat="41.13746513642806" lon="14.516524442068684"><ele>315.0</ele><time>2026-04-05T11:54:59Z</time></trkpt><trkpt lat="41.13760699546469" lon="14.516425802860654"><ele>315.5</ele><time>2026-04-05T11:55:00Z</time></trkpt><trkpt lat="41.1377418443967" lon="14.516324718540176"><ele>316.0</ele><time>2026-04-05T11:55:01Z</time></trkpt><trkpt lat="41.137857386926825" lon="14.516233881595845"><ele>316.5</ele><time>2026-04-05T11:55:02Z</time></trkpt><trkpt lat="41.137953461336615" lon="14.516155068149148"><ele>317.0</ele><time>2026-04-05T11:55:03Z</time></trkpt><trkpt lat="41.13804266054865" lon="14.516084579075091"><ele>316.4</ele><time>2026-04-05T11:55:04Z</time></trkpt><trkpt lat="41.138125676084655" lon="14.516026754066303"><ele>315.79999999999995</ele><time>2026-04-05T11:55:05Z</time></trkpt><trkpt lat="41.13819601223944" lon="14.515965226098611"><ele>315.2</ele><time>2026-04-05T11:55:06Z</time></trkpt><trkpt lat="41.13829817174751" lon="14.515985189864846"><ele>314.59999999999997</ele><time>2026-04-05T11:55:07Z</time></trkpt><trkpt lat="41.13837115404653" lon="14.516034903801737"><ele>314.0</ele><time>2026-04-05T11:55:08Z</time></trkpt><trkpt lat="41.13841704472717" lon="14.516150883209663"><ele>314.75</ele><time>2026-04-05T11:55:09Z</time></trkpt><trkpt lat="41.13841325466855" lon="14.516261586098238"><ele>315.5</ele><time>2026-04-05T11:55:10Z</time></trkpt><trkpt lat="41.13841537155543" lon="14.516379658254595"><ele>316.25</ele><time>2026-04-05T11:55:12Z</time></trkpt><trkpt lat="41.13856913956967" lon="14.516363126621503"><ele>317.0</ele><time>2026-04-05T11:55:14Z</time></trkpt><trkpt lat="41.138703894462566" lon="14.516272285190615"><ele>316.75</ele><time>2026-04-05T11:55:43Z</time></trkpt><trkpt lat="41.13880722522203" lon="14.516191999497998"><ele>316.5</ele><time>2026-04-05T11:55:44Z</time></trkpt><trkpt lat="41.138906974508664" lon="14.516106292927411"><ele>316.25</ele><time>2026-04-05T11:55:45Z</time></trkpt><trkpt lat="41.13900072443491" lon="14.516017218575186"><ele>316.0</ele><time>2026-04-05T11:55:46Z</time></trkpt><trkpt lat="41.139083894637885" lon="14.515924864459734"><ele>316.0</ele><time>2026-04-05T11:55:47Z</time></trkpt><trkpt lat="41.139141260891385" lon="14.51582801615323"><ele>316.0</ele><time>2026-04-05T11:55:48Z</time></trkpt><trkpt lat="41.13919043684998" lon="14.515768501193346"><ele>316.0</ele><time>2026-04-05T11:55:49Z</time></trkpt><trkpt lat="41.13918653435385" lon="14.51566905323293"><ele>316.0</ele><time>2026-04-05T11:55:49.999Z</time></trkpt><trkpt lat="41.13912183652173" lon="14.515535858058378"><ele>316.0</ele><time>2026-04-05T11:55:50.999Z</time></trkpt><trkpt lat="41.13901876018476" lon="14.515376653848074"><ele>313.0</ele><time>2026-04-05T11:55:51.999Z</time></trkpt><trkpt lat="41.138941183616396" lon="14.515225221679263"><ele>310.0</ele><time>2026-04-05T11:55:52.999Z</time></trkpt><trkpt lat="41.13886895621626" lon="14.515110151520307"><ele>307.0</ele><time>2026-04-05T11:55:53.999Z</time></trkpt><trkpt lat="41.13881224205617" lon="14.514987573751396"><ele>304.0</ele><time>2026-04-05T11:55:54.999Z</time></trkpt><trkpt lat="41.138749930162284" lon="14.514888445828614"><ele>304.0</ele><time>2026-04-05T11:55:55.999Z</time></trkpt><trkpt lat="41.13870614443548" lon="14.51479912769468"><ele>304.0</ele><time>2026-04-05T11:55:56.999Z</time></trkpt><trkpt lat="41.13868465372044" lon="14.514693820241883"><ele>304.0</ele><time>2026-04-05T11:55:57.999Z</time></trkpt><trkpt lat="41.13875308370294" lon="14.514636690196959"><ele>304.0</ele><time>2026-04-05T11:55:58.999Z</time></trkpt><trkpt lat="41.138872890600005" lon="14.514548333548094"><ele>304.0</ele><time>2026-04-05T11:55:59.999Z</time></trkpt><trkpt lat="41.1390055482575" lon="14.51444366150759"><ele>303.66666666666663</ele><time>2026-04-05T11:56:00.999Z</time></trkpt><trkpt lat="41.139143302200985" lon="14.5143223072591"><ele>303.3333333333333</ele><time>2026-04-05T11:56:01.999Z</time></trkpt><trkpt lat="41.13929368756052" lon="14.514188996124592"><ele>303.0</ele><time>2026-04-05T11:56:02.999Z</time></trkpt><trkpt lat="41.13943373051526" lon="14.514041351064439"><ele>303.0</ele><time>2026-04-05T11:56:03.999Z</time></trkpt><trkpt lat="41.139558004798936" lon="14.513870239950414"><ele>303.0</ele><time>2026-04-05T11:56:04.999Z</time></trkpt><trkpt lat="41.13967730171563" lon="14.513664885426136"><ele>303.0</ele><time>2026-04-05T11:56:05.999Z</time></trkpt><trkpt lat="41.13979830223383" lon="14.513542584703274"><ele>304.2</ele><time>2026-04-05T11:56:06.999Z</time></trkpt><trkpt lat="41.13992362660028" lon="14.513439929067536"><ele>305.4</ele><time>2026-04-05T11:56:07.999Z</time></trkpt><trkpt lat="41.14003412003885" lon="14.513381957395623"><ele>306.59999999999997</ele><time>2026-04-05T11:56:08.999Z</time></trkpt><trkpt lat="41.140124691035545" lon="14.513359242290191"><ele>307.8</ele><time>2026-04-05T11:56:09.999Z</time></trkpt><trkpt lat="41.14020745969307" lon="14.513375600818376"><ele>309.0</ele><time>2026-04-05T11:56:10.999Z</time></trkpt><trkpt lat="41.14031765556013" lon="14.513417773777926"><ele>309.0</ele><time>2026-04-05T11:56:11.999Z</time></trkpt><trkpt lat="41.140435972974544" lon="14.513450035604084"><ele>309.0</ele><time>2026-04-05T11:56:12.999Z</time></trkpt><trkpt lat="41.14053806145525" lon="14.513479106395012"><ele>309.0</ele><time>2026-04-05T11:56:13.999Z</time></trkpt><trkpt lat="41.14063835484965" lon="14.51348770619377"><ele>309.0</ele><time>2026-04-05T11:56:14.999Z</time></trkpt><trkpt lat="41.14075129353559" lon="14.513443226410166"><ele>309.0</ele><time>2026-04-05T11:56:15.999Z</time></trkpt><trkpt lat="41.14088218127432" lon="14.51337712523834"><ele>308.0</ele><time>2026-04-05T11:56:16.999Z</time></trkpt><trkpt lat="41.14103555086321" lon="14.513258818887794"><ele>307.0</ele><time>2026-04-05T11:56:17.999Z</time></trkpt><trkpt lat="41.14120040561831" lon="14.513107366055985"><ele>306.0</ele><time>2026-04-05T11:56:18.999Z</time></trkpt><trkpt lat="41.14134153678839" lon="14.512973417775152"><ele>307.0</ele><time>2026-04-05T11:56:19.999Z</time></trkpt><trkpt lat="41.14144900577341" lon="14.512871955721359"><ele>308.0</ele><time>2026-04-05T11:56:20.999Z</time></trkpt><trkpt lat="41.141519835317055" lon="14.512805565708847"><ele>309.0</ele><time>2026-04-05T11:56:21.999Z</time></trkpt><trkpt lat="41.14174169292321" lon="14.512549095416748"><ele>307.5</ele><time>2026-04-05T11:56:22.999Z</time></trkpt><trkpt lat="41.141838056362204" lon="14.512423684723398"><ele>306.0</ele><time>2026-04-05T11:56:23.999Z</time></trkpt><trkpt lat="41.14192395327809" lon="14.51227129031792"><ele>304.5</ele><time>2026-04-05T11:56:24.999Z</time></trkpt><trkpt lat="41.141999033565824" lon="14.512114418854228"><ele>303.0</ele><time>2026-04-05T11:56:25.999Z</time></trkpt><trkpt lat="41.14207379629795" lon="14.511952351588072"><ele>303.0</ele><time>2026-04-05T11:56:26.999Z</time></trkpt><trkpt lat="41.14213755468637" lon="14.51179773545067"><ele>303.0</ele><time>2026-04-05T11:56:27.999Z</time></trkpt><trkpt lat="41.14218822178137" lon="14.511656404498867"><ele>303.0</ele><time>2026-04-05T11:56:28.999Z</time></trkpt><trkpt lat="41.1422242683887" lon="14.511492376064725"><ele>303.0</ele><time>2026-04-05T11:56:29.999Z</time></trkpt><trkpt lat="41.142247239456616" lon="14.511320036316958"><ele>302.6666666666667</ele><time>2026-04-05T11:56:30.999Z</time></trkpt><trkpt lat="41.14226501799471" lon="14.511128383580376"><ele>302.33333333333337</ele><time>2026-04-05T11:56:31.999Z</time></trkpt><trkpt lat="41.142292817649455" lon="14.510917083424786"><ele>302.0</ele><time>2026-04-05T11:56:32.999Z</time></trkpt><trkpt lat="41.142323905833734" lon="14.510700999194297"><ele>302.0</ele><time>2026-04-05T11:56:33.999Z</time></trkpt><trkpt lat="41.142349579402335" lon="14.510485213639226"><ele>302.0</ele><time>2026-04-05T11:56:34.999Z</time></trkpt><trkpt lat="41.14237261046785" lon="14.510284432297127"><ele>302.0</ele><time>2026-04-05T11:56:35.999Z</time></trkpt><trkpt lat="41.142426558210005" lon="14.510099281349882"><ele>297.75</ele><time>2026-04-05T11:56:36.999Z</time></trkpt><trkpt lat="41.14247124990594" lon="14.509919853642964"><ele>293.5</ele><time>2026-04-05T11:56:37.999Z</time></trkpt><trkpt lat="41.14252352811557" lon="14.509773132297946"><ele>289.25</ele><time>2026-04-05T11:56:38.999Z</time></trkpt><trkpt lat="41.14258632055834" lon="14.509658815701156"><ele>285.0</ele><time>2026-04-05T11:56:39.999Z</time></trkpt><trkpt lat="41.142663093541984" lon="14.509603582024335"><ele>285.0</ele><time>2026-04-05T11:56:40.999Z</time></trkpt><trkpt lat="41.142740428459604" lon="14.509589208126867"><ele>285.0</ele><time>2026-04-05T11:56:41.999Z</time></trkpt><trkpt lat="41.14283456398084" lon="14.509567898244704"><ele>285.0</ele><time>2026-04-05T11:56:42.999Z</time></trkpt><trkpt lat="41.142943344641964" lon="14.509572429486726"><ele>285.0</ele><time>2026-04-05T11:56:43.999Z</time></trkpt><trkpt lat="41.143065733521716" lon="14.509558487080733"><ele>285.0</ele><time>2026-04-05T11:56:44.999Z</time></trkpt><trkpt lat="41.14317696051029" lon="14.50951036993818"><ele>284.5</ele><time>2026-04-05T11:56:45.999Z</time></trkpt><trkpt lat="41.14332068857304" lon="14.509451571249683"><ele>284.0</ele><time>2026-04-05T11:56:46.999Z</time></trkpt><trkpt lat="41.143346524736884" lon="14.509374265419655"><ele>283.5</ele><time>2026-04-05T11:56:47.999Z</time></trkpt><trkpt lat="41.143426163124815" lon="14.509238816934397"><ele>283.0</ele><time>2026-04-05T11:56:48.999Z</time></trkpt><trkpt lat="41.14353430563775" lon="14.509117607270813"><ele>283.0</ele><time>2026-04-05T11:56:49.999Z</time></trkpt><trkpt lat="41.14362638300018" lon="14.508958071529797"><ele>283.0</ele><time>2026-04-05T11:56:50.999Z</time></trkpt><trkpt lat="41.14373063491172" lon="14.508832362112171"><ele>283.0</ele><time>2026-04-05T11:56:51.999Z</time></trkpt><trkpt lat="41.14382230005718" lon="14.50871830129776"><ele>283.0</ele><time>2026-04-05T11:56:52.999Z</time></trkpt><trkpt lat="41.14390663858397" lon="14.508612759504413"><ele>283.4</ele><time>2026-04-05T11:56:53.999Z</time></trkpt><trkpt lat="41.14398234232914" lon="14.508528397956223"><ele>283.8</ele><time>2026-04-05T11:56:54.999Z</time></trkpt><trkpt lat="41.144033425755076" lon="14.50847129301022"><ele>284.2</ele><time>2026-04-05T11:56:55.999Z</time></trkpt><trkpt lat="41.14409401505996" lon="14.508421872524304"><ele>284.6</ele><time>2026-04-05T11:56:57.999Z</time></trkpt><trkpt lat="41.14411186428201" lon="14.508606339871795"><ele>285.0</ele><time>2026-04-05T11:56:58.999Z</time></trkpt><trkpt lat="41.14414362974773" lon="14.50874072558651"><ele>283.0</ele><time>2026-04-05T11:56:59.999Z</time></trkpt><trkpt lat="41.14417591845344" lon="14.50890984376294"><ele>281.0</ele><time>2026-04-05T11:57:01Z</time></trkpt><trkpt lat="41.14419615983525" lon="14.509047313760894"><ele>279.0</ele><time>2026-04-05T11:57:02Z</time></trkpt><trkpt lat="41.14421044614791" lon="14.509177256949856"><ele>277.0</ele><time>2026-04-05T11:57:03Z</time></trkpt><trkpt lat="41.14422043539215" lon="14.50930459475058"><ele>275.0</ele><time>2026-04-05T11:57:04Z</time></trkpt><trkpt lat="41.14422892309726" lon="14.50941279226594"><ele>275.0</ele><time>2026-04-05T11:57:05Z</time></trkpt><trkpt lat="41.14423688882027" lon="14.509515442668196"><ele>275.0</ele><time>2026-04-05T11:57:07Z</time></trkpt><trkpt lat="41.14439856285518" lon="14.509501122096902"><ele>275.0</ele><time>2026-04-05T11:57:10Z</time></trkpt><trkpt lat="41.1445018964833" lon="14.509457623921426"><ele>275.0</ele><time>2026-04-05T11:57:11Z</time></trkpt><trkpt lat="41.1445888040174" lon="14.509386283327334"><ele>275.0</ele><time>2026-04-05T11:57:12Z</time></trkpt><trkpt lat="41.144664561615905" lon="14.509273674244135"><ele>275.0</ele><time>2026-04-05T11:57:13Z</time></trkpt><trkpt lat="41.14476273006457" lon="14.509137026035614"><ele>275.0</ele><time>2026-04-05T11:57:14Z</time></trkpt><trkpt lat="41.144862974588555" lon="14.509017541382965"><ele>275.0</ele><time>2026-04-05T11:57:15Z</time></trkpt><trkpt lat="41.14498658842704" lon="14.508925292174158"><ele>274.33333333333337</ele><time>2026-04-05T11:57:16Z</time></trkpt><trkpt lat="41.145127676217285" lon="14.508808569976736"><ele>273.6666666666667</ele><time>2026-04-05T11:57:17Z</time></trkpt><trkpt lat="41.14530525796744" lon="14.508665563845797"><ele>273.0</ele><time>2026-04-05T11:57:18Z</time></trkpt><trkpt lat="41.14549075293095" lon="14.508483665955065"><ele>273.0</ele><time>2026-04-05T11:57:19Z</time></trkpt><trkpt lat="41.14565424893759" lon="14.508309644334028"><ele>273.0</ele><time>2026-04-05T11:57:20Z</time></trkpt><trkpt lat="41.14580163141971" lon="14.50816862051238"><ele>273.0</ele><time>2026-04-05T11:57:21Z</time></trkpt><trkpt lat="41.145949585471556" lon="14.508058710983741"><ele>271.0</ele><time>2026-04-05T11:57:22Z</time></trkpt><trkpt lat="41.14609603549163" lon="14.507989002922269"><ele>269.0</ele><time>2026-04-05T11:57:23Z</time></trkpt><trkpt lat="41.14623637631739" lon="14.507921355721288"><ele>267.0</ele><time>2026-04-05T11:57:24Z</time></trkpt><trkpt lat="41.1463553863892" lon="14.507807138111115"><ele>267.0</ele><time>2026-04-05T11:57:25Z</time></trkpt><trkpt lat="41.14646025046421" lon="14.507675505574728"><ele>267.0</ele><time>2026-04-05T11:57:26Z</time></trkpt><trkpt lat="41.14653503323165" lon="14.507493578046649"><ele>267.0</ele><time>2026-04-05T11:57:27Z</time></trkpt><trkpt lat="41.146579637983145" lon="14.50727067625073"><ele>264.0</ele><time>2026-04-05T11:57:28Z</time></trkpt><trkpt lat="41.14659166296997" lon="14.507024793800946"><ele>261.0</ele><time>2026-04-05T11:57:29Z</time></trkpt><trkpt lat="41.14658594995901" lon="14.506770297360154"><ele>258.0</ele><time>2026-04-05T11:57:30Z</time></trkpt><trkpt lat="41.146601215298446" lon="14.506538311688658"><ele>258.0</ele><time>2026-04-05T11:57:31Z</time></trkpt><trkpt lat="41.14662582855645" lon="14.50633610811"><ele>258.0</ele><time>2026-04-05T11:57:32Z</time></trkpt><trkpt lat="41.146677109175336" lon="14.50615381155708"><ele>258.0</ele><time>2026-04-05T11:57:33Z</time></trkpt><trkpt lat="41.146778635271446" lon="14.505982947075706"><ele>258.0</ele><time>2026-04-05T11:57:34Z</time></trkpt><trkpt lat="41.146893562020324" lon="14.505785883886427"><ele>258.0</ele><time>2026-04-05T11:57:35Z</time></trkpt><trkpt lat="41.146967505220296" lon="14.505595880394559"><ele>258.0</ele><time>2026-04-05T11:57:36Z</time></trkpt><trkpt lat="41.1470119376677" lon="14.5053996306029"><ele>257.5</ele><time>2026-04-05T11:57:37Z</time></trkpt><trkpt lat="41.14702273711745" lon="14.505179936566913"><ele>257.0</ele><time>2026-04-05T11:57:38Z</time></trkpt><trkpt lat="41.14704250242639" lon="14.504991598292603"><ele>256.5</ele><time>2026-04-05T11:57:39Z</time></trkpt><trkpt lat="41.14705705593452" lon="14.504857481759501"><ele>256.0</ele><time>2026-04-05T11:57:40Z</time></trkpt><trkpt lat="41.14708716950304" lon="14.504724719728367"><ele>256.0</ele><time>2026-04-05T11:57:42Z</time></trkpt><trkpt lat="41.147261067382125" lon="14.504813551199218"><ele>256.0</ele><time>2026-04-05T11:57:44Z</time></trkpt><trkpt lat="41.1473346113358" lon="14.50494531021597"><ele>256.0</ele><time>2026-04-05T11:57:45Z</time></trkpt><trkpt lat="41.14743231672101" lon="14.505099405272846"><ele>254.33333333333331</ele><time>2026-04-05T11:57:46Z</time></trkpt><trkpt lat="41.1475440984085" lon="14.505222872791867"><ele>252.66666666666669</ele><time>2026-04-05T11:57:47Z</time></trkpt><trkpt lat="41.14767219437906" lon="14.505338032190087"><ele>251.0</ele><time>2026-04-05T11:57:48Z</time></trkpt><trkpt lat="41.14780995824103" lon="14.505429529665273"><ele>249.5</ele><time>2026-04-05T11:57:49Z</time></trkpt><trkpt lat="41.14795435791871" lon="14.505498321952581"><ele>248.0</ele><time>2026-04-05T11:57:50Z</time></trkpt><trkpt lat="41.148089061626074" lon="14.505565447881526"><ele>246.5</ele><time>2026-04-05T11:57:51Z</time></trkpt><trkpt lat="41.14821828717219" lon="14.505626216881879"><ele>245.0</ele><time>2026-04-05T11:57:52Z</time></trkpt><trkpt lat="41.14834210231525" lon="14.505716974342516"><ele>244.5</ele><time>2026-04-05T11:57:53Z</time></trkpt><trkpt lat="41.148475627774744" lon="14.50579095770317"><ele>244.0</ele><time>2026-04-05T11:57:54Z</time></trkpt><trkpt lat="41.14860868394569" lon="14.50586619015059"><ele>243.5</ele><time>2026-04-05T11:57:55Z</time></trkpt><trkpt lat="41.14874165635782" lon="14.505947590583045"><ele>243.0</ele><time>2026-04-05T11:57:56Z</time></trkpt><trkpt lat="41.14887121205359" lon="14.506037341101349"><ele>243.0</ele><time>2026-04-05T11:57:57Z</time></trkpt><trkpt lat="41.1490028541804" lon="14.506142172236899"><ele>243.0</ele><time>2026-04-05T11:57:58Z</time></trkpt><trkpt lat="41.14913551804717" lon="14.506247006896782"><ele>243.0</ele><time>2026-04-05T11:57:59Z</time></trkpt><trkpt lat="41.14927432496376" lon="14.506354482994062"><ele>240.75</ele><time>2026-04-05T11:58:00Z</time></trkpt><trkpt lat="41.149410142119244" lon="14.506463481155409"><ele>238.5</ele><time>2026-04-05T11:58:01Z</time></trkpt><trkpt lat="41.14954264067857" lon="14.50655106457203"><ele>236.25</ele><time>2026-04-05T11:58:01.999Z</time></trkpt><trkpt lat="41.14966118347131" lon="14.50665157574703"><ele>234.0</ele><time>2026-04-05T11:58:02.999Z</time></trkpt><trkpt lat="41.14976770539849" lon="14.50674748462897"><ele>234.0</ele><time>2026-04-05T11:58:03.999Z</time></trkpt><trkpt lat="41.14987050480184" lon="14.506827419052794"><ele>233.99999999999997</ele><time>2026-04-05T11:58:04.999Z</time></trkpt><trkpt lat="41.14996150976856" lon="14.506906269603899"><ele>233.99999999999997</ele><time>2026-04-05T11:58:05.999Z</time></trkpt><trkpt lat="41.15003295790658" lon="14.506962692322599"><ele>234.0</ele><time>2026-04-05T11:58:06.999Z</time></trkpt><trkpt lat="41.15010909516652" lon="14.507044397541337"><ele>234.0</ele><time>2026-04-05T11:58:08.999Z</time></trkpt><trkpt lat="41.150209092957596" lon="14.50691382258998"><ele>235.0</ele><time>2026-04-05T11:58:09.999Z</time></trkpt><trkpt lat="41.15029933149816" lon="14.506857501001221"><ele>236.0</ele><time>2026-04-05T11:58:10.999Z</time></trkpt><trkpt lat="41.1504164868584" lon="14.506755085051843"><ele>237.0</ele><time>2026-04-05T11:58:11.999Z</time></trkpt><trkpt lat="41.150557009586144" lon="14.506631061765106"><ele>238.0</ele><time>2026-04-05T11:58:12.999Z</time></trkpt><trkpt lat="41.15068471049124" lon="14.506510079508352"><ele>237.75</ele><time>2026-04-05T11:58:13.999Z</time></trkpt><trkpt lat="41.15080157986819" lon="14.506372185555195"><ele>237.5</ele><time>2026-04-05T11:58:14.999Z</time></trkpt><trkpt lat="41.15090513348344" lon="14.506272924886424"><ele>237.25</ele><time>2026-04-05T11:58:15.999Z</time></trkpt><trkpt lat="41.150978274261035" lon="14.506165813796521"><ele>237.0</ele><time>2026-04-05T11:58:16.999Z</time></trkpt><trkpt lat="41.15103097048261" lon="14.506050892319006"><ele>238.25</ele><time>2026-04-05T11:58:17.999Z</time></trkpt><trkpt lat="41.15106468724589" lon="14.505898236759458"><ele>239.5</ele><time>2026-04-05T11:58:18.999Z</time></trkpt><trkpt lat="41.15105505605537" lon="14.50572318120667"><ele>240.75</ele><time>2026-04-05T11:58:19.999Z</time></trkpt><trkpt lat="41.151020417968695" lon="14.505531619942191"><ele>242.0</ele><time>2026-04-05T11:58:20.999Z</time></trkpt><trkpt lat="41.15096479022658" lon="14.505296480220503"><ele>242.0</ele><time>2026-04-05T11:58:21.999Z</time></trkpt><trkpt lat="41.15090901581015" lon="14.505078891079394"><ele>242.0</ele><time>2026-04-05T11:58:22.999Z</time></trkpt><trkpt lat="41.1508699788395" lon="14.504898860919614"><ele>242.0</ele><time>2026-04-05T11:58:23.999Z</time></trkpt><trkpt lat="41.15083093426243" lon="14.504752874335312"><ele>242.0</ele><time>2026-04-05T11:58:24.999Z</time></trkpt><trkpt lat="41.15076744331599" lon="14.504653540318401"><ele>244.2</ele><time>2026-04-05T11:58:25.999Z</time></trkpt><trkpt lat="41.15067645027139" lon="14.504573274449703"><ele>246.39999999999998</ele><time>2026-04-05T11:58:26.999Z</time></trkpt><trkpt lat="41.15056883432395" lon="14.504495076563892"><ele>248.60000000000002</ele><time>2026-04-05T11:58:27.999Z</time></trkpt><trkpt lat="41.150513368253314" lon="14.504388046110787"><ele>250.8</ele><time>2026-04-05T11:58:28.999Z</time></trkpt><trkpt lat="41.150443726253" lon="14.504265857753438"><ele>253.0</ele><time>2026-04-05T11:58:29.999Z</time></trkpt><trkpt lat="41.15039200044039" lon="14.504097278196623"><ele>253.0</ele><time>2026-04-05T11:58:30.999Z</time></trkpt><trkpt lat="41.150327555596704" lon="14.503901394334362"><ele>253.0</ele><time>2026-04-05T11:58:31.999Z</time></trkpt><trkpt lat="41.1502849731443" lon="14.503740022553734"><ele>253.0</ele><time>2026-04-05T11:58:32.999Z</time></trkpt><trkpt lat="41.150274157823254" lon="14.50360545443263"><ele>253.0</ele><time>2026-04-05T11:58:33.999Z</time></trkpt><trkpt lat="41.150315535945694" lon="14.503453801171691"><ele>253.0</ele><time>2026-04-05T11:58:34.999Z</time></trkpt><trkpt lat="41.150347424783234" lon="14.503257686101056"><ele>253.0</ele><time>2026-04-05T11:58:35.999Z</time></trkpt><trkpt lat="41.15038323966424" lon="14.503034533173965"><ele>253.0</ele><time>2026-04-05T11:58:36.999Z</time></trkpt><trkpt lat="41.150397740748694" lon="14.502829314123645"><ele>254.5</ele><time>2026-04-05T11:58:37.999Z</time></trkpt><trkpt lat="41.150418448656474" lon="14.502664809029937"><ele>256.0</ele><time>2026-04-05T11:58:38.999Z</time></trkpt><trkpt lat="41.15040316634606" lon="14.502484180980149"><ele>257.5</ele><time>2026-04-05T11:58:39.999Z</time></trkpt><trkpt lat="41.15035701408216" lon="14.502264931360488"><ele>259.0</ele><time>2026-04-05T11:58:40.999Z</time></trkpt><trkpt lat="41.15029491553065" lon="14.502033606128283"><ele>260.0</ele><time>2026-04-05T11:58:41.999Z</time></trkpt><trkpt lat="41.15024199520274" lon="14.501845153748173"><ele>261.0</ele><time>2026-04-05T11:58:42.999Z</time></trkpt><trkpt lat="41.15019487589956" lon="14.50168086349635"><ele>262.0</ele><time>2026-04-05T11:58:43.999Z</time></trkpt><trkpt lat="41.15015174252002" lon="14.501515613245457"><ele>263.0</ele><time>2026-04-05T11:58:44.999Z</time></trkpt><trkpt lat="41.1501305768334" lon="14.501362303199144"><ele>263.75</ele><time>2026-04-05T11:58:45.999Z</time></trkpt><trkpt lat="41.15015698678105" lon="14.50119782396783"><ele>264.5</ele><time>2026-04-05T11:58:46.999Z</time></trkpt><trkpt lat="41.15017538737908" lon="14.50102451437575"><ele>265.25</ele><time>2026-04-05T11:58:47.999Z</time></trkpt><trkpt lat="41.15019486215913" lon="14.500821311794247"><ele>266.0</ele><time>2026-04-05T11:58:48.999Z</time></trkpt><trkpt lat="41.150205706819165" lon="14.5006208594785"><ele>266.0</ele><time>2026-04-05T11:58:49.999Z</time></trkpt><trkpt lat="41.15021412195196" lon="14.500460139345593"><ele>266.0</ele><time>2026-04-05T11:58:50.999Z</time></trkpt><trkpt lat="41.15022087949394" lon="14.500331077398881"><ele>266.0</ele><time>2026-04-05T11:58:51.999Z</time></trkpt><trkpt lat="41.150228079011214" lon="14.500209318198246"><ele>266.0</ele><time>2026-04-05T11:58:52.999Z</time></trkpt><trkpt lat="41.15023549574566" lon="14.500100707445222"><ele>266.0</ele><time>2026-04-05T11:58:53.999Z</time></trkpt><trkpt lat="41.15024281148205" lon="14.500000286241459"><ele>267.0</ele><time>2026-04-05T11:58:54.999Z</time></trkpt><trkpt lat="41.15024963827043" lon="14.499906576561264"><ele>268.0</ele><time>2026-04-05T11:58:55.999Z</time></trkpt><trkpt lat="41.150246854327825" lon="14.49982064340166"><ele>269.0</ele><time>2026-04-05T11:58:56.999Z</time></trkpt><trkpt lat="41.150292734012275" lon="14.4996938811886"><ele>270.0</ele><time>2026-04-05T11:58:58.999Z</time></trkpt><trkpt lat="41.15046542648156" lon="14.49978681968404"><ele>271.0</ele><time>2026-04-05T11:59:00.999Z</time></trkpt><trkpt lat="41.15057365879315" lon="14.499828394969677"><ele>271.0</ele><time>2026-04-05T11:59:01.999Z</time></trkpt><trkpt lat="41.15068346379389" lon="14.499870481036568"><ele>271.0</ele><time>2026-04-05T11:59:02.999Z</time></trkpt><trkpt lat="41.15080852423796" lon="14.499917785332912"><ele>271.0</ele><time>2026-04-05T11:59:03.999Z</time></trkpt><trkpt lat="41.150934503990776" lon="14.499965437341725"><ele>271.0</ele><time>2026-04-05T11:59:04.999Z</time></trkpt><trkpt lat="41.151053718990305" lon="14.499999674090121"><ele>268.5</ele><time>2026-04-05T11:59:05.999Z</time></trkpt><trkpt lat="41.15116936610717" lon="14.500043880870983"><ele>266.0</ele><time>2026-04-05T11:59:07Z</time></trkpt><trkpt lat="41.15127725864707" lon="14.500094713925376"><ele>263.5</ele><time>2026-04-05T11:59:08Z</time></trkpt><trkpt lat="41.15137978342771" lon="14.500153332166253"><ele>261.0</ele><time>2026-04-05T11:59:09Z</time></trkpt><trkpt lat="41.151478040421445" lon="14.50021759710026"><ele>258.25</ele><time>2026-04-05T11:59:10Z</time></trkpt><trkpt lat="41.15156406873445" lon="14.500306961541842"><ele>255.5</ele><time>2026-04-05T11:59:11Z</time></trkpt><trkpt lat="41.15163920552754" lon="14.500417367848518"><ele>252.75</ele><time>2026-04-05T11:59:12Z</time></trkpt><trkpt lat="41.15173154262923" lon="14.500531216803697"><ele>250.0</ele><time>2026-04-05T11:59:13Z</time></trkpt><trkpt lat="41.151804583275236" lon="14.500666752291785"><ele>250.0</ele><time>2026-04-05T11:59:14Z</time></trkpt><trkpt lat="41.15188032875379" lon="14.500795140932244"><ele>250.0</ele><time>2026-04-05T11:59:15Z</time></trkpt><trkpt lat="41.15195868829674" lon="14.50093070831638"><ele>250.0</ele><time>2026-04-05T11:59:16Z</time></trkpt><trkpt lat="41.152038518449395" lon="14.501062721124653"><ele>250.0</ele><time>2026-04-05T11:59:17Z</time></trkpt><trkpt lat="41.15211821885132" lon="14.50119606590375"><ele>248.5</ele><time>2026-04-05T11:59:18Z</time></trkpt><trkpt lat="41.15218723197025" lon="14.501324702507985"><ele>247.0</ele><time>2026-04-05T11:59:19Z</time></trkpt><trkpt lat="41.15226732093067" lon="14.501446318422744"><ele>245.5</ele><time>2026-04-05T11:59:20Z</time></trkpt><trkpt lat="41.15235724650404" lon="14.501579793902849"><ele>244.0</ele><time>2026-04-05T11:59:21Z</time></trkpt><trkpt lat="41.15243921721243" lon="14.50171285267099"><ele>244.0</ele><time>2026-04-05T11:59:22Z</time></trkpt><trkpt lat="41.1525256517479" lon="14.501821371990136"><ele>244.0</ele><time>2026-04-05T11:59:23Z</time></trkpt><trkpt lat="41.15260962184408" lon="14.501936178064554"><ele>244.0</ele><time>2026-04-05T11:59:24Z</time></trkpt><trkpt lat="41.152701228591155" lon="14.502060533287173"><ele>244.0</ele><time>2026-04-05T11:59:25Z</time></trkpt><trkpt lat="41.152795815097676" lon="14.50218791495466"><ele>241.25</ele><time>2026-04-05T11:59:26Z</time></trkpt><trkpt lat="41.15288739541359" lon="14.502309261405651"><ele>238.5</ele><time>2026-04-05T11:59:27Z</time></trkpt><trkpt lat="41.15298517512334" lon="14.502437163288993"><ele>235.75</ele><time>2026-04-05T11:59:28Z</time></trkpt><trkpt lat="41.1530792673774" lon="14.502561717552426"><ele>233.0</ele><time>2026-04-05T11:59:29Z</time></trkpt><trkpt lat="41.15317471623974" lon="14.502680887228703"><ele>233.0</ele><time>2026-04-05T11:59:30Z</time></trkpt><trkpt lat="41.153274343973045" lon="14.50280965777403"><ele>233.0</ele><time>2026-04-05T11:59:31Z</time></trkpt><trkpt lat="41.1533736399117" lon="14.502936642584073"><ele>233.0</ele><time>2026-04-05T11:59:32Z</time></trkpt><trkpt lat="41.153461831401735" lon="14.503049535419288"><ele>233.0</ele><time>2026-04-05T11:59:33Z</time></trkpt><trkpt lat="41.15354097292463" lon="14.50316429984607"><ele>231.8</ele><time>2026-04-05T11:59:34Z</time></trkpt><trkpt lat="41.153614932105114" lon="14.503279095710306"><ele>230.60000000000002</ele><time>2026-04-05T11:59:35Z</time></trkpt><trkpt lat="41.15368539147235" lon="14.50339033987684"><ele>229.39999999999998</ele><time>2026-04-05T11:59:36Z</time></trkpt><trkpt lat="41.15375309015596" lon="14.503490181228381"><ele>228.2</ele><time>2026-04-05T11:59:37Z</time></trkpt><trkpt lat="41.153824848656974" lon="14.503578240082797"><ele>227.0</ele><time>2026-04-05T11:59:38Z</time></trkpt><trkpt lat="41.153893523265154" lon="14.503661488310664"><ele>227.00000000000003</ele><time>2026-04-05T11:59:39Z</time></trkpt><trkpt lat="41.15394943290838" lon="14.503732484143379"><ele>227.0</ele><time>2026-04-05T11:59:40Z</time></trkpt><trkpt lat="41.154024736382425" lon="14.503808954950962"><ele>227.0</ele><time>2026-04-05T11:59:41Z</time></trkpt><trkpt lat="41.15409336277173" lon="14.503876914161124"><ele>227.0</ele><time>2026-04-05T11:59:42Z</time></trkpt><trkpt lat="41.1541578134081" lon="14.503946791436944"><ele>227.00000000000003</ele><time>2026-04-05T11:59:43Z</time></trkpt><trkpt lat="41.15423654929158" lon="14.503967550016553"><ele>227.0</ele><time>2026-04-05T11:59:44Z</time></trkpt><trkpt lat="41.15435462261648" lon="14.503958350432203"><ele>224.75</ele><time>2026-04-05T11:59:46Z</time></trkpt><trkpt lat="41.15443090857461" lon="14.503869699736443"><ele>222.5</ele><time>2026-04-05T11:59:47Z</time></trkpt><trkpt lat="41.15451690295245" lon="14.503724131904683"><ele>220.25</ele><time>2026-04-05T11:59:48Z</time></trkpt><trkpt lat="41.15458616947709" lon="14.503593714960791"><ele>218.0</ele><time>2026-04-05T11:59:49Z</time></trkpt><trkpt lat="41.15466468422572" lon="14.503462583689387"><ele>218.0</ele><time>2026-04-05T11:59:50Z</time></trkpt><trkpt lat="41.154745897791" lon="14.503349255008523"><ele>218.0</ele><time>2026-04-05T11:59:51Z</time></trkpt><trkpt lat="41.15483128445769" lon="14.503243200227356"><ele>218.0</ele><time>2026-04-05T11:59:52Z</time></trkpt><trkpt lat="41.15491790032767" lon="14.503163894788866"><ele>218.0</ele><time>2026-04-05T11:59:53Z</time></trkpt><trkpt lat="41.15501426940211" lon="14.503119831830384"><ele>218.0</ele><time>2026-04-05T11:59:54Z</time></trkpt><trkpt lat="41.155119455756804" lon="14.503085812517792"><ele>215.0</ele><time>2026-04-05T11:59:55Z</time></trkpt><trkpt lat="41.15521777154195" lon="14.503067542304201"><ele>212.0</ele><time>2026-04-05T11:59:56Z</time></trkpt><trkpt lat="41.15532295072428" lon="14.502992113518975"><ele>209.0</ele><time>2026-04-05T11:59:57Z</time></trkpt><trkpt lat="41.15542427720212" lon="14.502923882535324"><ele>206.0</ele><time>2026-04-05T11:59:58Z</time></trkpt><trkpt lat="41.15552007197199" lon="14.502841459078693"><ele>203.0</ele><time>2026-04-05T11:59:59Z</time></trkpt><trkpt lat="41.15561225608124" lon="14.502761093441537"><ele>203.0</ele><time>2026-04-05T12:00:00Z</time></trkpt><trkpt lat="41.15567246244303" lon="14.50271031554609"><ele>203.0</ele><time>2026-04-05T12:00:01Z</time></trkpt><trkpt lat="41.15575549709364" lon="14.5026411907416"><ele>203.0</ele><time>2026-04-05T12:00:02Z</time></trkpt><trkpt lat="41.15586743946455" lon="14.502548593840679"><ele>203.0</ele><time>2026-04-05T12:00:03Z</time></trkpt><trkpt lat="41.15597240478674" lon="14.502464374773425"><ele>203.0</ele><time>2026-04-05T12:00:04Z</time></trkpt><trkpt lat="41.156043256200135" lon="14.502415089140479"><ele>200.4</ele><time>2026-04-05T12:00:05Z</time></trkpt><trkpt lat="41.15610197574042" lon="14.502378564458866"><ele>197.8</ele><time>2026-04-05T12:00:05.999Z</time></trkpt><trkpt lat="41.15618638829602" lon="14.50233980409685"><ele>195.2</ele><time>2026-04-05T12:00:06.999Z</time></trkpt><trkpt lat="41.156276469997294" lon="14.50233482211866"><ele>192.6</ele><time>2026-04-05T12:00:08.999Z</time></trkpt><trkpt lat="41.15637147516951" lon="14.50238022609354"><ele>190.0</ele><time>2026-04-05T12:00:09.999Z</time></trkpt><trkpt lat="41.15652563477756" lon="14.502452976257947"><ele>190.0</ele><time>2026-04-05T12:00:10.999Z</time></trkpt><trkpt lat="41.156667504620856" lon="14.502502323741368"><ele>190.0</ele><time>2026-04-05T12:00:11.999Z</time></trkpt><trkpt lat="41.156802217167" lon="14.502554737145793"><ele>190.0</ele><time>2026-04-05T12:00:12.999Z</time></trkpt><trkpt lat="41.15692154593044" lon="14.50260329931507"><ele>190.0</ele><time>2026-04-05T12:00:13.999Z</time></trkpt><trkpt lat="41.157035211226905" lon="14.5026461002517"><ele>190.0</ele><time>2026-04-05T12:00:14.999Z</time></trkpt><trkpt lat="41.15714500058445" lon="14.502681042303497"><ele>190.0</ele><time>2026-04-05T12:00:15.999Z</time></trkpt><trkpt lat="41.15725049616722" lon="14.502713039964274"><ele>190.0</ele><time>2026-04-05T12:00:16.999Z</time></trkpt><trkpt lat="41.157356636525996" lon="14.502722630262479"><ele>190.0</ele><time>2026-04-05T12:00:17.999Z</time></trkpt><trkpt lat="41.157467790404965" lon="14.502738265487293"><ele>190.0</ele><time>2026-04-05T12:00:18.999Z</time></trkpt><trkpt lat="41.15759581290251" lon="14.502755018237474"><ele>188.75</ele><time>2026-04-05T12:00:19.999Z</time></trkpt><trkpt lat="41.15771997123713" lon="14.502751193374726"><ele>187.5</ele><time>2026-04-05T12:00:20.999Z</time></trkpt><trkpt lat="41.15783011889804" lon="14.502722420541398"><ele>186.25</ele><time>2026-04-05T12:00:21.999Z</time></trkpt><trkpt lat="41.15794450465966" lon="14.502652503418549"><ele>185.0</ele><time>2026-04-05T12:00:22.999Z</time></trkpt><trkpt lat="41.158053759686254" lon="14.5025559859244"><ele>185.0</ele><time>2026-04-05T12:00:23.999Z</time></trkpt><trkpt lat="41.158191824968306" lon="14.502452281439878"><ele>185.0</ele><time>2026-04-05T12:00:24.999Z</time></trkpt><trkpt lat="41.15831826681017" lon="14.502340273940757"><ele>185.0</ele><time>2026-04-05T12:00:25.999Z</time></trkpt><trkpt lat="41.15845708499409" lon="14.502209715351439"><ele>182.0</ele><time>2026-04-05T12:00:26.999Z</time></trkpt><trkpt lat="41.15858781036834" lon="14.5020568716001"><ele>179.0</ele><time>2026-04-05T12:00:27.999Z</time></trkpt><trkpt lat="41.15873071944738" lon="14.501932995934274"><ele>176.0</ele><time>2026-04-05T12:00:28.999Z</time></trkpt><trkpt lat="41.15885338184639" lon="14.501795567608992"><ele>176.0</ele><time>2026-04-05T12:00:29.999Z</time></trkpt><trkpt lat="41.15898559362499" lon="14.501660475059467"><ele>176.0</ele><time>2026-04-05T12:00:30.999Z</time></trkpt><trkpt lat="41.15911402699304" lon="14.501553153435228"><ele>176.0</ele><time>2026-04-05T12:00:31.999Z</time></trkpt><trkpt lat="41.1592125780776" lon="14.501433742769008"><ele>175.0</ele><time>2026-04-05T12:00:32.999Z</time></trkpt><trkpt lat="41.15931028331931" lon="14.501343080367898"><ele>174.0</ele><time>2026-04-05T12:00:33.999Z</time></trkpt><trkpt lat="41.15940151681551" lon="14.501216873214478"><ele>173.0</ele><time>2026-04-05T12:00:34.999Z</time></trkpt><trkpt lat="41.15949837272896" lon="14.50104320394738"><ele>172.0</ele><time>2026-04-05T12:00:35.999Z</time></trkpt><trkpt lat="41.15958387775577" lon="14.500875606816116"><ele>172.0</ele><time>2026-04-05T12:00:36.999Z</time></trkpt><trkpt lat="41.15965568487364" lon="14.50073548190055"><ele>172.0</ele><time>2026-04-05T12:00:37.999Z</time></trkpt><trkpt lat="41.15973742617828" lon="14.500639212859713"><ele>172.0</ele><time>2026-04-05T12:00:38.999Z</time></trkpt><trkpt lat="41.15980972911352" lon="14.50055516990035"><ele>172.0</ele><time>2026-04-05T12:00:39.999Z</time></trkpt><trkpt lat="41.159913756988594" lon="14.500575768576908"><ele>172.0</ele><time>2026-04-05T12:00:40.999Z</time></trkpt><trkpt lat="41.160054917631754" lon="14.500567797332083"><ele>170.5</ele><time>2026-04-05T12:00:41.999Z</time></trkpt><trkpt lat="41.16019836712013" lon="14.500501568722257"><ele>169.0</ele><time>2026-04-05T12:00:42.999Z</time></trkpt><trkpt lat="41.16031859737196" lon="14.500420683511642"><ele>167.5</ele><time>2026-04-05T12:00:43.999Z</time></trkpt><trkpt lat="41.160416171884684" lon="14.500307674501558"><ele>166.0</ele><time>2026-04-05T12:00:44.999Z</time></trkpt><trkpt lat="41.160499784607836" lon="14.5001606361806"><ele>166.0</ele><time>2026-04-05T12:00:45.999Z</time></trkpt><trkpt lat="41.16058017848628" lon="14.50002786684374"><ele>166.0</ele><time>2026-04-05T12:00:46.999Z</time></trkpt><trkpt lat="41.16065013888956" lon="14.499911620751142"><ele>166.0</ele><time>2026-04-05T12:00:47.999Z</time></trkpt><trkpt lat="41.16073141784973" lon="14.499809056962876"><ele>166.0</ele><time>2026-04-05T12:00:48.999Z</time></trkpt><trkpt lat="41.160824797952095" lon="14.499733459104178"><ele>163.60000000000002</ele><time>2026-04-05T12:00:49.999Z</time></trkpt><trkpt lat="41.160895455247804" lon="14.499664411277275"><ele>161.20000000000002</ele><time>2026-04-05T12:00:50.999Z</time></trkpt><trkpt lat="41.16096077008883" lon="14.49962115618268"><ele>158.8</ele><time>2026-04-05T12:00:52.999Z</time></trkpt><trkpt lat="41.160980780721886" lon="14.499767598047193"><ele>156.4</ele><time>2026-04-05T12:00:54.999Z</time></trkpt><trkpt lat="41.16096526262864" lon="14.499926476898017"><ele>154.0</ele><time>2026-04-05T12:00:55.999Z</time></trkpt><trkpt lat="41.160950044561865" lon="14.500129098830644"><ele>154.0</ele><time>2026-04-05T12:00:56.999Z</time></trkpt><trkpt lat="41.16092842220784" lon="14.50034544121908"><ele>154.0</ele><time>2026-04-05T12:00:57.999Z</time></trkpt><trkpt lat="41.16093618774" lon="14.500556885971287"><ele>154.0</ele><time>2026-04-05T12:00:58.999Z</time></trkpt><trkpt lat="41.16091122104175" lon="14.500766875297966"><ele>152.0</ele><time>2026-04-05T12:00:59.999Z</time></trkpt><trkpt lat="41.1608810324657" lon="14.500942945203368"><ele>150.0</ele><time>2026-04-05T12:01:00.999Z</time></trkpt><trkpt lat="41.160880357788834" lon="14.501095865220076"><ele>148.0</ele><time>2026-04-05T12:01:01.999Z</time></trkpt><trkpt lat="41.160877383703344" lon="14.501232982686219"><ele>146.0</ele><time>2026-04-05T12:01:02.999Z</time></trkpt><trkpt lat="41.16091982130151" lon="14.501365743747638"><ele>143.5</ele><time>2026-04-05T12:01:03.999Z</time></trkpt><trkpt lat="41.16099830795735" lon="14.501480682751918"><ele>141.0</ele><time>2026-04-05T12:01:04.999Z</time></trkpt><trkpt lat="41.16112015700308" lon="14.50157961342762"><ele>138.5</ele><time>2026-04-05T12:01:05.999Z</time></trkpt><trkpt lat="41.161245127781285" lon="14.501657733276886"><ele>136.0</ele><time>2026-04-05T12:01:06.999Z</time></trkpt><trkpt lat="41.16139298674837" lon="14.50171389861155"><ele>135.66666666666669</ele><time>2026-04-05T12:01:07.999Z</time></trkpt><trkpt lat="41.16154697149977" lon="14.501747651029946"><ele>135.33333333333334</ele><time>2026-04-05T12:01:08.999Z</time></trkpt><trkpt lat="41.16170439224107" lon="14.501797819910701"><ele>135.0</ele><time>2026-04-05T12:01:09.999Z</time></trkpt><trkpt lat="41.16188856575024" lon="14.50180798536189"><ele>135.0</ele><time>2026-04-05T12:01:10.999Z</time></trkpt><trkpt lat="41.16206961523017" lon="14.501819492190311"><ele>135.0</ele><time>2026-04-05T12:01:11.999Z</time></trkpt><trkpt lat="41.162226068042486" lon="14.501796729708307"><ele>135.0</ele><time>2026-04-05T12:01:13Z</time></trkpt><trkpt lat="41.16235238574694" lon="14.501764356712417"><ele>137.33333333333334</ele><time>2026-04-05T12:01:14Z</time></trkpt><trkpt lat="41.16245246136502" lon="14.501740547193123"><ele>139.66666666666666</ele><time>2026-04-05T12:01:15Z</time></trkpt><trkpt lat="41.16252721036664" lon="14.50172513725813"><ele>142.0</ele><time>2026-04-05T12:01:16Z</time></trkpt><trkpt lat="41.162594315307324" lon="14.501759334775535"><ele>144.33333333333331</ele><time>2026-04-05T12:01:17Z</time></trkpt><trkpt lat="41.162650703978365" lon="14.501806542322322"><ele>146.66666666666666</ele><time>2026-04-05T12:01:18Z</time></trkpt><trkpt lat="41.16268752992488" lon="14.501887911576738"><ele>149.0</ele><time>2026-04-05T12:01:19Z</time></trkpt><trkpt lat="41.162756130634634" lon="14.502002537001724"><ele>150.6</ele><time>2026-04-05T12:01:20Z</time></trkpt><trkpt lat="41.16281496485639" lon="14.502191754452264"><ele>152.2</ele><time>2026-04-05T12:01:21Z</time></trkpt><trkpt lat="41.16285943202149" lon="14.502295290500301"><ele>153.79999999999998</ele><time>2026-04-05T12:01:22Z</time></trkpt><trkpt lat="41.16291574237754" lon="14.502401777566511"><ele>155.4</ele><time>2026-04-05T12:01:23Z</time></trkpt><trkpt lat="41.162950770490156" lon="14.502494077413116"><ele>157.0</ele><time>2026-04-05T12:01:24Z</time></trkpt><trkpt lat="41.16298349133602" lon="14.502570760435065"><ele>157.0</ele><time>2026-04-05T12:01:25Z</time></trkpt><trkpt lat="41.16302855262719" lon="14.50267305907531"><ele>157.0</ele><time>2026-04-05T12:01:29Z</time></trkpt><trkpt lat="41.163149371973525" lon="14.502607420695888"><ele>157.0</ele><time>2026-04-05T12:01:30Z</time></trkpt><trkpt lat="41.16325090758831" lon="14.502538988474384"><ele>157.0</ele><time>2026-04-05T12:01:31Z</time></trkpt><trkpt lat="41.163350968260886" lon="14.502462331736663"><ele>157.0</ele><time>2026-04-05T12:01:32Z</time></trkpt><trkpt lat="41.16345843346089" lon="14.502354493736561"><ele>156.5</ele><time>2026-04-05T12:01:33Z</time></trkpt><trkpt lat="41.163565012854065" lon="14.502246107831658"><ele>156.0</ele><time>2026-04-05T12:01:34Z</time></trkpt><trkpt lat="41.16366871084402" lon="14.502126906473247"><ele>155.5</ele><time>2026-04-05T12:01:35Z</time></trkpt><trkpt lat="41.16376831494339" lon="14.502038184057389"><ele>155.0</ele><time>2026-04-05T12:01:36Z</time></trkpt><trkpt lat="41.16384043459727" lon="14.501955304262847"><ele>155.0</ele><time>2026-04-05T12:01:37Z</time></trkpt><trkpt lat="41.16390939338891" lon="14.501873079099013"><ele>155.0</ele><time>2026-04-05T12:01:38Z</time></trkpt><trkpt lat="41.163955676065015" lon="14.501801054260849"><ele>155.0</ele><time>2026-04-05T12:01:39Z</time></trkpt><trkpt lat="41.16403620484658" lon="14.501703784485057"><ele>155.0</ele><time>2026-04-05T12:01:40Z</time></trkpt><trkpt lat="41.164112947052395" lon="14.501570702622548"><ele>155.0</ele><time>2026-04-05T12:01:41Z</time></trkpt><trkpt lat="41.16419039438207" lon="14.501424853341565"><ele>154.0</ele><time>2026-04-05T12:01:42Z</time></trkpt><trkpt lat="41.164249533029825" lon="14.501285020697303"><ele>153.0</ele><time>2026-04-05T12:01:43Z</time></trkpt><trkpt lat="41.164290805194646" lon="14.501092281774408"><ele>152.0</ele><time>2026-04-05T12:01:44Z</time></trkpt><trkpt lat="41.164313760095276" lon="14.500897608601818"><ele>151.0</ele><time>2026-04-05T12:01:45Z</time></trkpt><trkpt lat="41.16434742738566" lon="14.500701998889978"><ele>151.0</ele><time>2026-04-05T12:01:46Z</time></trkpt><trkpt lat="41.16436692591788" lon="14.500496912421733"><ele>151.0</ele><time>2026-04-05T12:01:47Z</time></trkpt><trkpt lat="41.16437727457596" lon="14.500280157408499"><ele>151.0</ele><time>2026-04-05T12:01:48Z</time></trkpt><trkpt lat="41.16437741129614" lon="14.500058159678442"><ele>149.75</ele><time>2026-04-05T12:01:49Z</time></trkpt><trkpt lat="41.16436835980911" lon="14.499863671650633"><ele>148.5</ele><time>2026-04-05T12:01:50Z</time></trkpt><trkpt lat="41.16436695945617" lon="14.499671938736727"><ele>147.25</ele><time>2026-04-05T12:01:51Z</time></trkpt><trkpt lat="41.164366745643036" lon="14.499483895788188"><ele>146.0</ele><time>2026-04-05T12:01:52Z</time></trkpt><trkpt lat="41.16436121038113" lon="14.499304553164777"><ele>145.0</ele><time>2026-04-05T12:01:53Z</time></trkpt><trkpt lat="41.164376519720996" lon="14.499133620862741"><ele>144.0</ele><time>2026-04-05T12:01:54Z</time></trkpt><trkpt lat="41.16437639010112" lon="14.498951160677667"><ele>143.0</ele><time>2026-04-05T12:01:55Z</time></trkpt><trkpt lat="41.16441624630436" lon="14.498770819090337"><ele>142.0</ele><time>2026-04-05T12:01:56Z</time></trkpt><trkpt lat="41.16451705625808" lon="14.498631232996411"><ele>140.33333333333334</ele><time>2026-04-05T12:01:57Z</time></trkpt><trkpt lat="41.16461797291363" lon="14.49848382637823"><ele>138.66666666666666</ele><time>2026-04-05T12:01:58Z</time></trkpt><trkpt lat="41.164742581554044" lon="14.498362600153612"><ele>137.0</ele><time>2026-04-05T12:01:59Z</time></trkpt><trkpt lat="41.16488523512825" lon="14.498267789298067"><ele>137.0</ele><time>2026-04-05T12:02:00Z</time></trkpt><trkpt lat="41.16504591052399" lon="14.498210347577956"><ele>137.0</ele><time>2026-04-05T12:02:01Z</time></trkpt><trkpt lat="41.16521309117109" lon="14.49817378687105"><ele>137.0</ele><time>2026-04-05T12:02:02Z</time></trkpt><trkpt lat="41.16538793965008" lon="14.498139900046038"><ele>137.0</ele><time>2026-04-05T12:02:03Z</time></trkpt><trkpt lat="41.16555264025255" lon="14.498109044721641"><ele>137.0</ele><time>2026-04-05T12:02:04Z</time></trkpt><trkpt lat="41.16570104150931" lon="14.498049294709293"><ele>137.0</ele><time>2026-04-05T12:02:05Z</time></trkpt><trkpt lat="41.16586056093835" lon="14.497992182135668"><ele>133.66666666666666</ele><time>2026-04-05T12:02:06Z</time></trkpt><trkpt lat="41.16599780917584" lon="14.49785699056362"><ele>130.33333333333334</ele><time>2026-04-05T12:02:07Z</time></trkpt><trkpt lat="41.166135029508325" lon="14.4977205111806"><ele>127.0</ele><time>2026-04-05T12:02:08Z</time></trkpt><trkpt lat="41.16628718214965" lon="14.497563160063748"><ele>127.0</ele><time>2026-04-05T12:02:08.999Z</time></trkpt><trkpt lat="41.1664210523274" lon="14.497401848138384"><ele>127.0</ele><time>2026-04-05T12:02:09.999Z</time></trkpt><trkpt lat="41.16652988836429" lon="14.497200188849218"><ele>127.0</ele><time>2026-04-05T12:02:10.999Z</time></trkpt><trkpt lat="41.16661425047692" lon="14.496940707136169"><ele>124.5</ele><time>2026-04-05T12:02:11.999Z</time></trkpt><trkpt lat="41.166675395922645" lon="14.496660537240643"><ele>122.0</ele><time>2026-04-05T12:02:12.999Z</time></trkpt><trkpt lat="41.16673081376354" lon="14.496354413025452"><ele>119.66666666666666</ele><time>2026-04-05T12:02:13.999Z</time></trkpt><trkpt lat="41.16678212428582" lon="14.496075872587978"><ele>117.33333333333334</ele><time>2026-04-05T12:02:14.999Z</time></trkpt><trkpt lat="41.16683503524404" lon="14.495812631042938"><ele>115.0</ele><time>2026-04-05T12:02:15.999Z</time></trkpt><trkpt lat="41.16690933243039" lon="14.495560269458885"><ele>114.0</ele><time>2026-04-05T12:02:16.999Z</time></trkpt><trkpt lat="41.16699159806752" lon="14.495303633414796"><ele>113.0</ele><time>2026-04-05T12:02:17.999Z</time></trkpt><trkpt lat="41.16710248958843" lon="14.495058306488701"><ele>112.0</ele><time>2026-04-05T12:02:18.999Z</time></trkpt><trkpt lat="41.16719520732368" lon="14.494816127042801"><ele>112.0</ele><time>2026-04-05T12:02:19.999Z</time></trkpt><trkpt lat="41.16728242910756" lon="14.494591975937904"><ele>112.0</ele><time>2026-04-05T12:02:20.999Z</time></trkpt><trkpt lat="41.167379922912296" lon="14.494380213994322"><ele>112.0</ele><time>2026-04-05T12:02:21.999Z</time></trkpt><trkpt lat="41.16748673223314" lon="14.494178202691554"><ele>111.33333333333334</ele><time>2026-04-05T12:02:22.999Z</time></trkpt><trkpt lat="41.16760467375977" lon="14.493989578791101"><ele>110.66666666666666</ele><time>2026-04-05T12:02:23.999Z</time></trkpt><trkpt lat="41.167746596001834" lon="14.493804454808577"><ele>110.0</ele><time>2026-04-05T12:02:24.999Z</time></trkpt><trkpt lat="41.16789233912705" lon="14.493628670570045"><ele>108.66666666666666</ele><time>2026-04-05T12:02:25.999Z</time></trkpt><trkpt lat="41.168029106671455" lon="14.493473188794328"><ele>107.33333333333334</ele><time>2026-04-05T12:02:26.999Z</time></trkpt><trkpt lat="41.168161789907536" lon="14.493337648437855"><ele>106.0</ele><time>2026-04-05T12:02:27.999Z</time></trkpt><trkpt lat="41.16827528985837" lon="14.493191535065295"><ele>106.0</ele><time>2026-04-05T12:02:28.999Z</time></trkpt><trkpt lat="41.16838196405732" lon="14.493058646895289"><ele>106.0</ele><time>2026-04-05T12:02:29.999Z</time></trkpt><trkpt lat="41.16845159348196" lon="14.492880677822626"><ele>106.0</ele><time>2026-04-05T12:02:30.999Z</time></trkpt><trkpt lat="41.168514774789465" lon="14.492667145867694"><ele>104.66666666666667</ele><time>2026-04-05T12:02:31.999Z</time></trkpt><trkpt lat="41.168626891280816" lon="14.492500707467011"><ele>103.33333333333334</ele><time>2026-04-05T12:02:32.999Z</time></trkpt><trkpt lat="41.16876067937115" lon="14.492320194780145"><ele>102.0</ele><time>2026-04-05T12:02:33.999Z</time></trkpt><trkpt lat="41.168910749030914" lon="14.492099546870373"><ele>100.66666666666666</ele><time>2026-04-05T12:02:34.999Z</time></trkpt><trkpt lat="41.16909202071105" lon="14.491911216977952"><ele>99.33333333333333</ele><time>2026-04-05T12:02:35.999Z</time></trkpt><trkpt lat="41.169257021814765" lon="14.491730940563375"><ele>98.0</ele><time>2026-04-05T12:02:36.999Z</time></trkpt><trkpt lat="41.16940920367999" lon="14.491560488423268"><ele>98.0</ele><time>2026-04-05T12:02:37.999Z</time></trkpt><trkpt lat="41.16954543423962" lon="14.491390167705767"><ele>98.0</ele><time>2026-04-05T12:02:38.999Z</time></trkpt><trkpt lat="41.16967094081074" lon="14.491208939237644"><ele>98.0</ele><time>2026-04-05T12:02:39.999Z</time></trkpt><trkpt lat="41.169820102059504" lon="14.491042695177999"><ele>97.0</ele><time>2026-04-05T12:02:40.999Z</time></trkpt><trkpt lat="41.169997015598724" lon="14.490892623920644"><ele>96.0</ele><time>2026-04-05T12:02:41.999Z</time></trkpt><trkpt lat="41.17019936103903" lon="14.490772979225307"><ele>95.0</ele><time>2026-04-05T12:02:42.999Z</time></trkpt><trkpt lat="41.17043075656475" lon="14.490652082005928"><ele>95.0</ele><time>2026-04-05T12:02:43.999Z</time></trkpt><trkpt lat="41.170678307397274" lon="14.49051274931444"><ele>95.0</ele><time>2026-04-05T12:02:44.999Z</time></trkpt><trkpt lat="41.17089388555317" lon="14.490402338376049"><ele>93.33333333333334</ele><time>2026-04-05T12:02:45.999Z</time></trkpt><trkpt lat="41.17108984994332" lon="14.490295936993197"><ele>91.66666666666667</ele><time>2026-04-05T12:02:46.999Z</time></trkpt><trkpt lat="41.171292670825224" lon="14.49019953363734"><ele>90.0</ele><time>2026-04-05T12:02:47.999Z</time></trkpt><trkpt lat="41.171522256966064" lon="14.490120948883716"><ele>90.5</ele><time>2026-04-05T12:02:48.999Z</time></trkpt><trkpt lat="41.17174633552446" lon="14.490003497006475"><ele>91.0</ele><time>2026-04-05T12:02:49.999Z</time></trkpt><trkpt lat="41.17194603648562" lon="14.48989359052886"><ele>91.0</ele><time>2026-04-05T12:02:50.999Z</time></trkpt><trkpt lat="41.17212845696386" lon="14.48976235852061"><ele>91.0</ele><time>2026-04-05T12:02:51.999Z</time></trkpt><trkpt lat="41.172313749119105" lon="14.489587425615277"><ele>91.0</ele><time>2026-04-05T12:02:52.999Z</time></trkpt><trkpt lat="41.17250036111159" lon="14.4893687895595"><ele>89.66666666666666</ele><time>2026-04-05T12:02:53.999Z</time></trkpt><trkpt lat="41.17268074979077" lon="14.489198146489315"><ele>88.33333333333333</ele><time>2026-04-05T12:02:54.999Z</time></trkpt><trkpt lat="41.17286959715341" lon="14.489051458311485"><ele>87.0</ele><time>2026-04-05T12:02:55.999Z</time></trkpt><trkpt lat="41.17308262964384" lon="14.488927566309616"><ele>87.0</ele><time>2026-04-05T12:02:56.999Z</time></trkpt><trkpt lat="41.17326260234386" lon="14.48877006343032"><ele>87.0</ele><time>2026-04-05T12:02:57.999Z</time></trkpt><trkpt lat="41.173431012357135" lon="14.488621273383144"><ele>87.0</ele><time>2026-04-05T12:02:58.999Z</time></trkpt><trkpt lat="41.17357204847556" lon="14.488448832474"><ele>85.66666666666667</ele><time>2026-04-05T12:02:59.999Z</time></trkpt><trkpt lat="41.173690719927485" lon="14.488267315843876"><ele>84.33333333333334</ele><time>2026-04-05T12:03:00.999Z</time></trkpt><trkpt lat="41.1737907772619" lon="14.488025418844579"><ele>83.0</ele><time>2026-04-05T12:03:01.999Z</time></trkpt><trkpt lat="41.17386030468035" lon="14.487736593852821"><ele>82.66666666666667</ele><time>2026-04-05T12:03:02.999Z</time></trkpt><trkpt lat="41.17392465068728" lon="14.487468147330583"><ele>82.33333333333333</ele><time>2026-04-05T12:03:03.999Z</time></trkpt><trkpt lat="41.1740368222371" lon="14.487262658734721"><ele>82.0</ele><time>2026-04-05T12:03:04.999Z</time></trkpt><trkpt lat="41.174179718711784" lon="14.487020564891983"><ele>80.0</ele><time>2026-04-05T12:03:05.999Z</time></trkpt><trkpt lat="41.17432129116852" lon="14.486782015817997"><ele>78.0</ele><time>2026-04-05T12:03:06.999Z</time></trkpt><trkpt lat="41.17443882089325" lon="14.486584014340211"><ele>76.0</ele><time>2026-04-05T12:03:07.999Z</time></trkpt><trkpt lat="41.17455076393086" lon="14.486425207939693"><ele>76.0</ele><time>2026-04-05T12:03:08.999Z</time></trkpt><trkpt lat="41.1747125851413" lon="14.486339707315347"><ele>76.0</ele><time>2026-04-05T12:03:09.999Z</time></trkpt><trkpt lat="41.17489312868414" lon="14.486246045926206"><ele>76.0</ele><time>2026-04-05T12:03:10.999Z</time></trkpt><trkpt lat="41.17503825048315" lon="14.486124259763553"><ele>75.66666666666666</ele><time>2026-04-05T12:03:11.999Z</time></trkpt><trkpt lat="41.17515987069554" lon="14.485991987779498"><ele>75.33333333333333</ele><time>2026-04-05T12:03:12.999Z</time></trkpt><trkpt lat="41.175247619165894" lon="14.485797579596673"><ele>75.0</ele><time>2026-04-05T12:03:13.999Z</time></trkpt><trkpt lat="41.175283984281" lon="14.485556258176173"><ele>74.33333333333333</ele><time>2026-04-05T12:03:14.999Z</time></trkpt><trkpt lat="41.17528727669645" lon="14.485292002509444"><ele>73.66666666666666</ele><time>2026-04-05T12:03:15.999Z</time></trkpt><trkpt lat="41.17525983658272" lon="14.484999962356083"><ele>73.0</ele><time>2026-04-05T12:03:16.999Z</time></trkpt><trkpt lat="41.17527039532416" lon="14.48475898309332"><ele>72.33333333333333</ele><time>2026-04-05T12:03:17.999Z</time></trkpt><trkpt lat="41.17531177004933" lon="14.484534817010045"><ele>71.66666666666667</ele><time>2026-04-05T12:03:19Z</time></trkpt><trkpt lat="41.175374792712944" lon="14.484307392130187"><ele>71.0</ele><time>2026-04-05T12:03:20Z</time></trkpt><trkpt lat="41.17546310990471" lon="14.484090651998148"><ele>71.0</ele><time>2026-04-05T12:03:21Z</time></trkpt><trkpt lat="41.17558510931136" lon="14.483862214510445"><ele>71.0</ele><time>2026-04-05T12:03:22Z</time></trkpt><trkpt lat="41.17573450721857" lon="14.48361188401086"><ele>69.0</ele><time>2026-04-05T12:03:23Z</time></trkpt><trkpt lat="41.17588457395927" lon="14.4833580240721"><ele>67.0</ele><time>2026-04-05T12:03:24Z</time></trkpt><trkpt lat="41.176030683818794" lon="14.483086577640702"><ele>65.0</ele><time>2026-04-05T12:03:25Z</time></trkpt><trkpt lat="41.17618807163051" lon="14.482816089139147"><ele>63.0</ele><time>2026-04-05T12:03:26Z</time></trkpt><trkpt lat="41.17634357499946" lon="14.482529961769806"><ele>63.0</ele><time>2026-04-05T12:03:27Z</time></trkpt><trkpt lat="41.1764925958525" lon="14.482242210828188"><ele>63.0</ele><time>2026-04-05T12:03:28Z</time></trkpt><trkpt lat="41.17662955364185" lon="14.48197548498493"><ele>62.66666666666667</ele><time>2026-04-05T12:03:29Z</time></trkpt><trkpt lat="41.17674705903157" lon="14.481726611974993"><ele>62.333333333333336</ele><time>2026-04-05T12:03:30Z</time></trkpt><trkpt lat="41.176853815318154" lon="14.48147815647804"><ele>62.0</ele><time>2026-04-05T12:03:31Z</time></trkpt><trkpt lat="41.17694894978095" lon="14.481243280493834"><ele>62.0</ele><time>2026-04-05T12:03:32Z</time></trkpt><trkpt lat="41.177041088309224" lon="14.481023887774294"><ele>62.0</ele><time>2026-04-05T12:03:33Z</time></trkpt><trkpt lat="41.177125067608316" lon="14.480818379075643"><ele>62.0</ele><time>2026-04-05T12:03:34Z</time></trkpt><trkpt lat="41.17716443210164" lon="14.480599689157618"><ele>61.333333333333336</ele><time>2026-04-05T12:03:35Z</time></trkpt><trkpt lat="41.17715752579654" lon="14.480346913136668"><ele>60.66666666666667</ele><time>2026-04-05T12:03:36Z</time></trkpt><trkpt lat="41.17715028077983" lon="14.480068755176347"><ele>60.0</ele><time>2026-04-05T12:03:37Z</time></trkpt><trkpt lat="41.177219509456876" lon="14.479796208001035"><ele>59.66666666666667</ele><time>2026-04-05T12:03:38Z</time></trkpt><trkpt lat="41.177267093744575" lon="14.479520462285045"><ele>59.333333333333336</ele><time>2026-04-05T12:03:39Z</time></trkpt><trkpt lat="41.177334438496764" lon="14.479291120391833"><ele>59.0</ele><time>2026-04-05T12:03:40Z</time></trkpt><trkpt lat="41.17739211420922" lon="14.479082861720041"><ele>59.0</ele><time>2026-04-05T12:03:41Z</time></trkpt><trkpt lat="41.17746641291877" lon="14.478874537951834"><ele>59.0</ele><time>2026-04-05T12:03:42Z</time></trkpt><trkpt lat="41.1775572244402" lon="14.47866608495464"><ele>59.0</ele><time>2026-04-05T12:03:43Z</time></trkpt><trkpt lat="41.17765465245235" lon="14.478480308079497"><ele>59.0</ele><time>2026-04-05T12:03:44Z</time></trkpt><trkpt lat="41.17775329675278" lon="14.478347759813637"><ele>59.0</ele><time>2026-04-05T12:03:45Z</time></trkpt><trkpt lat="41.17788910951041" lon="14.478132124660473"><ele>59.0</ele><time>2026-04-05T12:03:47Z</time></trkpt><trkpt lat="41.177955273105454" lon="14.478096551602155"><ele>59.0</ele><time>2026-04-05T12:03:48Z</time></trkpt><trkpt lat="41.17804462694686" lon="14.478028837441286"><ele>58.75</ele><time>2026-04-05T12:03:51Z</time></trkpt><trkpt lat="41.178074696475555" lon="14.477914175479697"><ele>58.5</ele><time>2026-04-05T12:03:52Z</time></trkpt><trkpt lat="41.178077197449014" lon="14.477752720623803"><ele>58.25</ele><time>2026-04-05T12:03:53Z</time></trkpt><trkpt lat="41.17808341877839" lon="14.477562443102448"><ele>58.0</ele><time>2026-04-05T12:03:54Z</time></trkpt><trkpt lat="41.178098015536335" lon="14.477316687774668"><ele>57.5</ele><time>2026-04-05T12:03:55Z</time></trkpt><trkpt lat="41.17811294371646" lon="14.477087774944643"><ele>57.0</ele><time>2026-04-05T12:03:56Z</time></trkpt><trkpt lat="41.17814582555681" lon="14.476908495726649"><ele>56.5</ele><time>2026-04-05T12:03:57Z</time></trkpt><trkpt lat="41.17821183676633" lon="14.476770250248183"><ele>56.0</ele><time>2026-04-05T12:03:58Z</time></trkpt><trkpt lat="41.178343267470055" lon="14.476694641458739"><ele>55.333333333333336</ele><time>2026-04-05T12:03:59Z</time></trkpt><trkpt lat="41.17848756047759" lon="14.476628088965324"><ele>54.66666666666667</ele><time>2026-04-05T12:04:00Z</time></trkpt><trkpt lat="41.178685828474464" lon="14.476576564489031"><ele>54.0</ele><time>2026-04-05T12:04:01Z</time></trkpt><trkpt lat="41.17891411479951" lon="14.476489537227067"><ele>53.66666666666667</ele><time>2026-04-05T12:04:02Z</time></trkpt><trkpt lat="41.17913225362303" lon="14.476399867918445"><ele>53.333333333333336</ele><time>2026-04-05T12:04:03Z</time></trkpt><trkpt lat="41.17930868386636" lon="14.476286573729553"><ele>53.0</ele><time>2026-04-05T12:04:04Z</time></trkpt><trkpt lat="41.17946866719886" lon="14.47617529637876"><ele>52.333333333333336</ele><time>2026-04-05T12:04:05Z</time></trkpt><trkpt lat="41.17959893514613" lon="14.476029799508018"><ele>51.66666666666667</ele><time>2026-04-05T12:04:06Z</time></trkpt><trkpt lat="41.17973126667713" lon="14.475911353417269"><ele>51.0</ele><time>2026-04-05T12:04:07Z</time></trkpt><trkpt lat="41.17983597459205" lon="14.475806021996556"><ele>50.33333333333333</ele><time>2026-04-05T12:04:08Z</time></trkpt><trkpt lat="41.17995202806657" lon="14.475697406606681"><ele>49.666666666666664</ele><time>2026-04-05T12:04:09Z</time></trkpt><trkpt lat="41.18012307775684" lon="14.47562550495239"><ele>49.0</ele><time>2026-04-05T12:04:10Z</time></trkpt><trkpt lat="41.180251387708374" lon="14.475619495782023"><ele>49.0</ele><time>2026-04-05T12:04:11Z</time></trkpt><trkpt lat="41.180434388527104" lon="14.47563018991275"><ele>49.0</ele><time>2026-04-05T12:04:12Z</time></trkpt><trkpt lat="41.18063422496393" lon="14.47564638120804"><ele>49.0</ele><time>2026-04-05T12:04:12.999Z</time></trkpt><trkpt lat="41.18083598461815" lon="14.47566122452807"><ele>49.33333333333333</ele><time>2026-04-05T12:04:13.999Z</time></trkpt><trkpt lat="41.18102129325886" lon="14.475649369006156"><ele>49.66666666666667</ele><time>2026-04-05T12:04:14.999Z</time></trkpt><trkpt lat="41.181210261627854" lon="14.475564549378218"><ele>50.0</ele><time>2026-04-05T12:04:15.999Z</time></trkpt><trkpt lat="41.18142054563034" lon="14.475500432906"><ele>50.66666666666667</ele><time>2026-04-05T12:04:16.999Z</time></trkpt><trkpt lat="41.18161149240797" lon="14.475422433830744"><ele>51.33333333333333</ele><time>2026-04-05T12:04:17.999Z</time></trkpt><trkpt lat="41.18178218679427" lon="14.47535389265807"><ele>52.0</ele><time>2026-04-05T12:04:18.999Z</time></trkpt><trkpt lat="41.1819369905778" lon="14.475291732312302"><ele>52.0</ele><time>2026-04-05T12:04:19.999Z</time></trkpt><trkpt lat="41.18208329092307" lon="14.475235324944123"><ele>52.0</ele><time>2026-04-05T12:04:20.999Z</time></trkpt><trkpt lat="41.18222077195773" lon="14.475184772300882"><ele>52.0</ele><time>2026-04-05T12:04:21.999Z</time></trkpt><trkpt lat="41.18235541700693" lon="14.475152582566924"><ele>52.0</ele><time>2026-04-05T12:04:22.999Z</time></trkpt><trkpt lat="41.18248010687423" lon="14.47516429586571"><ele>51.75</ele><time>2026-04-05T12:04:23.999Z</time></trkpt><trkpt lat="41.18259054618347" lon="14.475214549053776"><ele>51.5</ele><time>2026-04-05T12:04:24.999Z</time></trkpt><trkpt lat="41.182692713856156" lon="14.4753175906942"><ele>51.25</ele><time>2026-04-05T12:04:25.999Z</time></trkpt><trkpt lat="41.18280003503769" lon="14.475465114952735"><ele>51.0</ele><time>2026-04-05T12:04:26.999Z</time></trkpt><trkpt lat="41.18286845939241" lon="14.47563096971526"><ele>51.0</ele><time>2026-04-05T12:04:27.999Z</time></trkpt><trkpt lat="41.1829179058946" lon="14.475762123614409"><ele>51.0</ele><time>2026-04-05T12:04:28.999Z</time></trkpt><trkpt lat="41.182957451149605" lon="14.475839132576285"><ele>51.0</ele><time>2026-04-05T12:04:29.999Z</time></trkpt><trkpt lat="41.183021677862826" lon="14.47587639609887"><ele>51.0</ele><time>2026-04-05T12:04:30.999Z</time></trkpt><trkpt lat="41.18313070350234" lon="14.475814504589918"><ele>51.0</ele><time>2026-04-05T12:04:31.999Z</time></trkpt><trkpt lat="41.18326589649545" lon="14.475775252690465"><ele>47.666666666666664</ele><time>2026-04-05T12:04:32.999Z</time></trkpt><trkpt lat="41.18342090275659" lon="14.475709601766788"><ele>44.33333333333333</ele><time>2026-04-05T12:04:33.999Z</time></trkpt><trkpt lat="41.183579930253345" lon="14.475642942914924"><ele>41.0</ele><time>2026-04-05T12:04:34.999Z</time></trkpt><trkpt lat="41.1837486446501" lon="14.47557296307798"><ele>41.0</ele><time>2026-04-05T12:04:35.999Z</time></trkpt><trkpt lat="41.18393109299243" lon="14.475497284812992"><ele>41.0</ele><time>2026-04-05T12:04:36.999Z</time></trkpt><trkpt lat="41.184114709066236" lon="14.475420607389276"><ele>41.0</ele><time>2026-04-05T12:04:37.999Z</time></trkpt><trkpt lat="41.18430185226744" lon="14.475342994202439"><ele>41.0</ele><time>2026-04-05T12:04:38.999Z</time></trkpt><trkpt lat="41.1844965361881" lon="14.47526321379804"><ele>41.0</ele><time>2026-04-05T12:04:39.999Z</time></trkpt><trkpt lat="41.18469933711806" lon="14.475179955983611"><ele>41.0</ele><time>2026-04-05T12:04:40.999Z</time></trkpt><trkpt lat="41.18491104603188" lon="14.475099395111139"><ele>41.0</ele><time>2026-04-05T12:04:41.999Z</time></trkpt><trkpt lat="41.185122331566056" lon="14.475019216250027"><ele>41.0</ele><time>2026-04-05T12:04:42.999Z</time></trkpt><trkpt lat="41.1853340103345" lon="14.474933328260049"><ele>41.0</ele><time>2026-04-05T12:04:43.999Z</time></trkpt><trkpt lat="41.18555142069911" lon="14.474844887167022"><ele>42.0</ele><time>2026-04-05T12:04:44.999Z</time></trkpt><trkpt lat="41.18577678579932" lon="14.474752101896552"><ele>43.0</ele><time>2026-04-05T12:04:45.999Z</time></trkpt><trkpt lat="41.18600333118799" lon="14.474658288113353"><ele>40.5</ele><time>2026-04-05T12:04:46.999Z</time></trkpt><trkpt lat="41.1862408221761" lon="14.47455994166346"><ele>38.0</ele><time>2026-04-05T12:04:47.999Z</time></trkpt><trkpt lat="41.18648268507703" lon="14.47446028793019"><ele>39.5</ele><time>2026-04-05T12:04:48.999Z</time></trkpt><trkpt lat="41.186725313120654" lon="14.474361458254393"><ele>41.0</ele><time>2026-04-05T12:04:49.999Z</time></trkpt><trkpt lat="41.18697491379606" lon="14.474259297233383"><ele>41.0</ele><time>2026-04-05T12:04:50.999Z</time></trkpt><trkpt lat="41.18722789768672" lon="14.474152989905262"><ele>41.0</ele><time>2026-04-05T12:04:51.999Z</time></trkpt><trkpt lat="41.18748454713401" lon="14.474042368544099"><ele>41.0</ele><time>2026-04-05T12:04:52.999Z</time></trkpt><trkpt lat="41.187747279300815" lon="14.473936141480232"><ele>41.0</ele><time>2026-04-05T12:04:53.999Z</time></trkpt><trkpt lat="41.187980249665316" lon="14.47385381270056"><ele>40.0</ele><time>2026-04-05T12:04:54.999Z</time></trkpt><trkpt lat="41.18823157533976" lon="14.47374450227079"><ele>39.0</ele><time>2026-04-05T12:04:55.999Z</time></trkpt><trkpt lat="41.188474969620394" lon="14.473648092311048"><ele>39.0</ele><time>2026-04-05T12:04:56.999Z</time></trkpt><trkpt lat="41.18872604159714" lon="14.473551142768338"><ele>39.0</ele><time>2026-04-05T12:04:57.999Z</time></trkpt><trkpt lat="41.18897059484936" lon="14.473448227941098"><ele>39.0</ele><time>2026-04-05T12:04:58.999Z</time></trkpt><trkpt lat="41.18921157894198" lon="14.473316841665858"><ele>39.0</ele><time>2026-04-05T12:04:59.999Z</time></trkpt><trkpt lat="41.189462788273815" lon="14.47321905833773"><ele>39.0</ele><time>2026-04-05T12:05:00.999Z</time></trkpt><trkpt lat="41.18971098091589" lon="14.473145927141434"><ele>39.0</ele><time>2026-04-05T12:05:01.999Z</time></trkpt><trkpt lat="41.189953924606975" lon="14.473042375328022"><ele>40.0</ele><time>2026-04-05T12:05:02.999Z</time></trkpt><trkpt lat="41.190191834272305" lon="14.472922988131813"><ele>41.0</ele><time>2026-04-05T12:05:03.999Z</time></trkpt><trkpt lat="41.19041113812616" lon="14.472736902640918"><ele>41.0</ele><time>2026-04-05T12:05:04.999Z</time></trkpt><trkpt lat="41.19061127527152" lon="14.472521202727917"><ele>41.0</ele><time>2026-04-05T12:05:05.999Z</time></trkpt><trkpt lat="41.190797192422224" lon="14.472281167972916"><ele>42.0</ele><time>2026-04-05T12:05:06.999Z</time></trkpt><trkpt lat="41.19099650130016" lon="14.472052778996067"><ele>43.0</ele><time>2026-04-05T12:05:07.999Z</time></trkpt><trkpt lat="41.19118767334052" lon="14.47181862063663"><ele>43.0</ele><time>2026-04-05T12:05:08.999Z</time></trkpt><trkpt lat="41.191375824198815" lon="14.471585584890601"><ele>43.0</ele><time>2026-04-05T12:05:09.999Z</time></trkpt><trkpt lat="41.19154760022268" lon="14.471351452373083"><ele>44.333333333333336</ele><time>2026-04-05T12:05:10.999Z</time></trkpt><trkpt lat="41.19169987521395" lon="14.471160218276866"><ele>45.666666666666664</ele><time>2026-04-05T12:05:11.999Z</time></trkpt><trkpt lat="41.19184873722137" lon="14.470976754087477"><ele>47.0</ele><time>2026-04-05T12:05:12.999Z</time></trkpt><trkpt lat="41.19201024599519" lon="14.470806345311436"><ele>47.0</ele><time>2026-04-05T12:05:13.999Z</time></trkpt><trkpt lat="41.19215721272573" lon="14.470601187870376"><ele>47.0</ele><time>2026-04-05T12:05:14.999Z</time></trkpt><trkpt lat="41.192333802085884" lon="14.470442765825801"><ele>47.0</ele><time>2026-04-05T12:05:15.999Z</time></trkpt><trkpt lat="41.192517747952046" lon="14.470271629832302"><ele>47.5</ele><time>2026-04-05T12:05:16.999Z</time></trkpt><trkpt lat="41.19271205391874" lon="14.470092463838043"><ele>48.0</ele><time>2026-04-05T12:05:17.999Z</time></trkpt><trkpt lat="41.192903171891956" lon="14.469928886192786"><ele>48.0</ele><time>2026-04-05T12:05:18.999Z</time></trkpt><trkpt lat="41.19310253320593" lon="14.469762864195706"><ele>48.0</ele><time>2026-04-05T12:05:19.999Z</time></trkpt><trkpt lat="41.19331163485233" lon="14.469581448570963"><ele>48.0</ele><time>2026-04-05T12:05:20.999Z</time></trkpt><trkpt lat="41.19351470639015" lon="14.46940604624499"><ele>48.0</ele><time>2026-04-05T12:05:21.998Z</time></trkpt><trkpt lat="41.193728666013975" lon="14.469239742738086"><ele>48.0</ele><time>2026-04-05T12:05:22.998Z</time></trkpt><trkpt lat="41.1939552414587" lon="14.469074902800632"><ele>48.0</ele><time>2026-04-05T12:05:23.998Z</time></trkpt><trkpt lat="41.194202468908735" lon="14.468911519530934"><ele>47.5</ele><time>2026-04-05T12:05:25Z</time></trkpt><trkpt lat="41.19443956516357" lon="14.46876636856067"><ele>47.0</ele><time>2026-04-05T12:05:26Z</time></trkpt><trkpt lat="41.194661581769864" lon="14.468634645907152"><ele>46.5</ele><time>2026-04-05T12:05:27Z</time></trkpt><trkpt lat="41.1948831792132" lon="14.468500437423327"><ele>46.0</ele><time>2026-04-05T12:05:28Z</time></trkpt><trkpt lat="41.19510702048724" lon="14.468337864965443"><ele>46.0</ele><time>2026-04-05T12:05:29Z</time></trkpt><trkpt lat="41.19530424097229" lon="14.468182729569447"><ele>46.0</ele><time>2026-04-05T12:05:30Z</time></trkpt><trkpt lat="41.19548703502446" lon="14.468038955897974"><ele>46.0</ele><time>2026-04-05T12:05:31Z</time></trkpt><trkpt lat="41.19565392136601" lon="14.46790768827098"><ele>46.333333333333336</ele><time>2026-04-05T12:05:32Z</time></trkpt><trkpt lat="41.195791589193995" lon="14.46771677671293"><ele>46.666666666666664</ele><time>2026-04-05T12:05:33Z</time></trkpt><trkpt lat="41.195939303490206" lon="14.46758701485237"><ele>47.0</ele><time>2026-04-05T12:05:34Z</time></trkpt><trkpt lat="41.19607918031052" lon="14.467460941689305"><ele>47.0</ele><time>2026-04-05T12:05:35Z</time></trkpt><trkpt lat="41.19620508204032" lon="14.467344353104915"><ele>47.0</ele><time>2026-04-05T12:05:36Z</time></trkpt><trkpt lat="41.19633684346694" lon="14.46723274616238"><ele>47.0</ele><time>2026-04-05T12:05:37Z</time></trkpt><trkpt lat="41.196472326322365" lon="14.467114745852923"><ele>47.25</ele><time>2026-04-05T12:05:38Z</time></trkpt><trkpt lat="41.19659148935856" lon="14.46699767606333"><ele>47.5</ele><time>2026-04-05T12:05:39Z</time></trkpt><trkpt lat="41.196716884161646" lon="14.466884173330689"><ele>47.75</ele><time>2026-04-05T12:05:40Z</time></trkpt><trkpt lat="41.19683957541526" lon="14.466771791374669"><ele>48.0</ele><time>2026-04-05T12:05:41Z</time></trkpt><trkpt lat="41.196967911022845" lon="14.466658495454148"><ele>48.0</ele><time>2026-04-05T12:05:42Z</time></trkpt><trkpt lat="41.19709505161073" lon="14.46654799901271"><ele>48.0</ele><time>2026-04-05T12:05:43Z</time></trkpt><trkpt lat="41.197221623430195" lon="14.466431288529709"><ele>48.0</ele><time>2026-04-05T12:05:44Z</time></trkpt><trkpt lat="41.197344165201955" lon="14.466323647832345"><ele>48.25</ele><time>2026-04-05T12:05:45Z</time></trkpt><trkpt lat="41.197464505497436" lon="14.466216040332657"><ele>48.5</ele><time>2026-04-05T12:05:46Z</time></trkpt><trkpt lat="41.19757693445942" lon="14.46611724686315"><ele>48.75</ele><time>2026-04-05T12:05:47Z</time></trkpt><trkpt lat="41.19767849036746" lon="14.466028652676467"><ele>49.0</ele><time>2026-04-05T12:05:48Z</time></trkpt><trkpt lat="41.19777575128081" lon="14.46594378035884"><ele>49.0</ele><time>2026-04-05T12:05:49Z</time></trkpt><trkpt lat="41.19787296794828" lon="14.465852870157072"><ele>49.0</ele><time>2026-04-05T12:05:50Z</time></trkpt><trkpt lat="41.197965548405485" lon="14.465775721707889"><ele>49.0</ele><time>2026-04-05T12:05:51Z</time></trkpt><trkpt lat="41.19804868781709" lon="14.465708609261423"><ele>49.0</ele><time>2026-04-05T12:05:52Z</time></trkpt><trkpt lat="41.198119088174934" lon="14.465645516003732"><ele>49.0</ele><time>2026-04-05T12:05:53Z</time></trkpt><trkpt lat="41.19816044116146" lon="14.465574752232348"><ele>49.0</ele><time>2026-04-05T12:05:54Z</time></trkpt><trkpt lat="41.19815302393448" lon="14.465491567317299"><ele>49.0</ele><time>2026-04-05T12:05:55Z</time></trkpt><trkpt lat="41.19812284382011" lon="14.465399762435254"><ele>49.0</ele><time>2026-04-05T12:05:56Z</time></trkpt><trkpt lat="41.19805472739239" lon="14.465277855233351"><ele>49.0</ele><time>2026-04-05T12:05:57Z</time></trkpt><trkpt lat="41.197982725419244" lon="14.465127605682357"><ele>49.0</ele><time>2026-04-05T12:05:58Z</time></trkpt><trkpt lat="41.19793002995703" lon="14.46494823497546"><ele>48.666666666666664</ele><time>2026-04-05T12:05:59Z</time></trkpt><trkpt lat="41.197877246881234" lon="14.464735672772438"><ele>48.33333333333333</ele><time>2026-04-05T12:06:00Z</time></trkpt><trkpt lat="41.19781597415448" lon="14.4645413637719"><ele>48.0</ele><time>2026-04-05T12:06:01Z</time></trkpt><trkpt lat="41.197757301847275" lon="14.46437092309509"><ele>47.5</ele><time>2026-04-05T12:06:02Z</time></trkpt><trkpt lat="41.19770522177238" lon="14.464209900895698"><ele>47.0</ele><time>2026-04-05T12:06:03Z</time></trkpt><trkpt lat="41.19766654940246" lon="14.46405281267188"><ele>46.5</ele><time>2026-04-05T12:06:04Z</time></trkpt><trkpt lat="41.19763156670264" lon="14.463886056577758"><ele>46.0</ele><time>2026-04-05T12:06:05Z</time></trkpt><trkpt lat="41.197603577833945" lon="14.463716125991098"><ele>45.5</ele><time>2026-04-05T12:06:06Z</time></trkpt><trkpt lat="41.19759904509339" lon="14.463538330350357"><ele>45.0</ele><time>2026-04-05T12:06:07Z</time></trkpt><trkpt lat="41.19763044850903" lon="14.463372712526601"><ele>44.5</ele><time>2026-04-05T12:06:08Z</time></trkpt><trkpt lat="41.1976941697938" lon="14.463197025951947"><ele>44.0</ele><time>2026-04-05T12:06:09Z</time></trkpt><trkpt lat="41.19778780631411" lon="14.46303459416604"><ele>44.25</ele><time>2026-04-05T12:06:10Z</time></trkpt><trkpt lat="41.197892607415525" lon="14.462921240304155"><ele>44.5</ele><time>2026-04-05T12:06:11Z</time></trkpt><trkpt lat="41.198012360563034" lon="14.462841598135803"><ele>44.75</ele><time>2026-04-05T12:06:12Z</time></trkpt><trkpt lat="41.19817460086429" lon="14.46278929000935"><ele>45.0</ele><time>2026-04-05T12:06:12.999Z</time></trkpt><trkpt lat="41.19833674782649" lon="14.462715071567676"><ele>45.0</ele><time>2026-04-05T12:06:13.999Z</time></trkpt><trkpt lat="41.19853125406596" lon="14.462633452388426"><ele>45.0</ele><time>2026-04-05T12:06:14.999Z</time></trkpt><trkpt lat="41.19872653401597" lon="14.462555382238264"><ele>45.0</ele><time>2026-04-05T12:06:15.999Z</time></trkpt><trkpt lat="41.19892375977396" lon="14.462479196718865"><ele>46.33333333333333</ele><time>2026-04-05T12:06:16.999Z</time></trkpt><trkpt lat="41.19912253555728" lon="14.462400668270606"><ele>47.666666666666664</ele><time>2026-04-05T12:06:17.999Z</time></trkpt><trkpt lat="41.19929878459985" lon="14.462331036638014"><ele>49.0</ele><time>2026-04-05T12:06:18.999Z</time></trkpt><trkpt lat="41.199463897938095" lon="14.462262038791465"><ele>49.0</ele><time>2026-04-05T12:06:19.999Z</time></trkpt><trkpt lat="41.19963289417748" lon="14.462189461919856"><ele>49.0</ele><time>2026-04-05T12:06:20.999Z</time></trkpt><trkpt lat="41.199808066448476" lon="14.46211531332732"><ele>49.0</ele><time>2026-04-05T12:06:21.999Z</time></trkpt><trkpt lat="41.19997677713153" lon="14.462039441645647"><ele>50.33333333333333</ele><time>2026-04-05T12:06:22.999Z</time></trkpt><trkpt lat="41.200134944593465" lon="14.4619605809163"><ele>51.66666666666667</ele><time>2026-04-05T12:06:23.999Z</time></trkpt><trkpt lat="41.200296600702764" lon="14.461898369580721"><ele>53.0</ele><time>2026-04-05T12:06:24.999Z</time></trkpt><trkpt lat="41.200459758481074" lon="14.461839211386481"><ele>53.0</ele><time>2026-04-05T12:06:25.999Z</time></trkpt><trkpt lat="41.20063800691505" lon="14.461769602095876"><ele>53.0</ele><time>2026-04-05T12:06:26.999Z</time></trkpt><trkpt lat="41.20081779557165" lon="14.461690955674879"><ele>53.0</ele><time>2026-04-05T12:06:27.999Z</time></trkpt><trkpt lat="41.200984442943465" lon="14.461617253377627"><ele>54.0</ele><time>2026-04-05T12:06:28.999Z</time></trkpt><trkpt lat="41.201133123361245" lon="14.461553472012653"><ele>55.0</ele><time>2026-04-05T12:06:29.999Z</time></trkpt><trkpt lat="41.201275596602045" lon="14.46148998734946"><ele>56.0</ele><time>2026-04-05T12:06:30.999Z</time></trkpt><trkpt lat="41.201418933453304" lon="14.461423786872738"><ele>56.75</ele><time>2026-04-05T12:06:31.999Z</time></trkpt><trkpt lat="41.20154163774216" lon="14.461370303180889"><ele>57.5</ele><time>2026-04-05T12:06:32.999Z</time></trkpt><trkpt lat="41.20165906063495" lon="14.461331214522907"><ele>58.25</ele><time>2026-04-05T12:06:33.999Z</time></trkpt><trkpt lat="41.201775646259264" lon="14.461297842796972"><ele>59.0</ele><time>2026-04-05T12:06:34.999Z</time></trkpt><trkpt lat="41.20189245262529" lon="14.4612501885885"><ele>59.0</ele><time>2026-04-05T12:06:35.999Z</time></trkpt><trkpt lat="41.20199586058622" lon="14.46120373650578"><ele>59.00000000000001</ele><time>2026-04-05T12:06:36.999Z</time></trkpt><trkpt lat="41.20208668362038" lon="14.461152356982288"><ele>59.00000000000001</ele><time>2026-04-05T12:06:37.999Z</time></trkpt><trkpt lat="41.20217296141428" lon="14.461117225504644"><ele>59.0</ele><time>2026-04-05T12:06:38.999Z</time></trkpt><trkpt lat="41.202257641230794" lon="14.461110664488857"><ele>59.0</ele><time>2026-04-05T12:06:39.999Z</time></trkpt><trkpt lat="41.20223210579885" lon="14.460820964040247"><ele>59.0</ele><time>2026-04-05T12:06:44.999Z</time></trkpt><trkpt lat="41.20217853403365" lon="14.460636547830537"><ele>59.0</ele><time>2026-04-05T12:06:45.999Z</time></trkpt><trkpt lat="41.20215793130289" lon="14.460464624924219"><ele>59.0</ele><time>2026-04-05T12:06:46.999Z</time></trkpt><trkpt lat="41.202122710200655" lon="14.460294435661588"><ele>59.0</ele><time>2026-04-05T12:06:47.999Z</time></trkpt><trkpt lat="41.2020567046688" lon="14.460144958049783"><ele>57.66666666666667</ele><time>2026-04-05T12:06:48.999Z</time></trkpt><trkpt lat="41.20203990607734" lon="14.459952957028044"><ele>56.33333333333333</ele><time>2026-04-05T12:06:49.999Z</time></trkpt><trkpt lat="41.20197595612349" lon="14.45972510162898"><ele>55.0</ele><time>2026-04-05T12:06:50.999Z</time></trkpt><trkpt lat="41.20193495773939" lon="14.459496051259883"><ele>54.0</ele><time>2026-04-05T12:06:51.999Z</time></trkpt><trkpt lat="41.20188828206101" lon="14.459264276896963"><ele>53.0</ele><time>2026-04-05T12:06:52.999Z</time></trkpt><trkpt lat="41.2018428505576" lon="14.459052747733402"><ele>52.0</ele><time>2026-04-05T12:06:53.999Z</time></trkpt><trkpt lat="41.20180598026231" lon="14.458852411490607"><ele>50.0</ele><time>2026-04-05T12:06:54.999Z</time></trkpt><trkpt lat="41.20177952810566" lon="14.458637408291048"><ele>48.0</ele><time>2026-04-05T12:06:55.999Z</time></trkpt><trkpt lat="41.20178123435183" lon="14.458411411821167"><ele>46.0</ele><time>2026-04-05T12:06:56.999Z</time></trkpt><trkpt lat="41.20179166454983" lon="14.458190069343338"><ele>46.0</ele><time>2026-04-05T12:06:57.999Z</time></trkpt><trkpt lat="41.20181002342812" lon="14.457991015216342"><ele>46.0</ele><time>2026-04-05T12:06:58.999Z</time></trkpt><trkpt lat="41.20182876520265" lon="14.457835500764329"><ele>46.0</ele><time>2026-04-05T12:06:59.999Z</time></trkpt><trkpt lat="41.201858865461496" lon="14.457723916078331"><ele>46.0</ele><time>2026-04-05T12:07:00.999Z</time></trkpt><trkpt lat="41.20193571867812" lon="14.457640218455875"><ele>45.75</ele><time>2026-04-05T12:07:01.999Z</time></trkpt><trkpt lat="41.202022292672865" lon="14.45757085980442"><ele>45.5</ele><time>2026-04-05T12:07:02.999Z</time></trkpt><trkpt lat="41.20215158674392" lon="14.457523521591325"><ele>45.25</ele><time>2026-04-05T12:07:03.999Z</time></trkpt><trkpt lat="41.20228430219379" lon="14.457506987334634"><ele>45.0</ele><time>2026-04-05T12:07:04.999Z</time></trkpt><trkpt lat="41.20243607016244" lon="14.457508254498917"><ele>45.0</ele><time>2026-04-05T12:07:05.999Z</time></trkpt><trkpt lat="41.20260282657019" lon="14.457518445107878"><ele>45.0</ele><time>2026-04-05T12:07:06.999Z</time></trkpt><trkpt lat="41.20277298833816" lon="14.457520155599962"><ele>45.0</ele><time>2026-04-05T12:07:07.999Z</time></trkpt><trkpt lat="41.20294862469585" lon="14.457494703354694"><ele>45.0</ele><time>2026-04-05T12:07:08.999Z</time></trkpt><trkpt lat="41.203119242565315" lon="14.457429194445094"><ele>45.0</ele><time>2026-04-05T12:07:09.999Z</time></trkpt><trkpt lat="41.203272123429905" lon="14.457366626445307"><ele>45.0</ele><time>2026-04-05T12:07:10.999Z</time></trkpt><trkpt lat="41.20342928773756" lon="14.45727508503193"><ele>45.333333333333336</ele><time>2026-04-05T12:07:11.999Z</time></trkpt><trkpt lat="41.20357677160379" lon="14.457150358158707"><ele>45.66666666666667</ele><time>2026-04-05T12:07:12.999Z</time></trkpt><trkpt lat="41.2037517086203" lon="14.457056387623759"><ele>46.0</ele><time>2026-04-05T12:07:13.999Z</time></trkpt><trkpt lat="41.203944460057265" lon="14.456929531846837"><ele>46.0</ele><time>2026-04-05T12:07:14.999Z</time></trkpt><trkpt lat="41.20412015536389" lon="14.456813901264493"><ele>46.0</ele><time>2026-04-05T12:07:15.999Z</time></trkpt><trkpt lat="41.20427683201064" lon="14.456708058538485"><ele>46.0</ele><time>2026-04-05T12:07:16.999Z</time></trkpt><trkpt lat="41.20441488941604" lon="14.456625012895364"><ele>46.0</ele><time>2026-04-05T12:07:17.999Z</time></trkpt><trkpt lat="41.20454125351991" lon="14.456567661191587"><ele>46.0</ele><time>2026-04-05T12:07:18.999Z</time></trkpt><trkpt lat="41.20466465436648" lon="14.456522387883885"><ele>46.0</ele><time>2026-04-05T12:07:19.999Z</time></trkpt><trkpt lat="41.20477401364562" lon="14.45646933497436"><ele>46.0</ele><time>2026-04-05T12:07:20.999Z</time></trkpt><trkpt lat="41.20485809099151" lon="14.456395949863825"><ele>46.8</ele><time>2026-04-05T12:07:21.998Z</time></trkpt><trkpt lat="41.204892363666026" lon="14.456258008440505"><ele>47.599999999999994</ele><time>2026-04-05T12:07:22.998Z</time></trkpt><trkpt lat="41.20489399403825" lon="14.45610607394834"><ele>48.4</ele><time>2026-04-05T12:07:23.998Z</time></trkpt><trkpt lat="41.20490169487901" lon="14.455940791366586"><ele>49.2</ele><time>2026-04-05T12:07:24.998Z</time></trkpt><trkpt lat="41.20492414395846" lon="14.45581704244526"><ele>50.0</ele><time>2026-04-05T12:07:25.998Z</time></trkpt><trkpt lat="41.204960753164684" lon="14.455686945400354"><ele>50.0</ele><time>2026-04-05T12:07:26.998Z</time></trkpt><trkpt lat="41.205036938526725" lon="14.455569491073788"><ele>50.0</ele><time>2026-04-05T12:07:27.998Z</time></trkpt><trkpt lat="41.20509200686043" lon="14.455440435777316"><ele>50.0</ele><time>2026-04-05T12:07:28.998Z</time></trkpt><trkpt lat="41.20513510775032" lon="14.455294555849257"><ele>50.0</ele><time>2026-04-05T12:07:29.998Z</time></trkpt><trkpt lat="41.20519125877251" lon="14.455162041927613"><ele>49.833333333333336</ele><time>2026-04-05T12:07:31Z</time></trkpt><trkpt lat="41.20523989442308" lon="14.455050901810036"><ele>49.66666666666667</ele><time>2026-04-05T12:07:32Z</time></trkpt><trkpt lat="41.20530421215034" lon="14.454978149509039"><ele>49.5</ele><time>2026-04-05T12:07:33Z</time></trkpt><trkpt lat="41.20536684068647" lon="14.454899456259506"><ele>49.33333333333333</ele><time>2026-04-05T12:07:34Z</time></trkpt><trkpt lat="41.205445755237356" lon="14.45483255941422"><ele>49.166666666666664</ele><time>2026-04-05T12:07:35Z</time></trkpt><trkpt lat="41.2055206118807" lon="14.454811284893658"><ele>49.0</ele><time>2026-04-05T12:07:36Z</time></trkpt><trkpt lat="41.20559912962118" lon="14.454791592622179"><ele>49.6</ele><time>2026-04-05T12:07:37Z</time></trkpt><trkpt lat="41.20569395010139" lon="14.454767021793385"><ele>50.2</ele><time>2026-04-05T12:07:38Z</time></trkpt><trkpt lat="41.20580753433997" lon="14.454737588715865"><ele>50.800000000000004</ele><time>2026-04-05T12:07:39Z</time></trkpt><trkpt lat="41.205915213870504" lon="14.45470968573734"><ele>51.400000000000006</ele><time>2026-04-05T12:07:40Z</time></trkpt><trkpt lat="41.206013097537316" lon="14.454691442471699"><ele>52.0</ele><time>2026-04-05T12:07:41Z</time></trkpt><trkpt lat="41.20609673014889" lon="14.454690615529776"><ele>52.0</ele><time>2026-04-05T12:07:42Z</time></trkpt><trkpt lat="41.206179163505915" lon="14.454712833969364"><ele>52.0</ele><time>2026-04-05T12:07:43Z</time></trkpt><trkpt lat="41.20626293548331" lon="14.454765770552827"><ele>52.0</ele><time>2026-04-05T12:07:44Z</time></trkpt><trkpt lat="41.2063521060108" lon="14.454827999107835"><ele>52.0</ele><time>2026-04-05T12:07:45Z</time></trkpt><trkpt lat="41.2064540768372" lon="14.454887571252044"><ele>52.0</ele><time>2026-04-05T12:07:46Z</time></trkpt><trkpt lat="41.20656321234843" lon="14.454909380167681"><ele>50.75</ele><time>2026-04-05T12:07:47Z</time></trkpt><trkpt lat="41.206679665212334" lon="14.454909910987928"><ele>49.5</ele><time>2026-04-05T12:07:48Z</time></trkpt><trkpt lat="41.20680454412961" lon="14.45489886231737"><ele>48.25</ele><time>2026-04-05T12:07:49Z</time></trkpt><trkpt lat="41.20693344565351" lon="14.454869055214312"><ele>47.0</ele><time>2026-04-05T12:07:50Z</time></trkpt><trkpt lat="41.20705878004628" lon="14.454827711727088"><ele>47.0</ele><time>2026-04-05T12:07:51Z</time></trkpt><trkpt lat="41.207172428227025" lon="14.454772775831579"><ele>47.0</ele><time>2026-04-05T12:07:52Z</time></trkpt><trkpt lat="41.20728161453814" lon="14.454704156931028"><ele>47.0</ele><time>2026-04-05T12:07:53Z</time></trkpt><trkpt lat="41.207390634279214" lon="14.454611149978192"><ele>47.0</ele><time>2026-04-05T12:07:54Z</time></trkpt><trkpt lat="41.20748799683889" lon="14.454510552433675"><ele>46.2</ele><time>2026-04-05T12:07:55Z</time></trkpt><trkpt lat="41.207575553332624" lon="14.45440915151958"><ele>45.400000000000006</ele><time>2026-04-05T12:07:56Z</time></trkpt><trkpt lat="41.207660512282324" lon="14.454306791412911"><ele>44.599999999999994</ele><time>2026-04-05T12:07:57Z</time></trkpt><trkpt lat="41.20772876152739" lon="14.454197036172621"><ele>43.8</ele><time>2026-04-05T12:07:58Z</time></trkpt><trkpt lat="41.20775383303794" lon="14.45407835422819"><ele>43.0</ele><time>2026-04-05T12:07:59Z</time></trkpt><trkpt lat="41.207813439300025" lon="14.454007080985134"><ele>43.0</ele><time>2026-04-05T12:08:00Z</time></trkpt><trkpt lat="41.207870294126145" lon="14.45396962845997"><ele>43.0</ele><time>2026-04-05T12:08:01Z</time></trkpt><trkpt lat="41.207967206623195" lon="14.453947678668213"><ele>43.0</ele><time>2026-04-05T12:08:02Z</time></trkpt><trkpt lat="41.20806327143331" lon="14.453911455276033"><ele>43.0</ele><time>2026-04-05T12:08:03Z</time></trkpt><trkpt lat="41.20815293144707" lon="14.453904157216488"><ele>43.0</ele><time>2026-04-05T12:08:04Z</time></trkpt><trkpt lat="41.20824860404613" lon="14.45391440554142"><ele>43.0</ele><time>2026-04-05T12:08:05Z</time></trkpt><trkpt lat="41.208348972810306" lon="14.4539590693507"><ele>44.599999999999994</ele><time>2026-04-05T12:08:06Z</time></trkpt><trkpt lat="41.208448232315405" lon="14.4539760712128"><ele>46.199999999999996</ele><time>2026-04-05T12:08:07Z</time></trkpt><trkpt lat="41.20855619910009" lon="14.453948818294952"><ele>47.8</ele><time>2026-04-05T12:08:08Z</time></trkpt><trkpt lat="41.20865763312776" lon="14.453888250849166"><ele>49.4</ele><time>2026-04-05T12:08:09Z</time></trkpt><trkpt lat="41.20874774733089" lon="14.453841134863664"><ele>51.0</ele><time>2026-04-05T12:08:10Z</time></trkpt><trkpt lat="41.20885387481357" lon="14.453791607208359"><ele>51.599999999999994</ele><time>2026-04-05T12:08:11Z</time></trkpt><trkpt lat="41.20893129817557" lon="14.453758111198043"><ele>52.2</ele><time>2026-04-05T12:08:12Z</time></trkpt><trkpt lat="41.209040948808266" lon="14.453728124007473"><ele>52.800000000000004</ele><time>2026-04-05T12:08:14Z</time></trkpt><trkpt lat="41.2090665038127" lon="14.453901007381003"><ele>53.400000000000006</ele><time>2026-04-05T12:08:17.999Z</time></trkpt><trkpt lat="41.209070410693954" lon="14.454019117091837"><ele>54.0</ele><time>2026-04-05T12:08:18.999Z</time></trkpt><trkpt lat="41.209080149265446" lon="14.454162928300832"><ele>54.66666666666667</ele><time>2026-04-05T12:08:19.999Z</time></trkpt><trkpt lat="41.209102342857896" lon="14.454376651478494"><ele>55.333333333333336</ele><time>2026-04-05T12:08:20.999Z</time></trkpt><trkpt lat="41.20911382801112" lon="14.454635889361535"><ele>56.0</ele><time>2026-04-05T12:08:21.999Z</time></trkpt><trkpt lat="41.20913734819526" lon="14.45488892233842"><ele>57.0</ele><time>2026-04-05T12:08:22.999Z</time></trkpt><trkpt lat="41.20915929293499" lon="14.45511090111536"><ele>58.0</ele><time>2026-04-05T12:08:23.999Z</time></trkpt><trkpt lat="41.2091706890666" lon="14.455332460952357"><ele>59.0</ele><time>2026-04-05T12:08:24.999Z</time></trkpt><trkpt lat="41.209202238342264" lon="14.455542646941504"><ele>59.25</ele><time>2026-04-05T12:08:25.999Z</time></trkpt><trkpt lat="41.20922384581243" lon="14.455739328755541"><ele>59.5</ele><time>2026-04-05T12:08:26.999Z</time></trkpt><trkpt lat="41.20924685351708" lon="14.45592255914592"><ele>59.75</ele><time>2026-04-05T12:08:27.999Z</time></trkpt><trkpt lat="41.20927436911029" lon="14.456100986357551"><ele>60.0</ele><time>2026-04-05T12:08:28.999Z</time></trkpt><trkpt lat="41.209289205459164" lon="14.45623966517298"><ele>59.8</ele><time>2026-04-05T12:08:29.999Z</time></trkpt><trkpt lat="41.20924443519766" lon="14.456323616531664"><ele>59.6</ele><time>2026-04-05T12:08:30.999Z</time></trkpt><trkpt lat="41.20917964264699" lon="14.456409841311219"><ele>59.400000000000006</ele><time>2026-04-05T12:08:31.999Z</time></trkpt><trkpt lat="41.20909609199056" lon="14.456444126842332"><ele>59.2</ele><time>2026-04-05T12:08:32.999Z</time></trkpt><trkpt lat="41.20897901594717" lon="14.456479931192915"><ele>59.0</ele><time>2026-04-05T12:08:33.999Z</time></trkpt><trkpt lat="41.20888162777484" lon="14.456505814436207"><ele>58.50000000000001</ele><time>2026-04-05T12:08:34.999Z</time></trkpt><trkpt lat="41.20879559704461" lon="14.456537075291779"><ele>58.0</ele><time>2026-04-05T12:08:35.999Z</time></trkpt><trkpt lat="41.208722504117965" lon="14.456577535579836"><ele>57.5</ele><time>2026-04-05T12:08:36.999Z</time></trkpt><trkpt lat="41.20868087701582" lon="14.45665729649198"><ele>57.0</ele><time>2026-04-05T12:08:37.999Z</time></trkpt><trkpt lat="41.20867266303653" lon="14.456748863440327"><ele>56.50000000000001</ele><time>2026-04-05T12:08:38.999Z</time></trkpt><trkpt lat="41.20869899724653" lon="14.456858367591737"><ele>56.0</ele><time>2026-04-05T12:08:39.999Z</time></trkpt><trkpt lat="41.20871255902395" lon="14.457012666396789"><ele>56.0</ele><time>2026-04-05T12:08:40.999Z</time></trkpt><trkpt lat="41.2087427525246" lon="14.457174383905754"><ele>55.99999999999999</ele><time>2026-04-05T12:08:41.999Z</time></trkpt><trkpt lat="41.20878382141309" lon="14.457317913246952"><ele>55.99999999999999</ele><time>2026-04-05T12:08:42.999Z</time></trkpt><trkpt lat="41.20880579492629" lon="14.457441962701738"><ele>56.0</ele><time>2026-04-05T12:08:43.999Z</time></trkpt><trkpt lat="41.20882130590079" lon="14.457554735396513"><ele>56.0</ele><time>2026-04-05T12:08:44.999Z</time></trkpt><trkpt lat="41.20884124305917" lon="14.457650847678316"><ele>56.00000000000001</ele><time>2026-04-05T12:08:45.999Z</time></trkpt><trkpt lat="41.208849060766994" lon="14.457741890964247"><ele>56.0</ele><time>2026-04-05T12:08:46.999Z</time></trkpt><trkpt lat="41.20886766503062" lon="14.457831555289692"><ele>56.0</ele><time>2026-04-05T12:08:50.999Z</time></trkpt><trkpt lat="41.208988855839415" lon="14.457830349034325"><ele>56.0</ele><time>2026-04-05T12:08:51.999Z</time></trkpt><trkpt lat="41.20906159066787" lon="14.457784234270521"><ele>56.00000000000001</ele><time>2026-04-05T12:08:52.999Z</time></trkpt><trkpt lat="41.20915121362113" lon="14.457725890941102"><ele>56.0</ele><time>2026-04-05T12:08:53.999Z</time></trkpt><trkpt lat="41.209284291251905" lon="14.457633687585853"><ele>57.333333333333336</ele><time>2026-04-05T12:08:54.999Z</time></trkpt><trkpt lat="41.2094074878346" lon="14.457547618736935"><ele>58.66666666666667</ele><time>2026-04-05T12:08:55.999Z</time></trkpt><trkpt lat="41.209550554456996" lon="14.457450370035094"><ele>60.0</ele><time>2026-04-05T12:08:56.999Z</time></trkpt><trkpt lat="41.20969734021126" lon="14.457355561628411"><ele>60.0</ele><time>2026-04-05T12:08:57.999Z</time></trkpt><trkpt lat="41.20985086974652" lon="14.457256471836965"><ele>60.0</ele><time>2026-04-05T12:08:58.999Z</time></trkpt><trkpt lat="41.210007658464455" lon="14.457154093566505"><ele>60.0</ele><time>2026-04-05T12:08:59.999Z</time></trkpt><trkpt lat="41.210154324945364" lon="14.457059515063468"><ele>60.0</ele><time>2026-04-05T12:09:00.999Z</time></trkpt><trkpt lat="41.21028567556868" lon="14.456976005176937"><ele>60.0</ele><time>2026-04-05T12:09:01.999Z</time></trkpt><trkpt lat="41.210425071949814" lon="14.456887379968666"><ele>60.0</ele><time>2026-04-05T12:09:02.999Z</time></trkpt><trkpt lat="41.21059002821641" lon="14.456782504337738"><ele>60.33333333333333</ele><time>2026-04-05T12:09:03.999Z</time></trkpt><trkpt lat="41.21076046287297" lon="14.456683469534134"><ele>60.666666666666664</ele><time>2026-04-05T12:09:04.999Z</time></trkpt><trkpt lat="41.210946306818876" lon="14.456581390787349"><ele>61.0</ele><time>2026-04-05T12:09:05.999Z</time></trkpt><trkpt lat="41.21112344684452" lon="14.456482028552104"><ele>61.0</ele><time>2026-04-05T12:09:06.999Z</time></trkpt><trkpt lat="41.2112914862299" lon="14.456360503954688"><ele>61.0</ele><time>2026-04-05T12:09:07.999Z</time></trkpt><trkpt lat="41.211472171849906" lon="14.45627716575308"><ele>61.0</ele><time>2026-04-05T12:09:08.999Z</time></trkpt><trkpt lat="41.21166024910564" lon="14.456163335106776"><ele>61.33333333333333</ele><time>2026-04-05T12:09:09.999Z</time></trkpt><trkpt lat="41.21183885173175" lon="14.456048220361012"><ele>61.66666666666667</ele><time>2026-04-05T12:09:10.999Z</time></trkpt><trkpt lat="41.2120240356292" lon="14.455919951847278"><ele>62.0</ele><time>2026-04-05T12:09:11.999Z</time></trkpt><trkpt lat="41.212197256992674" lon="14.455765447953754"><ele>62.0</ele><time>2026-04-05T12:09:12.999Z</time></trkpt><trkpt lat="41.21237612824422" lon="14.455622792088551"><ele>62.0</ele><time>2026-04-05T12:09:13.999Z</time></trkpt><trkpt lat="41.212557737162456" lon="14.455465847501285"><ele>62.0</ele><time>2026-04-05T12:09:14.999Z</time></trkpt><trkpt lat="41.212738473840055" lon="14.455310026927876"><ele>62.0</ele><time>2026-04-05T12:09:15.999Z</time></trkpt><trkpt lat="41.21290346818747" lon="14.455161675318138"><ele>62.0</ele><time>2026-04-05T12:09:16.999Z</time></trkpt><trkpt lat="41.21308713234314" lon="14.45504047517881"><ele>62.0</ele><time>2026-04-05T12:09:17.999Z</time></trkpt><trkpt lat="41.213272839551095" lon="14.454908179335415"><ele>61.66666666666667</ele><time>2026-04-05T12:09:18.999Z</time></trkpt><trkpt lat="41.213462040150716" lon="14.454773716385871"><ele>61.33333333333333</ele><time>2026-04-05T12:09:19.999Z</time></trkpt><trkpt lat="41.21365424944123" lon="14.454649070350802"><ele>61.0</ele><time>2026-04-05T12:09:20.999Z</time></trkpt><trkpt lat="41.213846797541876" lon="14.454528991936254"><ele>61.33333333333333</ele><time>2026-04-05T12:09:21.999Z</time></trkpt><trkpt lat="41.214040081636185" lon="14.454408754225755"><ele>61.66666666666667</ele><time>2026-04-05T12:09:22.999Z</time></trkpt><trkpt lat="41.21422830879908" lon="14.45429269944851"><ele>62.0</ele><time>2026-04-05T12:09:23.999Z</time></trkpt><trkpt lat="41.214418536589434" lon="14.454177435101126"><ele>62.0</ele><time>2026-04-05T12:09:24.999Z</time></trkpt><trkpt lat="41.21460147801427" lon="14.454044170012535"><ele>62.0</ele><time>2026-04-05T12:09:25.999Z</time></trkpt><trkpt lat="41.21479716787586" lon="14.453951815645997"><ele>62.0</ele><time>2026-04-05T12:09:26.999Z</time></trkpt><trkpt lat="41.214977424567394" lon="14.453845402290531"><ele>61.66666666666667</ele><time>2026-04-05T12:09:27.999Z</time></trkpt><trkpt lat="41.21515397188133" lon="14.453713079160487"><ele>61.33333333333333</ele><time>2026-04-05T12:09:28.998Z</time></trkpt><trkpt lat="41.2153415005368" lon="14.453598186014522"><ele>61.0</ele><time>2026-04-05T12:09:29.998Z</time></trkpt><trkpt lat="41.21553640618589" lon="14.453500998404662"><ele>61.0</ele><time>2026-04-05T12:09:30.998Z</time></trkpt><trkpt lat="41.21572326251957" lon="14.453383501983945"><ele>61.0</ele><time>2026-04-05T12:09:31.998Z</time></trkpt><trkpt lat="41.21590959413268" lon="14.453265268785982"><ele>61.0</ele><time>2026-04-05T12:09:32.998Z</time></trkpt><trkpt lat="41.216100741604244" lon="14.45314107420921"><ele>61.0</ele><time>2026-04-05T12:09:33.998Z</time></trkpt><trkpt lat="41.216285233411725" lon="14.453014586558744"><ele>61.0</ele><time>2026-04-05T12:09:34.998Z</time></trkpt><trkpt lat="41.21643273830167" lon="14.4529137475297"><ele>61.0</ele><time>2026-04-05T12:09:35.998Z</time></trkpt><trkpt lat="41.21656098123228" lon="14.452827940267698"><ele>61.0</ele><time>2026-04-05T12:09:37Z</time></trkpt><trkpt lat="41.21667106407806" lon="14.452747149755165"><ele>61.0</ele><time>2026-04-05T12:09:38Z</time></trkpt><trkpt lat="41.216780632922465" lon="14.452664858850657"><ele>61.0</ele><time>2026-04-05T12:09:39Z</time></trkpt><trkpt lat="41.216887747441625" lon="14.452559505400192"><ele>61.0</ele><time>2026-04-05T12:09:40Z</time></trkpt><trkpt lat="41.217010851156495" lon="14.452469709642777"><ele>61.0</ele><time>2026-04-05T12:09:41Z</time></trkpt><trkpt lat="41.217149451476146" lon="14.452390894951582"><ele>61.0</ele><time>2026-04-05T12:09:42Z</time></trkpt><trkpt lat="41.217289195737486" lon="14.452288112452258"><ele>61.0</ele><time>2026-04-05T12:09:43Z</time></trkpt><trkpt lat="41.2174268675309" lon="14.452164974632058"><ele>61.25</ele><time>2026-04-05T12:09:44Z</time></trkpt><trkpt lat="41.217569835212124" lon="14.452088540091488"><ele>61.5</ele><time>2026-04-05T12:09:45Z</time></trkpt><trkpt lat="41.217685435099355" lon="14.451986869578631"><ele>61.75</ele><time>2026-04-05T12:09:46Z</time></trkpt><trkpt lat="41.21780712299557" lon="14.451899185295364"><ele>62.0</ele><time>2026-04-05T12:09:47Z</time></trkpt><trkpt lat="41.21793490917932" lon="14.451833685964926"><ele>62.0</ele><time>2026-04-05T12:09:48Z</time></trkpt><trkpt lat="41.21807383588512" lon="14.451747111961255"><ele>62.0</ele><time>2026-04-05T12:09:49Z</time></trkpt><trkpt lat="41.21821841841678" lon="14.451669780783183"><ele>62.0</ele><time>2026-04-05T12:09:50Z</time></trkpt><trkpt lat="41.21837565707354" lon="14.451595045406789"><ele>62.66666666666667</ele><time>2026-04-05T12:09:51Z</time></trkpt><trkpt lat="41.21854156050316" lon="14.451495625888448"><ele>63.33333333333333</ele><time>2026-04-05T12:09:52Z</time></trkpt><trkpt lat="41.21869423795331" lon="14.451437784281019"><ele>64.0</ele><time>2026-04-05T12:09:53Z</time></trkpt><trkpt lat="41.21884417090716" lon="14.45136083576471"><ele>63.0</ele><time>2026-04-05T12:09:54Z</time></trkpt><trkpt lat="41.21899946215612" lon="14.451287795294506"><ele>62.0</ele><time>2026-04-05T12:09:55Z</time></trkpt><trkpt lat="41.21916099919828" lon="14.451219670762713"><ele>61.0</ele><time>2026-04-05T12:09:56Z</time></trkpt><trkpt lat="41.219314501326885" lon="14.451121856557885"><ele>61.0</ele><time>2026-04-05T12:09:57Z</time></trkpt><trkpt lat="41.21946542197941" lon="14.45100233801316"><ele>61.0</ele><time>2026-04-05T12:09:58Z</time></trkpt><trkpt lat="41.21959380279143" lon="14.450878091024734"><ele>61.0</ele><time>2026-04-05T12:09:59Z</time></trkpt><trkpt lat="41.219702017560934" lon="14.450755918022288"><ele>61.0</ele><time>2026-04-05T12:10:00Z</time></trkpt><trkpt lat="41.21980995308901" lon="14.450638997385177"><ele>61.0</ele><time>2026-04-05T12:10:01Z</time></trkpt><trkpt lat="41.219907929153194" lon="14.450533391249751"><ele>61.0</ele><time>2026-04-05T12:10:02Z</time></trkpt><trkpt lat="41.22000981275662" lon="14.450414549582149"><ele>61.0</ele><time>2026-04-05T12:10:03Z</time></trkpt><trkpt lat="41.220124451571856" lon="14.450289949944297"><ele>60.25</ele><time>2026-04-05T12:10:04Z</time></trkpt><trkpt lat="41.22023460240407" lon="14.45016683230349"><ele>59.5</ele><time>2026-04-05T12:10:05Z</time></trkpt><trkpt lat="41.220333600617934" lon="14.450055445004775"><ele>58.75</ele><time>2026-04-05T12:10:06Z</time></trkpt><trkpt lat="41.220425877123034" lon="14.449957791081863"><ele>58.0</ele><time>2026-04-05T12:10:07Z</time></trkpt><trkpt lat="41.22051494842211" lon="14.449866834087075"><ele>58.0</ele><time>2026-04-05T12:10:08Z</time></trkpt><trkpt lat="41.22059485170967" lon="14.449779302996253"><ele>58.0</ele><time>2026-04-05T12:10:09Z</time></trkpt><trkpt lat="41.2206727918455" lon="14.449693366065144"><ele>58.0</ele><time>2026-04-05T12:10:10Z</time></trkpt><trkpt lat="41.220738728039606" lon="14.449611838776615"><ele>58.0</ele><time>2026-04-05T12:10:11Z</time></trkpt><trkpt lat="41.220805636842385" lon="14.449533947074892"><ele>58.0</ele><time>2026-04-05T12:10:12Z</time></trkpt><trkpt lat="41.220884693372874" lon="14.44943972598274"><ele>57.75</ele><time>2026-04-05T12:10:13Z</time></trkpt><trkpt lat="41.22096545664973" lon="14.449329102012564"><ele>57.5</ele><time>2026-04-05T12:10:14Z</time></trkpt><trkpt lat="41.22105570562229" lon="14.449213152065125"><ele>57.25</ele><time>2026-04-05T12:10:14.999Z</time></trkpt><trkpt lat="41.22114686609356" lon="14.449110718699092"><ele>57.0</ele><time>2026-04-05T12:10:15.999Z</time></trkpt><trkpt lat="41.2212239377703" lon="14.449010605425675"><ele>57.0</ele><time>2026-04-05T12:10:16.999Z</time></trkpt><trkpt lat="41.22129466753488" lon="14.44892405202417"><ele>57.0</ele><time>2026-04-05T12:10:17.999Z</time></trkpt><trkpt lat="41.221371361482454" lon="14.448852307851935"><ele>57.0</ele><time>2026-04-05T12:10:18.999Z</time></trkpt><trkpt lat="41.22144986061527" lon="14.448760002076726"><ele>57.0</ele><time>2026-04-05T12:10:19.999Z</time></trkpt><trkpt lat="41.2215470089125" lon="14.448676235950819"><ele>57.0</ele><time>2026-04-05T12:10:20.999Z</time></trkpt><trkpt lat="41.22165425953428" lon="14.448585466844479"><ele>57.25</ele><time>2026-04-05T12:10:21.999Z</time></trkpt><trkpt lat="41.22176128973979" lon="14.448490541710147"><ele>57.5</ele><time>2026-04-05T12:10:22.999Z</time></trkpt><trkpt lat="41.22187011682608" lon="14.44837894711874"><ele>57.75</ele><time>2026-04-05T12:10:23.999Z</time></trkpt><trkpt lat="41.221993798817394" lon="14.44828170932368"><ele>58.0</ele><time>2026-04-05T12:10:24.999Z</time></trkpt><trkpt lat="41.22212199857764" lon="14.448170267544183"><ele>58.0</ele><time>2026-04-05T12:10:25.999Z</time></trkpt><trkpt lat="41.22225216338816" lon="14.448103584717781"><ele>58.0</ele><time>2026-04-05T12:10:26.999Z</time></trkpt><trkpt lat="41.22236684248263" lon="14.44804631982026"><ele>58.0</ele><time>2026-04-05T12:10:27.999Z</time></trkpt><trkpt lat="41.22247077889113" lon="14.448000620506575"><ele>58.0</ele><time>2026-04-05T12:10:28.999Z</time></trkpt><trkpt lat="41.222568105623154" lon="14.447950909323035"><ele>58.33333333333333</ele><time>2026-04-05T12:10:29.999Z</time></trkpt><trkpt lat="41.22266066802947" lon="14.447916920460061"><ele>58.666666666666664</ele><time>2026-04-05T12:10:30.999Z</time></trkpt><trkpt lat="41.22274710603405" lon="14.447842980223015"><ele>59.0</ele><time>2026-04-05T12:10:31.999Z</time></trkpt><trkpt lat="41.22283018749784" lon="14.447785113718194"><ele>59.33333333333333</ele><time>2026-04-05T12:10:32.999Z</time></trkpt><trkpt lat="41.22290383615311" lon="14.447748068816344"><ele>59.666666666666664</ele><time>2026-04-05T12:10:33.999Z</time></trkpt><trkpt lat="41.22295785852818" lon="14.447684142892271"><ele>60.0</ele><time>2026-04-05T12:10:34.999Z</time></trkpt><trkpt lat="41.22299372615364" lon="14.44757227352121"><ele>60.0</ele><time>2026-04-05T12:10:35.999Z</time></trkpt><trkpt lat="41.22302709507583" lon="14.4474560857655"><ele>60.0</ele><time>2026-04-05T12:10:36.999Z</time></trkpt><trkpt lat="41.22308735565338" lon="14.44734057939073"><ele>60.0</ele><time>2026-04-05T12:10:37.999Z</time></trkpt><trkpt lat="41.22318636341591" lon="14.447219181682014"><ele>60.0</ele><time>2026-04-05T12:10:38.999Z</time></trkpt><trkpt lat="41.22330312859778" lon="14.447086771466607"><ele>60.0</ele><time>2026-04-05T12:10:39.999Z</time></trkpt><trkpt lat="41.22340815775368" lon="14.446971059342058"><ele>60.0</ele><time>2026-04-05T12:10:40.999Z</time></trkpt><trkpt lat="41.22350141509929" lon="14.446871835965592"><ele>60.0</ele><time>2026-04-05T12:10:41.999Z</time></trkpt><trkpt lat="41.22357798440289" lon="14.44679363683495"><ele>60.0</ele><time>2026-04-05T12:10:42.999Z</time></trkpt><trkpt lat="41.2236498537342" lon="14.44673514122765"><ele>60.0</ele><time>2026-04-05T12:10:43.999Z</time></trkpt><trkpt lat="41.223712707026536" lon="14.446703456904649"><ele>60.0</ele><time>2026-04-05T12:10:44.999Z</time></trkpt><trkpt lat="41.2236797084222" lon="14.446519029327224"><ele>60.0</ele><time>2026-04-05T12:10:46.999Z</time></trkpt><trkpt lat="41.22360594917481" lon="14.446380147951924"><ele>60.0</ele><time>2026-04-05T12:10:47.999Z</time></trkpt><trkpt lat="41.22352110265157" lon="14.446242419860267"><ele>60.0</ele><time>2026-04-05T12:10:48.999Z</time></trkpt><trkpt lat="41.22344081333719" lon="14.446104830654702"><ele>60.0</ele><time>2026-04-05T12:10:49.999Z</time></trkpt><trkpt lat="41.223379852074416" lon="14.445982653242089"><ele>60.0</ele><time>2026-04-05T12:10:50.999Z</time></trkpt><trkpt lat="41.22331729646378" lon="14.445859785454351"><ele>60.0</ele><time>2026-04-05T12:10:51.999Z</time></trkpt><trkpt lat="41.223262897299165" lon="14.445761789171863"><ele>60.0</ele><time>2026-04-05T12:10:52.999Z</time></trkpt><trkpt lat="41.223215018723714" lon="14.445683135317694"><ele>60.0</ele><time>2026-04-05T12:10:53.999Z</time></trkpt><trkpt lat="41.223182988030295" lon="14.445611072482205"><ele>60.25</ele><time>2026-04-05T12:10:54.999Z</time></trkpt><trkpt lat="41.22313582836241" lon="14.445488593301144"><ele>60.5</ele><time>2026-04-05T12:10:56.999Z</time></trkpt><trkpt lat="41.223234646286016" lon="14.445316066433065"><ele>60.75</ele><time>2026-04-05T12:10:57.999Z</time></trkpt><trkpt lat="41.223270850607875" lon="14.445135140416427"><ele>61.0</ele><time>2026-04-05T12:10:58.999Z</time></trkpt><trkpt lat="41.22331079875442" lon="14.444954266376929"><ele>61.33333333333333</ele><time>2026-04-05T12:10:59.999Z</time></trkpt><trkpt lat="41.223333548800426" lon="14.44473934730591"><ele>61.66666666666667</ele><time>2026-04-05T12:11:00.999Z</time></trkpt><trkpt lat="41.22336101252492" lon="14.444519035023207"><ele>62.0</ele><time>2026-04-05T12:11:01.999Z</time></trkpt><trkpt lat="41.22341365162456" lon="14.444298345590422"><ele>62.0</ele><time>2026-04-05T12:11:02.999Z</time></trkpt><trkpt lat="41.22345007131944" lon="14.444062035866747"><ele>62.0</ele><time>2026-04-05T12:11:03.999Z</time></trkpt><trkpt lat="41.2235331934342" lon="14.443837949310353"><ele>62.0</ele><time>2026-04-05T12:11:04.999Z</time></trkpt><trkpt lat="41.22360650164144" lon="14.443602613735207"><ele>61.0</ele><time>2026-04-05T12:11:05.999Z</time></trkpt><trkpt lat="41.22368060323537" lon="14.443377100859326"><ele>60.0</ele><time>2026-04-05T12:11:06.999Z</time></trkpt><trkpt lat="41.22373575530285" lon="14.443157687828897"><ele>59.0</ele><time>2026-04-05T12:11:07.999Z</time></trkpt><trkpt lat="41.22380250479066" lon="14.442949321639482"><ele>59.0</ele><time>2026-04-05T12:11:08.999Z</time></trkpt><trkpt lat="41.22385953503997" lon="14.442726388432042"><ele>59.0</ele><time>2026-04-05T12:11:09.999Z</time></trkpt><trkpt lat="41.22390020394795" lon="14.442505657420496"><ele>59.0</ele><time>2026-04-05T12:11:10.999Z</time></trkpt><trkpt lat="41.22392486381092" lon="14.442287781511132"><ele>58.75</ele><time>2026-04-05T12:11:11.999Z</time></trkpt><trkpt lat="41.22395004401922" lon="14.44207128584094"><ele>58.5</ele><time>2026-04-05T12:11:12.999Z</time></trkpt><trkpt lat="41.22398342944316" lon="14.441886491475028"><ele>58.25</ele><time>2026-04-05T12:11:13.999Z</time></trkpt><trkpt lat="41.2240221126599" lon="14.44171190175472"><ele>58.0</ele><time>2026-04-05T12:11:14.999Z</time></trkpt><trkpt lat="41.22407389492488" lon="14.441544585125216"><ele>58.0</ele><time>2026-04-05T12:11:15.999Z</time></trkpt><trkpt lat="41.22416333570824" lon="14.441389321271467"><ele>58.0</ele><time>2026-04-05T12:11:16.999Z</time></trkpt><trkpt lat="41.224241731295216" lon="14.441204202605233"><ele>58.0</ele><time>2026-04-05T12:11:17.999Z</time></trkpt><trkpt lat="41.224342254808306" lon="14.440996664191353"><ele>57.666666666666664</ele><time>2026-04-05T12:11:18.999Z</time></trkpt><trkpt lat="41.22444320320718" lon="14.440768517914881"><ele>57.33333333333333</ele><time>2026-04-05T12:11:19.999Z</time></trkpt><trkpt lat="41.22454338479777" lon="14.440534872653268"><ele>57.0</ele><time>2026-04-05T12:11:20.999Z</time></trkpt><trkpt lat="41.224638743312546" lon="14.440301498643615"><ele>56.33333333333333</ele><time>2026-04-05T12:11:21.999Z</time></trkpt><trkpt lat="41.224740509319766" lon="14.440066354877468"><ele>55.666666666666664</ele><time>2026-04-05T12:11:22.999Z</time></trkpt><trkpt lat="41.224849228711236" lon="14.439824793260009"><ele>55.0</ele><time>2026-04-05T12:11:23.999Z</time></trkpt><trkpt lat="41.224955326766874" lon="14.439575329175998"><ele>55.0</ele><time>2026-04-05T12:11:24.999Z</time></trkpt><trkpt lat="41.22505898117716" lon="14.439321750854099"><ele>55.0</ele><time>2026-04-05T12:11:25.999Z</time></trkpt><trkpt lat="41.22515322135141" lon="14.4390745641485"><ele>55.0</ele><time>2026-04-05T12:11:26.999Z</time></trkpt><trkpt lat="41.22522657254097" lon="14.438840740892907"><ele>55.0</ele><time>2026-04-05T12:11:27.999Z</time></trkpt><trkpt lat="41.225274701175074" lon="14.438606407219314"><ele>55.0</ele><time>2026-04-05T12:11:28.999Z</time></trkpt><trkpt lat="41.22531977418571" lon="14.438343882420945"><ele>55.0</ele><time>2026-04-05T12:11:29.999Z</time></trkpt><trkpt lat="41.22534802957974" lon="14.438083858928175"><ele>54.666666666666664</ele><time>2026-04-05T12:11:30.998Z</time></trkpt><trkpt lat="41.22536361784512" lon="14.437814704132801"><ele>54.33333333333333</ele><time>2026-04-05T12:11:31.998Z</time></trkpt><trkpt lat="41.22537086444376" lon="14.4375422806467"><ele>54.0</ele><time>2026-04-05T12:11:32.998Z</time></trkpt><trkpt lat="41.22537152877313" lon="14.437270797575534"><ele>54.0</ele><time>2026-04-05T12:11:33.998Z</time></trkpt><trkpt lat="41.22536341297307" lon="14.436999701077683"><ele>54.0</ele><time>2026-04-05T12:11:34.998Z</time></trkpt><trkpt lat="41.22535267075865" lon="14.43673720786399"><ele>54.0</ele><time>2026-04-05T12:11:35.998Z</time></trkpt><trkpt lat="41.22534953472106" lon="14.436480721697476"><ele>53.66666666666667</ele><time>2026-04-05T12:11:36.998Z</time></trkpt><trkpt lat="41.225337478524274" lon="14.436248969649188"><ele>53.333333333333336</ele><time>2026-04-05T12:11:37.998Z</time></trkpt><trkpt lat="41.22533137763126" lon="14.435985163408363"><ele>53.0</ele><time>2026-04-05T12:11:38.998Z</time></trkpt><trkpt lat="41.22529527436021" lon="14.435733097305071"><ele>53.0</ele><time>2026-04-05T12:11:39.998Z</time></trkpt><trkpt lat="41.22526529179417" lon="14.435483923422721"><ele>53.0</ele><time>2026-04-05T12:11:40.998Z</time></trkpt><trkpt lat="41.22522503105128" lon="14.43524269669992"><ele>53.0</ele><time>2026-04-05T12:11:41.998Z</time></trkpt><trkpt lat="41.22519064624931" lon="14.435001403242667"><ele>53.0</ele><time>2026-04-05T12:11:43Z</time></trkpt><trkpt lat="41.22514823124903" lon="14.434744149873898"><ele>53.0</ele><time>2026-04-05T12:11:44Z</time></trkpt><trkpt lat="41.22509011362921" lon="14.43450026562373"><ele>53.0</ele><time>2026-04-05T12:11:45Z</time></trkpt><trkpt lat="41.22503595692655" lon="14.434258739386557"><ele>53.333333333333336</ele><time>2026-04-05T12:11:46Z</time></trkpt><trkpt lat="41.224959574986435" lon="14.434053600449849"><ele>53.66666666666667</ele><time>2026-04-05T12:11:47Z</time></trkpt><trkpt lat="41.224878279173716" lon="14.433873124580023"><ele>54.0</ele><time>2026-04-05T12:11:48Z</time></trkpt><trkpt lat="41.2248125360536" lon="14.433697198342493"><ele>53.800000000000004</ele><time>2026-04-05T12:11:49Z</time></trkpt><trkpt lat="41.22475945855579" lon="14.43352414948321"><ele>53.60000000000001</ele><time>2026-04-05T12:11:50Z</time></trkpt><trkpt lat="41.22472281223732" lon="14.43337622508677"><ele>53.4</ele><time>2026-04-05T12:11:51Z</time></trkpt><trkpt lat="41.224743646115556" lon="14.433256067245843"><ele>53.2</ele><time>2026-04-05T12:11:52Z</time></trkpt><trkpt lat="41.224805582852056" lon="14.433163525968212"><ele>53.0</ele><time>2026-04-05T12:11:53Z</time></trkpt><trkpt lat="41.224896432698124" lon="14.43310615423397"><ele>53.0</ele><time>2026-04-05T12:11:54Z</time></trkpt><trkpt lat="41.22500135649061" lon="14.433035719954303"><ele>53.0</ele><time>2026-04-05T12:11:55Z</time></trkpt><trkpt lat="41.22508730732776" lon="14.43297766610589"><ele>53.0</ele><time>2026-04-05T12:11:56Z</time></trkpt><trkpt lat="41.22515978725892" lon="14.432871917416033"><ele>53.0</ele><time>2026-04-05T12:11:57Z</time></trkpt><trkpt lat="41.225253146040465" lon="14.432764317487287"><ele>53.0</ele><time>2026-04-05T12:11:58Z</time></trkpt><trkpt lat="41.22533286345147" lon="14.432638197975214"><ele>52.25</ele><time>2026-04-05T12:11:59Z</time></trkpt><trkpt lat="41.22546598477814" lon="14.43258384165124"><ele>51.5</ele><time>2026-04-05T12:12:00Z</time></trkpt><trkpt lat="41.22558925513858" lon="14.432517038702628"><ele>50.75</ele><time>2026-04-05T12:12:01Z</time></trkpt><trkpt lat="41.225694489856686" lon="14.432460631503586"><ele>50.0</ele><time>2026-04-05T12:12:02Z</time></trkpt><trkpt lat="41.225787719936285" lon="14.43238725897972"><ele>50.0</ele><time>2026-04-05T12:12:03Z</time></trkpt><trkpt lat="41.22584258353901" lon="14.432275376926674"><ele>50.0</ele><time>2026-04-05T12:12:04Z</time></trkpt><trkpt lat="41.225882006213865" lon="14.43215255836872"><ele>50.0</ele><time>2026-04-05T12:12:05Z</time></trkpt><trkpt lat="41.225919346074235" lon="14.431990814687552"><ele>50.0</ele><time>2026-04-05T12:12:06Z</time></trkpt><trkpt lat="41.225957825286784" lon="14.431804877594905"><ele>49.75</ele><time>2026-04-05T12:12:07Z</time></trkpt><trkpt lat="41.22599477883755" lon="14.431602538384597"><ele>49.5</ele><time>2026-04-05T12:12:08Z</time></trkpt><trkpt lat="41.2260269971174" lon="14.431409686462528"><ele>49.25</ele><time>2026-04-05T12:12:09Z</time></trkpt><trkpt lat="41.22606067386499" lon="14.431247062220791"><ele>49.0</ele><time>2026-04-05T12:12:10Z</time></trkpt><trkpt lat="41.22610770873643" lon="14.431136509389848"><ele>49.5</ele><time>2026-04-05T12:12:11Z</time></trkpt><trkpt lat="41.226150923422296" lon="14.431030857738685"><ele>50.0</ele><time>2026-04-05T12:12:12Z</time></trkpt><trkpt lat="41.22625528806911" lon="14.431006287369128"><ele>50.5</ele><time>2026-04-05T12:12:13Z</time></trkpt><trkpt lat="41.22636944449851" lon="14.430951357466782"><ele>51.0</ele><time>2026-04-05T12:12:14Z</time></trkpt><trkpt lat="41.226513132481195" lon="14.430873070638542"><ele>51.0</ele><time>2026-04-05T12:12:15Z</time></trkpt><trkpt lat="41.22663178739898" lon="14.430785722691118"><ele>51.0</ele><time>2026-04-05T12:12:16Z</time></trkpt><trkpt lat="41.22676592636717" lon="14.430711563061616"><ele>51.0</ele><time>2026-04-05T12:12:17Z</time></trkpt><trkpt lat="41.22688221600566" lon="14.43063917571635"><ele>51.0</ele><time>2026-04-05T12:12:18Z</time></trkpt><trkpt lat="41.22697019307732" lon="14.43054958488985"><ele>51.25</ele><time>2026-04-05T12:12:19Z</time></trkpt><trkpt lat="41.22706345524624" lon="14.430426767881709"><ele>51.5</ele><time>2026-04-05T12:12:20Z</time></trkpt><trkpt lat="41.22716219377763" lon="14.430282114176354"><ele>51.75</ele><time>2026-04-05T12:12:21Z</time></trkpt><trkpt lat="41.227256972469945" lon="14.430128426111517"><ele>52.0</ele><time>2026-04-05T12:12:22Z</time></trkpt><trkpt lat="41.22735513440959" lon="14.42998271173091"><ele>52.0</ele><time>2026-04-05T12:12:23Z</time></trkpt><trkpt lat="41.227476862223035" lon="14.429845261894906"><ele>52.0</ele><time>2026-04-05T12:12:24Z</time></trkpt><trkpt lat="41.22761622231823" lon="14.429687984470343"><ele>52.0</ele><time>2026-04-05T12:12:25Z</time></trkpt><trkpt lat="41.22775429472547" lon="14.429525442898798"><ele>52.0</ele><time>2026-04-05T12:12:25.999Z</time></trkpt><trkpt lat="41.227891850572725" lon="14.429342485423382"><ele>52.0</ele><time>2026-04-05T12:12:26.999Z</time></trkpt><trkpt lat="41.22805159915436" lon="14.429142917889036"><ele>52.0</ele><time>2026-04-05T12:12:27.999Z</time></trkpt><trkpt lat="41.228190733488994" lon="14.42896346744981"><ele>52.0</ele><time>2026-04-05T12:12:28.999Z</time></trkpt><trkpt lat="41.228306104417825" lon="14.428795540141543"><ele>52.0</ele><time>2026-04-05T12:12:29.999Z</time></trkpt><trkpt lat="41.22840688178651" lon="14.428634436436612"><ele>52.0</ele><time>2026-04-05T12:12:30.999Z</time></trkpt><trkpt lat="41.22848769168792" lon="14.428488589452094"><ele>52.0</ele><time>2026-04-05T12:12:31.999Z</time></trkpt><trkpt lat="41.22855675588169" lon="14.428356281650315"><ele>52.0</ele><time>2026-04-05T12:12:32.999Z</time></trkpt><trkpt lat="41.228612245178226" lon="14.428245090837628"><ele>52.0</ele><time>2026-04-05T12:12:33.999Z</time></trkpt><trkpt lat="41.22866121996236" lon="14.428176565954287"><ele>52.0</ele><time>2026-04-05T12:12:34.999Z</time></trkpt><trkpt lat="41.22874312533158" lon="14.428163021695964"><ele>52.0</ele><time>2026-04-05T12:12:36.999Z</time></trkpt><trkpt lat="41.2288353047622" lon="14.428186233697001"><ele>52.0</ele><time>2026-04-05T12:12:38.999Z</time></trkpt><trkpt lat="41.22887282203313" lon="14.428280116517477"><ele>52.0</ele><time>2026-04-05T12:12:39.999Z</time></trkpt><trkpt lat="41.22899277384344" lon="14.42835686951323"><ele>52.0</ele><time>2026-04-05T12:12:40.999Z</time></trkpt><trkpt lat="41.22914949947805" lon="14.428435332515914"><ele>52.0</ele><time>2026-04-05T12:12:41.999Z</time></trkpt><trkpt lat="41.22933897688723" lon="14.428422140569038"><ele>52.0</ele><time>2026-04-05T12:12:42.999Z</time></trkpt><trkpt lat="41.22945696281825" lon="14.428394479919307"><ele>52.0</ele><time>2026-04-05T12:12:43.999Z</time></trkpt><trkpt lat="41.2295739316913" lon="14.428367057695406"><ele>52.0</ele><time>2026-04-05T12:12:44.999Z</time></trkpt><trkpt lat="41.229713517422425" lon="14.428334333289415"><ele>52.0</ele><time>2026-04-05T12:12:45.999Z</time></trkpt><trkpt lat="41.22988614128804" lon="14.42813343479793"><ele>51.666666666666664</ele><time>2026-04-05T12:12:46.999Z</time></trkpt><trkpt lat="41.23007791247876" lon="14.428067745207827"><ele>51.33333333333333</ele><time>2026-04-05T12:12:47.999Z</time></trkpt><trkpt lat="41.230230527923965" lon="14.428015264487097"><ele>51.0</ele><time>2026-04-05T12:12:48.999Z</time></trkpt><trkpt lat="41.230352955221385" lon="14.427964379667381"><ele>50.5</ele><time>2026-04-05T12:12:49.999Z</time></trkpt><trkpt lat="41.230462705434086" lon="14.427935906080586"><ele>50.0</ele><time>2026-04-05T12:12:50.999Z</time></trkpt><trkpt lat="41.23063338084731" lon="14.42788490202178"><ele>49.5</ele><time>2026-04-05T12:12:51.999Z</time></trkpt><trkpt lat="41.23077075653949" lon="14.427787583211792"><ele>49.0</ele><time>2026-04-05T12:12:52.999Z</time></trkpt><trkpt lat="41.23091552205812" lon="14.427669823630362"><ele>50.33333333333333</ele><time>2026-04-05T12:12:53.999Z</time></trkpt><trkpt lat="41.23107825861448" lon="14.42752844385048"><ele>51.66666666666667</ele><time>2026-04-05T12:12:54.999Z</time></trkpt><trkpt lat="41.231275872533324" lon="14.427354807657977"><ele>53.0</ele><time>2026-04-05T12:12:55.999Z</time></trkpt><trkpt lat="41.23146583012008" lon="14.427190003582298"><ele>52.0</ele><time>2026-04-05T12:12:56.999Z</time></trkpt><trkpt lat="41.231643424293146" lon="14.42704057864465"><ele>51.0</ele><time>2026-04-05T12:12:57.999Z</time></trkpt><trkpt lat="41.23181197741934" lon="14.426892395576742"><ele>50.0</ele><time>2026-04-05T12:12:58.999Z</time></trkpt><trkpt lat="41.231977847096964" lon="14.426742636718052"><ele>50.0</ele><time>2026-04-05T12:12:59.999Z</time></trkpt><trkpt lat="41.232141539151016" lon="14.426593914919312"><ele>50.0</ele><time>2026-04-05T12:13:00.999Z</time></trkpt><trkpt lat="41.23229651749954" lon="14.426453111185674"><ele>50.0</ele><time>2026-04-05T12:13:01.999Z</time></trkpt><trkpt lat="41.23244265034204" lon="14.426320342887234"><ele>50.333333333333336</ele><time>2026-04-05T12:13:02.999Z</time></trkpt><trkpt lat="41.232570601483" lon="14.42620409329382"><ele>50.66666666666667</ele><time>2026-04-05T12:13:03.999Z</time></trkpt><trkpt lat="41.2327050112977" lon="14.42608197561159"><ele>51.0</ele><time>2026-04-05T12:13:04.999Z</time></trkpt><trkpt lat="41.23284655269687" lon="14.425962530502366"><ele>51.0</ele><time>2026-04-05T12:13:05.999Z</time></trkpt><trkpt lat="41.23299623770986" lon="14.425841106797723"><ele>51.0</ele><time>2026-04-05T12:13:06.999Z</time></trkpt><trkpt lat="41.23315006304097" lon="14.425707308982844"><ele>51.0</ele><time>2026-04-05T12:13:07.999Z</time></trkpt><trkpt lat="41.23330630327965" lon="14.425562056191376"><ele>51.0</ele><time>2026-04-05T12:13:08.999Z</time></trkpt><trkpt lat="41.23346342597833" lon="14.425391949759284"><ele>51.0</ele><time>2026-04-05T12:13:09.999Z</time></trkpt><trkpt lat="41.23363724299978" lon="14.425267816867464"><ele>51.0</ele><time>2026-04-05T12:13:10.999Z</time></trkpt><trkpt lat="41.23380364269895" lon="14.425130758322696"><ele>51.0</ele><time>2026-04-05T12:13:11.999Z</time></trkpt><trkpt lat="41.23395710161462" lon="14.425003190701855"><ele>51.0</ele><time>2026-04-05T12:13:12.999Z</time></trkpt><trkpt lat="41.234097302651584" lon="14.424881873822859"><ele>51.0</ele><time>2026-04-05T12:13:13.999Z</time></trkpt><trkpt lat="41.23421185501013" lon="14.424772617227863"><ele>50.8</ele><time>2026-04-05T12:13:14.999Z</time></trkpt><trkpt lat="41.23431000829674" lon="14.424701027927902"><ele>50.599999999999994</ele><time>2026-04-05T12:13:15.999Z</time></trkpt><trkpt lat="41.23439330843044" lon="14.424650716302766"><ele>50.4</ele><time>2026-04-05T12:13:16.999Z</time></trkpt><trkpt lat="41.23448557449567" lon="14.424653406376342"><ele>50.2</ele><time>2026-04-05T12:13:18.999Z</time></trkpt><trkpt lat="41.234553853000705" lon="14.424815803467979"><ele>50.0</ele><time>2026-04-05T12:13:20.999Z</time></trkpt><trkpt lat="41.23459769149442" lon="14.42497427624387"><ele>50.0</ele><time>2026-04-05T12:13:21.999Z</time></trkpt><trkpt lat="41.2346455914296" lon="14.425134618061348"><ele>50.0</ele><time>2026-04-05T12:13:22.999Z</time></trkpt><trkpt lat="41.23467670317429" lon="14.42533001574883"><ele>50.0</ele><time>2026-04-05T12:13:23.999Z</time></trkpt><trkpt lat="41.23472335851998" lon="14.425522293805805"><ele>50.0</ele><time>2026-04-05T12:13:24.999Z</time></trkpt><trkpt lat="41.23476667991292" lon="14.425702484713975"><ele>51.25</ele><time>2026-04-05T12:13:25.999Z</time></trkpt><trkpt lat="41.23482162431509" lon="14.42588689498743"><ele>52.5</ele><time>2026-04-05T12:13:26.999Z</time></trkpt><trkpt lat="41.234853312267866" lon="14.426071461513908"><ele>53.75</ele><time>2026-04-05T12:13:27.999Z</time></trkpt><trkpt lat="41.23487902811663" lon="14.426257590369053"><ele>55.0</ele><time>2026-04-05T12:13:28.999Z</time></trkpt><trkpt lat="41.23490095774359" lon="14.426441130037173"><ele>56.25</ele><time>2026-04-05T12:13:29.999Z</time></trkpt><trkpt lat="41.23492092639394" lon="14.426599286230706"><ele>57.5</ele><time>2026-04-05T12:13:30.999Z</time></trkpt><trkpt lat="41.23491879475743" lon="14.426778231654938"><ele>58.75</ele><time>2026-04-05T12:13:31.999Z</time></trkpt><trkpt lat="41.23495764526623" lon="14.42693938842048"><ele>60.0</ele><time>2026-04-05T12:13:32.999Z</time></trkpt><trkpt lat="41.23498310264342" lon="14.427080596224616"><ele>60.5</ele><time>2026-04-05T12:13:33.999Z</time></trkpt><trkpt lat="41.23502103918419" lon="14.427219347315422"><ele>61.0</ele><time>2026-04-05T12:13:34.999Z</time></trkpt><trkpt lat="41.23507330087226" lon="14.427358696471758"><ele>61.5</ele><time>2026-04-05T12:13:35.999Z</time></trkpt><trkpt lat="41.235130357534885" lon="14.427493384928338"><ele>62.0</ele><time>2026-04-05T12:13:36.999Z</time></trkpt><trkpt lat="41.23518868531454" lon="14.42763203187633"><ele>62.0</ele><time>2026-04-05T12:13:37.999Z</time></trkpt><trkpt lat="41.23525310539263" lon="14.427777596139153"><ele>62.0</ele><time>2026-04-05T12:13:38.999Z</time></trkpt><trkpt lat="41.235303506680246" lon="14.427917553826502"><ele>62.0</ele><time>2026-04-05T12:13:39.999Z</time></trkpt><trkpt lat="41.23536834467109" lon="14.428071441917389"><ele>62.0</ele><time>2026-04-05T12:13:40.999Z</time></trkpt><trkpt lat="41.2354350834878" lon="14.428252725997723"><ele>62.0</ele><time>2026-04-05T12:13:41.999Z</time></trkpt><trkpt lat="41.23550735286291" lon="14.428421826605517"><ele>62.0</ele><time>2026-04-05T12:13:42.999Z</time></trkpt><trkpt lat="41.2355661004027" lon="14.42855739089468"><ele>62.0</ele><time>2026-04-05T12:13:43.999Z</time></trkpt><trkpt lat="41.23561882502856" lon="14.428676798219954"><ele>62.0</ele><time>2026-04-05T12:13:44.999Z</time></trkpt><trkpt lat="41.2356597873379" lon="14.428782579554426"><ele>63.25</ele><time>2026-04-05T12:13:45.999Z</time></trkpt><trkpt lat="41.235703239942296" lon="14.428884472133504"><ele>64.5</ele><time>2026-04-05T12:13:46.999Z</time></trkpt><trkpt lat="41.235851256562626" lon="14.42894380453143"><ele>65.75</ele><time>2026-04-05T12:13:47.999Z</time></trkpt><trkpt lat="41.235982300950425" lon="14.429038427677728"><ele>67.0</ele><time>2026-04-05T12:13:49Z</time></trkpt><trkpt lat="41.23605627389593" lon="14.429161160119335"><ele>67.0</ele><time>2026-04-05T12:13:50Z</time></trkpt><trkpt lat="41.23611805116236" lon="14.429261177642308"><ele>67.0</ele><time>2026-04-05T12:13:51Z</time></trkpt><trkpt lat="41.23616554152164" lon="14.429350279473233"><ele>67.0</ele><time>2026-04-05T12:13:52Z</time></trkpt><trkpt lat="41.23638745441889" lon="14.429336388174134"><ele>67.0</ele><time>2026-04-05T12:13:54Z</time></trkpt><trkpt lat="41.236539377322565" lon="14.429348464203585"><ele>65.66666666666666</ele><time>2026-04-05T12:13:55Z</time></trkpt><trkpt lat="41.236705042372286" lon="14.429357893817643"><ele>64.33333333333333</ele><time>2026-04-05T12:13:56Z</time></trkpt><trkpt lat="41.236869102958806" lon="14.42931491336986"><ele>63.0</ele><time>2026-04-05T12:13:57Z</time></trkpt><trkpt lat="41.23703580312008" lon="14.429270482391173"><ele>63.0</ele><time>2026-04-05T12:13:58Z</time></trkpt><trkpt lat="41.23722875053305" lon="14.42921975298405"><ele>63.0</ele><time>2026-04-05T12:13:59Z</time></trkpt><trkpt lat="41.237439812706114" lon="14.429152619822785"><ele>63.0</ele><time>2026-04-05T12:14:00Z</time></trkpt><trkpt lat="41.23766954812998" lon="14.429076952541553"><ele>63.0</ele><time>2026-04-05T12:14:01Z</time></trkpt><trkpt lat="41.23792667099146" lon="14.428987296144925"><ele>63.0</ele><time>2026-04-05T12:14:02Z</time></trkpt><trkpt lat="41.23818036736041" lon="14.428896501805314"><ele>62.0</ele><time>2026-04-05T12:14:03Z</time></trkpt><trkpt lat="41.238444194202025" lon="14.428797814677358"><ele>61.0</ele><time>2026-04-05T12:14:04Z</time></trkpt><trkpt lat="41.238656874217554" lon="14.428718259632706"><ele>61.0</ele><time>2026-04-05T12:14:05Z</time></trkpt><trkpt lat="41.23886518610939" lon="14.428641562322873"><ele>61.0</ele><time>2026-04-05T12:14:06Z</time></trkpt><trkpt lat="41.23905158125447" lon="14.428580212612045"><ele>61.0</ele><time>2026-04-05T12:14:07Z</time></trkpt><trkpt lat="41.239234084133734" lon="14.428511173509056"><ele>61.666666666666664</ele><time>2026-04-05T12:14:08Z</time></trkpt><trkpt lat="41.23941248241501" lon="14.428418809576225"><ele>62.33333333333333</ele><time>2026-04-05T12:14:09Z</time></trkpt><trkpt lat="41.23958706815347" lon="14.428310624316977"><ele>63.0</ele><time>2026-04-05T12:14:10Z</time></trkpt><trkpt lat="41.23975678584185" lon="14.428214052638868"><ele>62.33333333333333</ele><time>2026-04-05T12:14:11Z</time></trkpt><trkpt lat="41.23993843136813" lon="14.428142411881907"><ele>61.666666666666664</ele><time>2026-04-05T12:14:12Z</time></trkpt><trkpt lat="41.240126336440184" lon="14.428085973938895"><ele>61.0</ele><time>2026-04-05T12:14:13Z</time></trkpt><trkpt lat="41.240328524181876" lon="14.428017281429343"><ele>61.0</ele><time>2026-04-05T12:14:14Z</time></trkpt><trkpt lat="41.240527268846776" lon="14.427952629936653"><ele>61.0</ele><time>2026-04-05T12:14:15Z</time></trkpt><trkpt lat="41.24072306666827" lon="14.42789613097939"><ele>61.0</ele><time>2026-04-05T12:14:16Z</time></trkpt><trkpt lat="41.2409068675362" lon="14.427847049009033"><ele>60.33333333333333</ele><time>2026-04-05T12:14:17Z</time></trkpt><trkpt lat="41.2410877565834" lon="14.427809319266979"><ele>59.66666666666667</ele><time>2026-04-05T12:14:18Z</time></trkpt><trkpt lat="41.241261226219606" lon="14.427805451391341"><ele>59.0</ele><time>2026-04-05T12:14:19Z</time></trkpt><trkpt lat="41.24143742135937" lon="14.427821605003869"><ele>59.333333333333336</ele><time>2026-04-05T12:14:20Z</time></trkpt><trkpt lat="41.24159061275967" lon="14.427869582734328"><ele>59.66666666666667</ele><time>2026-04-05T12:14:21Z</time></trkpt><trkpt lat="41.24173487732985" lon="14.42794759592338"><ele>60.0</ele><time>2026-04-05T12:14:22Z</time></trkpt><trkpt lat="41.24186801366299" lon="14.42804198941293"><ele>59.75</ele><time>2026-04-05T12:14:23Z</time></trkpt><trkpt lat="41.241984263791814" lon="14.428112198054714"><ele>59.5</ele><time>2026-04-05T12:14:24Z</time></trkpt><trkpt lat="41.242101159605426" lon="14.42817826264154"><ele>59.25</ele><time>2026-04-05T12:14:25Z</time></trkpt><trkpt lat="41.24226593730386" lon="14.428193247834448"><ele>59.0</ele><time>2026-04-05T12:14:26Z</time></trkpt><trkpt lat="41.24243609028454" lon="14.428206596013256"><ele>59.0</ele><time>2026-04-05T12:14:27Z</time></trkpt><trkpt lat="41.24263393960969" lon="14.428218598941728"><ele>59.0</ele><time>2026-04-05T12:14:28Z</time></trkpt><trkpt lat="41.24285988411903" lon="14.42821517492485"><ele>59.0</ele><time>2026-04-05T12:14:29Z</time></trkpt><trkpt lat="41.24303915072284" lon="14.42819687634139"><ele>58.6</ele><time>2026-04-05T12:14:30Z</time></trkpt><trkpt lat="41.24316979463814" lon="14.428180459991902"><ele>58.2</ele><time>2026-04-05T12:14:31Z</time></trkpt><trkpt lat="41.24327843899334" lon="14.428166808116483"><ele>57.800000000000004</ele><time>2026-04-05T12:14:32Z</time></trkpt><trkpt lat="41.24336416638485" lon="14.428155978749416"><ele>57.400000000000006</ele><time>2026-04-05T12:14:33Z</time></trkpt><trkpt lat="41.24346105228915" lon="14.428145795275082"><ele>57.0</ele><time>2026-04-05T12:14:34Z</time></trkpt><trkpt lat="41.243547619624614" lon="14.428139240599476"><ele>57.0</ele><time>2026-04-05T12:14:35Z</time></trkpt><trkpt lat="41.24362127726566" lon="14.428139977195238"><ele>57.0</ele><time>2026-04-05T12:14:36Z</time></trkpt><trkpt lat="41.24373099237791" lon="14.428160409477677"><ele>57.0</ele><time>2026-04-05T12:14:37Z</time></trkpt><trkpt lat="41.243848173194664" lon="14.428189308959597"><ele>57.0</ele><time>2026-04-05T12:14:38Z</time></trkpt><trkpt lat="41.243947010476745" lon="14.428204751852693"><ele>57.0</ele><time>2026-04-05T12:14:39Z</time></trkpt><trkpt lat="41.24405578391548" lon="14.428205469244045"><ele>56.833333333333336</ele><time>2026-04-05T12:14:39.999Z</time></trkpt><trkpt lat="41.24415745738473" lon="14.428166226832031"><ele>56.66666666666667</ele><time>2026-04-05T12:14:40.999Z</time></trkpt><trkpt lat="41.244240663514546" lon="14.428162867635503"><ele>56.5</ele><time>2026-04-05T12:14:41.999Z</time></trkpt><trkpt lat="41.24430598183853" lon="14.428166796677452"><ele>56.333333333333336</ele><time>2026-04-05T12:14:42.999Z</time></trkpt><trkpt lat="41.244402750846064" lon="14.428206238654312"><ele>56.16666666666667</ele><time>2026-04-05T12:14:44.999Z</time></trkpt><trkpt lat="41.244398695765895" lon="14.428326508157994"><ele>56.0</ele><time>2026-04-05T12:14:46.999Z</time></trkpt><trkpt lat="41.24442748349294" lon="14.428417701445325"><ele>56.0</ele><time>2026-04-05T12:14:48.999Z</time></trkpt><trkpt lat="41.24447100755377" lon="14.428514225653698"><ele>55.99999999999999</ele><time>2026-04-05T12:14:49.999Z</time></trkpt><trkpt lat="41.244488243870755" lon="14.428634218477848"><ele>55.99999999999999</ele><time>2026-04-05T12:14:50.999Z</time></trkpt><trkpt lat="41.24451858124535" lon="14.428766024459058"><ele>56.0</ele><time>2026-04-05T12:14:51.999Z</time></trkpt><trkpt lat="41.24455282409304" lon="14.428907208941725"><ele>56.0</ele><time>2026-04-05T12:14:52.999Z</time></trkpt><trkpt lat="41.24459463260268" lon="14.429041310631044"><ele>56.4</ele><time>2026-04-05T12:14:53.999Z</time></trkpt><trkpt lat="41.24465338349671" lon="14.429164894384169"><ele>56.8</ele><time>2026-04-05T12:14:54.999Z</time></trkpt><trkpt lat="41.244713565713816" lon="14.42928280062779"><ele>57.199999999999996</ele><time>2026-04-05T12:14:55.999Z</time></trkpt><trkpt lat="41.24475830919607" lon="14.429422589908741"><ele>57.599999999999994</ele><time>2026-04-05T12:14:56.999Z</time></trkpt><trkpt lat="41.24481250504199" lon="14.429554960356286"><ele>58.0</ele><time>2026-04-05T12:14:57.999Z</time></trkpt><trkpt lat="41.24487004204153" lon="14.42969656337263"><ele>58.25</ele><time>2026-04-05T12:14:58.999Z</time></trkpt><trkpt lat="41.24490249019317" lon="14.429855602752886"><ele>58.5</ele><time>2026-04-05T12:14:59.999Z</time></trkpt><trkpt lat="41.244943309611116" lon="14.430002596090917"><ele>58.75</ele><time>2026-04-05T12:15:00.999Z</time></trkpt><trkpt lat="41.24499546023761" lon="14.430148927624945"><ele>59.0</ele><time>2026-04-05T12:15:01.999Z</time></trkpt><trkpt lat="41.24506225633145" lon="14.4303024137408"><ele>59.00000000000001</ele><time>2026-04-05T12:15:02.999Z</time></trkpt><trkpt lat="41.24513798243174" lon="14.430410901232714"><ele>59.0</ele><time>2026-04-05T12:15:03.999Z</time></trkpt><trkpt lat="41.24517902382739" lon="14.43052038369724"><ele>59.0</ele><time>2026-04-05T12:15:04.999Z</time></trkpt><trkpt lat="41.245221500144936" lon="14.430605022926628"><ele>59.0</ele><time>2026-04-05T12:15:05.999Z</time></trkpt><trkpt lat="41.24525672308319" lon="14.430677443901734"><ele>59.00000000000001</ele><time>2026-04-05T12:15:06.999Z</time></trkpt><trkpt lat="41.245289187516484" lon="14.430749784099692"><ele>59.0</ele><time>2026-04-05T12:15:08.999Z</time></trkpt><trkpt lat="41.2453392418238" lon="14.430866198546024"><ele>59.2</ele><time>2026-04-05T12:15:11.999Z</time></trkpt><trkpt lat="41.24540957681745" lon="14.430996719727036"><ele>59.400000000000006</ele><time>2026-04-05T12:15:13.999Z</time></trkpt><trkpt lat="41.24543929626862" lon="14.431103134015629"><ele>59.6</ele><time>2026-04-05T12:15:14.999Z</time></trkpt><trkpt lat="41.24547568736491" lon="14.431215009699633"><ele>59.8</ele><time>2026-04-05T12:15:15.999Z</time></trkpt><trkpt lat="41.2455183228411" lon="14.431334155536412"><ele>60.0</ele><time>2026-04-05T12:15:16.999Z</time></trkpt><trkpt lat="41.24554102183148" lon="14.431456767254689"><ele>60.25</ele><time>2026-04-05T12:15:17.999Z</time></trkpt><trkpt lat="41.24558687779421" lon="14.431581377236315"><ele>60.5</ele><time>2026-04-05T12:15:18.999Z</time></trkpt><trkpt lat="41.245645543731236" lon="14.431715441829686"><ele>60.75</ele><time>2026-04-05T12:15:19.999Z</time></trkpt><trkpt lat="41.245684535283885" lon="14.431872485439762"><ele>61.0</ele><time>2026-04-05T12:15:20.999Z</time></trkpt><trkpt lat="41.245730274345036" lon="14.432031204104138"><ele>61.0</ele><time>2026-04-05T12:15:21.999Z</time></trkpt><trkpt lat="41.24578186126276" lon="14.432203217212507"><ele>61.0</ele><time>2026-04-05T12:15:22.999Z</time></trkpt><trkpt lat="41.24585239588891" lon="14.432368351447197"><ele>61.0</ele><time>2026-04-05T12:15:23.999Z</time></trkpt><trkpt lat="41.24590052457144" lon="14.432551941069674"><ele>61.0</ele><time>2026-04-05T12:15:24.999Z</time></trkpt><trkpt lat="41.24597010056246" lon="14.432718669134383"><ele>61.0</ele><time>2026-04-05T12:15:25.999Z</time></trkpt><trkpt lat="41.246031494147864" lon="14.432880923585575"><ele>61.0</ele><time>2026-04-05T12:15:26.999Z</time></trkpt><trkpt lat="41.246096096685214" lon="14.433044540618086"><ele>61.0</ele><time>2026-04-05T12:15:27.999Z</time></trkpt><trkpt lat="41.24616240274197" lon="14.433215912115617"><ele>61.0</ele><time>2026-04-05T12:15:28.999Z</time></trkpt><trkpt lat="41.246246864401414" lon="14.433375742627971"><ele>61.0</ele><time>2026-04-05T12:15:29.999Z</time></trkpt><trkpt lat="41.24633068519341" lon="14.433525965440134"><ele>61.0</ele><time>2026-04-05T12:15:30.999Z</time></trkpt><trkpt lat="41.246421640903215" lon="14.433645007199841"><ele>61.0</ele><time>2026-04-05T12:15:31.999Z</time></trkpt><trkpt lat="41.24647999778601" lon="14.43375368621662"><ele>61.0</ele><time>2026-04-05T12:15:32.999Z</time></trkpt><trkpt lat="41.24654133913066" lon="14.433864101591585"><ele>61.0</ele><time>2026-04-05T12:15:33.999Z</time></trkpt><trkpt lat="41.24660572514403" lon="14.433981338508124"><ele>60.99999999999999</ele><time>2026-04-05T12:15:34.999Z</time></trkpt><trkpt lat="41.246690219599024" lon="14.434103156921694"><ele>60.99999999999999</ele><time>2026-04-05T12:15:35.999Z</time></trkpt><trkpt lat="41.246766562509606" lon="14.434202724175968"><ele>61.0</ele><time>2026-04-05T12:15:36.999Z</time></trkpt><trkpt lat="41.246841421035214" lon="14.43430616743542"><ele>61.0</ele><time>2026-04-05T12:15:37.999Z</time></trkpt><trkpt lat="41.24689759705668" lon="14.434395957569613"><ele>61.0</ele><time>2026-04-05T12:15:38.999Z</time></trkpt><trkpt lat="41.24695634119033" lon="14.43447822459734"><ele>60.99999999999999</ele><time>2026-04-05T12:15:39.999Z</time></trkpt><trkpt lat="41.24705188495135" lon="14.434550562316815"><ele>60.99999999999999</ele><time>2026-04-05T12:15:40.999Z</time></trkpt><trkpt lat="41.24714472708366" lon="14.434591739073943"><ele>61.0</ele><time>2026-04-05T12:15:41.999Z</time></trkpt><trkpt lat="41.247247213262" lon="14.434624509128245"><ele>61.0</ele><time>2026-04-05T12:15:42.999Z</time></trkpt><trkpt lat="41.24733935671425" lon="14.434674841615065"><ele>61.166666666666664</ele><time>2026-04-05T12:15:43.999Z</time></trkpt><trkpt lat="41.24743076301498" lon="14.434744990016775"><ele>61.33333333333333</ele><time>2026-04-05T12:15:44.999Z</time></trkpt><trkpt lat="41.247502476387105" lon="14.43481900525662"><ele>61.5</ele><time>2026-04-05T12:15:45.999Z</time></trkpt><trkpt lat="41.24755515483341" lon="14.434888442823153"><ele>61.66666666666667</ele><time>2026-04-05T12:15:46.999Z</time></trkpt><trkpt lat="41.24761161663736" lon="14.434959042254059"><ele>61.833333333333336</ele><time>2026-04-05T12:15:47.999Z</time></trkpt><trkpt lat="41.24766461033975" lon="14.435058495289756"><ele>62.0</ele><time>2026-04-05T12:15:48.999Z</time></trkpt><trkpt lat="41.24774449101094" lon="14.435154658142642"><ele>62.0</ele><time>2026-04-05T12:15:49.999Z</time></trkpt><trkpt lat="41.24781296985882" lon="14.4352809383116"><ele>62.0</ele><time>2026-04-05T12:15:50.999Z</time></trkpt><trkpt lat="41.24789472658989" lon="14.435424141454918"><ele>62.0</ele><time>2026-04-05T12:15:51.999Z</time></trkpt><trkpt lat="41.24797181712401" lon="14.435574774300033"><ele>62.0</ele><time>2026-04-05T12:15:52.999Z</time></trkpt><trkpt lat="41.24804912700903" lon="14.4357246303738"><ele>62.25</ele><time>2026-04-05T12:15:53.999Z</time></trkpt><trkpt lat="41.24813077258409" lon="14.435867745527677"><ele>62.5</ele><time>2026-04-05T12:15:55Z</time></trkpt><trkpt lat="41.2482028780377" lon="14.43602180496506"><ele>62.75</ele><time>2026-04-05T12:15:56Z</time></trkpt><trkpt lat="41.24827175530618" lon="14.436167484762365"><ele>63.0</ele><time>2026-04-05T12:15:57Z</time></trkpt><trkpt lat="41.2483403907664" lon="14.436335389030068"><ele>63.0</ele><time>2026-04-05T12:15:58Z</time></trkpt><trkpt lat="41.24841734947179" lon="14.436484113359464"><ele>63.0</ele><time>2026-04-05T12:15:59Z</time></trkpt><trkpt lat="41.24848168776807" lon="14.436612202893743"><ele>63.0</ele><time>2026-04-05T12:16:00Z</time></trkpt><trkpt lat="41.24855693818463" lon="14.436737743584029"><ele>63.0</ele><time>2026-04-05T12:16:01Z</time></trkpt><trkpt lat="41.248650480596474" lon="14.436855098005354"><ele>63.0</ele><time>2026-04-05T12:16:02Z</time></trkpt><trkpt lat="41.24873989695983" lon="14.436972162170816"><ele>63.0</ele><time>2026-04-05T12:16:03Z</time></trkpt><trkpt lat="41.2487986342371" lon="14.43708835063927"><ele>63.0</ele><time>2026-04-05T12:16:04Z</time></trkpt><trkpt lat="41.248870502616555" lon="14.437177663420337"><ele>63.0</ele><time>2026-04-05T12:16:05Z</time></trkpt><trkpt lat="41.24895538690104" lon="14.437309168258826"><ele>63.0</ele><time>2026-04-05T12:16:06Z</time></trkpt><trkpt lat="41.249029079367524" lon="14.437461802291265"><ele>63.0</ele><time>2026-04-05T12:16:07Z</time></trkpt><trkpt lat="41.249090773471465" lon="14.43758429037261"><ele>63.0</ele><time>2026-04-05T12:16:08Z</time></trkpt><trkpt lat="41.24914671019251" lon="14.437716723948624"><ele>63.0</ele><time>2026-04-05T12:16:09Z</time></trkpt><trkpt lat="41.24920394248693" lon="14.437883791921934"><ele>63.75</ele><time>2026-04-05T12:16:10Z</time></trkpt><trkpt lat="41.249279799815845" lon="14.43804283023525"><ele>64.5</ele><time>2026-04-05T12:16:11Z</time></trkpt><trkpt lat="41.249368377815394" lon="14.438186848496636"><ele>65.25</ele><time>2026-04-05T12:16:12Z</time></trkpt><trkpt lat="41.24942548265138" lon="14.438334993219225"><ele>66.0</ele><time>2026-04-05T12:16:13Z</time></trkpt><trkpt lat="41.24947066069972" lon="14.438471982523888"><ele>66.0</ele><time>2026-04-05T12:16:14Z</time></trkpt><trkpt lat="41.2495267235487" lon="14.438598672946743"><ele>66.0</ele><time>2026-04-05T12:16:15Z</time></trkpt><trkpt lat="41.24958101863151" lon="14.438716040059333"><ele>66.0</ele><time>2026-04-05T12:16:16Z</time></trkpt><trkpt lat="41.24964462217976" lon="14.438834886385239"><ele>66.0</ele><time>2026-04-05T12:16:17Z</time></trkpt><trkpt lat="41.249733164449744" lon="14.43894284811118"><ele>66.0</ele><time>2026-04-05T12:16:18Z</time></trkpt><trkpt lat="41.249840401820435" lon="14.43905192008428"><ele>66.0</ele><time>2026-04-05T12:16:19Z</time></trkpt><trkpt lat="41.24992601185608" lon="14.439232570314864"><ele>66.0</ele><time>2026-04-05T12:16:20Z</time></trkpt><trkpt lat="41.25002245025044" lon="14.439394708122709"><ele>66.0</ele><time>2026-04-05T12:16:21Z</time></trkpt><trkpt lat="41.25012847745592" lon="14.439520899191477"><ele>66.5</ele><time>2026-04-05T12:16:22Z</time></trkpt><trkpt lat="41.25022055309565" lon="14.439670553369131"><ele>67.0</ele><time>2026-04-05T12:16:23Z</time></trkpt><trkpt lat="41.25033634423197" lon="14.439814220591506"><ele>67.5</ele><time>2026-04-05T12:16:24Z</time></trkpt><trkpt lat="41.250423584481105" lon="14.439967922242596"><ele>68.0</ele><time>2026-04-05T12:16:25Z</time></trkpt><trkpt lat="41.25049748056349" lon="14.440139819041908"><ele>68.0</ele><time>2026-04-05T12:16:26Z</time></trkpt><trkpt lat="41.250597271615" lon="14.440267486407214"><ele>68.0</ele><time>2026-04-05T12:16:27Z</time></trkpt><trkpt lat="41.250685216271194" lon="14.440377247796437"><ele>68.0</ele><time>2026-04-05T12:16:28Z</time></trkpt><trkpt lat="41.25077847907755" lon="14.440473787405088"><ele>68.0</ele><time>2026-04-05T12:16:29Z</time></trkpt><trkpt lat="41.25088246403247" lon="14.440544804255259"><ele>67.8</ele><time>2026-04-05T12:16:30Z</time></trkpt><trkpt lat="41.25097668816174" lon="14.44061993864604"><ele>67.6</ele><time>2026-04-05T12:16:31Z</time></trkpt><trkpt lat="41.251060417190864" lon="14.440683084798517"><ele>67.4</ele><time>2026-04-05T12:16:32Z</time></trkpt><trkpt lat="41.25113481498699" lon="14.440779450894302"><ele>67.2</ele><time>2026-04-05T12:16:33Z</time></trkpt><trkpt lat="41.25121737444239" lon="14.440907536314397"><ele>67.0</ele><time>2026-04-05T12:16:34Z</time></trkpt><trkpt lat="41.25130694315447" lon="14.441045371208352"><ele>67.0</ele><time>2026-04-05T12:16:35Z</time></trkpt><trkpt lat="41.25140578856388" lon="14.441193822349963"><ele>67.0</ele><time>2026-04-05T12:16:36Z</time></trkpt><trkpt lat="41.25151851299728" lon="14.441341347466215"><ele>67.0</ele><time>2026-04-05T12:16:37Z</time></trkpt><trkpt lat="41.25160378964446" lon="14.441522731800594"><ele>66.66666666666666</ele><time>2026-04-05T12:16:38Z</time></trkpt><trkpt lat="41.25171154695861" lon="14.441702304261952"><ele>66.33333333333333</ele><time>2026-04-05T12:16:39Z</time></trkpt><trkpt lat="41.251816378808286" lon="14.441882730443025"><ele>66.0</ele><time>2026-04-05T12:16:40Z</time></trkpt><trkpt lat="41.25191135379344" lon="14.442031137237619"><ele>67.0</ele><time>2026-04-05T12:16:41Z</time></trkpt><trkpt lat="41.25200916469884" lon="14.442178522384575"><ele>68.0</ele><time>2026-04-05T12:16:42Z</time></trkpt><trkpt lat="41.25208529095681" lon="14.442321359742808"><ele>69.0</ele><time>2026-04-05T12:16:43Z</time></trkpt><trkpt lat="41.252141618990805" lon="14.442480228789666"><ele>70.0</ele><time>2026-04-05T12:16:44Z</time></trkpt><trkpt lat="41.25219684549606" lon="14.442650633457673"><ele>70.0</ele><time>2026-04-05T12:16:45Z</time></trkpt><trkpt lat="41.25224829353892" lon="14.442824844179599"><ele>70.0</ele><time>2026-04-05T12:16:46Z</time></trkpt><trkpt lat="41.25233297375896" lon="14.442990045057117"><ele>70.0</ele><time>2026-04-05T12:16:47Z</time></trkpt><trkpt lat="41.25242397044789" lon="14.443154889447365"><ele>70.0</ele><time>2026-04-05T12:16:48Z</time></trkpt><trkpt lat="41.25249696860572" lon="14.443330866274522"><ele>69.75</ele><time>2026-04-05T12:16:49Z</time></trkpt><trkpt lat="41.2525514533368" lon="14.443525532661315"><ele>69.5</ele><time>2026-04-05T12:16:50Z</time></trkpt><trkpt lat="41.25258239694969" lon="14.443693558841273"><ele>69.25</ele><time>2026-04-05T12:16:51Z</time></trkpt><trkpt lat="41.25258076535389" lon="14.443825381927239"><ele>69.0</ele><time>2026-04-05T12:16:51.999Z</time></trkpt><trkpt lat="41.2525756158703" lon="14.443957944988036"><ele>69.5</ele><time>2026-04-05T12:16:52.999Z</time></trkpt><trkpt lat="41.252572328446945" lon="14.444090792808069"><ele>70.0</ele><time>2026-04-05T12:16:53.999Z</time></trkpt><trkpt lat="41.25260708541454" lon="14.444231971987934"><ele>70.5</ele><time>2026-04-05T12:16:54.999Z</time></trkpt><trkpt lat="41.252706813027125" lon="14.444341131344085"><ele>71.0</ele><time>2026-04-05T12:16:55.999Z</time></trkpt><trkpt lat="41.252803170914866" lon="14.444480857242302"><ele>71.0</ele><time>2026-04-05T12:16:56.999Z</time></trkpt><trkpt lat="41.25292007401834" lon="14.444604894023811"><ele>71.0</ele><time>2026-04-05T12:16:57.999Z</time></trkpt><trkpt lat="41.25303295687068" lon="14.444694185212823"><ele>71.0</ele><time>2026-04-05T12:16:58.999Z</time></trkpt><trkpt lat="41.25313444464188" lon="14.444787138672726"><ele>71.0</ele><time>2026-04-05T12:16:59.999Z</time></trkpt><trkpt lat="41.25322403450681" lon="14.44488922304754"><ele>71.6</ele><time>2026-04-05T12:17:00.999Z</time></trkpt><trkpt lat="41.25329795913503" lon="14.444974659309088"><ele>72.19999999999999</ele><time>2026-04-05T12:17:01.999Z</time></trkpt><trkpt lat="41.25335644429307" lon="14.445064181329005"><ele>72.80000000000001</ele><time>2026-04-05T12:17:02.999Z</time></trkpt><trkpt lat="41.25340471658185" lon="14.445197268946286"><ele>73.4</ele><time>2026-04-05T12:17:03.999Z</time></trkpt><trkpt lat="41.25340160698016" lon="14.44535942762399"><ele>74.0</ele><time>2026-04-05T12:17:04.999Z</time></trkpt><trkpt lat="41.25343229402199" lon="14.44551011915193"><ele>74.2</ele><time>2026-04-05T12:17:05.999Z</time></trkpt><trkpt lat="41.25344533459112" lon="14.445630695913454"><ele>74.4</ele><time>2026-04-05T12:17:06.999Z</time></trkpt><trkpt lat="41.25345557234459" lon="14.445737553130849"><ele>74.6</ele><time>2026-04-05T12:17:07.999Z</time></trkpt><trkpt lat="41.25346394469184" lon="14.445842877650614"><ele>74.8</ele><time>2026-04-05T12:17:09.999Z</time></trkpt><trkpt lat="41.25347971925401" lon="14.446052354825563"><ele>75.0</ele><time>2026-04-05T12:17:11.999Z</time></trkpt><trkpt lat="41.253494796535534" lon="14.446202751961861"><ele>75.25</ele><time>2026-04-05T12:17:12.999Z</time></trkpt><trkpt lat="41.25349789929283" lon="14.446353779902248"><ele>75.5</ele><time>2026-04-05T12:17:13.999Z</time></trkpt><trkpt lat="41.25350762642352" lon="14.446507115830938"><ele>75.75</ele><time>2026-04-05T12:17:14.999Z</time></trkpt><trkpt lat="41.25347312211194" lon="14.446665465796677"><ele>76.0</ele><time>2026-04-05T12:17:15.999Z</time></trkpt><trkpt lat="41.25342832251268" lon="14.446873929964276"><ele>76.0</ele><time>2026-04-05T12:17:16.999Z</time></trkpt><trkpt lat="41.2533854895005" lon="14.447099781503283"><ele>76.0</ele><time>2026-04-05T12:17:17.999Z</time></trkpt><trkpt lat="41.25334826238205" lon="14.447309993683906"><ele>76.0</ele><time>2026-04-05T12:17:18.999Z</time></trkpt><trkpt lat="41.25330789424838" lon="14.447478200884143"><ele>76.0</ele><time>2026-04-05T12:17:19.999Z</time></trkpt><trkpt lat="41.25326656525438" lon="14.447602964660096"><ele>76.0</ele><time>2026-04-05T12:17:20.999Z</time></trkpt><trkpt lat="41.25324736882083" lon="14.447722288050803"><ele>76.0</ele><time>2026-04-05T12:17:21.999Z</time></trkpt><trkpt lat="41.25322616808662" lon="14.447822193476858"><ele>76.0</ele><time>2026-04-05T12:17:22.999Z</time></trkpt><trkpt lat="41.253214383298776" lon="14.447971134056807"><ele>76.0</ele><time>2026-04-05T12:17:23.999Z</time></trkpt><trkpt lat="41.253189037103844" lon="14.44812477607027"><ele>76.25</ele><time>2026-04-05T12:17:24.999Z</time></trkpt><trkpt lat="41.25318255887554" lon="14.448277787778947"><ele>76.5</ele><time>2026-04-05T12:17:25.999Z</time></trkpt><trkpt lat="41.25316683080043" lon="14.44842215801971"><ele>76.75</ele><time>2026-04-05T12:17:26.999Z</time></trkpt><trkpt lat="41.25318170972425" lon="14.448574594681357"><ele>77.0</ele><time>2026-04-05T12:17:27.999Z</time></trkpt><trkpt lat="41.253211294363005" lon="14.448726743987493"><ele>77.0</ele><time>2026-04-05T12:17:28.999Z</time></trkpt><trkpt lat="41.25324857621375" lon="14.448875328624876"><ele>77.0</ele><time>2026-04-05T12:17:29.999Z</time></trkpt><trkpt lat="41.25329147817779" lon="14.449028115342495"><ele>77.0</ele><time>2026-04-05T12:17:30.999Z</time></trkpt><trkpt lat="41.253302691428686" lon="14.449189703144542"><ele>77.0</ele><time>2026-04-05T12:17:31.999Z</time></trkpt><trkpt lat="41.25333613989154" lon="14.44934945433967"><ele>77.0</ele><time>2026-04-05T12:17:32.999Z</time></trkpt><trkpt lat="41.25336180152497" lon="14.449511440468967"><ele>77.0</ele><time>2026-04-05T12:17:33.999Z</time></trkpt><trkpt lat="41.25339154714812" lon="14.449677663656168"><ele>77.0</ele><time>2026-04-05T12:17:34.999Z</time></trkpt><trkpt lat="41.2534381547042" lon="14.449827565929327"><ele>77.0</ele><time>2026-04-05T12:17:35.999Z</time></trkpt><trkpt lat="41.253498040538396" lon="14.44999087250899"><ele>77.0</ele><time>2026-04-05T12:17:36.999Z</time></trkpt><trkpt lat="41.25352421597949" lon="14.450159249571561"><ele>77.0</ele><time>2026-04-05T12:17:37.999Z</time></trkpt><trkpt lat="41.253538147221896" lon="14.450330692515228"><ele>77.0</ele><time>2026-04-05T12:17:38.999Z</time></trkpt><trkpt lat="41.25354869680793" lon="14.450519213088098"><ele>77.0</ele><time>2026-04-05T12:17:39.999Z</time></trkpt><trkpt lat="41.25356587295727" lon="14.450695717026777"><ele>77.5</ele><time>2026-04-05T12:17:40.999Z</time></trkpt><trkpt lat="41.25356383975646" lon="14.450855681738679"><ele>78.0</ele><time>2026-04-05T12:17:41.999Z</time></trkpt><trkpt lat="41.2535651869594" lon="14.451016095394738"><ele>78.5</ele><time>2026-04-05T12:17:42.999Z</time></trkpt><trkpt lat="41.253620335341566" lon="14.451177162769564"><ele>79.0</ele><time>2026-04-05T12:17:43.999Z</time></trkpt><trkpt lat="41.253712305432124" lon="14.451290053842785"><ele>79.33333333333333</ele><time>2026-04-05T12:17:44.999Z</time></trkpt><trkpt lat="41.25377885768156" lon="14.451373363207205"><ele>79.66666666666666</ele><time>2026-04-05T12:17:45.999Z</time></trkpt><trkpt lat="41.25383256659071" lon="14.451440578782794"><ele>80.0</ele><time>2026-04-05T12:17:47.999Z</time></trkpt><trkpt lat="41.253885150520176" lon="14.451492103266537"><ele>80.33333333333333</ele><time>2026-04-05T12:17:50.999Z</time></trkpt><trkpt lat="41.25392804347889" lon="14.451562252336323"><ele>80.66666666666667</ele><time>2026-04-05T12:17:53.999Z</time></trkpt><trkpt lat="41.25401945031424" lon="14.4516821153433"><ele>81.0</ele><time>2026-04-05T12:17:55.999Z</time></trkpt><trkpt lat="41.25408033766377" lon="14.451780756365936"><ele>80.66666666666667</ele><time>2026-04-05T12:17:56.999Z</time></trkpt><trkpt lat="41.254128147162824" lon="14.451836131052529"><ele>80.33333333333333</ele><time>2026-04-05T12:18:07Z</time></trkpt><trkpt lat="41.25414389992833" lon="14.451937569158098"><ele>80.0</ele><time>2026-04-05T12:18:09Z</time></trkpt><trkpt lat="41.25418160903765" lon="14.452018109552537"><ele>79.66666666666666</ele><time>2026-04-05T12:18:10Z</time></trkpt><trkpt lat="41.25419333972798" lon="14.452120151642164"><ele>79.33333333333333</ele><time>2026-04-05T12:18:11Z</time></trkpt><trkpt lat="41.25419998387726" lon="14.452216651437597"><ele>79.0</ele><time>2026-04-05T12:18:12Z</time></trkpt><trkpt lat="41.25419042813064" lon="14.452356901947317"><ele>79.0</ele><time>2026-04-05T12:18:14Z</time></trkpt><trkpt lat="41.25419583673375" lon="14.452487460951811"><ele>79.0</ele><time>2026-04-05T12:18:16Z</time></trkpt><trkpt lat="41.254216244547365" lon="14.452617289120788"><ele>79.0</ele><time>2026-04-05T12:18:18Z</time></trkpt><trkpt lat="41.25427467627736" lon="14.452700538404287"><ele>79.0</ele><time>2026-04-05T12:18:20Z</time></trkpt><trkpt lat="41.25432892631333" lon="14.452766331380918"><ele>79.0</ele><time>2026-04-05T12:18:22Z</time></trkpt><trkpt lat="41.25438513438741" lon="14.452818149662189"><ele>79.0</ele><time>2026-04-05T12:18:27Z</time></trkpt><trkpt lat="41.25439855014792" lon="14.452992511854346"><ele>79.0</ele><time>2026-04-05T12:18:52Z</time></trkpt><trkpt lat="41.25442228547112" lon="14.45308918782564"><ele>79.0</ele><time>2026-04-05T12:23:37Z</time></trkpt><trkpt lat="41.254488084600254" lon="14.45307949935045"><ele>79.0</ele><time>2026-04-05T12:23:41Z</time></trkpt><trkpt lat="41.25442891128414" lon="14.452957789387437"><ele>79.0</ele><time>2026-04-05T12:23:44Z</time></trkpt><trkpt lat="41.25435103672292" lon="14.452892835719805"><ele>79.0</ele><time>2026-04-05T12:23:46Z</time></trkpt><trkpt lat="41.25419675840074" lon="14.452940415341612"><ele>79.80000000000001</ele><time>2026-04-05T12:23:48Z</time></trkpt><trkpt lat="41.25410607282882" lon="14.453041213872545"><ele>80.60000000000001</ele><time>2026-04-05T12:23:49Z</time></trkpt><trkpt lat="41.25404479950629" lon="14.45308866552302"><ele>81.4</ele><time>2026-04-05T12:23:51Z</time></trkpt><trkpt lat="41.254086035168875" lon="14.453159841902785"><ele>82.2</ele><time>2026-04-05T12:23:54Z</time></trkpt><trkpt lat="41.25424401949566" lon="14.453097246112446"><ele>83.0</ele><time>2026-04-05T12:23:56Z</time></trkpt><trkpt lat="41.25436579819463" lon="14.453033148394793"><ele>83.0</ele><time>2026-04-05T12:23:57Z</time></trkpt><trkpt lat="41.254446765565554" lon="14.452989705294385"><ele>83.0</ele><time>2026-04-05T12:23:58Z</time></trkpt><trkpt lat="41.25455020282166" lon="14.45294361727733"><ele>83.0</ele><time>2026-04-05T12:23:59Z</time></trkpt><trkpt lat="41.25467517609496" lon="14.452882925987728"><ele>83.0</ele><time>2026-04-05T12:24:00Z</time></trkpt><trkpt lat="41.25476249862581" lon="14.45281693951739"><ele>83.0</ele><time>2026-04-05T12:24:01Z</time></trkpt><trkpt lat="41.25488742250634" lon="14.452754411012268"><ele>82.80000000000001</ele><time>2026-04-05T12:24:02Z</time></trkpt><trkpt lat="41.25499502719143" lon="14.45270138738826"><ele>82.6</ele><time>2026-04-05T12:24:03Z</time></trkpt><trkpt lat="41.255085829905134" lon="14.45265781256557"><ele>82.4</ele><time>2026-04-05T12:24:04Z</time></trkpt><trkpt lat="41.25516607227076" lon="14.4526171633037"><ele>82.19999999999999</ele><time>2026-04-05T12:24:05Z</time></trkpt><trkpt lat="41.255236804970075" lon="14.45259095526147"><ele>82.0</ele><time>2026-04-05T12:24:06Z</time></trkpt><trkpt lat="41.25532991340414" lon="14.452612298073406"><ele>82.0</ele><time>2026-04-05T12:24:08Z</time></trkpt><trkpt lat="41.25530977052238" lon="14.452531402121275"><ele>82.0</ele><time>2026-04-05T12:24:11Z</time></trkpt><trkpt lat="41.255190567821145" lon="14.452577145462678"><ele>82.0</ele><time>2026-04-05T12:24:13Z</time></trkpt><trkpt lat="41.25512901087095" lon="14.452633116087132"><ele>82.0</ele><time>2026-04-05T12:24:14Z</time></trkpt><trkpt lat="41.255123349927686" lon="14.452776775149927"><ele>82.0</ele><time>2026-04-05T12:24:16Z</time></trkpt><trkpt lat="41.25518386151057" lon="14.452858257667916"><ele>82.0</ele><time>2026-04-05T12:24:17Z</time></trkpt><trkpt lat="41.25526319128711" lon="14.452939041443047"><ele>82.0</ele><time>2026-04-05T12:24:18Z</time></trkpt><trkpt lat="41.255349499569505" lon="14.453035201018205"><ele>82.0</ele><time>2026-04-05T12:24:19Z</time></trkpt><trkpt lat="41.25544105008443" lon="14.453145990699658"><ele>82.0</ele><time>2026-04-05T12:24:20Z</time></trkpt><trkpt lat="41.25553460325023" lon="14.453276901543104"><ele>82.33333333333333</ele><time>2026-04-05T12:24:21Z</time></trkpt><trkpt lat="41.25561891836308" lon="14.453430607355433"><ele>82.66666666666667</ele><time>2026-04-05T12:24:22Z</time></trkpt><trkpt lat="41.255689971144434" lon="14.453613005249066"><ele>83.0</ele><time>2026-04-05T12:24:23Z</time></trkpt><trkpt lat="41.255753293712914" lon="14.453806896994887"><ele>85.0</ele><time>2026-04-05T12:24:24Z</time></trkpt><trkpt lat="41.255762898252854" lon="14.453993621273789"><ele>87.0</ele><time>2026-04-05T12:24:25Z</time></trkpt><trkpt lat="41.255817657583" lon="14.45414975903507"><ele>89.0</ele><time>2026-04-05T12:24:26Z</time></trkpt><trkpt lat="41.25587322283386" lon="14.454303763209786"><ele>91.0</ele><time>2026-04-05T12:24:27Z</time></trkpt><trkpt lat="41.25595685669996" lon="14.454434235563722"><ele>91.0</ele><time>2026-04-05T12:24:28Z</time></trkpt><trkpt lat="41.25603852410624" lon="14.45456293732519"><ele>91.0</ele><time>2026-04-05T12:24:29Z</time></trkpt><trkpt lat="41.25613343134715" lon="14.454670438037066"><ele>91.0</ele><time>2026-04-05T12:24:30Z</time></trkpt><trkpt lat="41.25624652950402" lon="14.454777780271874"><ele>91.0</ele><time>2026-04-05T12:24:31Z</time></trkpt><trkpt lat="41.25638043625482" lon="14.454901402222054"><ele>94.33333333333333</ele><time>2026-04-05T12:24:32Z</time></trkpt><trkpt lat="41.25653510436716" lon="14.45505443696757"><ele>97.66666666666666</ele><time>2026-04-05T12:24:33Z</time></trkpt><trkpt lat="41.25668985224356" lon="14.455194496505356"><ele>101.0</ele><time>2026-04-05T12:24:34Z</time></trkpt><trkpt lat="41.25682630269514" lon="14.455318900290303"><ele>101.0</ele><time>2026-04-05T12:24:35Z</time></trkpt><trkpt lat="41.25696855036702" lon="14.455416113774419"><ele>101.0</ele><time>2026-04-05T12:24:36Z</time></trkpt><trkpt lat="41.257114326136474" lon="14.455499365620478"><ele>101.0</ele><time>2026-04-05T12:24:37Z</time></trkpt><trkpt lat="41.25725084518865" lon="14.455578830248527"><ele>102.4</ele><time>2026-04-05T12:24:38Z</time></trkpt><trkpt lat="41.25735686660387" lon="14.45566896420183"><ele>103.8</ele><time>2026-04-05T12:24:39Z</time></trkpt><trkpt lat="41.257462877058806" lon="14.455699287598671"><ele>105.20000000000002</ele><time>2026-04-05T12:24:40Z</time></trkpt><trkpt lat="41.25754461847637" lon="14.45572323992762"><ele>106.60000000000001</ele><time>2026-04-05T12:24:41Z</time></trkpt><trkpt lat="41.25760834274401" lon="14.455721611753459"><ele>108.0</ele><time>2026-04-05T12:24:42Z</time></trkpt><trkpt lat="41.25769093831735" lon="14.455658090446093"><ele>108.0</ele><time>2026-04-05T12:24:43.999Z</time></trkpt><trkpt lat="41.257754323980755" lon="14.455633640113684"><ele>108.0</ele><time>2026-04-05T12:24:45.999Z</time></trkpt><trkpt lat="41.257850499178424" lon="14.455622710664183"><ele>108.0</ele><time>2026-04-05T12:24:47.999Z</time></trkpt><trkpt lat="41.2579121784886" lon="14.455649529140063"><ele>108.0</ele><time>2026-04-05T12:24:48.999Z</time></trkpt><trkpt lat="41.25795734028758" lon="14.455733397079578"><ele>108.0</ele><time>2026-04-05T12:24:49.999Z</time></trkpt><trkpt lat="41.25802954692563" lon="14.45580955179249"><ele>108.0</ele><time>2026-04-05T12:24:50.999Z</time></trkpt><trkpt lat="41.25814978242938" lon="14.455922583278365"><ele>109.25</ele><time>2026-04-05T12:24:51.999Z</time></trkpt><trkpt lat="41.258279386154975" lon="14.455990279307267"><ele>110.5</ele><time>2026-04-05T12:24:52.999Z</time></trkpt><trkpt lat="41.258406449556894" lon="14.456056715984563"><ele>111.75</ele><time>2026-04-05T12:24:53.999Z</time></trkpt><trkpt lat="41.25855529053497" lon="14.456117720263686"><ele>113.0</ele><time>2026-04-05T12:24:54.999Z</time></trkpt><trkpt lat="41.25873356651252" lon="14.456206069530623"><ele>113.33333333333333</ele><time>2026-04-05T12:24:55.999Z</time></trkpt><trkpt lat="41.25892769240871" lon="14.456297896177295"><ele>113.66666666666666</ele><time>2026-04-05T12:24:56.999Z</time></trkpt><trkpt lat="41.25912862106917" lon="14.456405576826345"><ele>114.0</ele><time>2026-04-05T12:24:57.999Z</time></trkpt><trkpt lat="41.259354188694466" lon="14.45653907181584"><ele>115.0</ele><time>2026-04-05T12:24:58.999Z</time></trkpt><trkpt lat="41.25958532002788" lon="14.456676002679933"><ele>116.0</ele><time>2026-04-05T12:24:59.999Z</time></trkpt><trkpt lat="41.259793757669975" lon="14.456799489036772"><ele>118.0</ele><time>2026-04-05T12:25:00.999Z</time></trkpt><trkpt lat="41.25995513342394" lon="14.456893652092596"><ele>120.0</ele><time>2026-04-05T12:25:01.999Z</time></trkpt><trkpt lat="41.26011311171493" lon="14.45698554949019"><ele>122.0</ele><time>2026-04-05T12:25:02.999Z</time></trkpt><trkpt lat="41.260239928633304" lon="14.457066409460033"><ele>123.0</ele><time>2026-04-05T12:25:03.999Z</time></trkpt><trkpt lat="41.26034648877738" lon="14.457143030863076"><ele>124.0</ele><time>2026-04-05T12:25:04.999Z</time></trkpt><trkpt lat="41.26045803647486" lon="14.457237799717927"><ele>125.0</ele><time>2026-04-05T12:25:05.999Z</time></trkpt><trkpt lat="41.26057824543669" lon="14.457353049678984"><ele>126.0</ele><time>2026-04-05T12:25:06.999Z</time></trkpt><trkpt lat="41.26070778295026" lon="14.457491384635606"><ele>127.0</ele><time>2026-04-05T12:25:07.999Z</time></trkpt><trkpt lat="41.260841015768364" lon="14.457635503942608"><ele>128.0</ele><time>2026-04-05T12:25:08.999Z</time></trkpt><trkpt lat="41.26097701962225" lon="14.457785764559219"><ele>129.0</ele><time>2026-04-05T12:25:09.999Z</time></trkpt><trkpt lat="41.26110281343873" lon="14.457931514478883"><ele>129.75</ele><time>2026-04-05T12:25:10.999Z</time></trkpt><trkpt lat="41.261220204613096" lon="14.458072717786141"><ele>130.5</ele><time>2026-04-05T12:25:11.999Z</time></trkpt><trkpt lat="41.26132842003172" lon="14.458207159734405"><ele>131.25</ele><time>2026-04-05T12:25:12.999Z</time></trkpt><trkpt lat="41.261392513300635" lon="14.45834666487606"><ele>132.0</ele><time>2026-04-05T12:25:13.999Z</time></trkpt><trkpt lat="41.2614528752191" lon="14.458494234931651"><ele>133.0</ele><time>2026-04-05T12:25:14.999Z</time></trkpt><trkpt lat="41.261512140815114" lon="14.458669593452251"><ele>134.0</ele><time>2026-04-05T12:25:15.999Z</time></trkpt><trkpt lat="41.26158206505991" lon="14.458828980298463"><ele>135.0</ele><time>2026-04-05T12:25:16.999Z</time></trkpt><trkpt lat="41.26170370536341" lon="14.45897402646092"><ele>136.0</ele><time>2026-04-05T12:25:17.999Z</time></trkpt><trkpt lat="41.26183259874772" lon="14.459161354119415"><ele>137.25</ele><time>2026-04-05T12:25:18.999Z</time></trkpt><trkpt lat="41.261953381586245" lon="14.459314609545794"><ele>138.5</ele><time>2026-04-05T12:25:19.999Z</time></trkpt><trkpt lat="41.26207176577788" lon="14.459401550699635"><ele>139.75</ele><time>2026-04-05T12:25:20.999Z</time></trkpt><trkpt lat="41.262187800627686" lon="14.459507229847462"><ele>141.0</ele><time>2026-04-05T12:25:21.999Z</time></trkpt><trkpt lat="41.26234800652936" lon="14.459526774449435"><ele>143.0</ele><time>2026-04-05T12:25:22.999Z</time></trkpt><trkpt lat="41.26251778159782" lon="14.459547039023008"><ele>145.0</ele><time>2026-04-05T12:25:23.999Z</time></trkpt><trkpt lat="41.26269580976191" lon="14.459520611075902"><ele>147.0</ele><time>2026-04-05T12:25:24.999Z</time></trkpt><trkpt lat="41.26284205690729" lon="14.459477117971945"><ele>147.0</ele><time>2026-04-05T12:25:25.999Z</time></trkpt><trkpt lat="41.26297582782273" lon="14.459484791336157"><ele>147.0</ele><time>2026-04-05T12:25:26.999Z</time></trkpt><trkpt lat="41.26311130013678" lon="14.45948818404208"><ele>147.0</ele><time>2026-04-05T12:25:27.999Z</time></trkpt><trkpt lat="41.26327809784561" lon="14.459530998496115"><ele>147.0</ele><time>2026-04-05T12:25:28.999Z</time></trkpt><trkpt lat="41.26344702649167" lon="14.45958571717888"><ele>147.75</ele><time>2026-04-05T12:25:29.999Z</time></trkpt><trkpt lat="41.26360026238518" lon="14.459629160265482"><ele>148.5</ele><time>2026-04-05T12:25:30.999Z</time></trkpt><trkpt lat="41.26373045380389" lon="14.459663159212027"><ele>149.25</ele><time>2026-04-05T12:25:31.999Z</time></trkpt><trkpt lat="41.26384239151337" lon="14.459732542102623"><ele>150.0</ele><time>2026-04-05T12:25:32.999Z</time></trkpt><trkpt lat="41.263913162695694" lon="14.459829330188553"><ele>152.0</ele><time>2026-04-05T12:25:33.999Z</time></trkpt><trkpt lat="41.263964184222715" lon="14.459964678970001"><ele>154.0</ele><time>2026-04-05T12:25:34.999Z</time></trkpt><trkpt lat="41.264040553509766" lon="14.460139784340967"><ele>156.0</ele><time>2026-04-05T12:25:35.999Z</time></trkpt><trkpt lat="41.264110197134066" lon="14.460373360531024"><ele>156.33333333333334</ele><time>2026-04-05T12:25:36.999Z</time></trkpt><trkpt lat="41.264188384894496" lon="14.460611956783845"><ele>156.66666666666669</ele><time>2026-04-05T12:25:37.999Z</time></trkpt><trkpt lat="41.26425947090399" lon="14.460847836124584"><ele>157.0</ele><time>2026-04-05T12:25:38.999Z</time></trkpt><trkpt lat="41.264340582553594" lon="14.461045512938789"><ele>157.0</ele><time>2026-04-05T12:25:40Z</time></trkpt><trkpt lat="41.26439486745105" lon="14.461232122039146"><ele>157.0</ele><time>2026-04-05T12:25:41Z</time></trkpt><trkpt lat="41.264447443425794" lon="14.461428761512735"><ele>157.0</ele><time>2026-04-05T12:25:42Z</time></trkpt><trkpt lat="41.26450184929734" lon="14.461618599229459"><ele>158.0</ele><time>2026-04-05T12:25:43Z</time></trkpt><trkpt lat="41.26456495199922" lon="14.46179816178959"><ele>159.0</ele><time>2026-04-05T12:25:44Z</time></trkpt><trkpt lat="41.264639724067806" lon="14.461913976603094"><ele>160.0</ele><time>2026-04-05T12:25:45Z</time></trkpt><trkpt lat="41.26475755705327" lon="14.46203261267727"><ele>161.0</ele><time>2026-04-05T12:25:46Z</time></trkpt><trkpt lat="41.264909857653585" lon="14.462151926740324"><ele>161.66666666666666</ele><time>2026-04-05T12:25:47Z</time></trkpt><trkpt lat="41.265053727573495" lon="14.462302082076349"><ele>162.33333333333334</ele><time>2026-04-05T12:25:48Z</time></trkpt><trkpt lat="41.265206072251694" lon="14.46243683576552"><ele>163.0</ele><time>2026-04-05T12:25:49Z</time></trkpt><trkpt lat="41.265360077081" lon="14.462527869327051"><ele>163.0</ele><time>2026-04-05T12:25:50Z</time></trkpt><trkpt lat="41.265495250025964" lon="14.462601836852873"><ele>163.0</ele><time>2026-04-05T12:25:51Z</time></trkpt><trkpt lat="41.26560980380169" lon="14.46269352438644"><ele>163.0</ele><time>2026-04-05T12:25:52Z</time></trkpt><trkpt lat="41.26571859823596" lon="14.462765302422682"><ele>163.0</ele><time>2026-04-05T12:25:53Z</time></trkpt><trkpt lat="41.26581495172581" lon="14.46285832162886"><ele>162.33333333333334</ele><time>2026-04-05T12:25:54Z</time></trkpt><trkpt lat="41.265908346232514" lon="14.462993122407394"><ele>161.66666666666666</ele><time>2026-04-05T12:25:55Z</time></trkpt><trkpt lat="41.26601311032753" lon="14.463148695498615"><ele>161.0</ele><time>2026-04-05T12:25:56Z</time></trkpt><trkpt lat="41.26612529099833" lon="14.463317784085296"><ele>161.0</ele><time>2026-04-05T12:25:57Z</time></trkpt><trkpt lat="41.26624236763747" lon="14.463494253811465"><ele>161.0</ele><time>2026-04-05T12:25:58Z</time></trkpt><trkpt lat="41.26636838498713" lon="14.46365611116241"><ele>161.0</ele><time>2026-04-05T12:25:59Z</time></trkpt><trkpt lat="41.26647765896277" lon="14.463841810196003"><ele>160.33333333333331</ele><time>2026-04-05T12:26:00Z</time></trkpt><trkpt lat="41.26658336215124" lon="14.464022073393842"><ele>159.66666666666666</ele><time>2026-04-05T12:26:01Z</time></trkpt><trkpt lat="41.266685823100346" lon="14.464181673227428"><ele>159.0</ele><time>2026-04-05T12:26:02Z</time></trkpt><trkpt lat="41.26677840528537" lon="14.464354412407497"><ele>159.0</ele><time>2026-04-05T12:26:03Z</time></trkpt><trkpt lat="41.26688405477496" lon="14.464518715788584"><ele>159.0</ele><time>2026-04-05T12:26:04Z</time></trkpt><trkpt lat="41.2669883172343" lon="14.464677979525476"><ele>159.0</ele><time>2026-04-05T12:26:05Z</time></trkpt><trkpt lat="41.26709324761858" lon="14.464834334156583"><ele>158.33333333333334</ele><time>2026-04-05T12:26:06Z</time></trkpt><trkpt lat="41.26719114422413" lon="14.464998244091886"><ele>157.66666666666669</ele><time>2026-04-05T12:26:07Z</time></trkpt><trkpt lat="41.2672819074006" lon="14.465169527472387"><ele>157.0</ele><time>2026-04-05T12:26:08Z</time></trkpt><trkpt lat="41.267360082425405" lon="14.46533940129578"><ele>155.25</ele><time>2026-04-05T12:26:09Z</time></trkpt><trkpt lat="41.26743384827385" lon="14.465514405822997"><ele>153.5</ele><time>2026-04-05T12:26:10Z</time></trkpt><trkpt lat="41.26752513269097" lon="14.465647506929278"><ele>151.75</ele><time>2026-04-05T12:26:11Z</time></trkpt><trkpt lat="41.26760044452371" lon="14.465775438695086"><ele>150.0</ele><time>2026-04-05T12:26:12Z</time></trkpt><trkpt lat="41.26770673259821" lon="14.465879971144634"><ele>150.0</ele><time>2026-04-05T12:26:13Z</time></trkpt><trkpt lat="41.2678397868463" lon="14.46595221255397"><ele>150.0</ele><time>2026-04-05T12:26:14Z</time></trkpt><trkpt lat="41.267945388688815" lon="14.466061850509737"><ele>150.0</ele><time>2026-04-05T12:26:14.999Z</time></trkpt><trkpt lat="41.26804946696492" lon="14.466203938665805"><ele>150.0</ele><time>2026-04-05T12:26:15.999Z</time></trkpt><trkpt lat="41.268144764834325" lon="14.466353579987514"><ele>147.75</ele><time>2026-04-05T12:26:16.999Z</time></trkpt><trkpt lat="41.2682375599378" lon="14.466503249218785"><ele>145.5</ele><time>2026-04-05T12:26:17.999Z</time></trkpt><trkpt lat="41.26833055199663" lon="14.46664460233931"><ele>143.25</ele><time>2026-04-05T12:26:18.999Z</time></trkpt><trkpt lat="41.26842312095358" lon="14.46677704490122"><ele>141.0</ele><time>2026-04-05T12:26:20Z</time></trkpt><trkpt lat="41.26852492160406" lon="14.466894809961605"><ele>141.0</ele><time>2026-04-05T12:26:20.999Z</time></trkpt><trkpt lat="41.26863210613233" lon="14.466984579880835"><ele>141.0</ele><time>2026-04-05T12:26:21.999Z</time></trkpt><trkpt lat="41.268757245233914" lon="14.467060657620268"><ele>141.0</ele><time>2026-04-05T12:26:22.999Z</time></trkpt><trkpt lat="41.26887208713154" lon="14.467151373078815"><ele>141.0</ele><time>2026-04-05T12:26:23.999Z</time></trkpt><trkpt lat="41.26896314114746" lon="14.467246550319706"><ele>140.0</ele><time>2026-04-05T12:26:24.999Z</time></trkpt><trkpt lat="41.26902977417895" lon="14.467366382549292"><ele>139.0</ele><time>2026-04-05T12:26:25.999Z</time></trkpt><trkpt lat="41.26907702134632" lon="14.467499706302483"><ele>138.0</ele><time>2026-04-05T12:26:26.999Z</time></trkpt><trkpt lat="41.26910816716031" lon="14.467654041596758"><ele>137.0</ele><time>2026-04-05T12:26:27.999Z</time></trkpt><trkpt lat="41.26914084792478" lon="14.467811113273772"><ele>137.0</ele><time>2026-04-05T12:26:28.999Z</time></trkpt><trkpt lat="41.26916044750419" lon="14.467924986582808"><ele>137.0</ele><time>2026-04-05T12:26:29.999Z</time></trkpt><trkpt lat="41.269225772514154" lon="14.468053455624291"><ele>137.0</ele><time>2026-04-05T12:26:30.999Z</time></trkpt><trkpt lat="41.26931288500742" lon="14.468196404936299"><ele>137.0</ele><time>2026-04-05T12:26:31.999Z</time></trkpt><trkpt lat="41.26943144661403" lon="14.468349334576331"><ele>137.0</ele><time>2026-04-05T12:26:32.999Z</time></trkpt><trkpt lat="41.269553931558406" lon="14.46849136671795"><ele>137.0</ele><time>2026-04-05T12:26:33.999Z</time></trkpt><trkpt lat="41.26968613244142" lon="14.468626205044506"><ele>137.0</ele><time>2026-04-05T12:26:34.999Z</time></trkpt><trkpt lat="41.26982781716653" lon="14.468741461614139"><ele>137.0</ele><time>2026-04-05T12:26:35.999Z</time></trkpt><trkpt lat="41.26996618598424" lon="14.46883005724951"><ele>137.0</ele><time>2026-04-05T12:26:36.999Z</time></trkpt><trkpt lat="41.270094212487216" lon="14.468901974876976"><ele>137.0</ele><time>2026-04-05T12:26:37.999Z</time></trkpt><trkpt lat="41.27019215287939" lon="14.46898302030333"><ele>137.0</ele><time>2026-04-05T12:26:38.999Z</time></trkpt><trkpt lat="41.27028193703586" lon="14.46909760532033"><ele>137.0</ele><time>2026-04-05T12:26:39.999Z</time></trkpt><trkpt lat="41.270351541046665" lon="14.469239824410062"><ele>137.0</ele><time>2026-04-05T12:26:40.999Z</time></trkpt><trkpt lat="41.27042129029351" lon="14.469388109024322"><ele>137.0</ele><time>2026-04-05T12:26:41.999Z</time></trkpt><trkpt lat="41.270501481794064" lon="14.469497708309682"><ele>137.0</ele><time>2026-04-05T12:26:42.999Z</time></trkpt><trkpt lat="41.27059840181665" lon="14.469591431447002"><ele>138.66666666666666</ele><time>2026-04-05T12:26:43.999Z</time></trkpt><trkpt lat="41.27071964873996" lon="14.469690986215967"><ele>140.33333333333334</ele><time>2026-04-05T12:26:44.999Z</time></trkpt><trkpt lat="41.270859664629015" lon="14.469777804789665"><ele>142.0</ele><time>2026-04-05T12:26:45.999Z</time></trkpt><trkpt lat="41.27100467721838" lon="14.46987876049614"><ele>142.0</ele><time>2026-04-05T12:26:46.999Z</time></trkpt><trkpt lat="41.27114058199087" lon="14.46999825390661"><ele>142.0</ele><time>2026-04-05T12:26:47.999Z</time></trkpt><trkpt lat="41.27127219116289" lon="14.47011971495524"><ele>142.0</ele><time>2026-04-05T12:26:48.999Z</time></trkpt><trkpt lat="41.271369059454024" lon="14.47021159921575"><ele>142.0</ele><time>2026-04-05T12:26:49.999Z</time></trkpt><trkpt lat="41.27145687435451" lon="14.47029489594721"><ele>142.2</ele><time>2026-04-05T12:26:50.999Z</time></trkpt><trkpt lat="41.27154088496974" lon="14.470374584177403"><ele>142.39999999999998</ele><time>2026-04-05T12:26:51.999Z</time></trkpt><trkpt lat="41.271624156994314" lon="14.470452774865784"><ele>142.60000000000002</ele><time>2026-04-05T12:26:52.999Z</time></trkpt><trkpt lat="41.27171578192429" lon="14.470537054565368"><ele>142.8</ele><time>2026-04-05T12:26:53.999Z</time></trkpt><trkpt lat="41.271809687787815" lon="14.470626753962764"><ele>143.0</ele><time>2026-04-05T12:26:54.999Z</time></trkpt><trkpt lat="41.27189416801966" lon="14.47071073051784"><ele>143.0</ele><time>2026-04-05T12:26:55.999Z</time></trkpt><trkpt lat="41.27197645980922" lon="14.470796275733143"><ele>143.0</ele><time>2026-04-05T12:26:56.999Z</time></trkpt><trkpt lat="41.272056671476655" lon="14.470885302698145"><ele>143.0</ele><time>2026-04-05T12:26:57.999Z</time></trkpt><trkpt lat="41.2721364143636" lon="14.470977239515953"><ele>143.0</ele><time>2026-04-05T12:26:58.999Z</time></trkpt><trkpt lat="41.27221353526855" lon="14.471068121659417"><ele>143.0</ele><time>2026-04-05T12:26:59.999Z</time></trkpt><trkpt lat="41.27228873350231" lon="14.47116611151171"><ele>143.0</ele><time>2026-04-05T12:27:00.999Z</time></trkpt><trkpt lat="41.272362906635735" lon="14.47126397214683"><ele>143.0</ele><time>2026-04-05T12:27:01.999Z</time></trkpt><trkpt lat="41.27244620361376" lon="14.471344594781895"><ele>143.0</ele><time>2026-04-05T12:27:02.999Z</time></trkpt><trkpt lat="41.27250281921372" lon="14.471427640230832"><ele>143.0</ele><time>2026-04-05T12:27:03.999Z</time></trkpt><trkpt lat="41.272569272556076" lon="14.471466556113718"><ele>143.0</ele><time>2026-04-05T12:27:04.999Z</time></trkpt><trkpt lat="41.27263621344797" lon="14.471471424351538"><ele>143.0</ele><time>2026-04-05T12:27:05.999Z</time></trkpt><trkpt lat="41.27273202599464" lon="14.47143205877268"><ele>143.0</ele><time>2026-04-05T12:27:06.999Z</time></trkpt><trkpt lat="41.27286977604221" lon="14.471378685723723"><ele>143.0</ele><time>2026-04-05T12:27:07.999Z</time></trkpt><trkpt lat="41.27302347641815" lon="14.471261900708248"><ele>143.0</ele><time>2026-04-05T12:27:08.999Z</time></trkpt><trkpt lat="41.27321839171886" lon="14.471165345806153"><ele>144.33333333333331</ele><time>2026-04-05T12:27:09.999Z</time></trkpt><trkpt lat="41.27339256555697" lon="14.471045462938235"><ele>145.66666666666666</ele><time>2026-04-05T12:27:10.999Z</time></trkpt><trkpt lat="41.27354826971807" lon="14.470975141028633"><ele>147.0</ele><time>2026-04-05T12:27:11.999Z</time></trkpt><trkpt lat="41.273682115796376" lon="14.470908066489777"><ele>147.0</ele><time>2026-04-05T12:27:12.999Z</time></trkpt><trkpt lat="41.27384635756977" lon="14.470837111651228"><ele>147.0</ele><time>2026-04-05T12:27:13.999Z</time></trkpt><trkpt lat="41.274038216745126" lon="14.4707773182511"><ele>147.0</ele><time>2026-04-05T12:27:14.999Z</time></trkpt><trkpt lat="41.27426905610845" lon="14.470723066681067"><ele>148.0</ele><time>2026-04-05T12:27:15.999Z</time></trkpt><trkpt lat="41.27444741980483" lon="14.470686195858484"><ele>149.0</ele><time>2026-04-05T12:27:16.999Z</time></trkpt><trkpt lat="41.2746123599973" lon="14.470653317906203"><ele>150.0</ele><time>2026-04-05T12:27:17.999Z</time></trkpt><trkpt lat="41.27477343140082" lon="14.470620206799595"><ele>151.0</ele><time>2026-04-05T12:27:18.999Z</time></trkpt><trkpt lat="41.27492549083154" lon="14.470588404968293"><ele>152.0</ele><time>2026-04-05T12:27:19.999Z</time></trkpt><trkpt lat="41.27508190313627" lon="14.470555692826409"><ele>153.0</ele><time>2026-04-05T12:27:20.999Z</time></trkpt><trkpt lat="41.275236616725515" lon="14.470523057000184"><ele>153.0</ele><time>2026-04-05T12:27:21.999Z</time></trkpt><trkpt lat="41.2754052930075" lon="14.47048726122085"><ele>153.0</ele><time>2026-04-05T12:27:22.999Z</time></trkpt><trkpt lat="41.27557110883715" lon="14.470452072492037"><ele>153.0</ele><time>2026-04-05T12:27:23.999Z</time></trkpt><trkpt lat="41.275732116958714" lon="14.470398643013645"><ele>154.25</ele><time>2026-04-05T12:27:24.999Z</time></trkpt><trkpt lat="41.27589100784711" lon="14.4703667513146"><ele>155.5</ele><time>2026-04-05T12:27:25.999Z</time></trkpt><trkpt lat="41.2760312904151" lon="14.47036149363278"><ele>156.75</ele><time>2026-04-05T12:27:26.999Z</time></trkpt><trkpt lat="41.27615155515557" lon="14.470344538780235"><ele>158.0</ele><time>2026-04-05T12:27:27.999Z</time></trkpt><trkpt lat="41.27625242061139" lon="14.47033251850998"><ele>158.0</ele><time>2026-04-05T12:27:28.999Z</time></trkpt><trkpt lat="41.27632606628779" lon="14.470328494921404"><ele>158.0</ele><time>2026-04-05T12:27:29.999Z</time></trkpt><trkpt lat="41.276404896018704" lon="14.470350941360522"><ele>158.0</ele><time>2026-04-05T12:27:32.999Z</time></trkpt><trkpt lat="41.27636723318106" lon="14.470495788011727"><ele>158.0</ele><time>2026-04-05T12:27:33.999Z</time></trkpt><trkpt lat="41.27637791353318" lon="14.470608906546374"><ele>158.0</ele><time>2026-04-05T12:27:34.999Z</time></trkpt><trkpt lat="41.276390144174506" lon="14.470730459272938"><ele>158.0</ele><time>2026-04-05T12:27:35.999Z</time></trkpt><trkpt lat="41.27640571172668" lon="14.47087211169234"><ele>158.5</ele><time>2026-04-05T12:27:36.999Z</time></trkpt><trkpt lat="41.27642393802359" lon="14.471023944270664"><ele>159.0</ele><time>2026-04-05T12:27:37.999Z</time></trkpt><trkpt lat="41.276442491210396" lon="14.471174061167623"><ele>159.5</ele><time>2026-04-05T12:27:38.999Z</time></trkpt><trkpt lat="41.27646208917757" lon="14.471325867276011"><ele>160.0</ele><time>2026-04-05T12:27:39.999Z</time></trkpt><trkpt lat="41.27648530210812" lon="14.471503015907647"><ele>160.0</ele><time>2026-04-05T12:27:40.999Z</time></trkpt><trkpt lat="41.27650734154249" lon="14.47166195376917"><ele>160.0</ele><time>2026-04-05T12:27:41.999Z</time></trkpt><trkpt lat="41.27653445624673" lon="14.471850329358382"><ele>160.0</ele><time>2026-04-05T12:27:42.999Z</time></trkpt><trkpt lat="41.27656217270425" lon="14.47204288580905"><ele>160.0</ele><time>2026-04-05T12:27:43.999Z</time></trkpt><trkpt lat="41.27659303787061" lon="14.472246076431928"><ele>159.66666666666669</ele><time>2026-04-05T12:27:44.999Z</time></trkpt><trkpt lat="41.27663007642939" lon="14.472453200153259"><ele>159.33333333333334</ele><time>2026-04-05T12:27:46Z</time></trkpt><trkpt lat="41.27667133553369" lon="14.472660684365644"><ele>159.0</ele><time>2026-04-05T12:27:47Z</time></trkpt><trkpt lat="41.27671587732493" lon="14.472880333214519"><ele>159.0</ele><time>2026-04-05T12:27:48Z</time></trkpt><trkpt lat="41.27675968574561" lon="14.473107330897497"><ele>159.0</ele><time>2026-04-05T12:27:49Z</time></trkpt><trkpt lat="41.276800469400996" lon="14.4733194897168"><ele>159.0</ele><time>2026-04-05T12:27:50Z</time></trkpt><trkpt lat="41.276840844215926" lon="14.473525015595358"><ele>159.0</ele><time>2026-04-05T12:27:51Z</time></trkpt><trkpt lat="41.27688012953712" lon="14.473719187061233"><ele>159.0</ele><time>2026-04-05T12:27:52Z</time></trkpt><trkpt lat="41.2769192513819" lon="14.47391255049982"><ele>159.0</ele><time>2026-04-05T12:27:53Z</time></trkpt><trkpt lat="41.27695470171593" lon="14.474087767041807"><ele>159.0</ele><time>2026-04-05T12:27:54Z</time></trkpt><trkpt lat="41.27698616522647" lon="14.474250439503097"><ele>158.2</ele><time>2026-04-05T12:27:55Z</time></trkpt><trkpt lat="41.27700924425027" lon="14.47439302373676"><ele>157.4</ele><time>2026-04-05T12:27:56Z</time></trkpt><trkpt lat="41.277034161685904" lon="14.474533665590917"><ele>156.6</ele><time>2026-04-05T12:27:57Z</time></trkpt><trkpt lat="41.2770563373635" lon="14.474644351801393"><ele>155.8</ele><time>2026-04-05T12:27:58Z</time></trkpt><trkpt lat="41.27707898313501" lon="14.474734793557923"><ele>155.0</ele><time>2026-04-05T12:27:59Z</time></trkpt><trkpt lat="41.27714129082229" lon="14.47484602412682"><ele>153.0</ele><time>2026-04-05T12:28:01Z</time></trkpt><trkpt lat="41.27721237830929" lon="14.474898809518304"><ele>151.0</ele><time>2026-04-05T12:28:05Z</time></trkpt><trkpt lat="41.27728519579482" lon="14.474648169792673"><ele>149.0</ele><time>2026-04-05T12:28:07Z</time></trkpt><trkpt lat="41.27732524758164" lon="14.474522091109263"><ele>147.0</ele><time>2026-04-05T12:28:09Z</time></trkpt><trkpt lat="41.277391163951805" lon="14.474445279338134"><ele>148.6</ele><time>2026-04-05T12:28:11Z</time></trkpt><trkpt lat="41.27742696837291" lon="14.474325802053961"><ele>150.2</ele><time>2026-04-05T12:30:23Z</time></trkpt><trkpt lat="41.27743428474746" lon="14.474237704594886"><ele>151.8</ele><time>2026-04-05T12:30:24Z</time></trkpt><trkpt lat="41.27740188383466" lon="14.474121893259841"><ele>153.4</ele><time>2026-04-05T12:30:26Z</time></trkpt><trkpt lat="41.277337058479176" lon="14.47411248658523"><ele>155.0</ele><time>2026-04-05T12:30:29Z</time></trkpt><trkpt lat="41.27725114137302" lon="14.474348782661973"><ele>155.0</ele><time>2026-04-05T12:30:31Z</time></trkpt><trkpt lat="41.277236938544974" lon="14.474461710752584"><ele>155.0</ele><time>2026-04-05T12:30:32Z</time></trkpt><trkpt lat="41.277220030364376" lon="14.474596149100545"><ele>155.0</ele><time>2026-04-05T12:30:33Z</time></trkpt><trkpt lat="41.27720206826067" lon="14.474738970078755"><ele>155.0</ele><time>2026-04-05T12:30:34Z</time></trkpt><trkpt lat="41.277181737346524" lon="14.474872466341681"><ele>155.0</ele><time>2026-04-05T12:30:35Z</time></trkpt><trkpt lat="41.27716319640213" lon="14.475006334381241"><ele>153.4</ele><time>2026-04-05T12:30:36Z</time></trkpt><trkpt lat="41.27714426708202" lon="14.475138757996447"><ele>151.8</ele><time>2026-04-05T12:30:37Z</time></trkpt><trkpt lat="41.277128729598815" lon="14.475252551235235"><ele>150.2</ele><time>2026-04-05T12:30:38Z</time></trkpt><trkpt lat="41.277113850150464" lon="14.475361636548048"><ele>148.6</ele><time>2026-04-05T12:30:39Z</time></trkpt><trkpt lat="41.27709899467699" lon="14.47547054576103"><ele>147.0</ele><time>2026-04-05T12:30:40Z</time></trkpt><trkpt lat="41.277081329590345" lon="14.475600057654454"><ele>146.25</ele><time>2026-04-05T12:30:41Z</time></trkpt><trkpt lat="41.277087283335185" lon="14.475759531384263"><ele>145.5</ele><time>2026-04-05T12:30:42Z</time></trkpt><trkpt lat="41.27706917247727" lon="14.475921353643328"><ele>144.75</ele><time>2026-04-05T12:30:43Z</time></trkpt><trkpt lat="41.27704932057407" lon="14.476095165149141"><ele>144.0</ele><time>2026-04-05T12:30:44Z</time></trkpt><trkpt lat="41.27702878538935" lon="14.47627962872008"><ele>143.75</ele><time>2026-04-05T12:30:45Z</time></trkpt><trkpt lat="41.276970540622344" lon="14.476461955000545"><ele>143.5</ele><time>2026-04-05T12:30:46Z</time></trkpt><trkpt lat="41.27694759737386" lon="14.476641841344886"><ele>143.25</ele><time>2026-04-05T12:30:47Z</time></trkpt><trkpt lat="41.27692565448303" lon="14.476813884538112"><ele>143.0</ele><time>2026-04-05T12:30:48Z</time></trkpt><trkpt lat="41.27690451130997" lon="14.4769796578048"><ele>143.25</ele><time>2026-04-05T12:30:49Z</time></trkpt><trkpt lat="41.276884897051474" lon="14.477131399052519"><ele>143.5</ele><time>2026-04-05T12:30:50Z</time></trkpt><trkpt lat="41.27686567978919" lon="14.477279467269897"><ele>143.75</ele><time>2026-04-05T12:30:51Z</time></trkpt><trkpt lat="41.27684880012414" lon="14.477409524380153"><ele>144.0</ele><time>2026-04-05T12:30:52Z</time></trkpt><trkpt lat="41.27682196176963" lon="14.477616312733153"><ele>144.0</ele><time>2026-04-05T12:30:53Z</time></trkpt><trkpt lat="41.276802541820935" lon="14.477765942653853"><ele>144.0</ele><time>2026-04-05T12:30:54Z</time></trkpt><trkpt lat="41.276783625663825" lon="14.477911513222677"><ele>144.0</ele><time>2026-04-05T12:30:55Z</time></trkpt><trkpt lat="41.276765296675194" lon="14.478050507947932"><ele>144.0</ele><time>2026-04-05T12:30:56Z</time></trkpt><trkpt lat="41.27674759387425" lon="14.478184754273526"><ele>144.0</ele><time>2026-04-05T12:30:57Z</time></trkpt><trkpt lat="41.27673128566045" lon="14.4783077009712"><ele>143.5</ele><time>2026-04-05T12:30:58Z</time></trkpt><trkpt lat="41.27671596015288" lon="14.4784206697741"><ele>143.0</ele><time>2026-04-05T12:30:59Z</time></trkpt><trkpt lat="41.27670263633225" lon="14.478515056957367"><ele>142.5</ele><time>2026-04-05T12:31:00Z</time></trkpt><trkpt lat="41.27669127110607" lon="14.478662299112685"><ele>142.0</ele><time>2026-04-05T12:31:02Z</time></trkpt><trkpt lat="41.276688042605805" lon="14.478764471259145"><ele>141.5</ele><time>2026-04-05T12:31:03Z</time></trkpt><trkpt lat="41.276688412338764" lon="14.478854308718095"><ele>141.0</ele><time>2026-04-05T12:31:04Z</time></trkpt><trkpt lat="41.276692786724716" lon="14.478960586286187"><ele>141.0</ele><time>2026-04-05T12:31:05Z</time></trkpt><trkpt lat="41.27670191864974" lon="14.479134696478049"><ele>141.0</ele><time>2026-04-05T12:31:07Z</time></trkpt><trkpt lat="41.276704279771494" lon="14.479307437260564"><ele>141.0</ele><time>2026-04-05T12:31:09Z</time></trkpt><trkpt lat="41.27669392532274" lon="14.479393824260995"><ele>141.0</ele><time>2026-04-05T12:31:12Z</time></trkpt><trkpt lat="41.27718583851351" lon="14.479437104331664"><ele>141.0</ele><time>2026-04-05T12:31:15.999Z</time></trkpt><trkpt lat="41.27725449000427" lon="14.4794322232447"><ele>141.0</ele><time>2026-04-05T12:31:16.999Z</time></trkpt><trkpt lat="41.27738125898552" lon="14.479452152180338"><ele>141.0</ele><time>2026-04-05T12:31:18.999Z</time></trkpt><trkpt lat="41.27747660707014" lon="14.479483539598391"><ele>141.0</ele><time>2026-04-05T12:31:19.999Z</time></trkpt><trkpt lat="41.27757717065079" lon="14.479509700384213"><ele>141.0</ele><time>2026-04-05T12:31:20.999Z</time></trkpt><trkpt lat="41.277679913354156" lon="14.479537254316098"><ele>145.4</ele><time>2026-04-05T12:31:21.999Z</time></trkpt><trkpt lat="41.27776686962268" lon="14.479579540108125"><ele>149.8</ele><time>2026-04-05T12:31:22.999Z</time></trkpt><trkpt lat="41.277830676419654" lon="14.479560874848847"><ele>154.20000000000002</ele><time>2026-04-05T12:31:23.999Z</time></trkpt><trkpt lat="41.277916400533556" lon="14.479532714385446"><ele>158.6</ele><time>2026-04-05T12:31:24.999Z</time></trkpt><trkpt lat="41.27803226851105" lon="14.479481133214163"><ele>163.0</ele><time>2026-04-05T12:31:25.999Z</time></trkpt><trkpt lat="41.278147427971774" lon="14.47943600018521"><ele>164.8</ele><time>2026-04-05T12:31:26.999Z</time></trkpt><trkpt lat="41.27825694170974" lon="14.479392935453903"><ele>166.60000000000002</ele><time>2026-04-05T12:31:27.999Z</time></trkpt><trkpt lat="41.27833780720837" lon="14.479359914455923"><ele>168.39999999999998</ele><time>2026-04-05T12:31:28.999Z</time></trkpt><trkpt lat="41.27840063593421" lon="14.479338803243111"><ele>170.2</ele><time>2026-04-05T12:31:29.999Z</time></trkpt><trkpt lat="41.278474473119196" lon="14.479349917135943"><ele>172.0</ele><time>2026-04-05T12:31:31.999Z</time></trkpt><trkpt lat="41.27854063186656" lon="14.479511960920805"><ele>171.6</ele><time>2026-04-05T12:31:35.999Z</time></trkpt><trkpt lat="41.27856880517926" lon="14.479615831590731"><ele>171.2</ele><time>2026-04-05T12:31:36.999Z</time></trkpt><trkpt lat="41.2785537593154" lon="14.479721024189345"><ele>170.8</ele><time>2026-04-05T12:31:37.999Z</time></trkpt><trkpt lat="41.27852759241871" lon="14.479829562314821"><ele>170.4</ele><time>2026-04-05T12:31:38.999Z</time></trkpt><trkpt lat="41.278501701863235" lon="14.479982416419755"><ele>170.0</ele><time>2026-04-05T12:31:39.999Z</time></trkpt><trkpt lat="41.278477456445074" lon="14.480102237547497"><ele>170.0</ele><time>2026-04-05T12:31:40.999Z</time></trkpt><trkpt lat="41.27845915217794" lon="14.480185362214305"><ele>170.0</ele><time>2026-04-05T12:31:41.999Z</time></trkpt><trkpt lat="41.278431021691134" lon="14.480348734243073"><ele>170.0</ele><time>2026-04-05T12:31:42.999Z</time></trkpt><trkpt lat="41.27842815344409" lon="14.480470806308478"><ele>170.0</ele><time>2026-04-05T12:31:43.999Z</time></trkpt><trkpt lat="41.278480356514756" lon="14.480591074846581"><ele>170.0</ele><time>2026-04-05T12:31:44.999Z</time></trkpt><trkpt lat="41.278559205645436" lon="14.480689650060318"><ele>171.8</ele><time>2026-04-05T12:31:45.999Z</time></trkpt><trkpt lat="41.27866611081386" lon="14.480707518545888"><ele>173.6</ele><time>2026-04-05T12:31:46.999Z</time></trkpt><trkpt lat="41.27876809551332" lon="14.480738055346098"><ele>175.39999999999998</ele><time>2026-04-05T12:31:47.999Z</time></trkpt><trkpt lat="41.2788710169306" lon="14.480785344609794"><ele>177.2</ele><time>2026-04-05T12:31:48.999Z</time></trkpt><trkpt lat="41.27897190141015" lon="14.480858104474676"><ele>179.0</ele><time>2026-04-05T12:31:49.999Z</time></trkpt><trkpt lat="41.27908121123475" lon="14.480906878768213"><ele>179.0</ele><time>2026-04-05T12:31:50.999Z</time></trkpt><trkpt lat="41.2791809708882" lon="14.480954680270543"><ele>179.0</ele><time>2026-04-05T12:31:51.999Z</time></trkpt><trkpt lat="41.27926371598628" lon="14.481037930725913"><ele>179.0</ele><time>2026-04-05T12:31:52.999Z</time></trkpt><trkpt lat="41.279348122693456" lon="14.481118110256597"><ele>179.0</ele><time>2026-04-05T12:31:53.999Z</time></trkpt><trkpt lat="41.27942192127586" lon="14.48119979554035"><ele>179.0</ele><time>2026-04-05T12:31:54.999Z</time></trkpt><trkpt lat="41.279493987664544" lon="14.481284957989507"><ele>177.5</ele><time>2026-04-05T12:31:55.999Z</time></trkpt><trkpt lat="41.2795627943396" lon="14.481376277121779"><ele>176.0</ele><time>2026-04-05T12:31:56.999Z</time></trkpt><trkpt lat="41.27961402140397" lon="14.481463727437635"><ele>174.5</ele><time>2026-04-05T12:31:58.001Z</time></trkpt><trkpt lat="41.27966101675103" lon="14.481545104469426"><ele>173.0</ele><time>2026-04-05T12:31:59.001Z</time></trkpt><trkpt lat="41.279623600207266" lon="14.481642209518597"><ele>171.5</ele><time>2026-04-05T12:32:00.001Z</time></trkpt><trkpt lat="41.27959482577587" lon="14.48176221343326"><ele>170.0</ele><time>2026-04-05T12:32:01.001Z</time></trkpt><trkpt lat="41.27956401195042" lon="14.481903115426025"><ele>170.0</ele><time>2026-04-05T12:32:02.001Z</time></trkpt><trkpt lat="41.27952950295908" lon="14.482049883998496"><ele>170.0</ele><time>2026-04-05T12:32:03.001Z</time></trkpt><trkpt lat="41.27949522939403" lon="14.482195652907345"><ele>170.0</ele><time>2026-04-05T12:32:04.001Z</time></trkpt><trkpt lat="41.27945978224631" lon="14.482347664184763"><ele>170.0</ele><time>2026-04-05T12:32:05.001Z</time></trkpt><trkpt lat="41.279428736073385" lon="14.48247817931285"><ele>170.75</ele><time>2026-04-05T12:32:06Z</time></trkpt><trkpt lat="41.27939847941339" lon="14.482604267217956"><ele>171.5</ele><time>2026-04-05T12:32:07Z</time></trkpt><trkpt lat="41.279380457437654" lon="14.48274883666649"><ele>172.25</ele><time>2026-04-05T12:32:08Z</time></trkpt><trkpt lat="41.27937838476972" lon="14.482906003462684"><ele>173.0</ele><time>2026-04-05T12:32:09Z</time></trkpt><trkpt lat="41.279371688373836" lon="14.483075239747222"><ele>173.75</ele><time>2026-04-05T12:32:10Z</time></trkpt><trkpt lat="41.27936821337824" lon="14.48325809844822"><ele>174.5</ele><time>2026-04-05T12:32:11Z</time></trkpt><trkpt lat="41.279366549753725" lon="14.48343948731962"><ele>175.25</ele><time>2026-04-05T12:32:12Z</time></trkpt><trkpt lat="41.27936383859457" lon="14.483630104940898"><ele>176.0</ele><time>2026-04-05T12:32:13Z</time></trkpt><trkpt lat="41.27937657467488" lon="14.483827627748926"><ele>176.5</ele><time>2026-04-05T12:32:14Z</time></trkpt><trkpt lat="41.2793555665573" lon="14.484017335692462"><ele>177.0</ele><time>2026-04-05T12:32:15Z</time></trkpt><trkpt lat="41.27935930794132" lon="14.484223286796684"><ele>177.5</ele><time>2026-04-05T12:32:16Z</time></trkpt><trkpt lat="41.27936279030893" lon="14.484407863553297"><ele>178.0</ele><time>2026-04-05T12:32:17Z</time></trkpt><trkpt lat="41.279356497638716" lon="14.48457608774849"><ele>179.0</ele><time>2026-04-05T12:32:18Z</time></trkpt><trkpt lat="41.27934816399208" lon="14.48472921043321"><ele>180.0</ele><time>2026-04-05T12:32:19Z</time></trkpt><trkpt lat="41.27934607220316" lon="14.484884758459927"><ele>181.0</ele><time>2026-04-05T12:32:20Z</time></trkpt><trkpt lat="41.27934061317274" lon="14.485019747937637"><ele>182.0</ele><time>2026-04-05T12:32:21Z</time></trkpt><trkpt lat="41.27933720782929" lon="14.485131558551869"><ele>183.0</ele><time>2026-04-05T12:32:22Z</time></trkpt><trkpt lat="41.27933792298435" lon="14.485244929015336"><ele>183.0</ele><time>2026-04-05T12:32:23Z</time></trkpt><trkpt lat="41.279354217895104" lon="14.48537664735829"><ele>183.0</ele><time>2026-04-05T12:32:24Z</time></trkpt><trkpt lat="41.279388931358994" lon="14.485527475753148"><ele>183.0</ele><time>2026-04-05T12:32:25Z</time></trkpt><trkpt lat="41.279423017210455" lon="14.485688797996271"><ele>183.0</ele><time>2026-04-05T12:32:26Z</time></trkpt><trkpt lat="41.279471831751245" lon="14.485858969012774"><ele>184.0</ele><time>2026-04-05T12:32:27Z</time></trkpt><trkpt lat="41.279511662735274" lon="14.48604900051772"><ele>185.0</ele><time>2026-04-05T12:32:28Z</time></trkpt><trkpt lat="41.27955441403" lon="14.486239377574263"><ele>186.0</ele><time>2026-04-05T12:32:29Z</time></trkpt><trkpt lat="41.27960349103379" lon="14.486436881586652"><ele>186.0</ele><time>2026-04-05T12:32:30Z</time></trkpt><trkpt lat="41.27966135612396" lon="14.486641546058266"><ele>186.0</ele><time>2026-04-05T12:32:31Z</time></trkpt><trkpt lat="41.2796956419754" lon="14.486849946851752"><ele>186.0</ele><time>2026-04-05T12:32:32Z</time></trkpt><trkpt lat="41.279747707524905" lon="14.487065925319587"><ele>190.66666666666669</ele><time>2026-04-05T12:32:33Z</time></trkpt><trkpt lat="41.27979441518598" lon="14.487276975786642"><ele>195.33333333333334</ele><time>2026-04-05T12:32:34Z</time></trkpt><trkpt lat="41.279835384817666" lon="14.487479025696192"><ele>200.0</ele><time>2026-04-05T12:32:35Z</time></trkpt><trkpt lat="41.27980920040376" lon="14.487688308198974"><ele>200.0</ele><time>2026-04-05T12:32:36Z</time></trkpt><trkpt lat="41.27978025564437" lon="14.48789628559816"><ele>200.0</ele><time>2026-04-05T12:32:37Z</time></trkpt><trkpt lat="41.27969271966258" lon="14.488070996809977"><ele>200.0</ele><time>2026-04-05T12:32:38Z</time></trkpt><trkpt lat="41.27963047681135" lon="14.488237819876575"><ele>198.75</ele><time>2026-04-05T12:32:39Z</time></trkpt><trkpt lat="41.27953834355029" lon="14.488380353207807"><ele>197.5</ele><time>2026-04-05T12:32:40Z</time></trkpt><trkpt lat="41.27946487176573" lon="14.488522057669169"><ele>196.25</ele><time>2026-04-05T12:32:41Z</time></trkpt><trkpt lat="41.279400915541004" lon="14.488673673072423"><ele>195.0</ele><time>2026-04-05T12:32:42Z</time></trkpt><trkpt lat="41.2793377364593" lon="14.488837714795665"><ele>195.0</ele><time>2026-04-05T12:32:43Z</time></trkpt><trkpt lat="41.27930545008595" lon="14.48903205037906"><ele>195.0</ele><time>2026-04-05T12:32:44Z</time></trkpt><trkpt lat="41.2792975968576" lon="14.48925196284196"><ele>195.0</ele><time>2026-04-05T12:32:45Z</time></trkpt><trkpt lat="41.27931454533462" lon="14.489488675821091"><ele>194.0</ele><time>2026-04-05T12:32:46Z</time></trkpt><trkpt lat="41.27935932623099" lon="14.489735432449747"><ele>193.0</ele><time>2026-04-05T12:32:47Z</time></trkpt><trkpt lat="41.27941592392663" lon="14.490004462385413"><ele>192.0</ele><time>2026-04-05T12:32:48Z</time></trkpt><trkpt lat="41.27947476026899" lon="14.490234673330775"><ele>192.0</ele><time>2026-04-05T12:32:49Z</time></trkpt><trkpt lat="41.279538167491985" lon="14.49041410867464"><ele>192.0</ele><time>2026-04-05T12:32:50Z</time></trkpt><trkpt lat="41.27959916304552" lon="14.490553601386653"><ele>192.0</ele><time>2026-04-05T12:32:51Z</time></trkpt><trkpt lat="41.279653143661456" lon="14.490651076620242"><ele>192.0</ele><time>2026-04-05T12:32:52Z</time></trkpt><trkpt lat="41.27969077247056" lon="14.490736934571343"><ele>192.0</ele><time>2026-04-05T12:32:53Z</time></trkpt><trkpt lat="41.27969851133619" lon="14.490820776048931"><ele>191.39999999999998</ele><time>2026-04-05T12:32:54Z</time></trkpt><trkpt lat="41.27956475324866" lon="14.490967255084685"><ele>190.79999999999998</ele><time>2026-04-05T12:32:56Z</time></trkpt><trkpt lat="41.27950857880376" lon="14.491083818359904"><ele>190.2</ele><time>2026-04-05T12:32:57Z</time></trkpt><trkpt lat="41.27944959227897" lon="14.491140751834807"><ele>189.6</ele><time>2026-04-05T12:32:58Z</time></trkpt><trkpt lat="41.279393600352435" lon="14.491213203248767"><ele>189.0</ele><time>2026-04-05T12:33:00Z</time></trkpt><trkpt lat="41.27936834273916" lon="14.491316578730093"><ele>191.5</ele><time>2026-04-05T12:33:01Z</time></trkpt><trkpt lat="41.279536598249635" lon="14.491391373801825"><ele>194.0</ele><time>2026-04-05T12:33:02Z</time></trkpt><trkpt lat="41.27962317637813" lon="14.491447340839496"><ele>196.5</ele><time>2026-04-05T12:33:03.999Z</time></trkpt><trkpt lat="41.27972227719365" lon="14.491420710848457"><ele>199.0</ele><time>2026-04-05T12:33:30.999Z</time></trkpt><trkpt lat="41.27982073846101" lon="14.491431303666682"><ele>200.6</ele><time>2026-04-05T12:33:33.999Z</time></trkpt><trkpt lat="41.27983355021175" lon="14.491528142260591"><ele>202.2</ele><time>2026-04-05T12:33:35.999Z</time></trkpt><trkpt lat="41.27988793691464" lon="14.491608050993914"><ele>203.79999999999998</ele><time>2026-04-05T12:33:37.999Z</time></trkpt><trkpt lat="41.279989202466886" lon="14.491773241004141"><ele>205.39999999999998</ele><time>2026-04-05T12:33:40.999Z</time></trkpt><trkpt lat="41.28001673439467" lon="14.491856071059898"><ele>207.0</ele><time>2026-04-05T12:33:41.999Z</time></trkpt><trkpt lat="41.27998315123443" lon="14.491948928860955"><ele>207.0</ele><time>2026-04-05T12:33:43.999Z</time></trkpt><trkpt lat="41.27988734908798" lon="14.492029423829562"><ele>207.0</ele><time>2026-04-05T12:33:45.999Z</time></trkpt><trkpt lat="41.2799205068538" lon="14.49219393942405"><ele>207.0</ele><time>2026-04-05T12:33:48.999Z</time></trkpt><trkpt lat="41.27995926547213" lon="14.492309519824222"><ele>207.0</ele><time>2026-04-05T12:33:49.999Z</time></trkpt><trkpt lat="41.27999172345016" lon="14.49241399915305"><ele>207.0</ele><time>2026-04-05T12:33:50.999Z</time></trkpt><trkpt lat="41.2800288345333" lon="14.492517884635598"><ele>209.0</ele><time>2026-04-05T12:33:51.999Z</time></trkpt><trkpt lat="41.28006010574149" lon="14.492612069548256"><ele>211.0</ele><time>2026-04-05T12:33:52.999Z</time></trkpt><trkpt lat="41.28008949296193" lon="14.492706752081284"><ele>213.0</ele><time>2026-04-05T12:33:53.999Z</time></trkpt><trkpt lat="41.2800956969606" lon="14.492805528898447"><ele>215.0</ele><time>2026-04-05T12:33:54.999Z</time></trkpt><trkpt lat="41.28007533339283" lon="14.49289279411728"><ele>217.0</ele><time>2026-04-05T12:33:55.999Z</time></trkpt><trkpt lat="41.28006359451091" lon="14.492991218971623"><ele>219.0</ele><time>2026-04-05T12:33:57.999Z</time></trkpt><trkpt lat="41.28017081826947" lon="14.493131766236763"><ele>221.16666666666666</ele><time>2026-04-05T12:33:59.999Z</time></trkpt><trkpt lat="41.280184536578695" lon="14.493217246331511"><ele>223.33333333333331</ele><time>2026-04-05T12:34:01.999Z</time></trkpt><trkpt lat="41.28024421506614" lon="14.493325446850797"><ele>225.5</ele><time>2026-04-05T12:34:05Z</time></trkpt><trkpt lat="41.280311570451495" lon="14.493428822329907"><ele>227.66666666666666</ele><time>2026-04-05T12:34:07Z</time></trkpt><trkpt lat="41.28036668428083" lon="14.4935027110468"><ele>229.83333333333331</ele><time>2026-04-05T12:34:08Z</time></trkpt><trkpt lat="41.280416683898196" lon="14.493573210838024"><ele>232.0</ele><time>2026-04-05T12:34:09Z</time></trkpt><trkpt lat="41.280460251628035" lon="14.493706213804828"><ele>233.2</ele><time>2026-04-05T12:34:10Z</time></trkpt><trkpt lat="41.2805768865024" lon="14.493794276872476"><ele>234.39999999999998</ele><time>2026-04-05T12:34:11Z</time></trkpt><trkpt lat="41.280636191805215" lon="14.493873727138448"><ele>235.60000000000002</ele><time>2026-04-05T12:34:12Z</time></trkpt><trkpt lat="41.280662165111664" lon="14.493994463378565"><ele>236.8</ele><time>2026-04-05T12:34:14Z</time></trkpt><trkpt lat="41.280603759952854" lon="14.494075387570277"><ele>238.0</ele><time>2026-04-05T12:34:16Z</time></trkpt><trkpt lat="41.2805608736016" lon="14.494138476042274"><ele>238.0</ele><time>2026-04-05T12:34:17Z</time></trkpt><trkpt lat="41.28051484517172" lon="14.49424424150875"><ele>238.0</ele><time>2026-04-05T12:34:18Z</time></trkpt><trkpt lat="41.28046674194289" lon="14.494357251480416"><ele>238.0</ele><time>2026-04-05T12:34:19Z</time></trkpt><trkpt lat="41.28041454287475" lon="14.494479594482195"><ele>238.0</ele><time>2026-04-05T12:34:20Z</time></trkpt><trkpt lat="41.28035025791066" lon="14.494607676739523"><ele>238.0</ele><time>2026-04-05T12:34:21Z</time></trkpt><trkpt lat="41.28028903219402" lon="14.494742476286596"><ele>239.4</ele><time>2026-04-05T12:34:22Z</time></trkpt><trkpt lat="41.28023549527406" lon="14.494858786812504"><ele>240.8</ele><time>2026-04-05T12:34:23Z</time></trkpt><trkpt lat="41.28019009483934" lon="14.494948282667089"><ele>242.2</ele><time>2026-04-05T12:34:24Z</time></trkpt><trkpt lat="41.28019643573625" lon="14.495107379566226"><ele>243.6</ele><time>2026-04-05T12:34:26Z</time></trkpt><trkpt lat="41.280276809990596" lon="14.495159881140372"><ele>245.0</ele><time>2026-04-05T12:34:27Z</time></trkpt><trkpt lat="41.280363139696945" lon="14.495176013103377"><ele>245.0</ele><time>2026-04-05T12:34:28Z</time></trkpt><trkpt lat="41.280422100069" lon="14.49520758519278"><ele>245.0</ele><time>2026-04-05T12:34:29Z</time></trkpt><trkpt lat="41.280480705768134" lon="14.495238196344594"><ele>245.0</ele><time>2026-04-05T12:34:31Z</time></trkpt><trkpt lat="41.28039269379485" lon="14.495353037232672"><ele>245.0</ele><time>2026-04-05T12:34:33Z</time></trkpt><trkpt lat="41.280353229069114" lon="14.495472626727478"><ele>245.0</ele><time>2026-04-05T12:34:34Z</time></trkpt><trkpt lat="41.28031346107683" lon="14.49560186646872"><ele>246.0</ele><time>2026-04-05T12:34:35Z</time></trkpt><trkpt lat="41.280280629991395" lon="14.49575312053576"><ele>247.0</ele><time>2026-04-05T12:34:36Z</time></trkpt><trkpt lat="41.28023016502196" lon="14.4958890257143"><ele>248.0</ele><time>2026-04-05T12:34:37Z</time></trkpt><trkpt lat="41.280206791417086" lon="14.49602385851174"><ele>249.0</ele><time>2026-04-05T12:34:37.999Z</time></trkpt><trkpt lat="41.28019647458091" lon="14.496171458731549"><ele>250.0</ele><time>2026-04-05T12:34:38.999Z</time></trkpt><trkpt lat="41.280191881896" lon="14.496346791662292"><ele>251.5</ele><time>2026-04-05T12:34:39.999Z</time></trkpt><trkpt lat="41.280183129852276" lon="14.496526807473613"><ele>253.0</ele><time>2026-04-05T12:34:40.999Z</time></trkpt><trkpt lat="41.28016970236554" lon="14.49670923391348"><ele>254.5</ele><time>2026-04-05T12:34:41.999Z</time></trkpt><trkpt lat="41.280156170465716" lon="14.496914807224178"><ele>256.0</ele><time>2026-04-05T12:34:42.999Z</time></trkpt><trkpt lat="41.2801292454533" lon="14.497078810486544"><ele>256.0</ele><time>2026-04-05T12:34:43.999Z</time></trkpt><trkpt lat="41.28006895407036" lon="14.497235103228038"><ele>256.0</ele><time>2026-04-05T12:34:44.999Z</time></trkpt><trkpt lat="41.280017257235194" lon="14.497377705246178"><ele>256.0</ele><time>2026-04-05T12:34:45.999Z</time></trkpt><trkpt lat="41.27996622997323" lon="14.497510819142027"><ele>256.0</ele><time>2026-04-05T12:34:46.999Z</time></trkpt><trkpt lat="41.27991972137929" lon="14.497647375924688"><ele>256.0</ele><time>2026-04-05T12:34:47.999Z</time></trkpt><trkpt lat="41.279851522120744" lon="14.49776846997552"><ele>256.0</ele><time>2026-04-05T12:34:48.999Z</time></trkpt><trkpt lat="41.2798010872352" lon="14.497912925690143"><ele>256.0</ele><time>2026-04-05T12:34:49.999Z</time></trkpt><trkpt lat="41.27975533569809" lon="14.498092334980646"><ele>256.0</ele><time>2026-04-05T12:34:50.999Z</time></trkpt><trkpt lat="41.27971621346783" lon="14.498249097910763"><ele>252.5</ele><time>2026-04-05T12:34:51.999Z</time></trkpt><trkpt lat="41.279674262000235" lon="14.4984151608785"><ele>249.0</ele><time>2026-04-05T12:34:52.999Z</time></trkpt><trkpt lat="41.279634950107756" lon="14.498557869640639"><ele>245.5</ele><time>2026-04-05T12:34:53.999Z</time></trkpt><trkpt lat="41.27959875001619" lon="14.498718585317059"><ele>242.0</ele><time>2026-04-05T12:34:54.999Z</time></trkpt><trkpt lat="41.279594572707346" lon="14.498862174278234"><ele>242.0</ele><time>2026-04-05T12:34:55.999Z</time></trkpt><trkpt lat="41.27961306243727" lon="14.499000239539605"><ele>242.0</ele><time>2026-04-05T12:34:56.999Z</time></trkpt><trkpt lat="41.279614246104664" lon="14.499086116317006"><ele>242.0</ele><time>2026-04-05T12:34:57.999Z</time></trkpt><trkpt lat="41.27956937182116" lon="14.499231760789355"><ele>242.0</ele><time>2026-04-05T12:34:58.999Z</time></trkpt><trkpt lat="41.27949963497974" lon="14.499359099228924"><ele>242.0</ele><time>2026-04-05T12:34:59.999Z</time></trkpt><trkpt lat="41.27941548988912" lon="14.499491571101897"><ele>243.0</ele><time>2026-04-05T12:35:00.999Z</time></trkpt><trkpt lat="41.27932487848718" lon="14.499621671817746"><ele>244.0</ele><time>2026-04-05T12:35:01.999Z</time></trkpt><trkpt lat="41.27926719570845" lon="14.499746338692896"><ele>245.0</ele><time>2026-04-05T12:35:02.999Z</time></trkpt><trkpt lat="41.279191017753334" lon="14.499880951416882"><ele>246.0</ele><time>2026-04-05T12:35:03.999Z</time></trkpt><trkpt lat="41.279157496181504" lon="14.500046481823704"><ele>246.0</ele><time>2026-04-05T12:35:04.999Z</time></trkpt><trkpt lat="41.27910749493706" lon="14.500206192577986"><ele>246.0</ele><time>2026-04-05T12:35:05.999Z</time></trkpt><trkpt lat="41.27903681300595" lon="14.50036506327074"><ele>246.0</ele><time>2026-04-05T12:35:06.999Z</time></trkpt><trkpt lat="41.27895422136465" lon="14.500515687452696"><ele>246.0</ele><time>2026-04-05T12:35:07.999Z</time></trkpt><trkpt lat="41.27887205819366" lon="14.500666561922527"><ele>244.0</ele><time>2026-04-05T12:35:08.999Z</time></trkpt><trkpt lat="41.27878622045912" lon="14.500835257554554"><ele>242.0</ele><time>2026-04-05T12:35:09.999Z</time></trkpt><trkpt lat="41.27869708011243" lon="14.501014413257577"><ele>240.0</ele><time>2026-04-05T12:35:10.999Z</time></trkpt><trkpt lat="41.278609814488085" lon="14.501214463433577"><ele>241.66666666666669</ele><time>2026-04-05T12:35:11.999Z</time></trkpt><trkpt lat="41.278526157630175" lon="14.501418411488942"><ele>243.33333333333334</ele><time>2026-04-05T12:35:12.999Z</time></trkpt><trkpt lat="41.2784420870199" lon="14.50162680583058"><ele>245.0</ele><time>2026-04-05T12:35:13.999Z</time></trkpt><trkpt lat="41.27835943091829" lon="14.501833580586696"><ele>245.0</ele><time>2026-04-05T12:35:14.999Z</time></trkpt><trkpt lat="41.278287670661484" lon="14.502027614658388"><ele>245.0</ele><time>2026-04-05T12:35:15.999Z</time></trkpt><trkpt lat="41.27820859045187" lon="14.502203244897217"><ele>245.0</ele><time>2026-04-05T12:35:16.999Z</time></trkpt><trkpt lat="41.27814735558408" lon="14.50237969208872"><ele>246.66666666666669</ele><time>2026-04-05T12:35:17.999Z</time></trkpt><trkpt lat="41.27810318369693" lon="14.502582321374145"><ele>248.33333333333331</ele><time>2026-04-05T12:35:18.999Z</time></trkpt><trkpt lat="41.278047087316715" lon="14.502774958810685"><ele>250.0</ele><time>2026-04-05T12:35:19.999Z</time></trkpt><trkpt lat="41.277996735133996" lon="14.502972510179037"><ele>244.0</ele><time>2026-04-05T12:35:20.999Z</time></trkpt><trkpt lat="41.277946478625225" lon="14.503174504040725"><ele>238.0</ele><time>2026-04-05T12:35:21.999Z</time></trkpt><trkpt lat="41.27790248895937" lon="14.503362674987594"><ele>232.0</ele><time>2026-04-05T12:35:22.999Z</time></trkpt><trkpt lat="41.27785384375074" lon="14.503561938877384"><ele>232.33333333333331</ele><time>2026-04-05T12:35:23.999Z</time></trkpt><trkpt lat="41.2777913355628" lon="14.503753654204681"><ele>232.66666666666669</ele><time>2026-04-05T12:35:24.999Z</time></trkpt><trkpt lat="41.277761667623125" lon="14.50397416808565"><ele>233.0</ele><time>2026-04-05T12:35:25.999Z</time></trkpt><trkpt lat="41.27771892239664" lon="14.504196019604189"><ele>233.0</ele><time>2026-04-05T12:35:26.999Z</time></trkpt><trkpt lat="41.277679653820144" lon="14.504402906864312"><ele>233.0</ele><time>2026-04-05T12:35:27.999Z</time></trkpt><trkpt lat="41.27764003939076" lon="14.504593616275043"><ele>233.0</ele><time>2026-04-05T12:35:28.999Z</time></trkpt><trkpt lat="41.27760666350965" lon="14.504786287110518"><ele>233.0</ele><time>2026-04-05T12:35:29.999Z</time></trkpt><trkpt lat="41.277581954203846" lon="14.504973593854908"><ele>233.0</ele><time>2026-04-05T12:35:30.999Z</time></trkpt><trkpt lat="41.27757141606034" lon="14.50516927341986"><ele>233.0</ele><time>2026-04-05T12:35:31.999Z</time></trkpt><trkpt lat="41.27757932548702" lon="14.505371605856334"><ele>233.0</ele><time>2026-04-05T12:35:32.999Z</time></trkpt><trkpt lat="41.27759647598623" lon="14.505578387050507"><ele>232.66666666666669</ele><time>2026-04-05T12:35:33.999Z</time></trkpt><trkpt lat="41.27761658505665" lon="14.505788380703125"><ele>232.33333333333331</ele><time>2026-04-05T12:35:34.999Z</time></trkpt><trkpt lat="41.277640128577005" lon="14.505999045708693"><ele>232.0</ele><time>2026-04-05T12:35:35.999Z</time></trkpt><trkpt lat="41.27766470476101" lon="14.506201240237509"><ele>231.6</ele><time>2026-04-05T12:35:36.999Z</time></trkpt><trkpt lat="41.27769402004991" lon="14.506359599084256"><ele>231.2</ele><time>2026-04-05T12:35:37.999Z</time></trkpt><trkpt lat="41.27770643858753" lon="14.506482252826132"><ele>230.8</ele><time>2026-04-05T12:35:38.999Z</time></trkpt><trkpt lat="41.27769764663896" lon="14.506591112972844"><ele>230.4</ele><time>2026-04-05T12:35:39.999Z</time></trkpt><trkpt lat="41.277674843262496" lon="14.506705883823349"><ele>230.0</ele><time>2026-04-05T12:35:40.999Z</time></trkpt><trkpt lat="41.27763943754824" lon="14.506848044371187"><ele>230.0</ele><time>2026-04-05T12:35:41.999Z</time></trkpt><trkpt lat="41.27759134207845" lon="14.507034441058765"><ele>230.0</ele><time>2026-04-05T12:35:42.999Z</time></trkpt><trkpt lat="41.27752967151926" lon="14.50725583327931"><ele>230.0</ele><time>2026-04-05T12:35:43.999Z</time></trkpt><trkpt lat="41.27747522620581" lon="14.507450082792666"><ele>231.5</ele><time>2026-04-05T12:35:44.999Z</time></trkpt><trkpt lat="41.27742945067357" lon="14.507616395494683"><ele>233.0</ele><time>2026-04-05T12:35:45.999Z</time></trkpt><trkpt lat="41.27738564548727" lon="14.507782889501643"><ele>234.5</ele><time>2026-04-05T12:35:46.999Z</time></trkpt><trkpt lat="41.27735531487506" lon="14.507945359003402"><ele>236.0</ele><time>2026-04-05T12:35:47.999Z</time></trkpt><trkpt lat="41.27736483384797" lon="14.508120411545022"><ele>237.25</ele><time>2026-04-05T12:35:48.999Z</time></trkpt><trkpt lat="41.27742278353147" lon="14.508290512330532"><ele>238.5</ele><time>2026-04-05T12:35:49.999Z</time></trkpt><trkpt lat="41.277457351223596" lon="14.508459815938894"><ele>239.75</ele><time>2026-04-05T12:35:50.999Z</time></trkpt><trkpt lat="41.277466242878916" lon="14.508651471526449"><ele>241.0</ele><time>2026-04-05T12:35:51.999Z</time></trkpt><trkpt lat="41.27745696907899" lon="14.508860945022871"><ele>243.33333333333331</ele><time>2026-04-05T12:35:52.999Z</time></trkpt><trkpt lat="41.277442440008905" lon="14.509063971688528"><ele>245.66666666666669</ele><time>2026-04-05T12:35:53.999Z</time></trkpt><trkpt lat="41.277414715058036" lon="14.509261038525263"><ele>248.0</ele><time>2026-04-05T12:35:54.999Z</time></trkpt><trkpt lat="41.277367419709904" lon="14.509452170061646"><ele>250.66666666666669</ele><time>2026-04-05T12:35:55.999Z</time></trkpt><trkpt lat="41.27729831173133" lon="14.509651623566121"><ele>253.33333333333331</ele><time>2026-04-05T12:35:56.999Z</time></trkpt><trkpt lat="41.277225264598584" lon="14.50985812033767"><ele>256.0</ele><time>2026-04-05T12:35:57.999Z</time></trkpt><trkpt lat="41.2771548763462" lon="14.510061485206311"><ele>251.0</ele><time>2026-04-05T12:35:58.999Z</time></trkpt><trkpt lat="41.27708701062897" lon="14.510252686686254"><ele>246.0</ele><time>2026-04-05T12:35:59.999Z</time></trkpt><trkpt lat="41.27702136912971" lon="14.510436205675097"><ele>241.0</ele><time>2026-04-05T12:36:00.998Z</time></trkpt><trkpt lat="41.27695321888686" lon="14.510626738834139"><ele>241.0</ele><time>2026-04-05T12:36:01.998Z</time></trkpt><trkpt lat="41.27687696678003" lon="14.510815985520209"><ele>241.0</ele><time>2026-04-05T12:36:02.998Z</time></trkpt><trkpt lat="41.276822024543335" lon="14.511013193463901"><ele>241.0</ele><time>2026-04-05T12:36:03.998Z</time></trkpt><trkpt lat="41.27676017170017" lon="14.51121829888765"><ele>242.25</ele><time>2026-04-05T12:36:04.998Z</time></trkpt><trkpt lat="41.27671617006597" lon="14.511431866482969"><ele>243.5</ele><time>2026-04-05T12:36:05.998Z</time></trkpt><trkpt lat="41.27668655708802" lon="14.511627830928864"><ele>244.75</ele><time>2026-04-05T12:36:06.998Z</time></trkpt><trkpt lat="41.276662450822904" lon="14.511785852164957"><ele>246.0</ele><time>2026-04-05T12:36:07.998Z</time></trkpt><trkpt lat="41.2766446448532" lon="14.51189989360805"><ele>246.0</ele><time>2026-04-05T12:36:08.998Z</time></trkpt><trkpt lat="41.276627433517994" lon="14.511984073350673"><ele>246.0</ele><time>2026-04-05T12:36:10Z</time></trkpt><trkpt lat="41.27660465187343" lon="14.51207185732446"><ele>246.0</ele><time>2026-04-05T12:36:12Z</time></trkpt><trkpt lat="41.27659207227029" lon="14.512210901041605"><ele>246.0</ele><time>2026-04-05T12:36:50Z</time></trkpt><trkpt lat="41.27657537252733" lon="14.512323397942376"><ele>246.0</ele><time>2026-04-05T12:36:51Z</time></trkpt><trkpt lat="41.276555311703795" lon="14.512455703945193"><ele>246.0</ele><time>2026-04-05T12:36:52Z</time></trkpt><trkpt lat="41.27653166776061" lon="14.512639445851542"><ele>246.5</ele><time>2026-04-05T12:36:53Z</time></trkpt><trkpt lat="41.276513706585696" lon="14.512802382243681"><ele>247.0</ele><time>2026-04-05T12:36:54Z</time></trkpt><trkpt lat="41.27648692035831" lon="14.51298705714956"><ele>247.5</ele><time>2026-04-05T12:36:55Z</time></trkpt><trkpt lat="41.27645937311671" lon="14.513168576015394"><ele>248.0</ele><time>2026-04-05T12:36:56Z</time></trkpt><trkpt lat="41.276427869870766" lon="14.51334733627651"><ele>245.0</ele><time>2026-04-05T12:36:57Z</time></trkpt><trkpt lat="41.2763919673883" lon="14.513511642970458"><ele>242.0</ele><time>2026-04-05T12:36:58Z</time></trkpt><trkpt lat="41.276353151800265" lon="14.513655767427782"><ele>239.0</ele><time>2026-04-05T12:36:59Z</time></trkpt><trkpt lat="41.27630681620836" lon="14.513787470290596"><ele>236.0</ele><time>2026-04-05T12:37:00Z</time></trkpt><trkpt lat="41.27626098114725" lon="14.513911643535526"><ele>236.0</ele><time>2026-04-05T12:37:01Z</time></trkpt><trkpt lat="41.276202377263" lon="14.514029105607513"><ele>236.00000000000003</ele><time>2026-04-05T12:37:01.999Z</time></trkpt><trkpt lat="41.276123140727464" lon="14.514133509693925"><ele>236.00000000000003</ele><time>2026-04-05T12:37:02.999Z</time></trkpt><trkpt lat="41.27604231241017" lon="14.514224293234184"><ele>236.0</ele><time>2026-04-05T12:37:03.999Z</time></trkpt><trkpt lat="41.2759675746111" lon="14.514306672607711"><ele>236.0</ele><time>2026-04-05T12:37:04.999Z</time></trkpt><trkpt lat="41.27589070025784" lon="14.51436634296815"><ele>236.0</ele><time>2026-04-05T12:37:05.999Z</time></trkpt><trkpt lat="41.27581212952514" lon="14.514426814544633"><ele>236.00000000000003</ele><time>2026-04-05T12:37:06.999Z</time></trkpt><trkpt lat="41.27572128923186" lon="14.514371615847022"><ele>236.00000000000003</ele><time>2026-04-05T12:37:07.999Z</time></trkpt><trkpt lat="41.27562642685965" lon="14.51438028668736"><ele>236.0</ele><time>2026-04-05T12:37:08.999Z</time></trkpt><trkpt lat="41.2755335777604" lon="14.514383783603533"><ele>236.0</ele><time>2026-04-05T12:37:09.999Z</time></trkpt><trkpt lat="41.275454897230034" lon="14.514448355076139"><ele>234.5</ele><time>2026-04-05T12:37:10.999Z</time></trkpt><trkpt lat="41.275406147405484" lon="14.514557289689794"><ele>233.0</ele><time>2026-04-05T12:37:11.999Z</time></trkpt><trkpt lat="41.27534437551092" lon="14.51468644862751"><ele>231.5</ele><time>2026-04-05T12:37:12.999Z</time></trkpt><trkpt lat="41.27527867986551" lon="14.514817372982037"><ele>230.0</ele><time>2026-04-05T12:37:13.999Z</time></trkpt><trkpt lat="41.275195438875514" lon="14.514958524715997"><ele>230.0</ele><time>2026-04-05T12:37:14.999Z</time></trkpt><trkpt lat="41.275110475867294" lon="14.515098612949727"><ele>230.0</ele><time>2026-04-05T12:37:15.999Z</time></trkpt><trkpt lat="41.27503509001741" lon="14.515228671730332"><ele>230.0</ele><time>2026-04-05T12:37:16.999Z</time></trkpt><trkpt lat="41.27496217190179" lon="14.515356519641736"><ele>230.0</ele><time>2026-04-05T12:37:17.999Z</time></trkpt><trkpt lat="41.27489546323207" lon="14.51547204480472"><ele>228.83333333333334</ele><time>2026-04-05T12:37:18.999Z</time></trkpt><trkpt lat="41.2748390911621" lon="14.51555789832043"><ele>227.66666666666669</ele><time>2026-04-05T12:37:19.999Z</time></trkpt><trkpt lat="41.27479140326168" lon="14.515626963816551"><ele>226.5</ele><time>2026-04-05T12:37:20.999Z</time></trkpt><trkpt lat="41.274732784741204" lon="14.515715667364587"><ele>225.33333333333331</ele><time>2026-04-05T12:37:22.999Z</time></trkpt><trkpt lat="41.274681445151515" lon="14.515799087102115"><ele>224.16666666666666</ele><time>2026-04-05T12:37:25.999Z</time></trkpt><trkpt lat="41.27463986254455" lon="14.51586930311872"><ele>223.0</ele><time>2026-04-05T12:37:28.999Z</time></trkpt><trkpt lat="41.2747014779433" lon="14.516074152701243"><ele>227.0</ele><time>2026-04-05T12:37:34.999Z</time></trkpt><trkpt lat="41.274817595567505" lon="14.516229141079288"><ele>231.0</ele><time>2026-04-05T12:37:36.999Z</time></trkpt><trkpt lat="41.27486124897561" lon="14.51635246021119"><ele>235.0</ele><time>2026-04-05T12:37:38.999Z</time></trkpt><trkpt lat="41.274840203244075" lon="14.516525361270746"><ele>239.0</ele><time>2026-04-05T12:37:40.999Z</time></trkpt><trkpt lat="41.274838602676276" lon="14.516639048197902"><ele>239.0</ele><time>2026-04-05T12:37:41.999Z</time></trkpt><trkpt lat="41.27479560426827" lon="14.516813830059192"><ele>239.0</ele><time>2026-04-05T12:37:42.999Z</time></trkpt><trkpt lat="41.274757342007454" lon="14.516972433670286"><ele>239.0</ele><time>2026-04-05T12:37:43.999Z</time></trkpt><trkpt lat="41.27472213083375" lon="14.517094455261873"><ele>239.0</ele><time>2026-04-05T12:37:44.999Z</time></trkpt><trkpt lat="41.27466674108741" lon="14.51725500088329"><ele>239.0</ele><time>2026-04-05T12:37:45.999Z</time></trkpt><trkpt lat="41.27461177871784" lon="14.51743515106378"><ele>239.0</ele><time>2026-04-05T12:37:46.999Z</time></trkpt><trkpt lat="41.274531065251885" lon="14.517577364723273"><ele>239.0</ele><time>2026-04-05T12:37:47.999Z</time></trkpt><trkpt lat="41.27445381587138" lon="14.517736885673564"><ele>239.0</ele><time>2026-04-05T12:37:48.999Z</time></trkpt><trkpt lat="41.274389408517926" lon="14.517884446510555"><ele>240.39999999999998</ele><time>2026-04-05T12:37:49.999Z</time></trkpt><trkpt lat="41.27430458518941" lon="14.518005658974555"><ele>241.79999999999998</ele><time>2026-04-05T12:37:50.999Z</time></trkpt><trkpt lat="41.274263489868666" lon="14.518134731334623"><ele>243.20000000000002</ele><time>2026-04-05T12:37:51.999Z</time></trkpt><trkpt lat="41.27421759471845" lon="14.51824668040027"><ele>244.60000000000002</ele><time>2026-04-05T12:37:52.999Z</time></trkpt><trkpt lat="41.274194014005836" lon="14.518354568788125"><ele>246.0</ele><time>2026-04-05T12:37:53.999Z</time></trkpt><trkpt lat="41.274216376934234" lon="14.518458698302531"><ele>246.0</ele><time>2026-04-05T12:37:54.999Z</time></trkpt><trkpt lat="41.274252909146064" lon="14.51855902092531"><ele>246.0</ele><time>2026-04-05T12:37:55.999Z</time></trkpt><trkpt lat="41.274279828619086" lon="14.518669158622613"><ele>246.0</ele><time>2026-04-05T12:37:56.999Z</time></trkpt><trkpt lat="41.27430696231135" lon="14.518779552522602"><ele>246.0</ele><time>2026-04-05T12:37:57.999Z</time></trkpt><trkpt lat="41.27433116088562" lon="14.518877080984275"><ele>246.0</ele><time>2026-04-05T12:37:58.999Z</time></trkpt><trkpt lat="41.274356740724485" lon="14.518981075275148"><ele>246.0</ele><time>2026-04-05T12:37:59.999Z</time></trkpt><trkpt lat="41.27438113906892" lon="14.519097728009319"><ele>246.75</ele><time>2026-04-05T12:38:00.999Z</time></trkpt><trkpt lat="41.274449252972396" lon="14.519271564875474"><ele>247.5</ele><time>2026-04-05T12:38:01.999Z</time></trkpt><trkpt lat="41.27450831920554" lon="14.51941800073764"><ele>248.25</ele><time>2026-04-05T12:38:02.999Z</time></trkpt><trkpt lat="41.27456880748419" lon="14.519562066900345"><ele>249.0</ele><time>2026-04-05T12:38:03.999Z</time></trkpt><trkpt lat="41.274635537260686" lon="14.519705391495826"><ele>249.0</ele><time>2026-04-05T12:38:04.999Z</time></trkpt><trkpt lat="41.27470168893803" lon="14.519855191369395"><ele>249.0</ele><time>2026-04-05T12:38:05.999Z</time></trkpt><trkpt lat="41.274753383698894" lon="14.520006228985798"><ele>249.0</ele><time>2026-04-05T12:38:06.999Z</time></trkpt><trkpt lat="41.27480211079878" lon="14.520176391741916"><ele>249.0</ele><time>2026-04-05T12:38:07.999Z</time></trkpt><trkpt lat="41.27484513536091" lon="14.520343315742398"><ele>254.75</ele><time>2026-04-05T12:38:08.999Z</time></trkpt><trkpt lat="41.274885718427505" lon="14.520517644811658"><ele>260.5</ele><time>2026-04-05T12:38:09.999Z</time></trkpt><trkpt lat="41.274935561564774" lon="14.520663664572467"><ele>266.25</ele><time>2026-04-05T12:38:10.999Z</time></trkpt><trkpt lat="41.275003724983854" lon="14.52080133170752"><ele>272.0</ele><time>2026-04-05T12:38:11.999Z</time></trkpt><trkpt lat="41.27507363164511" lon="14.520945605580263"><ele>272.0</ele><time>2026-04-05T12:38:12.999Z</time></trkpt><trkpt lat="41.27512144947402" lon="14.521087255543684"><ele>272.0</ele><time>2026-04-05T12:38:13.999Z</time></trkpt><trkpt lat="41.27515981199472" lon="14.521243591605169"><ele>272.0</ele><time>2026-04-05T12:38:14.999Z</time></trkpt><trkpt lat="41.27520033724165" lon="14.521394319456379"><ele>272.0</ele><time>2026-04-05T12:38:15.999Z</time></trkpt><trkpt lat="41.27524950357029" lon="14.521521028894753"><ele>271.4</ele><time>2026-04-05T12:38:16.999Z</time></trkpt><trkpt lat="41.275290874094" lon="14.521646193795911"><ele>270.79999999999995</ele><time>2026-04-05T12:38:17.999Z</time></trkpt><trkpt lat="41.27532966365022" lon="14.521758217716211"><ele>270.2</ele><time>2026-04-05T12:38:18.999Z</time></trkpt><trkpt lat="41.27535638154768" lon="14.521838824765661"><ele>269.59999999999997</ele><time>2026-04-05T12:38:19.999Z</time></trkpt><trkpt lat="41.275396344396924" lon="14.52198334112384"><ele>269.0</ele><time>2026-04-05T12:38:21.999Z</time></trkpt><trkpt lat="41.275407765330314" lon="14.522154780541499"><ele>267.25</ele><time>2026-04-05T12:38:23.999Z</time></trkpt><trkpt lat="41.275442518791245" lon="14.522264930185129"><ele>265.5</ele><time>2026-04-05T12:38:24.999Z</time></trkpt><trkpt lat="41.27551456564824" lon="14.522401157366524"><ele>263.75</ele><time>2026-04-05T12:38:25.999Z</time></trkpt><trkpt lat="41.27558907277059" lon="14.522559215132077"><ele>262.0</ele><time>2026-04-05T12:38:26.999Z</time></trkpt><trkpt lat="41.27567151341979" lon="14.52274310629034"><ele>264.75</ele><time>2026-04-05T12:38:27.999Z</time></trkpt><trkpt lat="41.275738635153154" lon="14.522913974664668"><ele>267.5</ele><time>2026-04-05T12:38:28.999Z</time></trkpt><trkpt lat="41.27579526519549" lon="14.523055777145032"><ele>270.25</ele><time>2026-04-05T12:38:29.999Z</time></trkpt><trkpt lat="41.275858164872794" lon="14.523196677760234"><ele>273.0</ele><time>2026-04-05T12:38:30.999Z</time></trkpt><trkpt lat="41.27593582838431" lon="14.523352329939787"><ele>273.0</ele><time>2026-04-05T12:38:31.999Z</time></trkpt><trkpt lat="41.27601170591392" lon="14.523500160688588"><ele>273.0</ele><time>2026-04-05T12:38:32.999Z</time></trkpt><trkpt lat="41.2760815694336" lon="14.523656271226018"><ele>273.0</ele><time>2026-04-05T12:38:33.999Z</time></trkpt><trkpt lat="41.27614058385735" lon="14.523801228604821"><ele>273.0</ele><time>2026-04-05T12:38:34.999Z</time></trkpt><trkpt lat="41.27621227619702" lon="14.52395779011267"><ele>274.5</ele><time>2026-04-05T12:38:35.999Z</time></trkpt><trkpt lat="41.27627758658538" lon="14.524112606487234"><ele>276.0</ele><time>2026-04-05T12:38:36.999Z</time></trkpt><trkpt lat="41.27632986820512" lon="14.524261447846644"><ele>277.5</ele><time>2026-04-05T12:38:37.999Z</time></trkpt><trkpt lat="41.27638675041182" lon="14.524410741466884"><ele>279.0</ele><time>2026-04-05T12:38:38.999Z</time></trkpt><trkpt lat="41.276438574952316" lon="14.524559577891079"><ele>277.4</ele><time>2026-04-05T12:38:39.999Z</time></trkpt><trkpt lat="41.276474508565265" lon="14.524690772456402"><ele>275.79999999999995</ele><time>2026-04-05T12:38:40.999Z</time></trkpt><trkpt lat="41.2765245798565" lon="14.524836828307429"><ele>274.20000000000005</ele><time>2026-04-05T12:38:41.999Z</time></trkpt><trkpt lat="41.27656718027106" lon="14.524957985721692"><ele>272.6</ele><time>2026-04-05T12:38:42.999Z</time></trkpt><trkpt lat="41.276600346440155" lon="14.52505685911704"><ele>271.0</ele><time>2026-04-05T12:38:43.999Z</time></trkpt><trkpt lat="41.276620160088" lon="14.525224720002422"><ele>271.0</ele><time>2026-04-05T12:38:45.999Z</time></trkpt><trkpt lat="41.27658744025556" lon="14.525335486801767"><ele>271.0</ele><time>2026-04-05T12:38:46.999Z</time></trkpt><trkpt lat="41.27656694926571" lon="14.52546927838652"><ele>271.0</ele><time>2026-04-05T12:38:47.999Z</time></trkpt><trkpt lat="41.27653172573305" lon="14.525599553758719"><ele>271.0</ele><time>2026-04-05T12:38:48.999Z</time></trkpt><trkpt lat="41.27649302237619" lon="14.52574518521364"><ele>271.0</ele><time>2026-04-05T12:38:49.999Z</time></trkpt><trkpt lat="41.276443116539255" lon="14.525901391071201"><ele>264.75</ele><time>2026-04-05T12:38:50.999Z</time></trkpt><trkpt lat="41.27641992592444" lon="14.526073828448284"><ele>258.5</ele><time>2026-04-05T12:38:51.999Z</time></trkpt><trkpt lat="41.27638578448053" lon="14.526225918523963"><ele>252.25</ele><time>2026-04-05T12:38:52.999Z</time></trkpt><trkpt lat="41.27635780536183" lon="14.526368925675058"><ele>246.0</ele><time>2026-04-05T12:38:53.999Z</time></trkpt><trkpt lat="41.27632902755943" lon="14.52650545273471"><ele>245.8</ele><time>2026-04-05T12:38:54.999Z</time></trkpt><trkpt lat="41.276295326764554" lon="14.526637842089894"><ele>245.60000000000002</ele><time>2026-04-05T12:38:55.999Z</time></trkpt><trkpt lat="41.27626696721844" lon="14.526769826411776"><ele>245.4</ele><time>2026-04-05T12:38:56.999Z</time></trkpt><trkpt lat="41.27623808291843" lon="14.526895135793266"><ele>245.2</ele><time>2026-04-05T12:38:57.999Z</time></trkpt><trkpt lat="41.27622157935027" lon="14.526982053087401"><ele>245.0</ele><time>2026-04-05T12:38:58.999Z</time></trkpt><trkpt lat="41.27624117464187" lon="14.527137114419585"><ele>244.0</ele><time>2026-04-05T12:39:00.999Z</time></trkpt><trkpt lat="41.276299088474346" lon="14.527287757375051"><ele>243.0</ele><time>2026-04-05T12:39:02.999Z</time></trkpt><trkpt lat="41.276307206407544" lon="14.527405801346262"><ele>242.0</ele><time>2026-04-05T12:39:03.999Z</time></trkpt><trkpt lat="41.27634085831644" lon="14.527543812870352"><ele>241.0</ele><time>2026-04-05T12:39:04.999Z</time></trkpt><trkpt lat="41.27634490155699" lon="14.527717449190385"><ele>241.0</ele><time>2026-04-05T12:39:05.999Z</time></trkpt><trkpt lat="41.27636235370205" lon="14.527889077084762"><ele>241.0</ele><time>2026-04-05T12:39:06.999Z</time></trkpt><trkpt lat="41.27634517458498" lon="14.528071524137742"><ele>241.0</ele><time>2026-04-05T12:39:07.999Z</time></trkpt><trkpt lat="41.276348779514116" lon="14.52824728478502"><ele>241.0</ele><time>2026-04-05T12:39:08.999Z</time></trkpt><trkpt lat="41.276332619253495" lon="14.528400468224383"><ele>241.20000000000002</ele><time>2026-04-05T12:39:09.999Z</time></trkpt><trkpt lat="41.27630602833535" lon="14.528522414392429"><ele>241.40000000000003</ele><time>2026-04-05T12:39:10.999Z</time></trkpt><trkpt lat="41.27628847941457" lon="14.528616904141114"><ele>241.6</ele><time>2026-04-05T12:39:11.999Z</time></trkpt><trkpt lat="41.27627496119312" lon="14.528709404296269"><ele>241.8</ele><time>2026-04-05T12:39:12.999Z</time></trkpt><trkpt lat="41.276203539180806" lon="14.528788273179977"><ele>242.0</ele><time>2026-04-05T12:39:13.999Z</time></trkpt><trkpt lat="41.27610570139029" lon="14.528894913630035"><ele>242.75</ele><time>2026-04-05T12:39:14.999Z</time></trkpt><trkpt lat="41.275994459854445" lon="14.529043492569839"><ele>243.5</ele><time>2026-04-05T12:39:15.999Z</time></trkpt><trkpt lat="41.27590265809495" lon="14.529148136207631"><ele>244.25</ele><time>2026-04-05T12:39:16.999Z</time></trkpt><trkpt lat="41.27584528481224" lon="14.529249064941046"><ele>245.0</ele><time>2026-04-05T12:39:17.999Z</time></trkpt><trkpt lat="41.275773638687085" lon="14.529324734831981"><ele>245.00000000000003</ele><time>2026-04-05T12:39:18.999Z</time></trkpt><trkpt lat="41.275682519769" lon="14.529359633129609"><ele>245.0</ele><time>2026-04-05T12:39:19.999Z</time></trkpt><trkpt lat="41.27559166425818" lon="14.529393023266389"><ele>245.0</ele><time>2026-04-05T12:39:20.999Z</time></trkpt><trkpt lat="41.27553484008668" lon="14.529435906481524"><ele>245.0</ele><time>2026-04-05T12:39:21.999Z</time></trkpt><trkpt lat="41.27549520081515" lon="14.529553332698057"><ele>245.00000000000003</ele><time>2026-04-05T12:39:24.999Z</time></trkpt><trkpt lat="41.275513496336806" lon="14.529672008369824"><ele>245.0</ele><time>2026-04-05T12:39:25.999Z</time></trkpt><trkpt lat="41.27554311781371" lon="14.529807620873047"><ele>245.2</ele><time>2026-04-05T12:39:26.999Z</time></trkpt><trkpt lat="41.27557366578059" lon="14.529926564880403"><ele>245.4</ele><time>2026-04-05T12:39:27.999Z</time></trkpt><trkpt lat="41.27559284991191" lon="14.530074404876137"><ele>245.60000000000002</ele><time>2026-04-05T12:39:28.999Z</time></trkpt><trkpt lat="41.275623852154126" lon="14.530231356180932"><ele>245.8</ele><time>2026-04-05T12:39:29.999Z</time></trkpt><trkpt lat="41.27563712124706" lon="14.530386446549507"><ele>246.0</ele><time>2026-04-05T12:39:30.999Z</time></trkpt><trkpt lat="41.275644016668814" lon="14.530547361197625"><ele>246.5</ele><time>2026-04-05T12:39:31.999Z</time></trkpt><trkpt lat="41.275636545677195" lon="14.530714547434313"><ele>247.0</ele><time>2026-04-05T12:39:32.999Z</time></trkpt><trkpt lat="41.275630708890326" lon="14.53089187479632"><ele>247.5</ele><time>2026-04-05T12:39:33.999Z</time></trkpt><trkpt lat="41.27562219219984" lon="14.53104531659363"><ele>248.0</ele><time>2026-04-05T12:39:34.999Z</time></trkpt><trkpt lat="41.27561280529965" lon="14.531177578907446"><ele>248.00000000000003</ele><time>2026-04-05T12:39:35.999Z</time></trkpt><trkpt lat="41.275612425902715" lon="14.531298021028226"><ele>248.0</ele><time>2026-04-05T12:39:36.999Z</time></trkpt><trkpt lat="41.275589757446255" lon="14.531404542331039"><ele>248.0</ele><time>2026-04-05T12:39:37.999Z</time></trkpt><trkpt lat="41.27558403863048" lon="14.53150042317625"><ele>248.0</ele><time>2026-04-05T12:39:38.999Z</time></trkpt><trkpt lat="41.275561892920386" lon="14.53159157249802"><ele>248.00000000000003</ele><time>2026-04-05T12:39:40.999Z</time></trkpt><trkpt lat="41.2754559021992" lon="14.53155582993528"><ele>248.0</ele><time>2026-04-05T12:39:41.999Z</time></trkpt><trkpt lat="41.275373627266106" lon="14.531583670357573"><ele>244.0</ele><time>2026-04-05T12:39:42.999Z</time></trkpt><trkpt lat="41.27528911124626" lon="14.531610914542734"><ele>240.0</ele><time>2026-04-05T12:39:43.999Z</time></trkpt><trkpt lat="41.27518874897523" lon="14.531775057413348"><ele>236.0</ele><time>2026-04-05T12:39:45.999Z</time></trkpt><trkpt lat="41.275168185502395" lon="14.531876350368648"><ele>232.0</ele><time>2026-04-05T12:39:46.999Z</time></trkpt><trkpt lat="41.2751159182913" lon="14.531930866562536"><ele>228.0</ele><time>2026-04-05T12:39:52.999Z</time></trkpt><trkpt lat="41.275042866943906" lon="14.531959590898698"><ele>228.0</ele><time>2026-04-05T12:39:54.999Z</time></trkpt><trkpt lat="41.275014461803465" lon="14.532035352583502"><ele>228.0</ele><time>2026-04-05T12:39:55.999Z</time></trkpt><trkpt lat="41.274976926194746" lon="14.532119119096837"><ele>228.0</ele><time>2026-04-05T12:39:56.999Z</time></trkpt><trkpt lat="41.27491995836129" lon="14.532187349976251"><ele>228.0</ele><time>2026-04-05T12:39:57.999Z</time></trkpt><trkpt lat="41.27484562399467" lon="14.532235980750487"><ele>228.0</ele><time>2026-04-05T12:39:58.999Z</time></trkpt><trkpt lat="41.274769786935465" lon="14.532272990864847"><ele>228.0</ele><time>2026-04-05T12:39:59.999Z</time></trkpt><trkpt lat="41.274700261411546" lon="14.53231426142967"><ele>224.5</ele><time>2026-04-05T12:40:00.999Z</time></trkpt><trkpt lat="41.2746360011969" lon="14.532324206846086"><ele>221.0</ele><time>2026-04-05T12:40:01.999Z</time></trkpt><trkpt lat="41.27459212405857" lon="14.532234945804467"><ele>217.5</ele><time>2026-04-05T12:40:02.999Z</time></trkpt><trkpt lat="41.27452556448385" lon="14.53218580392286"><ele>214.0</ele><time>2026-04-05T12:40:03.999Z</time></trkpt><trkpt lat="41.274439822639586" lon="14.532142505629905"><ele>210.5</ele><time>2026-04-05T12:40:04.999Z</time></trkpt><trkpt lat="41.27435498443926" lon="14.532148464515773"><ele>207.0</ele><time>2026-04-05T12:40:05.999Z</time></trkpt><trkpt lat="41.27426988103595" lon="14.532155905191688"><ele>207.0</ele><time>2026-04-05T12:40:06.999Z</time></trkpt><trkpt lat="41.274184220121086" lon="14.53215992125494"><ele>207.0</ele><time>2026-04-05T12:40:07.999Z</time></trkpt><trkpt lat="41.27410026166066" lon="14.532159254759835"><ele>207.0</ele><time>2026-04-05T12:40:08.999Z</time></trkpt><trkpt lat="41.274020471984876" lon="14.532147399057033"><ele>207.0</ele><time>2026-04-05T12:40:09.999Z</time></trkpt><trkpt lat="41.27393513613243" lon="14.532135696707103"><ele>207.0</ele><time>2026-04-05T12:40:10.999Z</time></trkpt><trkpt lat="41.273852329974126" lon="14.532142384859023"><ele>207.0</ele><time>2026-04-05T12:40:11.999Z</time></trkpt><trkpt lat="41.27375362426777" lon="14.532175305020719"><ele>204.66666666666666</ele><time>2026-04-05T12:40:12.999Z</time></trkpt><trkpt lat="41.27366836131344" lon="14.532208263307473"><ele>202.33333333333331</ele><time>2026-04-05T12:40:13.999Z</time></trkpt><trkpt lat="41.27357897137268" lon="14.532224626910391"><ele>200.0</ele><time>2026-04-05T12:40:14.999Z</time></trkpt><trkpt lat="41.273495577765665" lon="14.532229981765067"><ele>197.66666666666666</ele><time>2026-04-05T12:40:15.999Z</time></trkpt><trkpt lat="41.27341717708317" lon="14.532232879510792"><ele>195.33333333333331</ele><time>2026-04-05T12:40:16.999Z</time></trkpt><trkpt lat="41.27334864247732" lon="14.532211225673224"><ele>193.0</ele><time>2026-04-05T12:40:17.999Z</time></trkpt><trkpt lat="41.27328052825474" lon="14.532206840656187"><ele>193.0</ele><time>2026-04-05T12:40:18.999Z</time></trkpt><trkpt lat="41.27319179736273" lon="14.532167648133187"><ele>193.0</ele><time>2026-04-05T12:40:20.999Z</time></trkpt><trkpt lat="41.273122472848094" lon="14.532309895054992"><ele>193.0</ele><time>2026-04-05T12:40:24Z</time></trkpt><trkpt lat="41.27311543073647" lon="14.532406600423627"><ele>193.0</ele><time>2026-04-05T12:40:25Z</time></trkpt><trkpt lat="41.27313924639066" lon="14.532584638297145"><ele>193.0</ele><time>2026-04-05T12:40:27Z</time></trkpt><trkpt lat="41.27318534760771" lon="14.53269235950411"><ele>193.0</ele><time>2026-04-05T12:40:28Z</time></trkpt><trkpt lat="41.273247531766515" lon="14.532826790411763"><ele>193.0</ele><time>2026-04-05T12:40:29Z</time></trkpt><trkpt lat="41.27331264404014" lon="14.532966068008129"><ele>193.0</ele><time>2026-04-05T12:40:30Z</time></trkpt><trkpt lat="41.27338593352064" lon="14.533106702353729"><ele>193.0</ele><time>2026-04-05T12:40:31Z</time></trkpt><trkpt lat="41.27344094630818" lon="14.533270110457986"><ele>193.0</ele><time>2026-04-05T12:40:32Z</time></trkpt><trkpt lat="41.27349463015266" lon="14.533440855923352"><ele>193.0</ele><time>2026-04-05T12:40:33Z</time></trkpt><trkpt lat="41.273542813234215" lon="14.533627028602792"><ele>193.0</ele><time>2026-04-05T12:40:34Z</time></trkpt><trkpt lat="41.27356316284434" lon="14.533816929386973"><ele>193.0</ele><time>2026-04-05T12:40:35Z</time></trkpt><trkpt lat="41.273572447367734" lon="14.534025403829705"><ele>193.0</ele><time>2026-04-05T12:40:36Z</time></trkpt><trkpt lat="41.273578850716056" lon="14.534233657756412"><ele>193.0</ele><time>2026-04-05T12:40:37Z</time></trkpt><trkpt lat="41.27358821943037" lon="14.534438801126866"><ele>193.0</ele><time>2026-04-05T12:40:38Z</time></trkpt><trkpt lat="41.2735937453912" lon="14.534651808997435"><ele>193.33333333333331</ele><time>2026-04-05T12:40:39Z</time></trkpt><trkpt lat="41.273601366593226" lon="14.534867777088067"><ele>193.66666666666669</ele><time>2026-04-05T12:40:40Z</time></trkpt><trkpt lat="41.27361407593592" lon="14.535080185706883"><ele>194.0</ele><time>2026-04-05T12:40:41Z</time></trkpt><trkpt lat="41.273637483478744" lon="14.535289353980898"><ele>193.66666666666669</ele><time>2026-04-05T12:40:42Z</time></trkpt><trkpt lat="41.27367407917767" lon="14.535505086759061"><ele>193.33333333333331</ele><time>2026-04-05T12:40:43Z</time></trkpt><trkpt lat="41.27371147481363" lon="14.535711955374973"><ele>193.0</ele><time>2026-04-05T12:40:44Z</time></trkpt><trkpt lat="41.27376043980695" lon="14.535923857965926"><ele>193.0</ele><time>2026-04-05T12:40:45Z</time></trkpt><trkpt lat="41.27381423754305" lon="14.53612857557084"><ele>193.0</ele><time>2026-04-05T12:40:46Z</time></trkpt><trkpt lat="41.27387947872336" lon="14.536333697509344"><ele>193.0</ele><time>2026-04-05T12:40:47Z</time></trkpt><trkpt lat="41.273953690022026" lon="14.53653569146865"><ele>195.5</ele><time>2026-04-05T12:40:48Z</time></trkpt><trkpt lat="41.27402214443347" lon="14.536720084789275"><ele>198.0</ele><time>2026-04-05T12:40:49Z</time></trkpt><trkpt lat="41.27408795061058" lon="14.536880901392525"><ele>200.5</ele><time>2026-04-05T12:40:50Z</time></trkpt><trkpt lat="41.27414778514014" lon="14.537030453378597"><ele>203.0</ele><time>2026-04-05T12:40:51Z</time></trkpt><trkpt lat="41.274207782530056" lon="14.537175709395171"><ele>203.0</ele><time>2026-04-05T12:40:52Z</time></trkpt><trkpt lat="41.274257331708775" lon="14.537302537178357"><ele>203.0</ele><time>2026-04-05T12:40:53Z</time></trkpt><trkpt lat="41.274302997167766" lon="14.537416740824765"><ele>203.0</ele><time>2026-04-05T12:40:54Z</time></trkpt><trkpt lat="41.274341436220574" lon="14.537510683234878"><ele>203.0</ele><time>2026-04-05T12:40:55Z</time></trkpt><trkpt lat="41.27437774939587" lon="14.537624231970343"><ele>203.0</ele><time>2026-04-05T12:40:57Z</time></trkpt><trkpt lat="41.27443298503846" lon="14.537738236984788"><ele>203.0</ele><time>2026-04-05T12:41:01Z</time></trkpt><trkpt lat="41.27448814538101" lon="14.537882051999679"><ele>203.0</ele><time>2026-04-05T12:41:03Z</time></trkpt><trkpt lat="41.27452166981659" lon="14.537973915630847"><ele>203.0</ele><time>2026-04-05T12:41:04Z</time></trkpt><trkpt lat="41.27455814188028" lon="14.53807748887498"><ele>203.0</ele><time>2026-04-05T12:41:05Z</time></trkpt><trkpt lat="41.27459870480501" lon="14.538184635312325"><ele>203.0</ele><time>2026-04-05T12:41:06Z</time></trkpt><trkpt lat="41.27463770764165" lon="14.538296357281657"><ele>202.60000000000002</ele><time>2026-04-05T12:41:07Z</time></trkpt><trkpt lat="41.27467686727047" lon="14.538415046736878"><ele>202.20000000000002</ele><time>2026-04-05T12:41:08Z</time></trkpt><trkpt lat="41.2747096546422" lon="14.538526979966385"><ele>201.8</ele><time>2026-04-05T12:41:09Z</time></trkpt><trkpt lat="41.27473357003871" lon="14.538644036570801"><ele>201.4</ele><time>2026-04-05T12:41:10Z</time></trkpt><trkpt lat="41.274756956635905" lon="14.538765146815336"><ele>201.0</ele><time>2026-04-05T12:41:11Z</time></trkpt><trkpt lat="41.274797796433404" lon="14.538897726258378"><ele>201.8</ele><time>2026-04-05T12:41:12Z</time></trkpt><trkpt lat="41.274815940497675" lon="14.539030452490799"><ele>202.60000000000002</ele><time>2026-04-05T12:41:13Z</time></trkpt><trkpt lat="41.27484287864316" lon="14.539173117075807"><ele>203.4</ele><time>2026-04-05T12:41:14Z</time></trkpt><trkpt lat="41.27487564405042" lon="14.539312366402497"><ele>204.2</ele><time>2026-04-05T12:41:15Z</time></trkpt><trkpt lat="41.27489363117495" lon="14.539466081156672"><ele>205.0</ele><time>2026-04-05T12:41:16Z</time></trkpt><trkpt lat="41.274924184029494" lon="14.539615367911967"><ele>205.0</ele><time>2026-04-05T12:41:17Z</time></trkpt><trkpt lat="41.27497171048174" lon="14.539762448151047"><ele>205.0</ele><time>2026-04-05T12:41:18Z</time></trkpt><trkpt lat="41.27500343982127" lon="14.539912055930703"><ele>205.0</ele><time>2026-04-05T12:41:18.999Z</time></trkpt><trkpt lat="41.275040793072186" lon="14.540069036764764"><ele>205.0</ele><time>2026-04-05T12:41:19.999Z</time></trkpt><trkpt lat="41.27507325456997" lon="14.540212025417766"><ele>204.99999999999997</ele><time>2026-04-05T12:41:20.999Z</time></trkpt><trkpt lat="41.27510360687528" lon="14.540339623120957"><ele>205.0</ele><time>2026-04-05T12:41:21.999Z</time></trkpt><trkpt lat="41.27512917944194" lon="14.540447166434912"><ele>205.0</ele><time>2026-04-05T12:41:22.999Z</time></trkpt><trkpt lat="41.27515197794918" lon="14.540544324854215"><ele>205.0</ele><time>2026-04-05T12:41:23.999Z</time></trkpt><trkpt lat="41.2751645997984" lon="14.540650445369252"><ele>204.99999999999997</ele><time>2026-04-05T12:41:24.999Z</time></trkpt><trkpt lat="41.27520621078835" lon="14.540772639194758"><ele>205.0</ele><time>2026-04-05T12:41:25.999Z</time></trkpt><trkpt lat="41.27522100773964" lon="14.540918592132916"><ele>205.2</ele><time>2026-04-05T12:41:26.999Z</time></trkpt><trkpt lat="41.27523828183707" lon="14.541061684551865"><ele>205.4</ele><time>2026-04-05T12:41:27.999Z</time></trkpt><trkpt lat="41.27525658676607" lon="14.541203331266399"><ele>205.60000000000002</ele><time>2026-04-05T12:41:28.999Z</time></trkpt><trkpt lat="41.275268192095304" lon="14.54134579213919"><ele>205.8</ele><time>2026-04-05T12:41:29.999Z</time></trkpt><trkpt lat="41.27528822131129" lon="14.541486669276422"><ele>206.0</ele><time>2026-04-05T12:41:30.999Z</time></trkpt><trkpt lat="41.27530326025149" lon="14.541637448838815"><ele>205.83333333333334</ele><time>2026-04-05T12:41:31.999Z</time></trkpt><trkpt lat="41.275322027399284" lon="14.541765440412524"><ele>205.66666666666669</ele><time>2026-04-05T12:41:32.999Z</time></trkpt><trkpt lat="41.27534435415461" lon="14.54187857288645"><ele>205.5</ele><time>2026-04-05T12:41:33.999Z</time></trkpt><trkpt lat="41.27535052452879" lon="14.54199556878991"><ele>205.33333333333331</ele><time>2026-04-05T12:41:34.999Z</time></trkpt><trkpt lat="41.27534143640236" lon="14.54210489108428"><ele>205.16666666666666</ele><time>2026-04-05T12:41:35.999Z</time></trkpt><trkpt lat="41.27534404361372" lon="14.54219603887003"><ele>205.0</ele><time>2026-04-05T12:41:36.999Z</time></trkpt><trkpt lat="41.27534887428566" lon="14.542290409628041"><ele>205.0</ele><time>2026-04-05T12:41:38.999Z</time></trkpt><trkpt lat="41.275222890605754" lon="14.542353192737405"><ele>205.0</ele><time>2026-04-05T12:41:41.999Z</time></trkpt><trkpt lat="41.275107964367244" lon="14.542359288575051"><ele>205.0</ele><time>2026-04-05T12:41:42.999Z</time></trkpt><trkpt lat="41.27499556414827" lon="14.542364782395047"><ele>205.0</ele><time>2026-04-05T12:41:43.999Z</time></trkpt><trkpt lat="41.2748785000808" lon="14.542375138023447"><ele>204.2</ele><time>2026-04-05T12:41:44.999Z</time></trkpt><trkpt lat="41.27475774811144" lon="14.542397509384424"><ele>203.4</ele><time>2026-04-05T12:41:45.999Z</time></trkpt><trkpt lat="41.27466544049662" lon="14.542424355744325"><ele>202.60000000000002</ele><time>2026-04-05T12:41:46.999Z</time></trkpt><trkpt lat="41.27457184905421" lon="14.542469552017883"><ele>201.8</ele><time>2026-04-05T12:41:47.999Z</time></trkpt><trkpt lat="41.27448743093278" lon="14.54254075771044"><ele>201.0</ele><time>2026-04-05T12:41:48.999Z</time></trkpt><trkpt lat="41.27440164348183" lon="14.542630594114339"><ele>201.0</ele><time>2026-04-05T12:41:49.999Z</time></trkpt><trkpt lat="41.27423850577607" lon="14.54280578293865"><ele>201.0</ele><time>2026-04-05T12:41:51.999Z</time></trkpt><trkpt lat="41.274165315480786" lon="14.542930346458204"><ele>201.0</ele><time>2026-04-05T12:41:52.999Z</time></trkpt><trkpt lat="41.27407773235025" lon="14.543029861923987"><ele>201.0</ele><time>2026-04-05T12:41:53.999Z</time></trkpt><trkpt lat="41.27399258402635" lon="14.54313378263475"><ele>201.25</ele><time>2026-04-05T12:41:54.999Z</time></trkpt><trkpt lat="41.27390335421199" lon="14.54323772779335"><ele>201.5</ele><time>2026-04-05T12:41:55.999Z</time></trkpt><trkpt lat="41.273815837422504" lon="14.543335652589036"><ele>201.75</ele><time>2026-04-05T12:41:56.999Z</time></trkpt><trkpt lat="41.2737262172168" lon="14.54343596750735"><ele>202.0</ele><time>2026-04-05T12:41:57.999Z</time></trkpt><trkpt lat="41.27363713276049" lon="14.543537431396315"><ele>202.0</ele><time>2026-04-05T12:41:58.999Z</time></trkpt><trkpt lat="41.273544767265854" lon="14.543639042496455"><ele>202.0</ele><time>2026-04-05T12:41:59.999Z</time></trkpt><trkpt lat="41.273452366934116" lon="14.543747734594191"><ele>202.0</ele><time>2026-04-05T12:42:00.999Z</time></trkpt><trkpt lat="41.273357500369016" lon="14.543864220556902"><ele>202.0</ele><time>2026-04-05T12:42:01.999Z</time></trkpt><trkpt lat="41.27326647155082" lon="14.5439918368985"><ele>202.75</ele><time>2026-04-05T12:42:02.999Z</time></trkpt><trkpt lat="41.27317310129802" lon="14.54412951474921"><ele>203.5</ele><time>2026-04-05T12:42:03.999Z</time></trkpt><trkpt lat="41.27309497717836" lon="14.544286732007029"><ele>204.25</ele><time>2026-04-05T12:42:04.999Z</time></trkpt><trkpt lat="41.273072060845585" lon="14.544478411873207"><ele>205.0</ele><time>2026-04-05T12:42:05.999Z</time></trkpt><trkpt lat="41.27307692077964" lon="14.54468124093443"><ele>205.66666666666666</ele><time>2026-04-05T12:42:06.999Z</time></trkpt><trkpt lat="41.2731042953671" lon="14.544885358857725"><ele>206.33333333333331</ele><time>2026-04-05T12:42:07.999Z</time></trkpt><trkpt lat="41.273145961808964" lon="14.545088931052776"><ele>207.0</ele><time>2026-04-05T12:42:08.999Z</time></trkpt><trkpt lat="41.27318217261957" lon="14.545297485894638"><ele>208.33333333333331</ele><time>2026-04-05T12:42:09.999Z</time></trkpt><trkpt lat="41.27320351743201" lon="14.545510539637284"><ele>209.66666666666666</ele><time>2026-04-05T12:42:10.999Z</time></trkpt><trkpt lat="41.273213374445724" lon="14.545739501711202"><ele>211.0</ele><time>2026-04-05T12:42:11.999Z</time></trkpt><trkpt lat="41.27321814117969" lon="14.54596106864889"><ele>211.0</ele><time>2026-04-05T12:42:12.999Z</time></trkpt><trkpt lat="41.2732325681944" lon="14.5461680391991"><ele>211.0</ele><time>2026-04-05T12:42:13.999Z</time></trkpt><trkpt lat="41.273260464737646" lon="14.546342080740754"><ele>211.0</ele><time>2026-04-05T12:42:14.999Z</time></trkpt><trkpt lat="41.273326395377055" lon="14.54649084910011"><ele>211.0</ele><time>2026-04-05T12:42:15.999Z</time></trkpt><trkpt lat="41.27341946349944" lon="14.54664557005048"><ele>211.8</ele><time>2026-04-05T12:42:16.999Z</time></trkpt><trkpt lat="41.27350793435851" lon="14.54677870999152"><ele>212.60000000000002</ele><time>2026-04-05T12:42:17.999Z</time></trkpt><trkpt lat="41.273580606756056" lon="14.546889117894526"><ele>213.4</ele><time>2026-04-05T12:42:18.999Z</time></trkpt><trkpt lat="41.273626323385606" lon="14.546972146821172"><ele>214.2</ele><time>2026-04-05T12:42:19.999Z</time></trkpt><trkpt lat="41.27368302879059" lon="14.547045679758114"><ele>215.0</ele><time>2026-04-05T12:42:20.999Z</time></trkpt><trkpt lat="41.2737272612652" lon="14.547136006366902"><ele>215.0</ele><time>2026-04-05T12:42:21.999Z</time></trkpt><trkpt lat="41.273791384558145" lon="14.547272301256475"><ele>215.0</ele><time>2026-04-05T12:42:22.999Z</time></trkpt><trkpt lat="41.273879826833884" lon="14.547413171150234"><ele>215.0</ele><time>2026-04-05T12:42:23.999Z</time></trkpt><trkpt lat="41.27400291494235" lon="14.54757990944379"><ele>215.0</ele><time>2026-04-05T12:42:24.999Z</time></trkpt><trkpt lat="41.27412798230621" lon="14.547754712860364"><ele>217.33333333333334</ele><time>2026-04-05T12:42:25.999Z</time></trkpt><trkpt lat="41.27424224567745" lon="14.547942243734711"><ele>219.66666666666669</ele><time>2026-04-05T12:42:26.999Z</time></trkpt><trkpt lat="41.27436949407061" lon="14.548174441079654"><ele>222.0</ele><time>2026-04-05T12:42:28Z</time></trkpt><trkpt lat="41.27447531134014" lon="14.548388185941423"><ele>222.0</ele><time>2026-04-05T12:42:29Z</time></trkpt><trkpt lat="41.2745516339397" lon="14.54858981365807"><ele>222.0</ele><time>2026-04-05T12:42:30Z</time></trkpt><trkpt lat="41.27460884950532" lon="14.54878722395236"><ele>222.0</ele><time>2026-04-05T12:42:31Z</time></trkpt><trkpt lat="41.27472570983713" lon="14.549127319376245"><ele>221.75</ele><time>2026-04-05T12:42:33Z</time></trkpt><trkpt lat="41.274831212954254" lon="14.549261466999557"><ele>221.5</ele><time>2026-04-05T12:42:34Z</time></trkpt><trkpt lat="41.274951344256905" lon="14.549330991557925"><ele>221.25</ele><time>2026-04-05T12:42:35Z</time></trkpt><trkpt lat="41.27507175089995" lon="14.549338586702957"><ele>221.0</ele><time>2026-04-05T12:42:36Z</time></trkpt><trkpt lat="41.27516408560572" lon="14.549401416846429"><ele>221.00000000000003</ele><time>2026-04-05T12:42:37Z</time></trkpt><trkpt lat="41.27524885679402" lon="14.5494567927063"><ele>221.0</ele><time>2026-04-05T12:42:38Z</time></trkpt><trkpt lat="41.275297034081575" lon="14.549553417983095"><ele>221.0</ele><time>2026-04-05T12:42:39Z</time></trkpt><trkpt lat="41.27532896632604" lon="14.549652811655553"><ele>221.0</ele><time>2026-04-05T12:42:40Z</time></trkpt><trkpt lat="41.275362379260244" lon="14.549733402782499"><ele>221.00000000000003</ele><time>2026-04-05T12:42:41Z</time></trkpt><trkpt lat="41.27543570894569" lon="14.549794661924125"><ele>221.0</ele><time>2026-04-05T12:42:42Z</time></trkpt><trkpt lat="41.275541281820615" lon="14.549832377928915"><ele>221.75</ele><time>2026-04-05T12:42:43Z</time></trkpt><trkpt lat="41.27565793812718" lon="14.549886094154408"><ele>222.5</ele><time>2026-04-05T12:42:44Z</time></trkpt><trkpt lat="41.275760994431586" lon="14.549975301876152"><ele>223.25</ele><time>2026-04-05T12:42:45Z</time></trkpt><trkpt lat="41.275862683152866" lon="14.550093129982038"><ele>224.0</ele><time>2026-04-05T12:42:46Z</time></trkpt><trkpt lat="41.275965301893" lon="14.550223961764939"><ele>224.0</ele><time>2026-04-05T12:42:47Z</time></trkpt><trkpt lat="41.27606537120189" lon="14.55034877854419"><ele>224.0</ele><time>2026-04-05T12:42:48Z</time></trkpt><trkpt lat="41.2761587134347" lon="14.550497237508297"><ele>224.0</ele><time>2026-04-05T12:42:49Z</time></trkpt><trkpt lat="41.276264880130995" lon="14.550644329744863"><ele>224.0</ele><time>2026-04-05T12:42:50Z</time></trkpt><trkpt lat="41.27638049567976" lon="14.550797769300434"><ele>223.66666666666669</ele><time>2026-04-05T12:42:51Z</time></trkpt><trkpt lat="41.27648666245757" lon="14.550946361439893"><ele>223.33333333333331</ele><time>2026-04-05T12:42:52Z</time></trkpt><trkpt lat="41.27660449141443" lon="14.551083547861351"><ele>223.0</ele><time>2026-04-05T12:42:53Z</time></trkpt><trkpt lat="41.27671024552006" lon="14.55121367070598"><ele>223.0</ele><time>2026-04-05T12:42:54Z</time></trkpt><trkpt lat="41.27681733769803" lon="14.551335717485387"><ele>223.0</ele><time>2026-04-05T12:42:55Z</time></trkpt><trkpt lat="41.277057980099734" lon="14.551567739799351"><ele>223.0</ele><time>2026-04-05T12:42:57Z</time></trkpt><trkpt lat="41.27718820382985" lon="14.551673004412091"><ele>221.33333333333331</ele><time>2026-04-05T12:42:58Z</time></trkpt><trkpt lat="41.2773208053866" lon="14.551773872883533"><ele>219.66666666666669</ele><time>2026-04-05T12:42:59Z</time></trkpt><trkpt lat="41.27745369581176" lon="14.551871766381874"><ele>218.0</ele><time>2026-04-05T12:43:00Z</time></trkpt><trkpt lat="41.277588820910594" lon="14.551970522948176"><ele>220.33333333333334</ele><time>2026-04-05T12:43:01Z</time></trkpt><trkpt lat="41.27772683030765" lon="14.552060872716059"><ele>222.66666666666669</ele><time>2026-04-05T12:43:02Z</time></trkpt><trkpt lat="41.27786372863164" lon="14.552152177381448"><ele>225.0</ele><time>2026-04-05T12:43:03Z</time></trkpt><trkpt lat="41.27799588033557" lon="14.552245363868131"><ele>223.75</ele><time>2026-04-05T12:43:04Z</time></trkpt><trkpt lat="41.278114246824174" lon="14.552327601307011"><ele>222.5</ele><time>2026-04-05T12:43:05Z</time></trkpt><trkpt lat="41.27823499818819" lon="14.552412989212606"><ele>221.25</ele><time>2026-04-05T12:43:06Z</time></trkpt><trkpt lat="41.27836314523292" lon="14.552494483474396"><ele>220.0</ele><time>2026-04-05T12:43:07Z</time></trkpt><trkpt lat="41.27848107332863" lon="14.552582389553606"><ele>220.0</ele><time>2026-04-05T12:43:08Z</time></trkpt><trkpt lat="41.27859518063733" lon="14.552689577759788"><ele>220.0</ele><time>2026-04-05T12:43:09Z</time></trkpt><trkpt lat="41.27871095252673" lon="14.552804053015311"><ele>220.0</ele><time>2026-04-05T12:43:10Z</time></trkpt><trkpt lat="41.27883295270792" lon="14.55290921876571"><ele>220.0</ele><time>2026-04-05T12:43:11Z</time></trkpt><trkpt lat="41.2789546715527" lon="14.553017223814399"><ele>219.5</ele><time>2026-04-05T12:43:12Z</time></trkpt><trkpt lat="41.279074914399835" lon="14.553128251431538"><ele>219.0</ele><time>2026-04-05T12:43:13Z</time></trkpt><trkpt lat="41.2791983786974" lon="14.55324268886248"><ele>218.5</ele><time>2026-04-05T12:43:14Z</time></trkpt><trkpt lat="41.279318139873915" lon="14.553353838041998"><ele>218.0</ele><time>2026-04-05T12:43:15Z</time></trkpt><trkpt lat="41.279442376230215" lon="14.553464204101171"><ele>218.0</ele><time>2026-04-05T12:43:16Z</time></trkpt><trkpt lat="41.27956855448751" lon="14.553563750335108"><ele>218.0</ele><time>2026-04-05T12:43:17Z</time></trkpt><trkpt lat="41.279706342109684" lon="14.553642458922445"><ele>218.0</ele><time>2026-04-05T12:43:18Z</time></trkpt><trkpt lat="41.27985135654359" lon="14.553665893086603"><ele>218.0</ele><time>2026-04-05T12:43:19Z</time></trkpt><trkpt lat="41.27998587193422" lon="14.553706901103938"><ele>222.5</ele><time>2026-04-05T12:43:20Z</time></trkpt><trkpt lat="41.28013378220769" lon="14.553737690216574"><ele>227.0</ele><time>2026-04-05T12:43:21Z</time></trkpt><trkpt lat="41.280271699749505" lon="14.553784646470524"><ele>231.5</ele><time>2026-04-05T12:43:22Z</time></trkpt><trkpt lat="41.28039354425037" lon="14.553845626099474"><ele>236.0</ele><time>2026-04-05T12:43:23Z</time></trkpt><trkpt lat="41.280524655710934" lon="14.553923589832621"><ele>238.5</ele><time>2026-04-05T12:43:24Z</time></trkpt><trkpt lat="41.28064055741232" lon="14.554001372217147"><ele>241.0</ele><time>2026-04-05T12:43:25Z</time></trkpt><trkpt lat="41.28075762532938" lon="14.554081459776736"><ele>243.5</ele><time>2026-04-05T12:43:26Z</time></trkpt><trkpt lat="41.280877275072804" lon="14.554167968934793"><ele>246.0</ele><time>2026-04-05T12:43:27Z</time></trkpt><trkpt lat="41.28098914604456" lon="14.55425430963028"><ele>246.0</ele><time>2026-04-05T12:43:28Z</time></trkpt><trkpt lat="41.281097793645216" lon="14.554344863448657"><ele>246.00000000000003</ele><time>2026-04-05T12:43:29Z</time></trkpt><trkpt lat="41.281209733197194" lon="14.554423998082482"><ele>246.00000000000003</ele><time>2026-04-05T12:43:30Z</time></trkpt><trkpt lat="41.28129820788772" lon="14.55447487193298"><ele>246.0</ele><time>2026-04-05T12:43:31Z</time></trkpt><trkpt lat="41.281372157803425" lon="14.554485694845694"><ele>246.0</ele><time>2026-04-05T12:43:32Z</time></trkpt><trkpt lat="41.28144044829798" lon="14.554503454447463"><ele>247.0</ele><time>2026-04-05T12:43:33Z</time></trkpt><trkpt lat="41.28150338611928" lon="14.554528102653798"><ele>248.0</ele><time>2026-04-05T12:43:34Z</time></trkpt><trkpt lat="41.28155928172952" lon="14.554570015749324"><ele>249.0</ele><time>2026-04-05T12:43:35Z</time></trkpt><trkpt lat="41.28164220793627" lon="14.554583495465986"><ele>250.0</ele><time>2026-04-05T12:43:36Z</time></trkpt><trkpt lat="41.28167485575388" lon="14.55475206413239"><ele>251.0</ele><time>2026-04-05T12:43:37Z</time></trkpt><trkpt lat="41.281728825879526" lon="14.554853772611882"><ele>252.0</ele><time>2026-04-05T12:43:38Z</time></trkpt><trkpt lat="41.2817847529021" lon="14.554954469887964"><ele>253.6</ele><time>2026-04-05T12:43:39Z</time></trkpt><trkpt lat="41.281851270239535" lon="14.555061680684492"><ele>255.2</ele><time>2026-04-05T12:43:40Z</time></trkpt><trkpt lat="41.28191549232167" lon="14.55517484038079"><ele>256.8</ele><time>2026-04-05T12:43:41Z</time></trkpt><trkpt lat="41.28197837696125" lon="14.55527738361981"><ele>258.4</ele><time>2026-04-05T12:43:42Z</time></trkpt><trkpt lat="41.28203277553659" lon="14.555378556846016"><ele>260.0</ele><time>2026-04-05T12:43:43Z</time></trkpt><trkpt lat="41.28210221994591" lon="14.555473837823207"><ele>260.2</ele><time>2026-04-05T12:43:44Z</time></trkpt><trkpt lat="41.28215778681255" lon="14.555563091071619"><ele>260.4</ele><time>2026-04-05T12:43:45Z</time></trkpt><trkpt lat="41.28221372249603" lon="14.555656411971144"><ele>260.6</ele><time>2026-04-05T12:43:46Z</time></trkpt><trkpt lat="41.2822645035143" lon="14.55575240036635"><ele>260.8</ele><time>2026-04-05T12:43:47Z</time></trkpt><trkpt lat="41.28232047274666" lon="14.555846962493412"><ele>261.0</ele><time>2026-04-05T12:43:48Z</time></trkpt><trkpt lat="41.2823859856908" lon="14.55594422717329"><ele>261.40000000000003</ele><time>2026-04-05T12:43:49Z</time></trkpt><trkpt lat="41.28244371320241" lon="14.556050565416369"><ele>261.8</ele><time>2026-04-05T12:43:50Z</time></trkpt><trkpt lat="41.28250762213767" lon="14.556154412192551"><ele>262.20000000000005</ele><time>2026-04-05T12:43:50.999Z</time></trkpt><trkpt lat="41.282574246190464" lon="14.556262391401967"><ele>262.6</ele><time>2026-04-05T12:43:51.999Z</time></trkpt><trkpt lat="41.28263493525055" lon="14.55636362806518"><ele>263.0</ele><time>2026-04-05T12:43:52.999Z</time></trkpt><trkpt lat="41.28269327328338" lon="14.556462673410124"><ele>263.33333333333337</ele><time>2026-04-05T12:43:53.999Z</time></trkpt><trkpt lat="41.2827478780976" lon="14.55655674491633"><ele>263.6666666666667</ele><time>2026-04-05T12:43:54.999Z</time></trkpt><trkpt lat="41.282805418308435" lon="14.556653388542241"><ele>264.0</ele><time>2026-04-05T12:43:55.999Z</time></trkpt><trkpt lat="41.28286130345463" lon="14.55674837110999"><ele>264.3333333333333</ele><time>2026-04-05T12:43:56.999Z</time></trkpt><trkpt lat="41.28291216062985" lon="14.556830831765389"><ele>264.66666666666663</ele><time>2026-04-05T12:43:57.999Z</time></trkpt><trkpt lat="41.28296049999656" lon="14.556913519236078"><ele>265.0</ele><time>2026-04-05T12:43:58.999Z</time></trkpt><trkpt lat="41.28301121210583" lon="14.556998995491186"><ele>264.3333333333333</ele><time>2026-04-05T12:43:59.999Z</time></trkpt><trkpt lat="41.28306921536203" lon="14.557100056550494"><ele>263.66666666666663</ele><time>2026-04-05T12:44:00.999Z</time></trkpt><trkpt lat="41.28311841429613" lon="14.557187813996386"><ele>263.0</ele><time>2026-04-05T12:44:01.999Z</time></trkpt><trkpt lat="41.28317227355162" lon="14.557280937273699"><ele>262.3333333333333</ele><time>2026-04-05T12:44:02.999Z</time></trkpt><trkpt lat="41.283224498715846" lon="14.557354757946278"><ele>261.6666666666667</ele><time>2026-04-05T12:44:03.999Z</time></trkpt><trkpt lat="41.2832674373639" lon="14.557421675335355"><ele>261.0</ele><time>2026-04-05T12:44:04.999Z</time></trkpt><trkpt lat="41.28330552494892" lon="14.55749701291279"><ele>262.6</ele><time>2026-04-05T12:44:05.999Z</time></trkpt><trkpt lat="41.28339983700866" lon="14.557621704980244"><ele>264.20000000000005</ele><time>2026-04-05T12:44:07.999Z</time></trkpt><trkpt lat="41.28343820617778" lon="14.557715539049255"><ele>265.79999999999995</ele><time>2026-04-05T12:44:08.999Z</time></trkpt><trkpt lat="41.283498491345135" lon="14.55779106811133"><ele>267.4</ele><time>2026-04-05T12:44:09.999Z</time></trkpt><trkpt lat="41.283554511511234" lon="14.55787737256649"><ele>269.0</ele><time>2026-04-05T12:44:10.999Z</time></trkpt><trkpt lat="41.283614616734205" lon="14.557978268817475"><ele>269.0</ele><time>2026-04-05T12:44:11.999Z</time></trkpt><trkpt lat="41.28368610534942" lon="14.558089723457611"><ele>269.0</ele><time>2026-04-05T12:44:12.999Z</time></trkpt><trkpt lat="41.28375772068101" lon="14.55819588184724"><ele>269.0</ele><time>2026-04-05T12:44:13.999Z</time></trkpt><trkpt lat="41.283827929962854" lon="14.558313558551024"><ele>269.0</ele><time>2026-04-05T12:44:14.999Z</time></trkpt><trkpt lat="41.28390191418733" lon="14.558440779720355"><ele>270.5</ele><time>2026-04-05T12:44:15.999Z</time></trkpt><trkpt lat="41.283984770316756" lon="14.558565254547569"><ele>272.0</ele><time>2026-04-05T12:44:16.999Z</time></trkpt><trkpt lat="41.2840721680515" lon="14.558686883416646"><ele>273.5</ele><time>2026-04-05T12:44:17.999Z</time></trkpt><trkpt lat="41.284157133504515" lon="14.558833485297836"><ele>275.0</ele><time>2026-04-05T12:44:18.999Z</time></trkpt><trkpt lat="41.2842289142056" lon="14.558963074541051"><ele>276.0</ele><time>2026-04-05T12:44:19.999Z</time></trkpt><trkpt lat="41.28430955502376" lon="14.559097215548174"><ele>277.0</ele><time>2026-04-05T12:44:20.999Z</time></trkpt><trkpt lat="41.28439309161426" lon="14.559215975936233"><ele>278.0</ele><time>2026-04-05T12:44:21.999Z</time></trkpt><trkpt lat="41.28447701145043" lon="14.559359298585484"><ele>279.0</ele><time>2026-04-05T12:44:22.999Z</time></trkpt><trkpt lat="41.284561708301645" lon="14.55949706648467"><ele>279.25</ele><time>2026-04-05T12:44:23.999Z</time></trkpt><trkpt lat="41.284640332506605" lon="14.559638996797371"><ele>279.5</ele><time>2026-04-05T12:44:24.999Z</time></trkpt><trkpt lat="41.28472235000546" lon="14.55977347817168"><ele>279.75</ele><time>2026-04-05T12:44:25.999Z</time></trkpt><trkpt lat="41.28480246166056" lon="14.559885473104904"><ele>280.0</ele><time>2026-04-05T12:44:26.999Z</time></trkpt><trkpt lat="41.28485284620126" lon="14.559979558990062"><ele>281.5</ele><time>2026-04-05T12:44:27.999Z</time></trkpt><trkpt lat="41.2849089736301" lon="14.560069861546388"><ele>283.0</ele><time>2026-04-05T12:44:28.999Z</time></trkpt><trkpt lat="41.28496782098648" lon="14.560149937483738"><ele>284.5</ele><time>2026-04-05T12:44:29.999Z</time></trkpt><trkpt lat="41.285011743495595" lon="14.560230672337722"><ele>286.0</ele><time>2026-04-05T12:44:30.999Z</time></trkpt><trkpt lat="41.285088862227326" lon="14.560339186363809"><ele>287.5</ele><time>2026-04-05T12:44:32.999Z</time></trkpt><trkpt lat="41.28512123659333" lon="14.560424720793577"><ele>289.0</ele><time>2026-04-05T12:44:35Z</time></trkpt><trkpt lat="41.28499863444473" lon="14.560512021525392"><ele>289.0</ele><time>2026-04-05T12:44:37Z</time></trkpt><trkpt lat="41.28494305146426" lon="14.560601215323324"><ele>289.0</ele><time>2026-04-05T12:44:38Z</time></trkpt><trkpt lat="41.28485067489479" lon="14.560647607059959"><ele>289.0</ele><time>2026-04-05T12:44:39Z</time></trkpt><trkpt lat="41.28476816696203" lon="14.560740597320784"><ele>289.0</ele><time>2026-04-05T12:44:40Z</time></trkpt><trkpt lat="41.28468379508541" lon="14.560825989545416"><ele>289.0</ele><time>2026-04-05T12:44:41Z</time></trkpt><trkpt lat="41.28459121385719" lon="14.560921271207759"><ele>287.5</ele><time>2026-04-05T12:44:42Z</time></trkpt><trkpt lat="41.28452227147121" lon="14.561053660713453"><ele>286.0</ele><time>2026-04-05T12:44:43Z</time></trkpt><trkpt lat="41.28444349762289" lon="14.5611790308099"><ele>284.5</ele><time>2026-04-05T12:44:44Z</time></trkpt><trkpt lat="41.284379138019005" lon="14.5613086361398"><ele>283.0</ele><time>2026-04-05T12:44:45Z</time></trkpt><trkpt lat="41.28431024304573" lon="14.561437173294344"><ele>283.0</ele><time>2026-04-05T12:44:46Z</time></trkpt><trkpt lat="41.28423832342544" lon="14.561574995958654"><ele>283.0</ele><time>2026-04-05T12:44:47Z</time></trkpt><trkpt lat="41.28415799569147" lon="14.561696874670687"><ele>283.0</ele><time>2026-04-05T12:44:48Z</time></trkpt><trkpt lat="41.28408640644386" lon="14.561812490438895"><ele>283.0</ele><time>2026-04-05T12:44:49Z</time></trkpt><trkpt lat="41.28402094831106" lon="14.561919066447274"><ele>283.0</ele><time>2026-04-05T12:44:50Z</time></trkpt><trkpt lat="41.283963692093145" lon="14.56201464834869"><ele>283.0</ele><time>2026-04-05T12:44:51Z</time></trkpt><trkpt lat="41.28391582962054" lon="14.56209782415334"><ele>283.0</ele><time>2026-04-05T12:44:52Z</time></trkpt><trkpt lat="41.28387970055608" lon="14.562169049006659"><ele>283.0</ele><time>2026-04-05T12:44:53Z</time></trkpt><trkpt lat="41.283970990566026" lon="14.562385533548067"><ele>283.0</ele><time>2026-04-05T12:44:58Z</time></trkpt><trkpt lat="41.28401013729592" lon="14.562461933338172"><ele>283.66666666666663</ele><time>2026-04-05T12:44:59Z</time></trkpt><trkpt lat="41.284044395276496" lon="14.562540115843492"><ele>284.3333333333333</ele><time>2026-04-05T12:45:00Z</time></trkpt><trkpt lat="41.28408260039167" lon="14.562615776831116"><ele>285.0</ele><time>2026-04-05T12:45:01Z</time></trkpt><trkpt lat="41.284065443541316" lon="14.562771002988214"><ele>285.6666666666667</ele><time>2026-04-05T12:45:03Z</time></trkpt><trkpt lat="41.28400799984498" lon="14.56285343092148"><ele>286.33333333333337</ele><time>2026-04-05T12:45:04Z</time></trkpt><trkpt lat="41.28395737475978" lon="14.562929179606561"><ele>287.0</ele><time>2026-04-05T12:45:05Z</time></trkpt><trkpt lat="41.28389671974751" lon="14.56299600865553"><ele>291.4</ele><time>2026-04-05T12:45:06Z</time></trkpt><trkpt lat="41.283855323360974" lon="14.563089976919999"><ele>295.79999999999995</ele><time>2026-04-05T12:45:07Z</time></trkpt><trkpt lat="41.28379226931063" lon="14.563175377805278"><ele>300.2</ele><time>2026-04-05T12:45:08Z</time></trkpt><trkpt lat="41.28371816019901" lon="14.56325359331972"><ele>304.59999999999997</ele><time>2026-04-05T12:45:09Z</time></trkpt><trkpt lat="41.28363014573403" lon="14.563348694926255"><ele>309.0</ele><time>2026-04-05T12:45:10Z</time></trkpt><trkpt lat="41.28356332768369" lon="14.563421757295286"><ele>309.0</ele><time>2026-04-05T12:45:11Z</time></trkpt><trkpt lat="41.28352548169646" lon="14.56349843316708"><ele>309.0</ele><time>2026-04-05T12:45:12Z</time></trkpt><trkpt lat="41.283533264040535" lon="14.563601692025625"><ele>309.0</ele><time>2026-04-05T12:45:13Z</time></trkpt><trkpt lat="41.283543608672005" lon="14.563748558718705"><ele>309.0</ele><time>2026-04-05T12:45:14Z</time></trkpt><trkpt lat="41.283528864203134" lon="14.563871840127936"><ele>309.0</ele><time>2026-04-05T12:45:15Z</time></trkpt><trkpt lat="41.283487116751054" lon="14.56399603401011"><ele>310.8</ele><time>2026-04-05T12:45:16Z</time></trkpt><trkpt lat="41.28344161050501" lon="14.564122749993663"><ele>312.59999999999997</ele><time>2026-04-05T12:45:17Z</time></trkpt><trkpt lat="41.2834192453771" lon="14.564252824725266"><ele>314.4</ele><time>2026-04-05T12:45:18Z</time></trkpt><trkpt lat="41.283424136889245" lon="14.564386949662019"><ele>316.2</ele><time>2026-04-05T12:45:19Z</time></trkpt><trkpt lat="41.28344087620573" lon="14.564527966363586"><ele>318.0</ele><time>2026-04-05T12:45:20Z</time></trkpt><trkpt lat="41.28344278283056" lon="14.564639077389389"><ele>319.1666666666667</ele><time>2026-04-05T12:45:21Z</time></trkpt><trkpt lat="41.28343818135857" lon="14.56474915515011"><ele>320.3333333333333</ele><time>2026-04-05T12:45:22Z</time></trkpt><trkpt lat="41.283402531613994" lon="14.564844653957163"><ele>321.5</ele><time>2026-04-05T12:45:23Z</time></trkpt><trkpt lat="41.28334290250835" lon="14.564932130236894"><ele>322.66666666666663</ele><time>2026-04-05T12:45:24Z</time></trkpt><trkpt lat="41.28325218398111" lon="14.565029782904213"><ele>323.8333333333333</ele><time>2026-04-05T12:45:26Z</time></trkpt><trkpt lat="41.283194778382175" lon="14.56506714761847"><ele>325.0</ele><time>2026-04-05T12:45:28Z</time></trkpt><trkpt lat="41.28321026311323" lon="14.565234901797533"><ele>325.0</ele><time>2026-04-05T12:45:30Z</time></trkpt><trkpt lat="41.283233111533164" lon="14.565328474377605"><ele>325.0</ele><time>2026-04-05T12:45:31Z</time></trkpt><trkpt lat="41.28325193522296" lon="14.565445357728896"><ele>325.0</ele><time>2026-04-05T12:45:32Z</time></trkpt><trkpt lat="41.28326334683005" lon="14.565566049536175"><ele>325.0</ele><time>2026-04-05T12:45:33Z</time></trkpt><trkpt lat="41.28328596345746" lon="14.56570039621165"><ele>325.0</ele><time>2026-04-05T12:45:34Z</time></trkpt><trkpt lat="41.28329435431168" lon="14.565836637382485"><ele>326.66666666666663</ele><time>2026-04-05T12:45:35Z</time></trkpt><trkpt lat="41.28332425780664" lon="14.565954255976976"><ele>328.3333333333333</ele><time>2026-04-05T12:45:36Z</time></trkpt><trkpt lat="41.28334845020378" lon="14.566052060699278"><ele>330.0</ele><time>2026-04-05T12:45:37Z</time></trkpt><trkpt lat="41.283396315491814" lon="14.566129208384275"><ele>331.6666666666667</ele><time>2026-04-05T12:45:38Z</time></trkpt><trkpt lat="41.28344847535863" lon="14.56617910634846"><ele>333.33333333333337</ele><time>2026-04-05T12:45:39Z</time></trkpt><trkpt lat="41.283556542830674" lon="14.566254237442031"><ele>335.0</ele><time>2026-04-05T12:45:41Z</time></trkpt><trkpt lat="41.283616040261826" lon="14.566282634099748"><ele>337.0</ele><time>2026-04-05T12:45:42Z</time></trkpt><trkpt lat="41.283709449279634" lon="14.566308151353434"><ele>339.0</ele><time>2026-04-05T12:45:43Z</time></trkpt><trkpt lat="41.28382148632322" lon="14.566324244760725"><ele>341.0</ele><time>2026-04-05T12:45:44Z</time></trkpt><trkpt lat="41.28394294379245" lon="14.566335160030878"><ele>343.0</ele><time>2026-04-05T12:45:45Z</time></trkpt><trkpt lat="41.28405792612498" lon="14.566338880711868"><ele>345.0</ele><time>2026-04-05T12:45:46Z</time></trkpt><trkpt lat="41.284170473388805" lon="14.566348289007989"><ele>339.5</ele><time>2026-04-05T12:45:47Z</time></trkpt><trkpt lat="41.28428259091252" lon="14.566358335608955"><ele>334.0</ele><time>2026-04-05T12:45:48Z</time></trkpt><trkpt lat="41.28439880218502" lon="14.566365655923398"><ele>328.5</ele><time>2026-04-05T12:45:49Z</time></trkpt><trkpt lat="41.28451145956002" lon="14.566354345927154"><ele>323.0</ele><time>2026-04-05T12:45:50Z</time></trkpt><trkpt lat="41.284618747739934" lon="14.566335368866236"><ele>323.0</ele><time>2026-04-05T12:45:50.999Z</time></trkpt><trkpt lat="41.28474816822232" lon="14.566313680848399"><ele>323.0</ele><time>2026-04-05T12:45:51.999Z</time></trkpt><trkpt lat="41.28486185052148" lon="14.566293655497601"><ele>323.0</ele><time>2026-04-05T12:45:52.999Z</time></trkpt><trkpt lat="41.28498205914674" lon="14.566276774066854"><ele>323.0</ele><time>2026-04-05T12:45:53.999Z</time></trkpt><trkpt lat="41.28509956211687" lon="14.566256235597685"><ele>320.0</ele><time>2026-04-05T12:45:54.999Z</time></trkpt><trkpt lat="41.285221931025745" lon="14.566213562587215"><ele>317.0</ele><time>2026-04-05T12:45:55.999Z</time></trkpt><trkpt lat="41.28533972793887" lon="14.566193306506404"><ele>314.0</ele><time>2026-04-05T12:45:56.999Z</time></trkpt><trkpt lat="41.28545084868028" lon="14.56616755871126"><ele>311.0</ele><time>2026-04-05T12:45:57.999Z</time></trkpt><trkpt lat="41.28554445542666" lon="14.566121750823795"><ele>306.6</ele><time>2026-04-05T12:45:58.999Z</time></trkpt><trkpt lat="41.28561047391737" lon="14.566133660110568"><ele>302.20000000000005</ele><time>2026-04-05T12:45:59.999Z</time></trkpt><trkpt lat="41.28572847092379" lon="14.566185922963154"><ele>297.79999999999995</ele><time>2026-04-05T12:46:01.999Z</time></trkpt><trkpt lat="41.285824971170896" lon="14.566189389669553"><ele>293.4</ele><time>2026-04-05T12:46:03.999Z</time></trkpt><trkpt lat="41.28592460450172" lon="14.566153343906741"><ele>289.0</ele><time>2026-04-05T12:46:06.999Z</time></trkpt><trkpt lat="41.285987991074016" lon="14.56601115783474"><ele>289.0</ele><time>2026-04-05T12:46:08.999Z</time></trkpt><trkpt lat="41.28604316050869" lon="14.565897881869065"><ele>289.0</ele><time>2026-04-05T12:46:10.999Z</time></trkpt><trkpt lat="41.28608615138286" lon="14.56579937667045"><ele>289.0</ele><time>2026-04-05T12:46:42Z</time></trkpt><trkpt lat="41.28616636097501" lon="14.565652231101947"><ele>289.0</ele><time>2026-04-05T12:46:44Z</time></trkpt><trkpt lat="41.2862093275337" lon="14.565568012560043"><ele>289.0</ele><time>2026-04-05T12:46:45Z</time></trkpt><trkpt lat="41.28626097271393" lon="14.56547792193746"><ele>289.0</ele><time>2026-04-05T12:46:46Z</time></trkpt><trkpt lat="41.286326201470374" lon="14.565414456309641"><ele>289.0</ele><time>2026-04-05T12:46:47Z</time></trkpt><trkpt lat="41.28639637008877" lon="14.565338066541829"><ele>289.0</ele><time>2026-04-05T12:46:48Z</time></trkpt><trkpt lat="41.286453524401885" lon="14.565240932144672"><ele>289.0</ele><time>2026-04-05T12:46:49Z</time></trkpt><trkpt lat="41.286505769541336" lon="14.565193585923183"><ele>289.0</ele><time>2026-04-05T12:46:50Z</time></trkpt><trkpt lat="41.28648258584139" lon="14.565112804588873"><ele>289.0</ele><time>2026-04-05T12:46:51Z</time></trkpt><trkpt lat="41.28640250805469" lon="14.56494104767835"><ele>289.16666666666663</ele><time>2026-04-05T12:46:53Z</time></trkpt><trkpt lat="41.286381222718646" lon="14.56484378946035"><ele>289.3333333333333</ele><time>2026-04-05T12:46:54Z</time></trkpt><trkpt lat="41.28636693852926" lon="14.56475630802181"><ele>289.5</ele><time>2026-04-05T12:46:55Z</time></trkpt><trkpt lat="41.286357641074474" lon="14.564635225923913"><ele>289.6666666666667</ele><time>2026-04-05T12:46:57Z</time></trkpt><trkpt lat="41.28629842589251" lon="14.564543387430538"><ele>289.83333333333337</ele><time>2026-04-05T12:46:59Z</time></trkpt><trkpt lat="41.286247993662336" lon="14.56449062308848"><ele>290.0</ele><time>2026-04-05T12:47:00Z</time></trkpt><trkpt lat="41.28621035129737" lon="14.564415359362696"><ele>291.33333333333337</ele><time>2026-04-05T12:47:02Z</time></trkpt><trkpt lat="41.28627336928979" lon="14.564334319946898"><ele>292.6666666666667</ele><time>2026-04-05T12:47:04Z</time></trkpt><trkpt lat="41.28632123703554" lon="14.564272045607114"><ele>294.0</ele><time>2026-04-05T12:47:05Z</time></trkpt><trkpt lat="41.28636785045306" lon="14.564210205939505"><ele>295.3333333333333</ele><time>2026-04-05T12:47:06Z</time></trkpt><trkpt lat="41.28641770866174" lon="14.564137939658819"><ele>296.66666666666663</ele><time>2026-04-05T12:47:07Z</time></trkpt><trkpt lat="41.28649788857522" lon="14.564021724353838"><ele>298.0</ele><time>2026-04-05T12:47:09Z</time></trkpt><trkpt lat="41.28661893242106" lon="14.564102069032321"><ele>299.0</ele><time>2026-04-05T12:47:14Z</time></trkpt><trkpt lat="41.286679575468426" lon="14.56416803565303"><ele>300.0</ele><time>2026-04-05T12:47:15Z</time></trkpt><trkpt lat="41.28674860614091" lon="14.564215748764486"><ele>301.0</ele><time>2026-04-05T12:47:16Z</time></trkpt><trkpt lat="41.286807663645405" lon="14.564292805239422"><ele>302.0</ele><time>2026-04-05T12:47:17Z</time></trkpt><trkpt lat="41.286862719326436" lon="14.564384228037506"><ele>303.0</ele><time>2026-04-05T12:47:18Z</time></trkpt><trkpt lat="41.286951844444275" lon="14.564467101010502"><ele>304.0</ele><time>2026-04-05T12:47:19Z</time></trkpt><trkpt lat="41.28708128241508" lon="14.564581202732313"><ele>304.0</ele><time>2026-04-05T12:47:20Z</time></trkpt><trkpt lat="41.28719428475374" lon="14.564677292907731"><ele>304.0</ele><time>2026-04-05T12:47:21Z</time></trkpt><trkpt lat="41.28729352918852" lon="14.56479571102694"><ele>304.0</ele><time>2026-04-05T12:47:22Z</time></trkpt><trkpt lat="41.28738550342703" lon="14.564896151385248"><ele>304.0</ele><time>2026-04-05T12:47:23Z</time></trkpt><trkpt lat="41.287486495486036" lon="14.564966799064655"><ele>304.8</ele><time>2026-04-05T12:47:24Z</time></trkpt><trkpt lat="41.28758982499718" lon="14.565052082132548"><ele>305.59999999999997</ele><time>2026-04-05T12:47:25Z</time></trkpt><trkpt lat="41.2876800514127" lon="14.565150128571604"><ele>306.4</ele><time>2026-04-05T12:47:26Z</time></trkpt><trkpt lat="41.28776152638422" lon="14.56523953144385"><ele>307.2</ele><time>2026-04-05T12:47:27Z</time></trkpt><trkpt lat="41.287846833252836" lon="14.565318606017325"><ele>308.0</ele><time>2026-04-05T12:47:28Z</time></trkpt><trkpt lat="41.28793149986033" lon="14.565392779462305"><ele>308.0</ele><time>2026-04-05T12:47:29Z</time></trkpt><trkpt lat="41.288009727571755" lon="14.565470222262999"><ele>308.0</ele><time>2026-04-05T12:47:30Z</time></trkpt><trkpt lat="41.28807852930619" lon="14.565542007988148"><ele>308.0</ele><time>2026-04-05T12:47:31Z</time></trkpt><trkpt lat="41.288133864308506" lon="14.565624519098721"><ele>308.0</ele><time>2026-04-05T12:47:32Z</time></trkpt><trkpt lat="41.28819563793845" lon="14.565697386311383"><ele>308.0</ele><time>2026-04-05T12:47:33Z</time></trkpt><trkpt lat="41.28826742689985" lon="14.565758351330542"><ele>308.0</ele><time>2026-04-05T12:47:34Z</time></trkpt><trkpt lat="41.288306449170875" lon="14.56584591112291"><ele>308.1666666666667</ele><time>2026-04-05T12:47:35Z</time></trkpt><trkpt lat="41.288345730852974" lon="14.565913448030662"><ele>308.33333333333337</ele><time>2026-04-05T12:47:36Z</time></trkpt><trkpt lat="41.28841461566805" lon="14.565980274070622"><ele>308.5</ele><time>2026-04-05T12:47:37Z</time></trkpt><trkpt lat="41.28847335362602" lon="14.566073377892987"><ele>308.6666666666667</ele><time>2026-04-05T12:47:38Z</time></trkpt><trkpt lat="41.28850948936218" lon="14.56619433849407"><ele>308.8333333333333</ele><time>2026-04-05T12:47:39Z</time></trkpt><trkpt lat="41.2885300738566" lon="14.566308109653914"><ele>309.0</ele><time>2026-04-05T12:47:40Z</time></trkpt><trkpt lat="41.28853661152201" lon="14.566417005407505"><ele>309.0</ele><time>2026-04-05T12:47:41Z</time></trkpt><trkpt lat="41.288530898861545" lon="14.566535990017762"><ele>309.0</ele><time>2026-04-05T12:47:41.999Z</time></trkpt><trkpt lat="41.28853544198149" lon="14.566664516720204"><ele>309.0</ele><time>2026-04-05T12:47:42.999Z</time></trkpt><trkpt lat="41.28852317922863" lon="14.566787759108767"><ele>309.0</ele><time>2026-04-05T12:47:43.999Z</time></trkpt><trkpt lat="41.2884632887907" lon="14.566920178596328"><ele>309.0</ele><time>2026-04-05T12:47:44.999Z</time></trkpt><trkpt lat="41.288328499413325" lon="14.567222245808875"><ele>309.59999999999997</ele><time>2026-04-05T12:47:46.999Z</time></trkpt><trkpt lat="41.28826814151031" lon="14.567354764325758"><ele>310.2</ele><time>2026-04-05T12:47:47.999Z</time></trkpt><trkpt lat="41.2882243465772" lon="14.56748000437299"><ele>310.79999999999995</ele><time>2026-04-05T12:47:48.999Z</time></trkpt><trkpt lat="41.28819697337526" lon="14.567621855276874"><ele>311.4</ele><time>2026-04-05T12:47:49.999Z</time></trkpt><trkpt lat="41.288196509131424" lon="14.567755691644662"><ele>312.0</ele><time>2026-04-05T12:47:50.999Z</time></trkpt><trkpt lat="41.28823142899118" lon="14.567900072063594"><ele>313.5</ele><time>2026-04-05T12:47:51.999Z</time></trkpt><trkpt lat="41.28829099589392" lon="14.568027107580663"><ele>315.0</ele><time>2026-04-05T12:47:52.999Z</time></trkpt><trkpt lat="41.28831547197048" lon="14.568117327055287"><ele>316.5</ele><time>2026-04-05T12:47:53.999Z</time></trkpt><trkpt lat="41.28828329083602" lon="14.568189342268763"><ele>318.0</ele><time>2026-04-05T12:47:54.999Z</time></trkpt><trkpt lat="41.28823287727011" lon="14.568240486670271"><ele>319.5</ele><time>2026-04-05T12:47:55.999Z</time></trkpt><trkpt lat="41.28817086903967" lon="14.56818487600013"><ele>321.0</ele><time>2026-04-05T12:47:56.999Z</time></trkpt><trkpt lat="41.28810389281526" lon="14.568079694380938"><ele>320.25</ele><time>2026-04-05T12:47:57.999Z</time></trkpt><trkpt lat="41.28803760653" lon="14.56792756121522"><ele>319.5</ele><time>2026-04-05T12:47:58.999Z</time></trkpt><trkpt lat="41.2879783751059" lon="14.567777521766489"><ele>318.75</ele><time>2026-04-05T12:47:59.999Z</time></trkpt><trkpt lat="41.287913406116886" lon="14.567596164107718"><ele>318.0</ele><time>2026-04-05T12:48:00.999Z</time></trkpt><trkpt lat="41.28786979170426" lon="14.567443288996156"><ele>316.5</ele><time>2026-04-05T12:48:01.999Z</time></trkpt><trkpt lat="41.28781984437078" lon="14.567339915866846"><ele>315.0</ele><time>2026-04-05T12:48:02.999Z</time></trkpt><trkpt lat="41.28774437860703" lon="14.567293816737992"><ele>313.5</ele><time>2026-04-05T12:48:03.999Z</time></trkpt><trkpt lat="41.28765797266486" lon="14.56731225149558"><ele>312.0</ele><time>2026-04-05T12:48:04.999Z</time></trkpt><trkpt lat="41.287612923766225" lon="14.567385937522616"><ele>310.5</ele><time>2026-04-05T12:48:05.999Z</time></trkpt><trkpt lat="41.28761051631137" lon="14.567486510406983"><ele>309.0</ele><time>2026-04-05T12:48:06.999Z</time></trkpt><trkpt lat="41.287648978115854" lon="14.567590960113243"><ele>309.0</ele><time>2026-04-05T12:48:07.999Z</time></trkpt><trkpt lat="41.28770437521638" lon="14.567712110853783"><ele>309.0</ele><time>2026-04-05T12:48:08.999Z</time></trkpt><trkpt lat="41.28775822298212" lon="14.5678433414896"><ele>309.0</ele><time>2026-04-05T12:48:09.999Z</time></trkpt><trkpt lat="41.28780289059723" lon="14.567995266566145"><ele>309.0</ele><time>2026-04-05T12:48:10.999Z</time></trkpt><trkpt lat="41.287853380727924" lon="14.56817289721901"><ele>312.0</ele><time>2026-04-05T12:48:11.999Z</time></trkpt><trkpt lat="41.287897480622114" lon="14.568357099263764"><ele>315.0</ele><time>2026-04-05T12:48:12.999Z</time></trkpt><trkpt lat="41.28792146131593" lon="14.568572183310616"><ele>318.0</ele><time>2026-04-05T12:48:13.999Z</time></trkpt><trkpt lat="41.28795972569989" lon="14.568783827969636"><ele>321.0</ele><time>2026-04-05T12:48:14.999Z</time></trkpt><trkpt lat="41.288001615227124" lon="14.569007797086389"><ele>324.0</ele><time>2026-04-05T12:48:15.999Z</time></trkpt><trkpt lat="41.288056480472726" lon="14.56921974659186"><ele>327.0</ele><time>2026-04-05T12:48:16.999Z</time></trkpt><trkpt lat="41.288092956546556" lon="14.569442468305061"><ele>335.3333333333333</ele><time>2026-04-05T12:48:17.999Z</time></trkpt><trkpt lat="41.28813245899621" lon="14.569676675070827"><ele>343.66666666666663</ele><time>2026-04-05T12:48:18.999Z</time></trkpt><trkpt lat="41.288179781259615" lon="14.569896566756658"><ele>352.0</ele><time>2026-04-05T12:48:19.999Z</time></trkpt><trkpt lat="41.28822770047784" lon="14.570084979051593"><ele>352.0</ele><time>2026-04-05T12:48:20.999Z</time></trkpt><trkpt lat="41.28830171978806" lon="14.570264773903844"><ele>352.0</ele><time>2026-04-05T12:48:21.999Z</time></trkpt><trkpt lat="41.288413913804334" lon="14.570438974044686"><ele>352.0</ele><time>2026-04-05T12:48:22.999Z</time></trkpt><trkpt lat="41.28856114887685" lon="14.570604520176973"><ele>354.66666666666663</ele><time>2026-04-05T12:48:23.999Z</time></trkpt><trkpt lat="41.28872205054587" lon="14.570792695453916"><ele>357.3333333333333</ele><time>2026-04-05T12:48:24.999Z</time></trkpt><trkpt lat="41.28884258833345" lon="14.57103663320742"><ele>360.0</ele><time>2026-04-05T12:48:25.999Z</time></trkpt><trkpt lat="41.288985647023424" lon="14.571242136252524"><ele>364.6666666666667</ele><time>2026-04-05T12:48:26.999Z</time></trkpt><trkpt lat="41.28914188450201" lon="14.571428726208266"><ele>369.33333333333337</ele><time>2026-04-05T12:48:27.999Z</time></trkpt><trkpt lat="41.28926524094472" lon="14.571592567142325"><ele>374.0</ele><time>2026-04-05T12:48:28.999Z</time></trkpt><trkpt lat="41.2893796582421" lon="14.571722395115854"><ele>374.0</ele><time>2026-04-05T12:48:29.999Z</time></trkpt><trkpt lat="41.28947431470096" lon="14.571856018075342"><ele>374.0</ele><time>2026-04-05T12:48:30.999Z</time></trkpt><trkpt lat="41.28951608355535" lon="14.57203415729594"><ele>374.0</ele><time>2026-04-05T12:48:31.999Z</time></trkpt><trkpt lat="41.28951840346673" lon="14.572226595117408"><ele>374.0</ele><time>2026-04-05T12:48:32.999Z</time></trkpt><trkpt lat="41.28948142363409" lon="14.572438720920404"><ele>377.0</ele><time>2026-04-05T12:48:33.999Z</time></trkpt><trkpt lat="41.28941262135523" lon="14.572660207831046"><ele>380.0</ele><time>2026-04-05T12:48:34.999Z</time></trkpt><trkpt lat="41.28933330129583" lon="14.572900728458674"><ele>383.0</ele><time>2026-04-05T12:48:35.999Z</time></trkpt><trkpt lat="41.289255254742" lon="14.573144121103992"><ele>385.6666666666667</ele><time>2026-04-05T12:48:36.999Z</time></trkpt><trkpt lat="41.289197332932595" lon="14.573384108966643"><ele>388.33333333333337</ele><time>2026-04-05T12:48:37.999Z</time></trkpt><trkpt lat="41.28915438626084" lon="14.573640019887835"><ele>391.0</ele><time>2026-04-05T12:48:38.999Z</time></trkpt><trkpt lat="41.28912045454782" lon="14.57390388726582"><ele>393.0</ele><time>2026-04-05T12:48:39.999Z</time></trkpt><trkpt lat="41.28909038221872" lon="14.574162573966381"><ele>395.0</ele><time>2026-04-05T12:48:40.999Z</time></trkpt><trkpt lat="41.28906274589228" lon="14.574420864472879"><ele>397.0</ele><time>2026-04-05T12:48:41.999Z</time></trkpt><trkpt lat="41.28903975684173" lon="14.5746768745931"><ele>400.0</ele><time>2026-04-05T12:48:42.999Z</time></trkpt><trkpt lat="41.28901516861449" lon="14.574922161081462"><ele>403.0</ele><time>2026-04-05T12:48:43.999Z</time></trkpt><trkpt lat="41.28899409647242" lon="14.57516202513864"><ele>406.0</ele><time>2026-04-05T12:48:44.999Z</time></trkpt><trkpt lat="41.28898120983911" lon="14.575399420057682"><ele>408.6666666666667</ele><time>2026-04-05T12:48:46Z</time></trkpt><trkpt lat="41.28898317818527" lon="14.57564487836555"><ele>411.33333333333337</ele><time>2026-04-05T12:48:47Z</time></trkpt><trkpt lat="41.28898019122261" lon="14.575902861432875"><ele>414.0</ele><time>2026-04-05T12:48:48Z</time></trkpt><trkpt lat="41.28897265114545" lon="14.576161245649985"><ele>416.33333333333337</ele><time>2026-04-05T12:48:49Z</time></trkpt><trkpt lat="41.28896109121418" lon="14.57640998295538"><ele>418.6666666666667</ele><time>2026-04-05T12:48:50Z</time></trkpt><trkpt lat="41.288948731390136" lon="14.576640473389046"><ele>421.0</ele><time>2026-04-05T12:48:51Z</time></trkpt><trkpt lat="41.2889357854683" lon="14.576846718288758"><ele>423.0</ele><time>2026-04-05T12:48:52Z</time></trkpt><trkpt lat="41.288919644198145" lon="14.577029975036998"><ele>425.0</ele><time>2026-04-05T12:48:53Z</time></trkpt><trkpt lat="41.28888362295885" lon="14.577202940846021"><ele>427.0</ele><time>2026-04-05T12:48:54Z</time></trkpt><trkpt lat="41.28881505106272" lon="14.577383638955752"><ele>429.0</ele><time>2026-04-05T12:48:55Z</time></trkpt><trkpt lat="41.288724705125105" lon="14.577564910570432"><ele>429.0</ele><time>2026-04-05T12:48:56Z</time></trkpt><trkpt lat="41.28862393084559" lon="14.577718004705734"><ele>429.0</ele><time>2026-04-05T12:48:57Z</time></trkpt><trkpt lat="41.28854389058752" lon="14.577849866015699"><ele>429.0</ele><time>2026-04-05T12:48:58Z</time></trkpt><trkpt lat="41.28847272778514" lon="14.577945270915542"><ele>429.0</ele><time>2026-04-05T12:48:59Z</time></trkpt><trkpt lat="41.288402950345066" lon="14.578037189872058"><ele>430.79999999999995</ele><time>2026-04-05T12:49:00Z</time></trkpt><trkpt lat="41.28833929638692" lon="14.578153906240969"><ele>432.59999999999997</ele><time>2026-04-05T12:49:01Z</time></trkpt><trkpt lat="41.28828974827726" lon="14.578262857566347"><ele>434.4</ele><time>2026-04-05T12:49:02Z</time></trkpt><trkpt lat="41.288245764981305" lon="14.578376946412915"><ele>436.2</ele><time>2026-04-05T12:49:03Z</time></trkpt><trkpt lat="41.2882217268195" lon="14.578481829283774"><ele>438.0</ele><time>2026-04-05T12:49:04Z</time></trkpt><trkpt lat="41.288231758383" lon="14.578578591412295"><ele>438.0</ele><time>2026-04-05T12:49:05Z</time></trkpt><trkpt lat="41.28825377045321" lon="14.578682992247067"><ele>437.99999999999994</ele><time>2026-04-05T12:49:06Z</time></trkpt><trkpt lat="41.28834839981726" lon="14.578730816482667"><ele>437.99999999999994</ele><time>2026-04-05T12:49:07Z</time></trkpt><trkpt lat="41.28843523123401" lon="14.578793842651704"><ele>438.0</ele><time>2026-04-05T12:49:08Z</time></trkpt><trkpt lat="41.288517983169186" lon="14.578861684391237"><ele>438.0</ele><time>2026-04-05T12:49:09Z</time></trkpt><trkpt lat="41.28855084771452" lon="14.579005680522792"><ele>439.5</ele><time>2026-04-05T12:49:10Z</time></trkpt><trkpt lat="41.288612628912794" lon="14.579142196649526"><ele>441.0</ele><time>2026-04-05T12:49:11Z</time></trkpt><trkpt lat="41.28870469981725" lon="14.5792986361262"><ele>442.5</ele><time>2026-04-05T12:49:12Z</time></trkpt><trkpt lat="41.288764688045255" lon="14.579457109243732"><ele>444.0</ele><time>2026-04-05T12:49:13Z</time></trkpt><trkpt lat="41.28880636898578" lon="14.579631812065756"><ele>445.79999999999995</ele><time>2026-04-05T12:49:14Z</time></trkpt><trkpt lat="41.2888188816694" lon="14.579770798506383"><ele>447.59999999999997</ele><time>2026-04-05T12:49:15Z</time></trkpt><trkpt lat="41.28882765993618" lon="14.579914080926784"><ele>449.4</ele><time>2026-04-05T12:49:16Z</time></trkpt><trkpt lat="41.288844704851336" lon="14.580065796018824"><ele>451.2</ele><time>2026-04-05T12:49:17Z</time></trkpt><trkpt lat="41.288896765909044" lon="14.580206205633308"><ele>453.0</ele><time>2026-04-05T12:49:18Z</time></trkpt><trkpt lat="41.28895394049495" lon="14.580332969799478"><ele>456.0</ele><time>2026-04-05T12:49:19Z</time></trkpt><trkpt lat="41.2890493220626" lon="14.580416931656595"><ele>458.99999999999994</ele><time>2026-04-05T12:49:20Z</time></trkpt><trkpt lat="41.28916866497939" lon="14.580487927664466"><ele>461.99999999999994</ele><time>2026-04-05T12:49:21Z</time></trkpt><trkpt lat="41.28925946033605" lon="14.580560032611903"><ele>465.0</ele><time>2026-04-05T12:49:22Z</time></trkpt><trkpt lat="41.289329613698754" lon="14.580644206527412"><ele>468.0</ele><time>2026-04-05T12:49:23Z</time></trkpt><trkpt lat="41.289371662139594" lon="14.580771843505842"><ele>468.0</ele><time>2026-04-05T12:49:24Z</time></trkpt><trkpt lat="41.28937185480423" lon="14.580927297740296"><ele>468.0</ele><time>2026-04-05T12:49:25Z</time></trkpt><trkpt lat="41.28937902332477" lon="14.581085651563447"><ele>468.0</ele><time>2026-04-05T12:49:26Z</time></trkpt><trkpt lat="41.2893826285056" lon="14.58122589273451"><ele>468.0</ele><time>2026-04-05T12:49:27Z</time></trkpt><trkpt lat="41.289328368437594" lon="14.581365026780796"><ele>470.66666666666663</ele><time>2026-04-05T12:49:28Z</time></trkpt><trkpt lat="41.2892572008682" lon="14.581554738996507"><ele>473.3333333333333</ele><time>2026-04-05T12:49:29Z</time></trkpt><trkpt lat="41.28919162051032" lon="14.581757787914897"><ele>476.0</ele><time>2026-04-05T12:49:30Z</time></trkpt><trkpt lat="41.28916191128212" lon="14.581954569870083"><ele>477.8</ele><time>2026-04-05T12:49:31Z</time></trkpt><trkpt lat="41.28912951638948" lon="14.582135495799559"><ele>479.6</ele><time>2026-04-05T12:49:32Z</time></trkpt><trkpt lat="41.289105313129845" lon="14.582277551359352"><ele>481.4</ele><time>2026-04-05T12:49:33Z</time></trkpt><trkpt lat="41.28909378622835" lon="14.582402781654798"><ele>483.2</ele><time>2026-04-05T12:49:34Z</time></trkpt><trkpt lat="41.28911038208026" lon="14.582513316854481"><ele>485.0</ele><time>2026-04-05T12:49:35Z</time></trkpt><trkpt lat="41.289169072962515" lon="14.58261703276841"><ele>485.0</ele><time>2026-04-05T12:49:36Z</time></trkpt><trkpt lat="41.28927086940884" lon="14.582715333185952"><ele>485.0</ele><time>2026-04-05T12:49:37Z</time></trkpt><trkpt lat="41.28935367329891" lon="14.582857228195207"><ele>485.0</ele><time>2026-04-05T12:49:38Z</time></trkpt><trkpt lat="41.289391914204174" lon="14.583047611344961"><ele>485.0</ele><time>2026-04-05T12:49:39Z</time></trkpt><trkpt lat="41.28942888340078" lon="14.583227772980482"><ele>487.25</ele><time>2026-04-05T12:49:40Z</time></trkpt><trkpt lat="41.289480538705305" lon="14.583359399756274"><ele>489.5</ele><time>2026-04-05T12:49:41Z</time></trkpt><trkpt lat="41.28958124944714" lon="14.583419510999722"><ele>491.75</ele><time>2026-04-05T12:49:42Z</time></trkpt><trkpt lat="41.28971178044356" lon="14.583453445484063"><ele>494.0</ele><time>2026-04-05T12:49:43Z</time></trkpt><trkpt lat="41.28981943290133" lon="14.583488784543954"><ele>495.5</ele><time>2026-04-05T12:49:44Z</time></trkpt><trkpt lat="41.2898889996017" lon="14.583576992347762"><ele>497.0</ele><time>2026-04-05T12:49:45Z</time></trkpt><trkpt lat="41.28992355319343" lon="14.583732095707571"><ele>498.5</ele><time>2026-04-05T12:49:46Z</time></trkpt><trkpt lat="41.289961086589976" lon="14.583932032279252"><ele>500.0</ele><time>2026-04-05T12:49:47Z</time></trkpt><trkpt lat="41.289973116588016" lon="14.584175327154403"><ele>503.0</ele><time>2026-04-05T12:49:48Z</time></trkpt><trkpt lat="41.289996985610216" lon="14.584391137707836"><ele>506.0</ele><time>2026-04-05T12:49:49Z</time></trkpt><trkpt lat="41.29003369133014" lon="14.58461227710427"><ele>509.0</ele><time>2026-04-05T12:49:50Z</time></trkpt><trkpt lat="41.29008262952022" lon="14.58484409155248"><ele>511.3333333333333</ele><time>2026-04-05T12:49:51Z</time></trkpt><trkpt lat="41.29014189591223" lon="14.585074788208884"><ele>513.6666666666666</ele><time>2026-04-05T12:49:52Z</time></trkpt><trkpt lat="41.290198680944904" lon="14.585309784412942"><ele>516.0</ele><time>2026-04-05T12:49:53Z</time></trkpt><trkpt lat="41.29024227042629" lon="14.585530658492571"><ele>518.6666666666666</ele><time>2026-04-05T12:49:54Z</time></trkpt><trkpt lat="41.290266833512476" lon="14.585747546059979"><ele>521.3333333333333</ele><time>2026-04-05T12:49:55Z</time></trkpt><trkpt lat="41.29027659699084" lon="14.585951512339024"><ele>524.0</ele><time>2026-04-05T12:49:56Z</time></trkpt><trkpt lat="41.290300516897055" lon="14.58614494114229"><ele>525.0</ele><time>2026-04-05T12:49:57Z</time></trkpt><trkpt lat="41.29035052623984" lon="14.586323559440881"><ele>526.0</ele><time>2026-04-05T12:49:58Z</time></trkpt><trkpt lat="41.29043651131126" lon="14.586527507761364"><ele>527.0</ele><time>2026-04-05T12:49:59Z</time></trkpt><trkpt lat="41.29048761243961" lon="14.586751004145944"><ele>527.0</ele><time>2026-04-05T12:50:00Z</time></trkpt><trkpt lat="41.29055665347354" lon="14.586968583595642"><ele>527.0</ele><time>2026-04-05T12:50:00.999Z</time></trkpt><trkpt lat="41.290639506874285" lon="14.587172157207855"><ele>527.0</ele><time>2026-04-05T12:50:01.999Z</time></trkpt><trkpt lat="41.29071504958123" lon="14.587384932941044"><ele>533.0</ele><time>2026-04-05T12:50:02.999Z</time></trkpt><trkpt lat="41.29078061263627" lon="14.587602466051035"><ele>539.0</ele><time>2026-04-05T12:50:03.999Z</time></trkpt><trkpt lat="41.29084438378465" lon="14.587817501361126"><ele>545.0</ele><time>2026-04-05T12:50:04.999Z</time></trkpt><trkpt lat="41.2909145047482" lon="14.588008977827544"><ele>546.75</ele><time>2026-04-05T12:50:05.999Z</time></trkpt><trkpt lat="41.29096309817006" lon="14.58815105166154"><ele>548.5</ele><time>2026-04-05T12:50:06.999Z</time></trkpt><trkpt lat="41.29100870817549" lon="14.588301119456517"><ele>550.25</ele><time>2026-04-05T12:50:07.999Z</time></trkpt><trkpt lat="41.29106041866314" lon="14.588449914095781"><ele>552.0</ele><time>2026-04-05T12:50:08.999Z</time></trkpt><trkpt lat="41.29110835808244" lon="14.588595588192394"><ele>553.5</ele><time>2026-04-05T12:50:09.999Z</time></trkpt><trkpt lat="41.291136294284584" lon="14.588758609999417"><ele>555.0</ele><time>2026-04-05T12:50:10.999Z</time></trkpt><trkpt lat="41.29119449060315" lon="14.588916527507113"><ele>556.5</ele><time>2026-04-05T12:50:11.999Z</time></trkpt><trkpt lat="41.291267650165196" lon="14.589073452789995"><ele>558.0</ele><time>2026-04-05T12:50:12.999Z</time></trkpt><trkpt lat="41.29133516499478" lon="14.58924086643229"><ele>558.0</ele><time>2026-04-05T12:50:13.999Z</time></trkpt><trkpt lat="41.29139806644231" lon="14.589405551833655"><ele>558.0</ele><time>2026-04-05T12:50:14.999Z</time></trkpt><trkpt lat="41.291467072198884" lon="14.589588034311234"><ele>558.0</ele><time>2026-04-05T12:50:15.999Z</time></trkpt><trkpt lat="41.29153024628872" lon="14.589774197529376"><ele>558.0</ele><time>2026-04-05T12:50:16.999Z</time></trkpt><trkpt lat="41.29161575029408" lon="14.589957967008747"><ele>562.3333333333334</ele><time>2026-04-05T12:50:17.999Z</time></trkpt><trkpt lat="41.29175381216601" lon="14.590098471219441"><ele>566.6666666666667</ele><time>2026-04-05T12:50:18.999Z</time></trkpt><trkpt lat="41.29189568599959" lon="14.590238541626668"><ele>571.0</ele><time>2026-04-05T12:50:19.999Z</time></trkpt><trkpt lat="41.292054342717634" lon="14.590406906504247"><ele>574.0</ele><time>2026-04-05T12:50:20.999Z</time></trkpt><trkpt lat="41.292213480628924" lon="14.590551306591324"><ele>577.0</ele><time>2026-04-05T12:50:21.999Z</time></trkpt><trkpt lat="41.29233462907877" lon="14.590674110685063"><ele>580.0</ele><time>2026-04-05T12:50:22.999Z</time></trkpt><trkpt lat="41.292413721904744" lon="14.590803971892552"><ele>580.5</ele><time>2026-04-05T12:50:23.999Z</time></trkpt><trkpt lat="41.292452773908" lon="14.5909536375525"><ele>581.0</ele><time>2026-04-05T12:50:24.999Z</time></trkpt><trkpt lat="41.29246577270277" lon="14.591153686496755"><ele>581.5</ele><time>2026-04-05T12:50:25.999Z</time></trkpt><trkpt lat="41.29246412761776" lon="14.59136908699566"><ele>582.0</ele><time>2026-04-05T12:50:26.999Z</time></trkpt><trkpt lat="41.29247229045887" lon="14.591590977917141"><ele>584.5</ele><time>2026-04-05T12:50:27.999Z</time></trkpt><trkpt lat="41.29246086912659" lon="14.591793850152001"><ele>587.0</ele><time>2026-04-05T12:50:28.999Z</time></trkpt><trkpt lat="41.29246479847197" lon="14.591986377414658"><ele>589.5</ele><time>2026-04-05T12:50:29.999Z</time></trkpt><trkpt lat="41.29251397023789" lon="14.592154847174287"><ele>592.0</ele><time>2026-04-05T12:50:30.999Z</time></trkpt><trkpt lat="41.29261749791842" lon="14.592312251317715"><ele>595.6666666666667</ele><time>2026-04-05T12:50:31.999Z</time></trkpt><trkpt lat="41.29275215204331" lon="14.592464415162214"><ele>599.3333333333334</ele><time>2026-04-05T12:50:32.999Z</time></trkpt><trkpt lat="41.29285762902575" lon="14.59264582699106"><ele>603.0</ele><time>2026-04-05T12:50:33.999Z</time></trkpt><trkpt lat="41.29297846444409" lon="14.592806946604764"><ele>605.5</ele><time>2026-04-05T12:50:34.999Z</time></trkpt><trkpt lat="41.293036659426456" lon="14.592985850706544"><ele>608.0</ele><time>2026-04-05T12:50:35.999Z</time></trkpt><trkpt lat="41.293066918269474" lon="14.593170263384836"><ele>610.5</ele><time>2026-04-05T12:50:36.999Z</time></trkpt><trkpt lat="41.2930719419728" lon="14.593372562467065"><ele>613.0</ele><time>2026-04-05T12:50:37.999Z</time></trkpt><trkpt lat="41.29301476326987" lon="14.593580324351061"><ele>616.0</ele><time>2026-04-05T12:50:38.999Z</time></trkpt><trkpt lat="41.29297392243548" lon="14.593794884223286"><ele>619.0</ele><time>2026-04-05T12:50:39.999Z</time></trkpt><trkpt lat="41.292928875128226" lon="14.594011412129696"><ele>622.0</ele><time>2026-04-05T12:50:40.999Z</time></trkpt><trkpt lat="41.2928535328444" lon="14.59422017207136"><ele>622.0</ele><time>2026-04-05T12:50:41.999Z</time></trkpt><trkpt lat="41.29274871382424" lon="14.594409436234619"><ele>622.0</ele><time>2026-04-05T12:50:42.999Z</time></trkpt><trkpt lat="41.292643881107814" lon="14.594621190651367"><ele>622.0</ele><time>2026-04-05T12:50:43.999Z</time></trkpt><trkpt lat="41.29253129158244" lon="14.59484396123084"><ele>625.0</ele><time>2026-04-05T12:50:44.999Z</time></trkpt><trkpt lat="41.292416254490576" lon="14.595094070995204"><ele>628.0</ele><time>2026-04-05T12:50:45.999Z</time></trkpt><trkpt lat="41.29229608396316" lon="14.595333952104882"><ele>631.0</ele><time>2026-04-05T12:50:46.999Z</time></trkpt><trkpt lat="41.29217001777575" lon="14.595602363200472"><ele>633.0</ele><time>2026-04-05T12:50:47.999Z</time></trkpt><trkpt lat="41.29205096624822" lon="14.595866437507077"><ele>635.0</ele><time>2026-04-05T12:50:48.999Z</time></trkpt><trkpt lat="41.29192774535882" lon="14.596153509027637"><ele>639.5</ele><time>2026-04-05T12:50:49.999Z</time></trkpt><trkpt lat="41.29182470510791" lon="14.59644190563104"><ele>644.0</ele><time>2026-04-05T12:50:50.999Z</time></trkpt><trkpt lat="41.29174188166879" lon="14.596731468316346"><ele>647.5</ele><time>2026-04-05T12:50:52.001Z</time></trkpt><trkpt lat="41.291662847475315" lon="14.597019949930937"><ele>651.0</ele><time>2026-04-05T12:50:53.001Z</time></trkpt><trkpt lat="41.29158180085684" lon="14.597304328622183"><ele>651.0</ele><time>2026-04-05T12:50:54.001Z</time></trkpt><trkpt lat="41.29149210744783" lon="14.597579761307625"><ele>651.0</ele><time>2026-04-05T12:50:55.001Z</time></trkpt><trkpt lat="41.29139585218608" lon="14.597847488173514"><ele>651.0</ele><time>2026-04-05T12:50:56.001Z</time></trkpt><trkpt lat="41.29129771340496" lon="14.598109665002948"><ele>652.0</ele><time>2026-04-05T12:50:57Z</time></trkpt><trkpt lat="41.291198960184325" lon="14.598358067328943"><ele>653.0</ele><time>2026-04-05T12:50:58Z</time></trkpt><trkpt lat="41.2910808635937" lon="14.598597637938186"><ele>654.0</ele><time>2026-04-05T12:50:59Z</time></trkpt><trkpt lat="41.290955004390995" lon="14.59882850968121"><ele>657.6666666666666</ele><time>2026-04-05T12:51:00Z</time></trkpt><trkpt lat="41.290815484664385" lon="14.599055534736957"><ele>661.3333333333333</ele><time>2026-04-05T12:51:01Z</time></trkpt><trkpt lat="41.29069332055783" lon="14.599281122632966"><ele>665.0</ele><time>2026-04-05T12:51:02Z</time></trkpt><trkpt lat="41.29059163872341" lon="14.599489544660681"><ele>666.75</ele><time>2026-04-05T12:51:03Z</time></trkpt><trkpt lat="41.29050038516157" lon="14.599665691733616"><ele>668.5</ele><time>2026-04-05T12:51:04Z</time></trkpt><trkpt lat="41.29045355140125" lon="14.599833733312353"><ele>670.25</ele><time>2026-04-05T12:51:05Z</time></trkpt><trkpt lat="41.290454054743826" lon="14.600034168149971"><ele>672.0</ele><time>2026-04-05T12:51:06Z</time></trkpt><trkpt lat="41.290501502920655" lon="14.600263149195706"><ele>675.6666666666666</ele><time>2026-04-05T12:51:07Z</time></trkpt><trkpt lat="41.290580471466996" lon="14.600504868666132"><ele>679.3333333333333</ele><time>2026-04-05T12:51:08Z</time></trkpt><trkpt lat="41.290643131534296" lon="14.600749850622147"><ele>683.0</ele><time>2026-04-05T12:51:09Z</time></trkpt><trkpt lat="41.2907088378086" lon="14.60097212380989"><ele>689.0</ele><time>2026-04-05T12:51:10Z</time></trkpt><trkpt lat="41.290767206550285" lon="14.601186373414958"><ele>695.0</ele><time>2026-04-05T12:51:11Z</time></trkpt><trkpt lat="41.290799692862834" lon="14.60140804110311"><ele>701.0</ele><time>2026-04-05T12:51:12Z</time></trkpt><trkpt lat="41.29079950233841" lon="14.601676129172915"><ele>701.0</ele><time>2026-04-05T12:51:13Z</time></trkpt><trkpt lat="41.2907651444043" lon="14.60193766600278"><ele>701.0</ele><time>2026-04-05T12:51:14Z</time></trkpt><trkpt lat="41.290712617026614" lon="14.602208183711042"><ele>701.0</ele><time>2026-04-05T12:51:15Z</time></trkpt><trkpt lat="41.290652412801684" lon="14.602470769142768"><ele>703.3333333333333</ele><time>2026-04-05T12:51:16Z</time></trkpt><trkpt lat="41.29058355873925" lon="14.60273705155135"><ele>705.6666666666666</ele><time>2026-04-05T12:51:17Z</time></trkpt><trkpt lat="41.290475297636696" lon="14.602999991954867"><ele>708.0</ele><time>2026-04-05T12:51:18Z</time></trkpt><trkpt lat="41.29034815125116" lon="14.603244718702275"><ele>713.3333333333334</ele><time>2026-04-05T12:51:19Z</time></trkpt><trkpt lat="41.290221863141454" lon="14.603450237485099"><ele>718.6666666666667</ele><time>2026-04-05T12:51:20Z</time></trkpt><trkpt lat="41.290089471641565" lon="14.60363814586144"><ele>724.0</ele><time>2026-04-05T12:51:21Z</time></trkpt><trkpt lat="41.289930349293854" lon="14.603760706403529"><ele>729.0</ele><time>2026-04-05T12:51:22Z</time></trkpt><trkpt lat="41.28976402101298" lon="14.60387499820592"><ele>734.0</ele><time>2026-04-05T12:51:23Z</time></trkpt><trkpt lat="41.28960738121105" lon="14.603984526346881"><ele>739.0</ele><time>2026-04-05T12:51:24Z</time></trkpt><trkpt lat="41.28946218190734" lon="14.604064215234505"><ele>739.3333333333334</ele><time>2026-04-05T12:51:25Z</time></trkpt><trkpt lat="41.28931591289673" lon="14.604196728873156"><ele>739.6666666666666</ele><time>2026-04-05T12:51:26Z</time></trkpt><trkpt lat="41.28919609855445" lon="14.604386676380573"><ele>740.0</ele><time>2026-04-05T12:51:27Z</time></trkpt><trkpt lat="41.28910117905959" lon="14.604614212151377"><ele>743.3333333333333</ele><time>2026-04-05T12:51:28Z</time></trkpt><trkpt lat="41.28900833597917" lon="14.604861561097362"><ele>746.6666666666666</ele><time>2026-04-05T12:51:29Z</time></trkpt><trkpt lat="41.288904004232116" lon="14.60510893053807"><ele>750.0</ele><time>2026-04-05T12:51:30Z</time></trkpt><trkpt lat="41.28878950751566" lon="14.605356388555236"><ele>754.3333333333334</ele><time>2026-04-05T12:51:31Z</time></trkpt><trkpt lat="41.28864291214328" lon="14.60557044217272"><ele>758.6666666666667</ele><time>2026-04-05T12:51:32Z</time></trkpt><trkpt lat="41.28849465534344" lon="14.605770866201768"><ele>763.0</ele><time>2026-04-05T12:51:33Z</time></trkpt><trkpt lat="41.28836811570301" lon="14.605996221440025"><ele>766.6666666666667</ele><time>2026-04-05T12:51:34Z</time></trkpt><trkpt lat="41.28824526874789" lon="14.606231302011693"><ele>770.3333333333334</ele><time>2026-04-05T12:51:35Z</time></trkpt><trkpt lat="41.28812906904295" lon="14.606486990799668"><ele>774.0</ele><time>2026-04-05T12:51:36Z</time></trkpt><trkpt lat="41.28803297933621" lon="14.60675345509676"><ele>778.6666666666667</ele><time>2026-04-05T12:51:37Z</time></trkpt><trkpt lat="41.28793535067398" lon="14.607017657626997"><ele>783.3333333333334</ele><time>2026-04-05T12:51:38Z</time></trkpt><trkpt lat="41.2878073748918" lon="14.607222580641025"><ele>788.0</ele><time>2026-04-05T12:51:39Z</time></trkpt><trkpt lat="41.28765719302778" lon="14.607383327285062"><ele>788.0</ele><time>2026-04-05T12:51:40Z</time></trkpt><trkpt lat="41.28751987383902" lon="14.607514746283842"><ele>788.0</ele><time>2026-04-05T12:51:41Z</time></trkpt><trkpt lat="41.28743285207128" lon="14.607642375233192"><ele>788.0</ele><time>2026-04-05T12:51:42Z</time></trkpt><trkpt lat="41.2874041316657" lon="14.607812448199988"><ele>788.0</ele><time>2026-04-05T12:51:43Z</time></trkpt><trkpt lat="41.28741650216957" lon="14.6080319971135"><ele>791.0</ele><time>2026-04-05T12:51:44Z</time></trkpt><trkpt lat="41.28744613653388" lon="14.608274431457113"><ele>794.0</ele><time>2026-04-05T12:51:45Z</time></trkpt><trkpt lat="41.287464862405166" lon="14.60849589377895"><ele>797.0</ele><time>2026-04-05T12:51:46Z</time></trkpt><trkpt lat="41.28745458624571" lon="14.608694996846022"><ele>799.3333333333334</ele><time>2026-04-05T12:51:47Z</time></trkpt><trkpt lat="41.28738052895422" lon="14.60887150258571"><ele>801.6666666666667</ele><time>2026-04-05T12:51:48Z</time></trkpt><trkpt lat="41.28729826268748" lon="14.6090732619881"><ele>804.0</ele><time>2026-04-05T12:51:49Z</time></trkpt><trkpt lat="41.287208965440264" lon="14.609306440212725"><ele>808.3333333333333</ele><time>2026-04-05T12:51:50Z</time></trkpt><trkpt lat="41.28709407964522" lon="14.609538773340404"><ele>812.6666666666666</ele><time>2026-04-05T12:51:51Z</time></trkpt><trkpt lat="41.28698285902584" lon="14.609783903477886"><ele>817.0</ele><time>2026-04-05T12:51:52Z</time></trkpt><trkpt lat="41.28687828425513" lon="14.610031628131503"><ele>817.0</ele><time>2026-04-05T12:51:53Z</time></trkpt><trkpt lat="41.28678188562312" lon="14.610272795670136"><ele>817.0</ele><time>2026-04-05T12:51:54Z</time></trkpt><trkpt lat="41.28668721746261" lon="14.610499579680996"><ele>817.0</ele><time>2026-04-05T12:51:55Z</time></trkpt><trkpt lat="41.28659572363391" lon="14.610732055646032"><ele>821.6666666666666</ele><time>2026-04-05T12:51:56Z</time></trkpt><trkpt lat="41.28650364058384" lon="14.61097558684356"><ele>826.3333333333333</ele><time>2026-04-05T12:51:57Z</time></trkpt><trkpt lat="41.286416470673736" lon="14.611200799575926"><ele>831.0</ele><time>2026-04-05T12:51:58Z</time></trkpt><trkpt lat="41.28634024843761" lon="14.611396405331522"><ele>831.0</ele><time>2026-04-05T12:51:59Z</time></trkpt><trkpt lat="41.28627748788562" lon="14.611555525612761"><ele>831.0</ele><time>2026-04-05T12:52:00Z</time></trkpt><trkpt lat="41.286224004899346" lon="14.611697325497483"><ele>831.0</ele><time>2026-04-05T12:52:00.999Z</time></trkpt><trkpt lat="41.28617993838459" lon="14.611817006760687"><ele>831.0</ele><time>2026-04-05T12:52:01.999Z</time></trkpt><trkpt lat="41.286152322787544" lon="14.611919179857647"><ele>831.0</ele><time>2026-04-05T12:52:02.999Z</time></trkpt><trkpt lat="41.2861408209236" lon="14.6120080262102"><ele>832.1999999999999</ele><time>2026-04-05T12:52:03.999Z</time></trkpt><trkpt lat="41.286137203755864" lon="14.612125858317311"><ele>833.4</ele><time>2026-04-05T12:52:05.999Z</time></trkpt><trkpt lat="41.286150484340645" lon="14.612212948253015"><ele>834.6</ele><time>2026-04-05T12:52:52.999Z</time></trkpt><trkpt lat="41.28614610645329" lon="14.61239511928231"><ele>835.8</ele><time>2026-04-05T12:52:54.999Z</time></trkpt><trkpt lat="41.28616623421462" lon="14.612505381074751"><ele>837.0</ele><time>2026-04-05T12:52:55.999Z</time></trkpt><trkpt lat="41.286171482834796" lon="14.612628870583181"><ele>837.0</ele><time>2026-04-05T12:52:56.999Z</time></trkpt><trkpt lat="41.28617579552608" lon="14.6127662053209"><ele>837.0</ele><time>2026-04-05T12:52:58Z</time></trkpt><trkpt lat="41.286189115065675" lon="14.612924423048359"><ele>837.0</ele><time>2026-04-05T12:52:59Z</time></trkpt><trkpt lat="41.286212319826696" lon="14.613082295011367"><ele>837.0</ele><time>2026-04-05T12:53:00Z</time></trkpt><trkpt lat="41.28625374964842" lon="14.61323612084656"><ele>838.75</ele><time>2026-04-05T12:53:01Z</time></trkpt><trkpt lat="41.286327943459135" lon="14.613372396816928"><ele>840.5</ele><time>2026-04-05T12:53:02Z</time></trkpt><trkpt lat="41.28643692115098" lon="14.613473509839883"><ele>842.25</ele><time>2026-04-05T12:53:03Z</time></trkpt><trkpt lat="41.286588668523" lon="14.613566467049253"><ele>844.0</ele><time>2026-04-05T12:53:04Z</time></trkpt><trkpt lat="41.28675343310339" lon="14.613715180669434"><ele>848.3333333333333</ele><time>2026-04-05T12:53:05Z</time></trkpt><trkpt lat="41.28689652074593" lon="14.613863533765294"><ele>852.6666666666667</ele><time>2026-04-05T12:53:06Z</time></trkpt><trkpt lat="41.28703756553758" lon="14.614028064323072"><ele>857.0</ele><time>2026-04-05T12:53:07Z</time></trkpt><trkpt lat="41.28720032880842" lon="14.61420736171382"><ele>861.6666666666667</ele><time>2026-04-05T12:53:08Z</time></trkpt><trkpt lat="41.28732411559057" lon="14.61442367615234"><ele>866.3333333333333</ele><time>2026-04-05T12:53:09Z</time></trkpt><trkpt lat="41.287450395713975" lon="14.614642270867602"><ele>871.0</ele><time>2026-04-05T12:53:10Z</time></trkpt><trkpt lat="41.28756118462478" lon="14.614838285715996"><ele>871.3333333333333</ele><time>2026-04-05T12:53:11Z</time></trkpt><trkpt lat="41.28766997469227" lon="14.615004813386177"><ele>871.6666666666667</ele><time>2026-04-05T12:53:12Z</time></trkpt><trkpt lat="41.287798325648374" lon="14.615173526802145"><ele>872.0</ele><time>2026-04-05T12:53:13Z</time></trkpt><trkpt lat="41.287939609238855" lon="14.615343784828319"><ele>871.0</ele><time>2026-04-05T12:53:14Z</time></trkpt><trkpt lat="41.2880885227874" lon="14.615512976767052"><ele>870.0</ele><time>2026-04-05T12:53:15Z</time></trkpt><trkpt lat="41.288223490589765" lon="14.61568957017895"><ele>869.0</ele><time>2026-04-05T12:53:16Z</time></trkpt><trkpt lat="41.28833732149131" lon="14.615902186505968"><ele>874.0</ele><time>2026-04-05T12:53:17Z</time></trkpt><trkpt lat="41.28844042690229" lon="14.616125130912563"><ele>879.0</ele><time>2026-04-05T12:53:18Z</time></trkpt><trkpt lat="41.28854420566691" lon="14.61635716092654"><ele>884.0</ele><time>2026-04-05T12:53:19Z</time></trkpt><trkpt lat="41.2886457969981" lon="14.616586256118872"><ele>884.0</ele><time>2026-04-05T12:53:20Z</time></trkpt><trkpt lat="41.28874985495233" lon="14.616824794307377"><ele>884.0</ele><time>2026-04-05T12:53:21Z</time></trkpt><trkpt lat="41.28884841301844" lon="14.617050724660107"><ele>884.0</ele><time>2026-04-05T12:53:22Z</time></trkpt><trkpt lat="41.288926348986166" lon="14.617229381797541"><ele>888.0</ele><time>2026-04-05T12:53:23Z</time></trkpt><trkpt lat="41.28904556931347" lon="14.617471622095097"><ele>892.0</ele><time>2026-04-05T12:53:25Z</time></trkpt><trkpt lat="41.28907900230378" lon="14.617605396359366"><ele>896.0</ele><time>2026-04-05T12:53:27Z</time></trkpt><trkpt lat="41.288937893962704" lon="14.617711097466097"><ele>893.5000000000001</ele><time>2026-04-05T12:54:21.999Z</time></trkpt><trkpt lat="41.288890296146285" lon="14.617777740820848"><ele>891.0</ele><time>2026-04-05T12:54:22.999Z</time></trkpt><trkpt lat="41.28884452374977" lon="14.617858204790068"><ele>888.5</ele><time>2026-04-05T12:54:23.999Z</time></trkpt><trkpt lat="41.28878566027637" lon="14.617922422742543"><ele>886.0</ele><time>2026-04-05T12:54:24.999Z</time></trkpt><trkpt lat="41.288713920969684" lon="14.618007880665056"><ele>883.5000000000001</ele><time>2026-04-05T12:54:25.999Z</time></trkpt><trkpt lat="41.28862747464378" lon="14.618113944336303"><ele>881.0</ele><time>2026-04-05T12:54:26.999Z</time></trkpt><trkpt lat="41.28855011805021" lon="14.618193559990603"><ele>879.5999999999999</ele><time>2026-04-05T12:54:27.999Z</time></trkpt><trkpt lat="41.288476901772405" lon="14.61827285532229"><ele>878.1999999999999</ele><time>2026-04-05T12:54:28.999Z</time></trkpt><trkpt lat="41.28839292040183" lon="14.618350336678303"><ele>876.8000000000001</ele><time>2026-04-05T12:54:29.999Z</time></trkpt><trkpt lat="41.288310382470236" lon="14.618428237137936"><ele>875.4000000000001</ele><time>2026-04-05T12:54:30.999Z</time></trkpt><trkpt lat="41.28821511618679" lon="14.618500136612079"><ele>874.0</ele><time>2026-04-05T12:54:31.999Z</time></trkpt><trkpt lat="41.288125087963266" lon="14.618558863259194"><ele>872.4000000000001</ele><time>2026-04-05T12:54:32.999Z</time></trkpt><trkpt lat="41.28803408832101" lon="14.61862440346412"><ele>870.8000000000001</ele><time>2026-04-05T12:54:33.999Z</time></trkpt><trkpt lat="41.28793872482837" lon="14.618683584241662"><ele>869.1999999999999</ele><time>2026-04-05T12:54:34.999Z</time></trkpt><trkpt lat="41.28783137134396" lon="14.618706351811724"><ele>867.5999999999999</ele><time>2026-04-05T12:54:35.999Z</time></trkpt><trkpt lat="41.287706110801125" lon="14.618754952407635"><ele>866.0</ele><time>2026-04-05T12:54:36.999Z</time></trkpt><trkpt lat="41.28757425760823" lon="14.618768657852335"><ele>865.8</ele><time>2026-04-05T12:54:37.999Z</time></trkpt><trkpt lat="41.287460619772396" lon="14.618790220394942"><ele>865.5999999999999</ele><time>2026-04-05T12:54:38.999Z</time></trkpt><trkpt lat="41.287356565286196" lon="14.618815853775013"><ele>865.4</ele><time>2026-04-05T12:54:39.999Z</time></trkpt><trkpt lat="41.28726605899708" lon="14.618836301795493"><ele>865.2</ele><time>2026-04-05T12:54:40.999Z</time></trkpt><trkpt lat="41.28717121131796" lon="14.618858523948264"><ele>865.0</ele><time>2026-04-05T12:54:41.999Z</time></trkpt><trkpt lat="41.28710739341981" lon="14.61888983195486"><ele>865.0</ele><time>2026-04-05T12:54:42.999Z</time></trkpt><trkpt lat="41.28701738305667" lon="14.619002453616638"><ele>865.0</ele><time>2026-04-05T12:54:44.999Z</time></trkpt><trkpt lat="41.28699424822297" lon="14.61908122440454"><ele>865.0</ele><time>2026-04-05T12:54:45.999Z</time></trkpt><trkpt lat="41.28698500460076" lon="14.619264308785382"><ele>865.0</ele><time>2026-04-05T12:54:47.999Z</time></trkpt><trkpt lat="41.28699717868979" lon="14.619385995906578"><ele>865.0</ele><time>2026-04-05T12:54:48.999Z</time></trkpt><trkpt lat="41.287000925734304" lon="14.619513913371772"><ele>863.4</ele><time>2026-04-05T12:54:49.999Z</time></trkpt><trkpt lat="41.28699783326075" lon="14.619638719030773"><ele>861.8</ele><time>2026-04-05T12:54:50.999Z</time></trkpt><trkpt lat="41.28699702090265" lon="14.619770937952325"><ele>860.2</ele><time>2026-04-05T12:54:51.999Z</time></trkpt><trkpt lat="41.28699606056139" lon="14.619909646432898"><ele>858.6</ele><time>2026-04-05T12:54:52.999Z</time></trkpt><trkpt lat="41.28699467217133" lon="14.620049682461993"><ele>857.0</ele><time>2026-04-05T12:54:53.999Z</time></trkpt><trkpt lat="41.28699356438631" lon="14.620176623396144"><ele>857.0</ele><time>2026-04-05T12:54:54.999Z</time></trkpt><trkpt lat="41.28699215651703" lon="14.620308552921792"><ele>857.0</ele><time>2026-04-05T12:54:55.999Z</time></trkpt><trkpt lat="41.28698321757262" lon="14.620463006635402"><ele>857.0</ele><time>2026-04-05T12:54:56.999Z</time></trkpt><trkpt lat="41.28697344910757" lon="14.620598199066702"><ele>857.0</ele><time>2026-04-05T12:54:57.999Z</time></trkpt><trkpt lat="41.2869706547968" lon="14.620726762178183"><ele>857.0</ele><time>2026-04-05T12:54:58.999Z</time></trkpt><trkpt lat="41.28696686555121" lon="14.620834975504991"><ele>855.5000000000001</ele><time>2026-04-05T12:54:59.999Z</time></trkpt><trkpt lat="41.28695431774509" lon="14.620975881793681"><ele>854.0</ele><time>2026-04-05T12:55:01.999Z</time></trkpt><trkpt lat="41.28694803739526" lon="14.621078445508411"><ele>852.5</ele><time>2026-04-05T12:55:03.999Z</time></trkpt><trkpt lat="41.28694256972849" lon="14.621171055862455"><ele>851.0</ele><time>2026-04-05T12:55:06.999Z</time></trkpt><trkpt lat="41.286940325008565" lon="14.621301170795686"><ele>849.5000000000001</ele><time>2026-04-05T12:55:29Z</time></trkpt><trkpt lat="41.2869372889809" lon="14.621399880101503"><ele>848.0</ele><time>2026-04-05T12:55:30Z</time></trkpt><trkpt lat="41.28692840002876" lon="14.621520782865838"><ele>846.4</ele><time>2026-04-05T12:55:31Z</time></trkpt><trkpt lat="41.28692595231359" lon="14.621649437562755"><ele>844.8</ele><time>2026-04-05T12:55:32Z</time></trkpt><trkpt lat="41.286915766340805" lon="14.621774707933792"><ele>843.2</ele><time>2026-04-05T12:55:33Z</time></trkpt><trkpt lat="41.286903179935834" lon="14.621898187060449"><ele>841.6</ele><time>2026-04-05T12:55:34Z</time></trkpt><trkpt lat="41.28688182411966" lon="14.62201696842332"><ele>840.0</ele><time>2026-04-05T12:55:35Z</time></trkpt><trkpt lat="41.286859771604426" lon="14.622127028565387"><ele>838.6</ele><time>2026-04-05T12:55:36Z</time></trkpt><trkpt lat="41.286844984445956" lon="14.622242930873536"><ele>837.2</ele><time>2026-04-05T12:55:37Z</time></trkpt><trkpt lat="41.2868346829144" lon="14.622374134595503"><ele>835.8</ele><time>2026-04-05T12:55:38Z</time></trkpt><trkpt lat="41.28682293753322" lon="14.622505745113353"><ele>834.4</ele><time>2026-04-05T12:55:39Z</time></trkpt><trkpt lat="41.28680660193391" lon="14.622613082380646"><ele>833.0</ele><time>2026-04-05T12:55:40Z</time></trkpt><trkpt lat="41.2867870742728" lon="14.622723319069618"><ele>831.5999999999999</ele><time>2026-04-05T12:55:41Z</time></trkpt><trkpt lat="41.286774134182586" lon="14.622841588109713"><ele>830.1999999999999</ele><time>2026-04-05T12:55:42Z</time></trkpt><trkpt lat="41.28676100404163" lon="14.622956528607409"><ele>828.8</ele><time>2026-04-05T12:55:42.999Z</time></trkpt><trkpt lat="41.286751676813374" lon="14.6230608198851"><ele>827.4</ele><time>2026-04-05T12:55:43.999Z</time></trkpt><trkpt lat="41.2867338205709" lon="14.623179614617237"><ele>826.0</ele><time>2026-04-05T12:55:44.999Z</time></trkpt><trkpt lat="41.28669706898192" lon="14.623309473810112"><ele>825.9999999999999</ele><time>2026-04-05T12:55:45.999Z</time></trkpt><trkpt lat="41.286662732844476" lon="14.623420107488757"><ele>826.0</ele><time>2026-04-05T12:55:46.999Z</time></trkpt><trkpt lat="41.28663732003347" lon="14.623515428445524"><ele>826.0</ele><time>2026-04-05T12:55:47.999Z</time></trkpt><trkpt lat="41.28662927162364" lon="14.623680523284587"><ele>826.0</ele><time>2026-04-05T12:55:49.999Z</time></trkpt><trkpt lat="41.28665055612358" lon="14.623766570139892"><ele>825.9999999999999</ele><time>2026-04-05T12:55:50.999Z</time></trkpt><trkpt lat="41.2865818839271" lon="14.623785033364221"><ele>826.0</ele><time>2026-04-05T12:55:55.999Z</time></trkpt><trkpt lat="41.28655162601538" lon="14.623884894852882"><ele>824.8333333333333</ele><time>2026-04-05T12:55:57.999Z</time></trkpt><trkpt lat="41.28654517089794" lon="14.623997162869044"><ele>823.6666666666666</ele><time>2026-04-05T12:55:58.999Z</time></trkpt><trkpt lat="41.286538515639414" lon="14.624105693719214"><ele>822.5</ele><time>2026-04-05T12:55:59.999Z</time></trkpt><trkpt lat="41.286529631088065" lon="14.624215088162275"><ele>821.3333333333333</ele><time>2026-04-05T12:56:00.999Z</time></trkpt><trkpt lat="41.286510452695794" lon="14.62432316498245"><ele>820.1666666666666</ele><time>2026-04-05T12:56:01.999Z</time></trkpt><trkpt lat="41.286489516904524" lon="14.624437402856346"><ele>819.0</ele><time>2026-04-05T12:56:02.999Z</time></trkpt><trkpt lat="41.28646938638852" lon="14.624554403918767"><ele>817.4000000000001</ele><time>2026-04-05T12:56:03.999Z</time></trkpt><trkpt lat="41.28644852837182" lon="14.624674216425747"><ele>815.8</ele><time>2026-04-05T12:56:04.999Z</time></trkpt><trkpt lat="41.286429937464874" lon="14.624790419683531"><ele>814.2</ele><time>2026-04-05T12:56:05.999Z</time></trkpt><trkpt lat="41.286405896474285" lon="14.624936852971508"><ele>812.5999999999999</ele><time>2026-04-05T12:56:06.999Z</time></trkpt><trkpt lat="41.28638772187854" lon="14.625077116765745"><ele>811.0</ele><time>2026-04-05T12:56:07.999Z</time></trkpt><trkpt lat="41.28636684773205" lon="14.625199446608935"><ele>810.8333333333333</ele><time>2026-04-05T12:56:08.999Z</time></trkpt><trkpt lat="41.28634737771597" lon="14.625303943601152"><ele>810.6666666666666</ele><time>2026-04-05T12:56:09.999Z</time></trkpt><trkpt lat="41.286329193178574" lon="14.625387552071748"><ele>810.5</ele><time>2026-04-05T12:56:10.999Z</time></trkpt><trkpt lat="41.28633328334365" lon="14.625491121325249"><ele>810.3333333333333</ele><time>2026-04-05T12:56:12.999Z</time></trkpt><trkpt lat="41.28640030664852" lon="14.625540813578644"><ele>810.1666666666666</ele><time>2026-04-05T12:56:16.999Z</time></trkpt><trkpt lat="41.28644654420324" lon="14.625628315894105"><ele>810.0</ele><time>2026-04-05T12:56:19.999Z</time></trkpt><trkpt lat="41.28649924413523" lon="14.62568741992027"><ele>809.0</ele><time>2026-04-05T12:56:21.999Z</time></trkpt><trkpt lat="41.286601656332905" lon="14.625750396248257"><ele>808.0</ele><time>2026-04-05T12:56:23.999Z</time></trkpt><trkpt lat="41.286673392295405" lon="14.625814101168187"><ele>807.0</ele><time>2026-04-05T12:56:25.999Z</time></trkpt><trkpt lat="41.28675817240903" lon="14.625894214478505"><ele>806.0</ele><time>2026-04-05T12:56:27.999Z</time></trkpt><trkpt lat="41.28682488291165" lon="14.625979679168477"><ele>805.0</ele><time>2026-04-05T12:56:29.999Z</time></trkpt><trkpt lat="41.286844647540526" lon="14.626144291539184"><ele>804.1666666666666</ele><time>2026-04-05T12:56:31.999Z</time></trkpt><trkpt lat="41.286864584063416" lon="14.626234074096537"><ele>803.3333333333333</ele><time>2026-04-05T12:56:32.999Z</time></trkpt><trkpt lat="41.286919530109344" lon="14.626367165173251"><ele>802.5</ele><time>2026-04-05T12:56:34.999Z</time></trkpt><trkpt lat="41.28696252420268" lon="14.626433804315958"><ele>801.6666666666667</ele><time>2026-04-05T12:56:35.999Z</time></trkpt><trkpt lat="41.287008924108875" lon="14.626511316582237"><ele>800.8333333333334</ele><time>2026-04-05T12:56:36.999Z</time></trkpt><trkpt lat="41.28704645707817" lon="14.62658142088221"><ele>800.0</ele><time>2026-04-05T12:56:37.999Z</time></trkpt><trkpt lat="41.287071604459705" lon="14.626677067799003"><ele>800.0</ele><time>2026-04-05T12:56:39.999Z</time></trkpt><trkpt lat="41.28705754205005" lon="14.62681769860312"><ele>800.0</ele><time>2026-04-05T12:56:41.999Z</time></trkpt><trkpt lat="41.28707339468862" lon="14.626974410904266"><ele>800.0</ele><time>2026-04-05T12:56:43.999Z</time></trkpt><trkpt lat="41.287076119024874" lon="14.627144449682753"><ele>800.0</ele><time>2026-04-05T12:56:45.999Z</time></trkpt><trkpt lat="41.2870823392016" lon="14.62724424646195"><ele>800.0</ele><time>2026-04-05T12:56:46.999Z</time></trkpt><trkpt lat="41.287093742577916" lon="14.627356194290597"><ele>798.6666666666667</ele><time>2026-04-05T12:56:47.999Z</time></trkpt><trkpt lat="41.28710179841822" lon="14.62746233793345"><ele>797.3333333333334</ele><time>2026-04-05T12:56:48.999Z</time></trkpt><trkpt lat="41.287109496702136" lon="14.627550615458839"><ele>796.0</ele><time>2026-04-05T12:56:49.999Z</time></trkpt><trkpt lat="41.28711559657821" lon="14.627643102186488"><ele>794.6666666666667</ele><time>2026-04-05T12:56:50.999Z</time></trkpt><trkpt lat="41.287135893956844" lon="14.627783713320948"><ele>793.3333333333334</ele><time>2026-04-05T12:56:52.999Z</time></trkpt><trkpt lat="41.28716900279802" lon="14.627913369384327"><ele>792.0</ele><time>2026-04-05T12:56:54.999Z</time></trkpt><trkpt lat="41.287215860462084" lon="14.628051281500419"><ele>791.6</ele><time>2026-04-05T12:56:56.999Z</time></trkpt><trkpt lat="41.287282060945245" lon="14.628176519170584"><ele>791.2</ele><time>2026-04-05T12:56:58.999Z</time></trkpt><trkpt lat="41.28735644893004" lon="14.628273727060007"><ele>790.8</ele><time>2026-04-05T12:57:00.999Z</time></trkpt><trkpt lat="41.287408436542115" lon="14.628346742360835"><ele>790.4</ele><time>2026-04-05T12:57:03.999Z</time></trkpt><trkpt lat="41.287506023235395" lon="14.628467911978232"><ele>790.0</ele><time>2026-04-05T12:57:06.999Z</time></trkpt><trkpt lat="41.28756400787301" lon="14.628547758861686"><ele>788.8333333333333</ele><time>2026-04-05T12:57:07.999Z</time></trkpt><trkpt lat="41.28760680296047" lon="14.6286761686592"><ele>787.6666666666666</ele><time>2026-04-05T12:57:10Z</time></trkpt><trkpt lat="41.28763717837976" lon="14.62876841968654"><ele>786.5</ele><time>2026-04-05T12:57:11Z</time></trkpt><trkpt lat="41.28768739891279" lon="14.628908349675253"><ele>785.3333333333333</ele><time>2026-04-05T12:57:12Z</time></trkpt><trkpt lat="41.287720457490835" lon="14.62899033265341"><ele>784.1666666666666</ele><time>2026-04-05T12:57:13Z</time></trkpt><trkpt lat="41.28775945065266" lon="14.62907697001599"><ele>783.0</ele><time>2026-04-05T12:57:14Z</time></trkpt><trkpt lat="41.28779845638557" lon="14.629165475234606"><ele>783.0</ele><time>2026-04-05T12:57:15Z</time></trkpt><trkpt lat="41.28782838694922" lon="14.629248601758592"><ele>783.0</ele><time>2026-04-05T12:57:16Z</time></trkpt><trkpt lat="41.28786381983531" lon="14.629417765128318"><ele>783.0</ele><time>2026-04-05T12:57:18Z</time></trkpt><trkpt lat="41.28788021713454" lon="14.629508803237018"><ele>783.0</ele><time>2026-04-05T12:57:19Z</time></trkpt><trkpt lat="41.2878836875461" lon="14.629609955567034"><ele>783.0</ele><time>2026-04-05T12:57:20Z</time></trkpt><trkpt lat="41.28787772297259" lon="14.629701530915261"><ele>783.0</ele><time>2026-04-05T12:57:21Z</time></trkpt><trkpt lat="41.28785789761995" lon="14.629802275534965"><ele>781.3333333333334</ele><time>2026-04-05T12:57:22Z</time></trkpt><trkpt lat="41.28783981507633" lon="14.62990926388579"><ele>779.6666666666667</ele><time>2026-04-05T12:57:23Z</time></trkpt><trkpt lat="41.28781883481883" lon="14.630018337689583"><ele>778.0</ele><time>2026-04-05T12:57:24Z</time></trkpt><trkpt lat="41.28780033502213" lon="14.630131209154639"><ele>776.3333333333334</ele><time>2026-04-05T12:57:25Z</time></trkpt><trkpt lat="41.28778373016644" lon="14.63022893168293"><ele>774.6666666666667</ele><time>2026-04-05T12:57:26Z</time></trkpt><trkpt lat="41.28776879314164" lon="14.63031966308589"><ele>773.0</ele><time>2026-04-05T12:57:27Z</time></trkpt><trkpt lat="41.287747714312324" lon="14.630426140914054"><ele>771.6666666666667</ele><time>2026-04-05T12:57:28Z</time></trkpt><trkpt lat="41.28772896248782" lon="14.630535380958568"><ele>770.3333333333334</ele><time>2026-04-05T12:57:29Z</time></trkpt><trkpt lat="41.287714628689315" lon="14.63064890116881"><ele>769.0</ele><time>2026-04-05T12:57:30Z</time></trkpt><trkpt lat="41.28771128533617" lon="14.63076364400969"><ele>767.6666666666667</ele><time>2026-04-05T12:57:31Z</time></trkpt><trkpt lat="41.28772133782964" lon="14.63087590252933"><ele>766.3333333333334</ele><time>2026-04-05T12:57:32Z</time></trkpt><trkpt lat="41.28773659970459" lon="14.631004094526915"><ele>765.0</ele><time>2026-04-05T12:57:33Z</time></trkpt><trkpt lat="41.28774425435523" lon="14.631121938961469"><ele>763.8333333333334</ele><time>2026-04-05T12:57:34Z</time></trkpt><trkpt lat="41.28774949930194" lon="14.63123549736214"><ele>762.6666666666666</ele><time>2026-04-05T12:57:35Z</time></trkpt><trkpt lat="41.287755689000726" lon="14.631361806536912"><ele>761.5</ele><time>2026-04-05T12:57:36Z</time></trkpt><trkpt lat="41.28776137917039" lon="14.63145920278624"><ele>760.3333333333333</ele><time>2026-04-05T12:57:37Z</time></trkpt><trkpt lat="41.28776708920614" lon="14.631569087857375"><ele>759.1666666666666</ele><time>2026-04-05T12:57:38Z</time></trkpt><trkpt lat="41.287780286696275" lon="14.631670126048457"><ele>758.0</ele><time>2026-04-05T12:57:39Z</time></trkpt><trkpt lat="41.28779076750344" lon="14.631773308161007"><ele>758.0000000000001</ele><time>2026-04-05T12:57:40Z</time></trkpt><trkpt lat="41.28780159747631" lon="14.631876621770738"><ele>758.0</ele><time>2026-04-05T12:57:41Z</time></trkpt><trkpt lat="41.28780731304108" lon="14.631967310103258"><ele>758.0</ele><time>2026-04-05T12:57:42Z</time></trkpt><trkpt lat="41.287804190790226" lon="14.63205679399792"><ele>758.0</ele><time>2026-04-05T12:57:43Z</time></trkpt><trkpt lat="41.28779261421204" lon="14.632139957611585"><ele>758.0</ele><time>2026-04-05T12:57:44Z</time></trkpt><trkpt lat="41.28777574097773" lon="14.632229434702005"><ele>758.0000000000001</ele><time>2026-04-05T12:57:45Z</time></trkpt><trkpt lat="41.28776837339385" lon="14.632316182691332"><ele>758.0</ele><time>2026-04-05T12:57:46Z</time></trkpt><trkpt lat="41.28775718827486" lon="14.632409204814238"><ele>757.0</ele><time>2026-04-05T12:57:47Z</time></trkpt><trkpt lat="41.287737736531845" lon="14.632578308308638"><ele>756.0</ele><time>2026-04-05T12:57:49Z</time></trkpt><trkpt lat="41.28773415981212" lon="14.63267948591866"><ele>755.0</ele><time>2026-04-05T12:57:50Z</time></trkpt><trkpt lat="41.28772766739228" lon="14.632767402398079"><ele>754.0</ele><time>2026-04-05T12:57:51Z</time></trkpt><trkpt lat="41.28772164352836" lon="14.632918270042357"><ele>753.0</ele><time>2026-04-05T12:57:53Z</time></trkpt><trkpt lat="41.287721894088925" lon="14.633017184382075"><ele>752.0</ele><time>2026-04-05T12:57:54Z</time></trkpt><trkpt lat="41.287712233003965" lon="14.633106531814713"><ele>751.0</ele><time>2026-04-05T12:57:55Z</time></trkpt><trkpt lat="41.28769189645582" lon="14.633220532780964"><ele>750.0</ele><time>2026-04-05T12:57:56Z</time></trkpt><trkpt lat="41.28767077331591" lon="14.633329013830574"><ele>749.0</ele><time>2026-04-05T12:57:57Z</time></trkpt><trkpt lat="41.28765622106618" lon="14.633416670154476"><ele>748.0</ele><time>2026-04-05T12:57:58Z</time></trkpt><trkpt lat="41.287640504230204" lon="14.633514574201982"><ele>747.0</ele><time>2026-04-05T12:57:59Z</time></trkpt><trkpt lat="41.287631243019334" lon="14.633606484577603"><ele>745.5</ele><time>2026-04-05T12:58:00Z</time></trkpt><trkpt lat="41.28761658847723" lon="14.63371107082389"><ele>744.0</ele><time>2026-04-05T12:58:01Z</time></trkpt><trkpt lat="41.28760263153758" lon="14.633812140890962"><ele>742.5</ele><time>2026-04-05T12:58:02Z</time></trkpt><trkpt lat="41.28759387237088" lon="14.633911079758471"><ele>741.0</ele><time>2026-04-05T12:58:03Z</time></trkpt><trkpt lat="41.2875797095659" lon="14.634015447496306"><ele>739.5</ele><time>2026-04-05T12:58:04Z</time></trkpt><trkpt lat="41.287596493537706" lon="14.63417215726056"><ele>738.0</ele><time>2026-04-05T12:58:06Z</time></trkpt><trkpt lat="41.287609529151226" lon="14.63426483908725"><ele>738.0</ele><time>2026-04-05T12:58:07Z</time></trkpt><trkpt lat="41.28760048414315" lon="14.634419684527215"><ele>738.0</ele><time>2026-04-05T12:58:08.999Z</time></trkpt><trkpt lat="41.287599505582286" lon="14.634511296454916"><ele>738.0</ele><time>2026-04-05T12:58:09.999Z</time></trkpt><trkpt lat="41.287601448685365" lon="14.634595199169068"><ele>738.0</ele><time>2026-04-05T12:58:10.999Z</time></trkpt><trkpt lat="41.28758451933162" lon="14.634703332538262"><ele>738.0</ele><time>2026-04-05T12:58:12.999Z</time></trkpt><trkpt lat="41.28754761743689" lon="14.634813862288857"><ele>738.0</ele><time>2026-04-05T12:58:14.999Z</time></trkpt><trkpt lat="41.28751355700251" lon="14.634953623670507"><ele>736.6666666666666</ele><time>2026-04-05T12:58:16.999Z</time></trkpt><trkpt lat="41.28749284097705" lon="14.635033158133632"><ele>735.3333333333334</ele><time>2026-04-05T12:58:17.999Z</time></trkpt><trkpt lat="41.28746868774192" lon="14.63516572916076"><ele>734.0</ele><time>2026-04-05T12:58:19.999Z</time></trkpt><trkpt lat="41.28744973367851" lon="14.635285728660362"><ele>732.6666666666667</ele><time>2026-04-05T12:58:21.999Z</time></trkpt><trkpt lat="41.287436908444214" lon="14.635418114253678"><ele>731.3333333333334</ele><time>2026-04-05T12:58:23.999Z</time></trkpt><trkpt lat="41.28746730541855" lon="14.635516094668702"><ele>730.0</ele><time>2026-04-05T12:58:26.999Z</time></trkpt><trkpt lat="41.287481458223034" lon="14.635597834463217"><ele>728.0</ele><time>2026-04-05T12:58:27.999Z</time></trkpt><trkpt lat="41.28750222333268" lon="14.635729714725963"><ele>726.0</ele><time>2026-04-05T12:58:29.999Z</time></trkpt><trkpt lat="41.287501340511774" lon="14.635854798319526"><ele>724.0</ele><time>2026-04-05T12:58:31.999Z</time></trkpt><trkpt lat="41.28749628554246" lon="14.635999238323496"><ele>722.0</ele><time>2026-04-05T12:58:34.999Z</time></trkpt><trkpt lat="41.28748347319101" lon="14.636126913299325"><ele>720.0</ele><time>2026-04-05T12:58:36.999Z</time></trkpt><trkpt lat="41.287478600708496" lon="14.636254120128633"><ele>718.2</ele><time>2026-04-05T12:58:38.999Z</time></trkpt><trkpt lat="41.28747910704963" lon="14.636389211930567"><ele>716.4</ele><time>2026-04-05T12:58:40.999Z</time></trkpt><trkpt lat="41.287474293701365" lon="14.636474525175098"><ele>714.5999999999999</ele><time>2026-04-05T12:58:41.999Z</time></trkpt><trkpt lat="41.28747547829267" lon="14.636567078250025"><ele>712.8</ele><time>2026-04-05T12:58:42.999Z</time></trkpt><trkpt lat="41.28748725286966" lon="14.636723684292436"><ele>711.0</ele><time>2026-04-05T12:58:44.999Z</time></trkpt><trkpt lat="41.28747948628806" lon="14.6368634593042"><ele>707.5</ele><time>2026-04-05T12:58:46.999Z</time></trkpt><trkpt lat="41.2874857913753" lon="14.636991078892281"><ele>704.0</ele><time>2026-04-05T12:58:48.999Z</time></trkpt><trkpt lat="41.28747936862859" lon="14.637155837309447"><ele>700.5</ele><time>2026-04-05T12:58:50.999Z</time></trkpt><trkpt lat="41.287458230363214" lon="14.637315488550557"><ele>697.0</ele><time>2026-04-05T12:58:52.999Z</time></trkpt><trkpt lat="41.287459036977964" lon="14.637484027814411"><ele>697.0</ele><time>2026-04-05T12:58:54.999Z</time></trkpt><trkpt lat="41.28747472615944" lon="14.637567236933007"><ele>697.0</ele><time>2026-04-05T12:58:55.999Z</time></trkpt><trkpt lat="41.28750252806806" lon="14.637642482424061"><ele>697.0</ele><time>2026-04-05T12:58:56.999Z</time></trkpt><trkpt lat="41.287542025861164" lon="14.637770506202916"><ele>697.0</ele><time>2026-04-05T12:58:58.999Z</time></trkpt><trkpt lat="41.28758177244163" lon="14.637916991001191"><ele>697.0</ele><time>2026-04-05T12:59:00.999Z</time></trkpt><trkpt lat="41.287576313309756" lon="14.63806968742308"><ele>695.4000000000001</ele><time>2026-04-05T12:59:02.999Z</time></trkpt><trkpt lat="41.28757777888465" lon="14.63820235342524"><ele>693.8000000000001</ele><time>2026-04-05T12:59:04.999Z</time></trkpt><trkpt lat="41.28757685386406" lon="14.638331937176437"><ele>692.2</ele><time>2026-04-05T12:59:06.999Z</time></trkpt><trkpt lat="41.2876259653541" lon="14.63844436983007"><ele>690.6</ele><time>2026-04-05T12:59:08.999Z</time></trkpt><trkpt lat="41.28768539119311" lon="14.638533738480543"><ele>689.0</ele><time>2026-04-05T12:59:10.999Z</time></trkpt><trkpt lat="41.28773330279259" lon="14.638599293783056"><ele>688.5</ele><time>2026-04-05T12:59:12.999Z</time></trkpt><trkpt lat="41.28778678612862" lon="14.638679852481754"><ele>688.0</ele><time>2026-04-05T12:59:16.001Z</time></trkpt><trkpt lat="41.287850808612234" lon="14.6387932568963"><ele>687.5</ele><time>2026-04-05T12:59:28.001Z</time></trkpt><trkpt lat="41.2878394354114" lon="14.638879742042393"><ele>687.0</ele><time>2026-04-05T12:59:29.001Z</time></trkpt><trkpt lat="41.28779967950924" lon="14.638993158298375"><ele>686.5</ele><time>2026-04-05T12:59:30.001Z</time></trkpt><trkpt lat="41.28774656421651" lon="14.639098636358543"><ele>686.0</ele><time>2026-04-05T12:59:31.001Z</time></trkpt><trkpt lat="41.28771172221454" lon="14.639199349689818"><ele>686.0</ele><time>2026-04-05T12:59:32.001Z</time></trkpt><trkpt lat="41.28768197007404" lon="14.639282967456385"><ele>686.0</ele><time>2026-04-05T12:59:34.001Z</time></trkpt><trkpt lat="41.28761330446322" lon="14.639325920451732"><ele>686.0</ele><time>2026-04-05T12:59:36.001Z</time></trkpt><trkpt lat="41.28752102666013" lon="14.639467935796821"><ele>686.0</ele><time>2026-04-05T12:59:38Z</time></trkpt><trkpt lat="41.28745154271259" lon="14.639550493152761"><ele>686.0</ele><time>2026-04-05T12:59:39Z</time></trkpt><trkpt lat="41.287325953250956" lon="14.639637469010408"><ele>684.1999999999999</ele><time>2026-04-05T12:59:40Z</time></trkpt><trkpt lat="41.28722048702274" lon="14.639722284541849"><ele>682.4</ele><time>2026-04-05T12:59:41Z</time></trkpt><trkpt lat="41.28713549456883" lon="14.639793671972349"><ele>680.6</ele><time>2026-04-05T12:59:42Z</time></trkpt><trkpt lat="41.28707630722384" lon="14.63987155067372"><ele>678.8</ele><time>2026-04-05T12:59:43Z</time></trkpt><trkpt lat="41.28702415338049" lon="14.639946098451086"><ele>677.0</ele><time>2026-04-05T12:59:44Z</time></trkpt><trkpt lat="41.28698689617254" lon="14.640047000537772"><ele>677.0</ele><time>2026-04-05T12:59:45Z</time></trkpt><trkpt lat="41.286956984219685" lon="14.640178694762293"><ele>677.0</ele><time>2026-04-05T12:59:46Z</time></trkpt><trkpt lat="41.28693022810454" lon="14.640307568098113"><ele>677.0</ele><time>2026-04-05T12:59:47Z</time></trkpt><trkpt lat="41.286926989646346" lon="14.640402213296452"><ele>677.0</ele><time>2026-04-05T12:59:48Z</time></trkpt><trkpt lat="41.286932988796714" lon="14.640491584554495"><ele>677.0</ele><time>2026-04-05T12:59:49Z</time></trkpt><trkpt lat="41.28697554267004" lon="14.640634484248151"><ele>677.1666666666666</ele><time>2026-04-05T12:59:51Z</time></trkpt><trkpt lat="41.28698333813882" lon="14.640728181799512"><ele>677.3333333333333</ele><time>2026-04-05T12:59:52Z</time></trkpt><trkpt lat="41.286986678005725" lon="14.64082555229753"><ele>677.5</ele><time>2026-04-05T12:59:53Z</time></trkpt><trkpt lat="41.28699253267384" lon="14.640919255986393"><ele>677.6666666666666</ele><time>2026-04-05T12:59:54Z</time></trkpt><trkpt lat="41.28697676471523" lon="14.6410476236126"><ele>677.8333333333334</ele><time>2026-04-05T12:59:56Z</time></trkpt><trkpt lat="41.286938856738466" lon="14.641128268035667"><ele>678.0</ele><time>2026-04-05T12:59:58Z</time></trkpt><trkpt lat="41.28691801695014" lon="14.641254667034762"><ele>677.6666666666666</ele><time>2026-04-05T13:00:00Z</time></trkpt><trkpt lat="41.28689606570925" lon="14.641368764122932"><ele>677.3333333333334</ele><time>2026-04-05T13:00:01Z</time></trkpt><trkpt lat="41.28689260524183" lon="14.641480407979442"><ele>677.0</ele><time>2026-04-05T13:00:02Z</time></trkpt><trkpt lat="41.28691602343047" lon="14.64158312363759"><ele>676.6666666666667</ele><time>2026-04-05T13:00:03Z</time></trkpt><trkpt lat="41.286944942218405" lon="14.64168227150982"><ele>676.3333333333334</ele><time>2026-04-05T13:00:04Z</time></trkpt><trkpt lat="41.286966245051985" lon="14.64176838873298"><ele>676.0</ele><time>2026-04-05T13:00:05Z</time></trkpt><trkpt lat="41.2869840514246" lon="14.641855503049559"><ele>676.0</ele><time>2026-04-05T13:00:06Z</time></trkpt><trkpt lat="41.28700220018488" lon="14.641969696126962"><ele>676.0</ele><time>2026-04-05T13:00:07Z</time></trkpt><trkpt lat="41.28700238922822" lon="14.642086717002305"><ele>676.0</ele><time>2026-04-05T13:00:08Z</time></trkpt><trkpt lat="41.286972351394986" lon="14.642238951330107"><ele>676.0</ele><time>2026-04-05T13:00:09Z</time></trkpt><trkpt lat="41.28695126740445" lon="14.642375185123012"><ele>676.0</ele><time>2026-04-05T13:00:10Z</time></trkpt><trkpt lat="41.286953631598585" lon="14.642499252101713"><ele>676.0</ele><time>2026-04-05T13:00:11Z</time></trkpt><trkpt lat="41.28699380370597" lon="14.642616879984667"><ele>676.0</ele><time>2026-04-05T13:00:12Z</time></trkpt><trkpt lat="41.28703044567562" lon="14.642766394735848"><ele>676.0</ele><time>2026-04-05T13:00:13Z</time></trkpt><trkpt lat="41.28704683962583" lon="14.642946603187152"><ele>676.0</ele><time>2026-04-05T13:00:14Z</time></trkpt><trkpt lat="41.28706009169125" lon="14.643130212424714"><ele>675.5</ele><time>2026-04-05T13:00:15Z</time></trkpt><trkpt lat="41.28705819380147" lon="14.643274620887201"><ele>675.0</ele><time>2026-04-05T13:00:16Z</time></trkpt><trkpt lat="41.28706627728188" lon="14.643427758211244"><ele>674.5</ele><time>2026-04-05T13:00:17Z</time></trkpt><trkpt lat="41.28707738118581" lon="14.643599537703363"><ele>674.0</ele><time>2026-04-05T13:00:18Z</time></trkpt><trkpt lat="41.287106571150034" lon="14.643776418149457"><ele>673.25</ele><time>2026-04-05T13:00:19Z</time></trkpt><trkpt lat="41.287143917761654" lon="14.643951172827078"><ele>672.5</ele><time>2026-04-05T13:00:20Z</time></trkpt><trkpt lat="41.28718594844605" lon="14.644099147826843"><ele>671.75</ele><time>2026-04-05T13:00:21Z</time></trkpt><trkpt lat="41.287201959884285" lon="14.64423671698712"><ele>671.0</ele><time>2026-04-05T13:00:22Z</time></trkpt><trkpt lat="41.287219920438595" lon="14.64435459894108"><ele>671.0</ele><time>2026-04-05T13:00:23Z</time></trkpt><trkpt lat="41.28725115084366" lon="14.644456194757565"><ele>671.0</ele><time>2026-04-05T13:00:24Z</time></trkpt><trkpt lat="41.287294897218864" lon="14.644559986760834"><ele>671.0</ele><time>2026-04-05T13:00:25Z</time></trkpt><trkpt lat="41.28734773698871" lon="14.644689482896156"><ele>671.0</ele><time>2026-04-05T13:00:26Z</time></trkpt><trkpt lat="41.28741782425161" lon="14.644837267381401"><ele>671.0</ele><time>2026-04-05T13:00:27Z</time></trkpt><trkpt lat="41.287469486237995" lon="14.644957587062605"><ele>673.4</ele><time>2026-04-05T13:00:28Z</time></trkpt><trkpt lat="41.28753324472516" lon="14.645087853346958"><ele>675.8</ele><time>2026-04-05T13:00:29Z</time></trkpt><trkpt lat="41.28758105611608" lon="14.64520409033066"><ele>678.1999999999999</ele><time>2026-04-05T13:00:30Z</time></trkpt><trkpt lat="41.28760493821779" lon="14.645324721481918"><ele>680.5999999999999</ele><time>2026-04-05T13:00:31Z</time></trkpt><trkpt lat="41.2876466571497" lon="14.645445304500829"><ele>683.0</ele><time>2026-04-05T13:00:33Z</time></trkpt><trkpt lat="41.287624299688666" lon="14.645634758791097"><ele>683.0</ele><time>2026-04-05T13:00:35Z</time></trkpt><trkpt lat="41.28759741170444" lon="14.645781315529062"><ele>683.0</ele><time>2026-04-05T13:00:36Z</time></trkpt><trkpt lat="41.287561297726086" lon="14.645902852128824"><ele>683.0</ele><time>2026-04-05T13:00:37Z</time></trkpt><trkpt lat="41.28751460340646" lon="14.64601228339927"><ele>683.0</ele><time>2026-04-05T13:00:38Z</time></trkpt><trkpt lat="41.28747861600409" lon="14.646116503759773"><ele>683.0</ele><time>2026-04-05T13:00:39Z</time></trkpt><trkpt lat="41.28745362441856" lon="14.646224912559646"><ele>681.5999999999999</ele><time>2026-04-05T13:00:40Z</time></trkpt><trkpt lat="41.28745134977168" lon="14.646342914957906"><ele>680.1999999999999</ele><time>2026-04-05T13:00:41Z</time></trkpt><trkpt lat="41.287479825249804" lon="14.64646776390312"><ele>678.8</ele><time>2026-04-05T13:00:42Z</time></trkpt><trkpt lat="41.287512278175505" lon="14.646602606397119"><ele>677.4</ele><time>2026-04-05T13:00:43Z</time></trkpt><trkpt lat="41.28754416701712" lon="14.646745379086738"><ele>676.0</ele><time>2026-04-05T13:00:44Z</time></trkpt><trkpt lat="41.2875654633066" lon="14.646878633281466"><ele>673.1999999999999</ele><time>2026-04-05T13:00:45Z</time></trkpt><trkpt lat="41.2875752957051" lon="14.647008412181778"><ele>670.4</ele><time>2026-04-05T13:00:46Z</time></trkpt><trkpt lat="41.28758137362154" lon="14.647148986483936"><ele>667.6</ele><time>2026-04-05T13:00:47Z</time></trkpt><trkpt lat="41.287603317646145" lon="14.647279968455983"><ele>664.8</ele><time>2026-04-05T13:00:48Z</time></trkpt><trkpt lat="41.28761160712482" lon="14.647400133200177"><ele>662.0</ele><time>2026-04-05T13:00:49Z</time></trkpt><trkpt lat="41.287652685607675" lon="14.647507248402093"><ele>662.0</ele><time>2026-04-05T13:00:50Z</time></trkpt><trkpt lat="41.287718784628865" lon="14.647588782222906"><ele>662.0</ele><time>2026-04-05T13:00:51Z</time></trkpt><trkpt lat="41.287810005519326" lon="14.647633858340283"><ele>662.0</ele><time>2026-04-05T13:00:52Z</time></trkpt><trkpt lat="41.28787874298806" lon="14.647679400496921"><ele>662.0</ele><time>2026-04-05T13:00:53.999Z</time></trkpt><trkpt lat="41.28771666070137" lon="14.647724980833715"><ele>662.0</ele><time>2026-04-05T13:00:56.999Z</time></trkpt><trkpt lat="41.2876376539765" lon="14.647795165161524"><ele>659.5</ele><time>2026-04-05T13:00:57.999Z</time></trkpt><trkpt lat="41.28757687266756" lon="14.647901908116241"><ele>657.0</ele><time>2026-04-05T13:00:58.999Z</time></trkpt><trkpt lat="41.287517231007406" lon="14.648040268022996"><ele>654.5</ele><time>2026-04-05T13:00:59.999Z</time></trkpt><trkpt lat="41.287457085932736" lon="14.64818202444381"><ele>652.0</ele><time>2026-04-05T13:01:00.999Z</time></trkpt><trkpt lat="41.28739278365137" lon="14.648320495719606"><ele>652.0</ele><time>2026-04-05T13:01:01.999Z</time></trkpt><trkpt lat="41.28734249009122" lon="14.648454951645133"><ele>652.0</ele><time>2026-04-05T13:01:02.999Z</time></trkpt><trkpt lat="41.287296856823865" lon="14.648590436110698"><ele>652.0</ele><time>2026-04-05T13:01:03.999Z</time></trkpt><trkpt lat="41.287278778659974" lon="14.648733164655745"><ele>652.0</ele><time>2026-04-05T13:01:04.999Z</time></trkpt><trkpt lat="41.28728779631814" lon="14.64886268507436"><ele>652.0</ele><time>2026-04-05T13:01:05.999Z</time></trkpt><trkpt lat="41.287284045896286" lon="14.648970324130849"><ele>650.8</ele><time>2026-04-05T13:01:06.999Z</time></trkpt><trkpt lat="41.28729347573115" lon="14.649055812311687"><ele>649.6</ele><time>2026-04-05T13:01:07.999Z</time></trkpt><trkpt lat="41.287256932775946" lon="14.649154797847256"><ele>648.4</ele><time>2026-04-05T13:01:08.999Z</time></trkpt><trkpt lat="41.287207353443186" lon="14.649278108054927"><ele>647.1999999999999</ele><time>2026-04-05T13:01:09.999Z</time></trkpt><trkpt lat="41.287151613381454" lon="14.649389368416106"><ele>646.0</ele><time>2026-04-05T13:01:10.999Z</time></trkpt><trkpt lat="41.287132005616996" lon="14.64951478375454"><ele>641.8</ele><time>2026-04-05T13:01:11.999Z</time></trkpt><trkpt lat="41.28713381175131" lon="14.649650108016878"><ele>637.5999999999999</ele><time>2026-04-05T13:01:12.999Z</time></trkpt><trkpt lat="41.2871527348233" lon="14.649790520402773"><ele>633.4</ele><time>2026-04-05T13:01:13.999Z</time></trkpt><trkpt lat="41.28718053545447" lon="14.649940364505511"><ele>629.2</ele><time>2026-04-05T13:01:14.999Z</time></trkpt><trkpt lat="41.28721399527524" lon="14.650081472933634"><ele>625.0</ele><time>2026-04-05T13:01:15.999Z</time></trkpt><trkpt lat="41.28725092677374" lon="14.650221835420629"><ele>626.6</ele><time>2026-04-05T13:01:16.999Z</time></trkpt><trkpt lat="41.287281206343806" lon="14.650358284288846"><ele>628.2</ele><time>2026-04-05T13:01:17.999Z</time></trkpt><trkpt lat="41.28729634467078" lon="14.650486513372167"><ele>629.8</ele><time>2026-04-05T13:01:18.999Z</time></trkpt><trkpt lat="41.28729917486594" lon="14.650604528176652"><ele>631.4</ele><time>2026-04-05T13:01:19.999Z</time></trkpt><trkpt lat="41.287252828142826" lon="14.650713904407246"><ele>633.0</ele><time>2026-04-05T13:01:20.999Z</time></trkpt><trkpt lat="41.28717772040093" lon="14.650837435967839"><ele>628.75</ele><time>2026-04-05T13:01:22.001Z</time></trkpt><trkpt lat="41.287066780691376" lon="14.650994669022674"><ele>624.5</ele><time>2026-04-05T13:01:23.001Z</time></trkpt><trkpt lat="41.28696320990457" lon="14.65113819625457"><ele>620.25</ele><time>2026-04-05T13:01:24.001Z</time></trkpt><trkpt lat="41.28687056355172" lon="14.651272591713198"><ele>616.0</ele><time>2026-04-05T13:01:25.001Z</time></trkpt><trkpt lat="41.286796886733796" lon="14.651384493654293"><ele>615.6666666666667</ele><time>2026-04-05T13:01:26.001Z</time></trkpt><trkpt lat="41.286749116861905" lon="14.651480398835712"><ele>615.3333333333334</ele><time>2026-04-05T13:01:27.001Z</time></trkpt><trkpt lat="41.28671082031932" lon="14.651573207064777"><ele>615.0</ele><time>2026-04-05T13:01:28.001Z</time></trkpt><trkpt lat="41.286715539016626" lon="14.651700861317588"><ele>614.6666666666666</ele><time>2026-04-05T13:01:29.001Z</time></trkpt><trkpt lat="41.28672648591487" lon="14.65182554926704"><ele>614.3333333333333</ele><time>2026-04-05T13:01:30.001Z</time></trkpt><trkpt lat="41.28671802034239" lon="14.651916643092289"><ele>614.0</ele><time>2026-04-05T13:01:31.001Z</time></trkpt><trkpt lat="41.28668811037635" lon="14.651997173897495"><ele>612.4</ele><time>2026-04-05T13:01:32.001Z</time></trkpt><trkpt lat="41.28660222325345" lon="14.652047937808682"><ele>610.8</ele><time>2026-04-05T13:01:33.001Z</time></trkpt><trkpt lat="41.286492297566966" lon="14.652088973394868"><ele>609.2</ele><time>2026-04-05T13:01:34.001Z</time></trkpt><trkpt lat="41.286385186370296" lon="14.652127794017048"><ele>607.6</ele><time>2026-04-05T13:01:35.001Z</time></trkpt><trkpt lat="41.286314473984326" lon="14.652175232712095"><ele>606.0</ele><time>2026-04-05T13:01:36.001Z</time></trkpt><trkpt lat="41.286239901778885" lon="14.652273423157766"><ele>606.0</ele><time>2026-04-05T13:01:38.001Z</time></trkpt><trkpt lat="41.286235243825026" lon="14.652391374400091"><ele>606.0</ele><time>2026-04-05T13:01:39.001Z</time></trkpt><trkpt lat="41.28632327842913" lon="14.652525981261386"><ele>606.0</ele><time>2026-04-05T13:01:40.001Z</time></trkpt><trkpt lat="41.286402967597326" lon="14.652619402427566"><ele>606.0</ele><time>2026-04-05T13:01:41.001Z</time></trkpt><trkpt lat="41.28644177704288" lon="14.65271179467037"><ele>606.0</ele><time>2026-04-05T13:01:43.001Z</time></trkpt><trkpt lat="41.286344951162086" lon="14.652758187771608"><ele>600.2</ele><time>2026-04-05T13:01:45.001Z</time></trkpt><trkpt lat="41.28622425596783" lon="14.652812347404153"><ele>594.4000000000001</ele><time>2026-04-05T13:01:46.001Z</time></trkpt><trkpt lat="41.28612511020033" lon="14.652843091303037"><ele>588.6</ele><time>2026-04-05T13:01:47.001Z</time></trkpt><trkpt lat="41.286040501183585" lon="14.652877005991128"><ele>582.8000000000001</ele><time>2026-04-05T13:01:48.001Z</time></trkpt><trkpt lat="41.285947356335285" lon="14.652900006091512"><ele>577.0</ele><time>2026-04-05T13:01:49Z</time></trkpt><trkpt lat="41.28586381003122" lon="14.652889425522439"><ele>577.0</ele><time>2026-04-05T13:01:51Z</time></trkpt><trkpt lat="41.28574799496812" lon="14.652885283460016"><ele>577.0</ele><time>2026-04-05T13:01:53Z</time></trkpt><trkpt lat="41.28568081477028" lon="14.652897735200341"><ele>577.0</ele><time>2026-04-05T13:01:54Z</time></trkpt><trkpt lat="41.28561079422979" lon="14.652903543807863"><ele>577.0</ele><time>2026-04-05T13:01:55Z</time></trkpt><trkpt lat="41.28553262996656" lon="14.652923569510367"><ele>577.0</ele><time>2026-04-05T13:01:56Z</time></trkpt><trkpt lat="41.28547362561001" lon="14.65297387289999"><ele>577.0</ele><time>2026-04-05T13:01:57Z</time></trkpt><trkpt lat="41.28542705230662" lon="14.653032231464383"><ele>577.0</ele><time>2026-04-05T13:01:58Z</time></trkpt><trkpt lat="41.28540295881701" lon="14.653129284540263"><ele>577.0</ele><time>2026-04-05T13:01:59Z</time></trkpt><trkpt lat="41.28540446992363" lon="14.653235272175056"><ele>577.0</ele><time>2026-04-05T13:02:00Z</time></trkpt><trkpt lat="41.28540975791585" lon="14.653325696687801"><ele>577.0</ele><time>2026-04-05T13:02:01Z</time></trkpt><trkpt lat="41.2854107186726" lon="14.653430707055215"><ele>577.0</ele><time>2026-04-05T13:02:02Z</time></trkpt><trkpt lat="41.285402620000966" lon="14.653535524423782"><ele>577.0</ele><time>2026-04-05T13:02:03Z</time></trkpt><trkpt lat="41.28538267399546" lon="14.65365101475714"><ele>578.0</ele><time>2026-04-05T13:02:04Z</time></trkpt><trkpt lat="41.28533979291152" lon="14.65376534041465"><ele>579.0</ele><time>2026-04-05T13:02:05Z</time></trkpt><trkpt lat="41.28528576176805" lon="14.653883293827759"><ele>580.0</ele><time>2026-04-05T13:02:06Z</time></trkpt><trkpt lat="41.28522756502829" lon="14.654003661106227"><ele>581.0</ele><time>2026-04-05T13:02:07Z</time></trkpt><trkpt lat="41.28517571679927" lon="14.654115485486503"><ele>582.0</ele><time>2026-04-05T13:02:08Z</time></trkpt><trkpt lat="41.28515121842975" lon="14.654238848655094"><ele>582.0</ele><time>2026-04-05T13:02:09Z</time></trkpt><trkpt lat="41.28518445450174" lon="14.654383085344552"><ele>582.0</ele><time>2026-04-05T13:02:10Z</time></trkpt><trkpt lat="41.28521984908003" lon="14.654554684422452"><ele>582.0</ele><time>2026-04-05T13:02:11Z</time></trkpt><trkpt lat="41.28524231113111" lon="14.654692116250544"><ele>582.0</ele><time>2026-04-05T13:02:12Z</time></trkpt><trkpt lat="41.285251532993186" lon="14.654820497767066"><ele>584.0</ele><time>2026-04-05T13:02:13Z</time></trkpt><trkpt lat="41.285228922851104" lon="14.654947468788546"><ele>586.0</ele><time>2026-04-05T13:02:14Z</time></trkpt><trkpt lat="41.28518562404586" lon="14.655106615432073"><ele>588.0</ele><time>2026-04-05T13:02:15Z</time></trkpt><trkpt lat="41.28514413373014" lon="14.65527859198583"><ele>590.0</ele><time>2026-04-05T13:02:16Z</time></trkpt><trkpt lat="41.28512748726166" lon="14.65546946406533"><ele>590.0</ele><time>2026-04-05T13:02:17Z</time></trkpt><trkpt lat="41.28509426937478" lon="14.655650200338771"><ele>590.0</ele><time>2026-04-05T13:02:18Z</time></trkpt><trkpt lat="41.285078857519856" lon="14.655808398303732"><ele>590.0</ele><time>2026-04-05T13:02:19Z</time></trkpt><trkpt lat="41.28507162604302" lon="14.655932480383312"><ele>590.0</ele><time>2026-04-05T13:02:20Z</time></trkpt><trkpt lat="41.28507886585937" lon="14.656052576964864"><ele>590.0</ele><time>2026-04-05T13:02:21Z</time></trkpt><trkpt lat="41.285072784699196" lon="14.656190588877044"><ele>590.0</ele><time>2026-04-05T13:02:22Z</time></trkpt><trkpt lat="41.285085567004884" lon="14.656332377307876"><ele>590.0</ele><time>2026-04-05T13:02:23Z</time></trkpt><trkpt lat="41.28510132467387" lon="14.656479418244446"><ele>590.0</ele><time>2026-04-05T13:02:24Z</time></trkpt><trkpt lat="41.28511482373702" lon="14.65662556023428"><ele>590.0</ele><time>2026-04-05T13:02:25Z</time></trkpt><trkpt lat="41.28512573444541" lon="14.656780100716626"><ele>590.0</ele><time>2026-04-05T13:02:26Z</time></trkpt><trkpt lat="41.285137091289414" lon="14.65694847477112"><ele>589.0</ele><time>2026-04-05T13:02:27Z</time></trkpt><trkpt lat="41.28514330189914" lon="14.657113853528799"><ele>588.0</ele><time>2026-04-05T13:02:28Z</time></trkpt><trkpt lat="41.285145718131545" lon="14.65727589721128"><ele>587.0</ele><time>2026-04-05T13:02:29Z</time></trkpt><trkpt lat="41.28514882833121" lon="14.657430765226863"><ele>586.0</ele><time>2026-04-05T13:02:30Z</time></trkpt><trkpt lat="41.28515856549938" lon="14.657581211806937"><ele>586.0</ele><time>2026-04-05T13:02:31Z</time></trkpt><trkpt lat="41.285194548750816" lon="14.657741497830653"><ele>586.0</ele><time>2026-04-05T13:02:32Z</time></trkpt><trkpt lat="41.285224710115884" lon="14.657898960676654"><ele>586.0</ele><time>2026-04-05T13:02:33Z</time></trkpt><trkpt lat="41.28525369526924" lon="14.658074688159147"><ele>586.0</ele><time>2026-04-05T13:02:34Z</time></trkpt><trkpt lat="41.28529248805067" lon="14.658259882881568"><ele>587.5</ele><time>2026-04-05T13:02:35Z</time></trkpt><trkpt lat="41.28533474013527" lon="14.65844197352038"><ele>589.0</ele><time>2026-04-05T13:02:36Z</time></trkpt><trkpt lat="41.28537561320468" lon="14.658627830608202"><ele>590.5</ele><time>2026-04-05T13:02:37Z</time></trkpt><trkpt lat="41.28543150561019" lon="14.658813438885655"><ele>592.0</ele><time>2026-04-05T13:02:38Z</time></trkpt><trkpt lat="41.285495359999125" lon="14.658992462014385"><ele>591.8000000000001</ele><time>2026-04-05T13:02:39Z</time></trkpt><trkpt lat="41.28555666567388" lon="14.659164182747125"><ele>591.6</ele><time>2026-04-05T13:02:40Z</time></trkpt><trkpt lat="41.28560176758394" lon="14.659309064436918"><ele>591.4000000000001</ele><time>2026-04-05T13:02:41Z</time></trkpt><trkpt lat="41.285638355906514" lon="14.659448195071011"><ele>591.2</ele><time>2026-04-05T13:02:42Z</time></trkpt><trkpt lat="41.2856625724708" lon="14.659544740567394"><ele>591.0</ele><time>2026-04-05T13:02:43Z</time></trkpt><trkpt lat="41.28567038464903" lon="14.659716505307468"><ele>591.0</ele><time>2026-04-05T13:02:45Z</time></trkpt><trkpt lat="41.285629989602825" lon="14.659822732775014"><ele>591.0</ele><time>2026-04-05T13:02:46Z</time></trkpt><trkpt lat="41.28560181138661" lon="14.659978610844085"><ele>591.0</ele><time>2026-04-05T13:02:47Z</time></trkpt><trkpt lat="41.28559417160481" lon="14.660144313660263"><ele>591.0</ele><time>2026-04-05T13:02:47.999Z</time></trkpt><trkpt lat="41.285550605842936" lon="14.660310291827566"><ele>590.6</ele><time>2026-04-05T13:02:48.999Z</time></trkpt><trkpt lat="41.285530581021256" lon="14.660462097586283"><ele>590.2</ele><time>2026-04-05T13:02:49.999Z</time></trkpt><trkpt lat="41.28550604486716" lon="14.660591027394446"><ele>589.8</ele><time>2026-04-05T13:02:50.999Z</time></trkpt><trkpt lat="41.28549454746414" lon="14.660699645643776"><ele>589.4</ele><time>2026-04-05T13:02:51.999Z</time></trkpt><trkpt lat="41.285481891505086" lon="14.660797055458277"><ele>589.0</ele><time>2026-04-05T13:02:52.999Z</time></trkpt><trkpt lat="41.28539816144267" lon="14.660911461828034"><ele>589.0</ele><time>2026-04-05T13:02:54.999Z</time></trkpt><trkpt lat="41.28533909098452" lon="14.660982676242702"><ele>589.0</ele><time>2026-04-05T13:02:55.999Z</time></trkpt><trkpt lat="41.28525350292904" lon="14.661023316746846"><ele>589.0</ele><time>2026-04-05T13:02:57.999Z</time></trkpt><trkpt lat="41.285144511649165" lon="14.66089392193462"><ele>589.0</ele><time>2026-04-05T13:02:59.999Z</time></trkpt><trkpt lat="41.28509462945193" lon="14.660839609735163"><ele>589.0</ele><time>2026-04-05T13:03:00.999Z</time></trkpt><trkpt lat="41.28501669613187" lon="14.66081733896961"><ele>589.0</ele><time>2026-04-05T13:03:01.999Z</time></trkpt><trkpt lat="41.28491979090547" lon="14.660829315694256"><ele>589.0</ele><time>2026-04-05T13:03:02.999Z</time></trkpt><trkpt lat="41.28482159411521" lon="14.660859960038609"><ele>589.0</ele><time>2026-04-05T13:03:03.999Z</time></trkpt><trkpt lat="41.28471238007177" lon="14.660903286084634"><ele>589.0</ele><time>2026-04-05T13:03:04.999Z</time></trkpt><trkpt lat="41.28461701581396" lon="14.660965881890592"><ele>589.0</ele><time>2026-04-05T13:03:05.999Z</time></trkpt><trkpt lat="41.28452197844728" lon="14.661052076795832"><ele>585.75</ele><time>2026-04-05T13:03:06.999Z</time></trkpt><trkpt lat="41.284419700662866" lon="14.661160565021408"><ele>582.5</ele><time>2026-04-05T13:03:07.999Z</time></trkpt><trkpt lat="41.28431446156123" lon="14.661283856022118"><ele>579.25</ele><time>2026-04-05T13:03:08.999Z</time></trkpt><trkpt lat="41.28420924697803" lon="14.66141079371779"><ele>576.0</ele><time>2026-04-05T13:03:09.999Z</time></trkpt><trkpt lat="41.28411021101594" lon="14.66152485837859"><ele>576.0</ele><time>2026-04-05T13:03:10.999Z</time></trkpt><trkpt lat="41.28401808145059" lon="14.661625030206826"><ele>576.0</ele><time>2026-04-05T13:03:11.999Z</time></trkpt><trkpt lat="41.28392638797503" lon="14.661711728304219"><ele>576.0</ele><time>2026-04-05T13:03:12.999Z</time></trkpt><trkpt lat="41.28384180333654" lon="14.661801508675739"><ele>576.0</ele><time>2026-04-05T13:03:13.999Z</time></trkpt><trkpt lat="41.283777004427236" lon="14.66187775123864"><ele>576.0</ele><time>2026-04-05T13:03:14.999Z</time></trkpt><trkpt lat="41.28371340080223" lon="14.661954028025548"><ele>575.75</ele><time>2026-04-05T13:03:15.999Z</time></trkpt><trkpt lat="41.28368454056027" lon="14.662102820978188"><ele>575.5</ele><time>2026-04-05T13:03:16.999Z</time></trkpt><trkpt lat="41.283686777610605" lon="14.662270247596249"><ele>575.25</ele><time>2026-04-05T13:03:17.999Z</time></trkpt><trkpt lat="41.28369091821573" lon="14.662431221204036"><ele>575.0</ele><time>2026-04-05T13:03:18.999Z</time></trkpt><trkpt lat="41.28369360831574" lon="14.662572045236741"><ele>575.0</ele><time>2026-04-05T13:03:19.999Z</time></trkpt><trkpt lat="41.2837011313353" lon="14.662705641234389"><ele>575.0</ele><time>2026-04-05T13:03:20.999Z</time></trkpt><trkpt lat="41.28372716445455" lon="14.662855374329698"><ele>575.0</ele><time>2026-04-05T13:03:21.999Z</time></trkpt><trkpt lat="41.28380597533234" lon="14.663006494893622"><ele>575.0</ele><time>2026-04-05T13:03:22.999Z</time></trkpt><trkpt lat="41.2839291870297" lon="14.663136507170575"><ele>571.6666666666666</ele><time>2026-04-05T13:03:23.999Z</time></trkpt><trkpt lat="41.28407619282526" lon="14.663297470190251"><ele>568.3333333333334</ele><time>2026-04-05T13:03:24.999Z</time></trkpt><trkpt lat="41.28420510191118" lon="14.663443244820495"><ele>565.0</ele><time>2026-04-05T13:03:25.999Z</time></trkpt><trkpt lat="41.28431693436271" lon="14.663564924984914"><ele>565.0</ele><time>2026-04-05T13:03:26.999Z</time></trkpt><trkpt lat="41.2844182591688" lon="14.663684801847149"><ele>565.0</ele><time>2026-04-05T13:03:28.001Z</time></trkpt><trkpt lat="41.28451071007878" lon="14.663799180167242"><ele>565.0</ele><time>2026-04-05T13:03:29.001Z</time></trkpt><trkpt lat="41.284573467874694" lon="14.66391489565147"><ele>565.0</ele><time>2026-04-05T13:03:30.001Z</time></trkpt><trkpt lat="41.28462494037239" lon="14.664048188962486"><ele>565.0</ele><time>2026-04-05T13:03:31.001Z</time></trkpt><trkpt lat="41.28467361796291" lon="14.664203448802478"><ele>565.0</ele><time>2026-04-05T13:03:32.001Z</time></trkpt><trkpt lat="41.28470563681639" lon="14.66436902845595"><ele>565.0</ele><time>2026-04-05T13:03:33.001Z</time></trkpt><trkpt lat="41.28473888646915" lon="14.664531737017503"><ele>565.0</ele><time>2026-04-05T13:03:34.001Z</time></trkpt><trkpt lat="41.284769653964595" lon="14.66468220463608"><ele>562.2</ele><time>2026-04-05T13:03:35.001Z</time></trkpt><trkpt lat="41.2847985790783" lon="14.664827928640898"><ele>559.4</ele><time>2026-04-05T13:03:36.001Z</time></trkpt><trkpt lat="41.284828336042935" lon="14.664974806121943"><ele>556.6</ele><time>2026-04-05T13:03:37.001Z</time></trkpt><trkpt lat="41.28486639528878" lon="14.665118506009227"><ele>553.8</ele><time>2026-04-05T13:03:38.001Z</time></trkpt><trkpt lat="41.284909314513" lon="14.66524814775746"><ele>551.0</ele><time>2026-04-05T13:03:39.001Z</time></trkpt><trkpt lat="41.28497363125501" lon="14.665357169072832"><ele>550.4</ele><time>2026-04-05T13:03:40.001Z</time></trkpt><trkpt lat="41.285035740306256" lon="14.665442824600824"><ele>549.8</ele><time>2026-04-05T13:03:41.001Z</time></trkpt><trkpt lat="41.28509255572927" lon="14.665540008101765"><ele>549.1999999999999</ele><time>2026-04-05T13:03:42.001Z</time></trkpt><trkpt lat="41.28511625304376" lon="14.665668475949202"><ele>548.6</ele><time>2026-04-05T13:03:43.001Z</time></trkpt><trkpt lat="41.285143671308326" lon="14.665839057160484"><ele>548.0</ele><time>2026-04-05T13:03:44.001Z</time></trkpt><trkpt lat="41.2851769250612" lon="14.665977462459221"><ele>547.4</ele><time>2026-04-05T13:03:45.001Z</time></trkpt><trkpt lat="41.28521125137956" lon="14.666112426620817"><ele>546.8</ele><time>2026-04-05T13:03:46.001Z</time></trkpt><trkpt lat="41.285248174291475" lon="14.666257600070082"><ele>546.2</ele><time>2026-04-05T13:03:47.001Z</time></trkpt><trkpt lat="41.28528272409631" lon="14.666396215996588"><ele>545.6</ele><time>2026-04-05T13:03:48.001Z</time></trkpt><trkpt lat="41.285306580571465" lon="14.666525150976135"><ele>545.0</ele><time>2026-04-05T13:03:49Z</time></trkpt><trkpt lat="41.28529251705528" lon="14.66665709498533"><ele>545.0</ele><time>2026-04-05T13:03:50Z</time></trkpt><trkpt lat="41.285282015214236" lon="14.666809991724465"><ele>545.0</ele><time>2026-04-05T13:03:51Z</time></trkpt><trkpt lat="41.28522638641688" lon="14.666953614501507"><ele>545.0</ele><time>2026-04-05T13:03:52Z</time></trkpt><trkpt lat="41.28518193843972" lon="14.667086904618074"><ele>545.0</ele><time>2026-04-05T13:03:53Z</time></trkpt><trkpt lat="41.28515387679592" lon="14.667215688302992"><ele>545.0</ele><time>2026-04-05T13:03:54Z</time></trkpt><trkpt lat="41.28511150146281" lon="14.66732715386309"><ele>544.8333333333333</ele><time>2026-04-05T13:03:55Z</time></trkpt><trkpt lat="41.285060048042" lon="14.667428174598177"><ele>544.6666666666666</ele><time>2026-04-05T13:03:56Z</time></trkpt><trkpt lat="41.2850405482238" lon="14.66753551251144"><ele>544.5</ele><time>2026-04-05T13:03:57Z</time></trkpt><trkpt lat="41.28497817394437" lon="14.667606107956203"><ele>544.3333333333334</ele><time>2026-04-05T13:03:58Z</time></trkpt><trkpt lat="41.28490007999713" lon="14.66763807145888"><ele>544.1666666666667</ele><time>2026-04-05T13:03:59Z</time></trkpt><trkpt lat="41.284789385318895" lon="14.667643164913407"><ele>544.0</ele><time>2026-04-05T13:04:00Z</time></trkpt><trkpt lat="41.28467284954743" lon="14.667659599184422"><ele>544.0</ele><time>2026-04-05T13:04:01Z</time></trkpt><trkpt lat="41.2845698337052" lon="14.667694999404507"><ele>544.0</ele><time>2026-04-05T13:04:02Z</time></trkpt><trkpt lat="41.28447745214457" lon="14.66775341159413"><ele>544.0</ele><time>2026-04-05T13:04:03Z</time></trkpt><trkpt lat="41.28441132541112" lon="14.667841332645315"><ele>544.0</ele><time>2026-04-05T13:04:04Z</time></trkpt><trkpt lat="41.2843714985116" lon="14.66793335752873"><ele>544.0</ele><time>2026-04-05T13:04:05Z</time></trkpt><trkpt lat="41.284339147675645" lon="14.668027724191857"><ele>545.25</ele><time>2026-04-05T13:04:06Z</time></trkpt><trkpt lat="41.284391185792344" lon="14.668151172967285"><ele>546.5</ele><time>2026-04-05T13:04:07Z</time></trkpt><trkpt lat="41.28445303336927" lon="14.668260258630031"><ele>547.75</ele><time>2026-04-05T13:04:08Z</time></trkpt><trkpt lat="41.28456198946698" lon="14.668349676247713"><ele>549.0</ele><time>2026-04-05T13:04:09Z</time></trkpt><trkpt lat="41.28472350707815" lon="14.668432538286796"><ele>544.25</ele><time>2026-04-05T13:04:10Z</time></trkpt><trkpt lat="41.28487928716577" lon="14.668512566101649"><ele>539.5</ele><time>2026-04-05T13:04:11Z</time></trkpt><trkpt lat="41.285007084425665" lon="14.668601857102324"><ele>534.75</ele><time>2026-04-05T13:04:12Z</time></trkpt><trkpt lat="41.285128197963424" lon="14.668689919446386"><ele>530.0</ele><time>2026-04-05T13:04:13Z</time></trkpt><trkpt lat="41.28523142155471" lon="14.668771731179731"><ele>530.0</ele><time>2026-04-05T13:04:14Z</time></trkpt><trkpt lat="41.28530780176913" lon="14.668860755142797"><ele>530.0</ele><time>2026-04-05T13:04:15Z</time></trkpt><trkpt lat="41.28536849742318" lon="14.668975177325958"><ele>530.0</ele><time>2026-04-05T13:04:16Z</time></trkpt><trkpt lat="41.285392127654916" lon="14.669124935334391"><ele>530.0</ele><time>2026-04-05T13:04:17Z</time></trkpt><trkpt lat="41.28539487325611" lon="14.669296062274734"><ele>532.0</ele><time>2026-04-05T13:04:18Z</time></trkpt><trkpt lat="41.2854034566751" lon="14.669520374523564"><ele>534.0</ele><time>2026-04-05T13:04:19Z</time></trkpt><trkpt lat="41.28541774412484" lon="14.669765627219602"><ele>536.0</ele><time>2026-04-05T13:04:20Z</time></trkpt><trkpt lat="41.28543331116625" lon="14.670016415291478"><ele>536.0</ele><time>2026-04-05T13:04:21Z</time></trkpt><trkpt lat="41.28544760795424" lon="14.670269753648116"><ele>536.0</ele><time>2026-04-05T13:04:22Z</time></trkpt><trkpt lat="41.28546316958727" lon="14.670512695565757"><ele>536.0</ele><time>2026-04-05T13:04:23Z</time></trkpt><trkpt lat="41.28548394190185" lon="14.670748350293136"><ele>535.6666666666666</ele><time>2026-04-05T13:04:24Z</time></trkpt><trkpt lat="41.28550146694865" lon="14.67097550236534"><ele>535.3333333333334</ele><time>2026-04-05T13:04:25Z</time></trkpt><trkpt lat="41.28551651135819" lon="14.671185579333535"><ele>535.0</ele><time>2026-04-05T13:04:26Z</time></trkpt><trkpt lat="41.28554753305847" lon="14.671375733105428"><ele>529.3333333333334</ele><time>2026-04-05T13:04:27Z</time></trkpt><trkpt lat="41.285598445067286" lon="14.67154770458933"><ele>523.6666666666666</ele><time>2026-04-05T13:04:28Z</time></trkpt><trkpt lat="41.2856888276937" lon="14.671722880911217"><ele>518.0</ele><time>2026-04-05T13:04:29Z</time></trkpt><trkpt lat="41.2857900631673" lon="14.671905675401115"><ele>519.25</ele><time>2026-04-05T13:04:30Z</time></trkpt><trkpt lat="41.28586947903175" lon="14.672078644196768"><ele>520.5</ele><time>2026-04-05T13:04:31Z</time></trkpt><trkpt lat="41.285938210659694" lon="14.672241578139287"><ele>521.75</ele><time>2026-04-05T13:04:32Z</time></trkpt><trkpt lat="41.28599011215487" lon="14.67240156668568"><ele>523.0</ele><time>2026-04-05T13:04:33Z</time></trkpt><trkpt lat="41.286037732269634" lon="14.672580951165399"><ele>523.0</ele><time>2026-04-05T13:04:34Z</time></trkpt><trkpt lat="41.28607534352228" lon="14.672757765331589"><ele>523.0</ele><time>2026-04-05T13:04:35Z</time></trkpt><trkpt lat="41.28609967211409" lon="14.672934447192862"><ele>523.0</ele><time>2026-04-05T13:04:36Z</time></trkpt><trkpt lat="41.28610714124118" lon="14.673099688086602"><ele>523.0</ele><time>2026-04-05T13:04:36.999Z</time></trkpt><trkpt lat="41.28611202893922" lon="14.673251025713633"><ele>522.8333333333334</ele><time>2026-04-05T13:04:37.999Z</time></trkpt><trkpt lat="41.286102258497515" lon="14.673356836585956"><ele>522.6666666666667</ele><time>2026-04-05T13:04:38.999Z</time></trkpt><trkpt lat="41.28606762713745" lon="14.673458597903505"><ele>522.5</ele><time>2026-04-05T13:04:39.999Z</time></trkpt><trkpt lat="41.28598030729809" lon="14.67353441701869"><ele>522.3333333333334</ele><time>2026-04-05T13:04:40.999Z</time></trkpt><trkpt lat="41.285897562871014" lon="14.673592928989313"><ele>522.1666666666666</ele><time>2026-04-05T13:04:41.999Z</time></trkpt><trkpt lat="41.28585948487145" lon="14.673683230614195"><ele>522.0</ele><time>2026-04-05T13:04:42.999Z</time></trkpt><trkpt lat="41.285839143601464" lon="14.67381472648846"><ele>520.75</ele><time>2026-04-05T13:04:43.999Z</time></trkpt><trkpt lat="41.28585203853536" lon="14.673996714013532"><ele>519.5</ele><time>2026-04-05T13:04:44.999Z</time></trkpt><trkpt lat="41.285861834442414" lon="14.674185512339664"><ele>518.25</ele><time>2026-04-05T13:04:45.999Z</time></trkpt><trkpt lat="41.28586740486429" lon="14.674352175894684"><ele>517.0</ele><time>2026-04-05T13:04:46.999Z</time></trkpt><trkpt lat="41.285866772857275" lon="14.674513924424174"><ele>515.25</ele><time>2026-04-05T13:04:47.999Z</time></trkpt><trkpt lat="41.285860257762295" lon="14.674667735207818"><ele>513.5</ele><time>2026-04-05T13:04:48.999Z</time></trkpt><trkpt lat="41.28585186373078" lon="14.674848920980963"><ele>511.75</ele><time>2026-04-05T13:04:49.999Z</time></trkpt><trkpt lat="41.28585248077085" lon="14.675032300369697"><ele>510.0</ele><time>2026-04-05T13:04:50.999Z</time></trkpt><trkpt lat="41.28583582802462" lon="14.675210256916928"><ele>508.0</ele><time>2026-04-05T13:04:51.999Z</time></trkpt><trkpt lat="41.28582299116425" lon="14.675386533893754"><ele>506.0</ele><time>2026-04-05T13:04:52.999Z</time></trkpt><trkpt lat="41.285795970104836" lon="14.675550281022957"><ele>504.0</ele><time>2026-04-05T13:04:53.999Z</time></trkpt><trkpt lat="41.28579500427861" lon="14.675722027802452"><ele>502.0</ele><time>2026-04-05T13:04:54.999Z</time></trkpt><trkpt lat="41.28588438815601" lon="14.676101466349047"><ele>501.25</ele><time>2026-04-05T13:04:56.999Z</time></trkpt><trkpt lat="41.285919311225456" lon="14.676267506108116"><ele>500.5</ele><time>2026-04-05T13:04:57.999Z</time></trkpt><trkpt lat="41.285949737416594" lon="14.676424149691442"><ele>499.75</ele><time>2026-04-05T13:04:58.999Z</time></trkpt><trkpt lat="41.28600207188005" lon="14.676574940583903"><ele>499.0</ele><time>2026-04-05T13:04:59.999Z</time></trkpt><trkpt lat="41.286090147433995" lon="14.676691137527177"><ele>499.0</ele><time>2026-04-05T13:05:00.999Z</time></trkpt><trkpt lat="41.28615726759624" lon="14.676810832103149"><ele>499.0</ele><time>2026-04-05T13:05:01.999Z</time></trkpt><trkpt lat="41.28618344575341" lon="14.676929272140686"><ele>499.0</ele><time>2026-04-05T13:05:02.999Z</time></trkpt><trkpt lat="41.28615840172449" lon="14.677084337679092"><ele>499.0</ele><time>2026-04-05T13:05:03.999Z</time></trkpt><trkpt lat="41.28612211371364" lon="14.6772681626683"><ele>499.25</ele><time>2026-04-05T13:05:04.999Z</time></trkpt><trkpt lat="41.28609353097675" lon="14.67742118116102"><ele>499.5</ele><time>2026-04-05T13:05:05.999Z</time></trkpt><trkpt lat="41.2860786802913" lon="14.67756099469731"><ele>499.75</ele><time>2026-04-05T13:05:06.999Z</time></trkpt><trkpt lat="41.286104930562814" lon="14.677727911031663"><ele>500.0</ele><time>2026-04-05T13:05:07.999Z</time></trkpt><trkpt lat="41.286177661951264" lon="14.677849187359394"><ele>500.0</ele><time>2026-04-05T13:05:08.999Z</time></trkpt><trkpt lat="41.28628701701235" lon="14.677928142158907"><ele>500.0</ele><time>2026-04-05T13:05:09.999Z</time></trkpt><trkpt lat="41.2864100354465" lon="14.677937754255135"><ele>500.0</ele><time>2026-04-05T13:05:10.999Z</time></trkpt><trkpt lat="41.286509819738974" lon="14.678002171955933"><ele>500.0</ele><time>2026-04-05T13:05:11.999Z</time></trkpt><trkpt lat="41.28658224555826" lon="14.678074563241465"><ele>500.0</ele><time>2026-04-05T13:05:12.999Z</time></trkpt><trkpt lat="41.28661745822925" lon="14.678182489619212"><ele>496.6</ele><time>2026-04-05T13:05:13.999Z</time></trkpt><trkpt lat="41.286625519442936" lon="14.678303426557825"><ele>493.2</ele><time>2026-04-05T13:05:14.999Z</time></trkpt><trkpt lat="41.28660698333434" lon="14.678447014730095"><ele>489.79999999999995</ele><time>2026-04-05T13:05:15.999Z</time></trkpt><trkpt lat="41.286602623496954" lon="14.678578876330747"><ele>486.4</ele><time>2026-04-05T13:05:16.999Z</time></trkpt><trkpt lat="41.2866272551785" lon="14.67871448019158"><ele>483.0</ele><time>2026-04-05T13:05:17.999Z</time></trkpt><trkpt lat="41.28668791028234" lon="14.678824995062332"><ele>482.6666666666667</ele><time>2026-04-05T13:05:18.999Z</time></trkpt><trkpt lat="41.286739968915846" lon="14.678890214508138"><ele>482.33333333333337</ele><time>2026-04-05T13:05:19.999Z</time></trkpt><trkpt lat="41.28682676331106" lon="14.678926901332314"><ele>482.0</ele><time>2026-04-05T13:05:21.999Z</time></trkpt><trkpt lat="41.286829501406906" lon="14.679044954326331"><ele>481.6666666666667</ele><time>2026-04-05T13:05:23.999Z</time></trkpt><trkpt lat="41.28682777913406" lon="14.679160217653331"><ele>481.33333333333337</ele><time>2026-04-05T13:05:24.999Z</time></trkpt><trkpt lat="41.28682009035673" lon="14.679284024304671"><ele>481.0</ele><time>2026-04-05T13:05:25.999Z</time></trkpt><trkpt lat="41.28679834048768" lon="14.679443952206398"><ele>479.6666666666667</ele><time>2026-04-05T13:05:26.999Z</time></trkpt><trkpt lat="41.28675838123232" lon="14.679646791327308"><ele>478.33333333333337</ele><time>2026-04-05T13:05:27.999Z</time></trkpt><trkpt lat="41.28670717548944" lon="14.679878568923066"><ele>477.0</ele><time>2026-04-05T13:05:28.999Z</time></trkpt><trkpt lat="41.28665210180489" lon="14.680154460791705"><ele>476.66666666666663</ele><time>2026-04-05T13:05:29.999Z</time></trkpt><trkpt lat="41.28658165332345" lon="14.680489784861418"><ele>476.3333333333333</ele><time>2026-04-05T13:05:30.999Z</time></trkpt><trkpt lat="41.286542577184036" lon="14.680657799021581"><ele>476.0</ele><time>2026-04-05T13:05:31.999Z</time></trkpt><trkpt lat="41.28647316989706" lon="14.680873969291632"><ele>476.66666666666663</ele><time>2026-04-05T13:05:32.999Z</time></trkpt><trkpt lat="41.28639226816739" lon="14.68102551684808"><ele>477.33333333333337</ele><time>2026-04-05T13:05:34.001Z</time></trkpt><trkpt lat="41.286258597575596" lon="14.681119104053804"><ele>478.0</ele><time>2026-04-05T13:05:35.001Z</time></trkpt><trkpt lat="41.286087673839404" lon="14.681196591841584"><ele>478.0</ele><time>2026-04-05T13:05:36.001Z</time></trkpt><trkpt lat="41.28589675978724" lon="14.68125726463082"><ele>478.0</ele><time>2026-04-05T13:05:37.001Z</time></trkpt><trkpt lat="41.28566716994678" lon="14.681276508284148"><ele>478.0</ele><time>2026-04-05T13:05:38.001Z</time></trkpt><trkpt lat="41.285411759171694" lon="14.681292468271053"><ele>481.5</ele><time>2026-04-05T13:05:39.001Z</time></trkpt><trkpt lat="41.285152186834395" lon="14.6813354267752"><ele>485.0</ele><time>2026-04-05T13:05:40.001Z</time></trkpt><trkpt lat="41.284889952430646" lon="14.681371159917603"><ele>489.0</ele><time>2026-04-05T13:05:41.001Z</time></trkpt><trkpt lat="41.28464821085047" lon="14.68145631247645"><ele>493.0</ele><time>2026-04-05T13:05:42.001Z</time></trkpt><trkpt lat="41.28441195961696" lon="14.681570172017624"><ele>493.0</ele><time>2026-04-05T13:05:43.001Z</time></trkpt><trkpt lat="41.284192853244114" lon="14.681698467155071"><ele>493.0</ele><time>2026-04-05T13:05:44.001Z</time></trkpt><trkpt lat="41.28398960368927" lon="14.681826366348574"><ele>494.6666666666667</ele><time>2026-04-05T13:05:45.001Z</time></trkpt><trkpt lat="41.28380862567832" lon="14.681944707956355"><ele>496.33333333333337</ele><time>2026-04-05T13:05:46.001Z</time></trkpt><trkpt lat="41.28365020674932" lon="14.682084989952017"><ele>498.0</ele><time>2026-04-05T13:05:47.001Z</time></trkpt><trkpt lat="41.28352049048068" lon="14.682280258334687"><ele>498.0</ele><time>2026-04-05T13:05:48Z</time></trkpt><trkpt lat="41.28341868867933" lon="14.682469615897046"><ele>498.0</ele><time>2026-04-05T13:05:49Z</time></trkpt><trkpt lat="41.283345529981574" lon="14.682615388880976"><ele>498.0</ele><time>2026-04-05T13:05:50Z</time></trkpt><trkpt lat="41.28326240225868" lon="14.682711918397846"><ele>498.0</ele><time>2026-04-05T13:05:51Z</time></trkpt><trkpt lat="41.28313020170002" lon="14.682723359071757"><ele>499.33333333333337</ele><time>2026-04-05T13:05:52Z</time></trkpt><trkpt lat="41.28298617029796" lon="14.682680324248325"><ele>500.6666666666667</ele><time>2026-04-05T13:05:53Z</time></trkpt><trkpt lat="41.282811789641315" lon="14.682616420547628"><ele>502.0</ele><time>2026-04-05T13:05:54Z</time></trkpt><trkpt lat="41.28265417921726" lon="14.682528745464758"><ele>502.0</ele><time>2026-04-05T13:05:55Z</time></trkpt><trkpt lat="41.282485752492896" lon="14.682409009356357"><ele>502.0</ele><time>2026-04-05T13:05:56Z</time></trkpt><trkpt lat="41.28230096771084" lon="14.682278632798276"><ele>502.0</ele><time>2026-04-05T13:05:57Z</time></trkpt><trkpt lat="41.28211006760111" lon="14.682113948377733"><ele>502.6666666666667</ele><time>2026-04-05T13:05:58Z</time></trkpt><trkpt lat="41.281927423794215" lon="14.6819463215882"><ele>503.33333333333337</ele><time>2026-04-05T13:05:59Z</time></trkpt><trkpt lat="41.281742553334205" lon="14.68183383937577"><ele>504.0</ele><time>2026-04-05T13:06:00Z</time></trkpt><trkpt lat="41.28159802808784" lon="14.681727175318334"><ele>506.25</ele><time>2026-04-05T13:06:01Z</time></trkpt><trkpt lat="41.28146931179606" lon="14.681690425405653"><ele>508.5</ele><time>2026-04-05T13:06:02Z</time></trkpt><trkpt lat="41.281338278289354" lon="14.681722833916485"><ele>510.75</ele><time>2026-04-05T13:06:03Z</time></trkpt><trkpt lat="41.281202480387094" lon="14.681819327925128"><ele>513.0</ele><time>2026-04-05T13:06:04Z</time></trkpt><trkpt lat="41.28108680399243" lon="14.6819572803286"><ele>514.0</ele><time>2026-04-05T13:06:05Z</time></trkpt><trkpt lat="41.28101248995691" lon="14.682129501209477"><ele>515.0</ele><time>2026-04-05T13:06:06Z</time></trkpt><trkpt lat="41.28097238498899" lon="14.682330034378726"><ele>516.0</ele><time>2026-04-05T13:06:07Z</time></trkpt><trkpt lat="41.280969847195344" lon="14.682517904108586"><ele>517.0</ele><time>2026-04-05T13:06:08Z</time></trkpt><trkpt lat="41.28097359292058" lon="14.682761378810225"><ele>514.75</ele><time>2026-04-05T13:06:09Z</time></trkpt><trkpt lat="41.280930396091904" lon="14.682914767943565"><ele>512.5</ele><time>2026-04-05T13:06:10Z</time></trkpt><trkpt lat="41.280884206312855" lon="14.68303390536185"><ele>510.25</ele><time>2026-04-05T13:06:11Z</time></trkpt><trkpt lat="41.28078622499395" lon="14.683123810418081"><ele>508.0</ele><time>2026-04-05T13:06:12Z</time></trkpt><trkpt lat="41.280631640995864" lon="14.683141121248946"><ele>509.33333333333337</ele><time>2026-04-05T13:06:13Z</time></trkpt><trkpt lat="41.28045659056762" lon="14.683121069323745"><ele>510.66666666666663</ele><time>2026-04-05T13:06:14Z</time></trkpt><trkpt lat="41.28027412153517" lon="14.683101028357367"><ele>512.0</ele><time>2026-04-05T13:06:15Z</time></trkpt><trkpt lat="41.28009124770893" lon="14.683088794822039"><ele>512.0</ele><time>2026-04-05T13:06:16Z</time></trkpt><trkpt lat="41.27990974549354" lon="14.683094927408014"><ele>512.0</ele><time>2026-04-05T13:06:17Z</time></trkpt><trkpt lat="41.27971117470387" lon="14.683124251950465"><ele>512.0</ele><time>2026-04-05T13:06:18Z</time></trkpt><trkpt lat="41.279500115811814" lon="14.68315039576511"><ele>511.66666666666663</ele><time>2026-04-05T13:06:19Z</time></trkpt><trkpt lat="41.279293577459825" lon="14.68310688484385"><ele>511.33333333333337</ele><time>2026-04-05T13:06:20Z</time></trkpt><trkpt lat="41.27908366420986" lon="14.683028908352572"><ele>511.0</ele><time>2026-04-05T13:06:21Z</time></trkpt><trkpt lat="41.27889167331953" lon="14.68291861980027"><ele>517.5</ele><time>2026-04-05T13:06:22Z</time></trkpt><trkpt lat="41.27867415311153" lon="14.682751633690414"><ele>524.0</ele><time>2026-04-05T13:06:23Z</time></trkpt><trkpt lat="41.278454474750674" lon="14.682585496759543"><ele>524.0</ele><time>2026-04-05T13:06:24Z</time></trkpt><trkpt lat="41.2782771532352" lon="14.682481540826828"><ele>524.0</ele><time>2026-04-05T13:06:25Z</time></trkpt><trkpt lat="41.27811755723387" lon="14.68242745319199"><ele>524.0</ele><time>2026-04-05T13:06:26Z</time></trkpt><trkpt lat="41.277947184410586" lon="14.682449526748004"><ele>524.3333333333333</ele><time>2026-04-05T13:06:27Z</time></trkpt><trkpt lat="41.27774534576198" lon="14.682512250607047"><ele>524.6666666666666</ele><time>2026-04-05T13:06:28Z</time></trkpt><trkpt lat="41.27752655467836" lon="14.682612416496642"><ele>525.0</ele><time>2026-04-05T13:06:28.999Z</time></trkpt><trkpt lat="41.27730819224731" lon="14.682679002914693"><ele>525.0</ele><time>2026-04-05T13:06:29.999Z</time></trkpt><trkpt lat="41.277110991367756" lon="14.682721659618856"><ele>525.0</ele><time>2026-04-05T13:06:30.999Z</time></trkpt><trkpt lat="41.2769041745359" lon="14.682747181503283"><ele>525.0</ele><time>2026-04-05T13:06:31.999Z</time></trkpt><trkpt lat="41.27670248876416" lon="14.682689816829956"><ele>525.0</ele><time>2026-04-05T13:06:32.999Z</time></trkpt><trkpt lat="41.27648574312512" lon="14.68266153559421"><ele>525.0</ele><time>2026-04-05T13:06:33.999Z</time></trkpt><trkpt lat="41.276297498169924" lon="14.682600458161915"><ele>525.0</ele><time>2026-04-05T13:06:34.999Z</time></trkpt><trkpt lat="41.27612734484374" lon="14.682516373250909"><ele>523.3333333333334</ele><time>2026-04-05T13:06:35.999Z</time></trkpt><trkpt lat="41.27598579021582" lon="14.682400719682537"><ele>521.6666666666667</ele><time>2026-04-05T13:06:36.999Z</time></trkpt><trkpt lat="41.275840043373854" lon="14.68226786523706"><ele>520.0</ele><time>2026-04-05T13:06:37.999Z</time></trkpt><trkpt lat="41.27569532159183" lon="14.682197607927979"><ele>521.0</ele><time>2026-04-05T13:06:38.999Z</time></trkpt><trkpt lat="41.275534238053226" lon="14.682210860183552"><ele>522.0</ele><time>2026-04-05T13:06:39.999Z</time></trkpt><trkpt lat="41.27535292131776" lon="14.68229617652512"><ele>523.0</ele><time>2026-04-05T13:06:40.999Z</time></trkpt><trkpt lat="41.27515999801421" lon="14.682389282147396"><ele>523.0</ele><time>2026-04-05T13:06:41.999Z</time></trkpt><trkpt lat="41.27498282738281" lon="14.682466854239271"><ele>523.0</ele><time>2026-04-05T13:06:42.999Z</time></trkpt><trkpt lat="41.274824278466504" lon="14.682576385549797"><ele>523.0</ele><time>2026-04-05T13:06:43.999Z</time></trkpt><trkpt lat="41.27467944541694" lon="14.682746587296819"><ele>524.6666666666667</ele><time>2026-04-05T13:06:44.999Z</time></trkpt><trkpt lat="41.27454846200559" lon="14.682996497553836"><ele>526.3333333333334</ele><time>2026-04-05T13:06:45.999Z</time></trkpt><trkpt lat="41.27442415600489" lon="14.68321571890969"><ele>528.0</ele><time>2026-04-05T13:06:46.999Z</time></trkpt><trkpt lat="41.27429836397464" lon="14.683391203035432"><ele>528.0</ele><time>2026-04-05T13:06:47.999Z</time></trkpt><trkpt lat="41.2741938162523" lon="14.683545271286437"><ele>528.0</ele><time>2026-04-05T13:06:48.999Z</time></trkpt><trkpt lat="41.27410270403821" lon="14.68367492075218"><ele>528.0</ele><time>2026-04-05T13:06:49.999Z</time></trkpt><trkpt lat="41.27400778298582" lon="14.68378518130434"><ele>528.0</ele><time>2026-04-05T13:06:50.999Z</time></trkpt><trkpt lat="41.27385534263667" lon="14.683827129961372"><ele>522.3333333333334</ele><time>2026-04-05T13:06:51.999Z</time></trkpt><trkpt lat="41.273688765252494" lon="14.683824506888666"><ele>516.6666666666667</ele><time>2026-04-05T13:06:52.999Z</time></trkpt><trkpt lat="41.27353869808249" lon="14.68377381477894"><ele>511.0</ele><time>2026-04-05T13:06:53.999Z</time></trkpt><trkpt lat="41.273389330108856" lon="14.683682117586978"><ele>513.3333333333334</ele><time>2026-04-05T13:06:54.999Z</time></trkpt><trkpt lat="41.273255580550504" lon="14.683563008589333"><ele>515.6666666666666</ele><time>2026-04-05T13:06:55.999Z</time></trkpt><trkpt lat="41.273117487394025" lon="14.683445588412452"><ele>518.0</ele><time>2026-04-05T13:06:56.999Z</time></trkpt><trkpt lat="41.27296405077449" lon="14.683339210732978"><ele>518.0</ele><time>2026-04-05T13:06:57.999Z</time></trkpt><trkpt lat="41.27279858486902" lon="14.683244518050005"><ele>518.0</ele><time>2026-04-05T13:06:58.999Z</time></trkpt><trkpt lat="41.272628281535475" lon="14.683159088141851"><ele>518.0</ele><time>2026-04-05T13:06:59.999Z</time></trkpt><trkpt lat="41.27247418186897" lon="14.68306962849812"><ele>518.0</ele><time>2026-04-05T13:07:00.999Z</time></trkpt><trkpt lat="41.27236364118336" lon="14.682999782821069"><ele>518.0</ele><time>2026-04-05T13:07:01.999Z</time></trkpt><trkpt lat="41.272278959254486" lon="14.682910997677329"><ele>518.0</ele><time>2026-04-05T13:07:02.999Z</time></trkpt><trkpt lat="41.27223786274116" lon="14.68278124706087"><ele>518.0</ele><time>2026-04-05T13:07:03.999Z</time></trkpt><trkpt lat="41.27227779753775" lon="14.68265073484746"><ele>518.0</ele><time>2026-04-05T13:07:04.999Z</time></trkpt><trkpt lat="41.272377448989154" lon="14.682531258751782"><ele>520.3333333333333</ele><time>2026-04-05T13:07:05.999Z</time></trkpt><trkpt lat="41.27249159326686" lon="14.682358276624132"><ele>522.6666666666666</ele><time>2026-04-05T13:07:06.999Z</time></trkpt><trkpt lat="41.27261989069258" lon="14.682187297707388"><ele>525.0</ele><time>2026-04-05T13:07:07.999Z</time></trkpt><trkpt lat="41.27273069876847" lon="14.682012888007932"><ele>523.75</ele><time>2026-04-05T13:07:08.999Z</time></trkpt><trkpt lat="41.27285787440266" lon="14.681831704551241"><ele>522.5</ele><time>2026-04-05T13:07:09.999Z</time></trkpt><trkpt lat="41.27295304674853" lon="14.681682080655548"><ele>521.25</ele><time>2026-04-05T13:07:10.999Z</time></trkpt><trkpt lat="41.2730061201402" lon="14.681561896388622"><ele>520.0</ele><time>2026-04-05T13:07:11.999Z</time></trkpt><trkpt lat="41.27301935283361" lon="14.681462234468698"><ele>520.0</ele><time>2026-04-05T13:07:12.999Z</time></trkpt><trkpt lat="41.273012798061394" lon="14.681376360168994"><ele>520.0</ele><time>2026-04-05T13:07:13.999Z</time></trkpt><trkpt lat="41.27288386863592" lon="14.68144920974159"><ele>520.0</ele><time>2026-04-05T13:07:17.999Z</time></trkpt><trkpt lat="41.272827340714755" lon="14.68155808525415"><ele>520.0</ele><time>2026-04-05T13:07:18.999Z</time></trkpt><trkpt lat="41.27276063505813" lon="14.681678760601871"><ele>520.0</ele><time>2026-04-05T13:07:19.999Z</time></trkpt><trkpt lat="41.27267380554137" lon="14.681791618134"><ele>520.0</ele><time>2026-04-05T13:07:20.999Z</time></trkpt><trkpt lat="41.272560276336186" lon="14.681904256705657"><ele>520.0</ele><time>2026-04-05T13:07:21.999Z</time></trkpt><trkpt lat="41.27243584671464" lon="14.682031097224575"><ele>520.0</ele><time>2026-04-05T13:07:22.999Z</time></trkpt><trkpt lat="41.27230910025815" lon="14.682133118358292"><ele>520.0</ele><time>2026-04-05T13:07:23.998Z</time></trkpt><trkpt lat="41.27219788441825" lon="14.682231597659028"><ele>517.0</ele><time>2026-04-05T13:07:24.998Z</time></trkpt><trkpt lat="41.27209765677004" lon="14.682354102524199"><ele>514.0</ele><time>2026-04-05T13:07:25.998Z</time></trkpt><trkpt lat="41.271997153581" lon="14.682510450006944"><ele>511.0</ele><time>2026-04-05T13:07:26.998Z</time></trkpt><trkpt lat="41.2718859157938" lon="14.682668018132796"><ele>510.25</ele><time>2026-04-05T13:07:27.998Z</time></trkpt><trkpt lat="41.27178041443228" lon="14.682805614274848"><ele>509.5</ele><time>2026-04-05T13:07:28.998Z</time></trkpt><trkpt lat="41.27166983797432" lon="14.682925420288651"><ele>508.75</ele><time>2026-04-05T13:07:29.998Z</time></trkpt><trkpt lat="41.271581887480416" lon="14.68304798372233"><ele>508.0</ele><time>2026-04-05T13:07:30.998Z</time></trkpt><trkpt lat="41.27151454136558" lon="14.683137152296785"><ele>508.0</ele><time>2026-04-05T13:07:31.998Z</time></trkpt><trkpt lat="41.271464282544" lon="14.683187633563302"><ele>507.99999999999994</ele><time>2026-04-05T13:07:32.998Z</time></trkpt><trkpt lat="41.27139460553788" lon="14.683148821249107"><ele>507.99999999999994</ele><time>2026-04-05T13:07:33.998Z</time></trkpt><trkpt lat="41.271288251707745" lon="14.683089014612477"><ele>508.0</ele><time>2026-04-05T13:07:34.998Z</time></trkpt><trkpt lat="41.27119936768461" lon="14.682989310785196"><ele>508.0</ele><time>2026-04-05T13:07:35.998Z</time></trkpt><trkpt lat="41.2711218246355" lon="14.68291402074079"><ele>504.59999999999997</ele><time>2026-04-05T13:07:36.998Z</time></trkpt><trkpt lat="41.27104385953999" lon="14.682863351777256"><ele>501.19999999999993</ele><time>2026-04-05T13:07:37.998Z</time></trkpt><trkpt lat="41.27097911121211" lon="14.682850106071253"><ele>497.8</ele><time>2026-04-05T13:07:38.998Z</time></trkpt><trkpt lat="41.27092347501692" lon="14.682893118511833"><ele>494.4</ele><time>2026-04-05T13:07:40Z</time></trkpt><trkpt lat="41.27092394418705" lon="14.683063096648226"><ele>491.0</ele><time>2026-04-05T13:07:42Z</time></trkpt><trkpt lat="41.271030513004646" lon="14.68312672652852"><ele>491.0</ele><time>2026-04-05T13:07:43Z</time></trkpt><trkpt lat="41.270933377910424" lon="14.683203482536575"><ele>491.0</ele><time>2026-04-05T13:07:47Z</time></trkpt><trkpt lat="41.27083509485186" lon="14.683164987894871"><ele>491.0</ele><time>2026-04-05T13:07:48Z</time></trkpt><trkpt lat="41.270727822021264" lon="14.683123979832198"><ele>491.0</ele><time>2026-04-05T13:07:49Z</time></trkpt><trkpt lat="41.270614129673866" lon="14.68310763018438"><ele>491.0</ele><time>2026-04-05T13:07:50Z</time></trkpt><trkpt lat="41.270493765281046" lon="14.683118186766801"><ele>487.5</ele><time>2026-04-05T13:07:51Z</time></trkpt><trkpt lat="41.27036212348369" lon="14.683141644071219"><ele>484.0</ele><time>2026-04-05T13:07:52Z</time></trkpt><trkpt lat="41.27022849998741" lon="14.68316363599246"><ele>480.5</ele><time>2026-04-05T13:07:53Z</time></trkpt><trkpt lat="41.27009525793261" lon="14.683173854998081"><ele>477.0</ele><time>2026-04-05T13:07:54Z</time></trkpt><trkpt lat="41.26996186824492" lon="14.683170030039893"><ele>477.0</ele><time>2026-04-05T13:07:55Z</time></trkpt><trkpt lat="41.269838158006166" lon="14.683140524769124"><ele>477.0</ele><time>2026-04-05T13:07:56Z</time></trkpt><trkpt lat="41.26971445144208" lon="14.683092524057342"><ele>477.0</ele><time>2026-04-05T13:07:57Z</time></trkpt><trkpt lat="41.26957723628314" lon="14.683081472601168"><ele>477.0</ele><time>2026-04-05T13:07:58Z</time></trkpt><trkpt lat="41.26943143583709" lon="14.683101107400741"><ele>474.25</ele><time>2026-04-05T13:07:59Z</time></trkpt><trkpt lat="41.26929390477665" lon="14.683134286661593"><ele>471.5</ele><time>2026-04-05T13:08:00Z</time></trkpt><trkpt lat="41.26916710454242" lon="14.683164298761"><ele>468.75</ele><time>2026-04-05T13:08:01Z</time></trkpt><trkpt lat="41.269044138998055" lon="14.683184957131951"><ele>466.0</ele><time>2026-04-05T13:08:02Z</time></trkpt><trkpt lat="41.26892803167512" lon="14.683219499703402"><ele>465.0</ele><time>2026-04-05T13:08:03Z</time></trkpt><trkpt lat="41.26881603241101" lon="14.683258382776003"><ele>464.0</ele><time>2026-04-05T13:08:04Z</time></trkpt><trkpt lat="41.26870740078122" lon="14.68328970187549"><ele>463.0</ele><time>2026-04-05T13:08:05Z</time></trkpt><trkpt lat="41.26859420151838" lon="14.683304864068079"><ele>462.0</ele><time>2026-04-05T13:08:06Z</time></trkpt><trkpt lat="41.268490764969044" lon="14.683315218572803"><ele>461.0</ele><time>2026-04-05T13:08:07Z</time></trkpt><trkpt lat="41.26839850138185" lon="14.683307622564417"><ele>461.0</ele><time>2026-04-05T13:08:08Z</time></trkpt><trkpt lat="41.26829507990035" lon="14.683284872438376"><ele>461.0</ele><time>2026-04-05T13:08:09Z</time></trkpt><trkpt lat="41.26818630149374" lon="14.683298461339383"><ele>461.0</ele><time>2026-04-05T13:08:10Z</time></trkpt><trkpt lat="41.268079665063354" lon="14.683298949554482"><ele>461.0</ele><time>2026-04-05T13:08:11Z</time></trkpt><trkpt lat="41.267973138980885" lon="14.683328146668575"><ele>461.0</ele><time>2026-04-05T13:08:12Z</time></trkpt><trkpt lat="41.267874184343945" lon="14.683388068342555"><ele>460.75</ele><time>2026-04-05T13:08:13Z</time></trkpt><trkpt lat="41.26777576507596" lon="14.683487261504146"><ele>460.5</ele><time>2026-04-05T13:08:14Z</time></trkpt><trkpt lat="41.26768845131139" lon="14.68360802580891"><ele>460.25</ele><time>2026-04-05T13:08:15Z</time></trkpt><trkpt lat="41.26760257733367" lon="14.683732511689989"><ele>460.0</ele><time>2026-04-05T13:08:16Z</time></trkpt><trkpt lat="41.267542406839446" lon="14.683858760685466"><ele>458.75</ele><time>2026-04-05T13:08:17Z</time></trkpt><trkpt lat="41.26747014756238" lon="14.683966491231834"><ele>457.5</ele><time>2026-04-05T13:08:18Z</time></trkpt><trkpt lat="41.26738034929149" lon="14.684021642327513"><ele>456.25</ele><time>2026-04-05T13:08:19Z</time></trkpt><trkpt lat="41.267257677409646" lon="14.684051629586518"><ele>455.0</ele><time>2026-04-05T13:08:20Z</time></trkpt><trkpt lat="41.26711610777045" lon="14.684062677521837"><ele>454.66666666666663</ele><time>2026-04-05T13:08:21Z</time></trkpt><trkpt lat="41.26696147078098" lon="14.684113573475761"><ele>454.33333333333337</ele><time>2026-04-05T13:08:22Z</time></trkpt><trkpt lat="41.26678158201338" lon="14.684164969366439"><ele>454.0</ele><time>2026-04-05T13:08:23Z</time></trkpt><trkpt lat="41.266624497093574" lon="14.684191293971198"><ele>454.0</ele><time>2026-04-05T13:08:24Z</time></trkpt><trkpt lat="41.266476603365426" lon="14.684213240651715"><ele>454.0</ele><time>2026-04-05T13:08:25Z</time></trkpt><trkpt lat="41.266346300247974" lon="14.68426138646212"><ele>454.0</ele><time>2026-04-05T13:08:26Z</time></trkpt><trkpt lat="41.26620359045763" lon="14.684353879627801"><ele>454.0</ele><time>2026-04-05T13:08:27Z</time></trkpt><trkpt lat="41.266083056905714" lon="14.684445599098353"><ele>450.0</ele><time>2026-04-05T13:08:27.999Z</time></trkpt><trkpt lat="41.26599208191658" lon="14.684575385048841"><ele>446.0</ele><time>2026-04-05T13:08:28.999Z</time></trkpt><trkpt lat="41.265919869595486" lon="14.684737987487466"><ele>442.0</ele><time>2026-04-05T13:08:29.999Z</time></trkpt><trkpt lat="41.26587091243516" lon="14.684920273584254"><ele>438.0</ele><time>2026-04-05T13:08:30.999Z</time></trkpt><trkpt lat="41.26584281501444" lon="14.685118442166532"><ele>437.0</ele><time>2026-04-05T13:08:31.999Z</time></trkpt><trkpt lat="41.26584608575201" lon="14.685329163708454"><ele>436.0</ele><time>2026-04-05T13:08:32.999Z</time></trkpt><trkpt lat="41.26584531720551" lon="14.685537362268146"><ele>435.0</ele><time>2026-04-05T13:08:33.999Z</time></trkpt><trkpt lat="41.265839708663144" lon="14.685729825894718"><ele>435.0</ele><time>2026-04-05T13:08:34.999Z</time></trkpt><trkpt lat="41.26582081883241" lon="14.68590662524408"><ele>435.0</ele><time>2026-04-05T13:08:35.999Z</time></trkpt><trkpt lat="41.265792362917914" lon="14.686094857607825"><ele>435.0</ele><time>2026-04-05T13:08:36.999Z</time></trkpt><trkpt lat="41.2657654054175" lon="14.68627893045137"><ele>435.0</ele><time>2026-04-05T13:08:37.999Z</time></trkpt><trkpt lat="41.265741180524024" lon="14.68646635453581"><ele>435.25</ele><time>2026-04-05T13:08:38.999Z</time></trkpt><trkpt lat="41.26572288968199" lon="14.686646943369396"><ele>435.5</ele><time>2026-04-05T13:08:39.999Z</time></trkpt><trkpt lat="41.26571355145067" lon="14.686829645623808"><ele>435.75</ele><time>2026-04-05T13:08:40.999Z</time></trkpt><trkpt lat="41.26571447277915" lon="14.687008665318814"><ele>436.0</ele><time>2026-04-05T13:08:41.999Z</time></trkpt><trkpt lat="41.26571901083003" lon="14.687176160899686"><ele>435.4</ele><time>2026-04-05T13:08:42.999Z</time></trkpt><trkpt lat="41.26571820742229" lon="14.687329059742448"><ele>434.8</ele><time>2026-04-05T13:08:43.999Z</time></trkpt><trkpt lat="41.265704119587355" lon="14.68745562894025"><ele>434.19999999999993</ele><time>2026-04-05T13:08:44.999Z</time></trkpt><trkpt lat="41.265684653239404" lon="14.687558348075543"><ele>433.59999999999997</ele><time>2026-04-05T13:08:45.999Z</time></trkpt><trkpt lat="41.26559531772017" lon="14.687627932656468"><ele>433.0</ele><time>2026-04-05T13:08:46.999Z</time></trkpt><trkpt lat="41.265483587904654" lon="14.68770434986072"><ele>433.0</ele><time>2026-04-05T13:08:47.999Z</time></trkpt><trkpt lat="41.26535847613088" lon="14.687748993826588"><ele>433.0</ele><time>2026-04-05T13:08:48.999Z</time></trkpt><trkpt lat="41.265240221179724" lon="14.687782948385331"><ele>433.0</ele><time>2026-04-05T13:08:49.999Z</time></trkpt><trkpt lat="41.265128035779405" lon="14.687761798742173"><ele>433.0</ele><time>2026-04-05T13:08:50.999Z</time></trkpt><trkpt lat="41.26503675915355" lon="14.687681768216407"><ele>433.0</ele><time>2026-04-05T13:08:51.999Z</time></trkpt><trkpt lat="41.26494164282372" lon="14.687561970549838"><ele>433.0</ele><time>2026-04-05T13:08:52.999Z</time></trkpt><trkpt lat="41.264844056639646" lon="14.687443023816808"><ele>433.0</ele><time>2026-04-05T13:08:53.999Z</time></trkpt><trkpt lat="41.26472443768008" lon="14.687401417639386"><ele>433.0</ele><time>2026-04-05T13:08:54.999Z</time></trkpt><trkpt lat="41.264597806321134" lon="14.687386588609419"><ele>431.0</ele><time>2026-04-05T13:08:55.999Z</time></trkpt><trkpt lat="41.26445397788316" lon="14.68741301551787"><ele>429.0</ele><time>2026-04-05T13:08:56.999Z</time></trkpt><trkpt lat="41.26429924757166" lon="14.687440906326612"><ele>427.0</ele><time>2026-04-05T13:08:57.999Z</time></trkpt><trkpt lat="41.26415978272099" lon="14.687452294552346"><ele>425.0</ele><time>2026-04-05T13:08:58.999Z</time></trkpt><trkpt lat="41.26403167196045" lon="14.687463666836182"><ele>423.2</ele><time>2026-04-05T13:08:59.999Z</time></trkpt><trkpt lat="41.26391537891611" lon="14.687469338303867"><ele>421.4</ele><time>2026-04-05T13:09:00.999Z</time></trkpt><trkpt lat="41.26380673524196" lon="14.68744786354003"><ele>419.6</ele><time>2026-04-05T13:09:01.999Z</time></trkpt><trkpt lat="41.26371109696238" lon="14.687412070880217"><ele>417.8</ele><time>2026-04-05T13:09:02.999Z</time></trkpt><trkpt lat="41.26363632343711" lon="14.687409838863552"><ele>416.0</ele><time>2026-04-05T13:09:03.999Z</time></trkpt><trkpt lat="41.2635795094787" lon="14.687483642665216"><ele>416.0</ele><time>2026-04-05T13:09:04.999Z</time></trkpt><trkpt lat="41.26353234439944" lon="14.687622147231952"><ele>416.0</ele><time>2026-04-05T13:09:05.999Z</time></trkpt><trkpt lat="41.26345634818203" lon="14.687775933763266"><ele>416.0</ele><time>2026-04-05T13:09:06.999Z</time></trkpt><trkpt lat="41.26339076284239" lon="14.68795725914814"><ele>416.0</ele><time>2026-04-05T13:09:07.999Z</time></trkpt><trkpt lat="41.26332572212865" lon="14.688130444010241"><ele>416.0</ele><time>2026-04-05T13:09:08.999Z</time></trkpt><trkpt lat="41.26326680862183" lon="14.688297669053952"><ele>416.0</ele><time>2026-04-05T13:09:09.999Z</time></trkpt><trkpt lat="41.263208394977354" lon="14.68844875087752"><ele>416.0</ele><time>2026-04-05T13:09:10.999Z</time></trkpt><trkpt lat="41.26311214842751" lon="14.688563041133545"><ele>416.0</ele><time>2026-04-05T13:09:11.999Z</time></trkpt><trkpt lat="41.2629880703225" lon="14.688633731063655"><ele>414.3333333333333</ele><time>2026-04-05T13:09:12.999Z</time></trkpt><trkpt lat="41.262842024778905" lon="14.688692739839816"><ele>412.66666666666663</ele><time>2026-04-05T13:09:13.999Z</time></trkpt><trkpt lat="41.26268509183587" lon="14.688731500272114"><ele>411.0</ele><time>2026-04-05T13:09:14.999Z</time></trkpt><trkpt lat="41.26254219924471" lon="14.688762195495487"><ele>411.0</ele><time>2026-04-05T13:09:15.999Z</time></trkpt><trkpt lat="41.262399777087744" lon="14.68877661678751"><ele>411.0</ele><time>2026-04-05T13:09:16.999Z</time></trkpt><trkpt lat="41.26226540703038" lon="14.688755120880954"><ele>411.0</ele><time>2026-04-05T13:09:17.999Z</time></trkpt><trkpt lat="41.262128456498395" lon="14.688698620304423"><ele>411.0</ele><time>2026-04-05T13:09:18.999Z</time></trkpt><trkpt lat="41.26198371519986" lon="14.688607129891038"><ele>406.5</ele><time>2026-04-05T13:09:19.999Z</time></trkpt><trkpt lat="41.26185324833397" lon="14.688513406429626"><ele>402.0</ele><time>2026-04-05T13:09:20.999Z</time></trkpt><trkpt lat="41.261725932864024" lon="14.68841972615319"><ele>397.5</ele><time>2026-04-05T13:09:21.998Z</time></trkpt><trkpt lat="41.2616101843004" lon="14.688341601517443"><ele>393.0</ele><time>2026-04-05T13:09:22.998Z</time></trkpt><trkpt lat="41.2615024126813" lon="14.688298648197078"><ele>389.5</ele><time>2026-04-05T13:09:23.998Z</time></trkpt><trkpt lat="41.26138976616095" lon="14.68830493997831"><ele>386.0</ele><time>2026-04-05T13:09:24.998Z</time></trkpt><trkpt lat="41.26128265646018" lon="14.688386301560966"><ele>382.5</ele><time>2026-04-05T13:09:25.998Z</time></trkpt><trkpt lat="41.261172226246714" lon="14.68851612259119"><ele>379.0</ele><time>2026-04-05T13:09:26.998Z</time></trkpt><trkpt lat="41.26106603027791" lon="14.688673843293982"><ele>379.0</ele><time>2026-04-05T13:09:27.998Z</time></trkpt><trkpt lat="41.260992160931416" lon="14.688825794519362"><ele>379.0</ele><time>2026-04-05T13:09:28.998Z</time></trkpt><trkpt lat="41.26094891785628" lon="14.688984945589873"><ele>379.0</ele><time>2026-04-05T13:09:29.998Z</time></trkpt><trkpt lat="41.260937713726314" lon="14.689160072159376"><ele>379.0</ele><time>2026-04-05T13:09:30.998Z</time></trkpt><trkpt lat="41.26093441816076" lon="14.689338383080965"><ele>376.25</ele><time>2026-04-05T13:09:31.998Z</time></trkpt><trkpt lat="41.260950889956774" lon="14.68951679663068"><ele>373.5</ele><time>2026-04-05T13:09:32.998Z</time></trkpt><trkpt lat="41.260998468216414" lon="14.68967764891248"><ele>370.75</ele><time>2026-04-05T13:09:33.998Z</time></trkpt><trkpt lat="41.261078892655036" lon="14.689836477485015"><ele>368.0</ele><time>2026-04-05T13:09:34.998Z</time></trkpt><trkpt lat="41.261156338548176" lon="14.690001513254284"><ele>368.0</ele><time>2026-04-05T13:09:35.998Z</time></trkpt><trkpt lat="41.26122517656496" lon="14.690162984174686"><ele>368.0</ele><time>2026-04-05T13:09:36.998Z</time></trkpt><trkpt lat="41.26128396413715" lon="14.690308690203931"><ele>368.0</ele><time>2026-04-05T13:09:37.998Z</time></trkpt><trkpt lat="41.261324326238714" lon="14.690439106043476"><ele>368.0</ele><time>2026-04-05T13:09:38.998Z</time></trkpt><trkpt lat="41.26133812327902" lon="14.690578818141262"><ele>366.0</ele><time>2026-04-05T13:09:39.998Z</time></trkpt><trkpt lat="41.261311656984574" lon="14.69072645082254"><ele>364.0</ele><time>2026-04-05T13:09:40.998Z</time></trkpt><trkpt lat="41.26125702177738" lon="14.690890217770056"><ele>362.0</ele><time>2026-04-05T13:09:41.998Z</time></trkpt><trkpt lat="41.261207563498566" lon="14.691068565897275"><ele>360.0</ele><time>2026-04-05T13:09:42.998Z</time></trkpt><trkpt lat="41.261181826196626" lon="14.691220442497869"><ele>359.4</ele><time>2026-04-05T13:09:43.998Z</time></trkpt><trkpt lat="41.261183043166554" lon="14.691345509963613"><ele>358.8</ele><time>2026-04-05T13:09:44.998Z</time></trkpt><trkpt lat="41.26119514316396" lon="14.691453870483103"><ele>358.20000000000005</ele><time>2026-04-05T13:09:47Z</time></trkpt><trkpt lat="41.261137133649314" lon="14.69141380431801"><ele>357.6</ele><time>2026-04-05T13:09:51Z</time></trkpt><trkpt lat="41.261113474424846" lon="14.691272070408578"><ele>357.0</ele><time>2026-04-05T13:09:52Z</time></trkpt><trkpt lat="41.26109868050196" lon="14.691135938246859"><ele>357.6</ele><time>2026-04-05T13:09:53Z</time></trkpt><trkpt lat="41.26111410198675" lon="14.690982186355185"><ele>358.20000000000005</ele><time>2026-04-05T13:09:54Z</time></trkpt><trkpt lat="41.261105609580156" lon="14.690877138869261"><ele>358.8</ele><time>2026-04-05T13:09:55Z</time></trkpt><trkpt lat="41.26108736142622" lon="14.690756794197974"><ele>359.4</ele><time>2026-04-05T13:09:56Z</time></trkpt><trkpt lat="41.26106361355823" lon="14.690644713924204"><ele>360.0</ele><time>2026-04-05T13:09:57Z</time></trkpt><trkpt lat="41.26102464529599" lon="14.690536317784359"><ele>360.0</ele><time>2026-04-05T13:09:58Z</time></trkpt><trkpt lat="41.26098337303739" lon="14.690444309590566"><ele>360.0</ele><time>2026-04-05T13:09:59Z</time></trkpt><trkpt lat="41.2609435856727" lon="14.690370222226852"><ele>360.0</ele><time>2026-04-05T13:10:00Z</time></trkpt><trkpt lat="41.260863239234816" lon="14.690341418657344"><ele>360.0</ele><time>2026-04-05T13:10:02Z</time></trkpt><trkpt lat="41.26077943594381" lon="14.690531170184382"><ele>360.0</ele><time>2026-04-05T13:10:04Z</time></trkpt><trkpt lat="41.260789068372645" lon="14.690737180421134"><ele>360.0</ele><time>2026-04-05T13:10:05Z</time></trkpt><trkpt lat="41.26079894312196" lon="14.690944384603652"><ele>360.0</ele><time>2026-04-05T13:10:06Z</time></trkpt><trkpt lat="41.260799560482226" lon="14.69112335784565"><ele>360.0</ele><time>2026-04-05T13:10:07Z</time></trkpt><trkpt lat="41.26080283293802" lon="14.69128065306967"><ele>360.0</ele><time>2026-04-05T13:10:08Z</time></trkpt><trkpt lat="41.260802943115614" lon="14.691426271066705"><ele>359.4</ele><time>2026-04-05T13:10:09Z</time></trkpt><trkpt lat="41.26079422135547" lon="14.69156075108163"><ele>358.8</ele><time>2026-04-05T13:10:10Z</time></trkpt><trkpt lat="41.26076490119169" lon="14.691685004046114"><ele>358.20000000000005</ele><time>2026-04-05T13:10:11Z</time></trkpt><trkpt lat="41.26069639521854" lon="14.69177017042933"><ele>357.6</ele><time>2026-04-05T13:10:12Z</time></trkpt><trkpt lat="41.26060440712233" lon="14.69187606694717"><ele>357.0</ele><time>2026-04-05T13:10:13Z</time></trkpt><trkpt lat="41.2605458797183" lon="14.692001850378984"><ele>354.20000000000005</ele><time>2026-04-05T13:10:14Z</time></trkpt><trkpt lat="41.260499588711745" lon="14.69211875033486"><ele>351.4</ele><time>2026-04-05T13:10:15Z</time></trkpt><trkpt lat="41.260470799133316" lon="14.692221217882777"><ele>348.6</ele><time>2026-04-05T13:10:16Z</time></trkpt><trkpt lat="41.2604843412411" lon="14.692324990134303"><ele>345.79999999999995</ele><time>2026-04-05T13:10:17Z</time></trkpt><trkpt lat="41.26057285436676" lon="14.692424949427142"><ele>343.0</ele><time>2026-04-05T13:10:18Z</time></trkpt><trkpt lat="41.26072520297101" lon="14.692424766704624"><ele>343.0</ele><time>2026-04-05T13:10:19Z</time></trkpt><trkpt lat="41.26085038943006" lon="14.692475779552188"><ele>343.0</ele><time>2026-04-05T13:10:20Z</time></trkpt><trkpt lat="41.260977886161385" lon="14.692525158941596"><ele>343.0</ele><time>2026-04-05T13:10:21Z</time></trkpt><trkpt lat="41.26109802524113" lon="14.692555590580808"><ele>343.0</ele><time>2026-04-05T13:10:22Z</time></trkpt><trkpt lat="41.26120239685041" lon="14.6925506213093"><ele>343.0</ele><time>2026-04-05T13:10:23Z</time></trkpt><trkpt lat="41.26128188779968" lon="14.692544722889334"><ele>343.0</ele><time>2026-04-05T13:10:24Z</time></trkpt><trkpt lat="41.26135683390072" lon="14.692549114389122"><ele>343.0</ele><time>2026-04-05T13:10:25Z</time></trkpt><trkpt lat="41.2613673173387" lon="14.692643024956402"><ele>343.0</ele><time>2026-04-05T13:10:27.999Z</time></trkpt><trkpt lat="41.261307429936544" lon="14.692677217546406"><ele>343.0</ele><time>2026-04-05T13:10:28.999Z</time></trkpt><trkpt lat="41.261216953539574" lon="14.692671279623704"><ele>343.0</ele><time>2026-04-05T13:10:29.999Z</time></trkpt><trkpt lat="41.261133757284334" lon="14.692693789669311"><ele>343.0</ele><time>2026-04-05T13:10:30.999Z</time></trkpt><trkpt lat="41.2610642012026" lon="14.692698116467822"><ele>343.0</ele><time>2026-04-05T13:10:31.999Z</time></trkpt><trkpt lat="41.2609712556581" lon="14.692705338740474"><ele>343.0</ele><time>2026-04-05T13:10:33.999Z</time></trkpt><trkpt lat="41.26095426839884" lon="14.692902473423198"><ele>343.0</ele><time>2026-04-05T13:10:36.999Z</time></trkpt><trkpt lat="41.260964851864884" lon="14.69300880592452"><ele>343.0</ele><time>2026-04-05T13:10:37.999Z</time></trkpt><trkpt lat="41.26097563136789" lon="14.693116317345797"><ele>340.0</ele><time>2026-04-05T13:10:38.999Z</time></trkpt><trkpt lat="41.26098958789638" lon="14.693219731436965"><ele>337.0</ele><time>2026-04-05T13:10:39.999Z</time></trkpt><trkpt lat="41.26101834616269" lon="14.693305856186445"><ele>334.0</ele><time>2026-04-05T13:10:40.999Z</time></trkpt><trkpt lat="41.26107006452315" lon="14.693395487330118"><ele>331.0</ele><time>2026-04-05T13:10:41.999Z</time></trkpt><trkpt lat="41.26114623207537" lon="14.693467998191458"><ele>328.0</ele><time>2026-04-05T13:10:42.999Z</time></trkpt><trkpt lat="41.26124058582865" lon="14.693537384069549"><ele>325.0</ele><time>2026-04-05T13:10:43.999Z</time></trkpt><trkpt lat="41.261329742202804" lon="14.69361233590562"><ele>323.2</ele><time>2026-04-05T13:10:44.999Z</time></trkpt><trkpt lat="41.26140385056104" lon="14.69370563975224"><ele>321.4</ele><time>2026-04-05T13:10:45.999Z</time></trkpt><trkpt lat="41.26147646360144" lon="14.693810075890656"><ele>319.6</ele><time>2026-04-05T13:10:46.999Z</time></trkpt><trkpt lat="41.26154795104364" lon="14.69392278266011"><ele>317.8</ele><time>2026-04-05T13:10:47.999Z</time></trkpt><trkpt lat="41.261618242649824" lon="14.69403302672329"><ele>316.0</ele><time>2026-04-05T13:10:48.999Z</time></trkpt><trkpt lat="41.26168239428989" lon="14.69414302180331"><ele>316.0</ele><time>2026-04-05T13:10:49.999Z</time></trkpt><trkpt lat="41.26172703758249" lon="14.694248305228232"><ele>316.0</ele><time>2026-04-05T13:10:50.999Z</time></trkpt><trkpt lat="41.261738000667386" lon="14.694364134294512"><ele>316.0</ele><time>2026-04-05T13:10:51.999Z</time></trkpt><trkpt lat="41.26172871355949" lon="14.694501488144892"><ele>316.0</ele><time>2026-04-05T13:10:52.999Z</time></trkpt><trkpt lat="41.26170374722005" lon="14.694640154892626"><ele>316.0</ele><time>2026-04-05T13:10:53.999Z</time></trkpt><trkpt lat="41.26166487998653" lon="14.694766374013646"><ele>313.2</ele><time>2026-04-05T13:10:54.999Z</time></trkpt><trkpt lat="41.26161962928533" lon="14.694876684874284"><ele>310.40000000000003</ele><time>2026-04-05T13:10:55.999Z</time></trkpt><trkpt lat="41.26157750990206" lon="14.69496773228516"><ele>307.6</ele><time>2026-04-05T13:10:56.999Z</time></trkpt><trkpt lat="41.2615411439289" lon="14.695046655516853"><ele>304.8</ele><time>2026-04-05T13:10:57.999Z</time></trkpt><trkpt lat="41.2614829034756" lon="14.695178778755494"><ele>302.0</ele><time>2026-04-05T13:10:59.999Z</time></trkpt><trkpt lat="41.26143057165142" lon="14.695311796530278"><ele>300.4</ele><time>2026-04-05T13:11:01.999Z</time></trkpt><trkpt lat="41.261383477353036" lon="14.695494575714505"><ele>298.79999999999995</ele><time>2026-04-05T13:11:03.999Z</time></trkpt><trkpt lat="41.261363375097176" lon="14.695593879902413"><ele>297.2</ele><time>2026-04-05T13:11:04.999Z</time></trkpt><trkpt lat="41.26134345248142" lon="14.695689369262753"><ele>295.59999999999997</ele><time>2026-04-05T13:11:05.999Z</time></trkpt><trkpt lat="41.26129151351596" lon="14.695823727764802"><ele>294.0</ele><time>2026-04-05T13:11:07.999Z</time></trkpt><trkpt lat="41.26119216365186" lon="14.69581351635354"><ele>294.0</ele><time>2026-04-05T13:11:08.999Z</time></trkpt><trkpt lat="41.26110482966541" lon="14.695870572532199"><ele>294.0</ele><time>2026-04-05T13:11:10.999Z</time></trkpt><trkpt lat="41.2610142132085" lon="14.695975137491688"><ele>294.0</ele><time>2026-04-05T13:11:12.999Z</time></trkpt><trkpt lat="41.26099221075359" lon="14.69606069632951"><ele>294.0</ele><time>2026-04-05T13:11:13.999Z</time></trkpt><trkpt lat="41.26101158656863" lon="14.696156161036832"><ele>294.0</ele><time>2026-04-05T13:11:14.999Z</time></trkpt><trkpt lat="41.26106393591425" lon="14.696221793060966"><ele>294.0</ele><time>2026-04-05T13:11:15.999Z</time></trkpt><trkpt lat="41.26108948874936" lon="14.696305555595742"><ele>291.75</ele><time>2026-04-05T13:11:17.999Z</time></trkpt><trkpt lat="41.261214263238664" lon="14.696448818563395"><ele>289.5</ele><time>2026-04-05T13:11:19.999Z</time></trkpt><trkpt lat="41.2612840728702" lon="14.696482325206025"><ele>287.25</ele><time>2026-04-05T13:11:20.999Z</time></trkpt><trkpt lat="41.26142012133888" lon="14.696455183672109"><ele>285.0</ele><time>2026-04-05T13:11:22.999Z</time></trkpt><trkpt lat="41.26145103513687" lon="14.69633454952094"><ele>284.8333333333333</ele><time>2026-04-05T13:11:23.998Z</time></trkpt><trkpt lat="41.26148606008212" lon="14.696248627021944"><ele>284.6666666666667</ele><time>2026-04-05T13:11:24.998Z</time></trkpt><trkpt lat="41.261553338386044" lon="14.696118026870604"><ele>284.5</ele><time>2026-04-05T13:11:26.998Z</time></trkpt><trkpt lat="41.26161052858729" lon="14.696058546652282"><ele>284.33333333333337</ele><time>2026-04-05T13:11:27.998Z</time></trkpt><trkpt lat="41.26168310735747" lon="14.696014616354505"><ele>284.1666666666667</ele><time>2026-04-05T13:11:28.998Z</time></trkpt><trkpt lat="41.26175073153663" lon="14.696047957297912"><ele>284.0</ele><time>2026-04-05T13:11:29.998Z</time></trkpt><trkpt lat="41.26182781872075" lon="14.696056565995864"><ele>284.0</ele><time>2026-04-05T13:11:30.998Z</time></trkpt><trkpt lat="41.26188471800508" lon="14.696119429151565"><ele>284.0</ele><time>2026-04-05T13:11:31.998Z</time></trkpt><trkpt lat="41.261947415219154" lon="14.696188273307802"><ele>284.0</ele><time>2026-04-05T13:11:32.998Z</time></trkpt><trkpt lat="41.2619762705165" lon="14.696303924789154"><ele>284.0</ele><time>2026-04-05T13:11:33.998Z</time></trkpt><trkpt lat="41.26198322558374" lon="14.696394196277362"><ele>284.0</ele><time>2026-04-05T13:11:34.998Z</time></trkpt><trkpt lat="41.262014130111886" lon="14.696566448786294"><ele>284.0</ele><time>2026-04-05T13:11:36.998Z</time></trkpt><trkpt lat="41.26203491768387" lon="14.696672614690051"><ele>284.0</ele><time>2026-04-05T13:11:37.998Z</time></trkpt><trkpt lat="41.26206234714658" lon="14.696812702111338"><ele>284.0</ele><time>2026-04-05T13:11:38.998Z</time></trkpt><trkpt lat="41.26208740017862" lon="14.69694065268761"><ele>284.0</ele><time>2026-04-05T13:11:39.998Z</time></trkpt><trkpt lat="41.26210799160071" lon="14.6970570396041"><ele>284.0</ele><time>2026-04-05T13:11:40.998Z</time></trkpt><trkpt lat="41.26210925795627" lon="14.6971561553841"><ele>284.0</ele><time>2026-04-05T13:11:41.998Z</time></trkpt><trkpt lat="41.262076026707376" lon="14.697291054979186"><ele>282.5</ele><time>2026-04-05T13:11:42.998Z</time></trkpt><trkpt lat="41.262030083838255" lon="14.697429123964977"><ele>281.0</ele><time>2026-04-05T13:11:43.998Z</time></trkpt><trkpt lat="41.26195484210196" lon="14.69754880183266"><ele>279.5</ele><time>2026-04-05T13:11:44.998Z</time></trkpt><trkpt lat="41.261857996230916" lon="14.697654960696624"><ele>278.0</ele><time>2026-04-05T13:11:45.998Z</time></trkpt><trkpt lat="41.26178413495661" lon="14.697755322319198"><ele>276.25</ele><time>2026-04-05T13:11:46.998Z</time></trkpt><trkpt lat="41.2617238666824" lon="14.697888338810797"><ele>274.5</ele><time>2026-04-05T13:11:47.998Z</time></trkpt><trkpt lat="41.26168422937719" lon="14.698030551468744"><ele>272.75</ele><time>2026-04-05T13:11:48.998Z</time></trkpt><trkpt lat="41.26168581483699" lon="14.698189392147444"><ele>271.0</ele><time>2026-04-05T13:11:49.998Z</time></trkpt><trkpt lat="41.261701787450605" lon="14.698349852480467"><ele>271.0</ele><time>2026-04-05T13:11:50.998Z</time></trkpt><trkpt lat="41.2617691716305" lon="14.698510460933896"><ele>271.0</ele><time>2026-04-05T13:11:52Z</time></trkpt><trkpt lat="41.26184553951475" lon="14.698662076466482"><ele>271.0</ele><time>2026-04-05T13:11:53Z</time></trkpt><trkpt lat="41.2619190076031" lon="14.698793622676334"><ele>271.0</ele><time>2026-04-05T13:11:54Z</time></trkpt><trkpt lat="41.261987040432544" lon="14.698921058763638"><ele>271.16666666666663</ele><time>2026-04-05T13:11:55Z</time></trkpt><trkpt lat="41.26203994754317" lon="14.699046709365591"><ele>271.3333333333333</ele><time>2026-04-05T13:11:56Z</time></trkpt><trkpt lat="41.26208637492631" lon="14.699176820788425"><ele>271.5</ele><time>2026-04-05T13:11:57Z</time></trkpt><trkpt lat="41.26212175808901" lon="14.69927658608785"><ele>271.6666666666667</ele><time>2026-04-05T13:11:58Z</time></trkpt><trkpt lat="41.26214607924171" lon="14.699367112994773"><ele>271.83333333333337</ele><time>2026-04-05T13:11:59Z</time></trkpt><trkpt lat="41.26213319331945" lon="14.699459450862362"><ele>272.0</ele><time>2026-04-05T13:12:01Z</time></trkpt><trkpt lat="41.26215040985279" lon="14.699237394741612"><ele>270.83333333333337</ele><time>2026-04-05T13:12:08Z</time></trkpt><trkpt lat="41.26212466072764" lon="14.69914384318712"><ele>269.6666666666667</ele><time>2026-04-05T13:12:09Z</time></trkpt><trkpt lat="41.262092712728574" lon="14.699062815126295"><ele>268.5</ele><time>2026-04-05T13:12:10Z</time></trkpt><trkpt lat="41.26203395310206" lon="14.698915917768927"><ele>267.3333333333333</ele><time>2026-04-05T13:12:12Z</time></trkpt><trkpt lat="41.26200491905978" lon="14.698838789816953"><ele>266.16666666666663</ele><time>2026-04-05T13:12:13Z</time></trkpt><trkpt lat="41.26194916510456" lon="14.698730713761329"><ele>265.0</ele><time>2026-04-05T13:12:15Z</time></trkpt><trkpt lat="41.26201724076943" lon="14.6986401429455"><ele>265.0</ele><time>2026-04-05T13:12:18Z</time></trkpt><trkpt lat="41.262089655055426" lon="14.6986337622277"><ele>265.0</ele><time>2026-04-05T13:12:19Z</time></trkpt><trkpt lat="41.262153804255384" lon="14.698621050089812"><ele>265.0</ele><time>2026-04-05T13:12:20Z</time></trkpt><trkpt lat="41.262243121746764" lon="14.698575842679881"><ele>265.0</ele><time>2026-04-05T13:12:22Z</time></trkpt><trkpt lat="41.26222388742082" lon="14.698490240829416"><ele>265.0</ele><time>2026-04-05T13:12:25Z</time></trkpt><trkpt lat="41.26180397764509" lon="14.698492405722687"><ele>265.0</ele><time>2026-04-05T13:16:39.998Z</time></trkpt><trkpt lat="41.261838269962084" lon="14.698568017884053"><ele>265.0</ele><time>2026-04-05T13:16:40.998Z</time></trkpt><trkpt lat="41.261884293216525" lon="14.698661593039944"><ele>265.0</ele><time>2026-04-05T13:16:41.998Z</time></trkpt><trkpt lat="41.26193806729386" lon="14.698755028011018"><ele>265.0</ele><time>2026-04-05T13:16:42.998Z</time></trkpt><trkpt lat="41.261991895633436" lon="14.698859187390031"><ele>265.0</ele><time>2026-04-05T13:16:43.998Z</time></trkpt><trkpt lat="41.26203616582265" lon="14.6989614607925"><ele>265.0</ele><time>2026-04-05T13:16:44.998Z</time></trkpt><trkpt lat="41.26207858093598" lon="14.699077306501346"><ele>265.0</ele><time>2026-04-05T13:16:45.998Z</time></trkpt><trkpt lat="41.2621212348587" lon="14.69918474586569"><ele>265.0</ele><time>2026-04-05T13:16:46.998Z</time></trkpt><trkpt lat="41.26215191487389" lon="14.69927731789046"><ele>265.0</ele><time>2026-04-05T13:16:47.998Z</time></trkpt><trkpt lat="41.26218201215294" lon="14.699365247265376"><ele>265.0</ele><time>2026-04-05T13:16:48.998Z</time></trkpt><trkpt lat="41.26218527167601" lon="14.69946285915794"><ele>265.0</ele><time>2026-04-05T13:16:49.998Z</time></trkpt><trkpt lat="41.26216076618529" lon="14.699580160678625"><ele>265.0</ele><time>2026-04-05T13:16:50.998Z</time></trkpt><trkpt lat="41.262127989067785" lon="14.699688336644535"><ele>266.4</ele><time>2026-04-05T13:16:51.998Z</time></trkpt><trkpt lat="41.26209542798181" lon="14.699792141595244"><ele>267.8</ele><time>2026-04-05T13:16:53Z</time></trkpt><trkpt lat="41.26206760843911" lon="14.69989720175493"><ele>269.2</ele><time>2026-04-05T13:16:54Z</time></trkpt><trkpt lat="41.26198838326507" lon="14.699979862303287"><ele>270.6</ele><time>2026-04-05T13:16:55Z</time></trkpt><trkpt lat="41.26195948340363" lon="14.700087407466478"><ele>272.0</ele><time>2026-04-05T13:16:56Z</time></trkpt><trkpt lat="41.26192755436516" lon="14.700206397989493"><ele>273.25</ele><time>2026-04-05T13:16:57Z</time></trkpt><trkpt lat="41.26187810093613" lon="14.700374029685994"><ele>274.5</ele><time>2026-04-05T13:16:58Z</time></trkpt><trkpt lat="41.26183135736181" lon="14.700530560763143"><ele>275.75</ele><time>2026-04-05T13:16:59Z</time></trkpt><trkpt lat="41.26176520659862" lon="14.700731050516152"><ele>277.0</ele><time>2026-04-05T13:17:00Z</time></trkpt><trkpt lat="41.261682372250746" lon="14.700940006487981"><ele>278.0</ele><time>2026-04-05T13:17:01Z</time></trkpt><trkpt lat="41.26159952028039" lon="14.701169395925369"><ele>279.0</ele><time>2026-04-05T13:17:02Z</time></trkpt><trkpt lat="41.26152571706198" lon="14.701374641405481"><ele>280.0</ele><time>2026-04-05T13:17:03Z</time></trkpt><trkpt lat="41.2614477393849" lon="14.701581539150625"><ele>280.66666666666663</ele><time>2026-04-05T13:17:04Z</time></trkpt><trkpt lat="41.26136044472846" lon="14.701759978988823"><ele>281.3333333333333</ele><time>2026-04-05T13:17:05Z</time></trkpt><trkpt lat="41.26128063138143" lon="14.701928582127652"><ele>282.0</ele><time>2026-04-05T13:17:06Z</time></trkpt><trkpt lat="41.261190768241" lon="14.702081112022865"><ele>282.0</ele><time>2026-04-05T13:17:07Z</time></trkpt><trkpt lat="41.261087860572296" lon="14.702195137468246"><ele>282.0</ele><time>2026-04-05T13:17:08Z</time></trkpt><trkpt lat="41.26095285376406" lon="14.702263667460183"><ele>282.0</ele><time>2026-04-05T13:17:09Z</time></trkpt><trkpt lat="41.260793709394974" lon="14.702311258959313"><ele>282.0</ele><time>2026-04-05T13:17:10Z</time></trkpt><trkpt lat="41.26062574403919" lon="14.702343738211322"><ele>278.3333333333333</ele><time>2026-04-05T13:17:11Z</time></trkpt><trkpt lat="41.26046967192355" lon="14.702387106804931"><ele>274.66666666666663</ele><time>2026-04-05T13:17:12Z</time></trkpt><trkpt lat="41.260334822344035" lon="14.702426470416771"><ele>271.0</ele><time>2026-04-05T13:17:13Z</time></trkpt><trkpt lat="41.26022087943281" lon="14.702593781192677"><ele>271.0</ele><time>2026-04-05T13:17:14Z</time></trkpt><trkpt lat="41.260096355769114" lon="14.70272106676413"><ele>271.0</ele><time>2026-04-05T13:17:15Z</time></trkpt><trkpt lat="41.25994275071352" lon="14.702838061506759"><ele>271.0</ele><time>2026-04-05T13:17:16Z</time></trkpt><trkpt lat="41.25977982219053" lon="14.702961794576849"><ele>272.0</ele><time>2026-04-05T13:17:17Z</time></trkpt><trkpt lat="41.25962938279767" lon="14.703089545561323"><ele>273.0</ele><time>2026-04-05T13:17:18Z</time></trkpt><trkpt lat="41.25951938356327" lon="14.703221552680763"><ele>274.0</ele><time>2026-04-05T13:17:19Z</time></trkpt><trkpt lat="41.25941658850837" lon="14.703381242853972"><ele>274.0</ele><time>2026-04-05T13:17:20Z</time></trkpt><trkpt lat="41.259339087856524" lon="14.703566550432276"><ele>274.0</ele><time>2026-04-05T13:17:21Z</time></trkpt><trkpt lat="41.259256421664" lon="14.703756875153932"><ele>274.0</ele><time>2026-04-05T13:17:22Z</time></trkpt><trkpt lat="41.25919725302628" lon="14.703938892252678"><ele>276.66666666666663</ele><time>2026-04-05T13:17:23Z</time></trkpt><trkpt lat="41.25915480341968" lon="14.704133113676976"><ele>279.3333333333333</ele><time>2026-04-05T13:17:24Z</time></trkpt><trkpt lat="41.25914102177844" lon="14.704347947709012"><ele>282.0</ele><time>2026-04-05T13:17:25Z</time></trkpt><trkpt lat="41.25912608338062" lon="14.704603513648463"><ele>283.0</ele><time>2026-04-05T13:17:26Z</time></trkpt><trkpt lat="41.25912268293432" lon="14.704837603905471"><ele>284.0</ele><time>2026-04-05T13:17:27Z</time></trkpt><trkpt lat="41.259118039947886" lon="14.705038167888466"><ele>285.0</ele><time>2026-04-05T13:17:28Z</time></trkpt><trkpt lat="41.25910507183092" lon="14.705214137445264"><ele>284.6666666666667</ele><time>2026-04-05T13:17:29Z</time></trkpt><trkpt lat="41.25905771135576" lon="14.70540036795408"><ele>284.33333333333337</ele><time>2026-04-05T13:17:30Z</time></trkpt><trkpt lat="41.2589922373637" lon="14.705607468724216"><ele>284.0</ele><time>2026-04-05T13:17:31Z</time></trkpt><trkpt lat="41.25892212329878" lon="14.705803713635262"><ele>284.0</ele><time>2026-04-05T13:17:32Z</time></trkpt><trkpt lat="41.258849963415926" lon="14.705995613923896"><ele>284.0</ele><time>2026-04-05T13:17:33Z</time></trkpt><trkpt lat="41.25877725091952" lon="14.706143571150657"><ele>284.0</ele><time>2026-04-05T13:17:34Z</time></trkpt><trkpt lat="41.25870180038699" lon="14.706261850901322"><ele>284.0</ele><time>2026-04-05T13:17:34.999Z</time></trkpt><trkpt lat="41.25860660580614" lon="14.706359190397869"><ele>288.33333333333337</ele><time>2026-04-05T13:17:35.999Z</time></trkpt><trkpt lat="41.25849248869388" lon="14.706416707463394"><ele>292.6666666666667</ele><time>2026-04-05T13:17:36.999Z</time></trkpt><trkpt lat="41.258347900722846" lon="14.706452723488903"><ele>297.0</ele><time>2026-04-05T13:17:37.999Z</time></trkpt><trkpt lat="41.25816366773524" lon="14.706492810952094"><ele>297.3333333333333</ele><time>2026-04-05T13:17:38.999Z</time></trkpt><trkpt lat="41.2579908423303" lon="14.70649905287175"><ele>297.66666666666663</ele><time>2026-04-05T13:17:39.999Z</time></trkpt><trkpt lat="41.25781015587325" lon="14.70651793271074"><ele>298.0</ele><time>2026-04-05T13:17:40.999Z</time></trkpt><trkpt lat="41.25763440112154" lon="14.706563743139695"><ele>298.0</ele><time>2026-04-05T13:17:41.999Z</time></trkpt><trkpt lat="41.2574893812235" lon="14.706639008192003"><ele>298.0</ele><time>2026-04-05T13:17:42.999Z</time></trkpt><trkpt lat="41.25736402361388" lon="14.706754347079222"><ele>298.0</ele><time>2026-04-05T13:17:43.999Z</time></trkpt><trkpt lat="41.25726824828338" lon="14.706912894210527"><ele>299.3333333333333</ele><time>2026-04-05T13:17:44.999Z</time></trkpt><trkpt lat="41.257191300976935" lon="14.707093756354535"><ele>300.6666666666667</ele><time>2026-04-05T13:17:45.999Z</time></trkpt><trkpt lat="41.25718005660192" lon="14.707314345317654"><ele>302.0</ele><time>2026-04-05T13:17:46.999Z</time></trkpt><trkpt lat="41.2571972873879" lon="14.7075282164939"><ele>302.0</ele><time>2026-04-05T13:17:47.999Z</time></trkpt><trkpt lat="41.25723707313954" lon="14.707723151937447"><ele>302.0</ele><time>2026-04-05T13:17:48.999Z</time></trkpt><trkpt lat="41.25730476703671" lon="14.707882307831591"><ele>302.0</ele><time>2026-04-05T13:17:49.999Z</time></trkpt><trkpt lat="41.25745019935268" lon="14.70796641796548"><ele>302.0</ele><time>2026-04-05T13:17:50.999Z</time></trkpt><trkpt lat="41.25759690815105" lon="14.708023532850675"><ele>306.33333333333337</ele><time>2026-04-05T13:17:51.999Z</time></trkpt><trkpt lat="41.257761675694994" lon="14.708034376323"><ele>310.6666666666667</ele><time>2026-04-05T13:17:52.999Z</time></trkpt><trkpt lat="41.25793956788155" lon="14.707986153984791"><ele>315.0</ele><time>2026-04-05T13:17:53.999Z</time></trkpt><trkpt lat="41.25812776017327" lon="14.707897180986315"><ele>313.0</ele><time>2026-04-05T13:17:54.999Z</time></trkpt><trkpt lat="41.258340241051116" lon="14.707829158653873"><ele>311.0</ele><time>2026-04-05T13:17:55.999Z</time></trkpt><trkpt lat="41.258554095011085" lon="14.707743447010683"><ele>309.0</ele><time>2026-04-05T13:17:56.999Z</time></trkpt><trkpt lat="41.258748209102755" lon="14.707696132797418"><ele>309.0</ele><time>2026-04-05T13:17:57.999Z</time></trkpt><trkpt lat="41.25894583997872" lon="14.707643971003334"><ele>309.0</ele><time>2026-04-05T13:17:58.999Z</time></trkpt><trkpt lat="41.25912545171685" lon="14.707608394509716"><ele>309.0</ele><time>2026-04-05T13:17:59.999Z</time></trkpt><trkpt lat="41.2593205230264" lon="14.707596030247464"><ele>311.0</ele><time>2026-04-05T13:18:00.999Z</time></trkpt><trkpt lat="41.259530217079146" lon="14.707590663515713"><ele>313.0</ele><time>2026-04-05T13:18:01.999Z</time></trkpt><trkpt lat="41.25974236281952" lon="14.707582349903095"><ele>315.0</ele><time>2026-04-05T13:18:02.999Z</time></trkpt><trkpt lat="41.259987884114416" lon="14.707564550186442"><ele>319.0</ele><time>2026-04-05T13:18:03.999Z</time></trkpt><trkpt lat="41.260221771046325" lon="14.707493653273511"><ele>323.0</ele><time>2026-04-05T13:18:04.999Z</time></trkpt><trkpt lat="41.26045540835147" lon="14.707434383131536"><ele>325.33333333333337</ele><time>2026-04-05T13:18:05.999Z</time></trkpt><trkpt lat="41.26067705143677" lon="14.707374487830986"><ele>327.6666666666667</ele><time>2026-04-05T13:18:06.999Z</time></trkpt><trkpt lat="41.26088530405449" lon="14.707316275915566"><ele>330.0</ele><time>2026-04-05T13:18:07.999Z</time></trkpt><trkpt lat="41.26109555109593" lon="14.70722708410279"><ele>330.0</ele><time>2026-04-05T13:18:08.999Z</time></trkpt><trkpt lat="41.26128553813489" lon="14.707098722007599"><ele>330.0</ele><time>2026-04-05T13:18:09.999Z</time></trkpt><trkpt lat="41.261443774713086" lon="14.706975929456522"><ele>330.0</ele><time>2026-04-05T13:18:10.999Z</time></trkpt><trkpt lat="41.261595908807934" lon="14.706867748353568"><ele>329.6666666666667</ele><time>2026-04-05T13:18:11.999Z</time></trkpt><trkpt lat="41.26175583376215" lon="14.706829208328253"><ele>329.33333333333337</ele><time>2026-04-05T13:18:12.999Z</time></trkpt><trkpt lat="41.26190148063914" lon="14.70681907343272"><ele>329.0</ele><time>2026-04-05T13:18:13.999Z</time></trkpt><trkpt lat="41.262046098663824" lon="14.70684266451671"><ele>329.0</ele><time>2026-04-05T13:18:14.999Z</time></trkpt><trkpt lat="41.26220879652328" lon="14.706899121516125"><ele>329.0</ele><time>2026-04-05T13:18:15.999Z</time></trkpt><trkpt lat="41.2623422876449" lon="14.706992896794024"><ele>329.0</ele><time>2026-04-05T13:18:16.999Z</time></trkpt><trkpt lat="41.26249532190035" lon="14.70711989266887"><ele>335.0</ele><time>2026-04-05T13:18:17.999Z</time></trkpt><trkpt lat="41.2626533461255" lon="14.707255617863787"><ele>341.0</ele><time>2026-04-05T13:18:18.999Z</time></trkpt><trkpt lat="41.26283440669946" lon="14.70741742636033"><ele>347.0</ele><time>2026-04-05T13:18:19.999Z</time></trkpt><trkpt lat="41.26299177002306" lon="14.707570340966257"><ele>347.0</ele><time>2026-04-05T13:18:20.999Z</time></trkpt><trkpt lat="41.26310645038261" lon="14.707703828291201"><ele>347.0</ele><time>2026-04-05T13:18:21.999Z</time></trkpt><trkpt lat="41.26319895326711" lon="14.707834076796905"><ele>347.0</ele><time>2026-04-05T13:18:22.999Z</time></trkpt><trkpt lat="41.263266411081254" lon="14.707974223725332"><ele>347.0</ele><time>2026-04-05T13:18:23.999Z</time></trkpt><trkpt lat="41.2633086302305" lon="14.708145597719419"><ele>349.33333333333337</ele><time>2026-04-05T13:18:24.999Z</time></trkpt><trkpt lat="41.26333327257625" lon="14.708329307278474"><ele>351.6666666666667</ele><time>2026-04-05T13:18:25.999Z</time></trkpt><trkpt lat="41.26330719154431" lon="14.708519011779963"><ele>354.0</ele><time>2026-04-05T13:18:26.999Z</time></trkpt><trkpt lat="41.26328336467152" lon="14.708742033409674"><ele>356.0</ele><time>2026-04-05T13:18:27.999Z</time></trkpt><trkpt lat="41.26324038082294" lon="14.708942398656456"><ele>358.0</ele><time>2026-04-05T13:18:28.999Z</time></trkpt><trkpt lat="41.263163894555674" lon="14.709133376945084"><ele>360.0</ele><time>2026-04-05T13:18:29.999Z</time></trkpt><trkpt lat="41.263064848600266" lon="14.709321067421667"><ele>362.6666666666667</ele><time>2026-04-05T13:18:30.999Z</time></trkpt><trkpt lat="41.26295588280787" lon="14.709494184926521"><ele>365.33333333333337</ele><time>2026-04-05T13:18:31.999Z</time></trkpt><trkpt lat="41.26283805039102" lon="14.709669017177703"><ele>368.0</ele><time>2026-04-05T13:18:32.999Z</time></trkpt><trkpt lat="41.26271337153195" lon="14.70984894334766"><ele>368.0</ele><time>2026-04-05T13:18:33.999Z</time></trkpt><trkpt lat="41.26261382881591" lon="14.709988051734527"><ele>368.0</ele><time>2026-04-05T13:18:34.999Z</time></trkpt><trkpt lat="41.26250807197948" lon="14.710087432155495"><ele>368.0</ele><time>2026-04-05T13:18:35.998Z</time></trkpt><trkpt lat="41.26237623317781" lon="14.710165780886514"><ele>368.0</ele><time>2026-04-05T13:18:36.998Z</time></trkpt><trkpt lat="41.26221173415801" lon="14.710157241407282"><ele>369.33333333333337</ele><time>2026-04-05T13:18:37.998Z</time></trkpt><trkpt lat="41.262055174963" lon="14.710074574334763"><ele>370.6666666666667</ele><time>2026-04-05T13:18:38.998Z</time></trkpt><trkpt lat="41.261887417180745" lon="14.70995635957441"><ele>372.0</ele><time>2026-04-05T13:18:39.998Z</time></trkpt><trkpt lat="41.261723475510834" lon="14.709879176013608"><ele>372.0</ele><time>2026-04-05T13:18:40.998Z</time></trkpt><trkpt lat="41.26156533814472" lon="14.709817580915377"><ele>372.0</ele><time>2026-04-05T13:18:41.998Z</time></trkpt><trkpt lat="41.26139147316139" lon="14.709798579063245"><ele>372.0</ele><time>2026-04-05T13:18:42.998Z</time></trkpt><trkpt lat="41.261191268561284" lon="14.709855690553926"><ele>372.6666666666667</ele><time>2026-04-05T13:18:43.998Z</time></trkpt><trkpt lat="41.26097963963061" lon="14.709919786592796"><ele>373.33333333333337</ele><time>2026-04-05T13:18:44.998Z</time></trkpt><trkpt lat="41.26078687302455" lon="14.709967037192214"><ele>374.0</ele><time>2026-04-05T13:18:45.998Z</time></trkpt><trkpt lat="41.260617230133" lon="14.710010446549237"><ele>371.6666666666667</ele><time>2026-04-05T13:18:46.998Z</time></trkpt><trkpt lat="41.260457303423" lon="14.710104549417226"><ele>369.3333333333333</ele><time>2026-04-05T13:18:47.998Z</time></trkpt><trkpt lat="41.26031640805175" lon="14.710227212928764"><ele>367.0</ele><time>2026-04-05T13:18:48.998Z</time></trkpt><trkpt lat="41.26018738789103" lon="14.710350728355907"><ele>369.66666666666663</ele><time>2026-04-05T13:18:49.998Z</time></trkpt><trkpt lat="41.26004328185065" lon="14.710400611225184"><ele>372.3333333333333</ele><time>2026-04-05T13:18:50.998Z</time></trkpt><trkpt lat="41.25985919949766" lon="14.710357251759328"><ele>375.0</ele><time>2026-04-05T13:18:51.998Z</time></trkpt><trkpt lat="41.25968249465304" lon="14.710337580865383"><ele>375.0</ele><time>2026-04-05T13:18:52.998Z</time></trkpt><trkpt lat="41.25954232593347" lon="14.710344292961334"><ele>375.0</ele><time>2026-04-05T13:18:53.998Z</time></trkpt><trkpt lat="41.25943774216695" lon="14.710409251221954"><ele>375.0</ele><time>2026-04-05T13:18:54.998Z</time></trkpt><trkpt lat="41.25936353568777" lon="14.71054889869232"><ele>375.0</ele><time>2026-04-05T13:18:55.998Z</time></trkpt><trkpt lat="41.25931709484019" lon="14.710729668110293"><ele>375.0</ele><time>2026-04-05T13:18:56.998Z</time></trkpt><trkpt lat="41.25929498209843" lon="14.710958165834423"><ele>375.0</ele><time>2026-04-05T13:18:57.998Z</time></trkpt><trkpt lat="41.25929135893157" lon="14.711188397075318"><ele>375.0</ele><time>2026-04-05T13:18:58.999Z</time></trkpt><trkpt lat="41.259279537710405" lon="14.711393553280555"><ele>376.6</ele><time>2026-04-05T13:18:59.999Z</time></trkpt><trkpt lat="41.25924616228713" lon="14.711534648401615"><ele>378.2</ele><time>2026-04-05T13:19:00.999Z</time></trkpt><trkpt lat="41.25919172805045" lon="14.711624965523592"><ele>379.79999999999995</ele><time>2026-04-05T13:19:01.999Z</time></trkpt><trkpt lat="41.25910897312009" lon="14.711643839222587"><ele>381.4</ele><time>2026-04-05T13:19:02.999Z</time></trkpt><trkpt lat="41.25900571839884" lon="14.711657999984926"><ele>383.0</ele><time>2026-04-05T13:19:03.999Z</time></trkpt><trkpt lat="41.25888207895348" lon="14.711610774237725"><ele>383.5</ele><time>2026-04-05T13:19:04.999Z</time></trkpt><trkpt lat="41.25874154102941" lon="14.711547975985116"><ele>384.0</ele><time>2026-04-05T13:19:05.999Z</time></trkpt><trkpt lat="41.258593380875105" lon="14.711478601828201"><ele>384.5</ele><time>2026-04-05T13:19:06.999Z</time></trkpt><trkpt lat="41.258456378178714" lon="14.711441401974781"><ele>385.0</ele><time>2026-04-05T13:19:07.999Z</time></trkpt><trkpt lat="41.25830147702915" lon="14.711448261361586"><ele>385.0</ele><time>2026-04-05T13:19:08.999Z</time></trkpt><trkpt lat="41.25814688414201" lon="14.711506682307512"><ele>385.0</ele><time>2026-04-05T13:19:09.999Z</time></trkpt><trkpt lat="41.25798493018531" lon="14.711595081259645"><ele>385.0</ele><time>2026-04-05T13:19:10.999Z</time></trkpt><trkpt lat="41.257835931154474" lon="14.71171562210804"><ele>385.0</ele><time>2026-04-05T13:19:11.999Z</time></trkpt><trkpt lat="41.257742026091414" lon="14.711861418622238"><ele>385.0</ele><time>2026-04-05T13:19:12.999Z</time></trkpt><trkpt lat="41.25766881966731" lon="14.712017458416332"><ele>385.0</ele><time>2026-04-05T13:19:13.999Z</time></trkpt><trkpt lat="41.25764868442488" lon="14.712201927706428"><ele>385.0</ele><time>2026-04-05T13:19:14.999Z</time></trkpt><trkpt lat="41.2576824610727" lon="14.712404063173258"><ele>386.33333333333337</ele><time>2026-04-05T13:19:15.999Z</time></trkpt><trkpt lat="41.25778037003488" lon="14.712591872884204"><ele>387.66666666666663</ele><time>2026-04-05T13:19:16.999Z</time></trkpt><trkpt lat="41.257896653706" lon="14.712777175323009"><ele>389.0</ele><time>2026-04-05T13:19:17.999Z</time></trkpt><trkpt lat="41.25805891878007" lon="14.712866702553514"><ele>396.3333333333333</ele><time>2026-04-05T13:19:18.999Z</time></trkpt><trkpt lat="41.25823424656206" lon="14.712936836431211"><ele>403.66666666666663</ele><time>2026-04-05T13:19:19.999Z</time></trkpt><trkpt lat="41.25840344206124" lon="14.713028170395411"><ele>411.0</ele><time>2026-04-05T13:19:20.999Z</time></trkpt><trkpt lat="41.258584336581514" lon="14.713107468029214"><ele>411.0</ele><time>2026-04-05T13:19:21.999Z</time></trkpt><trkpt lat="41.25878034997074" lon="14.713197007421527"><ele>411.0</ele><time>2026-04-05T13:19:22.999Z</time></trkpt><trkpt lat="41.25898871460356" lon="14.713292869117204"><ele>411.0</ele><time>2026-04-05T13:19:23.999Z</time></trkpt><trkpt lat="41.259201872118986" lon="14.713390935848146"><ele>411.5</ele><time>2026-04-05T13:19:24.999Z</time></trkpt><trkpt lat="41.259414825932325" lon="14.713483538956915"><ele>412.0</ele><time>2026-04-05T13:19:25.999Z</time></trkpt><trkpt lat="41.259646465301394" lon="14.713562661090407"><ele>422.5</ele><time>2026-04-05T13:19:26.999Z</time></trkpt><trkpt lat="41.259890584433606" lon="14.713591815390581"><ele>433.0</ele><time>2026-04-05T13:19:27.999Z</time></trkpt><trkpt lat="41.26012868466169" lon="14.713624383411002"><ele>433.0</ele><time>2026-04-05T13:19:28.999Z</time></trkpt><trkpt lat="41.26038062441573" lon="14.713672974043842"><ele>433.0</ele><time>2026-04-05T13:19:29.999Z</time></trkpt><trkpt lat="41.260609495811664" lon="14.713645990457932"><ele>433.0</ele><time>2026-04-05T13:19:30.999Z</time></trkpt><trkpt lat="41.26084694955223" lon="14.713576111220437"><ele>433.0</ele><time>2026-04-05T13:19:31.999Z</time></trkpt><trkpt lat="41.261086679093864" lon="14.71348877811558"><ele>429.33333333333337</ele><time>2026-04-05T13:19:32.999Z</time></trkpt><trkpt lat="41.26130582303412" lon="14.713413165983006"><ele>425.66666666666663</ele><time>2026-04-05T13:19:33.999Z</time></trkpt><trkpt lat="41.2614664614329" lon="14.713358543183553"><ele>422.0</ele><time>2026-04-05T13:19:34.999Z</time></trkpt><trkpt lat="41.26161822598341" lon="14.7133376610585"><ele>422.0</ele><time>2026-04-05T13:19:35.999Z</time></trkpt><trkpt lat="41.261741114050736" lon="14.713339700257986"><ele>422.0</ele><time>2026-04-05T13:19:36.999Z</time></trkpt><trkpt lat="41.261841101797465" lon="14.713386284584354"><ele>422.0</ele><time>2026-04-05T13:19:37.999Z</time></trkpt><trkpt lat="41.26189894727968" lon="14.713500623997788"><ele>422.0</ele><time>2026-04-05T13:19:38.999Z</time></trkpt><trkpt lat="41.26193552370669" lon="14.71362941091186"><ele>422.0</ele><time>2026-04-05T13:19:39.999Z</time></trkpt><trkpt lat="41.261949759331785" lon="14.71377537917517"><ele>424.66666666666663</ele><time>2026-04-05T13:19:40.999Z</time></trkpt><trkpt lat="41.26193659605635" lon="14.71396903161672"><ele>427.33333333333337</ele><time>2026-04-05T13:19:41.999Z</time></trkpt><trkpt lat="41.26192201320374" lon="14.714231363277284"><ele>430.0</ele><time>2026-04-05T13:19:42.999Z</time></trkpt><trkpt lat="41.261930447073965" lon="14.714452049377485"><ele>431.33333333333337</ele><time>2026-04-05T13:19:43.999Z</time></trkpt><trkpt lat="41.261975428892114" lon="14.714689881948605"><ele>432.66666666666663</ele><time>2026-04-05T13:19:44.999Z</time></trkpt><trkpt lat="41.26204521350114" lon="14.714889395088235"><ele>434.0</ele><time>2026-04-05T13:19:45.999Z</time></trkpt><trkpt lat="41.26208942196591" lon="14.715064791791525"><ele>434.0</ele><time>2026-04-05T13:19:46.999Z</time></trkpt><trkpt lat="41.26210962944452" lon="14.715226421438738"><ele>434.0</ele><time>2026-04-05T13:19:47.999Z</time></trkpt><trkpt lat="41.262101707284046" lon="14.715410766387194"><ele>434.0</ele><time>2026-04-05T13:19:48.999Z</time></trkpt><trkpt lat="41.262041228893715" lon="14.715605422605766"><ele>434.0</ele><time>2026-04-05T13:19:49.999Z</time></trkpt><trkpt lat="41.261957480196585" lon="14.715860039965184"><ele>434.66666666666663</ele><time>2026-04-05T13:19:50.999Z</time></trkpt><trkpt lat="41.261875711423826" lon="14.716119618455435"><ele>435.33333333333337</ele><time>2026-04-05T13:19:51.999Z</time></trkpt><trkpt lat="41.26181137983074" lon="14.716361609788088"><ele>436.0</ele><time>2026-04-05T13:19:52.999Z</time></trkpt><trkpt lat="41.26178792620597" lon="14.716594787396522"><ele>436.0</ele><time>2026-04-05T13:19:53.999Z</time></trkpt><trkpt lat="41.26178304377164" lon="14.716791954789427"><ele>436.0</ele><time>2026-04-05T13:19:54.999Z</time></trkpt><trkpt lat="41.261828468010066" lon="14.717010824045568"><ele>436.0</ele><time>2026-04-05T13:19:55.999Z</time></trkpt><trkpt lat="41.26191208554871" lon="14.7172322219771"><ele>435.6666666666667</ele><time>2026-04-05T13:19:56.999Z</time></trkpt><trkpt lat="41.26201067958598" lon="14.71746910231363"><ele>435.33333333333337</ele><time>2026-04-05T13:19:57.999Z</time></trkpt><trkpt lat="41.26211643905638" lon="14.717714628309666"><ele>435.0</ele><time>2026-04-05T13:19:58.999Z</time></trkpt><trkpt lat="41.262224037914216" lon="14.717961174556562"><ele>439.5</ele><time>2026-04-05T13:19:59.999Z</time></trkpt><trkpt lat="41.262337110937814" lon="14.718220264034645"><ele>444.0</ele><time>2026-04-05T13:20:00.999Z</time></trkpt><trkpt lat="41.262451142587395" lon="14.718481550013568"><ele>445.0</ele><time>2026-04-05T13:20:01.999Z</time></trkpt><trkpt lat="41.26256302775431" lon="14.718740881005147"><ele>446.0</ele><time>2026-04-05T13:20:02.999Z</time></trkpt><trkpt lat="41.262677844846905" lon="14.7190085597334"><ele>446.0</ele><time>2026-04-05T13:20:03.999Z</time></trkpt><trkpt lat="41.26277682868683" lon="14.71924098120709"><ele>446.0</ele><time>2026-04-05T13:20:04.999Z</time></trkpt><trkpt lat="41.26286635858824" lon="14.719457507484442"><ele>446.0</ele><time>2026-04-05T13:20:05.999Z</time></trkpt><trkpt lat="41.262941212890816" lon="14.719668425074172"><ele>447.3333333333333</ele><time>2026-04-05T13:20:06.999Z</time></trkpt><trkpt lat="41.2629982697916" lon="14.719880220724136"><ele>448.66666666666663</ele><time>2026-04-05T13:20:07.999Z</time></trkpt><trkpt lat="41.26302279379147" lon="14.720083189269396"><ele>450.0</ele><time>2026-04-05T13:20:08.999Z</time></trkpt><trkpt lat="41.26302638721663" lon="14.7202773415493"><ele>452.33333333333337</ele><time>2026-04-05T13:20:09.999Z</time></trkpt><trkpt lat="41.26294872674098" lon="14.720447403633928"><ele>454.6666666666667</ele><time>2026-04-05T13:20:10.999Z</time></trkpt><trkpt lat="41.26287586738673" lon="14.72067321245316"><ele>457.0</ele><time>2026-04-05T13:20:11.999Z</time></trkpt><trkpt lat="41.26280273812477" lon="14.720906678651767"><ele>458.6666666666667</ele><time>2026-04-05T13:20:12.999Z</time></trkpt><trkpt lat="41.26274282473377" lon="14.721119724623504"><ele>460.33333333333337</ele><time>2026-04-05T13:20:13.999Z</time></trkpt><trkpt lat="41.26271172204336" lon="14.72132922206625"><ele>462.0</ele><time>2026-04-05T13:20:14.999Z</time></trkpt><trkpt lat="41.262730520464295" lon="14.721552681986957"><ele>462.0</ele><time>2026-04-05T13:20:15.999Z</time></trkpt><trkpt lat="41.26280328782951" lon="14.721773300029733"><ele>462.0</ele><time>2026-04-05T13:20:16.999Z</time></trkpt><trkpt lat="41.26290934013812" lon="14.721977547392996"><ele>462.0</ele><time>2026-04-05T13:20:17.999Z</time></trkpt><trkpt lat="41.26301284114496" lon="14.722181061563626"><ele>461.75</ele><time>2026-04-05T13:20:18.999Z</time></trkpt><trkpt lat="41.263091203242055" lon="14.722354855457203"><ele>461.5</ele><time>2026-04-05T13:20:19.999Z</time></trkpt><trkpt lat="41.263132419199636" lon="14.722505344459751"><ele>461.25</ele><time>2026-04-05T13:20:20.999Z</time></trkpt><trkpt lat="41.263141515589695" lon="14.7226674353999"><ele>461.0</ele><time>2026-04-05T13:20:21.999Z</time></trkpt><trkpt lat="41.26312123552404" lon="14.722831359297096"><ele>461.0</ele><time>2026-04-05T13:20:22.999Z</time></trkpt><trkpt lat="41.263081131120146" lon="14.722996000035897"><ele>461.0</ele><time>2026-04-05T13:20:23.999Z</time></trkpt><trkpt lat="41.26303684739915" lon="14.723123583601515"><ele>461.0</ele><time>2026-04-05T13:20:24.999Z</time></trkpt><trkpt lat="41.262989089811526" lon="14.723251321378383"><ele>461.0</ele><time>2026-04-05T13:20:25.999Z</time></trkpt><trkpt lat="41.26293345727292" lon="14.723390620579766"><ele>461.0</ele><time>2026-04-05T13:20:26.999Z</time></trkpt><trkpt lat="41.26287564787872" lon="14.723546648742637"><ele>461.0</ele><time>2026-04-05T13:20:27.999Z</time></trkpt><trkpt lat="41.26283059731623" lon="14.723714887143316"><ele>461.0</ele><time>2026-04-05T13:20:28.999Z</time></trkpt><trkpt lat="41.26282244342609" lon="14.723891303358839"><ele>461.0</ele><time>2026-04-05T13:20:29.999Z</time></trkpt><trkpt lat="41.262880131625266" lon="14.724072677286246"><ele>462.3333333333333</ele><time>2026-04-05T13:20:30.999Z</time></trkpt><trkpt lat="41.2629929813048" lon="14.724221442609391"><ele>463.66666666666663</ele><time>2026-04-05T13:20:31.998Z</time></trkpt><trkpt lat="41.26312900488422" lon="14.724369041208227"><ele>465.0</ele><time>2026-04-05T13:20:32.998Z</time></trkpt><trkpt lat="41.26328057800655" lon="14.72452619173076"><ele>469.0</ele><time>2026-04-05T13:20:33.998Z</time></trkpt><trkpt lat="41.263442978194135" lon="14.724689478395742"><ele>473.0</ele><time>2026-04-05T13:20:34.998Z</time></trkpt><trkpt lat="41.263604654904626" lon="14.724856460534436"><ele>477.0</ele><time>2026-04-05T13:20:35.998Z</time></trkpt><trkpt lat="41.26375765454278" lon="14.72501701910122"><ele>477.0</ele><time>2026-04-05T13:20:36.998Z</time></trkpt><trkpt lat="41.26390192396387" lon="14.725178813032231"><ele>477.0</ele><time>2026-04-05T13:20:37.998Z</time></trkpt><trkpt lat="41.26401676513148" lon="14.72534502605026"><ele>477.0</ele><time>2026-04-05T13:20:38.998Z</time></trkpt><trkpt lat="41.264119042256134" lon="14.725521157862701"><ele>479.75</ele><time>2026-04-05T13:20:39.998Z</time></trkpt><trkpt lat="41.264192102290295" lon="14.725706318027013"><ele>482.5</ele><time>2026-04-05T13:20:40.998Z</time></trkpt><trkpt lat="41.26423706680175" lon="14.725888078265386"><ele>485.25</ele><time>2026-04-05T13:20:41.998Z</time></trkpt><trkpt lat="41.264254386904675" lon="14.726064876854943"><ele>488.0</ele><time>2026-04-05T13:20:42.998Z</time></trkpt><trkpt lat="41.26426488477083" lon="14.726265446296793"><ele>489.0</ele><time>2026-04-05T13:20:43.998Z</time></trkpt><trkpt lat="41.26426846061766" lon="14.72648358832812"><ele>490.0</ele><time>2026-04-05T13:20:44.998Z</time></trkpt><trkpt lat="41.26426833984698" lon="14.72670366035273"><ele>491.0</ele><time>2026-04-05T13:20:45.998Z</time></trkpt><trkpt lat="41.26426638876495" lon="14.726930924330032"><ele>492.3333333333333</ele><time>2026-04-05T13:20:46.998Z</time></trkpt><trkpt lat="41.2642644165937" lon="14.727163739337767"><ele>493.66666666666663</ele><time>2026-04-05T13:20:47.998Z</time></trkpt><trkpt lat="41.264262026626355" lon="14.727391840900323"><ele>495.0</ele><time>2026-04-05T13:20:48.998Z</time></trkpt><trkpt lat="41.264259575408296" lon="14.727621496220072"><ele>496.33333333333337</ele><time>2026-04-05T13:20:49.998Z</time></trkpt><trkpt lat="41.26425706949457" lon="14.72785627498816"><ele>497.6666666666667</ele><time>2026-04-05T13:20:50.998Z</time></trkpt><trkpt lat="41.26425505466742" lon="14.728088228267948"><ele>499.0</ele><time>2026-04-05T13:20:51.998Z</time></trkpt><trkpt lat="41.264253259616346" lon="14.728293493083514"><ele>499.0</ele><time>2026-04-05T13:20:52.998Z</time></trkpt><trkpt lat="41.26425020352242" lon="14.728474939811115"><ele>499.0</ele><time>2026-04-05T13:20:53.998Z</time></trkpt><trkpt lat="41.26424589604866" lon="14.728655196456398"><ele>499.0</ele><time>2026-04-05T13:20:54.998Z</time></trkpt><trkpt lat="41.26423983340633" lon="14.7288384533442"><ele>499.0</ele><time>2026-04-05T13:20:55.998Z</time></trkpt><trkpt lat="41.26423308985016" lon="14.729023136214035"><ele>499.5</ele><time>2026-04-05T13:20:56.998Z</time></trkpt><trkpt lat="41.26422894349493" lon="14.729208364953072"><ele>500.0</ele><time>2026-04-05T13:20:57.998Z</time></trkpt><trkpt lat="41.26423406651097" lon="14.72936995265912"><ele>500.5</ele><time>2026-04-05T13:20:58.998Z</time></trkpt><trkpt lat="41.26425946621704" lon="14.729523465146197"><ele>501.0</ele><time>2026-04-05T13:20:59.998Z</time></trkpt><trkpt lat="41.264312708348626" lon="14.729669046044764"><ele>501.5</ele><time>2026-04-05T13:21:00.998Z</time></trkpt><trkpt lat="41.26439629210716" lon="14.729779328909903"><ele>502.0</ele><time>2026-04-05T13:21:01.998Z</time></trkpt><trkpt lat="41.26455966705941" lon="14.729777166998145"><ele>502.5</ele><time>2026-04-05T13:21:02.998Z</time></trkpt><trkpt lat="41.26469814350291" lon="14.729766341551414"><ele>503.0</ele><time>2026-04-05T13:21:03.998Z</time></trkpt><trkpt lat="41.26486012285276" lon="14.72972566707718"><ele>503.79999999999995</ele><time>2026-04-05T13:21:04.999Z</time></trkpt><trkpt lat="41.26499393436452" lon="14.729731737600648"><ele>504.59999999999997</ele><time>2026-04-05T13:21:05.999Z</time></trkpt><trkpt lat="41.26510127492556" lon="14.729721876178598"><ele>505.40000000000003</ele><time>2026-04-05T13:21:06.999Z</time></trkpt><trkpt lat="41.265197649114235" lon="14.729711852797323"><ele>506.20000000000005</ele><time>2026-04-05T13:21:07.999Z</time></trkpt><trkpt lat="41.26528431737877" lon="14.72968550818435"><ele>507.0</ele><time>2026-04-05T13:21:08.999Z</time></trkpt><trkpt lat="41.26536561756882" lon="14.729698466560949"><ele>507.0</ele><time>2026-04-05T13:21:09.999Z</time></trkpt><trkpt lat="41.26544266829411" lon="14.729726005173285"><ele>507.00000000000006</ele><time>2026-04-05T13:21:10.999Z</time></trkpt><trkpt lat="41.26551242337037" lon="14.729757420398457"><ele>507.00000000000006</ele><time>2026-04-05T13:21:11.999Z</time></trkpt><trkpt lat="41.26559996507741" lon="14.729773740593913"><ele>507.0</ele><time>2026-04-05T13:21:12.999Z</time></trkpt><trkpt lat="41.265721942916485" lon="14.729789359490102"><ele>507.0</ele><time>2026-04-05T13:21:13.999Z</time></trkpt><trkpt lat="41.26580971555274" lon="14.729730203829327"><ele>505.5</ele><time>2026-04-05T13:21:14.999Z</time></trkpt><trkpt lat="41.26592520393147" lon="14.72970618826364"><ele>504.0</ele><time>2026-04-05T13:21:15.999Z</time></trkpt><trkpt lat="41.26605734252466" lon="14.729707334662168"><ele>502.5</ele><time>2026-04-05T13:21:16.999Z</time></trkpt><trkpt lat="41.26618263556092" lon="14.729729191559068"><ele>501.0</ele><time>2026-04-05T13:21:17.999Z</time></trkpt><trkpt lat="41.26627277364008" lon="14.729756043557375"><ele>501.0</ele><time>2026-04-05T13:21:18.999Z</time></trkpt><trkpt lat="41.266346122051765" lon="14.729771807758661"><ele>501.0</ele><time>2026-04-05T13:21:19.999Z</time></trkpt><trkpt lat="41.26644630204022" lon="14.729760479094157"><ele>501.0</ele><time>2026-04-05T13:21:21.999Z</time></trkpt><trkpt lat="41.266373404184385" lon="14.729645997626736"><ele>501.0</ele><time>2026-04-05T13:21:24.999Z</time></trkpt><trkpt lat="41.26626661129441" lon="14.729637925963054"><ele>501.0</ele><time>2026-04-05T13:21:25.999Z</time></trkpt><trkpt lat="41.26616031262462" lon="14.729631790080845"><ele>501.0</ele><time>2026-04-05T13:21:26.999Z</time></trkpt><trkpt lat="41.26605424973587" lon="14.729619340566805"><ele>501.0</ele><time>2026-04-05T13:21:27.999Z</time></trkpt><trkpt lat="41.265970648980094" lon="14.729609128049729"><ele>501.0</ele><time>2026-04-05T13:21:28.999Z</time></trkpt><trkpt lat="41.2659034130901" lon="14.729592334760545"><ele>501.0</ele><time>2026-04-05T13:21:29.999Z</time></trkpt><trkpt lat="41.26576306494692" lon="14.729493344440451"><ele>501.0</ele><time>2026-04-05T13:21:32.999Z</time></trkpt><trkpt lat="41.265685302019435" lon="14.729472524372136"><ele>502.20000000000005</ele><time>2026-04-05T13:21:34.999Z</time></trkpt><trkpt lat="41.26559202690135" lon="14.729452758651101"><ele>503.40000000000003</ele><time>2026-04-05T13:21:36.999Z</time></trkpt><trkpt lat="41.26552957709137" lon="14.729516985883569"><ele>504.6</ele><time>2026-04-05T13:21:37.999Z</time></trkpt><trkpt lat="41.26550506656958" lon="14.729675675566947"><ele>505.8</ele><time>2026-04-05T13:21:38.999Z</time></trkpt><trkpt lat="41.26552453736244" lon="14.729848005904639"><ele>507.0</ele><time>2026-04-05T13:21:39.999Z</time></trkpt><trkpt lat="41.265533961740445" lon="14.730013647331939"><ele>507.0</ele><time>2026-04-05T13:21:40.999Z</time></trkpt><trkpt lat="41.26556136387127" lon="14.730196753913512"><ele>507.0</ele><time>2026-04-05T13:21:41.999Z</time></trkpt><trkpt lat="41.26566626625613" lon="14.730369642175127"><ele>507.0</ele><time>2026-04-05T13:21:42.999Z</time></trkpt><trkpt lat="41.265789292110476" lon="14.730523953116906"><ele>506.66666666666663</ele><time>2026-04-05T13:21:43.999Z</time></trkpt><trkpt lat="41.2659198691368" lon="14.730685614437602"><ele>506.3333333333333</ele><time>2026-04-05T13:21:44.999Z</time></trkpt><trkpt lat="41.2660569573914" lon="14.730862092482651"><ele>506.0</ele><time>2026-04-05T13:21:45.999Z</time></trkpt><trkpt lat="41.26621394638222" lon="14.731058636249589"><ele>506.0</ele><time>2026-04-05T13:21:46.999Z</time></trkpt><trkpt lat="41.266375741987574" lon="14.731260249009063"><ele>506.0</ele><time>2026-04-05T13:21:47.999Z</time></trkpt><trkpt lat="41.26654072316777" lon="14.731473655954222"><ele>506.0</ele><time>2026-04-05T13:21:48.999Z</time></trkpt><trkpt lat="41.26668705304521" lon="14.731663444853769"><ele>506.0</ele><time>2026-04-05T13:21:49.999Z</time></trkpt><trkpt lat="41.26680188267637" lon="14.731813018606855"><ele>506.0</ele><time>2026-04-05T13:21:50.999Z</time></trkpt><trkpt lat="41.266894288941664" lon="14.731951439531462"><ele>506.5</ele><time>2026-04-05T13:21:51.999Z</time></trkpt><trkpt lat="41.266954062418655" lon="14.732112829798155"><ele>507.0</ele><time>2026-04-05T13:21:52.999Z</time></trkpt><trkpt lat="41.26697156650467" lon="14.7322899761529"><ele>507.5</ele><time>2026-04-05T13:21:53.999Z</time></trkpt><trkpt lat="41.26695280985871" lon="14.732463195700248"><ele>508.0</ele><time>2026-04-05T13:21:54.999Z</time></trkpt><trkpt lat="41.26690226669499" lon="14.732647113561834"><ele>507.6666666666667</ele><time>2026-04-05T13:21:55.999Z</time></trkpt><trkpt lat="41.26681159113143" lon="14.73283905977772"><ele>507.33333333333337</ele><time>2026-04-05T13:21:56.999Z</time></trkpt><trkpt lat="41.26667766895461" lon="14.73305358386344"><ele>507.0</ele><time>2026-04-05T13:21:57.999Z</time></trkpt><trkpt lat="41.2665513334126" lon="14.733249209881567"><ele>507.0</ele><time>2026-04-05T13:21:58.999Z</time></trkpt><trkpt lat="41.26644523963467" lon="14.733436210369874"><ele>507.0</ele><time>2026-04-05T13:21:59.999Z</time></trkpt><trkpt lat="41.266363564004145" lon="14.733655004245307"><ele>507.0</ele><time>2026-04-05T13:22:00.999Z</time></trkpt><trkpt lat="41.266340024592026" lon="14.733952788060988"><ele>508.0</ele><time>2026-04-05T13:22:01.999Z</time></trkpt><trkpt lat="41.26634829372582" lon="14.734257237785465"><ele>509.0</ele><time>2026-04-05T13:22:02.999Z</time></trkpt><trkpt lat="41.266346816497375" lon="14.734545416513596"><ele>510.0</ele><time>2026-04-05T13:22:03.999Z</time></trkpt><trkpt lat="41.26632532939836" lon="14.734818127349968"><ele>510.0</ele><time>2026-04-05T13:22:04.999Z</time></trkpt><trkpt lat="41.26628006880269" lon="14.735082945386466"><ele>510.0</ele><time>2026-04-05T13:22:05.999Z</time></trkpt><trkpt lat="41.26622696374629" lon="14.735302238594842"><ele>510.0</ele><time>2026-04-05T13:22:06.999Z</time></trkpt><trkpt lat="41.26617645866396" lon="14.73545507255565"><ele>509.4</ele><time>2026-04-05T13:22:07.999Z</time></trkpt><trkpt lat="41.26611482158418" lon="14.735583099754713"><ele>508.8</ele><time>2026-04-05T13:22:08.999Z</time></trkpt><trkpt lat="41.26604433674481" lon="14.735661638670583"><ele>508.20000000000005</ele><time>2026-04-05T13:22:09.999Z</time></trkpt><trkpt lat="41.26594812438916" lon="14.735724082870256"><ele>507.6</ele><time>2026-04-05T13:22:11.999Z</time></trkpt><trkpt lat="41.26591063424292" lon="14.735880095236604"><ele>507.0</ele><time>2026-04-05T13:22:13.999Z</time></trkpt><trkpt lat="41.26588167506958" lon="14.736025935529774"><ele>506.0</ele><time>2026-04-05T13:22:14.999Z</time></trkpt><trkpt lat="41.265848518809406" lon="14.736172623968514"><ele>505.0</ele><time>2026-04-05T13:22:15.999Z</time></trkpt><trkpt lat="41.265821589134696" lon="14.736342974921198"><ele>504.0</ele><time>2026-04-05T13:22:16.999Z</time></trkpt><trkpt lat="41.26580620979485" lon="14.736512951782185"><ele>503.0</ele><time>2026-04-05T13:22:17.999Z</time></trkpt><trkpt lat="41.265808355642285" lon="14.736680352780144"><ele>503.0</ele><time>2026-04-05T13:22:18.999Z</time></trkpt><trkpt lat="41.26578766741367" lon="14.736844227745003"><ele>503.0</ele><time>2026-04-05T13:22:19.999Z</time></trkpt><trkpt lat="41.26578438433091" lon="14.737004899917173"><ele>503.0</ele><time>2026-04-05T13:22:20.999Z</time></trkpt><trkpt lat="41.265774383439755" lon="14.737161148073682"><ele>503.0</ele><time>2026-04-05T13:22:21.999Z</time></trkpt><trkpt lat="41.265764839982516" lon="14.73731294900908"><ele>501.4</ele><time>2026-04-05T13:22:22.999Z</time></trkpt><trkpt lat="41.26575099638785" lon="14.73746700721477"><ele>499.79999999999995</ele><time>2026-04-05T13:22:23.999Z</time></trkpt><trkpt lat="41.26570729905848" lon="14.737590981082061"><ele>498.2</ele><time>2026-04-05T13:22:24.999Z</time></trkpt><trkpt lat="41.26564218510703" lon="14.737694169370535"><ele>496.6</ele><time>2026-04-05T13:22:25.999Z</time></trkpt><trkpt lat="41.265552539823176" lon="14.737771200150545"><ele>495.0</ele><time>2026-04-05T13:22:26.999Z</time></trkpt><trkpt lat="41.265457841234486" lon="14.737808189548753"><ele>492.6666666666667</ele><time>2026-04-05T13:22:27.999Z</time></trkpt><trkpt lat="41.26535123155491" lon="14.73781818670848"><ele>490.33333333333337</ele><time>2026-04-05T13:22:28.999Z</time></trkpt><trkpt lat="41.265277828834066" lon="14.737830987822399"><ele>488.0</ele><time>2026-04-05T13:22:29.999Z</time></trkpt><trkpt lat="41.26519766545759" lon="14.73786608854481"><ele>485.6666666666667</ele><time>2026-04-05T13:22:30.999Z</time></trkpt><trkpt lat="41.26514651732837" lon="14.737929298597203"><ele>483.33333333333337</ele><time>2026-04-05T13:22:31.999Z</time></trkpt><trkpt lat="41.265088972184884" lon="14.738057182298089"><ele>481.0</ele><time>2026-04-05T13:22:33.999Z</time></trkpt><trkpt lat="41.26512694738836" lon="14.738131836599791"><ele>481.0</ele><time>2026-04-05T13:22:34.999Z</time></trkpt><trkpt lat="41.265176627886554" lon="14.738206564235249"><ele>481.0</ele><time>2026-04-05T13:22:35.999Z</time></trkpt><trkpt lat="41.26521745411166" lon="14.738292917835903"><ele>481.0</ele><time>2026-04-05T13:22:36.999Z</time></trkpt><trkpt lat="41.2652864857848" lon="14.73837440904298"><ele>481.0</ele><time>2026-04-05T13:22:37.999Z</time></trkpt><trkpt lat="41.26537279888238" lon="14.738483851433053"><ele>481.0</ele><time>2026-04-05T13:22:38.999Z</time></trkpt><trkpt lat="41.26545478707415" lon="14.738602051556525"><ele>481.33333333333337</ele><time>2026-04-05T13:22:39.999Z</time></trkpt><trkpt lat="41.26554016740332" lon="14.738746394648642"><ele>481.66666666666663</ele><time>2026-04-05T13:22:40.999Z</time></trkpt><trkpt lat="41.26560185821859" lon="14.738924350722613"><ele>482.0</ele><time>2026-04-05T13:22:41.999Z</time></trkpt><trkpt lat="41.26566208738345" lon="14.739134342799636"><ele>482.0</ele><time>2026-04-05T13:22:42.999Z</time></trkpt><trkpt lat="41.26572028482016" lon="14.739344378142274"><ele>482.0</ele><time>2026-04-05T13:22:43.999Z</time></trkpt><trkpt lat="41.26576882371706" lon="14.739529629910871"><ele>482.0</ele><time>2026-04-05T13:22:44.999Z</time></trkpt><trkpt lat="41.26582039111094" lon="14.739726440162103"><ele>479.3333333333333</ele><time>2026-04-05T13:22:45.999Z</time></trkpt><trkpt lat="41.26587175637187" lon="14.739922478846994"><ele>476.66666666666663</ele><time>2026-04-05T13:22:46.999Z</time></trkpt><trkpt lat="41.26592206929421" lon="14.740114501257578"><ele>474.0</ele><time>2026-04-05T13:22:47.999Z</time></trkpt><trkpt lat="41.2659713470373" lon="14.740297705918724"><ele>471.0</ele><time>2026-04-05T13:22:48.999Z</time></trkpt><trkpt lat="41.26601862807225" lon="14.740473004042274"><ele>468.0</ele><time>2026-04-05T13:22:49.999Z</time></trkpt><trkpt lat="41.26605634626936" lon="14.740642022122142"><ele>465.0</ele><time>2026-04-05T13:22:50.999Z</time></trkpt><trkpt lat="41.26607326672079" lon="14.740813707592158"><ele>462.0</ele><time>2026-04-05T13:22:51.999Z</time></trkpt><trkpt lat="41.26606180904351" lon="14.740987243841646"><ele>460.66666666666663</ele><time>2026-04-05T13:22:52.999Z</time></trkpt><trkpt lat="41.26603431509981" lon="14.741181420119698"><ele>459.3333333333333</ele><time>2026-04-05T13:22:53.999Z</time></trkpt><trkpt lat="41.26603444964304" lon="14.74140046790624"><ele>458.0</ele><time>2026-04-05T13:22:54.999Z</time></trkpt><trkpt lat="41.266038583120114" lon="14.741608826614664"><ele>458.0</ele><time>2026-04-05T13:22:55.999Z</time></trkpt><trkpt lat="41.26605627807725" lon="14.741800790464627"><ele>458.0</ele><time>2026-04-05T13:22:56.999Z</time></trkpt><trkpt lat="41.26604928319274" lon="14.74199764095946"><ele>458.0</ele><time>2026-04-05T13:22:57.999Z</time></trkpt><trkpt lat="41.266053972371495" lon="14.742154982200008"><ele>458.0</ele><time>2026-04-05T13:22:58.999Z</time></trkpt><trkpt lat="41.26604748366645" lon="14.74226973207465"><ele>458.2</ele><time>2026-04-05T13:22:59.999Z</time></trkpt><trkpt lat="41.266027388939655" lon="14.742400583961626"><ele>458.4</ele><time>2026-04-05T13:23:01.998Z</time></trkpt><trkpt lat="41.26600801924715" lon="14.742483507340086"><ele>458.59999999999997</ele><time>2026-04-05T13:23:02.998Z</time></trkpt><trkpt lat="41.2659805219931" lon="14.742586762395558"><ele>458.79999999999995</ele><time>2026-04-05T13:23:03.998Z</time></trkpt><trkpt lat="41.26594563800867" lon="14.742703033359684"><ele>459.0</ele><time>2026-04-05T13:23:04.998Z</time></trkpt><trkpt lat="41.26590276055679" lon="14.742840711534997"><ele>457.5</ele><time>2026-04-05T13:23:05.998Z</time></trkpt><trkpt lat="41.265855549878474" lon="14.742994978678187"><ele>456.0</ele><time>2026-04-05T13:23:06.998Z</time></trkpt><trkpt lat="41.26580451353839" lon="14.743167442927195"><ele>454.5</ele><time>2026-04-05T13:23:07.998Z</time></trkpt><trkpt lat="41.265752129215784" lon="14.743344462214267"><ele>453.0</ele><time>2026-04-05T13:23:08.998Z</time></trkpt><trkpt lat="41.265706928047294" lon="14.743499693759578"><ele>452.2</ele><time>2026-04-05T13:23:09.998Z</time></trkpt><trkpt lat="41.26566727096953" lon="14.74364193011456"><ele>451.4</ele><time>2026-04-05T13:23:10.999Z</time></trkpt><trkpt lat="41.26563803813776" lon="14.743782337854299"><ele>450.59999999999997</ele><time>2026-04-05T13:23:11.999Z</time></trkpt><trkpt lat="41.26562630510991" lon="14.743924758884297"><ele>449.79999999999995</ele><time>2026-04-05T13:23:12.999Z</time></trkpt><trkpt lat="41.265651821117366" lon="14.744063236645882"><ele>449.0</ele><time>2026-04-05T13:23:13.999Z</time></trkpt><trkpt lat="41.265706885083844" lon="14.744198297761912"><ele>449.0</ele><time>2026-04-05T13:23:14.999Z</time></trkpt><trkpt lat="41.265809668492786" lon="14.744301849097823"><ele>449.0</ele><time>2026-04-05T13:23:15.999Z</time></trkpt><trkpt lat="41.265932987798614" lon="14.74440943885626"><ele>449.0</ele><time>2026-04-05T13:23:16.999Z</time></trkpt><trkpt lat="41.26604868737443" lon="14.74450606989967"><ele>449.0</ele><time>2026-04-05T13:23:17.999Z</time></trkpt><trkpt lat="41.2661558181996" lon="14.74458719655445"><ele>446.75</ele><time>2026-04-05T13:23:18.999Z</time></trkpt><trkpt lat="41.26626407694245" lon="14.744667768948503"><ele>444.5</ele><time>2026-04-05T13:23:19.999Z</time></trkpt><trkpt lat="41.26635963039918" lon="14.744758713174045"><ele>442.25</ele><time>2026-04-05T13:23:20.999Z</time></trkpt><trkpt lat="41.26644640263834" lon="14.74486479201247"><ele>440.0</ele><time>2026-04-05T13:23:21.999Z</time></trkpt><trkpt lat="41.26652025671664" lon="14.744977956847706"><ele>439.0</ele><time>2026-04-05T13:23:22.999Z</time></trkpt><trkpt lat="41.2665913942149" lon="14.745093805959549"><ele>438.0</ele><time>2026-04-05T13:23:23.999Z</time></trkpt><trkpt lat="41.26666694733314" lon="14.745229261470104"><ele>437.0</ele><time>2026-04-05T13:23:24.999Z</time></trkpt><trkpt lat="41.26673936510626" lon="14.745365613015895"><ele>436.0</ele><time>2026-04-05T13:23:25.999Z</time></trkpt><trkpt lat="41.266810438125326" lon="14.745500752506338"><ele>434.4</ele><time>2026-04-05T13:23:26.999Z</time></trkpt><trkpt lat="41.266880237680645" lon="14.745631521351312"><ele>432.8</ele><time>2026-04-05T13:23:27.999Z</time></trkpt><trkpt lat="41.266948943787874" lon="14.745759126795642"><ele>431.19999999999993</ele><time>2026-04-05T13:23:28.999Z</time></trkpt><trkpt lat="41.266991416597335" lon="14.745847732235088"><ele>429.59999999999997</ele><time>2026-04-05T13:23:29.999Z</time></trkpt><trkpt lat="41.267022791803" lon="14.745925910792966"><ele>428.0</ele><time>2026-04-05T13:23:30.999Z</time></trkpt><trkpt lat="41.26702233312667" lon="14.74603585356827"><ele>428.0</ele><time>2026-04-05T13:23:32.999Z</time></trkpt><trkpt lat="41.266957457855355" lon="14.746010628663544"><ele>427.99999999999994</ele><time>2026-04-05T13:23:33.999Z</time></trkpt><trkpt lat="41.26685496508816" lon="14.745992531878972"><ele>427.99999999999994</ele><time>2026-04-05T13:23:34.999Z</time></trkpt><trkpt lat="41.26672729146998" lon="14.745969181779927"><ele>428.0</ele><time>2026-04-05T13:23:35.999Z</time></trkpt><trkpt lat="41.26659304265337" lon="14.745944472611923"><ele>428.0</ele><time>2026-04-05T13:23:36.999Z</time></trkpt><trkpt lat="41.26643967186291" lon="14.7459113155757"><ele>429.3333333333333</ele><time>2026-04-05T13:23:37.999Z</time></trkpt><trkpt lat="41.26627234028034" lon="14.745883063677969"><ele>430.66666666666663</ele><time>2026-04-05T13:23:38.999Z</time></trkpt><trkpt lat="41.26609889516102" lon="14.745853721928917"><ele>432.0</ele><time>2026-04-05T13:23:39.999Z</time></trkpt><trkpt lat="41.26591602402618" lon="14.745822915946702"><ele>432.0</ele><time>2026-04-05T13:23:40.999Z</time></trkpt><trkpt lat="41.26575152368141" lon="14.745796106669085"><ele>432.0</ele><time>2026-04-05T13:23:41.999Z</time></trkpt><trkpt lat="41.26560709822463" lon="14.745771550223301"><ele>432.0</ele><time>2026-04-05T13:23:42.999Z</time></trkpt><trkpt lat="41.26548273759928" lon="14.745739854947711"><ele>432.0</ele><time>2026-04-05T13:23:43.999Z</time></trkpt><trkpt lat="41.265373542606035" lon="14.745664801182448"><ele>431.0</ele><time>2026-04-05T13:23:44.999Z</time></trkpt><trkpt lat="41.26523134307582" lon="14.745600397002324"><ele>430.0</ele><time>2026-04-05T13:23:45.999Z</time></trkpt><trkpt lat="41.265078829847305" lon="14.745494818002268"><ele>429.0</ele><time>2026-04-05T13:23:46.999Z</time></trkpt><trkpt lat="41.26490296274189" lon="14.745405148666295"><ele>429.5</ele><time>2026-04-05T13:23:47.999Z</time></trkpt><trkpt lat="41.264737249022744" lon="14.745342630055726"><ele>430.0</ele><time>2026-04-05T13:23:48.999Z</time></trkpt><trkpt lat="41.26460981850734" lon="14.745262481447536"><ele>430.5</ele><time>2026-04-05T13:23:49.999Z</time></trkpt><trkpt lat="41.26448945809509" lon="14.745187177757975"><ele>431.0</ele><time>2026-04-05T13:23:50.999Z</time></trkpt><trkpt lat="41.26437966084826" lon="14.7450843229056"><ele>431.0</ele><time>2026-04-05T13:23:51.999Z</time></trkpt><trkpt lat="41.26426334515835" lon="14.744994221455933"><ele>431.0</ele><time>2026-04-05T13:23:52.999Z</time></trkpt><trkpt lat="41.26414912359777" lon="14.744889293677728"><ele>431.0</ele><time>2026-04-05T13:23:53.999Z</time></trkpt><trkpt lat="41.26403619030429" lon="14.744815190244145"><ele>431.0</ele><time>2026-04-05T13:23:54.999Z</time></trkpt><trkpt lat="41.26391030221751" lon="14.744747380944261"><ele>428.5</ele><time>2026-04-05T13:23:55.999Z</time></trkpt><trkpt lat="41.26377671772895" lon="14.74469006248841"><ele>426.0</ele><time>2026-04-05T13:23:56.999Z</time></trkpt><trkpt lat="41.263651989629246" lon="14.744633869107703"><ele>423.5</ele><time>2026-04-05T13:23:57.999Z</time></trkpt><trkpt lat="41.26353163280417" lon="14.74456942553613"><ele>421.0</ele><time>2026-04-05T13:23:58.999Z</time></trkpt><trkpt lat="41.263422339097545" lon="14.744516272615932"><ele>421.0</ele><time>2026-04-05T13:23:59.999Z</time></trkpt><trkpt lat="41.26332315307397" lon="14.744509149839748"><ele>421.0</ele><time>2026-04-05T13:24:00.999Z</time></trkpt><trkpt lat="41.26323214126452" lon="14.74451638222992"><ele>421.0</ele><time>2026-04-05T13:24:01.999Z</time></trkpt><trkpt lat="41.26312828929708" lon="14.74454206709974"><ele>421.0</ele><time>2026-04-05T13:24:02.999Z</time></trkpt><trkpt lat="41.26301115162419" lon="14.744621831765825"><ele>421.0</ele><time>2026-04-05T13:24:03.999Z</time></trkpt><trkpt lat="41.26290919446491" lon="14.744718006282342"><ele>418.6</ele><time>2026-04-05T13:24:04.999Z</time></trkpt><trkpt lat="41.26283085805172" lon="14.7448200266865"><ele>416.20000000000005</ele><time>2026-04-05T13:24:05.999Z</time></trkpt><trkpt lat="41.262757497144776" lon="14.744935471925222"><ele>413.79999999999995</ele><time>2026-04-05T13:24:06.999Z</time></trkpt><trkpt lat="41.26269293983936" lon="14.745055611900582"><ele>411.4</ele><time>2026-04-05T13:24:07.999Z</time></trkpt><trkpt lat="41.262632227046325" lon="14.745185808198361"><ele>409.0</ele><time>2026-04-05T13:24:08.999Z</time></trkpt><trkpt lat="41.26254723551828" lon="14.745289371549685"><ele>408.25</ele><time>2026-04-05T13:24:09.999Z</time></trkpt><trkpt lat="41.262472674459126" lon="14.745391179672529"><ele>407.5</ele><time>2026-04-05T13:24:10.999Z</time></trkpt><trkpt lat="41.26236212418575" lon="14.745455400221172"><ele>406.75</ele><time>2026-04-05T13:24:11.999Z</time></trkpt><trkpt lat="41.262213505546875" lon="14.745494744402187"><ele>406.0</ele><time>2026-04-05T13:24:12.999Z</time></trkpt><trkpt lat="41.26206397524995" lon="14.745586169706549"><ele>402.33333333333337</ele><time>2026-04-05T13:24:13.999Z</time></trkpt><trkpt lat="41.26191240694418" lon="14.745656759043545"><ele>398.66666666666663</ele><time>2026-04-05T13:24:14.999Z</time></trkpt><trkpt lat="41.261768036943685" lon="14.745735824673556"><ele>395.0</ele><time>2026-04-05T13:24:15.999Z</time></trkpt><trkpt lat="41.261637863905406" lon="14.74582070243142"><ele>395.0</ele><time>2026-04-05T13:24:16.999Z</time></trkpt><trkpt lat="41.26149766615388" lon="14.745885628378153"><ele>395.0</ele><time>2026-04-05T13:24:17.999Z</time></trkpt><trkpt lat="41.261366930614194" lon="14.745969327539314"><ele>395.0</ele><time>2026-04-05T13:24:18.999Z</time></trkpt><trkpt lat="41.26123306488441" lon="14.746058619776349"><ele>395.0</ele><time>2026-04-05T13:24:19.999Z</time></trkpt><trkpt lat="41.261110881476476" lon="14.74614458283239"><ele>390.5</ele><time>2026-04-05T13:24:20.999Z</time></trkpt><trkpt lat="41.26098698051282" lon="14.746230934933683"><ele>386.0</ele><time>2026-04-05T13:24:21.999Z</time></trkpt><trkpt lat="41.260862730037985" lon="14.746311866950387"><ele>381.5</ele><time>2026-04-05T13:24:22.999Z</time></trkpt><trkpt lat="41.26073587140232" lon="14.746387735670135"><ele>377.0</ele><time>2026-04-05T13:24:23.999Z</time></trkpt><trkpt lat="41.26061071366617" lon="14.746452004971415"><ele>376.0</ele><time>2026-04-05T13:24:24.999Z</time></trkpt><trkpt lat="41.26049083420137" lon="14.746511257362664"><ele>375.0</ele><time>2026-04-05T13:24:25.999Z</time></trkpt><trkpt lat="41.260374911226194" lon="14.746572716551368"><ele>374.0</ele><time>2026-04-05T13:24:26.999Z</time></trkpt><trkpt lat="41.26027137598341" lon="14.746642512005872"><ele>373.0</ele><time>2026-04-05T13:24:27.999Z</time></trkpt><trkpt lat="41.260186904096" lon="14.746741588914585"><ele>373.0</ele><time>2026-04-05T13:24:28.999Z</time></trkpt><trkpt lat="41.26012257657573" lon="14.746828250117794"><ele>373.0</ele><time>2026-04-05T13:24:29.999Z</time></trkpt><trkpt lat="41.26006290782808" lon="14.746913652047505"><ele>373.0</ele><time>2026-04-05T13:24:30.999Z</time></trkpt><trkpt lat="41.260018838160505" lon="14.746978532281691"><ele>373.0</ele><time>2026-04-05T13:24:31.999Z</time></trkpt><trkpt lat="41.259980050171386" lon="14.747047161738177"><ele>373.0</ele><time>2026-04-05T13:24:34.999Z</time></trkpt><trkpt lat="41.25991383546162" lon="14.747169880533365"><ele>373.0</ele><time>2026-04-05T13:24:36.999Z</time></trkpt><trkpt lat="41.259787673591156" lon="14.747126963711276"><ele>375.4</ele><time>2026-04-05T13:24:38.999Z</time></trkpt><trkpt lat="41.2597136112539" lon="14.747072432164456"><ele>377.79999999999995</ele><time>2026-04-05T13:24:39.999Z</time></trkpt><trkpt lat="41.25962407917393" lon="14.74704375303614"><ele>380.2</ele><time>2026-04-05T13:24:40.999Z</time></trkpt><trkpt lat="41.25953504543942" lon="14.747029891871257"><ele>382.6</ele><time>2026-04-05T13:24:41.999Z</time></trkpt><trkpt lat="41.25942399292261" lon="14.747015573389863"><ele>385.0</ele><time>2026-04-05T13:24:42.999Z</time></trkpt><trkpt lat="41.25929769942848" lon="14.747005580249144"><ele>385.0</ele><time>2026-04-05T13:24:43.999Z</time></trkpt><trkpt lat="41.259176335033146" lon="14.747035450436002"><ele>385.0</ele><time>2026-04-05T13:24:44.999Z</time></trkpt><trkpt lat="41.25905137841414" lon="14.747082148532858"><ele>385.0</ele><time>2026-04-05T13:24:45.999Z</time></trkpt><trkpt lat="41.25892774855925" lon="14.747141408527597"><ele>385.0</ele><time>2026-04-05T13:24:46.999Z</time></trkpt><trkpt lat="41.25881564461553" lon="14.747209114797416"><ele>385.75</ele><time>2026-04-05T13:24:47.999Z</time></trkpt><trkpt lat="41.258689083137" lon="14.747305127365818"><ele>386.5</ele><time>2026-04-05T13:24:48.999Z</time></trkpt><trkpt lat="41.25856823678734" lon="14.747402130492464"><ele>387.25</ele><time>2026-04-05T13:24:49.999Z</time></trkpt><trkpt lat="41.2584389448205" lon="14.747493514223311"><ele>388.0</ele><time>2026-04-05T13:24:50.999Z</time></trkpt><trkpt lat="41.2583116174356" lon="14.747582415181624"><ele>388.0</ele><time>2026-04-05T13:24:51.999Z</time></trkpt><trkpt lat="41.25818811031084" lon="14.747675742448823"><ele>388.0</ele><time>2026-04-05T13:24:52.999Z</time></trkpt><trkpt lat="41.25806737264528" lon="14.747787400218382"><ele>388.0</ele><time>2026-04-05T13:24:53.999Z</time></trkpt><trkpt lat="41.25796259194284" lon="14.747900633036835"><ele>388.0</ele><time>2026-04-05T13:24:54.999Z</time></trkpt><trkpt lat="41.25786437056257" lon="14.74802941334464"><ele>391.25</ele><time>2026-04-05T13:24:55.999Z</time></trkpt><trkpt lat="41.25779049036441" lon="14.74817811874639"><ele>394.5</ele><time>2026-04-05T13:24:56.999Z</time></trkpt><trkpt lat="41.25769914510396" lon="14.748301936934606"><ele>397.75</ele><time>2026-04-05T13:24:57.999Z</time></trkpt><trkpt lat="41.25760476072882" lon="14.748427187457555"><ele>401.0</ele><time>2026-04-05T13:24:58.999Z</time></trkpt><trkpt lat="41.25750675201565" lon="14.748532336769848"><ele>404.66666666666663</ele><time>2026-04-05T13:24:59.999Z</time></trkpt><trkpt lat="41.25737482965944" lon="14.748654150526114"><ele>408.33333333333337</ele><time>2026-04-05T13:25:00.999Z</time></trkpt><trkpt lat="41.25721210591113" lon="14.748744011357061"><ele>412.0</ele><time>2026-04-05T13:25:01.999Z</time></trkpt><trkpt lat="41.257054271256166" lon="14.748807734792745"><ele>412.25</ele><time>2026-04-05T13:25:02.999Z</time></trkpt><trkpt lat="41.25692120579412" lon="14.74885126138233"><ele>412.5</ele><time>2026-04-05T13:25:03.999Z</time></trkpt><trkpt lat="41.25681959648955" lon="14.748936811308507"><ele>412.75</ele><time>2026-04-05T13:25:04.999Z</time></trkpt><trkpt lat="41.25671652139295" lon="14.749069341863164"><ele>413.0</ele><time>2026-04-05T13:25:05.999Z</time></trkpt><trkpt lat="41.25662369688596" lon="14.74920030537493"><ele>413.0</ele><time>2026-04-05T13:25:06.999Z</time></trkpt><trkpt lat="41.25651136327829" lon="14.749284278368407"><ele>413.0</ele><time>2026-04-05T13:25:07.999Z</time></trkpt><trkpt lat="41.25638917000049" lon="14.749327770293245"><ele>413.0</ele><time>2026-04-05T13:25:08.999Z</time></trkpt><trkpt lat="41.25623163603048" lon="14.74937236698856"><ele>413.0</ele><time>2026-04-05T13:25:09.999Z</time></trkpt><trkpt lat="41.256057083210756" lon="14.749434241424682"><ele>416.66666666666663</ele><time>2026-04-05T13:25:10.999Z</time></trkpt><trkpt lat="41.25588818861375" lon="14.749495431956502"><ele>420.33333333333337</ele><time>2026-04-05T13:25:11.999Z</time></trkpt><trkpt lat="41.25571038687671" lon="14.7495587653235"><ele>424.0</ele><time>2026-04-05T13:25:12.999Z</time></trkpt><trkpt lat="41.2555272520018" lon="14.749637207389316"><ele>424.75</ele><time>2026-04-05T13:25:13.999Z</time></trkpt><trkpt lat="41.25536116220693" lon="14.749705649662763"><ele>425.5</ele><time>2026-04-05T13:25:14.999Z</time></trkpt><trkpt lat="41.25522195621093" lon="14.749761292583695"><ele>426.25</ele><time>2026-04-05T13:25:15.999Z</time></trkpt><trkpt lat="41.25511284745908" lon="14.74980511775289"><ele>427.0</ele><time>2026-04-05T13:25:17Z</time></trkpt><trkpt lat="41.25504644034756" lon="14.749829761787272"><ele>427.0</ele><time>2026-04-05T13:25:18Z</time></trkpt><trkpt lat="41.25498347594437" lon="14.749848942241586"><ele>427.00000000000006</ele><time>2026-04-05T13:25:22Z</time></trkpt><trkpt lat="41.25504574911328" lon="14.750091716212104"><ele>427.00000000000006</ele><time>2026-04-05T13:25:24Z</time></trkpt><trkpt lat="41.255071489590456" lon="14.750193731458742"><ele>427.0</ele><time>2026-04-05T13:25:25Z</time></trkpt><trkpt lat="41.25509926761005" lon="14.75030984140066"><ele>427.0</ele><time>2026-04-05T13:25:26Z</time></trkpt><trkpt lat="41.255127884406136" lon="14.75042945729586"><ele>427.40000000000003</ele><time>2026-04-05T13:25:27Z</time></trkpt><trkpt lat="41.255154206053156" lon="14.750545965398006"><ele>427.80000000000007</ele><time>2026-04-05T13:25:28Z</time></trkpt><trkpt lat="41.25517525971202" lon="14.750654730977287"><ele>428.2</ele><time>2026-04-05T13:25:29Z</time></trkpt><trkpt lat="41.255205903334506" lon="14.75081528431491"><ele>428.6</ele><time>2026-04-05T13:25:30Z</time></trkpt><trkpt lat="41.25522872475715" lon="14.750937360879645"><ele>429.0</ele><time>2026-04-05T13:25:31Z</time></trkpt><trkpt lat="41.25525127861965" lon="14.751040818648814"><ele>429.0</ele><time>2026-04-05T13:25:32Z</time></trkpt><trkpt lat="41.25526643432475" lon="14.751126101760299"><ele>429.0</ele><time>2026-04-05T13:25:33Z</time></trkpt><trkpt lat="41.255280116579705" lon="14.751250328209556"><ele>429.0</ele><time>2026-04-05T13:25:35Z</time></trkpt><trkpt lat="41.25525761319486" lon="14.751153555233175"><ele>429.0</ele><time>2026-04-05T13:25:38Z</time></trkpt><trkpt lat="41.25524725901482" lon="14.751036865218689"><ele>429.0</ele><time>2026-04-05T13:25:39Z</time></trkpt><trkpt lat="41.2552246349116" lon="14.750891963467451"><ele>429.0</ele><time>2026-04-05T13:25:40Z</time></trkpt><trkpt lat="41.25519073582989" lon="14.750734154638266"><ele>429.0</ele><time>2026-04-05T13:25:41Z</time></trkpt><trkpt lat="41.25515992097244" lon="14.750569320481729"><ele>429.0</ele><time>2026-04-05T13:25:42Z</time></trkpt><trkpt lat="41.25512977265619" lon="14.750408052395953"><ele>429.0</ele><time>2026-04-05T13:25:43Z</time></trkpt><trkpt lat="41.255099732651374" lon="14.750271912602022"><ele>429.0</ele><time>2026-04-05T13:25:44Z</time></trkpt><trkpt lat="41.2550658526031" lon="14.75015076843853"><ele>428.33333333333337</ele><time>2026-04-05T13:25:45Z</time></trkpt><trkpt lat="41.25502553510647" lon="14.74993415197846"><ele>427.6666666666667</ele><time>2026-04-05T13:25:47Z</time></trkpt><trkpt lat="41.25497434373161" lon="14.749874887725676"><ele>427.0</ele><time>2026-04-05T13:25:48Z</time></trkpt><trkpt lat="41.25473053519687" lon="14.750034435005375"><ele>426.20000000000005</ele><time>2026-04-05T13:25:52Z</time></trkpt><trkpt lat="41.25469880015771" lon="14.750112817489747"><ele>425.40000000000003</ele><time>2026-04-05T13:25:54Z</time></trkpt><trkpt lat="41.25468624481045" lon="14.750279420978629"><ele>424.6</ele><time>2026-04-05T13:25:58Z</time></trkpt><trkpt lat="41.2546977153244" lon="14.750394352735636"><ele>423.79999999999995</ele><time>2026-04-05T13:25:59Z</time></trkpt><trkpt lat="41.25469255692023" lon="14.750538028747032"><ele>423.0</ele><time>2026-04-05T13:26:00Z</time></trkpt><trkpt lat="41.25464458988727" lon="14.75083452928974"><ele>421.25</ele><time>2026-04-05T13:26:02Z</time></trkpt><trkpt lat="41.254607081332374" lon="14.750998771204255"><ele>419.5</ele><time>2026-04-05T13:26:03Z</time></trkpt><trkpt lat="41.25455913899301" lon="14.751170428506718"><ele>417.75</ele><time>2026-04-05T13:26:04Z</time></trkpt><trkpt lat="41.254503267543235" lon="14.751348763105414"><ele>416.0</ele><time>2026-04-05T13:26:05Z</time></trkpt><trkpt lat="41.254453463793446" lon="14.751527916130328"><ele>415.66666666666663</ele><time>2026-04-05T13:26:06Z</time></trkpt><trkpt lat="41.25441189119832" lon="14.75171270008614"><ele>415.33333333333337</ele><time>2026-04-05T13:26:07Z</time></trkpt><trkpt lat="41.25436902829972" lon="14.751905659550765"><ele>415.0</ele><time>2026-04-05T13:26:08Z</time></trkpt><trkpt lat="41.25432336901893" lon="14.752107791897481"><ele>415.5</ele><time>2026-04-05T13:26:09Z</time></trkpt><trkpt lat="41.25427854519614" lon="14.75229940675837"><ele>416.0</ele><time>2026-04-05T13:26:10Z</time></trkpt><trkpt lat="41.254234871772624" lon="14.752475983860176"><ele>416.5</ele><time>2026-04-05T13:26:11Z</time></trkpt><trkpt lat="41.25420023549113" lon="14.75265006334475"><ele>417.0</ele><time>2026-04-05T13:26:12Z</time></trkpt><trkpt lat="41.254189305287944" lon="14.75281628371404"><ele>414.75</ele><time>2026-04-05T13:26:13Z</time></trkpt><trkpt lat="41.254223583871934" lon="14.752991756836453"><ele>412.5</ele><time>2026-04-05T13:26:14Z</time></trkpt><trkpt lat="41.25430627184752" lon="14.753155672322546"><ele>410.25</ele><time>2026-04-05T13:26:15Z</time></trkpt><trkpt lat="41.254425103169666" lon="14.75328944702227"><ele>408.0</ele><time>2026-04-05T13:26:16Z</time></trkpt><trkpt lat="41.254571807476275" lon="14.753384013055628"><ele>408.0</ele><time>2026-04-05T13:26:17Z</time></trkpt><trkpt lat="41.25470939245437" lon="14.753443039354707"><ele>408.0</ele><time>2026-04-05T13:26:18Z</time></trkpt><trkpt lat="41.25482812071993" lon="14.75351775998057"><ele>408.0</ele><time>2026-04-05T13:26:19Z</time></trkpt><trkpt lat="41.254926097370436" lon="14.753625979725024"><ele>408.0</ele><time>2026-04-05T13:26:20Z</time></trkpt><trkpt lat="41.254990048398675" lon="14.753765697166248"><ele>410.25</ele><time>2026-04-05T13:26:21Z</time></trkpt><trkpt lat="41.255020655075676" lon="14.753946758194042"><ele>412.5</ele><time>2026-04-05T13:26:22Z</time></trkpt><trkpt lat="41.255043708750556" lon="14.754139366724242"><ele>414.75</ele><time>2026-04-05T13:26:23Z</time></trkpt><trkpt lat="41.25503963209916" lon="14.754323470527458"><ele>417.0</ele><time>2026-04-05T13:26:24Z</time></trkpt><trkpt lat="41.25500073168137" lon="14.754511656961608"><ele>419.33333333333337</ele><time>2026-04-05T13:26:25Z</time></trkpt><trkpt lat="41.25489619243912" lon="14.754669759930348"><ele>421.6666666666667</ele><time>2026-04-05T13:26:26Z</time></trkpt><trkpt lat="41.25477803928864" lon="14.754873827103037"><ele>424.0</ele><time>2026-04-05T13:26:27Z</time></trkpt><trkpt lat="41.25470312698326" lon="14.755041065398775"><ele>422.5</ele><time>2026-04-05T13:26:28Z</time></trkpt><trkpt lat="41.25463360371375" lon="14.755207898877092"><ele>421.0</ele><time>2026-04-05T13:26:29Z</time></trkpt><trkpt lat="41.25451271690842" lon="14.755289901478365"><ele>419.5</ele><time>2026-04-05T13:26:30Z</time></trkpt><trkpt lat="41.25436933887624" lon="14.75529570420286"><ele>418.0</ele><time>2026-04-05T13:26:31Z</time></trkpt><trkpt lat="41.254249940042655" lon="14.75526089608838"><ele>418.0</ele><time>2026-04-05T13:26:32Z</time></trkpt><trkpt lat="41.25413141524052" lon="14.755304322298352"><ele>418.0</ele><time>2026-04-05T13:26:33Z</time></trkpt><trkpt lat="41.25402952926192" lon="14.755425068835365"><ele>418.0</ele><time>2026-04-05T13:26:34Z</time></trkpt><trkpt lat="41.25395414908109" lon="14.755602685504593"><ele>418.0</ele><time>2026-04-05T13:26:35Z</time></trkpt><trkpt lat="41.253872458876785" lon="14.7557945363751"><ele>417.33333333333337</ele><time>2026-04-05T13:26:36Z</time></trkpt><trkpt lat="41.253803823352406" lon="14.755993545957887"><ele>416.66666666666663</ele><time>2026-04-05T13:26:37Z</time></trkpt><trkpt lat="41.25371063188339" lon="14.756166847607618"><ele>416.0</ele><time>2026-04-05T13:26:38Z</time></trkpt><trkpt lat="41.25357829889327" lon="14.756333179830596"><ele>416.0</ele><time>2026-04-05T13:26:38.999Z</time></trkpt><trkpt lat="41.253416938881145" lon="14.756448551622235"><ele>416.0</ele><time>2026-04-05T13:26:39.999Z</time></trkpt><trkpt lat="41.25327329404661" lon="14.75653085120772"><ele>416.0</ele><time>2026-04-05T13:26:40.999Z</time></trkpt><trkpt lat="41.2531215090273" lon="14.756585803263862"><ele>414.3333333333333</ele><time>2026-04-05T13:26:41.999Z</time></trkpt><trkpt lat="41.252946262746114" lon="14.756591382696525"><ele>412.66666666666663</ele><time>2026-04-05T13:26:42.999Z</time></trkpt><trkpt lat="41.252772619056316" lon="14.75653412360691"><ele>411.0</ele><time>2026-04-05T13:26:43.999Z</time></trkpt><trkpt lat="41.2525934269481" lon="14.756420169982162"><ele>411.0</ele><time>2026-04-05T13:26:44.999Z</time></trkpt><trkpt lat="41.25242037366676" lon="14.756301943045791"><ele>411.0</ele><time>2026-04-05T13:26:45.999Z</time></trkpt><trkpt lat="41.25224250044461" lon="14.756245903320051"><ele>411.0</ele><time>2026-04-05T13:26:46.999Z</time></trkpt><trkpt lat="41.25209208259648" lon="14.75620130140471"><ele>409.25</ele><time>2026-04-05T13:26:47.999Z</time></trkpt><trkpt lat="41.2519614137933" lon="14.756230796926355"><ele>407.5</ele><time>2026-04-05T13:26:48.999Z</time></trkpt><trkpt lat="41.25186495856521" lon="14.75632131334267"><ele>405.75</ele><time>2026-04-05T13:26:49.999Z</time></trkpt><trkpt lat="41.251770086939736" lon="14.75642618632675"><ele>404.0</ele><time>2026-04-05T13:26:50.999Z</time></trkpt><trkpt lat="41.251755901800514" lon="14.756641542977299"><ele>403.66666666666663</ele><time>2026-04-05T13:26:51.999Z</time></trkpt><trkpt lat="41.25179372480636" lon="14.756870964847236"><ele>403.33333333333337</ele><time>2026-04-05T13:26:52.999Z</time></trkpt><trkpt lat="41.2518216138756" lon="14.757101114469727"><ele>403.0</ele><time>2026-04-05T13:26:53.999Z</time></trkpt><trkpt lat="41.2518093080489" lon="14.757324981049367"><ele>403.0</ele><time>2026-04-05T13:26:54.999Z</time></trkpt><trkpt lat="41.25174245648288" lon="14.75753681271399"><ele>403.0</ele><time>2026-04-05T13:26:55.999Z</time></trkpt><trkpt lat="41.25167096274584" lon="14.757773538245761"><ele>403.0</ele><time>2026-04-05T13:26:56.999Z</time></trkpt><trkpt lat="41.25160138425245" lon="14.757977301702471"><ele>402.0</ele><time>2026-04-05T13:26:57.999Z</time></trkpt><trkpt lat="41.25152657602711" lon="14.758152324813496"><ele>401.0</ele><time>2026-04-05T13:26:58.999Z</time></trkpt><trkpt lat="41.25144795124221" lon="14.758301598156539"><ele>400.0</ele><time>2026-04-05T13:26:59.999Z</time></trkpt><trkpt lat="41.25131817118789" lon="14.758390779277562"><ele>399.0</ele><time>2026-04-05T13:27:00.999Z</time></trkpt><trkpt lat="41.25114609777418" lon="14.758432434888055"><ele>399.0</ele><time>2026-04-05T13:27:01.999Z</time></trkpt><trkpt lat="41.250965556018315" lon="14.75844582207513"><ele>399.0</ele><time>2026-04-05T13:27:02.999Z</time></trkpt><trkpt lat="41.25076988073014" lon="14.758456664129714"><ele>399.0</ele><time>2026-04-05T13:27:03.999Z</time></trkpt><trkpt lat="41.25056400983438" lon="14.758445104193058"><ele>399.33333333333337</ele><time>2026-04-05T13:27:04.999Z</time></trkpt><trkpt lat="41.2503706585728" lon="14.758412934447962"><ele>399.6666666666667</ele><time>2026-04-05T13:27:05.999Z</time></trkpt><trkpt lat="41.2501934543062" lon="14.758299208822933"><ele>400.0</ele><time>2026-04-05T13:27:06.999Z</time></trkpt><trkpt lat="41.25002526782131" lon="14.758206085382795"><ele>400.0</ele><time>2026-04-05T13:27:07.999Z</time></trkpt><trkpt lat="41.24985653903719" lon="14.758103594948471"><ele>400.0</ele><time>2026-04-05T13:27:08.999Z</time></trkpt><trkpt lat="41.24969438161294" lon="14.758024737145243"><ele>400.0</ele><time>2026-04-05T13:27:09.999Z</time></trkpt><trkpt lat="41.24951098933472" lon="14.757956747482607"><ele>399.6666666666667</ele><time>2026-04-05T13:27:10.999Z</time></trkpt><trkpt lat="41.249303020622165" lon="14.757963735791849"><ele>399.33333333333337</ele><time>2026-04-05T13:27:11.999Z</time></trkpt><trkpt lat="41.24908643016751" lon="14.757993753408297"><ele>399.0</ele><time>2026-04-05T13:27:12.999Z</time></trkpt><trkpt lat="41.24892065490136" lon="14.758028629029818"><ele>394.5</ele><time>2026-04-05T13:27:13.999Z</time></trkpt><trkpt lat="41.24880380933584" lon="14.758067113938782"><ele>390.0</ele><time>2026-04-05T13:27:14.999Z</time></trkpt><trkpt lat="41.24869678174998" lon="14.758140748858448"><ele>385.5</ele><time>2026-04-05T13:27:15.999Z</time></trkpt><trkpt lat="41.24863697662842" lon="14.758263682974977"><ele>381.0</ele><time>2026-04-05T13:27:16.999Z</time></trkpt><trkpt lat="41.248614117608774" lon="14.758415530614776"><ele>381.25</ele><time>2026-04-05T13:27:17.999Z</time></trkpt><trkpt lat="41.24866640266811" lon="14.758594734884438"><ele>381.5</ele><time>2026-04-05T13:27:18.999Z</time></trkpt><trkpt lat="41.24876403469544" lon="14.758730711478334"><ele>381.75</ele><time>2026-04-05T13:27:19.999Z</time></trkpt><trkpt lat="41.24885243281077" lon="14.758845131201399"><ele>382.0</ele><time>2026-04-05T13:27:20.999Z</time></trkpt><trkpt lat="41.24891369406922" lon="14.758971060505"><ele>382.0</ele><time>2026-04-05T13:27:21.999Z</time></trkpt><trkpt lat="41.248924975467084" lon="14.759127935571199"><ele>382.0</ele><time>2026-04-05T13:27:23Z</time></trkpt><trkpt lat="41.24885404156598" lon="14.759313460073642"><ele>382.0</ele><time>2026-04-05T13:27:24Z</time></trkpt><trkpt lat="41.248773038320756" lon="14.759484168462734"><ele>382.0</ele><time>2026-04-05T13:27:25Z</time></trkpt><trkpt lat="41.24866283036425" lon="14.759625263527678"><ele>386.0</ele><time>2026-04-05T13:27:26Z</time></trkpt><trkpt lat="41.2485097772477" lon="14.759707263672396"><ele>390.0</ele><time>2026-04-05T13:27:27Z</time></trkpt><trkpt lat="41.24835664148988" lon="14.759762647694952"><ele>394.0</ele><time>2026-04-05T13:27:28Z</time></trkpt><trkpt lat="41.248214220806304" lon="14.759803754771026"><ele>392.25</ele><time>2026-04-05T13:27:29Z</time></trkpt><trkpt lat="41.24807827287796" lon="14.759830902008625"><ele>390.5</ele><time>2026-04-05T13:27:30Z</time></trkpt><trkpt lat="41.24796179643383" lon="14.75984325926573"><ele>388.75</ele><time>2026-04-05T13:27:31Z</time></trkpt><trkpt lat="41.247839444769546" lon="14.75987433132408"><ele>387.0</ele><time>2026-04-05T13:27:32Z</time></trkpt><trkpt lat="41.247712112608916" lon="14.759889609952815"><ele>387.0</ele><time>2026-04-05T13:27:33Z</time></trkpt><trkpt lat="41.24758789407287" lon="14.759908449475214"><ele>387.0</ele><time>2026-04-05T13:27:34Z</time></trkpt><trkpt lat="41.24746223764737" lon="14.759937553202992"><ele>387.0</ele><time>2026-04-05T13:27:35Z</time></trkpt><trkpt lat="41.24733308355946" lon="14.75996942926118"><ele>387.0</ele><time>2026-04-05T13:27:36Z</time></trkpt><trkpt lat="41.24720260749269" lon="14.76001465437397"><ele>386.5</ele><time>2026-04-05T13:27:37Z</time></trkpt><trkpt lat="41.24707979905777" lon="14.760061910519955"><ele>386.0</ele><time>2026-04-05T13:27:38Z</time></trkpt><trkpt lat="41.2469530289809" lon="14.760102403344222"><ele>385.5</ele><time>2026-04-05T13:27:39Z</time></trkpt><trkpt lat="41.24682500754736" lon="14.760131576257029"><ele>385.0</ele><time>2026-04-05T13:27:40Z</time></trkpt><trkpt lat="41.2466927589382" lon="14.760138981552606"><ele>385.0</ele><time>2026-04-05T13:27:41Z</time></trkpt><trkpt lat="41.246565438276875" lon="14.760122742241103"><ele>385.0</ele><time>2026-04-05T13:27:42Z</time></trkpt><trkpt lat="41.24643921779657" lon="14.760095998873972"><ele>385.0</ele><time>2026-04-05T13:27:43Z</time></trkpt><trkpt lat="41.24632514035096" lon="14.760065789436805"><ele>385.0</ele><time>2026-04-05T13:27:44Z</time></trkpt><trkpt lat="41.246221139319935" lon="14.760021507647815"><ele>384.83333333333337</ele><time>2026-04-05T13:27:45Z</time></trkpt><trkpt lat="41.24614496940519" lon="14.759998411257364"><ele>384.6666666666667</ele><time>2026-04-05T13:27:46Z</time></trkpt><trkpt lat="41.246077401187" lon="14.760013166830174"><ele>384.5</ele><time>2026-04-05T13:27:47Z</time></trkpt><trkpt lat="41.24602031494298" lon="14.76006378457994"><ele>384.33333333333337</ele><time>2026-04-05T13:27:48Z</time></trkpt><trkpt lat="41.24596270654671" lon="14.760128881312388"><ele>384.1666666666667</ele><time>2026-04-05T13:27:49Z</time></trkpt><trkpt lat="41.245941193008186" lon="14.76025137747405"><ele>384.0</ele><time>2026-04-05T13:27:50Z</time></trkpt><trkpt lat="41.24593556104445" lon="14.760371554803207"><ele>384.4</ele><time>2026-04-05T13:27:51Z</time></trkpt><trkpt lat="41.24592208000554" lon="14.760501535258502"><ele>384.79999999999995</ele><time>2026-04-05T13:27:52Z</time></trkpt><trkpt lat="41.245918926306125" lon="14.760635945606525"><ele>385.20000000000005</ele><time>2026-04-05T13:27:53Z</time></trkpt><trkpt lat="41.2459062429288" lon="14.760779206977412"><ele>385.6</ele><time>2026-04-05T13:27:54Z</time></trkpt><trkpt lat="41.24590835048337" lon="14.760919059497176"><ele>386.0</ele><time>2026-04-05T13:27:55Z</time></trkpt><trkpt lat="41.245882917032255" lon="14.761065693816475"><ele>386.8</ele><time>2026-04-05T13:27:56Z</time></trkpt><trkpt lat="41.24587396097965" lon="14.761220059327133"><ele>387.6</ele><time>2026-04-05T13:27:57Z</time></trkpt><trkpt lat="41.24586545098865" lon="14.761379324782459"><ele>388.4</ele><time>2026-04-05T13:27:58Z</time></trkpt><trkpt lat="41.24585786019818" lon="14.761525315364281"><ele>389.2</ele><time>2026-04-05T13:27:59Z</time></trkpt><trkpt lat="41.2458519494462" lon="14.761656702789827"><ele>390.0</ele><time>2026-04-05T13:28:00Z</time></trkpt><trkpt lat="41.24583950195387" lon="14.76176892497189"><ele>390.0</ele><time>2026-04-05T13:28:01Z</time></trkpt><trkpt lat="41.24579560898401" lon="14.761862542392636"><ele>390.0</ele><time>2026-04-05T13:28:02Z</time></trkpt><trkpt lat="41.245710079389866" lon="14.761890985564884"><ele>390.0</ele><time>2026-04-05T13:28:03Z</time></trkpt><trkpt lat="41.24563003952285" lon="14.761837407023483"><ele>390.0</ele><time>2026-04-05T13:28:04Z</time></trkpt><trkpt lat="41.24554646479488" lon="14.761753091043657"><ele>390.0</ele><time>2026-04-05T13:28:05Z</time></trkpt><trkpt lat="41.2454508007181" lon="14.761658755658305"><ele>387.5</ele><time>2026-04-05T13:28:06Z</time></trkpt><trkpt lat="41.245337589278975" lon="14.76158300056107"><ele>385.0</ele><time>2026-04-05T13:28:07Z</time></trkpt><trkpt lat="41.2452180897396" lon="14.76153678356744"><ele>382.5</ele><time>2026-04-05T13:28:08Z</time></trkpt><trkpt lat="41.2450975611803" lon="14.7615463045733"><ele>380.0</ele><time>2026-04-05T13:28:09Z</time></trkpt><trkpt lat="41.244979890231924" lon="14.761566900310276"><ele>380.0</ele><time>2026-04-05T13:28:10Z</time></trkpt><trkpt lat="41.24489971412085" lon="14.761605286389164"><ele>380.0</ele><time>2026-04-05T13:28:11Z</time></trkpt><trkpt lat="41.244821263189834" lon="14.76168238906342"><ele>380.0</ele><time>2026-04-05T13:28:12Z</time></trkpt><trkpt lat="41.24473199604376" lon="14.761762843237515"><ele>380.0</ele><time>2026-04-05T13:28:13Z</time></trkpt><trkpt lat="41.24462610451477" lon="14.761799174420753"><ele>380.0</ele><time>2026-04-05T13:28:14Z</time></trkpt><trkpt lat="41.244497413875216" lon="14.76180688797252"><ele>379.25</ele><time>2026-04-05T13:28:15Z</time></trkpt><trkpt lat="41.244369453169114" lon="14.761816983238162"><ele>378.5</ele><time>2026-04-05T13:28:16Z</time></trkpt><trkpt lat="41.244241558028605" lon="14.761833400560558"><ele>377.75</ele><time>2026-04-05T13:28:17Z</time></trkpt><trkpt lat="41.24412058153921" lon="14.761861847924488"><ele>377.0</ele><time>2026-04-05T13:28:18Z</time></trkpt><trkpt lat="41.24399521986259" lon="14.761900925369561"><ele>379.75</ele><time>2026-04-05T13:28:19Z</time></trkpt><trkpt lat="41.243870027498396" lon="14.761945363171675"><ele>382.5</ele><time>2026-04-05T13:28:20Z</time></trkpt><trkpt lat="41.24373568895118" lon="14.761994001639247"><ele>385.25</ele><time>2026-04-05T13:28:21Z</time></trkpt><trkpt lat="41.24359383935102" lon="14.76205433809224"><ele>388.0</ele><time>2026-04-05T13:28:22Z</time></trkpt><trkpt lat="41.24347706503953" lon="14.762154296055899"><ele>388.0</ele><time>2026-04-05T13:28:23Z</time></trkpt><trkpt lat="41.243352815131566" lon="14.762267081180678"><ele>388.0</ele><time>2026-04-05T13:28:24Z</time></trkpt><trkpt lat="41.24325451082657" lon="14.762411720879712"><ele>388.0</ele><time>2026-04-05T13:28:25Z</time></trkpt><trkpt lat="41.243177751536166" lon="14.762567304773324"><ele>388.0</ele><time>2026-04-05T13:28:26Z</time></trkpt><trkpt lat="41.243144372858154" lon="14.762728171344307"><ele>390.0</ele><time>2026-04-05T13:28:27Z</time></trkpt><trkpt lat="41.24313908153705" lon="14.762911796168837"><ele>392.0</ele><time>2026-04-05T13:28:28Z</time></trkpt><trkpt lat="41.243116906082506" lon="14.763097329728573"><ele>394.0</ele><time>2026-04-05T13:28:29Z</time></trkpt><trkpt lat="41.24305431485333" lon="14.763275795183102"><ele>396.0</ele><time>2026-04-05T13:28:30Z</time></trkpt><trkpt lat="41.24297527900085" lon="14.763446254543014"><ele>392.25</ele><time>2026-04-05T13:28:31Z</time></trkpt><trkpt lat="41.2428998615518" lon="14.763612722977111"><ele>388.5</ele><time>2026-04-05T13:28:32Z</time></trkpt><trkpt lat="41.24287164304118" lon="14.76376528280545"><ele>384.75</ele><time>2026-04-05T13:28:33Z</time></trkpt><trkpt lat="41.24288436944676" lon="14.763950440123763"><ele>381.0</ele><time>2026-04-05T13:28:34Z</time></trkpt><trkpt lat="41.24295162631251" lon="14.764153455340567"><ele>381.0</ele><time>2026-04-05T13:28:35Z</time></trkpt><trkpt lat="41.24301987636063" lon="14.76433395875383"><ele>381.0</ele><time>2026-04-05T13:28:36Z</time></trkpt><trkpt lat="41.24309620132665" lon="14.764474306680157"><ele>381.0</ele><time>2026-04-05T13:28:37Z</time></trkpt><trkpt lat="41.243211362567045" lon="14.76457959355086"><ele>381.0</ele><time>2026-04-05T13:28:38Z</time></trkpt><trkpt lat="41.24335445752611" lon="14.764642704548734"><ele>384.0</ele><time>2026-04-05T13:28:39Z</time></trkpt><trkpt lat="41.24349939407363" lon="14.764693548020436"><ele>387.0</ele><time>2026-04-05T13:28:40Z</time></trkpt><trkpt lat="41.24362921616408" lon="14.764761124952383"><ele>390.0</ele><time>2026-04-05T13:28:41Z</time></trkpt><trkpt lat="41.24372123862402" lon="14.764853492808998"><ele>393.0</ele><time>2026-04-05T13:28:42Z</time></trkpt><trkpt lat="41.243823382445925" lon="14.764941592253138"><ele>393.0</ele><time>2026-04-05T13:28:43Z</time></trkpt><trkpt lat="41.24386727907058" lon="14.765122223207545"><ele>393.0</ele><time>2026-04-05T13:28:44Z</time></trkpt><trkpt lat="41.24387823935532" lon="14.765326136967577"><ele>393.0</ele><time>2026-04-05T13:28:45Z</time></trkpt><trkpt lat="41.24387511924868" lon="14.765546495826026"><ele>392.25</ele><time>2026-04-05T13:28:46Z</time></trkpt><trkpt lat="41.24386902573174" lon="14.765746164285536"><ele>391.5</ele><time>2026-04-05T13:28:47Z</time></trkpt><trkpt lat="41.24386492246177" lon="14.765929834182769"><ele>390.75</ele><time>2026-04-05T13:28:48Z</time></trkpt><trkpt lat="41.24390697296405" lon="14.76610499860562"><ele>390.0</ele><time>2026-04-05T13:28:49Z</time></trkpt><trkpt lat="41.24397830310325" lon="14.766286775482918"><ele>394.0</ele><time>2026-04-05T13:28:50Z</time></trkpt><trkpt lat="41.244103658807184" lon="14.766464632496723"><ele>398.0</ele><time>2026-04-05T13:28:51Z</time></trkpt><trkpt lat="41.24423183666261" lon="14.766618299026282"><ele>402.0</ele><time>2026-04-05T13:28:52Z</time></trkpt><trkpt lat="41.24435953935698" lon="14.76680128343314"><ele>401.0</ele><time>2026-04-05T13:28:53Z</time></trkpt><trkpt lat="41.24445581800138" lon="14.767005139120146"><ele>400.0</ele><time>2026-04-05T13:28:54Z</time></trkpt><trkpt lat="41.244525896051066" lon="14.767208112633591"><ele>399.0</ele><time>2026-04-05T13:28:55Z</time></trkpt><trkpt lat="41.24458211771503" lon="14.767424719415581"><ele>399.0</ele><time>2026-04-05T13:28:56Z</time></trkpt><trkpt lat="41.24465870927659" lon="14.767623550917273"><ele>399.0</ele><time>2026-04-05T13:28:56.999Z</time></trkpt><trkpt lat="41.24471491823655" lon="14.767840334270065"><ele>399.0</ele><time>2026-04-05T13:28:57.999Z</time></trkpt><trkpt lat="41.24477385940065" lon="14.768028127210998"><ele>402.66666666666663</ele><time>2026-04-05T13:28:58.999Z</time></trkpt><trkpt lat="41.24483721122996" lon="14.768202017843235"><ele>406.3333333333333</ele><time>2026-04-05T13:28:59.999Z</time></trkpt><trkpt lat="41.24494099576249" lon="14.768360069257655"><ele>410.0</ele><time>2026-04-05T13:29:00.999Z</time></trkpt><trkpt lat="41.24505882869059" lon="14.768514298050603"><ele>409.5</ele><time>2026-04-05T13:29:01.999Z</time></trkpt><trkpt lat="41.245168652790205" lon="14.768652564619721"><ele>409.0</ele><time>2026-04-05T13:29:02.999Z</time></trkpt><trkpt lat="41.24528225154625" lon="14.768740239447494"><ele>408.5</ele><time>2026-04-05T13:29:03.999Z</time></trkpt><trkpt lat="41.24541549409355" lon="14.768773240858055"><ele>408.0</ele><time>2026-04-05T13:29:04.999Z</time></trkpt><trkpt lat="41.24555352963554" lon="14.768699535157259"><ele>410.25</ele><time>2026-04-05T13:29:05.999Z</time></trkpt><trkpt lat="41.24565613858883" lon="14.768723992464547"><ele>412.5</ele><time>2026-04-05T13:29:06.999Z</time></trkpt><trkpt lat="41.24575078593378" lon="14.768807581865827"><ele>414.75</ele><time>2026-04-05T13:29:07.999Z</time></trkpt><trkpt lat="41.245833821517614" lon="14.768940919392783"><ele>417.0</ele><time>2026-04-05T13:29:08.999Z</time></trkpt><trkpt lat="41.245912912988395" lon="14.769124244053595"><ele>417.0</ele><time>2026-04-05T13:29:09.999Z</time></trkpt><trkpt lat="41.245953886732856" lon="14.76930939227979"><ele>417.0</ele><time>2026-04-05T13:29:10.999Z</time></trkpt><trkpt lat="41.2459753122378" lon="14.769464439562883"><ele>417.0</ele><time>2026-04-05T13:29:11.999Z</time></trkpt><trkpt lat="41.245951258227706" lon="14.769594600580412"><ele>417.0</ele><time>2026-04-05T13:29:12.999Z</time></trkpt><trkpt lat="41.24587704331729" lon="14.769705817826868"><ele>418.33333333333337</ele><time>2026-04-05T13:29:13.999Z</time></trkpt><trkpt lat="41.24581194361359" lon="14.769886843031339"><ele>419.6666666666667</ele><time>2026-04-05T13:29:14.999Z</time></trkpt><trkpt lat="41.245776952383835" lon="14.770098282159513"><ele>421.0</ele><time>2026-04-05T13:29:15.999Z</time></trkpt><trkpt lat="41.245752907752056" lon="14.770306692614692"><ele>421.75</ele><time>2026-04-05T13:29:16.999Z</time></trkpt><trkpt lat="41.24571813826407" lon="14.770482815796438"><ele>422.5</ele><time>2026-04-05T13:29:17.999Z</time></trkpt><trkpt lat="41.24565467229514" lon="14.770642326291307"><ele>423.25</ele><time>2026-04-05T13:29:18.999Z</time></trkpt><trkpt lat="41.24553714100697" lon="14.770763475464385"><ele>424.0</ele><time>2026-04-05T13:29:19.999Z</time></trkpt><trkpt lat="41.24539721343952" lon="14.77085146133833"><ele>423.6666666666667</ele><time>2026-04-05T13:29:20.999Z</time></trkpt><trkpt lat="41.24529071458188" lon="14.770982855635229"><ele>423.33333333333337</ele><time>2026-04-05T13:29:21.999Z</time></trkpt><trkpt lat="41.24520535477249" lon="14.771148994332991"><ele>423.0</ele><time>2026-04-05T13:29:22.999Z</time></trkpt><trkpt lat="41.24514574578163" lon="14.7713604497343"><ele>423.0</ele><time>2026-04-05T13:29:23.999Z</time></trkpt><trkpt lat="41.24509247029838" lon="14.771577983424539"><ele>423.0</ele><time>2026-04-05T13:29:24.999Z</time></trkpt><trkpt lat="41.245043633070395" lon="14.771755415428807"><ele>423.0</ele><time>2026-04-05T13:29:25.999Z</time></trkpt><trkpt lat="41.244965243535454" lon="14.771884431990154"><ele>423.0</ele><time>2026-04-05T13:29:26.999Z</time></trkpt><trkpt lat="41.244834638230394" lon="14.771989756284498"><ele>422.66666666666663</ele><time>2026-04-05T13:29:27.999Z</time></trkpt><trkpt lat="41.24470043511578" lon="14.772158675346933"><ele>422.3333333333333</ele><time>2026-04-05T13:29:29Z</time></trkpt><trkpt lat="41.24455635753073" lon="14.772339052094448"><ele>422.0</ele><time>2026-04-05T13:29:30Z</time></trkpt><trkpt lat="41.24442993103396" lon="14.772543699621888"><ele>424.3333333333333</ele><time>2026-04-05T13:29:31Z</time></trkpt><trkpt lat="41.24430816702731" lon="14.772730818105545"><ele>426.66666666666663</ele><time>2026-04-05T13:29:32Z</time></trkpt><trkpt lat="41.24419503877201" lon="14.7728892522449"><ele>429.0</ele><time>2026-04-05T13:29:33Z</time></trkpt><trkpt lat="41.24411175406655" lon="14.773052524222443"><ele>429.0</ele><time>2026-04-05T13:29:34Z</time></trkpt><trkpt lat="41.24406335285939" lon="14.773232173235606"><ele>429.0</ele><time>2026-04-05T13:29:35Z</time></trkpt><trkpt lat="41.24402373072017" lon="14.773420621395216"><ele>429.0</ele><time>2026-04-05T13:29:36Z</time></trkpt><trkpt lat="41.24403066135023" lon="14.773627577656812"><ele>429.0</ele><time>2026-04-05T13:29:37Z</time></trkpt><trkpt lat="41.2440771103064" lon="14.773843240053175"><ele>429.0</ele><time>2026-04-05T13:29:38Z</time></trkpt><trkpt lat="41.2441736546833" lon="14.774048042558775"><ele>429.0</ele><time>2026-04-05T13:29:39Z</time></trkpt><trkpt lat="41.24424250299889" lon="14.774241150697394"><ele>429.0</ele><time>2026-04-05T13:29:40Z</time></trkpt><trkpt lat="41.24433859100155" lon="14.774377854643285"><ele>428.2</ele><time>2026-04-05T13:29:41Z</time></trkpt><trkpt lat="41.24442881342529" lon="14.774505942210249"><ele>427.4</ele><time>2026-04-05T13:29:42Z</time></trkpt><trkpt lat="41.244567253748585" lon="14.774546940801713"><ele>426.6</ele><time>2026-04-05T13:29:43Z</time></trkpt><trkpt lat="41.24464011417336" lon="14.774634260707037"><ele>425.8</ele><time>2026-04-05T13:29:44Z</time></trkpt><trkpt lat="41.244674883234985" lon="14.774715438034702"><ele>425.0</ele><time>2026-04-05T13:29:45Z</time></trkpt><trkpt lat="41.24465781754553" lon="14.774854946379492"><ele>425.0</ele><time>2026-04-05T13:29:46Z</time></trkpt><trkpt lat="41.244708220112294" lon="14.77502303923681"><ele>425.0</ele><time>2026-04-05T13:29:47Z</time></trkpt><trkpt lat="41.244812083236454" lon="14.775161130578995"><ele>425.0</ele><time>2026-04-05T13:29:48Z</time></trkpt><trkpt lat="41.24493931401776" lon="14.775291747457976"><ele>425.0</ele><time>2026-04-05T13:29:49Z</time></trkpt><trkpt lat="41.245072538966134" lon="14.775436430903403"><ele>426.5</ele><time>2026-04-05T13:29:50Z</time></trkpt><trkpt lat="41.24521854403746" lon="14.775548609446219"><ele>428.0</ele><time>2026-04-05T13:29:51Z</time></trkpt><trkpt lat="41.245338655549695" lon="14.775634533274594"><ele>429.5</ele><time>2026-04-05T13:29:52Z</time></trkpt><trkpt lat="41.2454323620654" lon="14.775719908932983"><ele>431.0</ele><time>2026-04-05T13:29:53Z</time></trkpt><trkpt lat="41.24549028707892" lon="14.775877079766746"><ele>431.25</ele><time>2026-04-05T13:29:54Z</time></trkpt><trkpt lat="41.245516016939256" lon="14.77606798868816"><ele>431.5</ele><time>2026-04-05T13:29:55Z</time></trkpt><trkpt lat="41.24552828637513" lon="14.776268012401742"><ele>431.75</ele><time>2026-04-05T13:29:56Z</time></trkpt><trkpt lat="41.24550293504926" lon="14.776448121448974"><ele>432.0</ele><time>2026-04-05T13:29:57Z</time></trkpt><trkpt lat="41.24544055662553" lon="14.776646111545299"><ele>433.66666666666663</ele><time>2026-04-05T13:29:58Z</time></trkpt><trkpt lat="41.245359916308566" lon="14.776870559253952"><ele>435.3333333333333</ele><time>2026-04-05T13:29:59Z</time></trkpt><trkpt lat="41.2452730324447" lon="14.777114145519805"><ele>437.0</ele><time>2026-04-05T13:30:00Z</time></trkpt><trkpt lat="41.245202417342426" lon="14.777378568272177"><ele>437.0</ele><time>2026-04-05T13:30:01Z</time></trkpt><trkpt lat="41.24515328571343" lon="14.77760213235212"><ele>437.0</ele><time>2026-04-05T13:30:02Z</time></trkpt><trkpt lat="41.24511839073704" lon="14.777790590034295"><ele>437.0</ele><time>2026-04-05T13:30:03Z</time></trkpt><trkpt lat="41.24510110276317" lon="14.777955632461794"><ele>437.0</ele><time>2026-04-05T13:30:04Z</time></trkpt><trkpt lat="41.24511206721713" lon="14.77811608497616"><ele>437.5</ele><time>2026-04-05T13:30:05Z</time></trkpt><trkpt lat="41.24519212842179" lon="14.778237682571627"><ele>438.0</ele><time>2026-04-05T13:30:06Z</time></trkpt><trkpt lat="41.24529307565247" lon="14.77832035925351"><ele>438.5</ele><time>2026-04-05T13:30:07Z</time></trkpt><trkpt lat="41.245438450551546" lon="14.778385052669329"><ele>439.0</ele><time>2026-04-05T13:30:08Z</time></trkpt><trkpt lat="41.245585607743" lon="14.778480749086652"><ele>440.0</ele><time>2026-04-05T13:30:09Z</time></trkpt><trkpt lat="41.245742206620534" lon="14.778576550648133"><ele>441.0</ele><time>2026-04-05T13:30:10Z</time></trkpt><trkpt lat="41.245883272901175" lon="14.778668928364151"><ele>442.0</ele><time>2026-04-05T13:30:11Z</time></trkpt><trkpt lat="41.24600305175783" lon="14.778759519180273"><ele>442.0</ele><time>2026-04-05T13:30:12Z</time></trkpt><trkpt lat="41.246090506171385" lon="14.778859042910375"><ele>442.0</ele><time>2026-04-05T13:30:13Z</time></trkpt><trkpt lat="41.246121854604525" lon="14.778988525949448"><ele>442.0</ele><time>2026-04-05T13:30:14Z</time></trkpt><trkpt lat="41.24609962180795" lon="14.77913160954833"><ele>442.0</ele><time>2026-04-05T13:30:15Z</time></trkpt><trkpt lat="41.24602032830716" lon="14.779257675644056"><ele>443.0</ele><time>2026-04-05T13:30:16Z</time></trkpt><trkpt lat="41.245917649058775" lon="14.779390831234114"><ele>444.0</ele><time>2026-04-05T13:30:17Z</time></trkpt><trkpt lat="41.245784426982155" lon="14.779516500490002"><ele>445.0</ele><time>2026-04-05T13:30:18Z</time></trkpt><trkpt lat="41.245643579753896" lon="14.779618706785003"><ele>443.0</ele><time>2026-04-05T13:30:19Z</time></trkpt><trkpt lat="41.24553164465268" lon="14.779715125001669"><ele>441.0</ele><time>2026-04-05T13:30:20Z</time></trkpt><trkpt lat="41.245447722477465" lon="14.779822527373854"><ele>439.0</ele><time>2026-04-05T13:30:21Z</time></trkpt><trkpt lat="41.24542185272898" lon="14.779992148931044"><ele>437.0</ele><time>2026-04-05T13:30:22Z</time></trkpt><trkpt lat="41.245435689500646" lon="14.78016672909569"><ele>436.3333333333333</ele><time>2026-04-05T13:30:23Z</time></trkpt><trkpt lat="41.245483651546486" lon="14.78035966439344"><ele>435.66666666666663</ele><time>2026-04-05T13:30:24Z</time></trkpt><trkpt lat="41.24560309713368" lon="14.78052232453243"><ele>435.0</ele><time>2026-04-05T13:30:25Z</time></trkpt><trkpt lat="41.24575338546354" lon="14.780681711095571"><ele>437.33333333333337</ele><time>2026-04-05T13:30:26Z</time></trkpt><trkpt lat="41.24591436267856" lon="14.780810924519677"><ele>439.6666666666667</ele><time>2026-04-05T13:30:27Z</time></trkpt><trkpt lat="41.2460561719246" lon="14.780894508569455"><ele>442.0</ele><time>2026-04-05T13:30:28Z</time></trkpt><trkpt lat="41.24618521740604" lon="14.780959747832815"><ele>442.0</ele><time>2026-04-05T13:30:29Z</time></trkpt><trkpt lat="41.24628854440214" lon="14.781029245301694"><ele>442.00000000000006</ele><time>2026-04-05T13:30:30Z</time></trkpt><trkpt lat="41.24633871501583" lon="14.78112304832088"><ele>442.00000000000006</ele><time>2026-04-05T13:30:31Z</time></trkpt><trkpt lat="41.246356953127034" lon="14.781268290995566"><ele>442.0</ele><time>2026-04-05T13:30:32Z</time></trkpt><trkpt lat="41.24630880802289" lon="14.781425614841199"><ele>442.0</ele><time>2026-04-05T13:30:33Z</time></trkpt><trkpt lat="41.24627431094699" lon="14.781615250080774"><ele>442.0</ele><time>2026-04-05T13:30:34Z</time></trkpt><trkpt lat="41.24622789182209" lon="14.781755973611443"><ele>442.0</ele><time>2026-04-05T13:30:35Z</time></trkpt><trkpt lat="41.246142123601366" lon="14.781851412006688"><ele>442.0</ele><time>2026-04-05T13:30:36Z</time></trkpt><trkpt lat="41.246006713195264" lon="14.781911644775922"><ele>442.0</ele><time>2026-04-05T13:30:37Z</time></trkpt><trkpt lat="41.245853632577756" lon="14.781990030920156"><ele>441.5</ele><time>2026-04-05T13:30:38Z</time></trkpt><trkpt lat="41.24570583874922" lon="14.782033659238344"><ele>441.0</ele><time>2026-04-05T13:30:39Z</time></trkpt><trkpt lat="41.245577240784556" lon="14.782086474625487"><ele>440.5</ele><time>2026-04-05T13:30:40Z</time></trkpt><trkpt lat="41.245458701027644" lon="14.782176214771194"><ele>440.0</ele><time>2026-04-05T13:30:41Z</time></trkpt><trkpt lat="41.24534584075641" lon="14.782293527207646"><ele>440.0</ele><time>2026-04-05T13:30:42Z</time></trkpt><trkpt lat="41.245229261923974" lon="14.782430400713542"><ele>440.0</ele><time>2026-04-05T13:30:43Z</time></trkpt><trkpt lat="41.2451112712263" lon="14.782557945339407"><ele>440.0</ele><time>2026-04-05T13:30:44Z</time></trkpt><trkpt lat="41.24496696097367" lon="14.78268161491115"><ele>440.3333333333333</ele><time>2026-04-05T13:30:45Z</time></trkpt><trkpt lat="41.244835336752345" lon="14.782806126516748"><ele>440.66666666666663</ele><time>2026-04-05T13:30:46Z</time></trkpt><trkpt lat="41.24473283033051" lon="14.782956143110523"><ele>441.0</ele><time>2026-04-05T13:30:47Z</time></trkpt><trkpt lat="41.24464515755921" lon="14.783148901620383"><ele>438.0</ele><time>2026-04-05T13:30:48Z</time></trkpt><trkpt lat="41.24455326736287" lon="14.783357545673942"><ele>435.0</ele><time>2026-04-05T13:30:49Z</time></trkpt><trkpt lat="41.244467902286665" lon="14.783545862550861"><ele>432.0</ele><time>2026-04-05T13:30:50Z</time></trkpt><trkpt lat="41.24440680300278" lon="14.78372011147009"><ele>431.5</ele><time>2026-04-05T13:30:51Z</time></trkpt><trkpt lat="41.24437335717342" lon="14.783883198636932"><ele>431.0</ele><time>2026-04-05T13:30:52Z</time></trkpt><trkpt lat="41.244397378967214" lon="14.784056058003046"><ele>430.5</ele><time>2026-04-05T13:30:53Z</time></trkpt><trkpt lat="41.24447761648871" lon="14.784225961001837"><ele>430.0</ele><time>2026-04-05T13:30:53.999Z</time></trkpt><trkpt lat="41.244587375063354" lon="14.784418230365063"><ele>429.33333333333337</ele><time>2026-04-05T13:30:54.999Z</time></trkpt><trkpt lat="41.24470285029158" lon="14.784599966194317"><ele>428.66666666666663</ele><time>2026-04-05T13:30:55.999Z</time></trkpt><trkpt lat="41.244799370390226" lon="14.784759610146661"><ele>428.0</ele><time>2026-04-05T13:30:56.999Z</time></trkpt><trkpt lat="41.244861860261565" lon="14.784905160488238"><ele>428.79999999999995</ele><time>2026-04-05T13:30:57.999Z</time></trkpt><trkpt lat="41.2448848129117" lon="14.785043319711086"><ele>429.59999999999997</ele><time>2026-04-05T13:30:58.999Z</time></trkpt><trkpt lat="41.24487166025575" lon="14.78518266784041"><ele>430.40000000000003</ele><time>2026-04-05T13:30:59.999Z</time></trkpt><trkpt lat="41.24481226489776" lon="14.785300659135636"><ele>431.20000000000005</ele><time>2026-04-05T13:31:00.999Z</time></trkpt><trkpt lat="41.244711782988006" lon="14.785387974415139"><ele>432.0</ele><time>2026-04-05T13:31:01.999Z</time></trkpt><trkpt lat="41.244560588554975" lon="14.785366918837267"><ele>432.0</ele><time>2026-04-05T13:31:02.999Z</time></trkpt><trkpt lat="41.2443953194725" lon="14.785364531356983"><ele>432.0</ele><time>2026-04-05T13:31:03.999Z</time></trkpt><trkpt lat="41.244225799421116" lon="14.78537465740432"><ele>432.0</ele><time>2026-04-05T13:31:04.999Z</time></trkpt><trkpt lat="41.24404620181367" lon="14.785435606700986"><ele>428.66666666666663</ele><time>2026-04-05T13:31:05.999Z</time></trkpt><trkpt lat="41.24386723589567" lon="14.785532506247124"><ele>425.3333333333333</ele><time>2026-04-05T13:31:06.999Z</time></trkpt><trkpt lat="41.24370574890566" lon="14.785620233790999"><ele>422.0</ele><time>2026-04-05T13:31:07.999Z</time></trkpt><trkpt lat="41.24355842026594" lon="14.785734543838444"><ele>422.0</ele><time>2026-04-05T13:31:08.999Z</time></trkpt><trkpt lat="41.24343332755067" lon="14.785883926353764"><ele>422.0</ele><time>2026-04-05T13:31:09.999Z</time></trkpt><trkpt lat="41.24331720645698" lon="14.786066410121885"><ele>422.0</ele><time>2026-04-05T13:31:10.999Z</time></trkpt><trkpt lat="41.24319774094787" lon="14.786261394197329"><ele>420.0</ele><time>2026-04-05T13:31:11.999Z</time></trkpt><trkpt lat="41.24306162731812" lon="14.78643671384116"><ele>418.0</ele><time>2026-04-05T13:31:12.999Z</time></trkpt><trkpt lat="41.24292464214187" lon="14.786595829220898"><ele>416.0</ele><time>2026-04-05T13:31:13.999Z</time></trkpt><trkpt lat="41.24279600148091" lon="14.786735489151628"><ele>417.0</ele><time>2026-04-05T13:31:14.999Z</time></trkpt><trkpt lat="41.24266966415178" lon="14.78685803359026"><ele>418.0</ele><time>2026-04-05T13:31:15.999Z</time></trkpt><trkpt lat="41.2425257957054" lon="14.786958396742449"><ele>419.0</ele><time>2026-04-05T13:31:16.999Z</time></trkpt><trkpt lat="41.24236219591263" lon="14.787037261750395"><ele>417.0</ele><time>2026-04-05T13:31:17.999Z</time></trkpt><trkpt lat="41.24219290583597" lon="14.787096688035119"><ele>415.0</ele><time>2026-04-05T13:31:18.999Z</time></trkpt><trkpt lat="41.24201695989904" lon="14.787134965804759"><ele>413.0</ele><time>2026-04-05T13:31:19.999Z</time></trkpt><trkpt lat="41.241844047948476" lon="14.787152219235574"><ele>413.0</ele><time>2026-04-05T13:31:20.999Z</time></trkpt><trkpt lat="41.24167265582307" lon="14.787170993876284"><ele>413.0</ele><time>2026-04-05T13:31:21.999Z</time></trkpt><trkpt lat="41.24150834527895" lon="14.787225609981544"><ele>413.0</ele><time>2026-04-05T13:31:22.999Z</time></trkpt><trkpt lat="41.241345848959554" lon="14.7873376429975"><ele>411.66666666666663</ele><time>2026-04-05T13:31:23.999Z</time></trkpt><trkpt lat="41.24117522520905" lon="14.787485678005588"><ele>410.33333333333337</ele><time>2026-04-05T13:31:24.999Z</time></trkpt><trkpt lat="41.24100191324295" lon="14.787621868951085"><ele>409.0</ele><time>2026-04-05T13:31:25.999Z</time></trkpt><trkpt lat="41.240818453316734" lon="14.787751261306802"><ele>408.0</ele><time>2026-04-05T13:31:26.999Z</time></trkpt><trkpt lat="41.240633651046736" lon="14.78788281720598"><ele>407.0</ele><time>2026-04-05T13:31:27.999Z</time></trkpt><trkpt lat="41.24045530080908" lon="14.788010876609023"><ele>406.0</ele><time>2026-04-05T13:31:28.999Z</time></trkpt><trkpt lat="41.24027204344217" lon="14.788140277108923"><ele>405.6666666666667</ele><time>2026-04-05T13:31:29.999Z</time></trkpt><trkpt lat="41.24009162991623" lon="14.788266604967317"><ele>405.33333333333337</ele><time>2026-04-05T13:31:30.999Z</time></trkpt><trkpt lat="41.23992109926985" lon="14.788383621624764"><ele>405.0</ele><time>2026-04-05T13:31:31.999Z</time></trkpt><trkpt lat="41.23976633211707" lon="14.788490515417065"><ele>403.66666666666663</ele><time>2026-04-05T13:31:32.999Z</time></trkpt><trkpt lat="41.23960659890571" lon="14.788585061060656"><ele>402.3333333333333</ele><time>2026-04-05T13:31:33.999Z</time></trkpt><trkpt lat="41.23944210239744" lon="14.788649792601838"><ele>401.0</ele><time>2026-04-05T13:31:35Z</time></trkpt><trkpt lat="41.23925620617437" lon="14.788687192850995"><ele>401.0</ele><time>2026-04-05T13:31:36Z</time></trkpt><trkpt lat="41.23906140701233" lon="14.788724859436568"><ele>401.0</ele><time>2026-04-05T13:31:37Z</time></trkpt><trkpt lat="41.238869768344735" lon="14.788763580023913"><ele>401.0</ele><time>2026-04-05T13:31:38Z</time></trkpt><trkpt lat="41.23868600604277" lon="14.788796998204615"><ele>401.3333333333333</ele><time>2026-04-05T13:31:39Z</time></trkpt><trkpt lat="41.23851725374844" lon="14.788821207077175"><ele>401.66666666666663</ele><time>2026-04-05T13:31:40Z</time></trkpt><trkpt lat="41.23836508401126" lon="14.788835000665085"><ele>402.0</ele><time>2026-04-05T13:31:41Z</time></trkpt><trkpt lat="41.23822329621242" lon="14.788848226749144"><ele>402.20000000000005</ele><time>2026-04-05T13:31:42Z</time></trkpt><trkpt lat="41.238094081509146" lon="14.78887625466176"><ele>402.4</ele><time>2026-04-05T13:31:43Z</time></trkpt><trkpt lat="41.23796979335763" lon="14.788901247917375"><ele>402.6</ele><time>2026-04-05T13:31:44Z</time></trkpt><trkpt lat="41.2378838525845" lon="14.788917121403415"><ele>402.79999999999995</ele><time>2026-04-05T13:31:45Z</time></trkpt><trkpt lat="41.23781420947314" lon="14.788946458165487"><ele>403.0</ele><time>2026-04-05T13:31:47Z</time></trkpt><trkpt lat="41.23795198370758" lon="14.788906857710105"><ele>403.0</ele><time>2026-04-05T13:31:52Z</time></trkpt><trkpt lat="41.238101686420414" lon="14.788888721186993"><ele>403.0</ele><time>2026-04-05T13:31:53Z</time></trkpt><trkpt lat="41.23823095515565" lon="14.788858072207162"><ele>403.0</ele><time>2026-04-05T13:31:54Z</time></trkpt><trkpt lat="41.238341308145365" lon="14.788844023352995"><ele>403.0</ele><time>2026-04-05T13:31:55Z</time></trkpt><trkpt lat="41.238434706111995" lon="14.788830765116952"><ele>402.79999999999995</ele><time>2026-04-05T13:31:56Z</time></trkpt><trkpt lat="41.23851218459767" lon="14.788812837342114"><ele>402.6</ele><time>2026-04-05T13:31:57Z</time></trkpt><trkpt lat="41.238611780285666" lon="14.78889420252427"><ele>402.4</ele><time>2026-04-05T13:31:59Z</time></trkpt><trkpt lat="41.23856216481937" lon="14.789027626557896"><ele>402.20000000000005</ele><time>2026-04-05T13:32:01Z</time></trkpt><trkpt lat="41.23848560934873" lon="14.789116760829346"><ele>402.0</ele><time>2026-04-05T13:32:02Z</time></trkpt><trkpt lat="41.23840786123706" lon="14.789248348784737"><ele>401.5</ele><time>2026-04-05T13:32:03Z</time></trkpt><trkpt lat="41.238341887787946" lon="14.789392687641866"><ele>401.0</ele><time>2026-04-05T13:32:04Z</time></trkpt><trkpt lat="41.23826491502736" lon="14.789525699931993"><ele>400.5</ele><time>2026-04-05T13:32:05Z</time></trkpt><trkpt lat="41.238172983096824" lon="14.789663468167312"><ele>400.0</ele><time>2026-04-05T13:32:06Z</time></trkpt><trkpt lat="41.23808079142027" lon="14.789807768298376"><ele>400.0</ele><time>2026-04-05T13:32:07Z</time></trkpt><trkpt lat="41.2379795986241" lon="14.789942781037746"><ele>400.0</ele><time>2026-04-05T13:32:08Z</time></trkpt><trkpt lat="41.23785979747546" lon="14.790072500218173"><ele>400.0</ele><time>2026-04-05T13:32:09Z</time></trkpt><trkpt lat="41.23773034227227" lon="14.79019482834254"><ele>399.0</ele><time>2026-04-05T13:32:10Z</time></trkpt><trkpt lat="41.2375982974595" lon="14.790316129779288"><ele>398.0</ele><time>2026-04-05T13:32:11Z</time></trkpt><trkpt lat="41.237477247069464" lon="14.790424078997418"><ele>397.0</ele><time>2026-04-05T13:32:12Z</time></trkpt><trkpt lat="41.23735924046838" lon="14.790526990784116"><ele>396.0</ele><time>2026-04-05T13:32:13Z</time></trkpt><trkpt lat="41.2372551786098" lon="14.79064658267293"><ele>396.0</ele><time>2026-04-05T13:32:14Z</time></trkpt><trkpt lat="41.23718018860079" lon="14.79076298542507"><ele>396.0</ele><time>2026-04-05T13:32:15Z</time></trkpt><trkpt lat="41.237121333591816" lon="14.790911668747967"><ele>396.0</ele><time>2026-04-05T13:32:16Z</time></trkpt><trkpt lat="41.23710535697833" lon="14.791075668928068"><ele>396.0</ele><time>2026-04-05T13:32:17Z</time></trkpt><trkpt lat="41.237126201129364" lon="14.79123610029555"><ele>395.75</ele><time>2026-04-05T13:32:18Z</time></trkpt><trkpt lat="41.23714743328684" lon="14.791403830503567"><ele>395.5</ele><time>2026-04-05T13:32:19Z</time></trkpt><trkpt lat="41.2371782170535" lon="14.791568155361183"><ele>395.25</ele><time>2026-04-05T13:32:20Z</time></trkpt><trkpt lat="41.23724015132163" lon="14.791718690818795"><ele>395.0</ele><time>2026-04-05T13:32:21Z</time></trkpt><trkpt lat="41.23736720714174" lon="14.791822366936184"><ele>394.0</ele><time>2026-04-05T13:32:22Z</time></trkpt><trkpt lat="41.23749958990531" lon="14.791914508367492"><ele>393.0</ele><time>2026-04-05T13:32:23Z</time></trkpt><trkpt lat="41.2376237937331" lon="14.792047249284664"><ele>392.0</ele><time>2026-04-05T13:32:24Z</time></trkpt><trkpt lat="41.23773369436307" lon="14.792175433388472"><ele>392.0</ele><time>2026-04-05T13:32:25Z</time></trkpt><trkpt lat="41.23780946400347" lon="14.792334825720774"><ele>392.0</ele><time>2026-04-05T13:32:26Z</time></trkpt><trkpt lat="41.237868964524644" lon="14.792533353175164"><ele>392.0</ele><time>2026-04-05T13:32:27Z</time></trkpt><trkpt lat="41.23790020015901" lon="14.79273319312372"><ele>392.66666666666663</ele><time>2026-04-05T13:32:28Z</time></trkpt><trkpt lat="41.237924625093925" lon="14.792978744800212"><ele>393.33333333333337</ele><time>2026-04-05T13:32:29Z</time></trkpt><trkpt lat="41.237946289441304" lon="14.79321784930278"><ele>394.0</ele><time>2026-04-05T13:32:30Z</time></trkpt><trkpt lat="41.237986787522516" lon="14.793421201690293"><ele>393.0</ele><time>2026-04-05T13:32:31Z</time></trkpt><trkpt lat="41.23803179190898" lon="14.793606470877378"><ele>392.0</ele><time>2026-04-05T13:32:32Z</time></trkpt><trkpt lat="41.2380766926004" lon="14.7937669875248"><ele>391.0</ele><time>2026-04-05T13:32:33Z</time></trkpt><trkpt lat="41.23809117346631" lon="14.793913801384003"><ele>390.0</ele><time>2026-04-05T13:32:34Z</time></trkpt><trkpt lat="41.23807433456525" lon="14.794021698371663"><ele>390.0</ele><time>2026-04-05T13:32:35Z</time></trkpt><trkpt lat="41.23797734953835" lon="14.794108397919027"><ele>390.0</ele><time>2026-04-05T13:32:36Z</time></trkpt><trkpt lat="41.23785032483917" lon="14.79409394352144"><ele>390.0</ele><time>2026-04-05T13:32:37Z</time></trkpt><trkpt lat="41.23771747325604" lon="14.794127506557036"><ele>390.0</ele><time>2026-04-05T13:32:38Z</time></trkpt><trkpt lat="41.23759979142692" lon="14.794223667556812"><ele>389.25</ele><time>2026-04-05T13:32:39Z</time></trkpt><trkpt lat="41.237506352909385" lon="14.794371867404399"><ele>388.5</ele><time>2026-04-05T13:32:40Z</time></trkpt><trkpt lat="41.23745895492144" lon="14.794541748771708"><ele>387.75</ele><time>2026-04-05T13:32:41Z</time></trkpt><trkpt lat="41.23744548911296" lon="14.794720201997901"><ele>387.0</ele><time>2026-04-05T13:32:42Z</time></trkpt><trkpt lat="41.23747144851932" lon="14.794898218722066"><ele>387.0</ele><time>2026-04-05T13:32:43Z</time></trkpt><trkpt lat="41.23751634456526" lon="14.79508296204917"><ele>387.0</ele><time>2026-04-05T13:32:44Z</time></trkpt><trkpt lat="41.23758609299397" lon="14.795253772562123"><ele>387.0</ele><time>2026-04-05T13:32:45Z</time></trkpt><trkpt lat="41.23758930970228" lon="14.79545100085114"><ele>387.0</ele><time>2026-04-05T13:32:46Z</time></trkpt><trkpt lat="41.23759515421241" lon="14.795626831584249"><ele>385.8</ele><time>2026-04-05T13:32:47Z</time></trkpt><trkpt lat="41.237607855576975" lon="14.795784030920503"><ele>384.6</ele><time>2026-04-05T13:32:48Z</time></trkpt><trkpt lat="41.23760891312623" lon="14.79591653898987"><ele>383.40000000000003</ele><time>2026-04-05T13:32:49Z</time></trkpt><trkpt lat="41.23760284773343" lon="14.79602766750742"><ele>382.20000000000005</ele><time>2026-04-05T13:32:50Z</time></trkpt><trkpt lat="41.237531819424945" lon="14.796125205103355"><ele>381.0</ele><time>2026-04-05T13:32:51Z</time></trkpt><trkpt lat="41.237406307660294" lon="14.79619138393072"><ele>380.5</ele><time>2026-04-05T13:32:52Z</time></trkpt><trkpt lat="41.23727239799225" lon="14.796247567399089"><ele>380.0</ele><time>2026-04-05T13:32:53Z</time></trkpt><trkpt lat="41.23714950135492" lon="14.796290787321011"><ele>379.5</ele><time>2026-04-05T13:32:54Z</time></trkpt><trkpt lat="41.23704125789934" lon="14.796343971939192"><ele>379.0</ele><time>2026-04-05T13:32:55Z</time></trkpt><trkpt lat="41.236950333471704" lon="14.796426392716258"><ele>379.0</ele><time>2026-04-05T13:32:55.999Z</time></trkpt><trkpt lat="41.23686651486283" lon="14.796567421104625"><ele>379.0</ele><time>2026-04-05T13:32:56.999Z</time></trkpt><trkpt lat="41.236788912334575" lon="14.7967092420299"><ele>379.0</ele><time>2026-04-05T13:32:57.999Z</time></trkpt><trkpt lat="41.23671889428117" lon="14.796851190560401"><ele>379.0</ele><time>2026-04-05T13:32:58.999Z</time></trkpt><trkpt lat="41.236677509570534" lon="14.797020404594162"><ele>376.25</ele><time>2026-04-05T13:32:59.999Z</time></trkpt><trkpt lat="41.23666246463467" lon="14.797200724881016"><ele>373.5</ele><time>2026-04-05T13:33:00.999Z</time></trkpt><trkpt lat="41.23663790642155" lon="14.797369738754826"><ele>370.75</ele><time>2026-04-05T13:33:01.999Z</time></trkpt><trkpt lat="41.23658848771944" lon="14.797526322364929"><ele>368.0</ele><time>2026-04-05T13:33:02.999Z</time></trkpt><trkpt lat="41.23650740421104" lon="14.797672768947137"><ele>369.0</ele><time>2026-04-05T13:33:03.999Z</time></trkpt><trkpt lat="41.236407364243455" lon="14.797817698202225"><ele>370.0</ele><time>2026-04-05T13:33:04.999Z</time></trkpt><trkpt lat="41.23633804707428" lon="14.797967721187375"><ele>371.0</ele><time>2026-04-05T13:33:05.999Z</time></trkpt><trkpt lat="41.23625788935366" lon="14.798097692785465"><ele>372.0</ele><time>2026-04-05T13:33:06.999Z</time></trkpt><trkpt lat="41.236217703809636" lon="14.798254721643625"><ele>372.0</ele><time>2026-04-05T13:33:07.999Z</time></trkpt><trkpt lat="41.23621878239152" lon="14.798421645804934"><ele>372.0</ele><time>2026-04-05T13:33:08.999Z</time></trkpt><trkpt lat="41.236252575312264" lon="14.798591770640847"><ele>372.0</ele><time>2026-04-05T13:33:09.999Z</time></trkpt><trkpt lat="41.23633285506904" lon="14.798735964558917"><ele>372.0</ele><time>2026-04-05T13:33:10.999Z</time></trkpt><trkpt lat="41.23638065976269" lon="14.798870565149095"><ele>370.75</ele><time>2026-04-05T13:33:11.999Z</time></trkpt><trkpt lat="41.236400169269544" lon="14.799008044504905"><ele>369.5</ele><time>2026-04-05T13:33:12.999Z</time></trkpt><trkpt lat="41.23636482592004" lon="14.799146062483816"><ele>368.25</ele><time>2026-04-05T13:33:13.999Z</time></trkpt><trkpt lat="41.236303641444685" lon="14.799269027506204"><ele>367.0</ele><time>2026-04-05T13:33:14.999Z</time></trkpt><trkpt lat="41.23620836778205" lon="14.799405407940474"><ele>363.66666666666663</ele><time>2026-04-05T13:33:15.999Z</time></trkpt><trkpt lat="41.236090511459565" lon="14.799567994932676"><ele>360.3333333333333</ele><time>2026-04-05T13:33:16.999Z</time></trkpt><trkpt lat="41.235977187484245" lon="14.799742403346405"><ele>357.0</ele><time>2026-04-05T13:33:17.999Z</time></trkpt><trkpt lat="41.23588035783878" lon="14.799909505932755"><ele>357.0</ele><time>2026-04-05T13:33:18.999Z</time></trkpt><trkpt lat="41.23576169494467" lon="14.800020756227347"><ele>357.0</ele><time>2026-04-05T13:33:19.999Z</time></trkpt><trkpt lat="41.23563661740155" lon="14.800135897942814"><ele>357.0</ele><time>2026-04-05T13:33:20.999Z</time></trkpt><trkpt lat="41.235503337777175" lon="14.800265380177308"><ele>355.3333333333333</ele><time>2026-04-05T13:33:21.999Z</time></trkpt><trkpt lat="41.23535116978553" lon="14.800364168803439"><ele>353.66666666666663</ele><time>2026-04-05T13:33:22.999Z</time></trkpt><trkpt lat="41.23519417111715" lon="14.800431010635142"><ele>352.0</ele><time>2026-04-05T13:33:23.999Z</time></trkpt><trkpt lat="41.23503151424842" lon="14.800488378409163"><ele>352.0</ele><time>2026-04-05T13:33:24.999Z</time></trkpt><trkpt lat="41.234895742609126" lon="14.80055744649678"><ele>352.0</ele><time>2026-04-05T13:33:25.999Z</time></trkpt><trkpt lat="41.23478292186912" lon="14.800653646344452"><ele>352.0</ele><time>2026-04-05T13:33:26.999Z</time></trkpt><trkpt lat="41.234706359972485" lon="14.800754473362888"><ele>352.0</ele><time>2026-04-05T13:33:27.999Z</time></trkpt><trkpt lat="41.23466041115791" lon="14.80084663708225"><ele>352.75</ele><time>2026-04-05T13:33:28.999Z</time></trkpt><trkpt lat="41.234648503584005" lon="14.801031342600155"><ele>353.5</ele><time>2026-04-05T13:33:30.999Z</time></trkpt><trkpt lat="41.23467310498788" lon="14.80115894970977"><ele>354.25</ele><time>2026-04-05T13:33:31.999Z</time></trkpt><trkpt lat="41.23475217739745" lon="14.80127103788297"><ele>355.0</ele><time>2026-04-05T13:33:32.999Z</time></trkpt><trkpt lat="41.23483618800129" lon="14.80137087964032"><ele>355.0</ele><time>2026-04-05T13:33:33.999Z</time></trkpt><trkpt lat="41.23495351750475" lon="14.801468621274296"><ele>355.0</ele><time>2026-04-05T13:33:34.999Z</time></trkpt><trkpt lat="41.235082140652175" lon="14.801605798560388"><ele>355.0</ele><time>2026-04-05T13:33:35.999Z</time></trkpt><trkpt lat="41.2352157207526" lon="14.801728449809026"><ele>354.0</ele><time>2026-04-05T13:33:36.999Z</time></trkpt><trkpt lat="41.235356644733784" lon="14.801912816913113"><ele>353.0</ele><time>2026-04-05T13:33:37.999Z</time></trkpt><trkpt lat="41.23551164764577" lon="14.802083363941138"><ele>352.0</ele><time>2026-04-05T13:33:38.999Z</time></trkpt><trkpt lat="41.23565011405936" lon="14.802233464050614"><ele>352.0</ele><time>2026-04-05T13:33:39.999Z</time></trkpt><trkpt lat="41.235773789539685" lon="14.802367530537685"><ele>352.0</ele><time>2026-04-05T13:33:41Z</time></trkpt><trkpt lat="41.23589235842204" lon="14.802491488988709"><ele>352.0</ele><time>2026-04-05T13:33:42Z</time></trkpt><trkpt lat="41.23599480464082" lon="14.802568037826102"><ele>352.0</ele><time>2026-04-05T13:33:43Z</time></trkpt><trkpt lat="41.23608573535966" lon="14.802641953541313"><ele>352.0</ele><time>2026-04-05T13:33:44Z</time></trkpt><trkpt lat="41.23619380372551" lon="14.802661123441531"><ele>352.0</ele><time>2026-04-05T13:33:45Z</time></trkpt><trkpt lat="41.236311753173915" lon="14.80262123316098"><ele>352.0</ele><time>2026-04-05T13:33:46Z</time></trkpt><trkpt lat="41.23643367056777" lon="14.802553358935578"><ele>352.0</ele><time>2026-04-05T13:33:47Z</time></trkpt><trkpt lat="41.23653743474901" lon="14.802507901993993"><ele>353.20000000000005</ele><time>2026-04-05T13:33:48Z</time></trkpt><trkpt lat="41.23663464353448" lon="14.802485901084136"><ele>354.4</ele><time>2026-04-05T13:33:49Z</time></trkpt><trkpt lat="41.23672456463109" lon="14.802511779100966"><ele>355.6</ele><time>2026-04-05T13:33:50Z</time></trkpt><trkpt lat="41.23682371391528" lon="14.802551913577306"><ele>356.79999999999995</ele><time>2026-04-05T13:33:51Z</time></trkpt><trkpt lat="41.236914787909605" lon="14.802621172476892"><ele>358.0</ele><time>2026-04-05T13:33:52Z</time></trkpt><trkpt lat="41.23701607682181" lon="14.802748979430437"><ele>358.0</ele><time>2026-04-05T13:33:53Z</time></trkpt><trkpt lat="41.237159396347785" lon="14.802931086920388"><ele>358.0</ele><time>2026-04-05T13:33:54Z</time></trkpt><trkpt lat="41.23728529475523" lon="14.803093940874351"><ele>358.0</ele><time>2026-04-05T13:33:55Z</time></trkpt><trkpt lat="41.23738221677239" lon="14.803217842086472"><ele>355.25</ele><time>2026-04-05T13:33:56Z</time></trkpt><trkpt lat="41.237489711948385" lon="14.803307406827516"><ele>352.5</ele><time>2026-04-05T13:33:57Z</time></trkpt><trkpt lat="41.23763145170094" lon="14.803325983175023"><ele>349.75</ele><time>2026-04-05T13:33:58Z</time></trkpt><trkpt lat="41.23777914276626" lon="14.803318709034835"><ele>347.0</ele><time>2026-04-05T13:33:59Z</time></trkpt><trkpt lat="41.23791492243164" lon="14.803280410033302"><ele>347.0</ele><time>2026-04-05T13:34:00Z</time></trkpt><trkpt lat="41.23801959242697" lon="14.80327101415987"><ele>347.0</ele><time>2026-04-05T13:34:01Z</time></trkpt><trkpt lat="41.23812181975481" lon="14.803282573353137"><ele>347.0</ele><time>2026-04-05T13:34:02Z</time></trkpt><trkpt lat="41.238199716076124" lon="14.803360983177933"><ele>347.0</ele><time>2026-04-05T13:34:03Z</time></trkpt><trkpt lat="41.238229370743404" lon="14.803469699778317"><ele>347.0</ele><time>2026-04-05T13:34:04Z</time></trkpt><trkpt lat="41.23823483181879" lon="14.803614478254321"><ele>345.5</ele><time>2026-04-05T13:34:05Z</time></trkpt><trkpt lat="41.23822983097846" lon="14.803817339446764"><ele>344.0</ele><time>2026-04-05T13:34:06Z</time></trkpt><trkpt lat="41.23821986254682" lon="14.804033677142565"><ele>342.5</ele><time>2026-04-05T13:34:07Z</time></trkpt><trkpt lat="41.23821178067655" lon="14.804211382089656"><ele>341.0</ele><time>2026-04-05T13:34:08Z</time></trkpt><trkpt lat="41.238205044840875" lon="14.804360397634717"><ele>340.5</ele><time>2026-04-05T13:34:09Z</time></trkpt><trkpt lat="41.2381997829766" lon="14.804482443953573"><ele>340.0</ele><time>2026-04-05T13:34:10Z</time></trkpt><trkpt lat="41.23819929521457" lon="14.804594929344796"><ele>339.5</ele><time>2026-04-05T13:34:11Z</time></trkpt><trkpt lat="41.23822089892055" lon="14.804675878017465"><ele>339.0</ele><time>2026-04-05T13:34:12Z</time></trkpt><trkpt lat="41.238235114498146" lon="14.804808529354228"><ele>338.5</ele><time>2026-04-05T13:34:14Z</time></trkpt><trkpt lat="41.238190775291706" lon="14.80488573027881"><ele>338.0</ele><time>2026-04-05T13:34:15Z</time></trkpt><trkpt lat="41.23815059404409" lon="14.80499479045013"><ele>340.0</ele><time>2026-04-05T13:34:16Z</time></trkpt><trkpt lat="41.23808739685153" lon="14.805110810992204"><ele>342.0</ele><time>2026-04-05T13:34:17Z</time></trkpt><trkpt lat="41.23799818689213" lon="14.805220395148465"><ele>344.0</ele><time>2026-04-05T13:34:18Z</time></trkpt><trkpt lat="41.23789912121988" lon="14.805312805636888"><ele>346.0</ele><time>2026-04-05T13:34:19Z</time></trkpt><trkpt lat="41.23777733049432" lon="14.80537337008642"><ele>346.0</ele><time>2026-04-05T13:34:20Z</time></trkpt><trkpt lat="41.237623821026375" lon="14.80539877885717"><ele>346.0</ele><time>2026-04-05T13:34:21Z</time></trkpt><trkpt lat="41.237464774516624" lon="14.805397213875175"><ele>346.0</ele><time>2026-04-05T13:34:22Z</time></trkpt><trkpt lat="41.237306479656425" lon="14.805399674754337"><ele>348.25</ele><time>2026-04-05T13:34:23Z</time></trkpt><trkpt lat="41.23716181909184" lon="14.80543669438928"><ele>350.5</ele><time>2026-04-05T13:34:24Z</time></trkpt><trkpt lat="41.23704405939243" lon="14.805517987536234"><ele>352.75</ele><time>2026-04-05T13:34:25Z</time></trkpt><trkpt lat="41.23693831770719" lon="14.805643409875353"><ele>355.0</ele><time>2026-04-05T13:34:26Z</time></trkpt><trkpt lat="41.23686588823743" lon="14.805807392688608"><ele>355.0</ele><time>2026-04-05T13:34:27Z</time></trkpt><trkpt lat="41.236851660704076" lon="14.805989689339679"><ele>355.0</ele><time>2026-04-05T13:34:28Z</time></trkpt><trkpt lat="41.23686933678282" lon="14.806194135429395"><ele>355.0</ele><time>2026-04-05T13:34:29Z</time></trkpt><trkpt lat="41.23691251794829" lon="14.806416075294877"><ele>356.0</ele><time>2026-04-05T13:34:30Z</time></trkpt><trkpt lat="41.236929629191714" lon="14.806654599518787"><ele>357.0</ele><time>2026-04-05T13:34:31Z</time></trkpt><trkpt lat="41.236984349446786" lon="14.806899427903234"><ele>358.0</ele><time>2026-04-05T13:34:32Z</time></trkpt><trkpt lat="41.23703942127341" lon="14.807110027543716"><ele>359.0</ele><time>2026-04-05T13:34:33Z</time></trkpt><trkpt lat="41.237065962495365" lon="14.807305521477183"><ele>360.0</ele><time>2026-04-05T13:34:34Z</time></trkpt><trkpt lat="41.237109023610124" lon="14.807485951033087"><ele>361.0</ele><time>2026-04-05T13:34:35Z</time></trkpt><trkpt lat="41.23713759119933" lon="14.807644739870732"><ele>362.0</ele><time>2026-04-05T13:34:36Z</time></trkpt><trkpt lat="41.2371391381152" lon="14.807809091607929"><ele>363.0</ele><time>2026-04-05T13:34:37Z</time></trkpt><trkpt lat="41.23710506964001" lon="14.807976755738057"><ele>364.0</ele><time>2026-04-05T13:34:38Z</time></trkpt><trkpt lat="41.23702181811223" lon="14.808151431164266"><ele>365.0</ele><time>2026-04-05T13:34:39Z</time></trkpt><trkpt lat="41.2369203582483" lon="14.808341479675036"><ele>364.0</ele><time>2026-04-05T13:34:40Z</time></trkpt><trkpt lat="41.23681747602216" lon="14.808533914845684"><ele>363.0</ele><time>2026-04-05T13:34:41Z</time></trkpt><trkpt lat="41.236705533027354" lon="14.808744912937001"><ele>362.0</ele><time>2026-04-05T13:34:42Z</time></trkpt><trkpt lat="41.2365940624653" lon="14.808959411565997"><ele>362.0</ele><time>2026-04-05T13:34:43Z</time></trkpt><trkpt lat="41.236499207107315" lon="14.809167481762236"><ele>362.0</ele><time>2026-04-05T13:34:44Z</time></trkpt><trkpt lat="41.23638607894763" lon="14.80928922597048"><ele>362.0</ele><time>2026-04-05T13:34:45Z</time></trkpt><trkpt lat="41.2362656113128" lon="14.809395937173445"><ele>362.0</ele><time>2026-04-05T13:34:46Z</time></trkpt><trkpt lat="41.236124868426266" lon="14.809497204096273"><ele>362.0</ele><time>2026-04-05T13:34:47Z</time></trkpt><trkpt lat="41.23595599500111" lon="14.809500657981697"><ele>362.0</ele><time>2026-04-05T13:34:48Z</time></trkpt><trkpt lat="41.2357861268662" lon="14.809526047086674"><ele>366.25</ele><time>2026-04-05T13:34:49Z</time></trkpt><trkpt lat="41.2356353397017" lon="14.809497370803664"><ele>370.5</ele><time>2026-04-05T13:34:50Z</time></trkpt><trkpt lat="41.235508784088985" lon="14.809485783282456"><ele>374.75</ele><time>2026-04-05T13:34:51Z</time></trkpt><trkpt lat="41.23540403835292" lon="14.809484836145685"><ele>379.0</ele><time>2026-04-05T13:34:52Z</time></trkpt><trkpt lat="41.23532484129696" lon="14.809517539116293"><ele>379.0</ele><time>2026-04-05T13:34:53Z</time></trkpt><trkpt lat="41.23523997536957" lon="14.80959128900334"><ele>379.0</ele><time>2026-04-05T13:34:54Z</time></trkpt><trkpt lat="41.23517752712487" lon="14.80970761950011"><ele>379.0</ele><time>2026-04-05T13:34:55Z</time></trkpt><trkpt lat="41.23516502157999" lon="14.809842007046779"><ele>379.0</ele><time>2026-04-05T13:34:56Z</time></trkpt><trkpt lat="41.23518099618239" lon="14.809952624588798"><ele>379.0</ele><time>2026-04-05T13:34:57Z</time></trkpt><trkpt lat="41.235213923489404" lon="14.810062580955995"><ele>379.0</ele><time>2026-04-05T13:34:58.999Z</time></trkpt><trkpt lat="41.2352384125065" lon="14.810144022041635"><ele>379.0</ele><time>2026-04-05T13:35:00.999Z</time></trkpt><trkpt lat="41.23520614853876" lon="14.81003672439584"><ele>379.0</ele><time>2026-04-05T13:35:10.999Z</time></trkpt><trkpt lat="41.23518087842729" lon="14.809948282947518"><ele>379.0</ele><time>2026-04-05T13:35:12.999Z</time></trkpt><trkpt lat="41.235167501173976" lon="14.8098662080125"><ele>379.0</ele><time>2026-04-05T13:35:14.999Z</time></trkpt><trkpt lat="41.23518014024596" lon="14.80970230279102"><ele>379.0</ele><time>2026-04-05T13:35:17.999Z</time></trkpt><trkpt lat="41.23519481923701" lon="14.809591918334878"><ele>379.0</ele><time>2026-04-05T13:35:18.999Z</time></trkpt><trkpt lat="41.235254544017366" lon="14.80978017848101"><ele>379.0</ele><time>2026-04-05T13:35:19.999Z</time></trkpt><trkpt lat="41.235156197523466" lon="14.80980656954495"><ele>379.0</ele><time>2026-04-05T13:35:21.999Z</time></trkpt><trkpt lat="41.23503854392403" lon="14.809798457819777"><ele>379.0</ele><time>2026-04-05T13:35:23.999Z</time></trkpt><trkpt lat="41.23497291354392" lon="14.809793932910504"><ele>379.0</ele><time>2026-04-05T13:35:24.999Z</time></trkpt><trkpt lat="41.234874413135934" lon="14.80977313715427"><ele>387.0</ele><time>2026-04-05T13:35:26.999Z</time></trkpt><trkpt lat="41.23478953053805" lon="14.809028615755587"><ele>387.0</ele><time>2026-04-05T13:35:28.999Z</time></trkpt><trkpt lat="41.23473378413916" lon="14.808934683859865"><ele>387.0</ele><time>2026-04-05T13:35:29.999Z</time></trkpt><trkpt lat="41.23467035785908" lon="14.808810778351404"><ele>387.0</ele><time>2026-04-05T13:35:31.999Z</time></trkpt><trkpt lat="41.234620727035406" lon="14.808735821892945"><ele>387.0</ele><time>2026-04-05T13:35:33.999Z</time></trkpt><trkpt lat="41.23451355962141" lon="14.808577397370087"><ele>387.0</ele><time>2026-04-05T13:35:35.999Z</time></trkpt><trkpt lat="41.2344634895785" lon="14.808479158618113"><ele>386.5</ele><time>2026-04-05T13:35:36.999Z</time></trkpt><trkpt lat="41.23438164506818" lon="14.808329508827844"><ele>386.0</ele><time>2026-04-05T13:35:37.999Z</time></trkpt><trkpt lat="41.23430635382228" lon="14.808198350376713"><ele>385.5</ele><time>2026-04-05T13:35:38.999Z</time></trkpt><trkpt lat="41.23420945275374" lon="14.808060010688514"><ele>385.0</ele><time>2026-04-05T13:35:39.999Z</time></trkpt><trkpt lat="41.23408672657018" lon="14.807871234503517"><ele>389.6666666666667</ele><time>2026-04-05T13:35:40.999Z</time></trkpt><trkpt lat="41.23395518760524" lon="14.807666305367004"><ele>394.33333333333337</ele><time>2026-04-05T13:35:41.999Z</time></trkpt><trkpt lat="41.23383178706932" lon="14.807477099595488"><ele>399.0</ele><time>2026-04-05T13:35:42.999Z</time></trkpt><trkpt lat="41.23370884298997" lon="14.807289353715415"><ele>399.25</ele><time>2026-04-05T13:35:43.999Z</time></trkpt><trkpt lat="41.23359925001407" lon="14.80711504839641"><ele>399.5</ele><time>2026-04-05T13:35:44.999Z</time></trkpt><trkpt lat="41.233684095279536" lon="14.807177423533172"><ele>399.75</ele><time>2026-04-05T13:35:45.999Z</time></trkpt><trkpt lat="41.23358694635575" lon="14.807159151369737"><ele>400.0</ele><time>2026-04-05T13:35:48Z</time></trkpt><trkpt lat="41.23341942129618" lon="14.807411781749012"><ele>400.0</ele><time>2026-04-05T13:35:50Z</time></trkpt><trkpt lat="41.233305639499214" lon="14.807571065107323"><ele>400.0</ele><time>2026-04-05T13:35:51Z</time></trkpt><trkpt lat="41.23321060544369" lon="14.807708798794295"><ele>400.0</ele><time>2026-04-05T13:35:52Z</time></trkpt><trkpt lat="41.233145106803654" lon="14.807876173507104"><ele>400.0</ele><time>2026-04-05T13:35:53Z</time></trkpt><trkpt lat="41.23311366204289" lon="14.808085853911347"><ele>404.33333333333337</ele><time>2026-04-05T13:35:54Z</time></trkpt><trkpt lat="41.233105850545094" lon="14.80831813241537"><ele>408.66666666666663</ele><time>2026-04-05T13:35:55Z</time></trkpt><trkpt lat="41.233113380472666" lon="14.808524534473552"><ele>413.0</ele><time>2026-04-05T13:35:56Z</time></trkpt><trkpt lat="41.233128743441796" lon="14.808696004519009"><ele>411.0</ele><time>2026-04-05T13:35:57Z</time></trkpt><trkpt lat="41.23314413204575" lon="14.808848228123564"><ele>409.0</ele><time>2026-04-05T13:35:58Z</time></trkpt><trkpt lat="41.23318155169526" lon="14.808992905901173"><ele>407.0</ele><time>2026-04-05T13:35:59Z</time></trkpt><trkpt lat="41.23321434461717" lon="14.809121895056167"><ele>405.0</ele><time>2026-04-05T13:36:00Z</time></trkpt><trkpt lat="41.23327178744743" lon="14.8092547023751"><ele>403.0</ele><time>2026-04-05T13:36:01Z</time></trkpt><trkpt lat="41.233345727525986" lon="14.809379706773722"><ele>403.0</ele><time>2026-04-05T13:36:02Z</time></trkpt><trkpt lat="41.23339931073217" lon="14.80949603158256"><ele>403.0</ele><time>2026-04-05T13:36:03Z</time></trkpt><trkpt lat="41.23345561178769" lon="14.809607404968268"><ele>403.0</ele><time>2026-04-05T13:36:04Z</time></trkpt><trkpt lat="41.233520821304" lon="14.809698583291999"><ele>403.0</ele><time>2026-04-05T13:36:05Z</time></trkpt><trkpt lat="41.23358831957872" lon="14.809783218871644"><ele>403.0</ele><time>2026-04-05T13:36:06Z</time></trkpt><trkpt lat="41.23364860696566" lon="14.809874677941988"><ele>403.00000000000006</ele><time>2026-04-05T13:36:07Z</time></trkpt><trkpt lat="41.23371236286282" lon="14.809939201341791"><ele>403.0</ele><time>2026-04-05T13:36:08Z</time></trkpt><trkpt lat="41.233765819367626" lon="14.810000246676447"><ele>403.0</ele><time>2026-04-05T13:36:09Z</time></trkpt><trkpt lat="41.233819229229624" lon="14.810067722777921"><ele>403.0</ele><time>2026-04-05T13:36:10Z</time></trkpt><trkpt lat="41.23390860304929" lon="14.810182564749104"><ele>403.00000000000006</ele><time>2026-04-05T13:36:12Z</time></trkpt><trkpt lat="41.23396092914812" lon="14.810230809856872"><ele>403.0</ele><time>2026-04-05T13:36:13Z</time></trkpt><trkpt lat="41.23406235605885" lon="14.810292733030359"><ele>403.59999999999997</ele><time>2026-04-05T13:36:15Z</time></trkpt><trkpt lat="41.234147784163525" lon="14.810383871817379"><ele>404.2</ele><time>2026-04-05T13:36:17Z</time></trkpt><trkpt lat="41.23421084394158" lon="14.81039494884349"><ele>404.8</ele><time>2026-04-05T13:36:35Z</time></trkpt><trkpt lat="41.234132108885674" lon="14.810535225300157"><ele>405.4</ele><time>2026-04-05T13:36:37Z</time></trkpt><trkpt lat="41.23409023517982" lon="14.81066685272125"><ele>406.0</ele><time>2026-04-05T13:36:38Z</time></trkpt><trkpt lat="41.23403450402888" lon="14.810784200541628"><ele>406.00000000000006</ele><time>2026-04-05T13:36:39Z</time></trkpt><trkpt lat="41.234033065705034" lon="14.810879366246894"><ele>406.0</ele><time>2026-04-05T13:36:40Z</time></trkpt><trkpt lat="41.2340043517047" lon="14.810975375472081"><ele>406.0</ele><time>2026-04-05T13:36:41Z</time></trkpt><trkpt lat="41.23391565244191" lon="14.811104279623851"><ele>406.0</ele><time>2026-04-05T13:37:43.999Z</time></trkpt><trkpt lat="41.23385575361497" lon="14.811143768499878"><ele>406.00000000000006</ele><time>2026-04-05T13:37:44.999Z</time></trkpt><trkpt lat="41.23377953659298" lon="14.811148204839144"><ele>406.0</ele><time>2026-04-05T13:37:45.999Z</time></trkpt><trkpt lat="41.23369352902775" lon="14.811159288222505"><ele>406.50000000000006</ele><time>2026-04-05T13:37:46.999Z</time></trkpt><trkpt lat="41.23360665633059" lon="14.811144647770769"><ele>407.0</ele><time>2026-04-05T13:37:48.999Z</time></trkpt><trkpt lat="41.23354602163817" lon="14.811111499129833"><ele>407.5</ele><time>2026-04-05T13:37:49.999Z</time></trkpt><trkpt lat="41.233473833863684" lon="14.811079796188876"><ele>408.0</ele><time>2026-04-05T13:37:50.999Z</time></trkpt><trkpt lat="41.23339306967596" lon="14.811053193687144"><ele>408.50000000000006</ele><time>2026-04-05T13:37:51.999Z</time></trkpt><trkpt lat="41.23331138970397" lon="14.811017735968647"><ele>409.0</ele><time>2026-04-05T13:37:53Z</time></trkpt><trkpt lat="41.233229976633055" lon="14.810978332082593"><ele>409.0</ele><time>2026-04-05T13:37:54Z</time></trkpt><trkpt lat="41.23314483645087" lon="14.810924042584714"><ele>409.0</ele><time>2026-04-05T13:37:55Z</time></trkpt><trkpt lat="41.23306050493883" lon="14.810867383243707"><ele>409.0</ele><time>2026-04-05T13:37:56Z</time></trkpt><trkpt lat="41.2329789609455" lon="14.810806627105114"><ele>409.0</ele><time>2026-04-05T13:37:57Z</time></trkpt><trkpt lat="41.23290835405218" lon="14.810758213195191"><ele>409.0</ele><time>2026-04-05T13:37:58Z</time></trkpt><trkpt lat="41.23278750863295" lon="14.810699936475705"><ele>410.50000000000006</ele><time>2026-04-05T13:38:00Z</time></trkpt><trkpt lat="41.232724415632156" lon="14.810715417581001"><ele>412.0</ele><time>2026-04-05T13:38:03Z</time></trkpt><trkpt lat="41.23272637507" lon="14.810814402441698"><ele>413.5</ele><time>2026-04-05T13:38:04Z</time></trkpt><trkpt lat="41.23270016847971" lon="14.810927958081644"><ele>415.0</ele><time>2026-04-05T13:38:09Z</time></trkpt><trkpt lat="41.232632484842554" lon="14.810927389433834"><ele>416.50000000000006</ele><time>2026-04-05T13:38:10Z</time></trkpt><trkpt lat="41.23256322522103" lon="14.810986561106853"><ele>418.0</ele><time>2026-04-05T13:38:11Z</time></trkpt><trkpt lat="41.23247178289757" lon="14.81106468445814"><ele>418.6666666666667</ele><time>2026-04-05T13:38:12Z</time></trkpt><trkpt lat="41.232402968280724" lon="14.811133282605184"><ele>419.33333333333337</ele><time>2026-04-05T13:38:13Z</time></trkpt><trkpt lat="41.23234957884558" lon="14.811191523577556"><ele>420.0</ele><time>2026-04-05T13:38:14Z</time></trkpt><trkpt lat="41.232290355503174" lon="14.8112656874751"><ele>420.66666666666663</ele><time>2026-04-05T13:38:16Z</time></trkpt><trkpt lat="41.23223192280197" lon="14.811332823948693"><ele>421.3333333333333</ele><time>2026-04-05T13:38:18Z</time></trkpt><trkpt lat="41.2321651924229" lon="14.8114369221866"><ele>422.0</ele><time>2026-04-05T13:38:20Z</time></trkpt><trkpt lat="41.23212650428213" lon="14.811516626743952"><ele>423.8</ele><time>2026-04-05T13:38:21Z</time></trkpt><trkpt lat="41.23206304622386" lon="14.811552453104955"><ele>425.6</ele><time>2026-04-05T13:38:22Z</time></trkpt><trkpt lat="41.231980893983746" lon="14.81160434986169"><ele>427.40000000000003</ele><time>2026-04-05T13:38:24Z</time></trkpt><trkpt lat="41.23190029480211" lon="14.811666996487808"><ele>429.20000000000005</ele><time>2026-04-05T13:38:27Z</time></trkpt><trkpt lat="41.231800348597886" lon="14.81172080779508"><ele>431.0</ele><time>2026-04-05T13:38:29Z</time></trkpt><trkpt lat="41.23171168058102" lon="14.8117225141787"><ele>430.99999999999994</ele><time>2026-04-05T13:38:30Z</time></trkpt><trkpt lat="41.231627089019184" lon="14.811729243357416"><ele>431.0</ele><time>2026-04-05T13:38:31Z</time></trkpt><trkpt lat="41.231540510538665" lon="14.811738753311705"><ele>431.0</ele><time>2026-04-05T13:38:32Z</time></trkpt><trkpt lat="41.23145130908866" lon="14.811751069903433"><ele>431.0</ele><time>2026-04-05T13:38:33Z</time></trkpt><trkpt lat="41.2313629723191" lon="14.811754895822736"><ele>430.99999999999994</ele><time>2026-04-05T13:38:34Z</time></trkpt><trkpt lat="41.23127416045354" lon="14.811772075549134"><ele>431.0</ele><time>2026-04-05T13:38:35Z</time></trkpt><trkpt lat="41.231172805572896" lon="14.811788009100521"><ele>432.0</ele><time>2026-04-05T13:38:36Z</time></trkpt><trkpt lat="41.2310580504471" lon="14.811806281950217"><ele>433.0</ele><time>2026-04-05T13:38:37Z</time></trkpt><trkpt lat="41.230955320921794" lon="14.811813989731132"><ele>434.0</ele><time>2026-04-05T13:38:38Z</time></trkpt><trkpt lat="41.23086833451445" lon="14.81182201040067"><ele>435.0</ele><time>2026-04-05T13:38:39Z</time></trkpt><trkpt lat="41.2307804364924" lon="14.811829268277199"><ele>436.0</ele><time>2026-04-05T13:38:40Z</time></trkpt><trkpt lat="41.23069408748299" lon="14.81184351826236"><ele>438.20000000000005</ele><time>2026-04-05T13:38:41Z</time></trkpt><trkpt lat="41.23060276955455" lon="14.811852969352344"><ele>440.40000000000003</ele><time>2026-04-05T13:38:42Z</time></trkpt><trkpt lat="41.23051311778375" lon="14.811859712182118"><ele>442.6</ele><time>2026-04-05T13:38:43Z</time></trkpt><trkpt lat="41.23041767907709" lon="14.811868487651262"><ele>444.8</ele><time>2026-04-05T13:38:44Z</time></trkpt><trkpt lat="41.23028825878516" lon="14.811883109467606"><ele>447.0</ele><time>2026-04-05T13:38:45Z</time></trkpt><trkpt lat="41.230190989350945" lon="14.811894330597076"><ele>447.0</ele><time>2026-04-05T13:38:46Z</time></trkpt><trkpt lat="41.23011142618392" lon="14.811901420816094"><ele>447.0</ele><time>2026-04-05T13:38:47Z</time></trkpt><trkpt lat="41.23003078147134" lon="14.811897519252668"><ele>447.0</ele><time>2026-04-05T13:38:48Z</time></trkpt><trkpt lat="41.22996059113633" lon="14.811866144166107"><ele>447.0</ele><time>2026-04-05T13:38:49Z</time></trkpt><trkpt lat="41.22988497197118" lon="14.811799063328339"><ele>447.0</ele><time>2026-04-05T13:38:50Z</time></trkpt><trkpt lat="41.22981643186315" lon="14.811728107436627"><ele>447.0</ele><time>2026-04-05T13:38:51Z</time></trkpt><trkpt lat="41.229758570027805" lon="14.81165472966484"><ele>448.6</ele><time>2026-04-05T13:38:52Z</time></trkpt><trkpt lat="41.22967629658052" lon="14.811581777774018"><ele>450.20000000000005</ele><time>2026-04-05T13:38:53Z</time></trkpt><trkpt lat="41.22959142538877" lon="14.811510410871106"><ele>451.8</ele><time>2026-04-05T13:38:54Z</time></trkpt><trkpt lat="41.22951338961856" lon="14.811430717475057"><ele>453.4</ele><time>2026-04-05T13:38:55Z</time></trkpt><trkpt lat="41.22939811251207" lon="14.811336686171272"><ele>455.0</ele><time>2026-04-05T13:38:56Z</time></trkpt><trkpt lat="41.229291571588554" lon="14.81122268696198"><ele>455.0</ele><time>2026-04-05T13:38:57Z</time></trkpt><trkpt lat="41.229177795277984" lon="14.811106567587213"><ele>455.0</ele><time>2026-04-05T13:38:58Z</time></trkpt><trkpt lat="41.229057960886735" lon="14.81098846463874"><ele>455.0</ele><time>2026-04-05T13:38:59Z</time></trkpt><trkpt lat="41.22894065004318" lon="14.810854840980202"><ele>455.0</ele><time>2026-04-05T13:39:00Z</time></trkpt><trkpt lat="41.22882677430844" lon="14.810730159513787"><ele>458.3333333333333</ele><time>2026-04-05T13:39:01Z</time></trkpt><trkpt lat="41.22871752718134" lon="14.81062238170043"><ele>461.66666666666663</ele><time>2026-04-05T13:39:02Z</time></trkpt><trkpt lat="41.22858020913928" lon="14.810507686965193"><ele>465.0</ele><time>2026-04-05T13:39:03Z</time></trkpt><trkpt lat="41.22843096893507" lon="14.810411239789127"><ele>465.0</ele><time>2026-04-05T13:39:04Z</time></trkpt><trkpt lat="41.228264432867505" lon="14.81032612118599"><ele>465.0</ele><time>2026-04-05T13:39:05Z</time></trkpt><trkpt lat="41.2280989689359" lon="14.810233937894658"><ele>465.0</ele><time>2026-04-05T13:39:06Z</time></trkpt><trkpt lat="41.227973096685034" lon="14.810136418213357"><ele>468.5</ele><time>2026-04-05T13:39:07Z</time></trkpt><trkpt lat="41.22786587989021" lon="14.810013226470208"><ele>472.0</ele><time>2026-04-05T13:39:08Z</time></trkpt><trkpt lat="41.22778830664307" lon="14.809858179818438"><ele>475.5</ele><time>2026-04-05T13:39:09Z</time></trkpt><trkpt lat="41.22771785035844" lon="14.809695941248735"><ele>479.0</ele><time>2026-04-05T13:39:10Z</time></trkpt><trkpt lat="41.22764103517807" lon="14.809519748447576"><ele>479.0</ele><time>2026-04-05T13:39:11Z</time></trkpt><trkpt lat="41.22755114304648" lon="14.809332797996644"><ele>479.0</ele><time>2026-04-05T13:39:12Z</time></trkpt><trkpt lat="41.22742924350822" lon="14.809127250746004"><ele>479.0</ele><time>2026-04-05T13:39:13Z</time></trkpt><trkpt lat="41.22729816984796" lon="14.80891384565106"><ele>483.66666666666663</ele><time>2026-04-05T13:39:14Z</time></trkpt><trkpt lat="41.227176047132964" lon="14.808728779766458"><ele>488.33333333333337</ele><time>2026-04-05T13:39:15Z</time></trkpt><trkpt lat="41.22706565726365" lon="14.808537120022647"><ele>493.0</ele><time>2026-04-05T13:39:16Z</time></trkpt><trkpt lat="41.22697555984857" lon="14.808333457275175"><ele>493.0</ele><time>2026-04-05T13:39:17Z</time></trkpt><trkpt lat="41.22689005022379" lon="14.808140134217165"><ele>493.0</ele><time>2026-04-05T13:39:18Z</time></trkpt><trkpt lat="41.22682031241331" lon="14.80796727100931"><ele>493.0</ele><time>2026-04-05T13:39:18.999Z</time></trkpt><trkpt lat="41.22672799052905" lon="14.807806488613087"><ele>492.33333333333337</ele><time>2026-04-05T13:39:19.999Z</time></trkpt><trkpt lat="41.22660023691279" lon="14.807648956939872"><ele>491.66666666666663</ele><time>2026-04-05T13:39:20.999Z</time></trkpt><trkpt lat="41.22645634476048" lon="14.807507911546276"><ele>491.0</ele><time>2026-04-05T13:39:21.999Z</time></trkpt><trkpt lat="41.226306500534584" lon="14.807379224915492"><ele>493.0</ele><time>2026-04-05T13:39:22.999Z</time></trkpt><trkpt lat="41.22617121126552" lon="14.807272645966512"><ele>495.0</ele><time>2026-04-05T13:39:23.999Z</time></trkpt><trkpt lat="41.22604400153673" lon="14.80719255926366"><ele>497.0</ele><time>2026-04-05T13:39:24.999Z</time></trkpt><trkpt lat="41.22592950347698" lon="14.807097794436027"><ele>499.0</ele><time>2026-04-05T13:39:25.999Z</time></trkpt><trkpt lat="41.2258258463582" lon="14.806971279774416"><ele>499.0</ele><time>2026-04-05T13:39:26.999Z</time></trkpt><trkpt lat="41.22570359070599" lon="14.80683480033701"><ele>499.0</ele><time>2026-04-05T13:39:27.999Z</time></trkpt><trkpt lat="41.22554595453918" lon="14.80671682986111"><ele>499.0</ele><time>2026-04-05T13:39:28.999Z</time></trkpt><trkpt lat="41.2253863439344" lon="14.806617031744553"><ele>499.25</ele><time>2026-04-05T13:39:29.999Z</time></trkpt><trkpt lat="41.2252446250136" lon="14.806528255385647"><ele>499.5</ele><time>2026-04-05T13:39:30.999Z</time></trkpt><trkpt lat="41.2251345412168" lon="14.806414634466758"><ele>499.75</ele><time>2026-04-05T13:39:31.999Z</time></trkpt><trkpt lat="41.225039906401975" lon="14.806257693911972"><ele>500.0</ele><time>2026-04-05T13:39:32.999Z</time></trkpt><trkpt lat="41.22497167002652" lon="14.806036324514407"><ele>498.66666666666663</ele><time>2026-04-05T13:39:33.999Z</time></trkpt><trkpt lat="41.22490736794441" lon="14.80577506088025"><ele>497.33333333333337</ele><time>2026-04-05T13:39:34.999Z</time></trkpt><trkpt lat="41.22481891334883" lon="14.80551579866282"><ele>496.0</ele><time>2026-04-05T13:39:35.999Z</time></trkpt><trkpt lat="41.224694382940434" lon="14.805355004781527"><ele>499.0</ele><time>2026-04-05T13:39:36.999Z</time></trkpt><trkpt lat="41.22453192351094" lon="14.805136760332422"><ele>502.0</ele><time>2026-04-05T13:39:37.999Z</time></trkpt><trkpt lat="41.22439216960071" lon="14.80497171153291"><ele>505.0</ele><time>2026-04-05T13:39:38.999Z</time></trkpt><trkpt lat="41.224264492373244" lon="14.80480581340945"><ele>505.0</ele><time>2026-04-05T13:39:39.999Z</time></trkpt><trkpt lat="41.22413484443628" lon="14.804652848983778"><ele>505.0</ele><time>2026-04-05T13:39:40.999Z</time></trkpt><trkpt lat="41.22398408229303" lon="14.80451622336843"><ele>505.0</ele><time>2026-04-05T13:39:41.999Z</time></trkpt><trkpt lat="41.22381730758608" lon="14.804394056388732"><ele>505.6666666666667</ele><time>2026-04-05T13:39:42.999Z</time></trkpt><trkpt lat="41.22363908017349" lon="14.804267693397263"><ele>506.33333333333337</ele><time>2026-04-05T13:39:43.999Z</time></trkpt><trkpt lat="41.22345412588417" lon="14.804143280879147"><ele>507.0</ele><time>2026-04-05T13:39:44.999Z</time></trkpt><trkpt lat="41.22326878065662" lon="14.804018950002384"><ele>508.0</ele><time>2026-04-05T13:39:45.999Z</time></trkpt><trkpt lat="41.22308190008537" lon="14.80388418551713"><ele>509.0</ele><time>2026-04-05T13:39:46.999Z</time></trkpt><trkpt lat="41.22290137202088" lon="14.803746904037512"><ele>510.0</ele><time>2026-04-05T13:39:47.999Z</time></trkpt><trkpt lat="41.222733211864664" lon="14.80362659626084"><ele>510.0</ele><time>2026-04-05T13:39:48.999Z</time></trkpt><trkpt lat="41.22257346080794" lon="14.803530177653078"><ele>510.0</ele><time>2026-04-05T13:39:49.999Z</time></trkpt><trkpt lat="41.22239229900248" lon="14.803422402807081"><ele>510.0</ele><time>2026-04-05T13:39:50.999Z</time></trkpt><trkpt lat="41.22222001433024" lon="14.803323376669063"><ele>508.33333333333337</ele><time>2026-04-05T13:39:51.999Z</time></trkpt><trkpt lat="41.22205868505622" lon="14.803225993752491"><ele>506.6666666666667</ele><time>2026-04-05T13:39:52.999Z</time></trkpt><trkpt lat="41.22191109442603" lon="14.803107126685383"><ele>505.0</ele><time>2026-04-05T13:39:53.999Z</time></trkpt><trkpt lat="41.22181601713481" lon="14.802930500877485"><ele>505.0</ele><time>2026-04-05T13:39:54.999Z</time></trkpt><trkpt lat="41.22175801937311" lon="14.802737716610995"><ele>505.0</ele><time>2026-04-05T13:39:55.999Z</time></trkpt><trkpt lat="41.22171103086884" lon="14.802504589293289"><ele>505.0</ele><time>2026-04-05T13:39:56.999Z</time></trkpt><trkpt lat="41.22164815115532" lon="14.802226829409257"><ele>504.6666666666667</ele><time>2026-04-05T13:39:57.999Z</time></trkpt><trkpt lat="41.22157778581186" lon="14.802036761351376"><ele>504.33333333333337</ele><time>2026-04-05T13:39:59Z</time></trkpt><trkpt lat="41.22149591079128" lon="14.80182821561221"><ele>504.0</ele><time>2026-04-05T13:40:00Z</time></trkpt><trkpt lat="41.2214055023846" lon="14.801634869950453"><ele>506.33333333333337</ele><time>2026-04-05T13:40:01Z</time></trkpt><trkpt lat="41.22131170458297" lon="14.801439923344693"><ele>508.6666666666667</ele><time>2026-04-05T13:40:02Z</time></trkpt><trkpt lat="41.22123334880124" lon="14.801262846423716"><ele>511.0</ele><time>2026-04-05T13:40:03Z</time></trkpt><trkpt lat="41.221178729453484" lon="14.801118094357406"><ele>510.25</ele><time>2026-04-05T13:40:04Z</time></trkpt><trkpt lat="41.22110806209912" lon="14.800954852755412"><ele>509.5</ele><time>2026-04-05T13:40:05Z</time></trkpt><trkpt lat="41.22106465668704" lon="14.800808523916857"><ele>508.75</ele><time>2026-04-05T13:40:06Z</time></trkpt><trkpt lat="41.2210212882912" lon="14.80066775574284"><ele>508.0</ele><time>2026-04-05T13:40:07Z</time></trkpt><trkpt lat="41.22096119194395" lon="14.800531849567276"><ele>508.0</ele><time>2026-04-05T13:40:08Z</time></trkpt><trkpt lat="41.22086337348023" lon="14.800422559663563"><ele>508.0</ele><time>2026-04-05T13:40:09Z</time></trkpt><trkpt lat="41.220762079842814" lon="14.800321714605483"><ele>508.0</ele><time>2026-04-05T13:40:10Z</time></trkpt><trkpt lat="41.220706843169744" lon="14.800184321065384"><ele>508.0</ele><time>2026-04-05T13:40:11Z</time></trkpt><trkpt lat="41.22065055189097" lon="14.800023506233815"><ele>507.6666666666667</ele><time>2026-04-05T13:40:12Z</time></trkpt><trkpt lat="41.22067813628376" lon="14.799790820898325"><ele>507.33333333333337</ele><time>2026-04-05T13:40:13Z</time></trkpt><trkpt lat="41.220604791712944" lon="14.799550289706708"><ele>507.0</ele><time>2026-04-05T13:40:14Z</time></trkpt><trkpt lat="41.22051229228977" lon="14.799306584343604"><ele>507.0</ele><time>2026-04-05T13:40:15Z</time></trkpt><trkpt lat="41.22041149734266" lon="14.79903517965378"><ele>507.0</ele><time>2026-04-05T13:40:16Z</time></trkpt><trkpt lat="41.22032266269632" lon="14.7987394011679"><ele>507.0</ele><time>2026-04-05T13:40:17Z</time></trkpt><trkpt lat="41.220231255953706" lon="14.798437246164157"><ele>507.0</ele><time>2026-04-05T13:40:18Z</time></trkpt><trkpt lat="41.22014271257654" lon="14.798155605681082"><ele>507.0</ele><time>2026-04-05T13:40:19Z</time></trkpt><trkpt lat="41.22006375666153" lon="14.797897175621836"><ele>507.0</ele><time>2026-04-05T13:40:20Z</time></trkpt><trkpt lat="41.21998723315004" lon="14.797661782787861"><ele>507.0</ele><time>2026-04-05T13:40:21Z</time></trkpt><trkpt lat="41.21989217270426" lon="14.79742845234372"><ele>505.33333333333337</ele><time>2026-04-05T13:40:22Z</time></trkpt><trkpt lat="41.219761415169735" lon="14.797216170223695"><ele>503.6666666666667</ele><time>2026-04-05T13:40:23Z</time></trkpt><trkpt lat="41.21960554170837" lon="14.797010856882688"><ele>502.0</ele><time>2026-04-05T13:40:24Z</time></trkpt><trkpt lat="41.21941805211861" lon="14.796856215714172"><ele>502.5</ele><time>2026-04-05T13:40:25Z</time></trkpt><trkpt lat="41.219220656661534" lon="14.796705544229336"><ele>503.0</ele><time>2026-04-05T13:40:26Z</time></trkpt><trkpt lat="41.21900674765989" lon="14.796564852176372"><ele>500.66666666666663</ele><time>2026-04-05T13:40:27Z</time></trkpt><trkpt lat="41.21881523678514" lon="14.796429365742199"><ele>498.33333333333337</ele><time>2026-04-05T13:40:28Z</time></trkpt><trkpt lat="41.218628898979496" lon="14.796300284897587"><ele>496.0</ele><time>2026-04-05T13:40:29Z</time></trkpt><trkpt lat="41.21845453426788" lon="14.796157397663142"><ele>497.0</ele><time>2026-04-05T13:40:30Z</time></trkpt><trkpt lat="41.2182800366304" lon="14.795988482308738"><ele>498.0</ele><time>2026-04-05T13:40:31Z</time></trkpt><trkpt lat="41.21810960227756" lon="14.795794040204656"><ele>499.0</ele><time>2026-04-05T13:40:32Z</time></trkpt><trkpt lat="41.21793721946313" lon="14.795587477590786"><ele>497.33333333333337</ele><time>2026-04-05T13:40:33Z</time></trkpt><trkpt lat="41.217775550267355" lon="14.795400793639525"><ele>495.66666666666663</ele><time>2026-04-05T13:40:34Z</time></trkpt><trkpt lat="41.217591096009706" lon="14.795208560864637"><ele>494.0</ele><time>2026-04-05T13:40:35Z</time></trkpt><trkpt lat="41.21739773495357" lon="14.79502730007506"><ele>490.66666666666663</ele><time>2026-04-05T13:40:36Z</time></trkpt><trkpt lat="41.21720331094188" lon="14.79485816794787"><ele>487.33333333333337</ele><time>2026-04-05T13:40:37Z</time></trkpt><trkpt lat="41.217026795467426" lon="14.794692673938881"><ele>484.0</ele><time>2026-04-05T13:40:38Z</time></trkpt><trkpt lat="41.21686204229552" lon="14.794501710859535"><ele>486.6666666666667</ele><time>2026-04-05T13:40:39Z</time></trkpt><trkpt lat="41.21671550551172" lon="14.794286656687646"><ele>489.33333333333337</ele><time>2026-04-05T13:40:40Z</time></trkpt><trkpt lat="41.216598214333935" lon="14.794069732181134"><ele>492.0</ele><time>2026-04-05T13:40:41Z</time></trkpt><trkpt lat="41.21650063540519" lon="14.793857043044172"><ele>490.40000000000003</ele><time>2026-04-05T13:40:42Z</time></trkpt><trkpt lat="41.21642997279531" lon="14.793671930301976"><ele>488.80000000000007</ele><time>2026-04-05T13:40:43Z</time></trkpt><trkpt lat="41.216382862567244" lon="14.793552264502912"><ele>487.2</ele><time>2026-04-05T13:40:44Z</time></trkpt><trkpt lat="41.216361330926816" lon="14.793462121644438"><ele>485.6</ele><time>2026-04-05T13:40:45Z</time></trkpt><trkpt lat="41.21632845599866" lon="14.793366052515061"><ele>484.0</ele><time>2026-04-05T13:40:47Z</time></trkpt><trkpt lat="41.216179510431594" lon="14.793331724683647"><ele>484.0</ele><time>2026-04-05T13:40:49Z</time></trkpt><trkpt lat="41.21607026248467" lon="14.793347944809609"><ele>484.0</ele><time>2026-04-05T13:40:50Z</time></trkpt><trkpt lat="41.215944525075464" lon="14.793358814099697"><ele>484.0</ele><time>2026-04-05T13:40:51Z</time></trkpt><trkpt lat="41.215803672440565" lon="14.79336286727006"><ele>484.0</ele><time>2026-04-05T13:40:52Z</time></trkpt><trkpt lat="41.21564619999656" lon="14.793364034638197"><ele>481.6666666666667</ele><time>2026-04-05T13:40:53Z</time></trkpt><trkpt lat="41.215478956876794" lon="14.793365823314813"><ele>479.33333333333337</ele><time>2026-04-05T13:40:54Z</time></trkpt><trkpt lat="41.21529696143098" lon="14.79336852701191"><ele>477.0</ele><time>2026-04-05T13:40:55Z</time></trkpt><trkpt lat="41.21509918414662" lon="14.793366632260621"><ele>477.0</ele><time>2026-04-05T13:40:56Z</time></trkpt><trkpt lat="41.21489569251939" lon="14.793360789265277"><ele>477.0</ele><time>2026-04-05T13:40:57Z</time></trkpt><trkpt lat="41.214691643536575" lon="14.793358482626248"><ele>477.0</ele><time>2026-04-05T13:40:58Z</time></trkpt><trkpt lat="41.21450091187415" lon="14.793346452047725"><ele>475.66666666666663</ele><time>2026-04-05T13:40:59Z</time></trkpt><trkpt lat="41.21433177009273" lon="14.79330399079165"><ele>474.3333333333333</ele><time>2026-04-05T13:41:00Z</time></trkpt><trkpt lat="41.214185924114034" lon="14.793216634940311"><ele>473.0</ele><time>2026-04-05T13:41:01Z</time></trkpt><trkpt lat="41.214039756844876" lon="14.79313451311623"><ele>471.5</ele><time>2026-04-05T13:41:02Z</time></trkpt><trkpt lat="41.2138920649881" lon="14.793088120635296"><ele>470.0</ele><time>2026-04-05T13:41:03Z</time></trkpt><trkpt lat="41.21374974129546" lon="14.79306216977487"><ele>468.5</ele><time>2026-04-05T13:41:04Z</time></trkpt><trkpt lat="41.21361395203583" lon="14.793042848101793"><ele>467.0</ele><time>2026-04-05T13:41:05Z</time></trkpt><trkpt lat="41.213483535410724" lon="14.793003988719105"><ele>467.0</ele><time>2026-04-05T13:41:06Z</time></trkpt><trkpt lat="41.213363250044246" lon="14.792925899121629"><ele>467.0</ele><time>2026-04-05T13:41:07Z</time></trkpt><trkpt lat="41.21325323721218" lon="14.792798538560927"><ele>467.0</ele><time>2026-04-05T13:41:08Z</time></trkpt><trkpt lat="41.21315598603926" lon="14.792635674830606"><ele>467.0</ele><time>2026-04-05T13:41:09Z</time></trkpt><trkpt lat="41.213078132039186" lon="14.79245014246092"><ele>467.5</ele><time>2026-04-05T13:41:10Z</time></trkpt><trkpt lat="41.21300214186167" lon="14.792289444265219"><ele>468.0</ele><time>2026-04-05T13:41:11Z</time></trkpt><trkpt lat="41.21291501670297" lon="14.792166811736237"><ele>468.5</ele><time>2026-04-05T13:41:12Z</time></trkpt><trkpt lat="41.21280545038359" lon="14.792038163442514"><ele>469.0</ele><time>2026-04-05T13:41:13Z</time></trkpt><trkpt lat="41.21268438923577" lon="14.791919147265338"><ele>468.6666666666667</ele><time>2026-04-05T13:41:14Z</time></trkpt><trkpt lat="41.212560802919725" lon="14.791808254146758"><ele>468.33333333333337</ele><time>2026-04-05T13:41:15Z</time></trkpt><trkpt lat="41.212428876351105" lon="14.791692118203716"><ele>468.0</ele><time>2026-04-05T13:41:16Z</time></trkpt><trkpt lat="41.21229411151865" lon="14.791569238310728"><ele>468.0</ele><time>2026-04-05T13:41:17Z</time></trkpt><trkpt lat="41.212163287558504" lon="14.791432216846843"><ele>468.0</ele><time>2026-04-05T13:41:18Z</time></trkpt><trkpt lat="41.212035343105725" lon="14.791277023381554"><ele>468.0</ele><time>2026-04-05T13:41:19Z</time></trkpt><trkpt lat="41.211909661382876" lon="14.791112732107818"><ele>468.33333333333337</ele><time>2026-04-05T13:41:20Z</time></trkpt><trkpt lat="41.21178787375042" lon="14.790951981402156"><ele>468.6666666666667</ele><time>2026-04-05T13:41:21Z</time></trkpt><trkpt lat="41.21167215567948" lon="14.790810696963518"><ele>469.0</ele><time>2026-04-05T13:41:22Z</time></trkpt><trkpt lat="41.21157736287396" lon="14.790692955495832"><ele>469.0</ele><time>2026-04-05T13:41:23Z</time></trkpt><trkpt lat="41.211499330268495" lon="14.790598682477674"><ele>469.0</ele><time>2026-04-05T13:41:24Z</time></trkpt><trkpt lat="41.21144170546125" lon="14.79051803195503"><ele>469.0</ele><time>2026-04-05T13:41:24.999Z</time></trkpt><trkpt lat="41.211370578188685" lon="14.79045018694303"><ele>469.0</ele><time>2026-04-05T13:41:26.999Z</time></trkpt><trkpt lat="41.21146624009825" lon="14.790305960896834"><ele>469.0</ele><time>2026-04-05T13:41:27.999Z</time></trkpt><trkpt lat="41.211524403919746" lon="14.790178951680124"><ele>468.5</ele><time>2026-04-05T13:41:28.999Z</time></trkpt><trkpt lat="41.21157770378331" lon="14.790025954175205"><ele>468.0</ele><time>2026-04-05T13:41:29.999Z</time></trkpt><trkpt lat="41.211650604489485" lon="14.789883222294382"><ele>467.5</ele><time>2026-04-05T13:41:30.999Z</time></trkpt><trkpt lat="41.211711443012014" lon="14.789724858340515"><ele>467.0</ele><time>2026-04-05T13:41:31.999Z</time></trkpt><trkpt lat="41.21177208649158" lon="14.789570509067847"><ele>467.0</ele><time>2026-04-05T13:41:32.999Z</time></trkpt><trkpt lat="41.21182292906792" lon="14.789430750011695"><ele>467.0</ele><time>2026-04-05T13:41:33.999Z</time></trkpt><trkpt lat="41.21185913528186" lon="14.789279969016524"><ele>467.0</ele><time>2026-04-05T13:41:34.999Z</time></trkpt><trkpt lat="41.211871082415485" lon="14.789120947182504"><ele>467.0</ele><time>2026-04-05T13:41:35.999Z</time></trkpt><trkpt lat="41.21185956157064" lon="14.788963946421362"><ele>466.0</ele><time>2026-04-05T13:41:36.999Z</time></trkpt><trkpt lat="41.21182762653627" lon="14.788797945950634"><ele>465.0</ele><time>2026-04-05T13:41:37.999Z</time></trkpt><trkpt lat="41.21177853941105" lon="14.78861573929845"><ele>464.0</ele><time>2026-04-05T13:41:38.999Z</time></trkpt><trkpt lat="41.21172944960849" lon="14.788451542058704"><ele>463.0</ele><time>2026-04-05T13:41:39.999Z</time></trkpt><trkpt lat="41.21168474340374" lon="14.78829961138822"><ele>461.5</ele><time>2026-04-05T13:41:40.999Z</time></trkpt><trkpt lat="41.211645905706135" lon="14.788148840883553"><ele>460.0</ele><time>2026-04-05T13:41:41.999Z</time></trkpt><trkpt lat="41.21160861723942" lon="14.787991708258767"><ele>458.5</ele><time>2026-04-05T13:41:42.999Z</time></trkpt><trkpt lat="41.21156418564404" lon="14.787854105071077"><ele>457.0</ele><time>2026-04-05T13:41:43.999Z</time></trkpt><trkpt lat="41.211509811053354" lon="14.787741868927194"><ele>456.50000000000006</ele><time>2026-04-05T13:41:44.999Z</time></trkpt><trkpt lat="41.21144231076474" lon="14.787660742234456"><ele>456.0</ele><time>2026-04-05T13:41:45.999Z</time></trkpt><trkpt lat="41.21136542032155" lon="14.787598648973107"><ele>455.5</ele><time>2026-04-05T13:41:46.999Z</time></trkpt><trkpt lat="41.21132557568119" lon="14.78751375788927"><ele>455.0</ele><time>2026-04-05T13:41:48.999Z</time></trkpt><trkpt lat="41.21132444498022" lon="14.787363049647862"><ele>454.50000000000006</ele><time>2026-04-05T13:41:51.999Z</time></trkpt><trkpt lat="41.21127215762356" lon="14.787294807006848"><ele>454.0</ele><time>2026-04-05T13:41:52.999Z</time></trkpt><trkpt lat="41.21119601679749" lon="14.787229592146296"><ele>454.0</ele><time>2026-04-05T13:41:53.999Z</time></trkpt><trkpt lat="41.211109556316494" lon="14.787173127837296"><ele>454.0</ele><time>2026-04-05T13:41:54.999Z</time></trkpt><trkpt lat="41.2110105777009" lon="14.787134698427979"><ele>454.0</ele><time>2026-04-05T13:41:55.999Z</time></trkpt><trkpt lat="41.21090269089741" lon="14.787095075256367"><ele>454.0</ele><time>2026-04-05T13:41:56.999Z</time></trkpt><trkpt lat="41.21079263860251" lon="14.787067027142928"><ele>454.0</ele><time>2026-04-05T13:41:57.999Z</time></trkpt><trkpt lat="41.210672048592535" lon="14.787031252165303"><ele>454.25</ele><time>2026-04-05T13:41:58.999Z</time></trkpt><trkpt lat="41.21055393245143" lon="14.786992529251675"><ele>454.5</ele><time>2026-04-05T13:41:59.999Z</time></trkpt><trkpt lat="41.21044071250695" lon="14.786956741185133"><ele>454.75</ele><time>2026-04-05T13:42:00.999Z</time></trkpt><trkpt lat="41.210326076926805" lon="14.786914641578269"><ele>455.0</ele><time>2026-04-05T13:42:01.999Z</time></trkpt><trkpt lat="41.210207988193524" lon="14.786869090793273"><ele>453.75</ele><time>2026-04-05T13:42:02.999Z</time></trkpt><trkpt lat="41.210088122601924" lon="14.786810162608676"><ele>452.5</ele><time>2026-04-05T13:42:03.999Z</time></trkpt><trkpt lat="41.20996327211646" lon="14.786745332842818"><ele>451.25</ele><time>2026-04-05T13:42:05Z</time></trkpt><trkpt lat="41.20982653047706" lon="14.786676241653987"><ele>450.0</ele><time>2026-04-05T13:42:06Z</time></trkpt><trkpt lat="41.209685432608765" lon="14.786609283354611"><ele>450.0</ele><time>2026-04-05T13:42:07Z</time></trkpt><trkpt lat="41.20954030826674" lon="14.78655073398264"><ele>450.0</ele><time>2026-04-05T13:42:08Z</time></trkpt><trkpt lat="41.20941015379428" lon="14.78648687539645"><ele>450.0</ele><time>2026-04-05T13:42:09Z</time></trkpt><trkpt lat="41.209267808072916" lon="14.786415701502564"><ele>450.0</ele><time>2026-04-05T13:42:10Z</time></trkpt><trkpt lat="41.20911969697963" lon="14.786339651996329"><ele>451.0</ele><time>2026-04-05T13:42:11Z</time></trkpt><trkpt lat="41.20896850773575" lon="14.786255481318996"><ele>452.0</ele><time>2026-04-05T13:42:12Z</time></trkpt><trkpt lat="41.208793204804365" lon="14.786160629839385"><ele>453.0</ele><time>2026-04-05T13:42:13Z</time></trkpt><trkpt lat="41.20861847286501" lon="14.78601811255871"><ele>453.33333333333337</ele><time>2026-04-05T13:42:14Z</time></trkpt><trkpt lat="41.208437513375905" lon="14.785849317949989"><ele>453.6666666666667</ele><time>2026-04-05T13:42:15Z</time></trkpt><trkpt lat="41.20825412693935" lon="14.78568752149515"><ele>454.0</ele><time>2026-04-05T13:42:16Z</time></trkpt><trkpt lat="41.208087191836576" lon="14.785542328273253"><ele>454.0</ele><time>2026-04-05T13:42:17Z</time></trkpt><trkpt lat="41.207941931816336" lon="14.785413452695005"><ele>454.0</ele><time>2026-04-05T13:42:18Z</time></trkpt><trkpt lat="41.20780223261487" lon="14.785276957656965"><ele>454.0</ele><time>2026-04-05T13:42:19Z</time></trkpt><trkpt lat="41.207658145701075" lon="14.785133855721769"><ele>454.0</ele><time>2026-04-05T13:42:20Z</time></trkpt><trkpt lat="41.20751742134726" lon="14.784997049827536"><ele>454.0</ele><time>2026-04-05T13:42:21Z</time></trkpt><trkpt lat="41.20738316092769" lon="14.78485674922269"><ele>454.0</ele><time>2026-04-05T13:42:22Z</time></trkpt><trkpt lat="41.207255589375286" lon="14.784730335689883"><ele>454.0</ele><time>2026-04-05T13:42:23Z</time></trkpt><trkpt lat="41.20714605679536" lon="14.78462295938522"><ele>454.0</ele><time>2026-04-05T13:42:24Z</time></trkpt><trkpt lat="41.20705657387955" lon="14.784504240191445"><ele>454.0</ele><time>2026-04-05T13:42:25Z</time></trkpt><trkpt lat="41.206996540856416" lon="14.784342498883035"><ele>454.0</ele><time>2026-04-05T13:42:26Z</time></trkpt><trkpt lat="41.20693677896488" lon="14.784146228734336"><ele>453.33333333333337</ele><time>2026-04-05T13:42:27Z</time></trkpt><trkpt lat="41.20687744034747" lon="14.783900145463118"><ele>452.66666666666663</ele><time>2026-04-05T13:42:28Z</time></trkpt><trkpt lat="41.206828334551766" lon="14.783645425356884"><ele>452.0</ele><time>2026-04-05T13:42:29Z</time></trkpt><trkpt lat="41.2067830994529" lon="14.78340307671785"><ele>452.0</ele><time>2026-04-05T13:42:30Z</time></trkpt><trkpt lat="41.206732054333536" lon="14.783182215544521"><ele>452.0</ele><time>2026-04-05T13:42:31Z</time></trkpt><trkpt lat="41.206699165492616" lon="14.782961942050893"><ele>452.0</ele><time>2026-04-05T13:42:32Z</time></trkpt><trkpt lat="41.20666564973214" lon="14.782733103246818"><ele>451.66666666666663</ele><time>2026-04-05T13:42:33Z</time></trkpt><trkpt lat="41.2066322906447" lon="14.782501112888626"><ele>451.33333333333337</ele><time>2026-04-05T13:42:34Z</time></trkpt><trkpt lat="41.206600433425855" lon="14.782254516788283"><ele>451.0</ele><time>2026-04-05T13:42:35Z</time></trkpt><trkpt lat="41.20657610246271" lon="14.782005001670521"><ele>451.0</ele><time>2026-04-05T13:42:36Z</time></trkpt><trkpt lat="41.20656406327797" lon="14.781763082993422"><ele>451.0</ele><time>2026-04-05T13:42:37Z</time></trkpt><trkpt lat="41.206588881476556" lon="14.78157040815075"><ele>451.0</ele><time>2026-04-05T13:42:38Z</time></trkpt><trkpt lat="41.2065935668737" lon="14.781390126397211"><ele>451.0</ele><time>2026-04-05T13:42:39Z</time></trkpt><trkpt lat="41.206610018595605" lon="14.78120465496012"><ele>451.0</ele><time>2026-04-05T13:42:40Z</time></trkpt><trkpt lat="41.206625611881385" lon="14.781015204528144"><ele>451.0</ele><time>2026-04-05T13:42:41Z</time></trkpt><trkpt lat="41.20663804606279" lon="14.780823884015325"><ele>451.0</ele><time>2026-04-05T13:42:42Z</time></trkpt><trkpt lat="41.20663413420688" lon="14.780629181062922"><ele>451.4</ele><time>2026-04-05T13:42:43Z</time></trkpt><trkpt lat="41.20661022241799" lon="14.780421699550999"><ele>451.8</ele><time>2026-04-05T13:42:44Z</time></trkpt><trkpt lat="41.20658515875996" lon="14.780261226686301"><ele>452.19999999999993</ele><time>2026-04-05T13:42:45Z</time></trkpt><trkpt lat="41.20657972357284" lon="14.780138904047858"><ele>452.59999999999997</ele><time>2026-04-05T13:42:46Z</time></trkpt><trkpt lat="41.20657449153356" lon="14.78004381808904"><ele>453.0</ele><time>2026-04-05T13:42:47Z</time></trkpt><trkpt lat="41.20656111521769" lon="14.779915367649306"><ele>453.0</ele><time>2026-04-05T13:42:49Z</time></trkpt><trkpt lat="41.206542067686435" lon="14.779790009790533"><ele>453.0</ele><time>2026-04-05T13:42:50Z</time></trkpt><trkpt lat="41.20652279569157" lon="14.779596192761975"><ele>453.0</ele><time>2026-04-05T13:42:51Z</time></trkpt><trkpt lat="41.20650115388806" lon="14.779415109795357"><ele>453.0</ele><time>2026-04-05T13:42:52Z</time></trkpt><trkpt lat="41.20648394477244" lon="14.779245244255915"><ele>453.0</ele><time>2026-04-05T13:42:53Z</time></trkpt><trkpt lat="41.20647114723563" lon="14.779069591700964"><ele>453.0</ele><time>2026-04-05T13:42:54Z</time></trkpt><trkpt lat="41.206456399485646" lon="14.778887150758111"><ele>453.0</ele><time>2026-04-05T13:42:55Z</time></trkpt><trkpt lat="41.20643998460007" lon="14.778688981631289"><ele>453.0</ele><time>2026-04-05T13:42:56Z</time></trkpt><trkpt lat="41.206421160475095" lon="14.778482128444061"><ele>453.0</ele><time>2026-04-05T13:42:57Z</time></trkpt><trkpt lat="41.206399479742544" lon="14.778266794499366"><ele>453.0</ele><time>2026-04-05T13:42:58Z</time></trkpt><trkpt lat="41.20637646595927" lon="14.77804787015272"><ele>453.0</ele><time>2026-04-05T13:42:59Z</time></trkpt><trkpt lat="41.20635668477064" lon="14.777827865296496"><ele>453.0</ele><time>2026-04-05T13:43:00Z</time></trkpt><trkpt lat="41.20633682207816" lon="14.777609762791652"><ele>453.0</ele><time>2026-04-05T13:43:01Z</time></trkpt><trkpt lat="41.206320993213254" lon="14.777384208510428"><ele>453.0</ele><time>2026-04-05T13:43:02Z</time></trkpt><trkpt lat="41.206302687731885" lon="14.777158607841628"><ele>453.0</ele><time>2026-04-05T13:43:03Z</time></trkpt><trkpt lat="41.20627499189063" lon="14.776936105699528"><ele>453.0</ele><time>2026-04-05T13:43:04Z</time></trkpt><trkpt lat="41.206237693116094" lon="14.776705544848143"><ele>453.0</ele><time>2026-04-05T13:43:05Z</time></trkpt><trkpt lat="41.206199356546826" lon="14.77648050801212"><ele>453.33333333333337</ele><time>2026-04-05T13:43:06Z</time></trkpt><trkpt lat="41.20616723161917" lon="14.776259932165239"><ele>453.6666666666667</ele><time>2026-04-05T13:43:07Z</time></trkpt><trkpt lat="41.20613449450274" lon="14.776037375400403"><ele>454.0</ele><time>2026-04-05T13:43:08Z</time></trkpt><trkpt lat="41.206102994404965" lon="14.775808765627685"><ele>454.6666666666667</ele><time>2026-04-05T13:43:09Z</time></trkpt><trkpt lat="41.206070505333244" lon="14.775587732770944"><ele>455.33333333333337</ele><time>2026-04-05T13:43:10Z</time></trkpt><trkpt lat="41.20603938371582" lon="14.77536650670972"><ele>456.0</ele><time>2026-04-05T13:43:11Z</time></trkpt><trkpt lat="41.20600987762658" lon="14.775152381055001"><ele>456.6</ele><time>2026-04-05T13:43:12Z</time></trkpt><trkpt lat="41.20599050043862" lon="14.774980075002867"><ele>457.20000000000005</ele><time>2026-04-05T13:43:13Z</time></trkpt><trkpt lat="41.2059735200987" lon="14.774839922621144"><ele>457.79999999999995</ele><time>2026-04-05T13:43:14Z</time></trkpt><trkpt lat="41.20595716823154" lon="14.774714823841078"><ele>458.4</ele><time>2026-04-05T13:43:15Z</time></trkpt><trkpt lat="41.2059408449499" lon="14.774612680957047"><ele>459.0</ele><time>2026-04-05T13:43:15.999Z</time></trkpt><trkpt lat="41.20592356321625" lon="14.774519238855229"><ele>459.0</ele><time>2026-04-05T13:43:17.999Z</time></trkpt><trkpt lat="41.2058960935929" lon="14.77440679548897"><ele>459.0</ele><time>2026-04-05T13:43:19.999Z</time></trkpt><trkpt lat="41.205874907794396" lon="14.7742763549115"><ele>459.0</ele><time>2026-04-05T13:43:20.999Z</time></trkpt><trkpt lat="41.20585378091354" lon="14.774137200393895"><ele>459.0</ele><time>2026-04-05T13:43:21.999Z</time></trkpt><trkpt lat="41.20582970951437" lon="14.773994564064225"><ele>459.0</ele><time>2026-04-05T13:43:22.999Z</time></trkpt><trkpt lat="41.205814843191675" lon="14.773836369868622"><ele>459.75</ele><time>2026-04-05T13:43:23.999Z</time></trkpt><trkpt lat="41.20580253115506" lon="14.773663728523564"><ele>460.5</ele><time>2026-04-05T13:43:24.999Z</time></trkpt><trkpt lat="41.20578348107633" lon="14.773469215836831"><ele>461.25</ele><time>2026-04-05T13:43:25.999Z</time></trkpt><trkpt lat="41.20576812339309" lon="14.773272647666559"><ele>462.0</ele><time>2026-04-05T13:43:26.999Z</time></trkpt><trkpt lat="41.2057541128692" lon="14.773050392721562"><ele>463.0</ele><time>2026-04-05T13:43:27.999Z</time></trkpt><trkpt lat="41.20574299747792" lon="14.772808820337064"><ele>464.0</ele><time>2026-04-05T13:43:28.999Z</time></trkpt><trkpt lat="41.205740234433776" lon="14.772609088275034"><ele>465.0</ele><time>2026-04-05T13:43:29.999Z</time></trkpt><trkpt lat="41.20574169696212" lon="14.772428650674396"><ele>465.0</ele><time>2026-04-05T13:43:30.999Z</time></trkpt><trkpt lat="41.20573747078648" lon="14.772271975887712"><ele>465.0</ele><time>2026-04-05T13:43:31.999Z</time></trkpt><trkpt lat="41.20573070414182" lon="14.772095998581815"><ele>465.0</ele><time>2026-04-05T13:43:32.999Z</time></trkpt><trkpt lat="41.205718202897394" lon="14.771919357142767"><ele>465.0</ele><time>2026-04-05T13:43:33.999Z</time></trkpt><trkpt lat="41.2057064563886" lon="14.771744903292701"><ele>465.25</ele><time>2026-04-05T13:43:34.999Z</time></trkpt><trkpt lat="41.20568823603869" lon="14.771559891043246"><ele>465.5</ele><time>2026-04-05T13:43:35.999Z</time></trkpt><trkpt lat="41.20565110006141" lon="14.771353890968605"><ele>465.75</ele><time>2026-04-05T13:43:36.999Z</time></trkpt><trkpt lat="41.205611651259915" lon="14.771167486157823"><ele>466.0</ele><time>2026-04-05T13:43:37.999Z</time></trkpt><trkpt lat="41.20559376842086" lon="14.770958741236967"><ele>466.0</ele><time>2026-04-05T13:43:38.999Z</time></trkpt><trkpt lat="41.205577150529656" lon="14.770761649571913"><ele>466.0</ele><time>2026-04-05T13:43:39.999Z</time></trkpt><trkpt lat="41.20555781955729" lon="14.77055732312709"><ele>466.0</ele><time>2026-04-05T13:43:40.999Z</time></trkpt><trkpt lat="41.20553621152225" lon="14.770360745023249"><ele>466.0</ele><time>2026-04-05T13:43:41.999Z</time></trkpt><trkpt lat="41.205520084751065" lon="14.770174158687956"><ele>466.0</ele><time>2026-04-05T13:43:42.999Z</time></trkpt><trkpt lat="41.20550773645046" lon="14.769982901058903"><ele>466.0</ele><time>2026-04-05T13:43:43.999Z</time></trkpt><trkpt lat="41.20549930698113" lon="14.7697774686511"><ele>466.0</ele><time>2026-04-05T13:43:44.999Z</time></trkpt><trkpt lat="41.20548106996196" lon="14.769557967185978"><ele>466.33333333333337</ele><time>2026-04-05T13:43:45.999Z</time></trkpt><trkpt lat="41.20548025997805" lon="14.76932339176598"><ele>466.66666666666663</ele><time>2026-04-05T13:43:46.999Z</time></trkpt><trkpt lat="41.205478237268125" lon="14.769109699357976"><ele>467.0</ele><time>2026-04-05T13:43:47.999Z</time></trkpt><trkpt lat="41.205469781751106" lon="14.76889546809547"><ele>467.0</ele><time>2026-04-05T13:43:48.999Z</time></trkpt><trkpt lat="41.20546240650938" lon="14.768680839578392"><ele>467.0</ele><time>2026-04-05T13:43:49.999Z</time></trkpt><trkpt lat="41.205462044681376" lon="14.768493760741956"><ele>467.0</ele><time>2026-04-05T13:43:50.999Z</time></trkpt><trkpt lat="41.20548487965341" lon="14.768331434407456"><ele>467.0</ele><time>2026-04-05T13:43:51.999Z</time></trkpt><trkpt lat="41.205514816676825" lon="14.768178685571979"><ele>467.25</ele><time>2026-04-05T13:43:52.999Z</time></trkpt><trkpt lat="41.20552607446264" lon="14.7680143952865"><ele>467.5</ele><time>2026-04-05T13:43:53.999Z</time></trkpt><trkpt lat="41.20550441431322" lon="14.76786006688918"><ele>467.75</ele><time>2026-04-05T13:43:54.999Z</time></trkpt><trkpt lat="41.20546894855025" lon="14.767747487262596"><ele>468.0</ele><time>2026-04-05T13:43:55.999Z</time></trkpt><trkpt lat="41.20537891592358" lon="14.767617765135517"><ele>468.0</ele><time>2026-04-05T13:43:57.999Z</time></trkpt><trkpt lat="41.20528650445938" lon="14.767556632807306"><ele>468.0</ele><time>2026-04-05T13:43:58.999Z</time></trkpt><trkpt lat="41.20518854101418" lon="14.767459377811196"><ele>468.0</ele><time>2026-04-05T13:43:59.999Z</time></trkpt><trkpt lat="41.205093226982065" lon="14.767324363346654"><ele>468.0</ele><time>2026-04-05T13:44:00.999Z</time></trkpt><trkpt lat="41.20500034573109" lon="14.767200802004684"><ele>468.0</ele><time>2026-04-05T13:44:01.999Z</time></trkpt><trkpt lat="41.20489348036698" lon="14.767098217856585"><ele>468.0</ele><time>2026-04-05T13:44:02.999Z</time></trkpt><trkpt lat="41.204772432873085" lon="14.76700528941111"><ele>468.0</ele><time>2026-04-05T13:44:03.999Z</time></trkpt><trkpt lat="41.204627685464544" lon="14.766943272517361"><ele>468.0</ele><time>2026-04-05T13:44:04.999Z</time></trkpt><trkpt lat="41.20447508368869" lon="14.766895938617452"><ele>467.75</ele><time>2026-04-05T13:44:05.999Z</time></trkpt><trkpt lat="41.20432720598033" lon="14.7668579173741"><ele>467.5</ele><time>2026-04-05T13:44:06.999Z</time></trkpt><trkpt lat="41.20420009993761" lon="14.766815166807163"><ele>467.25</ele><time>2026-04-05T13:44:07.999Z</time></trkpt><trkpt lat="41.20409275372439" lon="14.766754314276568"><ele>467.0</ele><time>2026-04-05T13:44:08.999Z</time></trkpt><trkpt lat="41.2039937193553" lon="14.76665491003082"><ele>467.0</ele><time>2026-04-05T13:44:09.999Z</time></trkpt><trkpt lat="41.2039051540256" lon="14.76654273081001"><ele>467.00000000000006</ele><time>2026-04-05T13:44:11Z</time></trkpt><trkpt lat="41.20382767080623" lon="14.766477378421307"><ele>467.00000000000006</ele><time>2026-04-05T13:44:12Z</time></trkpt><trkpt lat="41.203744171523134" lon="14.7664602053345"><ele>467.0</ele><time>2026-04-05T13:44:13Z</time></trkpt><trkpt lat="41.20364795017705" lon="14.766482614399651"><ele>467.0</ele><time>2026-04-05T13:44:14Z</time></trkpt><trkpt lat="41.20355248376693" lon="14.766512562021804"><ele>467.0</ele><time>2026-04-05T13:44:15Z</time></trkpt><trkpt lat="41.20344945802201" lon="14.766505083428958"><ele>467.0</ele><time>2026-04-05T13:44:16Z</time></trkpt><trkpt lat="41.20333324783351" lon="14.766447201950232"><ele>467.0</ele><time>2026-04-05T13:44:17Z</time></trkpt><trkpt lat="41.20322233445196" lon="14.766342084633456"><ele>467.0</ele><time>2026-04-05T13:44:18Z</time></trkpt><trkpt lat="41.20310876684003" lon="14.766257451184028"><ele>465.75</ele><time>2026-04-05T13:44:19Z</time></trkpt><trkpt lat="41.20297684811625" lon="14.766216382789676"><ele>464.5</ele><time>2026-04-05T13:44:20Z</time></trkpt><trkpt lat="41.20283194336613" lon="14.76620091989471"><ele>463.25</ele><time>2026-04-05T13:44:21Z</time></trkpt><trkpt lat="41.20269651392022" lon="14.76618966716309"><ele>462.0</ele><time>2026-04-05T13:44:22Z</time></trkpt><trkpt lat="41.20256991192603" lon="14.766174506902779"><ele>462.0</ele><time>2026-04-05T13:44:23Z</time></trkpt><trkpt lat="41.20245111529866" lon="14.76615534618218"><ele>462.0</ele><time>2026-04-05T13:44:24Z</time></trkpt><trkpt lat="41.20233319492616" lon="14.766134392283227"><ele>462.0</ele><time>2026-04-05T13:44:25Z</time></trkpt><trkpt lat="41.202216502047214" lon="14.766117144770849"><ele>462.0</ele><time>2026-04-05T13:44:26Z</time></trkpt><trkpt lat="41.20210409607095" lon="14.766112300643298"><ele>460.20000000000005</ele><time>2026-04-05T13:44:27Z</time></trkpt><trkpt lat="41.20198992036659" lon="14.766082254512902"><ele>458.40000000000003</ele><time>2026-04-05T13:44:28Z</time></trkpt><trkpt lat="41.20189108738168" lon="14.766058250567053"><ele>456.59999999999997</ele><time>2026-04-05T13:44:29Z</time></trkpt><trkpt lat="41.20181186222532" lon="14.766010530286913"><ele>454.79999999999995</ele><time>2026-04-05T13:44:30Z</time></trkpt><trkpt lat="41.20176866901829" lon="14.765913795903664"><ele>453.0</ele><time>2026-04-05T13:44:31Z</time></trkpt><trkpt lat="41.201758232542346" lon="14.765781848674782"><ele>452.0</ele><time>2026-04-05T13:44:32Z</time></trkpt><trkpt lat="41.20176989162126" lon="14.765624656226173"><ele>451.0</ele><time>2026-04-05T13:44:33Z</time></trkpt><trkpt lat="41.20180213126531" lon="14.765464207914885"><ele>450.0</ele><time>2026-04-05T13:44:34Z</time></trkpt><trkpt lat="41.20185582269271" lon="14.765316832054504"><ele>449.0</ele><time>2026-04-05T13:44:35Z</time></trkpt><trkpt lat="41.20194647110372" lon="14.76521371360076"><ele>448.2</ele><time>2026-04-05T13:44:36Z</time></trkpt><trkpt lat="41.20201525763479" lon="14.76510387644077"><ele>447.4</ele><time>2026-04-05T13:44:37Z</time></trkpt><trkpt lat="41.2020768984334" lon="14.765027523432128"><ele>446.6</ele><time>2026-04-05T13:44:38Z</time></trkpt><trkpt lat="41.20209785775467" lon="14.764907380068491"><ele>445.8</ele><time>2026-04-05T13:44:39Z</time></trkpt><trkpt lat="41.2021094206507" lon="14.7647226717754"><ele>445.0</ele><time>2026-04-05T13:44:40Z</time></trkpt><trkpt lat="41.20211909839165" lon="14.764497935142805"><ele>443.6666666666667</ele><time>2026-04-05T13:44:41Z</time></trkpt><trkpt lat="41.202141860166236" lon="14.76427836481583"><ele>442.33333333333337</ele><time>2026-04-05T13:44:42Z</time></trkpt><trkpt lat="41.20216299934912" lon="14.76405848018186"><ele>441.0</ele><time>2026-04-05T13:44:43Z</time></trkpt><trkpt lat="41.202189749815986" lon="14.763853409830674"><ele>441.0</ele><time>2026-04-05T13:44:44Z</time></trkpt><trkpt lat="41.202209578924055" lon="14.76366418559626"><ele>441.0</ele><time>2026-04-05T13:44:45Z</time></trkpt><trkpt lat="41.202232723782615" lon="14.763490034384875"><ele>441.0</ele><time>2026-04-05T13:44:46Z</time></trkpt><trkpt lat="41.20225788256038" lon="14.763343250282544"><ele>441.0</ele><time>2026-04-05T13:44:47Z</time></trkpt><trkpt lat="41.20227892893521" lon="14.763223389469545"><ele>440.4</ele><time>2026-04-05T13:44:48Z</time></trkpt><trkpt lat="41.20229642507953" lon="14.763106717805801"><ele>439.8</ele><time>2026-04-05T13:44:49Z</time></trkpt><trkpt lat="41.20230073252789" lon="14.763019204168684"><ele>439.19999999999993</ele><time>2026-04-05T13:44:50Z</time></trkpt><trkpt lat="41.20214572515491" lon="14.762913480161995"><ele>438.59999999999997</ele><time>2026-04-05T13:44:53Z</time></trkpt><trkpt lat="41.202055459267044" lon="14.762911001599289"><ele>438.0</ele><time>2026-04-05T13:44:54Z</time></trkpt><trkpt lat="41.20196256450825" lon="14.762915915556617"><ele>438.0</ele><time>2026-04-05T13:44:55Z</time></trkpt><trkpt lat="41.201873298383674" lon="14.76292201930489"><ele>437.99999999999994</ele><time>2026-04-05T13:44:56Z</time></trkpt><trkpt lat="41.20177927323562" lon="14.762957655111876"><ele>437.99999999999994</ele><time>2026-04-05T13:44:57Z</time></trkpt><trkpt lat="41.20167795652082" lon="14.762983828644737"><ele>438.0</ele><time>2026-04-05T13:44:58Z</time></trkpt><trkpt lat="41.20157406492405" lon="14.763063114687716"><ele>438.0</ele><time>2026-04-05T13:44:59Z</time></trkpt><trkpt lat="41.201470098451125" lon="14.76315590121504"><ele>436.75</ele><time>2026-04-05T13:45:00Z</time></trkpt><trkpt lat="41.20136187094693" lon="14.763249674211314"><ele>435.5</ele><time>2026-04-05T13:45:01Z</time></trkpt><trkpt lat="41.20126787481346" lon="14.763358461820388"><ele>434.25</ele><time>2026-04-05T13:45:02Z</time></trkpt><trkpt lat="41.20115776368353" lon="14.763442753497689"><ele>433.0</ele><time>2026-04-05T13:45:03Z</time></trkpt><trkpt lat="41.201057861236784" lon="14.763532139695611"><ele>433.0</ele><time>2026-04-05T13:45:04Z</time></trkpt><trkpt lat="41.200940232094254" lon="14.763580049700748"><ele>433.0</ele><time>2026-04-05T13:45:05Z</time></trkpt><trkpt lat="41.20081679729075" lon="14.763622799211532"><ele>433.0</ele><time>2026-04-05T13:45:06Z</time></trkpt><trkpt lat="41.2006799881086" lon="14.763683455720972"><ele>433.0</ele><time>2026-04-05T13:45:07Z</time></trkpt><trkpt lat="41.200526097689725" lon="14.763721717874786"><ele>429.0</ele><time>2026-04-05T13:45:08Z</time></trkpt><trkpt lat="41.20036504421696" lon="14.763756374355442"><ele>425.0</ele><time>2026-04-05T13:45:09Z</time></trkpt><trkpt lat="41.20020491786367" lon="14.763781467592818"><ele>421.0</ele><time>2026-04-05T13:45:10Z</time></trkpt><trkpt lat="41.20006734908" lon="14.76379893652374"><ele>421.0</ele><time>2026-04-05T13:45:11Z</time></trkpt><trkpt lat="41.19995108992723" lon="14.763814528617495"><ele>421.0</ele><time>2026-04-05T13:45:12Z</time></trkpt><trkpt lat="41.19985302250262" lon="14.763825211764408"><ele>421.0</ele><time>2026-04-05T13:45:13Z</time></trkpt><trkpt lat="41.199776260820975" lon="14.763831578413482"><ele>421.0</ele><time>2026-04-05T13:45:14Z</time></trkpt><trkpt lat="41.19968889690686" lon="14.763858684967063"><ele>421.0</ele><time>2026-04-05T13:45:16Z</time></trkpt><trkpt lat="41.199629002906384" lon="14.763289357155552"><ele>421.6</ele><time>2026-04-05T13:45:43.999Z</time></trkpt><trkpt lat="41.19963759923588" lon="14.763170099619012"><ele>422.20000000000005</ele><time>2026-04-05T13:45:44.999Z</time></trkpt><trkpt lat="41.199643274720025" lon="14.763049243621424"><ele>422.79999999999995</ele><time>2026-04-05T13:45:45.999Z</time></trkpt><trkpt lat="41.19964819936505" lon="14.762930101978478"><ele>423.4</ele><time>2026-04-05T13:45:46.999Z</time></trkpt><trkpt lat="41.19965373635904" lon="14.762814853154213"><ele>424.0</ele><time>2026-04-05T13:45:47.999Z</time></trkpt><trkpt lat="41.19967321244318" lon="14.762660800910771"><ele>424.0</ele><time>2026-04-05T13:45:48.999Z</time></trkpt><trkpt lat="41.19970631758205" lon="14.762481488737004"><ele>424.0</ele><time>2026-04-05T13:45:49.999Z</time></trkpt><trkpt lat="41.199729316444945" lon="14.762339154619205"><ele>424.0</ele><time>2026-04-05T13:45:50.999Z</time></trkpt><trkpt lat="41.199755411833394" lon="14.762073785821945"><ele>424.0</ele><time>2026-04-05T13:45:52.999Z</time></trkpt><trkpt lat="41.19975801536726" lon="14.761957335139506"><ele>424.0</ele><time>2026-04-05T13:45:53.999Z</time></trkpt><trkpt lat="41.19978415636733" lon="14.761779749589651"><ele>424.0</ele><time>2026-04-05T13:45:55.999Z</time></trkpt><trkpt lat="41.19977857978739" lon="14.761644862613"><ele>424.0</ele><time>2026-04-05T13:45:57.999Z</time></trkpt><trkpt lat="41.19975194593156" lon="14.761535362476446"><ele>424.0</ele><time>2026-04-05T13:45:58.999Z</time></trkpt><trkpt lat="41.19970494293905" lon="14.761418879326927"><ele>425.0</ele><time>2026-04-05T13:45:59.999Z</time></trkpt><trkpt lat="41.19963642375246" lon="14.76128945179352"><ele>426.0</ele><time>2026-04-05T13:46:00.999Z</time></trkpt><trkpt lat="41.199599405867296" lon="14.761194178044791"><ele>427.0</ele><time>2026-04-05T13:46:01.999Z</time></trkpt><trkpt lat="41.199640087802706" lon="14.761061669235623"><ele>428.0</ele><time>2026-04-05T13:46:03.999Z</time></trkpt><trkpt lat="41.19970482152795" lon="14.761020277108146"><ele>429.0</ele><time>2026-04-05T13:46:05.999Z</time></trkpt><trkpt lat="41.19964945468577" lon="14.760961727847253"><ele>429.0</ele><time>2026-04-05T13:46:08.999Z</time></trkpt><trkpt lat="41.19961745159855" lon="14.76108491116626"><ele>429.0</ele><time>2026-04-05T13:46:10.999Z</time></trkpt><trkpt lat="41.19960398463115" lon="14.761170675534524"><ele>429.0</ele><time>2026-04-05T13:46:11.999Z</time></trkpt><trkpt lat="41.19960378170176" lon="14.761261532500898"><ele>429.0</ele><time>2026-04-05T13:46:12.999Z</time></trkpt><trkpt lat="41.1996271044762" lon="14.761351570039642"><ele>429.0</ele><time>2026-04-05T13:46:13.999Z</time></trkpt><trkpt lat="41.19966835796885" lon="14.761439630708072"><ele>429.0</ele><time>2026-04-05T13:46:14.999Z</time></trkpt><trkpt lat="41.19971273386846" lon="14.761520369714546"><ele>429.0</ele><time>2026-04-05T13:46:15.999Z</time></trkpt><trkpt lat="41.19975620012709" lon="14.761610703443568"><ele>429.0</ele><time>2026-04-05T13:46:16.999Z</time></trkpt><trkpt lat="41.19977971757927" lon="14.761724162760336"><ele>429.0</ele><time>2026-04-05T13:46:17.999Z</time></trkpt><trkpt lat="41.19977728138212" lon="14.761851828636923"><ele>429.0</ele><time>2026-04-05T13:46:18.999Z</time></trkpt><trkpt lat="41.19976041085314" lon="14.761978740401402"><ele>429.0</ele><time>2026-04-05T13:46:19.999Z</time></trkpt><trkpt lat="41.19974923265267" lon="14.762104393739827"><ele>428.0</ele><time>2026-04-05T13:46:20.999Z</time></trkpt><trkpt lat="41.19974273287263" lon="14.76224193018119"><ele>427.0</ele><time>2026-04-05T13:46:21.999Z</time></trkpt><trkpt lat="41.199725194457784" lon="14.762355161735812"><ele>426.0</ele><time>2026-04-05T13:46:22.999Z</time></trkpt><trkpt lat="41.199711994556836" lon="14.76248827630871"><ele>425.0</ele><time>2026-04-05T13:46:23.999Z</time></trkpt><trkpt lat="41.199688266441264" lon="14.762611528878644"><ele>424.0</ele><time>2026-04-05T13:46:24.999Z</time></trkpt><trkpt lat="41.19966828191234" lon="14.762750116773045"><ele>421.75</ele><time>2026-04-05T13:46:26Z</time></trkpt><trkpt lat="41.19964950395301" lon="14.762918709651855"><ele>419.5</ele><time>2026-04-05T13:46:27Z</time></trkpt><trkpt lat="41.19964262831202" lon="14.763076683561389"><ele>417.25</ele><time>2026-04-05T13:46:28Z</time></trkpt><trkpt lat="41.19963546051138" lon="14.763236046610999"><ele>415.0</ele><time>2026-04-05T13:46:29Z</time></trkpt><trkpt lat="41.199630122984594" lon="14.763384629719091"><ele>415.0</ele><time>2026-04-05T13:46:30Z</time></trkpt><trkpt lat="41.19963178291901" lon="14.763522948481086"><ele>415.0</ele><time>2026-04-05T13:46:31Z</time></trkpt><trkpt lat="41.19964963509595" lon="14.763646113062247"><ele>415.0</ele><time>2026-04-05T13:46:32Z</time></trkpt><trkpt lat="41.19965964555778" lon="14.763747481105383"><ele>415.0</ele><time>2026-04-05T13:46:33Z</time></trkpt><trkpt lat="41.19962831055771" lon="14.763853674062782"><ele>415.0</ele><time>2026-04-05T13:46:35Z</time></trkpt><trkpt lat="41.19952357485218" lon="14.763919269959407"><ele>414.25</ele><time>2026-04-05T13:46:37Z</time></trkpt><trkpt lat="41.1994501392736" lon="14.763946854649028"><ele>413.5</ele><time>2026-04-05T13:46:38Z</time></trkpt><trkpt lat="41.19937565535011" lon="14.763973512343354"><ele>412.75</ele><time>2026-04-05T13:46:40Z</time></trkpt><trkpt lat="41.1992549182524" lon="14.763795979873741"><ele>412.0</ele><time>2026-04-05T13:46:41Z</time></trkpt><trkpt lat="41.19915564952717" lon="14.763674007496363"><ele>412.0</ele><time>2026-04-05T13:46:42Z</time></trkpt><trkpt lat="41.1990418757663" lon="14.763544247209191"><ele>412.0</ele><time>2026-04-05T13:46:43Z</time></trkpt><trkpt lat="41.19890728551366" lon="14.763391337970864"><ele>412.0</ele><time>2026-04-05T13:46:44Z</time></trkpt><trkpt lat="41.19879418839046" lon="14.763249337174516"><ele>409.75</ele><time>2026-04-05T13:46:45Z</time></trkpt><trkpt lat="41.198696787005204" lon="14.763116211860122"><ele>407.5</ele><time>2026-04-05T13:46:46Z</time></trkpt><trkpt lat="41.198610644024" lon="14.76299615414092"><ele>405.25</ele><time>2026-04-05T13:46:47Z</time></trkpt><trkpt lat="41.19853581302647" lon="14.762892092493837"><ele>403.0</ele><time>2026-04-05T13:46:48Z</time></trkpt><trkpt lat="41.198464667687226" lon="14.762792540601017"><ele>404.5</ele><time>2026-04-05T13:46:49Z</time></trkpt><trkpt lat="41.19838965048285" lon="14.762681506936964"><ele>406.0</ele><time>2026-04-05T13:46:50Z</time></trkpt><trkpt lat="41.1983070687852" lon="14.76255967325255"><ele>407.5</ele><time>2026-04-05T13:46:51Z</time></trkpt><trkpt lat="41.19824331998664" lon="14.76243173227716"><ele>409.0</ele><time>2026-04-05T13:46:52Z</time></trkpt><trkpt lat="41.19818361120433" lon="14.762271317169043"><ele>405.5</ele><time>2026-04-05T13:46:53Z</time></trkpt><trkpt lat="41.19812316156821" lon="14.762107584435599"><ele>402.0</ele><time>2026-04-05T13:46:54Z</time></trkpt><trkpt lat="41.19806928653598" lon="14.761952099672333"><ele>398.5</ele><time>2026-04-05T13:46:55Z</time></trkpt><trkpt lat="41.19802466844971" lon="14.761790831220573"><ele>395.0</ele><time>2026-04-05T13:46:56Z</time></trkpt><trkpt lat="41.19798972396478" lon="14.76162968165044"><ele>395.0</ele><time>2026-04-05T13:46:57Z</time></trkpt><trkpt lat="41.19793994031078" lon="14.761473249338778"><ele>395.0</ele><time>2026-04-05T13:46:58Z</time></trkpt><trkpt lat="41.1978890138758" lon="14.761326462599156"><ele>395.0</ele><time>2026-04-05T13:46:59Z</time></trkpt><trkpt lat="41.19785033578091" lon="14.761182444326488"><ele>395.0</ele><time>2026-04-05T13:47:00Z</time></trkpt><trkpt lat="41.197810004649135" lon="14.761042442607655"><ele>394.8</ele><time>2026-04-05T13:47:01Z</time></trkpt><trkpt lat="41.19778213324536" lon="14.760906327895638"><ele>394.6</ele><time>2026-04-05T13:47:02Z</time></trkpt><trkpt lat="41.19775813583494" lon="14.760767728522156"><ele>394.4</ele><time>2026-04-05T13:47:03Z</time></trkpt><trkpt lat="41.197736629324396" lon="14.760638546221914"><ele>394.2</ele><time>2026-04-05T13:47:03.999Z</time></trkpt><trkpt lat="41.19772065295913" lon="14.760517536440348"><ele>394.0</ele><time>2026-04-05T13:47:04.999Z</time></trkpt><trkpt lat="41.19771028416171" lon="14.76039481056557"><ele>394.0</ele><time>2026-04-05T13:47:05.999Z</time></trkpt><trkpt lat="41.19772155695828" lon="14.760271502966367"><ele>394.0</ele><time>2026-04-05T13:47:06.999Z</time></trkpt><trkpt lat="41.19771123995354" lon="14.760123993439299"><ele>394.0</ele><time>2026-04-05T13:47:07.999Z</time></trkpt><trkpt lat="41.19771634297254" lon="14.759989191443918"><ele>394.0</ele><time>2026-04-05T13:47:08.999Z</time></trkpt><trkpt lat="41.19771291219566" lon="14.759836085549276"><ele>394.0</ele><time>2026-04-05T13:47:09.999Z</time></trkpt><trkpt lat="41.19768611453227" lon="14.759687179787715"><ele>394.0</ele><time>2026-04-05T13:47:10.999Z</time></trkpt><trkpt lat="41.197624182089406" lon="14.759557610767573"><ele>394.0</ele><time>2026-04-05T13:47:11.999Z</time></trkpt><trkpt lat="41.197571895164764" lon="14.75943475402724"><ele>394.0</ele><time>2026-04-05T13:47:12.999Z</time></trkpt><trkpt lat="41.19749474372047" lon="14.759301046482218"><ele>394.0</ele><time>2026-04-05T13:47:13.999Z</time></trkpt><trkpt lat="41.19741675503968" lon="14.759166356196948"><ele>394.0</ele><time>2026-04-05T13:47:14.999Z</time></trkpt><trkpt lat="41.19735780177924" lon="14.759045031953745"><ele>394.0</ele><time>2026-04-05T13:47:15.999Z</time></trkpt><trkpt lat="41.19731054321351" lon="14.758923450839372"><ele>394.0</ele><time>2026-04-05T13:47:16.999Z</time></trkpt><trkpt lat="41.19727178090731" lon="14.75880812740801"><ele>394.0</ele><time>2026-04-05T13:47:17.999Z</time></trkpt><trkpt lat="41.197235280030505" lon="14.758690526728273"><ele>394.0</ele><time>2026-04-05T13:47:18.999Z</time></trkpt><trkpt lat="41.197211879241756" lon="14.758578480192632"><ele>390.5</ele><time>2026-04-05T13:47:19.999Z</time></trkpt><trkpt lat="41.19718477608818" lon="14.758453678568534"><ele>387.0</ele><time>2026-04-05T13:47:20.999Z</time></trkpt><trkpt lat="41.197150555497515" lon="14.758339883028835"><ele>383.5</ele><time>2026-04-05T13:47:21.999Z</time></trkpt><trkpt lat="41.19711974121255" lon="14.758201510327002"><ele>380.0</ele><time>2026-04-05T13:47:22.999Z</time></trkpt><trkpt lat="41.19708711314115" lon="14.75791701746931"><ele>380.0</ele><time>2026-04-05T13:47:24.999Z</time></trkpt><trkpt lat="41.19707993980892" lon="14.757765173276132"><ele>380.0</ele><time>2026-04-05T13:47:25.999Z</time></trkpt><trkpt lat="41.19707397098662" lon="14.757611291107462"><ele>380.0</ele><time>2026-04-05T13:47:26.999Z</time></trkpt><trkpt lat="41.19707011281468" lon="14.757443257429781"><ele>380.0</ele><time>2026-04-05T13:47:27.999Z</time></trkpt><trkpt lat="41.19706215992636" lon="14.757286668973729"><ele>379.5</ele><time>2026-04-05T13:47:28.999Z</time></trkpt><trkpt lat="41.197057029200735" lon="14.757153371902685"><ele>379.0</ele><time>2026-04-05T13:47:29.999Z</time></trkpt><trkpt lat="41.197054628426784" lon="14.757040769925585"><ele>378.5</ele><time>2026-04-05T13:47:30.999Z</time></trkpt><trkpt lat="41.197048377192864" lon="14.756930544213448"><ele>378.0</ele><time>2026-04-05T13:47:31.999Z</time></trkpt><trkpt lat="41.19704837702603" lon="14.756830542339388"><ele>377.5</ele><time>2026-04-05T13:47:32.999Z</time></trkpt><trkpt lat="41.19704871691167" lon="14.756736017303437"><ele>377.0</ele><time>2026-04-05T13:47:33.999Z</time></trkpt><trkpt lat="41.19705013068334" lon="14.756628485583386"><ele>377.0</ele><time>2026-04-05T13:47:34.999Z</time></trkpt><trkpt lat="41.19705331963353" lon="14.756509657884376"><ele>377.0</ele><time>2026-04-05T13:47:35.999Z</time></trkpt><trkpt lat="41.19706434121257" lon="14.756391138460845"><ele>377.0</ele><time>2026-04-05T13:47:36.999Z</time></trkpt><trkpt lat="41.19708518476627" lon="14.756286486069678"><ele>377.0</ele><time>2026-04-05T13:47:37.999Z</time></trkpt><trkpt lat="41.19710415055067" lon="14.756183175713819"><ele>377.0</ele><time>2026-04-05T13:47:38.999Z</time></trkpt><trkpt lat="41.197118449437774" lon="14.756064069064823"><ele>377.0</ele><time>2026-04-05T13:47:39.999Z</time></trkpt><trkpt lat="41.19714797688355" lon="14.75595386615464"><ele>376.8</ele><time>2026-04-05T13:47:40.999Z</time></trkpt><trkpt lat="41.19719392216613" lon="14.755841051217562"><ele>376.6</ele><time>2026-04-05T13:47:41.999Z</time></trkpt><trkpt lat="41.19723258357782" lon="14.755723507683646"><ele>376.40000000000003</ele><time>2026-04-05T13:47:42.999Z</time></trkpt><trkpt lat="41.19727632999367" lon="14.755595916959996"><ele>376.20000000000005</ele><time>2026-04-05T13:47:43.999Z</time></trkpt><trkpt lat="41.197322202681875" lon="14.755462602648189"><ele>376.0</ele><time>2026-04-05T13:47:44.999Z</time></trkpt><trkpt lat="41.19736575977148" lon="14.75533601788441"><ele>379.20000000000005</ele><time>2026-04-05T13:47:45.999Z</time></trkpt><trkpt lat="41.19740552974638" lon="14.755215902956614"><ele>382.40000000000003</ele><time>2026-04-05T13:47:46.999Z</time></trkpt><trkpt lat="41.19745949529709" lon="14.755083229906923"><ele>385.6</ele><time>2026-04-05T13:47:47.999Z</time></trkpt><trkpt lat="41.19749703356304" lon="14.7549657195887"><ele>388.8</ele><time>2026-04-05T13:47:48.999Z</time></trkpt><trkpt lat="41.19754728232435" lon="14.754849977910176"><ele>392.0</ele><time>2026-04-05T13:47:49.999Z</time></trkpt><trkpt lat="41.19761962034462" lon="14.75472188530619"><ele>392.0</ele><time>2026-04-05T13:47:50.999Z</time></trkpt><trkpt lat="41.19766187543599" lon="14.754569012944868"><ele>392.0</ele><time>2026-04-05T13:47:51.999Z</time></trkpt><trkpt lat="41.19769214177491" lon="14.754465335616953"><ele>392.0</ele><time>2026-04-05T13:47:52.999Z</time></trkpt><trkpt lat="41.19771021945612" lon="14.754345678487757"><ele>392.0</ele><time>2026-04-05T13:47:53.999Z</time></trkpt><trkpt lat="41.19774947275294" lon="14.754234662561464"><ele>392.0</ele><time>2026-04-05T13:47:54.999Z</time></trkpt><trkpt lat="41.19780116366681" lon="14.754142858166466"><ele>391.3333333333333</ele><time>2026-04-05T13:47:55.999Z</time></trkpt><trkpt lat="41.19785876703548" lon="14.754033437191332"><ele>390.66666666666663</ele><time>2026-04-05T13:47:56.999Z</time></trkpt><trkpt lat="41.19790411359304" lon="14.753926460434151"><ele>390.0</ele><time>2026-04-05T13:47:57.999Z</time></trkpt><trkpt lat="41.19795820235148" lon="14.753855626256742"><ele>389.33333333333337</ele><time>2026-04-05T13:47:58.999Z</time></trkpt><trkpt lat="41.19799915641792" lon="14.75376289262277"><ele>388.6666666666667</ele><time>2026-04-05T13:48:00.999Z</time></trkpt><trkpt lat="41.19795386160183" lon="14.753851084665307"><ele>388.0</ele><time>2026-04-05T13:48:03.999Z</time></trkpt><trkpt lat="41.19782184594429" lon="14.753899977510823"><ele>388.0</ele><time>2026-04-05T13:48:04.999Z</time></trkpt><trkpt lat="41.1977359874587" lon="14.754036215344254"><ele>388.0</ele><time>2026-04-05T13:48:05.999Z</time></trkpt><trkpt lat="41.19764788991959" lon="14.754159008468433"><ele>388.0</ele><time>2026-04-05T13:48:06.999Z</time></trkpt><trkpt lat="41.19756483757089" lon="14.754289285012026"><ele>388.0</ele><time>2026-04-05T13:48:07.999Z</time></trkpt><trkpt lat="41.197464071471984" lon="14.754399545843178"><ele>389.0</ele><time>2026-04-05T13:48:08.999Z</time></trkpt><trkpt lat="41.19738222188614" lon="14.754535383504308"><ele>390.0</ele><time>2026-04-05T13:48:09.999Z</time></trkpt><trkpt lat="41.19731244305883" lon="14.754677841398099"><ele>391.0</ele><time>2026-04-05T13:48:10.999Z</time></trkpt><trkpt lat="41.1972079716741" lon="14.754791090559795"><ele>392.0</ele><time>2026-04-05T13:48:11.999Z</time></trkpt><trkpt lat="41.197078973959364" lon="14.754873936981404"><ele>386.0</ele><time>2026-04-05T13:48:12.999Z</time></trkpt><trkpt lat="41.19693411694929" lon="14.754931533766122"><ele>380.0</ele><time>2026-04-05T13:48:13.999Z</time></trkpt><trkpt lat="41.19677976761347" lon="14.754971411551201"><ele>374.0</ele><time>2026-04-05T13:48:14.999Z</time></trkpt><trkpt lat="41.19662370797518" lon="14.755015705043222"><ele>372.0</ele><time>2026-04-05T13:48:15.999Z</time></trkpt><trkpt lat="41.19648017640621" lon="14.755065895467071"><ele>370.0</ele><time>2026-04-05T13:48:16.999Z</time></trkpt><trkpt lat="41.1963767244453" lon="14.755098346960247"><ele>368.0</ele><time>2026-04-05T13:48:17.999Z</time></trkpt><trkpt lat="41.19628961199794" lon="14.755119906593366"><ele>366.0</ele><time>2026-04-05T13:48:18.999Z</time></trkpt><trkpt lat="41.19621984580392" lon="14.755135517649292"><ele>364.0</ele><time>2026-04-05T13:48:19.999Z</time></trkpt><trkpt lat="41.19612067039192" lon="14.755158626729976"><ele>364.0</ele><time>2026-04-05T13:48:21.999Z</time></trkpt><trkpt lat="41.19603913547985" lon="14.75519707883584"><ele>364.0</ele><time>2026-04-05T13:48:53Z</time></trkpt><trkpt lat="41.19597691180227" lon="14.75521814582191"><ele>364.0</ele><time>2026-04-05T13:48:54Z</time></trkpt><trkpt lat="41.19590587525295" lon="14.75523721924353"><ele>364.0</ele><time>2026-04-05T13:48:55Z</time></trkpt><trkpt lat="41.19583152585267" lon="14.755263259600408"><ele>364.0</ele><time>2026-04-05T13:48:56Z</time></trkpt><trkpt lat="41.195754937609486" lon="14.755291182600264"><ele>364.0</ele><time>2026-04-05T13:48:57Z</time></trkpt><trkpt lat="41.195676871902705" lon="14.755317420513258"><ele>363.0</ele><time>2026-04-05T13:48:58Z</time></trkpt><trkpt lat="41.19559972106126" lon="14.755345000564095"><ele>362.0</ele><time>2026-04-05T13:48:59Z</time></trkpt><trkpt lat="41.19552334836097" lon="14.755374807402022"><ele>361.0</ele><time>2026-04-05T13:49:00Z</time></trkpt><trkpt lat="41.195442725992486" lon="14.7554046967233"><ele>360.0</ele><time>2026-04-05T13:49:01Z</time></trkpt><trkpt lat="41.195367388666035" lon="14.755427665289117"><ele>359.0</ele><time>2026-04-05T13:49:02Z</time></trkpt><trkpt lat="41.195297812090494" lon="14.755446415965613"><ele>358.0</ele><time>2026-04-05T13:49:03Z</time></trkpt><trkpt lat="41.19523010566551" lon="14.755456493234925"><ele>358.0</ele><time>2026-04-05T13:49:04Z</time></trkpt><trkpt lat="41.19515274013146" lon="14.755440081974202"><ele>358.0</ele><time>2026-04-05T13:49:05Z</time></trkpt><trkpt lat="41.19507181099041" lon="14.755371766036385"><ele>358.0</ele><time>2026-04-05T13:49:06Z</time></trkpt><trkpt lat="41.19503051606944" lon="14.755241540540316"><ele>358.0</ele><time>2026-04-05T13:49:07Z</time></trkpt><trkpt lat="41.19494574014371" lon="14.75512194240117"><ele>358.0</ele><time>2026-04-05T13:49:08Z</time></trkpt><trkpt lat="41.19486649509931" lon="14.754991507331868"><ele>358.0</ele><time>2026-04-05T13:49:09Z</time></trkpt><trkpt lat="41.19478275002865" lon="14.754861169547164"><ele>358.0</ele><time>2026-04-05T13:49:10Z</time></trkpt><trkpt lat="41.194696030749164" lon="14.754729576885056"><ele>358.0</ele><time>2026-04-05T13:49:11Z</time></trkpt><trkpt lat="41.194619083299656" lon="14.754585191139823"><ele>358.0</ele><time>2026-04-05T13:49:12Z</time></trkpt><trkpt lat="41.19454167431555" lon="14.754477142664344"><ele>357.75</ele><time>2026-04-05T13:49:13Z</time></trkpt><trkpt lat="41.194465301296816" lon="14.754343995262808"><ele>357.5</ele><time>2026-04-05T13:49:14Z</time></trkpt><trkpt lat="41.19438276680857" lon="14.754210268520595"><ele>357.25</ele><time>2026-04-05T13:49:15Z</time></trkpt><trkpt lat="41.194309397837564" lon="14.754088167335809"><ele>357.0</ele><time>2026-04-05T13:49:16Z</time></trkpt><trkpt lat="41.19423480380741" lon="14.753966523875732"><ele>357.0</ele><time>2026-04-05T13:49:17Z</time></trkpt><trkpt lat="41.1941661010555" lon="14.753845256292546"><ele>357.0</ele><time>2026-04-05T13:49:18Z</time></trkpt><trkpt lat="41.19408872894201" lon="14.753724230288562"><ele>357.0</ele><time>2026-04-05T13:49:19Z</time></trkpt><trkpt lat="41.19401071353618" lon="14.753605575447473"><ele>357.0</ele><time>2026-04-05T13:49:20Z</time></trkpt><trkpt lat="41.19393103234191" lon="14.753487082568121"><ele>356.0</ele><time>2026-04-05T13:49:21Z</time></trkpt><trkpt lat="41.193861407350475" lon="14.753361007838166"><ele>355.0</ele><time>2026-04-05T13:49:22Z</time></trkpt><trkpt lat="41.19379954325606" lon="14.753236723438773"><ele>354.0</ele><time>2026-04-05T13:49:23Z</time></trkpt><trkpt lat="41.19374322625172" lon="14.753112413476794"><ele>353.0</ele><time>2026-04-05T13:49:24Z</time></trkpt><trkpt lat="41.19370335969797" lon="14.75297567549239"><ele>352.0</ele><time>2026-04-05T13:49:25Z</time></trkpt><trkpt lat="41.193684408348744" lon="14.752823934369143"><ele>351.40000000000003</ele><time>2026-04-05T13:49:26Z</time></trkpt><trkpt lat="41.19366881741729" lon="14.752677926017984"><ele>350.8</ele><time>2026-04-05T13:49:27Z</time></trkpt><trkpt lat="41.19365739932549" lon="14.752544605098477"><ele>350.2</ele><time>2026-04-05T13:49:28Z</time></trkpt><trkpt lat="41.19364228795261" lon="14.752424668516886"><ele>349.6</ele><time>2026-04-05T13:49:29Z</time></trkpt><trkpt lat="41.193631965012706" lon="14.75232323756303"><ele>349.0</ele><time>2026-04-05T13:49:30Z</time></trkpt><trkpt lat="41.19362041790685" lon="14.752229461013242"><ele>349.0</ele><time>2026-04-05T13:49:31Z</time></trkpt><trkpt lat="41.19360122154758" lon="14.752072636771084"><ele>349.0</ele><time>2026-04-05T13:49:33Z</time></trkpt><trkpt lat="41.1935837757313" lon="14.751964059050362"><ele>349.0</ele><time>2026-04-05T13:49:35Z</time></trkpt><trkpt lat="41.193573080760466" lon="14.751880256708622"><ele>349.0</ele><time>2026-04-05T13:50:42.998Z</time></trkpt><trkpt lat="41.19355167608146" lon="14.751795617768764"><ele>349.0</ele><time>2026-04-05T13:50:45.998Z</time></trkpt><trkpt lat="41.19354585500914" lon="14.751709708970994"><ele>349.0</ele><time>2026-04-05T13:50:47.998Z</time></trkpt><trkpt lat="41.19353786641487" lon="14.751595653344124"><ele>348.0</ele><time>2026-04-05T13:50:49.998Z</time></trkpt><trkpt lat="41.19351854889989" lon="14.751463983717935"><ele>347.0</ele><time>2026-04-05T13:50:51.998Z</time></trkpt><trkpt lat="41.193504054648436" lon="14.751302139706405"><ele>346.0</ele><time>2026-04-05T13:50:53.998Z</time></trkpt><trkpt lat="41.193500975808334" lon="14.751130484207254"><ele>345.0</ele><time>2026-04-05T13:50:55.998Z</time></trkpt><trkpt lat="41.193493289050785" lon="14.75103491381656"><ele>344.0</ele><time>2026-04-05T13:50:56.998Z</time></trkpt><trkpt lat="41.19348467716465" lon="14.750932204050674"><ele>342.83333333333337</ele><time>2026-04-05T13:50:57.998Z</time></trkpt><trkpt lat="41.193473778009555" lon="14.750841171753187"><ele>341.6666666666667</ele><time>2026-04-05T13:50:58.998Z</time></trkpt><trkpt lat="41.193450235014616" lon="14.750731786244609"><ele>340.5</ele><time>2026-04-05T13:50:59.998Z</time></trkpt><trkpt lat="41.19343626460192" lon="14.750617334341577"><ele>339.3333333333333</ele><time>2026-04-05T13:51:00.998Z</time></trkpt><trkpt lat="41.19341905848507" lon="14.75050563340415"><ele>338.16666666666663</ele><time>2026-04-05T13:51:01.998Z</time></trkpt><trkpt lat="41.19340028541688" lon="14.750372065366072"><ele>337.0</ele><time>2026-04-05T13:51:02.998Z</time></trkpt><trkpt lat="41.19338088754544" lon="14.750223153942178"><ele>335.0</ele><time>2026-04-05T13:51:03.998Z</time></trkpt><trkpt lat="41.1933617100306" lon="14.750068064158203"><ele>333.0</ele><time>2026-04-05T13:51:04.998Z</time></trkpt><trkpt lat="41.193344585408056" lon="14.74992005499271"><ele>331.0</ele><time>2026-04-05T13:51:05.998Z</time></trkpt><trkpt lat="41.19332698025233" lon="14.749771886066618"><ele>329.0</ele><time>2026-04-05T13:51:06.998Z</time></trkpt><trkpt lat="41.19330737393914" lon="14.749623795514552"><ele>329.0</ele><time>2026-04-05T13:51:07.998Z</time></trkpt><trkpt lat="41.19330324111588" lon="14.749472885215901"><ele>329.0</ele><time>2026-04-05T13:51:08.998Z</time></trkpt><trkpt lat="41.193275849691034" lon="14.749327063525781"><ele>329.0</ele><time>2026-04-05T13:51:09.998Z</time></trkpt><trkpt lat="41.193267677563206" lon="14.749172914967957"><ele>329.0</ele><time>2026-04-05T13:51:10.998Z</time></trkpt><trkpt lat="41.19326075571391" lon="14.749021323703527"><ele>327.4</ele><time>2026-04-05T13:51:11.998Z</time></trkpt><trkpt lat="41.193251232976806" lon="14.748869395414701"><ele>325.79999999999995</ele><time>2026-04-05T13:51:12.998Z</time></trkpt><trkpt lat="41.19323618057951" lon="14.748742250125447"><ele>324.20000000000005</ele><time>2026-04-05T13:51:13.998Z</time></trkpt><trkpt lat="41.19322551845669" lon="14.748635187458097"><ele>322.6</ele><time>2026-04-05T13:51:14.998Z</time></trkpt><trkpt lat="41.19322128488788" lon="14.74854218827911"><ele>321.0</ele><time>2026-04-05T13:51:15.998Z</time></trkpt><trkpt lat="41.193214797845364" lon="14.748394584193905"><ele>319.40000000000003</ele><time>2026-04-05T13:51:17.998Z</time></trkpt><trkpt lat="41.19319010682609" lon="14.748263528581838"><ele>317.8</ele><time>2026-04-05T13:51:19.999Z</time></trkpt><trkpt lat="41.19317512717312" lon="14.748135574694906"><ele>316.20000000000005</ele><time>2026-04-05T13:51:21.999Z</time></trkpt><trkpt lat="41.19316320614614" lon="14.748006833833443"><ele>314.6</ele><time>2026-04-05T13:51:23.999Z</time></trkpt><trkpt lat="41.19314949482623" lon="14.747833237541949"><ele>313.0</ele><time>2026-04-05T13:51:25.999Z</time></trkpt><trkpt lat="41.19313387089709" lon="14.747738458831142"><ele>311.57142857142856</ele><time>2026-04-05T13:51:26.999Z</time></trkpt><trkpt lat="41.19311792629707" lon="14.747639184124328"><ele>310.14285714285717</ele><time>2026-04-05T13:51:27.999Z</time></trkpt><trkpt lat="41.193098564325005" lon="14.747539913566722"><ele>308.7142857142857</ele><time>2026-04-05T13:51:28.999Z</time></trkpt><trkpt lat="41.19308298853316" lon="14.747440655532971"><ele>307.2857142857143</ele><time>2026-04-05T13:51:29.999Z</time></trkpt><trkpt lat="41.193076777798304" lon="14.74734906489828"><ele>305.85714285714283</ele><time>2026-04-05T13:51:30.999Z</time></trkpt><trkpt lat="41.19309053973413" lon="14.74726079787133"><ele>304.42857142857144</ele><time>2026-04-05T13:51:31.999Z</time></trkpt><trkpt lat="41.19313664472402" lon="14.747181735100506"><ele>303.0</ele><time>2026-04-05T13:51:32.999Z</time></trkpt><trkpt lat="41.19319990380761" lon="14.747112912314115"><ele>303.0</ele><time>2026-04-05T13:51:33.999Z</time></trkpt><trkpt lat="41.193263111999144" lon="14.747060050439028"><ele>303.0</ele><time>2026-04-05T13:51:34.999Z</time></trkpt><trkpt lat="41.193334999187684" lon="14.747001889529205"><ele>303.0</ele><time>2026-04-05T13:51:35.999Z</time></trkpt><trkpt lat="41.19340061298277" lon="14.746934185665232"><ele>303.0</ele><time>2026-04-05T13:51:36.999Z</time></trkpt><trkpt lat="41.193460426570006" lon="14.74685570388"><ele>303.0</ele><time>2026-04-05T13:51:37.999Z</time></trkpt><trkpt lat="41.19351055935749" lon="14.74677406831258"><ele>303.0</ele><time>2026-04-05T13:51:38.999Z</time></trkpt><trkpt lat="41.19354961282746" lon="14.74669065472822"><ele>302.0</ele><time>2026-04-05T13:51:39.999Z</time></trkpt><trkpt lat="41.19358015196056" lon="14.746596743721927"><ele>301.0</ele><time>2026-04-05T13:51:40.999Z</time></trkpt><trkpt lat="41.19360549190385" lon="14.746505683717118"><ele>300.0</ele><time>2026-04-05T13:51:41.999Z</time></trkpt><trkpt lat="41.193628106023645" lon="14.746416014088704"><ele>299.0</ele><time>2026-04-05T13:51:42.999Z</time></trkpt><trkpt lat="41.19365487593744" lon="14.746322029500059"><ele>298.0</ele><time>2026-04-05T13:51:43.999Z</time></trkpt><trkpt lat="41.19367450651777" lon="14.746223681593804"><ele>297.0</ele><time>2026-04-05T13:51:44.999Z</time></trkpt><trkpt lat="41.19368381727476" lon="14.746127184763383"><ele>296.0</ele><time>2026-04-05T13:51:45.999Z</time></trkpt><trkpt lat="41.19366224331983" lon="14.746024839191548"><ele>294.0</ele><time>2026-04-05T13:51:46.999Z</time></trkpt><trkpt lat="41.19362357789579" lon="14.745914945612624"><ele>292.0</ele><time>2026-04-05T13:51:47.999Z</time></trkpt><trkpt lat="41.19356612675733" lon="14.745815418180204"><ele>290.0</ele><time>2026-04-05T13:51:48.999Z</time></trkpt><trkpt lat="41.1934884164626" lon="14.74574261163014"><ele>288.0</ele><time>2026-04-05T13:51:49.999Z</time></trkpt><trkpt lat="41.19340459119221" lon="14.745686821811157"><ele>286.0</ele><time>2026-04-05T13:51:50.999Z</time></trkpt><trkpt lat="41.193345985476824" lon="14.745622364890954"><ele>286.0</ele><time>2026-04-05T13:51:51.999Z</time></trkpt><trkpt lat="41.193338145878485" lon="14.745527089904774"><ele>286.0</ele><time>2026-04-05T13:51:52.998Z</time></trkpt><trkpt lat="41.19339566552859" lon="14.74544963140593"><ele>286.0</ele><time>2026-04-05T13:51:53.998Z</time></trkpt><trkpt lat="41.193490941282484" lon="14.74542464457673"><ele>286.0</ele><time>2026-04-05T13:51:54.998Z</time></trkpt><trkpt lat="41.193610705152736" lon="14.745439937562415"><ele>286.0</ele><time>2026-04-05T13:51:55.998Z</time></trkpt><trkpt lat="41.19370367187541" lon="14.745439634381126"><ele>286.0</ele><time>2026-04-05T13:51:56.998Z</time></trkpt><trkpt lat="41.19376803883703" lon="14.745405105561408"><ele>286.0</ele><time>2026-04-05T13:51:57.998Z</time></trkpt><trkpt lat="41.19379551736288" lon="14.745328784367462"><ele>286.0</ele><time>2026-04-05T13:51:58.998Z</time></trkpt><trkpt lat="41.19377405111593" lon="14.745239815223647"><ele>286.0</ele><time>2026-04-05T13:51:59.998Z</time></trkpt><trkpt lat="41.19370999410057" lon="14.745165492096689"><ele>286.0</ele><time>2026-04-05T13:52:00.998Z</time></trkpt><trkpt lat="41.19363163171886" lon="14.745111337123365"><ele>286.0</ele><time>2026-04-05T13:52:01.998Z</time></trkpt><trkpt lat="41.19356299103333" lon="14.745015232793513"><ele>282.0</ele><time>2026-04-05T13:52:02.998Z</time></trkpt><trkpt lat="41.19352660934704" lon="14.744867918532284"><ele>278.0</ele><time>2026-04-05T13:52:03.998Z</time></trkpt><trkpt lat="41.19348111029228" lon="14.744717150323376"><ele>274.0</ele><time>2026-04-05T13:52:04.998Z</time></trkpt><trkpt lat="41.193430393098936" lon="14.744556630501311"><ele>270.0</ele><time>2026-04-05T13:52:05.998Z</time></trkpt><trkpt lat="41.19337709987016" lon="14.74440150619177"><ele>267.0</ele><time>2026-04-05T13:52:06.998Z</time></trkpt><trkpt lat="41.1933318000526" lon="14.744237610395329"><ele>264.0</ele><time>2026-04-05T13:52:07.998Z</time></trkpt><trkpt lat="41.19329489439844" lon="14.744069283114493"><ele>261.0</ele><time>2026-04-05T13:52:08.998Z</time></trkpt><trkpt lat="41.193264336638435" lon="14.743904912906165"><ele>258.0</ele><time>2026-04-05T13:52:09.998Z</time></trkpt><trkpt lat="41.19323286716836" lon="14.743742586715376"><ele>258.0</ele><time>2026-04-05T13:52:10.998Z</time></trkpt><trkpt lat="41.19320831139688" lon="14.743588485798146"><ele>258.0</ele><time>2026-04-05T13:52:11.998Z</time></trkpt><trkpt lat="41.193190930001705" lon="14.74345455047744"><ele>258.0</ele><time>2026-04-05T13:52:12.998Z</time></trkpt><trkpt lat="41.193188823048494" lon="14.743355638408694"><ele>258.0</ele><time>2026-04-05T13:52:13.998Z</time></trkpt><trkpt lat="41.193190357636254" lon="14.743271909219901"><ele>258.0</ele><time>2026-04-05T13:52:14.998Z</time></trkpt><trkpt lat="41.19313389286901" lon="14.743129657691886"><ele>255.8</ele><time>2026-04-05T13:52:17.998Z</time></trkpt><trkpt lat="41.19306340839645" lon="14.743065431218977"><ele>253.60000000000002</ele><time>2026-04-05T13:52:18.998Z</time></trkpt><trkpt lat="41.19296222148001" lon="14.743000737718486"><ele>251.39999999999998</ele><time>2026-04-05T13:52:19.998Z</time></trkpt><trkpt lat="41.192849815593384" lon="14.742947048622225"><ele>249.2</ele><time>2026-04-05T13:52:20.998Z</time></trkpt><trkpt lat="41.192726435240104" lon="14.742910517088522"><ele>247.0</ele><time>2026-04-05T13:52:21.998Z</time></trkpt><trkpt lat="41.19258811138288" lon="14.742898494386042"><ele>247.0</ele><time>2026-04-05T13:52:22.998Z</time></trkpt><trkpt lat="41.19243116104394" lon="14.742915302083748"><ele>247.0</ele><time>2026-04-05T13:52:23.998Z</time></trkpt><trkpt lat="41.19227894852865" lon="14.742925615012279"><ele>247.0</ele><time>2026-04-05T13:52:24.998Z</time></trkpt><trkpt lat="41.19213436482646" lon="14.742955828355573"><ele>245.5</ele><time>2026-04-05T13:52:25.998Z</time></trkpt><trkpt lat="41.19200017697997" lon="14.742983011666357"><ele>244.0</ele><time>2026-04-05T13:52:26.998Z</time></trkpt><trkpt lat="41.19187993245681" lon="14.743020670823876"><ele>242.5</ele><time>2026-04-05T13:52:27.998Z</time></trkpt><trkpt lat="41.19176631857354" lon="14.74306479404911"><ele>241.0</ele><time>2026-04-05T13:52:28.998Z</time></trkpt><trkpt lat="41.191664246300405" lon="14.743113420988296"><ele>241.0</ele><time>2026-04-05T13:52:29.998Z</time></trkpt><trkpt lat="41.19157481651319" lon="14.743156125549131"><ele>241.00000000000003</ele><time>2026-04-05T13:52:30.998Z</time></trkpt><trkpt lat="41.191510348986284" lon="14.743157856451134"><ele>241.00000000000003</ele><time>2026-04-05T13:52:31.998Z</time></trkpt><trkpt lat="41.19140502714284" lon="14.743008044145386"><ele>241.0</ele><time>2026-04-05T13:52:33.998Z</time></trkpt><trkpt lat="41.19146875908324" lon="14.742883845123872"><ele>241.0</ele><time>2026-04-05T13:52:34.996Z</time></trkpt><trkpt lat="41.19153128721631" lon="14.742758562514858"><ele>239.0</ele><time>2026-04-05T13:52:35.996Z</time></trkpt><trkpt lat="41.19160540496298" lon="14.74261522271808"><ele>237.0</ele><time>2026-04-05T13:52:36.996Z</time></trkpt><trkpt lat="41.19166933881239" lon="14.742463597729925"><ele>235.0</ele><time>2026-04-05T13:52:37.996Z</time></trkpt><trkpt lat="41.19174494894279" lon="14.742302640677753"><ele>233.0</ele><time>2026-04-05T13:52:38.996Z</time></trkpt><trkpt lat="41.191835594582294" lon="14.742158931098835"><ele>233.0</ele><time>2026-04-05T13:52:39.996Z</time></trkpt><trkpt lat="41.19194270341092" lon="14.74202523140838"><ele>233.0</ele><time>2026-04-05T13:52:40.996Z</time></trkpt><trkpt lat="41.19206066999197" lon="14.7419012133785"><ele>233.0</ele><time>2026-04-05T13:52:41.996Z</time></trkpt><trkpt lat="41.192192276351534" lon="14.741777680502771"><ele>231.75</ele><time>2026-04-05T13:52:42.996Z</time></trkpt><trkpt lat="41.19231996631607" lon="14.741651248657508"><ele>230.5</ele><time>2026-04-05T13:52:43.996Z</time></trkpt><trkpt lat="41.19242534050518" lon="14.74153169812594"><ele>229.25</ele><time>2026-04-05T13:52:44.997Z</time></trkpt><trkpt lat="41.19251229893096" lon="14.741414648789704"><ele>228.0</ele><time>2026-04-05T13:52:45.997Z</time></trkpt><trkpt lat="41.192562611772466" lon="14.74127715563414"><ele>228.0</ele><time>2026-04-05T13:52:46.997Z</time></trkpt><trkpt lat="41.192571568126986" lon="14.74111722883634"><ele>228.0</ele><time>2026-04-05T13:52:47.997Z</time></trkpt><trkpt lat="41.19254386169201" lon="14.740943912435762"><ele>228.0</ele><time>2026-04-05T13:52:48.997Z</time></trkpt><trkpt lat="41.19248902625248" lon="14.740787425869838"><ele>228.0</ele><time>2026-04-05T13:52:49.997Z</time></trkpt><trkpt lat="41.192418167423035" lon="14.74065794950966"><ele>224.25</ele><time>2026-04-05T13:52:50.997Z</time></trkpt><trkpt lat="41.19233095279443" lon="14.740565731990419"><ele>220.5</ele><time>2026-04-05T13:52:51.997Z</time></trkpt><trkpt lat="41.19221450140628" lon="14.740501189785128"><ele>216.75</ele><time>2026-04-05T13:52:52.997Z</time></trkpt><trkpt lat="41.192099220668524" lon="14.74044138836696"><ele>213.0</ele><time>2026-04-05T13:52:53.997Z</time></trkpt><trkpt lat="41.19198551380134" lon="14.740376348574946"><ele>213.0</ele><time>2026-04-05T13:52:54.998Z</time></trkpt><trkpt lat="41.19187476826589" lon="14.740294098410997"><ele>213.0</ele><time>2026-04-05T13:52:55.998Z</time></trkpt><trkpt lat="41.19177547659398" lon="14.740183286326154"><ele>213.0</ele><time>2026-04-05T13:52:56.998Z</time></trkpt><trkpt lat="41.191698461021694" lon="14.740032960095908"><ele>213.0</ele><time>2026-04-05T13:52:57.998Z</time></trkpt><trkpt lat="41.191653949964014" lon="14.73988673533812"><ele>212.0</ele><time>2026-04-05T13:52:58.998Z</time></trkpt><trkpt lat="41.19161011164512" lon="14.739777670579524"><ele>211.0</ele><time>2026-04-05T13:52:59.998Z</time></trkpt><trkpt lat="41.19151787419015" lon="14.739686605983502"><ele>210.0</ele><time>2026-04-05T13:53:00.998Z</time></trkpt><trkpt lat="41.191399607400236" lon="14.739615331686565"><ele>209.0</ele><time>2026-04-05T13:53:01.998Z</time></trkpt><trkpt lat="41.19127958475194" lon="14.739543492843696"><ele>208.33333333333334</ele><time>2026-04-05T13:53:02.998Z</time></trkpt><trkpt lat="41.191156180644185" lon="14.739445354076171"><ele>207.66666666666669</ele><time>2026-04-05T13:53:03.998Z</time></trkpt><trkpt lat="41.19102820968143" lon="14.739325930841183"><ele>207.0</ele><time>2026-04-05T13:53:04.998Z</time></trkpt><trkpt lat="41.190901806945895" lon="14.739208557401241"><ele>205.66666666666669</ele><time>2026-04-05T13:53:05.998Z</time></trkpt><trkpt lat="41.19076156801376" lon="14.739091214247935"><ele>204.33333333333334</ele><time>2026-04-05T13:53:06.998Z</time></trkpt><trkpt lat="41.190614258274906" lon="14.73897026773127"><ele>203.0</ele><time>2026-04-05T13:53:07.998Z</time></trkpt><trkpt lat="41.19046788742605" lon="14.738843097337305"><ele>201.66666666666669</ele><time>2026-04-05T13:53:08.998Z</time></trkpt><trkpt lat="41.19032114044109" lon="14.738716039954776"><ele>200.33333333333331</ele><time>2026-04-05T13:53:09.998Z</time></trkpt><trkpt lat="41.19018985927895" lon="14.738600033371393"><ele>199.0</ele><time>2026-04-05T13:53:10.998Z</time></trkpt><trkpt lat="41.19006894625523" lon="14.738497893459225"><ele>198.6</ele><time>2026-04-05T13:53:11.998Z</time></trkpt><trkpt lat="41.1899560720652" lon="14.738402201971772"><ele>198.2</ele><time>2026-04-05T13:53:12.998Z</time></trkpt><trkpt lat="41.18985352245756" lon="14.73831370646037"><ele>197.79999999999998</ele><time>2026-04-05T13:53:13.998Z</time></trkpt><trkpt lat="41.18976250097126" lon="14.738228651722252"><ele>197.39999999999998</ele><time>2026-04-05T13:53:14.998Z</time></trkpt><trkpt lat="41.1896981273322" lon="14.738167248563595"><ele>197.0</ele><time>2026-04-05T13:53:15.999Z</time></trkpt><trkpt lat="41.18963988533709" lon="14.738132233133506"><ele>196.25</ele><time>2026-04-05T13:53:16.999Z</time></trkpt><trkpt lat="41.189553716944694" lon="14.738094048288668"><ele>195.5</ele><time>2026-04-05T13:53:18.999Z</time></trkpt><trkpt lat="41.18944103808707" lon="14.738221840155406"><ele>194.75</ele><time>2026-04-05T13:53:19.999Z</time></trkpt><trkpt lat="41.18933378242139" lon="14.738324114659344"><ele>194.0</ele><time>2026-04-05T13:53:20.999Z</time></trkpt><trkpt lat="41.18921160673895" lon="14.738452769616766"><ele>195.0</ele><time>2026-04-05T13:53:21.999Z</time></trkpt><trkpt lat="41.18908029549639" lon="14.73855745607234"><ele>196.0</ele><time>2026-04-05T13:53:22.999Z</time></trkpt><trkpt lat="41.18893980467947" lon="14.738677565292148"><ele>197.0</ele><time>2026-04-05T13:53:23.999Z</time></trkpt><trkpt lat="41.18878603199939" lon="14.73882043997574"><ele>197.0</ele><time>2026-04-05T13:53:24.999Z</time></trkpt><trkpt lat="41.188619565525016" lon="14.738961980497015"><ele>197.0</ele><time>2026-04-05T13:53:25.999Z</time></trkpt><trkpt lat="41.188454698183634" lon="14.739105262177263"><ele>197.0</ele><time>2026-04-05T13:53:26.999Z</time></trkpt><trkpt lat="41.1882973013448" lon="14.739250903985255"><ele>197.33333333333334</ele><time>2026-04-05T13:53:27.999Z</time></trkpt><trkpt lat="41.18814421118357" lon="14.739384452095422"><ele>197.66666666666669</ele><time>2026-04-05T13:53:28.999Z</time></trkpt><trkpt lat="41.18799821430096" lon="14.73950210073892"><ele>198.0</ele><time>2026-04-05T13:53:29.999Z</time></trkpt><trkpt lat="41.18783643858954" lon="14.739621313946781"><ele>198.0</ele><time>2026-04-05T13:53:30.999Z</time></trkpt><trkpt lat="41.18769051223404" lon="14.739712491562566"><ele>198.0</ele><time>2026-04-05T13:53:31.999Z</time></trkpt><trkpt lat="41.1875336761004" lon="14.73979871661377"><ele>198.0</ele><time>2026-04-05T13:53:32.999Z</time></trkpt><trkpt lat="41.18739949275881" lon="14.739908646305308"><ele>197.33333333333331</ele><time>2026-04-05T13:53:33.999Z</time></trkpt><trkpt lat="41.18725899373848" lon="14.73999772672201"><ele>196.66666666666666</ele><time>2026-04-05T13:53:34.999Z</time></trkpt><trkpt lat="41.187117329988645" lon="14.740052460603376"><ele>196.0</ele><time>2026-04-05T13:53:35.999Z</time></trkpt><trkpt lat="41.18696010473208" lon="14.740080760137428"><ele>196.0</ele><time>2026-04-05T13:53:36.999Z</time></trkpt><trkpt lat="41.18676404074357" lon="14.73997523830927"><ele>196.0</ele><time>2026-04-05T13:53:37.999Z</time></trkpt><trkpt lat="41.186572540992245" lon="14.739876298651167"><ele>196.0</ele><time>2026-04-05T13:53:38.999Z</time></trkpt><trkpt lat="41.18636276204202" lon="14.739761052819613"><ele>194.5</ele><time>2026-04-05T13:53:39.999Z</time></trkpt><trkpt lat="41.18613244804147" lon="14.73962565119123"><ele>193.0</ele><time>2026-04-05T13:53:40.999Z</time></trkpt><trkpt lat="41.185874902921064" lon="14.739459443037674"><ele>193.0</ele><time>2026-04-05T13:53:41.999Z</time></trkpt><trkpt lat="41.18559831234022" lon="14.73926047048108"><ele>193.0</ele><time>2026-04-05T13:53:42.999Z</time></trkpt><trkpt lat="41.18531307371253" lon="14.739037410651315"><ele>193.0</ele><time>2026-04-05T13:53:43.999Z</time></trkpt><trkpt lat="41.18500945024239" lon="14.738807665287037"><ele>193.0</ele><time>2026-04-05T13:53:44.999Z</time></trkpt><trkpt lat="41.18467632299773" lon="14.738559911716179"><ele>191.0</ele><time>2026-04-05T13:53:45.999Z</time></trkpt><trkpt lat="41.184348940313654" lon="14.738309664080479"><ele>189.0</ele><time>2026-04-05T13:53:46.999Z</time></trkpt><trkpt lat="41.184080513435454" lon="14.738093361941681"><ele>185.0</ele><time>2026-04-05T13:53:47.999Z</time></trkpt><trkpt lat="41.18381293594349" lon="14.737870187411083"><ele>181.0</ele><time>2026-04-05T13:53:48.999Z</time></trkpt><trkpt lat="41.18355329065292" lon="14.737665373300985"><ele>179.5</ele><time>2026-04-05T13:53:49.999Z</time></trkpt><trkpt lat="41.18331657588539" lon="14.737466005662728"><ele>178.0</ele><time>2026-04-05T13:53:50.999Z</time></trkpt><trkpt lat="41.183084771153375" lon="14.737274667056782"><ele>174.5</ele><time>2026-04-05T13:53:51.999Z</time></trkpt><trkpt lat="41.18287463603782" lon="14.737092812126912"><ele>171.0</ele><time>2026-04-05T13:53:52.999Z</time></trkpt><trkpt lat="41.18266562961585" lon="14.736912857017296"><ele>170.0</ele><time>2026-04-05T13:53:53.999Z</time></trkpt><trkpt lat="41.18246064426321" lon="14.736736817158885"><ele>169.0</ele><time>2026-04-05T13:53:54.999Z</time></trkpt><trkpt lat="41.18225178900709" lon="14.736562685313883"><ele>171.0</ele><time>2026-04-05T13:53:55.999Z</time></trkpt><trkpt lat="41.18204061944447" lon="14.736381421572965"><ele>173.0</ele><time>2026-04-05T13:53:56.999Z</time></trkpt><trkpt lat="41.18182716769007" lon="14.736199806021919"><ele>173.0</ele><time>2026-04-05T13:53:57.999Z</time></trkpt><trkpt lat="41.18161532997174" lon="14.73601591374586"><ele>173.0</ele><time>2026-04-05T13:53:58.999Z</time></trkpt><trkpt lat="41.18140756552384" lon="14.735826156453395"><ele>173.0</ele><time>2026-04-05T13:53:59.999Z</time></trkpt><trkpt lat="41.181188229563574" lon="14.735653816583852"><ele>173.0</ele><time>2026-04-05T13:54:00.999Z</time></trkpt><trkpt lat="41.180986299688634" lon="14.735436762455226"><ele>173.0</ele><time>2026-04-05T13:54:01.999Z</time></trkpt><trkpt lat="41.18077384886501" lon="14.735255655473997"><ele>173.0</ele><time>2026-04-05T13:54:02.999Z</time></trkpt><trkpt lat="41.180560737882914" lon="14.735067587758477"><ele>172.5</ele><time>2026-04-05T13:54:03.999Z</time></trkpt><trkpt lat="41.18032908758866" lon="14.734860306975007"><ele>172.0</ele><time>2026-04-05T13:54:04.999Z</time></trkpt><trkpt lat="41.180098617215855" lon="14.734650525462376"><ele>172.0</ele><time>2026-04-05T13:54:05.999Z</time></trkpt><trkpt lat="41.17987526563936" lon="14.73444701928594"><ele>172.0</ele><time>2026-04-05T13:54:06.999Z</time></trkpt><trkpt lat="41.1796549974022" lon="14.734250894042523"><ele>171.5</ele><time>2026-04-05T13:54:07.999Z</time></trkpt><trkpt lat="41.17943659141137" lon="14.734057242237753"><ele>171.0</ele><time>2026-04-05T13:54:08.999Z</time></trkpt><trkpt lat="41.179217135933555" lon="14.73385743748574"><ele>172.5</ele><time>2026-04-05T13:54:09.999Z</time></trkpt><trkpt lat="41.17899313315275" lon="14.733652657315698"><ele>174.0</ele><time>2026-04-05T13:54:10.999Z</time></trkpt><trkpt lat="41.178753181868366" lon="14.7334345298004"><ele>174.0</ele><time>2026-04-05T13:54:11.999Z</time></trkpt><trkpt lat="41.178492495368666" lon="14.73320513219171"><ele>174.0</ele><time>2026-04-05T13:54:12.999Z</time></trkpt><trkpt lat="41.178223852276574" lon="14.732975880844716"><ele>174.5</ele><time>2026-04-05T13:54:13.999Z</time></trkpt><trkpt lat="41.17794867035047" lon="14.73275283710421"><ele>175.0</ele><time>2026-04-05T13:54:14.999Z</time></trkpt><trkpt lat="41.177634097495044" lon="14.73251409633129"><ele>176.0</ele><time>2026-04-05T13:54:15.999Z</time></trkpt><trkpt lat="41.17731171663117" lon="14.732283063375554"><ele>177.0</ele><time>2026-04-05T13:54:16.999Z</time></trkpt><trkpt lat="41.176986904635875" lon="14.73207320675253"><ele>175.5</ele><time>2026-04-05T13:54:17.999Z</time></trkpt><trkpt lat="41.176670153431644" lon="14.731885139089579"><ele>174.0</ele><time>2026-04-05T13:54:18.999Z</time></trkpt><trkpt lat="41.17634635348433" lon="14.731702763069109"><ele>174.0</ele><time>2026-04-05T13:54:19.999Z</time></trkpt><trkpt lat="41.17599943218167" lon="14.731525033844793"><ele>174.0</ele><time>2026-04-05T13:54:20.999Z</time></trkpt><trkpt lat="41.1756314891178" lon="14.731347492422644"><ele>172.5</ele><time>2026-04-05T13:54:21.999Z</time></trkpt><trkpt lat="41.175254296771755" lon="14.731165394335012"><ele>171.0</ele><time>2026-04-05T13:54:22.999Z</time></trkpt><trkpt lat="41.174911067130616" lon="14.73099094836109"><ele>170.0</ele><time>2026-04-05T13:54:23.999Z</time></trkpt><trkpt lat="41.17460062714911" lon="14.730833365049552"><ele>169.0</ele><time>2026-04-05T13:54:24.999Z</time></trkpt><trkpt lat="41.17430938290671" lon="14.730685898659582"><ele>169.0</ele><time>2026-04-05T13:54:25.999Z</time></trkpt><trkpt lat="41.17402940802907" lon="14.730539104137273"><ele>169.0</ele><time>2026-04-05T13:54:26.999Z</time></trkpt><trkpt lat="41.173764976561344" lon="14.730393627777424"><ele>170.0</ele><time>2026-04-05T13:54:27.999Z</time></trkpt><trkpt lat="41.17350002994756" lon="14.730266314001927"><ele>171.0</ele><time>2026-04-05T13:54:28.999Z</time></trkpt><trkpt lat="41.1732488384525" lon="14.730148914641232"><ele>171.0</ele><time>2026-04-05T13:54:29.999Z</time></trkpt><trkpt lat="41.173017789861525" lon="14.73003134079316"><ele>171.0</ele><time>2026-04-05T13:54:30.999Z</time></trkpt><trkpt lat="41.17278253549749" lon="14.729901342457367"><ele>171.0</ele><time>2026-04-05T13:54:31.999Z</time></trkpt><trkpt lat="41.17254756668043" lon="14.729775034310677"><ele>171.0</ele><time>2026-04-05T13:54:32.999Z</time></trkpt><trkpt lat="41.17229953802326" lon="14.729656874537621"><ele>172.5</ele><time>2026-04-05T13:54:33.999Z</time></trkpt><trkpt lat="41.172053105209145" lon="14.729548329214222"><ele>174.0</ele><time>2026-04-05T13:54:34.999Z</time></trkpt><trkpt lat="41.17179921495094" lon="14.72946061513934"><ele>168.5</ele><time>2026-04-05T13:54:35.999Z</time></trkpt><trkpt lat="41.1715499974726" lon="14.729389534698315"><ele>163.0</ele><time>2026-04-05T13:54:36.999Z</time></trkpt><trkpt lat="41.171296338382895" lon="14.729330130315914"><ele>163.0</ele><time>2026-04-05T13:54:37.999Z</time></trkpt><trkpt lat="41.171047689449736" lon="14.729274693465447"><ele>163.0</ele><time>2026-04-05T13:54:38.999Z</time></trkpt><trkpt lat="41.17080827580103" lon="14.729231510164565"><ele>164.5</ele><time>2026-04-05T13:54:39.999Z</time></trkpt><trkpt lat="41.17056298479785" lon="14.72920126520891"><ele>166.0</ele><time>2026-04-05T13:54:41Z</time></trkpt><trkpt lat="41.17032511269572" lon="14.72918331161379"><ele>166.0</ele><time>2026-04-05T13:54:42Z</time></trkpt><trkpt lat="41.1700839792097" lon="14.729170851836953"><ele>166.0</ele><time>2026-04-05T13:54:43Z</time></trkpt><trkpt lat="41.16983899439495" lon="14.729172040362297"><ele>167.5</ele><time>2026-04-05T13:54:44Z</time></trkpt><trkpt lat="41.169590016291856" lon="14.729195203241598"><ele>169.0</ele><time>2026-04-05T13:54:45Z</time></trkpt><trkpt lat="41.169339961640524" lon="14.729236816895863"><ele>169.0</ele><time>2026-04-05T13:54:46Z</time></trkpt><trkpt lat="41.16908602712891" lon="14.729286302579501"><ele>169.0</ele><time>2026-04-05T13:54:47Z</time></trkpt><trkpt lat="41.16882964197248" lon="14.729332585048592"><ele>168.5</ele><time>2026-04-05T13:54:48Z</time></trkpt><trkpt lat="41.16857553072303" lon="14.72937760381287"><ele>168.0</ele><time>2026-04-05T13:54:49Z</time></trkpt><trkpt lat="41.16830990595271" lon="14.729434045911063"><ele>174.0</ele><time>2026-04-05T13:54:50Z</time></trkpt><trkpt lat="41.168042001455746" lon="14.729501189329175"><ele>180.0</ele><time>2026-04-05T13:54:51Z</time></trkpt><trkpt lat="41.167783195760975" lon="14.729571834036033"><ele>180.0</ele><time>2026-04-05T13:54:52Z</time></trkpt><trkpt lat="41.16751490638794" lon="14.729659049392554"><ele>180.0</ele><time>2026-04-05T13:54:53Z</time></trkpt><trkpt lat="41.16726357736541" lon="14.729751004768097"><ele>181.5</ele><time>2026-04-05T13:54:54Z</time></trkpt><trkpt lat="41.167015058715705" lon="14.729856475977726"><ele>183.0</ele><time>2026-04-05T13:54:55Z</time></trkpt><trkpt lat="41.16676304084869" lon="14.72996472243466"><ele>185.5</ele><time>2026-04-05T13:54:56Z</time></trkpt><trkpt lat="41.16650658254542" lon="14.730084638764891"><ele>188.0</ele><time>2026-04-05T13:54:57Z</time></trkpt><trkpt lat="41.16625773705527" lon="14.730213796433206"><ele>189.0</ele><time>2026-04-05T13:54:58Z</time></trkpt><trkpt lat="41.16600455155155" lon="14.730358458158921"><ele>190.0</ele><time>2026-04-05T13:54:59Z</time></trkpt><trkpt lat="41.165766762827666" lon="14.730514670167151"><ele>188.5</ele><time>2026-04-05T13:55:00Z</time></trkpt><trkpt lat="41.16553189378716" lon="14.730690450513492"><ele>187.0</ele><time>2026-04-05T13:55:01Z</time></trkpt><trkpt lat="41.165292139392896" lon="14.730890043354705"><ele>188.0</ele><time>2026-04-05T13:55:02Z</time></trkpt><trkpt lat="41.1650503275452" lon="14.731109728053637"><ele>189.0</ele><time>2026-04-05T13:55:03Z</time></trkpt><trkpt lat="41.16481933275112" lon="14.731344996131606"><ele>186.5</ele><time>2026-04-05T13:55:04Z</time></trkpt><trkpt lat="41.16461060106291" lon="14.731563339579385"><ele>184.0</ele><time>2026-04-05T13:55:05Z</time></trkpt><trkpt lat="41.16441496166262" lon="14.731764296193798"><ele>184.66666666666669</ele><time>2026-04-05T13:55:06Z</time></trkpt><trkpt lat="41.16423973866775" lon="14.731934514203253"><ele>185.33333333333334</ele><time>2026-04-05T13:55:07Z</time></trkpt><trkpt lat="41.16408724589819" lon="14.732083596866687"><ele>186.0</ele><time>2026-04-05T13:55:08Z</time></trkpt><trkpt lat="41.163949857640425" lon="14.732213423964616"><ele>186.5</ele><time>2026-04-05T13:55:09Z</time></trkpt><trkpt lat="41.16383456080923" lon="14.73232140365444"><ele>187.0</ele><time>2026-04-05T13:55:10Z</time></trkpt><trkpt lat="41.16373751731058" lon="14.732417729678325"><ele>187.5</ele><time>2026-04-05T13:55:11Z</time></trkpt><trkpt lat="41.16364277631145" lon="14.732495675870263"><ele>188.0</ele><time>2026-04-05T13:55:12Z</time></trkpt><trkpt lat="41.16353021891306" lon="14.732536663899731"><ele>188.0</ele><time>2026-04-05T13:55:13Z</time></trkpt><trkpt lat="41.16341288840847" lon="14.732530370285996"><ele>188.0</ele><time>2026-04-05T13:55:14Z</time></trkpt><trkpt lat="41.163302303000094" lon="14.732490306535714"><ele>188.0</ele><time>2026-04-05T13:55:15Z</time></trkpt><trkpt lat="41.163210195745414" lon="14.732394168326703"><ele>188.0</ele><time>2026-04-05T13:55:16Z</time></trkpt><trkpt lat="41.16314983348953" lon="14.732261008434135"><ele>188.0</ele><time>2026-04-05T13:55:17Z</time></trkpt><trkpt lat="41.16314643764615" lon="14.732110913434056"><ele>188.0</ele><time>2026-04-05T13:55:18Z</time></trkpt><trkpt lat="41.16317880394504" lon="14.731945202710394"><ele>188.0</ele><time>2026-04-05T13:55:19Z</time></trkpt><trkpt lat="41.16327111028614" lon="14.731780410583573"><ele>188.0</ele><time>2026-04-05T13:55:20Z</time></trkpt><trkpt lat="41.1633833380547" lon="14.731582890417295"><ele>188.0</ele><time>2026-04-05T13:55:21Z</time></trkpt><trkpt lat="41.16347857295304" lon="14.731371539092029"><ele>188.0</ele><time>2026-04-05T13:55:22Z</time></trkpt><trkpt lat="41.16355023378865" lon="14.731212166845136"><ele>188.0</ele><time>2026-04-05T13:55:23Z</time></trkpt><trkpt lat="41.16360371697381" lon="14.731066744410239"><ele>188.0</ele><time>2026-04-05T13:55:24Z</time></trkpt><trkpt lat="41.16365128735125" lon="14.730928722919264"><ele>187.75</ele><time>2026-04-05T13:55:25Z</time></trkpt><trkpt lat="41.163670944460854" lon="14.73079114057201"><ele>187.5</ele><time>2026-04-05T13:55:26Z</time></trkpt><trkpt lat="41.16366096372181" lon="14.730617346477443"><ele>187.25</ele><time>2026-04-05T13:55:27Z</time></trkpt><trkpt lat="41.16363393841253" lon="14.730382903032416"><ele>187.0</ele><time>2026-04-05T13:55:28Z</time></trkpt><trkpt lat="41.16354351016839" lon="14.730178351893876"><ele>188.0</ele><time>2026-04-05T13:55:29Z</time></trkpt><trkpt lat="41.16343504409688" lon="14.730003854478326"><ele>189.0</ele><time>2026-04-05T13:55:30Z</time></trkpt><trkpt lat="41.16330839821597" lon="14.729865650242557"><ele>190.0</ele><time>2026-04-05T13:55:31.001Z</time></trkpt><trkpt lat="41.163162979004525" lon="14.729735526917347"><ele>190.0</ele><time>2026-04-05T13:55:32.001Z</time></trkpt><trkpt lat="41.16301774797025" lon="14.729597896246245"><ele>190.0</ele><time>2026-04-05T13:55:33.001Z</time></trkpt><trkpt lat="41.16288180790967" lon="14.729437501692976"><ele>190.0</ele><time>2026-04-05T13:55:34.001Z</time></trkpt><trkpt lat="41.16276582573558" lon="14.729280058550984"><ele>189.0</ele><time>2026-04-05T13:55:35.001Z</time></trkpt><trkpt lat="41.162665765307274" lon="14.729104653684029"><ele>188.0</ele><time>2026-04-05T13:55:36.001Z</time></trkpt><trkpt lat="41.16257987892384" lon="14.728899830041467"><ele>187.0</ele><time>2026-04-05T13:55:37.001Z</time></trkpt><trkpt lat="41.16247086340928" lon="14.72871298356306"><ele>186.0</ele><time>2026-04-05T13:55:38.001Z</time></trkpt><trkpt lat="41.16242734616843" lon="14.72845594484453"><ele>185.0</ele><time>2026-04-05T13:55:39.001Z</time></trkpt><trkpt lat="41.16234862655682" lon="14.72821786084883"><ele>184.0</ele><time>2026-04-05T13:55:40.001Z</time></trkpt><trkpt lat="41.16226026012883" lon="14.727960589507344"><ele>185.66666666666669</ele><time>2026-04-05T13:55:41.001Z</time></trkpt><trkpt lat="41.162168386992214" lon="14.727695015787264"><ele>187.33333333333334</ele><time>2026-04-05T13:55:42.001Z</time></trkpt><trkpt lat="41.16207893589745" lon="14.727437216683496"><ele>189.0</ele><time>2026-04-05T13:55:43.001Z</time></trkpt><trkpt lat="41.16197914210954" lon="14.727164697928417"><ele>186.0</ele><time>2026-04-05T13:55:44.001Z</time></trkpt><trkpt lat="41.16186023433833" lon="14.726887994392749"><ele>183.0</ele><time>2026-04-05T13:55:45.001Z</time></trkpt><trkpt lat="41.16172189849261" lon="14.726613707103148"><ele>183.0</ele><time>2026-04-05T13:55:46.001Z</time></trkpt><trkpt lat="41.16156217926326" lon="14.726343334768048"><ele>183.0</ele><time>2026-04-05T13:55:47.001Z</time></trkpt><trkpt lat="41.16138885386132" lon="14.72608796110365"><ele>185.0</ele><time>2026-04-05T13:55:48.001Z</time></trkpt><trkpt lat="41.16119914065139" lon="14.725849732469424"><ele>187.0</ele><time>2026-04-05T13:55:49.001Z</time></trkpt><trkpt lat="41.161000270680965" lon="14.725624624989633"><ele>187.0</ele><time>2026-04-05T13:55:50.001Z</time></trkpt><trkpt lat="41.16080404295042" lon="14.725430847747662"><ele>187.0</ele><time>2026-04-05T13:55:51.001Z</time></trkpt><trkpt lat="41.16059153467031" lon="14.725254318371828"><ele>186.5</ele><time>2026-04-05T13:55:52.001Z</time></trkpt><trkpt lat="41.160374715214026" lon="14.72509823685332"><ele>186.0</ele><time>2026-04-05T13:55:53.001Z</time></trkpt><trkpt lat="41.16015050474276" lon="14.72495993302168"><ele>186.0</ele><time>2026-04-05T13:55:54.001Z</time></trkpt><trkpt lat="41.15991333196134" lon="14.724837614821237"><ele>186.0</ele><time>2026-04-05T13:55:55.019Z</time></trkpt><trkpt lat="41.159674423030104" lon="14.724744056839402"><ele>180.5</ele><time>2026-04-05T13:55:56.023Z</time></trkpt><trkpt lat="41.159444399734944" lon="14.72468271893628"><ele>175.0</ele><time>2026-04-05T13:55:57.001Z</time></trkpt><trkpt lat="41.159179611950876" lon="14.724636790412552"><ele>168.5</ele><time>2026-04-05T13:55:58.001Z</time></trkpt><trkpt lat="41.15890321149775" lon="14.724584750572626"><ele>162.0</ele><time>2026-04-05T13:55:59.001Z</time></trkpt><trkpt lat="41.15865744314299" lon="14.724538780821772"><ele>162.0</ele><time>2026-04-05T13:56:00.001Z</time></trkpt><trkpt lat="41.158411111664456" lon="14.724508621644137"><ele>162.0</ele><time>2026-04-05T13:56:01.001Z</time></trkpt><trkpt lat="41.15818200463457" lon="14.72444061064161"><ele>159.5</ele><time>2026-04-05T13:56:02.001Z</time></trkpt><trkpt lat="41.15794797812675" lon="14.724351018442027"><ele>157.0</ele><time>2026-04-05T13:56:03.001Z</time></trkpt><trkpt lat="41.15770563880428" lon="14.724238765902244"><ele>157.0</ele><time>2026-04-05T13:56:04.001Z</time></trkpt><trkpt lat="41.15747485375999" lon="14.724103254521738"><ele>157.0</ele><time>2026-04-05T13:56:05.001Z</time></trkpt><trkpt lat="41.157258470362684" lon="14.723935964388307"><ele>158.0</ele><time>2026-04-05T13:56:06.001Z</time></trkpt><trkpt lat="41.15704878574664" lon="14.723730624098566"><ele>159.0</ele><time>2026-04-05T13:56:07.001Z</time></trkpt><trkpt lat="41.156856647467" lon="14.723486059432862"><ele>159.0</ele><time>2026-04-05T13:56:08.001Z</time></trkpt><trkpt lat="41.15667880799997" lon="14.723211209332357"><ele>159.0</ele><time>2026-04-05T13:56:09.001Z</time></trkpt><trkpt lat="41.15652021472066" lon="14.722913976975923"><ele>157.5</ele><time>2026-04-05T13:56:10.001Z</time></trkpt><trkpt lat="41.15638660958676" lon="14.72260173514802"><ele>156.0</ele><time>2026-04-05T13:56:11.001Z</time></trkpt><trkpt lat="41.156262342141495" lon="14.722306040071583"><ele>156.0</ele><time>2026-04-05T13:56:12.001Z</time></trkpt><trkpt lat="41.1561348988026" lon="14.722023133553686"><ele>156.0</ele><time>2026-04-05T13:56:13.001Z</time></trkpt><trkpt lat="41.15599377657337" lon="14.721749409640527"><ele>152.5</ele><time>2026-04-05T13:56:14.001Z</time></trkpt><trkpt lat="41.15583431372737" lon="14.721487413149342"><ele>149.0</ele><time>2026-04-05T13:56:15.001Z</time></trkpt><trkpt lat="41.15567470173853" lon="14.72122115712572"><ele>144.5</ele><time>2026-04-05T13:56:16.001Z</time></trkpt><trkpt lat="41.15551664207174" lon="14.720949855750112"><ele>140.0</ele><time>2026-04-05T13:56:17.001Z</time></trkpt><trkpt lat="41.1552305275399" lon="14.720811598426979"><ele>140.0</ele><time>2026-04-05T13:56:18.001Z</time></trkpt><trkpt lat="41.15501782724469" lon="14.72062353238246"><ele>140.0</ele><time>2026-04-05T13:56:19.001Z</time></trkpt><trkpt lat="41.15480798574754" lon="14.720430047283127"><ele>132.5</ele><time>2026-04-05T13:56:20.001Z</time></trkpt><trkpt lat="41.154607138364916" lon="14.720220565292285"><ele>125.0</ele><time>2026-04-05T13:56:21.001Z</time></trkpt><trkpt lat="41.15441236359372" lon="14.719988807797103"><ele>125.0</ele><time>2026-04-05T13:56:22.001Z</time></trkpt><trkpt lat="41.15423077395731" lon="14.719727929615164"><ele>125.0</ele><time>2026-04-05T13:56:23.001Z</time></trkpt><trkpt lat="41.15406426088266" lon="14.719439189561948"><ele>118.0</ele><time>2026-04-05T13:56:24.001Z</time></trkpt><trkpt lat="41.153915287915225" lon="14.719128559953235"><ele>111.0</ele><time>2026-04-05T13:56:25.001Z</time></trkpt><trkpt lat="41.15378042771114" lon="14.71880038728585"><ele>104.0</ele><time>2026-04-05T13:56:26.001Z</time></trkpt><trkpt lat="41.15365824561679" lon="14.718474611334136"><ele>97.0</ele><time>2026-04-05T13:56:27.001Z</time></trkpt><trkpt lat="41.15354270513055" lon="14.718171197509905"><ele>97.0</ele><time>2026-04-05T13:56:28.001Z</time></trkpt><trkpt lat="41.15342471279093" lon="14.717883243986009"><ele>97.0</ele><time>2026-04-05T13:56:29.001Z</time></trkpt><trkpt lat="41.15330701706621" lon="14.717594731260624"><ele>98.5</ele><time>2026-04-05T13:56:30.001Z</time></trkpt><trkpt lat="41.15318957881151" lon="14.71730739065695"><ele>100.0</ele><time>2026-04-05T13:56:31.001Z</time></trkpt><trkpt lat="41.15307604359676" lon="14.717026556187722"><ele>101.0</ele><time>2026-04-05T13:56:32.001Z</time></trkpt><trkpt lat="41.15296806876457" lon="14.716755632319702"><ele>102.0</ele><time>2026-04-05T13:56:33.001Z</time></trkpt><trkpt lat="41.15286636739896" lon="14.716492970051686"><ele>102.0</ele><time>2026-04-05T13:56:34.001Z</time></trkpt><trkpt lat="41.15276626084819" lon="14.716237265454449"><ele>102.0</ele><time>2026-04-05T13:56:35.001Z</time></trkpt><trkpt lat="41.152669800280684" lon="14.715993318517318"><ele>102.0</ele><time>2026-04-05T13:56:36.001Z</time></trkpt><trkpt lat="41.15257790788165" lon="14.7157594479273"><ele>102.0</ele><time>2026-04-05T13:56:37.001Z</time></trkpt><trkpt lat="41.15249064656594" lon="14.715533236779326"><ele>102.0</ele><time>2026-04-05T13:56:38.001Z</time></trkpt><trkpt lat="41.15240969185334" lon="14.71530838769781"><ele>102.0</ele><time>2026-04-05T13:56:39.001Z</time></trkpt><trkpt lat="41.15233917225847" lon="14.715090486713626"><ele>101.33333333333334</ele><time>2026-04-05T13:56:40.001Z</time></trkpt><trkpt lat="41.15228980824105" lon="14.714885022829678"><ele>100.66666666666667</ele><time>2026-04-05T13:56:41.001Z</time></trkpt><trkpt lat="41.15226252882676" lon="14.71469117774505"><ele>100.0</ele><time>2026-04-05T13:56:42.001Z</time></trkpt><trkpt lat="41.15226744856191" lon="14.714504602742416"><ele>100.25</ele><time>2026-04-05T13:56:43.001Z</time></trkpt><trkpt lat="41.15232221126069" lon="14.714354034673825"><ele>100.5</ele><time>2026-04-05T13:56:44.001Z</time></trkpt><trkpt lat="41.15241703807735" lon="14.714265513086952"><ele>100.75</ele><time>2026-04-05T13:56:45.001Z</time></trkpt><trkpt lat="41.152538322016696" lon="14.714239647537566"><ele>101.0</ele><time>2026-04-05T13:56:46.001Z</time></trkpt><trkpt lat="41.15265491413155" lon="14.71428972228801"><ele>101.0</ele><time>2026-04-05T13:56:47.002Z</time></trkpt><trkpt lat="41.15275275040936" lon="14.71439166063559"><ele>101.0</ele><time>2026-04-05T13:56:48.002Z</time></trkpt><trkpt lat="41.15280833866978" lon="14.714470777898685"><ele>101.0</ele><time>2026-04-05T13:56:49.002Z</time></trkpt><trkpt lat="41.15283437990637" lon="14.714573972171662"><ele>101.0</ele><time>2026-04-05T13:56:50.002Z</time></trkpt><trkpt lat="41.152849570317784" lon="14.714734857966342"><ele>101.0</ele><time>2026-04-05T13:56:51.002Z</time></trkpt><trkpt lat="41.152862261234986" lon="14.714974933731543"><ele>101.0</ele><time>2026-04-05T13:56:52.002Z</time></trkpt><trkpt lat="41.15287081568818" lon="14.715174982138612"><ele>101.0</ele><time>2026-04-05T13:56:53.002Z</time></trkpt><trkpt lat="41.15290604168337" lon="14.71538862103315"><ele>101.0</ele><time>2026-04-05T13:56:54.002Z</time></trkpt><trkpt lat="41.15295528372779" lon="14.715616216950135"><ele>101.19999999999999</ele><time>2026-04-05T13:56:55.002Z</time></trkpt><trkpt lat="41.15296810757452" lon="14.715712455480185"><ele>101.39999999999999</ele><time>2026-04-05T13:56:56.002Z</time></trkpt><trkpt lat="41.15299153818835" lon="14.715879512452258"><ele>101.6</ele><time>2026-04-05T13:56:57.002Z</time></trkpt><trkpt lat="41.152980331293556" lon="14.716026149057864"><ele>101.8</ele><time>2026-04-05T13:56:58.002Z</time></trkpt><trkpt lat="41.152937106775425" lon="14.716154957133995"><ele>102.0</ele><time>2026-04-05T13:56:59.002Z</time></trkpt><trkpt lat="41.15285514617862" lon="14.716269119338142"><ele>102.0</ele><time>2026-04-05T13:57:00.002Z</time></trkpt><trkpt lat="41.15275843042239" lon="14.716312510690562"><ele>102.0</ele><time>2026-04-05T13:57:01.002Z</time></trkpt><trkpt lat="41.152634466602414" lon="14.716343415955357"><ele>102.0</ele><time>2026-04-05T13:57:02.002Z</time></trkpt><trkpt lat="41.15250763146305" lon="14.716284907181096"><ele>102.0</ele><time>2026-04-05T13:57:03.002Z</time></trkpt><trkpt lat="41.15240385632465" lon="14.716177326424507"><ele>101.33333333333334</ele><time>2026-04-05T13:57:04.002Z</time></trkpt><trkpt lat="41.15231232601957" lon="14.716017345653954"><ele>100.66666666666667</ele><time>2026-04-05T13:57:05.002Z</time></trkpt><trkpt lat="41.15222924369891" lon="14.715848894356524"><ele>100.0</ele><time>2026-04-05T13:57:06.002Z</time></trkpt><trkpt lat="41.15214175962622" lon="14.715633128317402"><ele>100.0</ele><time>2026-04-05T13:57:07.002Z</time></trkpt><trkpt lat="41.152004357126664" lon="14.71548625634166"><ele>100.0</ele><time>2026-04-05T13:57:08.002Z</time></trkpt><trkpt lat="41.151843112109454" lon="14.715386009926487"><ele>100.0</ele><time>2026-04-05T13:57:09.002Z</time></trkpt><trkpt lat="41.151701131078696" lon="14.71531619472942"><ele>100.0</ele><time>2026-04-05T13:57:10.001Z</time></trkpt><trkpt lat="41.151582098101706" lon="14.715214136947637"><ele>100.0</ele><time>2026-04-05T13:57:11.001Z</time></trkpt><trkpt lat="41.15149244960834" lon="14.71506660826194"><ele>100.0</ele><time>2026-04-05T13:57:12.001Z</time></trkpt><trkpt lat="41.15145547742796" lon="14.714870929096962"><ele>100.0</ele><time>2026-04-05T13:57:13.001Z</time></trkpt><trkpt lat="41.151482581633914" lon="14.714682701711041"><ele>100.0</ele><time>2026-04-05T13:57:14.001Z</time></trkpt><trkpt lat="41.1515693953567" lon="14.714542402465614"><ele>100.0</ele><time>2026-04-05T13:57:15.001Z</time></trkpt><trkpt lat="41.15168945288052" lon="14.71444173211024"><ele>100.0</ele><time>2026-04-05T13:57:16.001Z</time></trkpt><trkpt lat="41.151813530799025" lon="14.714417204569262"><ele>100.0</ele><time>2026-04-05T13:57:17.001Z</time></trkpt><trkpt lat="41.15192263456521" lon="14.714449415083973"><ele>100.0</ele><time>2026-04-05T13:57:18.001Z</time></trkpt><trkpt lat="41.15202444289012" lon="14.714533004692424"><ele>100.0</ele><time>2026-04-05T13:57:19.001Z</time></trkpt><trkpt lat="41.15212069956896" lon="14.714648199156095"><ele>100.0</ele><time>2026-04-05T13:57:20.001Z</time></trkpt><trkpt lat="41.1521793043618" lon="14.714793906820333"><ele>100.0</ele><time>2026-04-05T13:57:21.001Z</time></trkpt><trkpt lat="41.152232983331736" lon="14.714960080775594"><ele>100.0</ele><time>2026-04-05T13:57:22.001Z</time></trkpt><trkpt lat="41.1522821549803" lon="14.715133472226713"><ele>100.0</ele><time>2026-04-05T13:57:23.001Z</time></trkpt><trkpt lat="41.152340750214805" lon="14.71530277861826"><ele>100.0</ele><time>2026-04-05T13:57:24.001Z</time></trkpt><trkpt lat="41.15238997746002" lon="14.715446490227597"><ele>100.0</ele><time>2026-04-05T13:57:25.001Z</time></trkpt><trkpt lat="41.152426443675935" lon="14.715566678891111"><ele>100.25</ele><time>2026-04-05T13:57:26.001Z</time></trkpt><trkpt lat="41.15245511209468" lon="14.715648720195794"><ele>100.5</ele><time>2026-04-05T13:57:27.001Z</time></trkpt><trkpt lat="41.15252687211935" lon="14.715481385948463"><ele>100.75</ele><time>2026-04-05T13:57:32.001Z</time></trkpt><trkpt lat="41.15246922325708" lon="14.715344850770363"><ele>101.0</ele><time>2026-04-05T13:57:33.001Z</time></trkpt><trkpt lat="41.15240471128864" lon="14.715207146143541"><ele>100.8</ele><time>2026-04-05T13:57:34.001Z</time></trkpt><trkpt lat="41.15234985642809" lon="14.715071055211235"><ele>100.6</ele><time>2026-04-05T13:57:35.001Z</time></trkpt><trkpt lat="41.15229967491302" lon="14.714931528142696"><ele>100.4</ele><time>2026-04-05T13:57:36.001Z</time></trkpt><trkpt lat="41.152250548888134" lon="14.714785758826443"><ele>100.2</ele><time>2026-04-05T13:57:37.001Z</time></trkpt><trkpt lat="41.152239269008284" lon="14.714677791801419"><ele>100.0</ele><time>2026-04-05T13:57:38.001Z</time></trkpt><trkpt lat="41.15225050752984" lon="14.714547627484299"><ele>100.00000000000001</ele><time>2026-04-05T13:57:39.001Z</time></trkpt><trkpt lat="41.1522752510787" lon="14.714428863325393"><ele>100.0</ele><time>2026-04-05T13:57:40.001Z</time></trkpt><trkpt lat="41.152327149279216" lon="14.714335526875166"><ele>100.0</ele><time>2026-04-05T13:57:41.001Z</time></trkpt><trkpt lat="41.152404169941555" lon="14.7142799445296"><ele>100.0</ele><time>2026-04-05T13:57:42.001Z</time></trkpt><trkpt lat="41.15248863308619" lon="14.714266824155777"><ele>100.00000000000001</ele><time>2026-04-05T13:57:43.001Z</time></trkpt><trkpt lat="41.15258234072429" lon="14.714271936593642"><ele>100.0</ele><time>2026-04-05T13:57:44.001Z</time></trkpt><trkpt lat="41.15266505295527" lon="14.714258434600115"><ele>100.25</ele><time>2026-04-05T13:57:45.001Z</time></trkpt><trkpt lat="41.15277270230124" lon="14.714249344844207"><ele>100.5</ele><time>2026-04-05T13:57:47.001Z</time></trkpt><trkpt lat="41.15281408993884" lon="14.714494050523308"><ele>100.75</ele><time>2026-04-05T13:57:48.001Z</time></trkpt><trkpt lat="41.152832368787074" lon="14.714609520593775"><ele>101.0</ele><time>2026-04-05T13:57:49.001Z</time></trkpt><trkpt lat="41.152839081562085" lon="14.714760571401516"><ele>101.0</ele><time>2026-04-05T13:57:50.001Z</time></trkpt><trkpt lat="41.15284525292917" lon="14.714909695620037"><ele>101.0</ele><time>2026-04-05T13:57:51.001Z</time></trkpt><trkpt lat="41.15285788548784" lon="14.715078781590485"><ele>101.0</ele><time>2026-04-05T13:57:52.001Z</time></trkpt><trkpt lat="41.1528734952728" lon="14.715246161022073"><ele>101.0</ele><time>2026-04-05T13:57:53.001Z</time></trkpt><trkpt lat="41.1528943309841" lon="14.715412626075066"><ele>101.19999999999999</ele><time>2026-04-05T13:57:54.001Z</time></trkpt><trkpt lat="41.15292146143362" lon="14.715570394888235"><ele>101.39999999999999</ele><time>2026-04-05T13:57:55.001Z</time></trkpt><trkpt lat="41.15295016909281" lon="14.715698013254876"><ele>101.6</ele><time>2026-04-05T13:57:56.001Z</time></trkpt><trkpt lat="41.15297027094847" lon="14.715809950591385"><ele>101.8</ele><time>2026-04-05T13:57:57.001Z</time></trkpt><trkpt lat="41.15299273091989" lon="14.71589631294656"><ele>102.0</ele><time>2026-04-05T13:57:58.001Z</time></trkpt><trkpt lat="41.15300502471707" lon="14.716011342689503"><ele>102.0</ele><time>2026-04-05T13:58:00.001Z</time></trkpt><trkpt lat="41.15307652900379" lon="14.716117391594603"><ele>102.0</ele><time>2026-04-05T13:58:12.001Z</time></trkpt><trkpt lat="41.15310293997346" lon="14.716197536500788"><ele>102.0</ele><time>2026-04-05T13:58:13.001Z</time></trkpt><trkpt lat="41.15312722567249" lon="14.716310210177884"><ele>102.0</ele><time>2026-04-05T13:58:15.001Z</time></trkpt><trkpt lat="41.15303430689587" lon="14.71629211270934"><ele>102.0</ele><time>2026-04-05T13:58:17.001Z</time></trkpt><trkpt lat="41.15295648397329" lon="14.716292446383145"><ele>102.0</ele><time>2026-04-05T13:58:18.001Z</time></trkpt><trkpt lat="41.152863372600486" lon="14.716300665685685"><ele>102.0</ele><time>2026-04-05T13:58:19.001Z</time></trkpt><trkpt lat="41.1527595835302" lon="14.716346011434815"><ele>102.0</ele><time>2026-04-05T13:58:20.001Z</time></trkpt><trkpt lat="41.15268233556194" lon="14.716396711371013"><ele>102.0</ele><time>2026-04-05T13:58:21.001Z</time></trkpt><trkpt lat="41.15260739339355" lon="14.716390813248228"><ele>102.0</ele><time>2026-04-05T13:58:22.001Z</time></trkpt><trkpt lat="41.1524919819526" lon="14.716361272909145"><ele>102.0</ele><time>2026-04-05T13:58:24.001Z</time></trkpt><trkpt lat="41.15241726573547" lon="14.716298673285971"><ele>101.6</ele><time>2026-04-05T13:58:25.001Z</time></trkpt><trkpt lat="41.15233935341306" lon="14.716215986669395"><ele>101.19999999999999</ele><time>2026-04-05T13:58:26.001Z</time></trkpt><trkpt lat="41.152289661203554" lon="14.716135908297947"><ele>100.8</ele><time>2026-04-05T13:58:27.001Z</time></trkpt><trkpt lat="41.15224481037475" lon="14.716045321958296"><ele>100.4</ele><time>2026-04-05T13:58:28.001Z</time></trkpt><trkpt lat="41.15219560719909" lon="14.715923643502716"><ele>100.0</ele><time>2026-04-05T13:58:29.001Z</time></trkpt><trkpt lat="41.152142078439276" lon="14.715807394064578"><ele>100.0</ele><time>2026-04-05T13:58:30.001Z</time></trkpt><trkpt lat="41.152073568249875" lon="14.715706396267786"><ele>100.0</ele><time>2026-04-05T13:58:31.001Z</time></trkpt><trkpt lat="41.15199563849491" lon="14.715648227188796"><ele>100.0</ele><time>2026-04-05T13:58:32.001Z</time></trkpt><trkpt lat="41.15190326928416" lon="14.71559069876706"><ele>100.0</ele><time>2026-04-05T13:58:33.001Z</time></trkpt><trkpt lat="41.15180274545752" lon="14.715546827930227"><ele>100.0</ele><time>2026-04-05T13:58:34.001Z</time></trkpt><trkpt lat="41.151701451375914" lon="14.715501264987529"><ele>100.00000000000001</ele><time>2026-04-05T13:58:35.001Z</time></trkpt><trkpt lat="41.15161551440535" lon="14.715455924130108"><ele>100.0</ele><time>2026-04-05T13:58:36.001Z</time></trkpt><trkpt lat="41.15154697295814" lon="14.715403704944835"><ele>100.0</ele><time>2026-04-05T13:58:37.001Z</time></trkpt><trkpt lat="41.151487087660925" lon="14.715332864745129"><ele>100.0</ele><time>2026-04-05T13:58:38.001Z</time></trkpt><trkpt lat="41.15144631760711" lon="14.715249977807346"><ele>100.00000000000001</ele><time>2026-04-05T13:58:39.001Z</time></trkpt><trkpt lat="41.151394547267984" lon="14.715120488917078"><ele>100.0</ele><time>2026-04-05T13:58:41.001Z</time></trkpt><trkpt lat="41.15136361510222" lon="14.714950686162014"><ele>99.83333333333334</ele><time>2026-04-05T13:58:43.001Z</time></trkpt><trkpt lat="41.15135589171113" lon="14.714844594723397"><ele>99.66666666666667</ele><time>2026-04-05T13:58:44.001Z</time></trkpt><trkpt lat="41.15136368253201" lon="14.714737153949365"><ele>99.5</ele><time>2026-04-05T13:58:45.001Z</time></trkpt><trkpt lat="41.15138793087939" lon="14.714648056904098"><ele>99.33333333333334</ele><time>2026-04-05T13:58:46.001Z</time></trkpt><trkpt lat="41.15141811310102" lon="14.714570555823201"><ele>99.16666666666667</ele><time>2026-04-05T13:58:47.001Z</time></trkpt><trkpt lat="41.151463364104416" lon="14.714481346502737"><ele>99.0</ele><time>2026-04-05T13:58:48.001Z</time></trkpt><trkpt lat="41.15153046539266" lon="14.714357959518718"><ele>99.5</ele><time>2026-04-05T13:58:49.001Z</time></trkpt><trkpt lat="41.15161407975183" lon="14.714238923457074"><ele>100.0</ele><time>2026-04-05T13:58:50.001Z</time></trkpt><trkpt lat="41.151702529873624" lon="14.714125209583623"><ele>100.5</ele><time>2026-04-05T13:58:51.001Z</time></trkpt><trkpt lat="41.1517696730888" lon="14.714005337149725"><ele>101.0</ele><time>2026-04-05T13:58:52.001Z</time></trkpt><trkpt lat="41.15182510359651" lon="14.713887129801794"><ele>101.0</ele><time>2026-04-05T13:58:53.003Z</time></trkpt><trkpt lat="41.1518640122826" lon="14.713752942565957"><ele>101.0</ele><time>2026-04-05T13:58:54.003Z</time></trkpt><trkpt lat="41.15187848257916" lon="14.713609287586902"><ele>101.0</ele><time>2026-04-05T13:58:55.003Z</time></trkpt><trkpt lat="41.15188566701366" lon="14.713449631606766"><ele>101.0</ele><time>2026-04-05T13:58:56.003Z</time></trkpt><trkpt lat="41.15188978928418" lon="14.713286051255604"><ele>101.0</ele><time>2026-04-05T13:58:57.003Z</time></trkpt><trkpt lat="41.15190513814114" lon="14.713121442669868"><ele>101.0</ele><time>2026-04-05T13:58:58.002Z</time></trkpt><trkpt lat="41.15190578223273" lon="14.712985767679594"><ele>101.0</ele><time>2026-04-05T13:58:59.002Z</time></trkpt><trkpt lat="41.15192078589283" lon="14.712849333391938"><ele>101.0</ele><time>2026-04-05T13:59:00.002Z</time></trkpt><trkpt lat="41.15195242129587" lon="14.712714330477208"><ele>101.0</ele><time>2026-04-05T13:59:01.002Z</time></trkpt><trkpt lat="41.15199382145465" lon="14.712575260690594"><ele>101.4</ele><time>2026-04-05T13:59:02.002Z</time></trkpt><trkpt lat="41.152039655581554" lon="14.712446636493757"><ele>101.8</ele><time>2026-04-05T13:59:03.002Z</time></trkpt><trkpt lat="41.152093927113455" lon="14.712319332886016"><ele>102.2</ele><time>2026-04-05T13:59:04.002Z</time></trkpt><trkpt lat="41.15214499067164" lon="14.71219376682921"><ele>102.60000000000001</ele><time>2026-04-05T13:59:05.002Z</time></trkpt><trkpt lat="41.15220113101391" lon="14.712075591266562"><ele>103.0</ele><time>2026-04-05T13:59:06.002Z</time></trkpt><trkpt lat="41.15226671976606" lon="14.711948720752675"><ele>102.80000000000001</ele><time>2026-04-05T13:59:07.002Z</time></trkpt><trkpt lat="41.15232691483899" lon="14.711828343343011"><ele>102.6</ele><time>2026-04-05T13:59:08.002Z</time></trkpt><trkpt lat="41.152385317511175" lon="14.711713901321891"><ele>102.4</ele><time>2026-04-05T13:59:09.002Z</time></trkpt><trkpt lat="41.15244709491534" lon="14.711606548234233"><ele>102.19999999999999</ele><time>2026-04-05T13:59:10.002Z</time></trkpt><trkpt lat="41.15251543060253" lon="14.711495717321496"><ele>102.0</ele><time>2026-04-05T13:59:11.002Z</time></trkpt><trkpt lat="41.15259045498303" lon="14.711389796573517"><ele>103.25</ele><time>2026-04-05T13:59:12.002Z</time></trkpt><trkpt lat="41.15267079923938" lon="14.711283322532882"><ele>104.5</ele><time>2026-04-05T13:59:13.002Z</time></trkpt><trkpt lat="41.15274882557133" lon="14.711177460334671"><ele>105.75</ele><time>2026-04-05T13:59:14.002Z</time></trkpt><trkpt lat="41.15284789428419" lon="14.711086727154996"><ele>107.0</ele><time>2026-04-05T13:59:15.002Z</time></trkpt><trkpt lat="41.152933072107764" lon="14.710961467368412"><ele>107.0</ele><time>2026-04-05T13:59:16.002Z</time></trkpt><trkpt lat="41.15303565545598" lon="14.71087551755037"><ele>107.0</ele><time>2026-04-05T13:59:17.002Z</time></trkpt><trkpt lat="41.153131389862644" lon="14.710752191293365"><ele>107.0</ele><time>2026-04-05T13:59:18.001Z</time></trkpt><trkpt lat="41.15324854833643" lon="14.710643772946018"><ele>107.0</ele><time>2026-04-05T13:59:19.001Z</time></trkpt><trkpt lat="41.15336291389813" lon="14.710539026599266"><ele>108.25</ele><time>2026-04-05T13:59:20.001Z</time></trkpt><trkpt lat="41.153468294998135" lon="14.710427229624262"><ele>109.5</ele><time>2026-04-05T13:59:21.001Z</time></trkpt><trkpt lat="41.153567602427664" lon="14.710327118819247"><ele>110.75</ele><time>2026-04-05T13:59:22.001Z</time></trkpt><trkpt lat="41.153651408070445" lon="14.710232926440973"><ele>112.0</ele><time>2026-04-05T13:59:23.001Z</time></trkpt><trkpt lat="41.153728426074" lon="14.710154164070389"><ele>112.0</ele><time>2026-04-05T13:59:24.001Z</time></trkpt><trkpt lat="41.15379956796974" lon="14.710081066512215"><ele>111.99999999999999</ele><time>2026-04-05T13:59:25.001Z</time></trkpt><trkpt lat="41.15386350907379" lon="14.710009743804376"><ele>111.99999999999999</ele><time>2026-04-05T13:59:26.001Z</time></trkpt><trkpt lat="41.153912554508246" lon="14.709953316678815"><ele>112.0</ele><time>2026-04-05T13:59:27.001Z</time></trkpt><trkpt lat="41.15399384919674" lon="14.709861608170671"><ele>112.0</ele><time>2026-04-05T13:59:29.001Z</time></trkpt><trkpt lat="41.15389942314349" lon="14.709710144647511"><ele>112.0</ele><time>2026-04-05T13:59:31.001Z</time></trkpt><trkpt lat="41.153794523977226" lon="14.709720032607587"><ele>112.0</ele><time>2026-04-05T13:59:32.001Z</time></trkpt><trkpt lat="41.15363422151073" lon="14.70970221969629"><ele>112.0</ele><time>2026-04-05T13:59:33.001Z</time></trkpt><trkpt lat="41.15347552885678" lon="14.709688459010863"><ele>112.0</ele><time>2026-04-05T13:59:34.001Z</time></trkpt><trkpt lat="41.15333254417061" lon="14.709703156710882"><ele>109.75</ele><time>2026-04-05T13:59:35.001Z</time></trkpt><trkpt lat="41.15319216677778" lon="14.709684305150368"><ele>107.5</ele><time>2026-04-05T13:59:36.001Z</time></trkpt><trkpt lat="41.153042698204715" lon="14.709670458576712"><ele>105.25</ele><time>2026-04-05T13:59:37.001Z</time></trkpt><trkpt lat="41.15288915340418" lon="14.709659326007245"><ele>103.0</ele><time>2026-04-05T13:59:38.001Z</time></trkpt><trkpt lat="41.15275052515328" lon="14.709656476452446"><ele>103.0</ele><time>2026-04-05T13:59:39.001Z</time></trkpt><trkpt lat="41.152607981297855" lon="14.709643028012273"><ele>103.0</ele><time>2026-04-05T13:59:40.001Z</time></trkpt><trkpt lat="41.152474868374306" lon="14.709616100111015"><ele>103.0</ele><time>2026-04-05T13:59:41.001Z</time></trkpt><trkpt lat="41.1523444450838" lon="14.709596822381359"><ele>103.0</ele><time>2026-04-05T13:59:42.001Z</time></trkpt><trkpt lat="41.15219981470625" lon="14.709557643805562"><ele>102.25</ele><time>2026-04-05T13:59:43.001Z</time></trkpt><trkpt lat="41.15206248887151" lon="14.70954423443626"><ele>101.5</ele><time>2026-04-05T13:59:44.001Z</time></trkpt><trkpt lat="41.1519480800421" lon="14.709497376309493"><ele>100.75</ele><time>2026-04-05T13:59:45.001Z</time></trkpt><trkpt lat="41.151840999955176" lon="14.709466382297535"><ele>100.0</ele><time>2026-04-05T13:59:46.001Z</time></trkpt><trkpt lat="41.151755154848" lon="14.709434200042255"><ele>100.00000000000001</ele><time>2026-04-05T13:59:47.001Z</time></trkpt><trkpt lat="41.15165740235203" lon="14.709374489161622"><ele>100.0</ele><time>2026-04-05T13:59:49.001Z</time></trkpt><trkpt lat="41.1516391031554" lon="14.709263942732754"><ele>100.0</ele><time>2026-04-05T13:59:53.001Z</time></trkpt><trkpt lat="41.1516418557949" lon="14.709179406651241"><ele>100.0</ele><time>2026-04-05T13:59:55.001Z</time></trkpt><trkpt lat="41.1517077318781" lon="14.709127894183245"><ele>100.00000000000001</ele><time>2026-04-05T13:59:58.001Z</time></trkpt><trkpt lat="41.15174000076404" lon="14.70905513393797"><ele>100.0</ele><time>2026-04-05T14:00:01.001Z</time></trkpt><trkpt lat="41.151780774896366" lon="14.708971620649114"><ele>100.0</ele><time>2026-04-05T14:00:03.001Z</time></trkpt><trkpt lat="41.151848302567025" lon="14.708859554320417"><ele>100.0</ele><time>2026-04-05T14:00:05.001Z</time></trkpt><trkpt lat="41.15190730092932" lon="14.70877240366493"><ele>100.0</ele><time>2026-04-05T14:00:07.001Z</time></trkpt><trkpt lat="41.15175892731498" lon="14.708490803260405"><ele>104.0</ele><time>2026-04-05T14:00:09.001Z</time></trkpt><trkpt lat="41.151732085063074" lon="14.708412176659035"><ele>104.0</ele><time>2026-04-05T14:00:12.001Z</time></trkpt></trkseg></trk></gpx>